<?xml version="1.0" encoding="UTF-8" standalone="no" ?>
<gpx xmlns="http://www.topografix.com/GPX/1/1" xmlns:xsi="http://www.w3.org/2001/XMLSchema-instance" xsi:schemaLocation="http://www.topografix.com/GPX/1/1 http://www.topografix.com/GPX/1/1/gpx.xsd" version="1.1" creator="VisuGPX - https://www.visugpx.com">
  <metadata>
    <name>S 703</name>
  </metadata>
  <trk>
    <name><![CDATA[Vélo dans l'après-midi]]></name>
    <trkseg>
      <trkpt lat="49.28633" lon="-0.11926">
        <ele>5.2</ele>
        <time>2023-11-22T12:55:43Z</time>
      </trkpt>
      <trkpt lat="49.28637" lon="-0.11927">
        <ele>5.2</ele>
        <time>2023-11-22T12:55:44Z</time>
      </trkpt>
      <trkpt lat="49.28636" lon="-0.11932">
        <ele>5.2</ele>
        <time>2023-11-22T12:55:45Z</time>
      </trkpt>
      <trkpt lat="49.28635" lon="-0.11933">
        <ele>5.2</ele>
        <time>2023-11-22T12:55:46Z</time>
      </trkpt>
      <trkpt lat="49.28637" lon="-0.11932">
        <ele>5.2</ele>
        <time>2023-11-22T12:55:47Z</time>
      </trkpt>
      <trkpt lat="49.2864" lon="-0.11932">
        <ele>5.2</ele>
        <time>2023-11-22T12:55:49Z</time>
      </trkpt>
      <trkpt lat="49.2864" lon="-0.11932">
        <ele>5.2</ele>
        <time>2023-11-22T12:55:50Z</time>
      </trkpt>
      <trkpt lat="49.2864" lon="-0.11932">
        <ele>5.2</ele>
        <time>2023-11-22T12:55:51Z</time>
      </trkpt>
      <trkpt lat="49.28641" lon="-0.11933">
        <ele>5.2</ele>
        <time>2023-11-22T12:55:52Z</time>
      </trkpt>
      <trkpt lat="49.28641" lon="-0.11934">
        <ele>5.2</ele>
        <time>2023-11-22T12:55:53Z</time>
      </trkpt>
      <trkpt lat="49.28641" lon="-0.11934">
        <ele>5.2</ele>
        <time>2023-11-22T12:55:54Z</time>
      </trkpt>
      <trkpt lat="49.28641" lon="-0.11934">
        <ele>5.2</ele>
        <time>2023-11-22T12:55:55Z</time>
      </trkpt>
      <trkpt lat="49.28641" lon="-0.11934">
        <ele>5.2</ele>
        <time>2023-11-22T12:55:56Z</time>
      </trkpt>
      <trkpt lat="49.28641" lon="-0.11934">
        <ele>5.2</ele>
        <time>2023-11-22T12:55:57Z</time>
      </trkpt>
      <trkpt lat="49.28641" lon="-0.11934">
        <ele>5.2</ele>
        <time>2023-11-22T12:55:58Z</time>
      </trkpt>
      <trkpt lat="49.28641" lon="-0.11934">
        <ele>5.2</ele>
        <time>2023-11-22T12:55:59Z</time>
      </trkpt>
      <trkpt lat="49.28641" lon="-0.11934">
        <ele>5.2</ele>
        <time>2023-11-22T12:56:00Z</time>
      </trkpt>
      <trkpt lat="49.28641" lon="-0.11934">
        <ele>5.2</ele>
        <time>2023-11-22T12:56:01Z</time>
      </trkpt>
      <trkpt lat="49.28641" lon="-0.11934">
        <ele>5.2</ele>
        <time>2023-11-22T12:56:02Z</time>
      </trkpt>
      <trkpt lat="49.28645" lon="-0.11917">
        <ele>5.2</ele>
        <time>2023-11-22T13:01:24Z</time>
      </trkpt>
      <trkpt lat="49.28644" lon="-0.11916">
        <ele>5.1</ele>
        <time>2023-11-22T13:01:25Z</time>
      </trkpt>
      <trkpt lat="49.28643" lon="-0.11914">
        <ele>5.1</ele>
        <time>2023-11-22T13:01:26Z</time>
      </trkpt>
      <trkpt lat="49.28641" lon="-0.1191">
        <ele>4.9</ele>
        <time>2023-11-22T13:01:27Z</time>
      </trkpt>
      <trkpt lat="49.28641" lon="-0.11909">
        <ele>4.9</ele>
        <time>2023-11-22T13:01:28Z</time>
      </trkpt>
      <trkpt lat="49.28641" lon="-0.11907">
        <ele>4.9</ele>
        <time>2023-11-22T13:01:29Z</time>
      </trkpt>
      <trkpt lat="49.28641" lon="-0.11904">
        <ele>4.8</ele>
        <time>2023-11-22T13:01:30Z</time>
      </trkpt>
      <trkpt lat="49.28642" lon="-0.119">
        <ele>4.8</ele>
        <time>2023-11-22T13:01:31Z</time>
      </trkpt>
      <trkpt lat="49.28642" lon="-0.11898">
        <ele>4.7</ele>
        <time>2023-11-22T13:01:32Z</time>
      </trkpt>
      <trkpt lat="49.28643" lon="-0.11893">
        <ele>4.7</ele>
        <time>2023-11-22T13:01:33Z</time>
      </trkpt>
      <trkpt lat="49.28643" lon="-0.11892">
        <ele>4.7</ele>
        <time>2023-11-22T13:01:34Z</time>
      </trkpt>
      <trkpt lat="49.28643" lon="-0.11887">
        <ele>4.6</ele>
        <time>2023-11-22T13:01:35Z</time>
      </trkpt>
      <trkpt lat="49.28643" lon="-0.11882">
        <ele>4.6</ele>
        <time>2023-11-22T13:01:36Z</time>
      </trkpt>
      <trkpt lat="49.28641" lon="-0.11878">
        <ele>4.6</ele>
        <time>2023-11-22T13:01:37Z</time>
      </trkpt>
      <trkpt lat="49.28638" lon="-0.11873">
        <ele>4.6</ele>
        <time>2023-11-22T13:01:38Z</time>
      </trkpt>
      <trkpt lat="49.28635" lon="-0.11869">
        <ele>4.6</ele>
        <time>2023-11-22T13:01:39Z</time>
      </trkpt>
      <trkpt lat="49.28632" lon="-0.11865">
        <ele>4.6</ele>
        <time>2023-11-22T13:01:40Z</time>
      </trkpt>
      <trkpt lat="49.2863" lon="-0.1186">
        <ele>4.5</ele>
        <time>2023-11-22T13:01:41Z</time>
      </trkpt>
      <trkpt lat="49.28628" lon="-0.11855">
        <ele>4.5</ele>
        <time>2023-11-22T13:01:42Z</time>
      </trkpt>
      <trkpt lat="49.28626" lon="-0.1185">
        <ele>4.6</ele>
        <time>2023-11-22T13:01:43Z</time>
      </trkpt>
      <trkpt lat="49.28626" lon="-0.11843">
        <ele>4.6</ele>
        <time>2023-11-22T13:01:44Z</time>
      </trkpt>
      <trkpt lat="49.28626" lon="-0.11838">
        <ele>4.6</ele>
        <time>2023-11-22T13:01:45Z</time>
      </trkpt>
      <trkpt lat="49.28626" lon="-0.11832">
        <ele>4.6</ele>
        <time>2023-11-22T13:01:46Z</time>
      </trkpt>
      <trkpt lat="49.28628" lon="-0.11826">
        <ele>4.6</ele>
        <time>2023-11-22T13:01:47Z</time>
      </trkpt>
      <trkpt lat="49.28629" lon="-0.11821">
        <ele>4.6</ele>
        <time>2023-11-22T13:01:48Z</time>
      </trkpt>
      <trkpt lat="49.2863" lon="-0.11815">
        <ele>4.6</ele>
        <time>2023-11-22T13:01:49Z</time>
      </trkpt>
      <trkpt lat="49.28631" lon="-0.1181">
        <ele>4.7</ele>
        <time>2023-11-22T13:01:50Z</time>
      </trkpt>
      <trkpt lat="49.28632" lon="-0.11804">
        <ele>4.7</ele>
        <time>2023-11-22T13:01:51Z</time>
      </trkpt>
      <trkpt lat="49.28633" lon="-0.11798">
        <ele>4.7</ele>
        <time>2023-11-22T13:01:52Z</time>
      </trkpt>
      <trkpt lat="49.28634" lon="-0.11792">
        <ele>4.7</ele>
        <time>2023-11-22T13:01:53Z</time>
      </trkpt>
      <trkpt lat="49.28636" lon="-0.11786">
        <ele>4.8</ele>
        <time>2023-11-22T13:01:54Z</time>
      </trkpt>
      <trkpt lat="49.28637" lon="-0.11779">
        <ele>4.8</ele>
        <time>2023-11-22T13:01:55Z</time>
      </trkpt>
      <trkpt lat="49.28639" lon="-0.11771">
        <ele>4.8</ele>
        <time>2023-11-22T13:01:56Z</time>
      </trkpt>
      <trkpt lat="49.28641" lon="-0.11764">
        <ele>4.8</ele>
        <time>2023-11-22T13:01:57Z</time>
      </trkpt>
      <trkpt lat="49.28643" lon="-0.11756">
        <ele>4.9</ele>
        <time>2023-11-22T13:01:58Z</time>
      </trkpt>
      <trkpt lat="49.28646" lon="-0.11748">
        <ele>4.9</ele>
        <time>2023-11-22T13:01:59Z</time>
      </trkpt>
      <trkpt lat="49.28647" lon="-0.11739">
        <ele>4.9</ele>
        <time>2023-11-22T13:02:00Z</time>
      </trkpt>
      <trkpt lat="49.28649" lon="-0.1173">
        <ele>4.9</ele>
        <time>2023-11-22T13:02:01Z</time>
      </trkpt>
      <trkpt lat="49.28651" lon="-0.11722">
        <ele>5</ele>
        <time>2023-11-22T13:02:02Z</time>
      </trkpt>
      <trkpt lat="49.28652" lon="-0.11714">
        <ele>5</ele>
        <time>2023-11-22T13:02:03Z</time>
      </trkpt>
      <trkpt lat="49.28654" lon="-0.11705">
        <ele>5</ele>
        <time>2023-11-22T13:02:04Z</time>
      </trkpt>
      <trkpt lat="49.28655" lon="-0.11697">
        <ele>5</ele>
        <time>2023-11-22T13:02:05Z</time>
      </trkpt>
      <trkpt lat="49.28656" lon="-0.11689">
        <ele>5.1</ele>
        <time>2023-11-22T13:02:06Z</time>
      </trkpt>
      <trkpt lat="49.28656" lon="-0.11681">
        <ele>5.1</ele>
        <time>2023-11-22T13:02:07Z</time>
      </trkpt>
      <trkpt lat="49.28654" lon="-0.11675">
        <ele>5.1</ele>
        <time>2023-11-22T13:02:08Z</time>
      </trkpt>
      <trkpt lat="49.2865" lon="-0.11672">
        <ele>5.2</ele>
        <time>2023-11-22T13:02:09Z</time>
      </trkpt>
      <trkpt lat="49.28643" lon="-0.11672">
        <ele>5.2</ele>
        <time>2023-11-22T13:02:10Z</time>
      </trkpt>
      <trkpt lat="49.28637" lon="-0.11675">
        <ele>5.2</ele>
        <time>2023-11-22T13:02:11Z</time>
      </trkpt>
      <trkpt lat="49.28632" lon="-0.11679">
        <ele>5.2</ele>
        <time>2023-11-22T13:02:12Z</time>
      </trkpt>
      <trkpt lat="49.28627" lon="-0.11681">
        <ele>5.3</ele>
        <time>2023-11-22T13:02:13Z</time>
      </trkpt>
      <trkpt lat="49.28622" lon="-0.11683">
        <ele>5.3</ele>
        <time>2023-11-22T13:02:14Z</time>
      </trkpt>
      <trkpt lat="49.28617" lon="-0.11685">
        <ele>5.3</ele>
        <time>2023-11-22T13:02:15Z</time>
      </trkpt>
      <trkpt lat="49.28612" lon="-0.11687">
        <ele>5.3</ele>
        <time>2023-11-22T13:02:16Z</time>
      </trkpt>
      <trkpt lat="49.28607" lon="-0.1169">
        <ele>5.3</ele>
        <time>2023-11-22T13:02:17Z</time>
      </trkpt>
      <trkpt lat="49.28602" lon="-0.11692">
        <ele>5.4</ele>
        <time>2023-11-22T13:02:18Z</time>
      </trkpt>
      <trkpt lat="49.28597" lon="-0.11693">
        <ele>5.4</ele>
        <time>2023-11-22T13:02:19Z</time>
      </trkpt>
      <trkpt lat="49.28592" lon="-0.11695">
        <ele>5.4</ele>
        <time>2023-11-22T13:02:20Z</time>
      </trkpt>
      <trkpt lat="49.28587" lon="-0.11697">
        <ele>5.4</ele>
        <time>2023-11-22T13:02:21Z</time>
      </trkpt>
      <trkpt lat="49.28581" lon="-0.11699">
        <ele>5.4</ele>
        <time>2023-11-22T13:02:22Z</time>
      </trkpt>
      <trkpt lat="49.28576" lon="-0.117">
        <ele>5.4</ele>
        <time>2023-11-22T13:02:23Z</time>
      </trkpt>
      <trkpt lat="49.2857" lon="-0.11701">
        <ele>5.3</ele>
        <time>2023-11-22T13:02:24Z</time>
      </trkpt>
      <trkpt lat="49.28565" lon="-0.11702">
        <ele>5.3</ele>
        <time>2023-11-22T13:02:25Z</time>
      </trkpt>
      <trkpt lat="49.28559" lon="-0.11703">
        <ele>5.3</ele>
        <time>2023-11-22T13:02:26Z</time>
      </trkpt>
      <trkpt lat="49.28554" lon="-0.11703">
        <ele>5.3</ele>
        <time>2023-11-22T13:02:27Z</time>
      </trkpt>
      <trkpt lat="49.28548" lon="-0.11704">
        <ele>5.3</ele>
        <time>2023-11-22T13:02:28Z</time>
      </trkpt>
      <trkpt lat="49.28542" lon="-0.11704">
        <ele>5.3</ele>
        <time>2023-11-22T13:02:29Z</time>
      </trkpt>
      <trkpt lat="49.28536" lon="-0.11704">
        <ele>5.3</ele>
        <time>2023-11-22T13:02:30Z</time>
      </trkpt>
      <trkpt lat="49.2853" lon="-0.11704">
        <ele>5.3</ele>
        <time>2023-11-22T13:02:31Z</time>
      </trkpt>
      <trkpt lat="49.28524" lon="-0.11704">
        <ele>5.3</ele>
        <time>2023-11-22T13:02:32Z</time>
      </trkpt>
      <trkpt lat="49.28518" lon="-0.11702">
        <ele>5.2</ele>
        <time>2023-11-22T13:02:33Z</time>
      </trkpt>
      <trkpt lat="49.28513" lon="-0.117">
        <ele>5.2</ele>
        <time>2023-11-22T13:02:34Z</time>
      </trkpt>
      <trkpt lat="49.28507" lon="-0.11699">
        <ele>5.2</ele>
        <time>2023-11-22T13:02:35Z</time>
      </trkpt>
      <trkpt lat="49.28502" lon="-0.11698">
        <ele>5.2</ele>
        <time>2023-11-22T13:02:36Z</time>
      </trkpt>
      <trkpt lat="49.28496" lon="-0.11696">
        <ele>5.2</ele>
        <time>2023-11-22T13:02:37Z</time>
      </trkpt>
      <trkpt lat="49.28491" lon="-0.11695">
        <ele>5.2</ele>
        <time>2023-11-22T13:02:38Z</time>
      </trkpt>
      <trkpt lat="49.28486" lon="-0.11694">
        <ele>5.2</ele>
        <time>2023-11-22T13:02:39Z</time>
      </trkpt>
      <trkpt lat="49.28481" lon="-0.11693">
        <ele>5.2</ele>
        <time>2023-11-22T13:02:40Z</time>
      </trkpt>
      <trkpt lat="49.28477" lon="-0.11692">
        <ele>5.2</ele>
        <time>2023-11-22T13:02:41Z</time>
      </trkpt>
      <trkpt lat="49.28473" lon="-0.11691">
        <ele>5.2</ele>
        <time>2023-11-22T13:02:42Z</time>
      </trkpt>
      <trkpt lat="49.28468" lon="-0.1169">
        <ele>5.2</ele>
        <time>2023-11-22T13:02:43Z</time>
      </trkpt>
      <trkpt lat="49.28464" lon="-0.11688">
        <ele>5.2</ele>
        <time>2023-11-22T13:02:44Z</time>
      </trkpt>
      <trkpt lat="49.2846" lon="-0.11687">
        <ele>5.2</ele>
        <time>2023-11-22T13:02:45Z</time>
      </trkpt>
      <trkpt lat="49.28456" lon="-0.11686">
        <ele>5.1</ele>
        <time>2023-11-22T13:02:46Z</time>
      </trkpt>
      <trkpt lat="49.28452" lon="-0.11684">
        <ele>5.1</ele>
        <time>2023-11-22T13:02:47Z</time>
      </trkpt>
      <trkpt lat="49.28448" lon="-0.11683">
        <ele>5.1</ele>
        <time>2023-11-22T13:02:48Z</time>
      </trkpt>
      <trkpt lat="49.28444" lon="-0.11682">
        <ele>5.1</ele>
        <time>2023-11-22T13:02:49Z</time>
      </trkpt>
      <trkpt lat="49.28441" lon="-0.11681">
        <ele>5.1</ele>
        <time>2023-11-22T13:02:50Z</time>
      </trkpt>
      <trkpt lat="49.28437" lon="-0.11681">
        <ele>5.1</ele>
        <time>2023-11-22T13:02:51Z</time>
      </trkpt>
      <trkpt lat="49.28433" lon="-0.1168">
        <ele>5.1</ele>
        <time>2023-11-22T13:02:52Z</time>
      </trkpt>
      <trkpt lat="49.28429" lon="-0.11679">
        <ele>5.1</ele>
        <time>2023-11-22T13:02:53Z</time>
      </trkpt>
      <trkpt lat="49.28424" lon="-0.11679">
        <ele>5.1</ele>
        <time>2023-11-22T13:02:54Z</time>
      </trkpt>
      <trkpt lat="49.2842" lon="-0.11677">
        <ele>5.1</ele>
        <time>2023-11-22T13:02:55Z</time>
      </trkpt>
      <trkpt lat="49.28415" lon="-0.11676">
        <ele>5.1</ele>
        <time>2023-11-22T13:02:56Z</time>
      </trkpt>
      <trkpt lat="49.28411" lon="-0.11674">
        <ele>5.1</ele>
        <time>2023-11-22T13:02:57Z</time>
      </trkpt>
      <trkpt lat="49.28407" lon="-0.11673">
        <ele>5</ele>
        <time>2023-11-22T13:02:58Z</time>
      </trkpt>
      <trkpt lat="49.28403" lon="-0.11673">
        <ele>5</ele>
        <time>2023-11-22T13:02:59Z</time>
      </trkpt>
      <trkpt lat="49.28398" lon="-0.11672">
        <ele>5</ele>
        <time>2023-11-22T13:03:00Z</time>
      </trkpt>
      <trkpt lat="49.28393" lon="-0.11671">
        <ele>5</ele>
        <time>2023-11-22T13:03:01Z</time>
      </trkpt>
      <trkpt lat="49.28388" lon="-0.1167">
        <ele>5</ele>
        <time>2023-11-22T13:03:02Z</time>
      </trkpt>
      <trkpt lat="49.28383" lon="-0.11669">
        <ele>5</ele>
        <time>2023-11-22T13:03:03Z</time>
      </trkpt>
      <trkpt lat="49.28379" lon="-0.11669">
        <ele>5</ele>
        <time>2023-11-22T13:03:04Z</time>
      </trkpt>
      <trkpt lat="49.28374" lon="-0.11668">
        <ele>5</ele>
        <time>2023-11-22T13:03:05Z</time>
      </trkpt>
      <trkpt lat="49.2837" lon="-0.11668">
        <ele>5</ele>
        <time>2023-11-22T13:03:06Z</time>
      </trkpt>
      <trkpt lat="49.28365" lon="-0.11667">
        <ele>5</ele>
        <time>2023-11-22T13:03:07Z</time>
      </trkpt>
      <trkpt lat="49.2836" lon="-0.11665">
        <ele>4.9</ele>
        <time>2023-11-22T13:03:08Z</time>
      </trkpt>
      <trkpt lat="49.28356" lon="-0.11664">
        <ele>4.9</ele>
        <time>2023-11-22T13:03:09Z</time>
      </trkpt>
      <trkpt lat="49.28351" lon="-0.11662">
        <ele>4.9</ele>
        <time>2023-11-22T13:03:10Z</time>
      </trkpt>
      <trkpt lat="49.28347" lon="-0.11662">
        <ele>4.9</ele>
        <time>2023-11-22T13:03:11Z</time>
      </trkpt>
      <trkpt lat="49.28342" lon="-0.11661">
        <ele>4.9</ele>
        <time>2023-11-22T13:03:12Z</time>
      </trkpt>
      <trkpt lat="49.28338" lon="-0.1166">
        <ele>4.9</ele>
        <time>2023-11-22T13:03:13Z</time>
      </trkpt>
      <trkpt lat="49.28333" lon="-0.11659">
        <ele>4.9</ele>
        <time>2023-11-22T13:03:14Z</time>
      </trkpt>
      <trkpt lat="49.28328" lon="-0.11658">
        <ele>4.9</ele>
        <time>2023-11-22T13:03:15Z</time>
      </trkpt>
      <trkpt lat="49.28323" lon="-0.11657">
        <ele>4.8</ele>
        <time>2023-11-22T13:03:16Z</time>
      </trkpt>
      <trkpt lat="49.28318" lon="-0.11656">
        <ele>4.8</ele>
        <time>2023-11-22T13:03:17Z</time>
      </trkpt>
      <trkpt lat="49.28313" lon="-0.11656">
        <ele>4.8</ele>
        <time>2023-11-22T13:03:18Z</time>
      </trkpt>
      <trkpt lat="49.28308" lon="-0.11656">
        <ele>4.9</ele>
        <time>2023-11-22T13:03:19Z</time>
      </trkpt>
      <trkpt lat="49.28304" lon="-0.11658">
        <ele>4.9</ele>
        <time>2023-11-22T13:03:20Z</time>
      </trkpt>
      <trkpt lat="49.28299" lon="-0.11661">
        <ele>4.9</ele>
        <time>2023-11-22T13:03:21Z</time>
      </trkpt>
      <trkpt lat="49.28295" lon="-0.11665">
        <ele>4.9</ele>
        <time>2023-11-22T13:03:22Z</time>
      </trkpt>
      <trkpt lat="49.28292" lon="-0.11668">
        <ele>4.9</ele>
        <time>2023-11-22T13:03:23Z</time>
      </trkpt>
      <trkpt lat="49.28288" lon="-0.11671">
        <ele>4.9</ele>
        <time>2023-11-22T13:03:24Z</time>
      </trkpt>
      <trkpt lat="49.28283" lon="-0.11673">
        <ele>5.1</ele>
        <time>2023-11-22T13:03:25Z</time>
      </trkpt>
      <trkpt lat="49.28278" lon="-0.11673">
        <ele>5.3</ele>
        <time>2023-11-22T13:03:26Z</time>
      </trkpt>
      <trkpt lat="49.28273" lon="-0.11671">
        <ele>5.5</ele>
        <time>2023-11-22T13:03:27Z</time>
      </trkpt>
      <trkpt lat="49.28268" lon="-0.11668">
        <ele>5.7</ele>
        <time>2023-11-22T13:03:28Z</time>
      </trkpt>
      <trkpt lat="49.28264" lon="-0.11664">
        <ele>5.8</ele>
        <time>2023-11-22T13:03:29Z</time>
      </trkpt>
      <trkpt lat="49.28259" lon="-0.1166">
        <ele>6</ele>
        <time>2023-11-22T13:03:30Z</time>
      </trkpt>
      <trkpt lat="49.28254" lon="-0.11656">
        <ele>6</ele>
        <time>2023-11-22T13:03:31Z</time>
      </trkpt>
      <trkpt lat="49.2825" lon="-0.11652">
        <ele>5.9</ele>
        <time>2023-11-22T13:03:32Z</time>
      </trkpt>
      <trkpt lat="49.28245" lon="-0.11649">
        <ele>5.8</ele>
        <time>2023-11-22T13:03:33Z</time>
      </trkpt>
      <trkpt lat="49.28241" lon="-0.11647">
        <ele>5.8</ele>
        <time>2023-11-22T13:03:34Z</time>
      </trkpt>
      <trkpt lat="49.28236" lon="-0.11645">
        <ele>5.9</ele>
        <time>2023-11-22T13:03:35Z</time>
      </trkpt>
      <trkpt lat="49.28231" lon="-0.11644">
        <ele>5.9</ele>
        <time>2023-11-22T13:03:36Z</time>
      </trkpt>
      <trkpt lat="49.28226" lon="-0.11644">
        <ele>5.9</ele>
        <time>2023-11-22T13:03:37Z</time>
      </trkpt>
      <trkpt lat="49.28221" lon="-0.11644">
        <ele>6</ele>
        <time>2023-11-22T13:03:38Z</time>
      </trkpt>
      <trkpt lat="49.28215" lon="-0.11643">
        <ele>6</ele>
        <time>2023-11-22T13:03:39Z</time>
      </trkpt>
      <trkpt lat="49.2821" lon="-0.11643">
        <ele>6</ele>
        <time>2023-11-22T13:03:40Z</time>
      </trkpt>
      <trkpt lat="49.28205" lon="-0.11643">
        <ele>6</ele>
        <time>2023-11-22T13:03:41Z</time>
      </trkpt>
      <trkpt lat="49.282" lon="-0.11643">
        <ele>6</ele>
        <time>2023-11-22T13:03:42Z</time>
      </trkpt>
      <trkpt lat="49.28195" lon="-0.11643">
        <ele>6</ele>
        <time>2023-11-22T13:03:43Z</time>
      </trkpt>
      <trkpt lat="49.2819" lon="-0.11643">
        <ele>6</ele>
        <time>2023-11-22T13:03:44Z</time>
      </trkpt>
      <trkpt lat="49.28185" lon="-0.11644">
        <ele>6</ele>
        <time>2023-11-22T13:03:45Z</time>
      </trkpt>
      <trkpt lat="49.2818" lon="-0.11644">
        <ele>6</ele>
        <time>2023-11-22T13:03:46Z</time>
      </trkpt>
      <trkpt lat="49.28174" lon="-0.11643">
        <ele>5.9</ele>
        <time>2023-11-22T13:03:47Z</time>
      </trkpt>
      <trkpt lat="49.28169" lon="-0.11644">
        <ele>5.9</ele>
        <time>2023-11-22T13:03:48Z</time>
      </trkpt>
      <trkpt lat="49.28164" lon="-0.11643">
        <ele>5.8</ele>
        <time>2023-11-22T13:03:49Z</time>
      </trkpt>
      <trkpt lat="49.28159" lon="-0.11643">
        <ele>5.8</ele>
        <time>2023-11-22T13:03:50Z</time>
      </trkpt>
      <trkpt lat="49.28154" lon="-0.11642">
        <ele>5.7</ele>
        <time>2023-11-22T13:03:51Z</time>
      </trkpt>
      <trkpt lat="49.2815" lon="-0.11642">
        <ele>5.7</ele>
        <time>2023-11-22T13:03:52Z</time>
      </trkpt>
      <trkpt lat="49.28145" lon="-0.11642">
        <ele>5.6</ele>
        <time>2023-11-22T13:03:53Z</time>
      </trkpt>
      <trkpt lat="49.2814" lon="-0.11642">
        <ele>5.6</ele>
        <time>2023-11-22T13:03:54Z</time>
      </trkpt>
      <trkpt lat="49.28135" lon="-0.11643">
        <ele>5.5</ele>
        <time>2023-11-22T13:03:55Z</time>
      </trkpt>
      <trkpt lat="49.2813" lon="-0.11643">
        <ele>5.5</ele>
        <time>2023-11-22T13:03:56Z</time>
      </trkpt>
      <trkpt lat="49.28125" lon="-0.11642">
        <ele>5.4</ele>
        <time>2023-11-22T13:03:57Z</time>
      </trkpt>
      <trkpt lat="49.28119" lon="-0.11642">
        <ele>5.3</ele>
        <time>2023-11-22T13:03:58Z</time>
      </trkpt>
      <trkpt lat="49.28114" lon="-0.11642">
        <ele>5.3</ele>
        <time>2023-11-22T13:03:59Z</time>
      </trkpt>
      <trkpt lat="49.28108" lon="-0.11642">
        <ele>5.2</ele>
        <time>2023-11-22T13:04:00Z</time>
      </trkpt>
      <trkpt lat="49.28103" lon="-0.11641">
        <ele>5.1</ele>
        <time>2023-11-22T13:04:01Z</time>
      </trkpt>
      <trkpt lat="49.28098" lon="-0.11641">
        <ele>5.1</ele>
        <time>2023-11-22T13:04:02Z</time>
      </trkpt>
      <trkpt lat="49.28093" lon="-0.11641">
        <ele>5</ele>
        <time>2023-11-22T13:04:03Z</time>
      </trkpt>
      <trkpt lat="49.28088" lon="-0.11642">
        <ele>5</ele>
        <time>2023-11-22T13:04:04Z</time>
      </trkpt>
      <trkpt lat="49.28083" lon="-0.11641">
        <ele>4.9</ele>
        <time>2023-11-22T13:04:05Z</time>
      </trkpt>
      <trkpt lat="49.28077" lon="-0.11641">
        <ele>4.8</ele>
        <time>2023-11-22T13:04:06Z</time>
      </trkpt>
      <trkpt lat="49.28072" lon="-0.1164">
        <ele>4.8</ele>
        <time>2023-11-22T13:04:07Z</time>
      </trkpt>
      <trkpt lat="49.28068" lon="-0.11639">
        <ele>4.7</ele>
        <time>2023-11-22T13:04:08Z</time>
      </trkpt>
      <trkpt lat="49.28063" lon="-0.11638">
        <ele>4.7</ele>
        <time>2023-11-22T13:04:09Z</time>
      </trkpt>
      <trkpt lat="49.28058" lon="-0.11638">
        <ele>4.6</ele>
        <time>2023-11-22T13:04:10Z</time>
      </trkpt>
      <trkpt lat="49.28052" lon="-0.11637">
        <ele>4.6</ele>
        <time>2023-11-22T13:04:11Z</time>
      </trkpt>
      <trkpt lat="49.28047" lon="-0.11637">
        <ele>4.5</ele>
        <time>2023-11-22T13:04:12Z</time>
      </trkpt>
      <trkpt lat="49.28042" lon="-0.11638">
        <ele>4.5</ele>
        <time>2023-11-22T13:04:13Z</time>
      </trkpt>
      <trkpt lat="49.28036" lon="-0.11638">
        <ele>4.5</ele>
        <time>2023-11-22T13:04:14Z</time>
      </trkpt>
      <trkpt lat="49.28031" lon="-0.11638">
        <ele>4.5</ele>
        <time>2023-11-22T13:04:15Z</time>
      </trkpt>
      <trkpt lat="49.28026" lon="-0.11638">
        <ele>4.5</ele>
        <time>2023-11-22T13:04:16Z</time>
      </trkpt>
      <trkpt lat="49.28021" lon="-0.11639">
        <ele>4.5</ele>
        <time>2023-11-22T13:04:17Z</time>
      </trkpt>
      <trkpt lat="49.28016" lon="-0.11639">
        <ele>4.4</ele>
        <time>2023-11-22T13:04:18Z</time>
      </trkpt>
      <trkpt lat="49.28011" lon="-0.11639">
        <ele>4.4</ele>
        <time>2023-11-22T13:04:19Z</time>
      </trkpt>
      <trkpt lat="49.28006" lon="-0.11639">
        <ele>4.4</ele>
        <time>2023-11-22T13:04:20Z</time>
      </trkpt>
      <trkpt lat="49.28002" lon="-0.11639">
        <ele>4.4</ele>
        <time>2023-11-22T13:04:21Z</time>
      </trkpt>
      <trkpt lat="49.27997" lon="-0.1164">
        <ele>4.4</ele>
        <time>2023-11-22T13:04:22Z</time>
      </trkpt>
      <trkpt lat="49.27992" lon="-0.1164">
        <ele>4.4</ele>
        <time>2023-11-22T13:04:23Z</time>
      </trkpt>
      <trkpt lat="49.27988" lon="-0.11641">
        <ele>4.5</ele>
        <time>2023-11-22T13:04:24Z</time>
      </trkpt>
      <trkpt lat="49.27982" lon="-0.1164">
        <ele>4.5</ele>
        <time>2023-11-22T13:04:25Z</time>
      </trkpt>
      <trkpt lat="49.27977" lon="-0.1164">
        <ele>4.5</ele>
        <time>2023-11-22T13:04:26Z</time>
      </trkpt>
      <trkpt lat="49.27972" lon="-0.11641">
        <ele>4.5</ele>
        <time>2023-11-22T13:04:27Z</time>
      </trkpt>
      <trkpt lat="49.27967" lon="-0.11641">
        <ele>4.5</ele>
        <time>2023-11-22T13:04:28Z</time>
      </trkpt>
      <trkpt lat="49.27962" lon="-0.11642">
        <ele>4.6</ele>
        <time>2023-11-22T13:04:29Z</time>
      </trkpt>
      <trkpt lat="49.27956" lon="-0.11642">
        <ele>4.6</ele>
        <time>2023-11-22T13:04:30Z</time>
      </trkpt>
      <trkpt lat="49.27951" lon="-0.11642">
        <ele>4.6</ele>
        <time>2023-11-22T13:04:31Z</time>
      </trkpt>
      <trkpt lat="49.27946" lon="-0.11642">
        <ele>4.6</ele>
        <time>2023-11-22T13:04:32Z</time>
      </trkpt>
      <trkpt lat="49.27941" lon="-0.11642">
        <ele>4.6</ele>
        <time>2023-11-22T13:04:33Z</time>
      </trkpt>
      <trkpt lat="49.27936" lon="-0.11642">
        <ele>4.6</ele>
        <time>2023-11-22T13:04:34Z</time>
      </trkpt>
      <trkpt lat="49.27931" lon="-0.11642">
        <ele>4.6</ele>
        <time>2023-11-22T13:04:35Z</time>
      </trkpt>
      <trkpt lat="49.27926" lon="-0.11642">
        <ele>4.6</ele>
        <time>2023-11-22T13:04:36Z</time>
      </trkpt>
      <trkpt lat="49.27921" lon="-0.11643">
        <ele>4.6</ele>
        <time>2023-11-22T13:04:37Z</time>
      </trkpt>
      <trkpt lat="49.27915" lon="-0.11644">
        <ele>4.6</ele>
        <time>2023-11-22T13:04:38Z</time>
      </trkpt>
      <trkpt lat="49.2791" lon="-0.11644">
        <ele>4.6</ele>
        <time>2023-11-22T13:04:39Z</time>
      </trkpt>
      <trkpt lat="49.27904" lon="-0.11644">
        <ele>4.6</ele>
        <time>2023-11-22T13:04:40Z</time>
      </trkpt>
      <trkpt lat="49.27898" lon="-0.11644">
        <ele>4.6</ele>
        <time>2023-11-22T13:04:41Z</time>
      </trkpt>
      <trkpt lat="49.27892" lon="-0.11644">
        <ele>4.6</ele>
        <time>2023-11-22T13:04:42Z</time>
      </trkpt>
      <trkpt lat="49.27886" lon="-0.11645">
        <ele>4.6</ele>
        <time>2023-11-22T13:04:43Z</time>
      </trkpt>
      <trkpt lat="49.27879" lon="-0.11645">
        <ele>4.6</ele>
        <time>2023-11-22T13:04:44Z</time>
      </trkpt>
      <trkpt lat="49.27872" lon="-0.11646">
        <ele>4.6</ele>
        <time>2023-11-22T13:04:45Z</time>
      </trkpt>
      <trkpt lat="49.27866" lon="-0.11647">
        <ele>4.6</ele>
        <time>2023-11-22T13:04:46Z</time>
      </trkpt>
      <trkpt lat="49.27859" lon="-0.11648">
        <ele>4.6</ele>
        <time>2023-11-22T13:04:47Z</time>
      </trkpt>
      <trkpt lat="49.27852" lon="-0.11651">
        <ele>4.5</ele>
        <time>2023-11-22T13:04:48Z</time>
      </trkpt>
      <trkpt lat="49.27846" lon="-0.11653">
        <ele>4.5</ele>
        <time>2023-11-22T13:04:49Z</time>
      </trkpt>
      <trkpt lat="49.27839" lon="-0.11656">
        <ele>4.4</ele>
        <time>2023-11-22T13:04:50Z</time>
      </trkpt>
      <trkpt lat="49.27832" lon="-0.11659">
        <ele>4.4</ele>
        <time>2023-11-22T13:04:51Z</time>
      </trkpt>
      <trkpt lat="49.27825" lon="-0.11662">
        <ele>4.3</ele>
        <time>2023-11-22T13:04:52Z</time>
      </trkpt>
      <trkpt lat="49.27818" lon="-0.11666">
        <ele>4.2</ele>
        <time>2023-11-22T13:04:53Z</time>
      </trkpt>
      <trkpt lat="49.27811" lon="-0.1167">
        <ele>4.2</ele>
        <time>2023-11-22T13:04:54Z</time>
      </trkpt>
      <trkpt lat="49.27804" lon="-0.11674">
        <ele>4.1</ele>
        <time>2023-11-22T13:04:55Z</time>
      </trkpt>
      <trkpt lat="49.27798" lon="-0.11678">
        <ele>4</ele>
        <time>2023-11-22T13:04:56Z</time>
      </trkpt>
      <trkpt lat="49.27791" lon="-0.11683">
        <ele>3.9</ele>
        <time>2023-11-22T13:04:57Z</time>
      </trkpt>
      <trkpt lat="49.27783" lon="-0.11687">
        <ele>3.8</ele>
        <time>2023-11-22T13:04:58Z</time>
      </trkpt>
      <trkpt lat="49.27776" lon="-0.11691">
        <ele>3.8</ele>
        <time>2023-11-22T13:04:59Z</time>
      </trkpt>
      <trkpt lat="49.27769" lon="-0.11695">
        <ele>3.8</ele>
        <time>2023-11-22T13:05:00Z</time>
      </trkpt>
      <trkpt lat="49.27762" lon="-0.11699">
        <ele>3.7</ele>
        <time>2023-11-22T13:05:01Z</time>
      </trkpt>
      <trkpt lat="49.27755" lon="-0.11703">
        <ele>3.7</ele>
        <time>2023-11-22T13:05:02Z</time>
      </trkpt>
      <trkpt lat="49.27747" lon="-0.11707">
        <ele>3.7</ele>
        <time>2023-11-22T13:05:03Z</time>
      </trkpt>
      <trkpt lat="49.2774" lon="-0.1171">
        <ele>3.7</ele>
        <time>2023-11-22T13:05:04Z</time>
      </trkpt>
      <trkpt lat="49.27733" lon="-0.11712">
        <ele>3.7</ele>
        <time>2023-11-22T13:05:05Z</time>
      </trkpt>
      <trkpt lat="49.27726" lon="-0.11713">
        <ele>3.7</ele>
        <time>2023-11-22T13:05:06Z</time>
      </trkpt>
      <trkpt lat="49.27719" lon="-0.11715">
        <ele>3.7</ele>
        <time>2023-11-22T13:05:07Z</time>
      </trkpt>
      <trkpt lat="49.27713" lon="-0.11715">
        <ele>3.7</ele>
        <time>2023-11-22T13:05:08Z</time>
      </trkpt>
      <trkpt lat="49.27706" lon="-0.11714">
        <ele>3.7</ele>
        <time>2023-11-22T13:05:09Z</time>
      </trkpt>
      <trkpt lat="49.27699" lon="-0.11714">
        <ele>3.7</ele>
        <time>2023-11-22T13:05:10Z</time>
      </trkpt>
      <trkpt lat="49.27692" lon="-0.11713">
        <ele>3.7</ele>
        <time>2023-11-22T13:05:11Z</time>
      </trkpt>
      <trkpt lat="49.27684" lon="-0.11712">
        <ele>3.7</ele>
        <time>2023-11-22T13:05:12Z</time>
      </trkpt>
      <trkpt lat="49.27677" lon="-0.1171">
        <ele>3.8</ele>
        <time>2023-11-22T13:05:13Z</time>
      </trkpt>
      <trkpt lat="49.2767" lon="-0.11707">
        <ele>3.8</ele>
        <time>2023-11-22T13:05:14Z</time>
      </trkpt>
      <trkpt lat="49.27663" lon="-0.11705">
        <ele>3.8</ele>
        <time>2023-11-22T13:05:15Z</time>
      </trkpt>
      <trkpt lat="49.27657" lon="-0.11701">
        <ele>3.9</ele>
        <time>2023-11-22T13:05:16Z</time>
      </trkpt>
      <trkpt lat="49.2765" lon="-0.11698">
        <ele>3.9</ele>
        <time>2023-11-22T13:05:17Z</time>
      </trkpt>
      <trkpt lat="49.27644" lon="-0.11693">
        <ele>3.9</ele>
        <time>2023-11-22T13:05:18Z</time>
      </trkpt>
      <trkpt lat="49.27638" lon="-0.11688">
        <ele>4</ele>
        <time>2023-11-22T13:05:19Z</time>
      </trkpt>
      <trkpt lat="49.27633" lon="-0.11684">
        <ele>4</ele>
        <time>2023-11-22T13:05:20Z</time>
      </trkpt>
      <trkpt lat="49.27627" lon="-0.11681">
        <ele>4</ele>
        <time>2023-11-22T13:05:21Z</time>
      </trkpt>
      <trkpt lat="49.27622" lon="-0.11678">
        <ele>4</ele>
        <time>2023-11-22T13:05:22Z</time>
      </trkpt>
      <trkpt lat="49.27616" lon="-0.11675">
        <ele>4</ele>
        <time>2023-11-22T13:05:23Z</time>
      </trkpt>
      <trkpt lat="49.2761" lon="-0.11673">
        <ele>4</ele>
        <time>2023-11-22T13:05:24Z</time>
      </trkpt>
      <trkpt lat="49.27604" lon="-0.1167">
        <ele>4</ele>
        <time>2023-11-22T13:05:25Z</time>
      </trkpt>
      <trkpt lat="49.27598" lon="-0.11667">
        <ele>4</ele>
        <time>2023-11-22T13:05:26Z</time>
      </trkpt>
      <trkpt lat="49.27592" lon="-0.11665">
        <ele>4</ele>
        <time>2023-11-22T13:05:27Z</time>
      </trkpt>
      <trkpt lat="49.27585" lon="-0.11663">
        <ele>4</ele>
        <time>2023-11-22T13:05:28Z</time>
      </trkpt>
      <trkpt lat="49.27578" lon="-0.11662">
        <ele>4</ele>
        <time>2023-11-22T13:05:29Z</time>
      </trkpt>
      <trkpt lat="49.27572" lon="-0.11662">
        <ele>4</ele>
        <time>2023-11-22T13:05:30Z</time>
      </trkpt>
      <trkpt lat="49.27565" lon="-0.11661">
        <ele>4</ele>
        <time>2023-11-22T13:05:31Z</time>
      </trkpt>
      <trkpt lat="49.27558" lon="-0.11661">
        <ele>4</ele>
        <time>2023-11-22T13:05:32Z</time>
      </trkpt>
      <trkpt lat="49.27552" lon="-0.11661">
        <ele>4</ele>
        <time>2023-11-22T13:05:33Z</time>
      </trkpt>
      <trkpt lat="49.27546" lon="-0.11662">
        <ele>4</ele>
        <time>2023-11-22T13:05:34Z</time>
      </trkpt>
      <trkpt lat="49.2754" lon="-0.11662">
        <ele>4</ele>
        <time>2023-11-22T13:05:35Z</time>
      </trkpt>
      <trkpt lat="49.27533" lon="-0.11662">
        <ele>3.9</ele>
        <time>2023-11-22T13:05:36Z</time>
      </trkpt>
      <trkpt lat="49.27527" lon="-0.11662">
        <ele>3.9</ele>
        <time>2023-11-22T13:05:37Z</time>
      </trkpt>
      <trkpt lat="49.2752" lon="-0.11662">
        <ele>3.9</ele>
        <time>2023-11-22T13:05:38Z</time>
      </trkpt>
      <trkpt lat="49.27514" lon="-0.11663">
        <ele>3.9</ele>
        <time>2023-11-22T13:05:39Z</time>
      </trkpt>
      <trkpt lat="49.27507" lon="-0.11664">
        <ele>3.9</ele>
        <time>2023-11-22T13:05:40Z</time>
      </trkpt>
      <trkpt lat="49.27501" lon="-0.11664">
        <ele>4</ele>
        <time>2023-11-22T13:05:41Z</time>
      </trkpt>
      <trkpt lat="49.27495" lon="-0.11664">
        <ele>4</ele>
        <time>2023-11-22T13:05:42Z</time>
      </trkpt>
      <trkpt lat="49.27488" lon="-0.11664">
        <ele>4</ele>
        <time>2023-11-22T13:05:43Z</time>
      </trkpt>
      <trkpt lat="49.27482" lon="-0.11665">
        <ele>4.1</ele>
        <time>2023-11-22T13:05:44Z</time>
      </trkpt>
      <trkpt lat="49.27477" lon="-0.11665">
        <ele>4.1</ele>
        <time>2023-11-22T13:05:45Z</time>
      </trkpt>
      <trkpt lat="49.27471" lon="-0.11665">
        <ele>4.1</ele>
        <time>2023-11-22T13:05:46Z</time>
      </trkpt>
      <trkpt lat="49.27466" lon="-0.11665">
        <ele>4.2</ele>
        <time>2023-11-22T13:05:47Z</time>
      </trkpt>
      <trkpt lat="49.2746" lon="-0.11666">
        <ele>4.3</ele>
        <time>2023-11-22T13:05:48Z</time>
      </trkpt>
      <trkpt lat="49.27455" lon="-0.11666">
        <ele>4.3</ele>
        <time>2023-11-22T13:05:49Z</time>
      </trkpt>
      <trkpt lat="49.2745" lon="-0.11666">
        <ele>4.4</ele>
        <time>2023-11-22T13:05:50Z</time>
      </trkpt>
      <trkpt lat="49.27445" lon="-0.11667">
        <ele>4.5</ele>
        <time>2023-11-22T13:05:51Z</time>
      </trkpt>
      <trkpt lat="49.2744" lon="-0.11668">
        <ele>4.6</ele>
        <time>2023-11-22T13:05:52Z</time>
      </trkpt>
      <trkpt lat="49.27436" lon="-0.11668">
        <ele>4.7</ele>
        <time>2023-11-22T13:05:53Z</time>
      </trkpt>
      <trkpt lat="49.27432" lon="-0.11668">
        <ele>4.8</ele>
        <time>2023-11-22T13:05:54Z</time>
      </trkpt>
      <trkpt lat="49.27429" lon="-0.11669">
        <ele>4.8</ele>
        <time>2023-11-22T13:05:55Z</time>
      </trkpt>
      <trkpt lat="49.27426" lon="-0.11669">
        <ele>4.9</ele>
        <time>2023-11-22T13:05:56Z</time>
      </trkpt>
      <trkpt lat="49.27423" lon="-0.11668">
        <ele>4.9</ele>
        <time>2023-11-22T13:05:57Z</time>
      </trkpt>
      <trkpt lat="49.27421" lon="-0.11668">
        <ele>4.9</ele>
        <time>2023-11-22T13:05:58Z</time>
      </trkpt>
      <trkpt lat="49.27419" lon="-0.11665">
        <ele>5</ele>
        <time>2023-11-22T13:05:59Z</time>
      </trkpt>
      <trkpt lat="49.27417" lon="-0.11662">
        <ele>5</ele>
        <time>2023-11-22T13:06:00Z</time>
      </trkpt>
      <trkpt lat="49.27416" lon="-0.11656">
        <ele>5</ele>
        <time>2023-11-22T13:06:01Z</time>
      </trkpt>
      <trkpt lat="49.27416" lon="-0.11649">
        <ele>5</ele>
        <time>2023-11-22T13:06:02Z</time>
      </trkpt>
      <trkpt lat="49.27415" lon="-0.11643">
        <ele>5</ele>
        <time>2023-11-22T13:06:03Z</time>
      </trkpt>
      <trkpt lat="49.27415" lon="-0.11636">
        <ele>4.9</ele>
        <time>2023-11-22T13:06:04Z</time>
      </trkpt>
      <trkpt lat="49.27414" lon="-0.1163">
        <ele>4.9</ele>
        <time>2023-11-22T13:06:05Z</time>
      </trkpt>
      <trkpt lat="49.27415" lon="-0.11623">
        <ele>4.9</ele>
        <time>2023-11-22T13:06:06Z</time>
      </trkpt>
      <trkpt lat="49.27415" lon="-0.11616">
        <ele>4.9</ele>
        <time>2023-11-22T13:06:07Z</time>
      </trkpt>
      <trkpt lat="49.27414" lon="-0.11608">
        <ele>4.9</ele>
        <time>2023-11-22T13:06:08Z</time>
      </trkpt>
      <trkpt lat="49.27414" lon="-0.116">
        <ele>5</ele>
        <time>2023-11-22T13:06:09Z</time>
      </trkpt>
      <trkpt lat="49.27414" lon="-0.11592">
        <ele>5</ele>
        <time>2023-11-22T13:06:10Z</time>
      </trkpt>
      <trkpt lat="49.27414" lon="-0.11584">
        <ele>5</ele>
        <time>2023-11-22T13:06:11Z</time>
      </trkpt>
      <trkpt lat="49.27414" lon="-0.11576">
        <ele>5</ele>
        <time>2023-11-22T13:06:12Z</time>
      </trkpt>
      <trkpt lat="49.27414" lon="-0.11567">
        <ele>5</ele>
        <time>2023-11-22T13:06:13Z</time>
      </trkpt>
      <trkpt lat="49.27415" lon="-0.11558">
        <ele>5</ele>
        <time>2023-11-22T13:06:14Z</time>
      </trkpt>
      <trkpt lat="49.27415" lon="-0.11549">
        <ele>5</ele>
        <time>2023-11-22T13:06:15Z</time>
      </trkpt>
      <trkpt lat="49.27415" lon="-0.11539">
        <ele>5</ele>
        <time>2023-11-22T13:06:16Z</time>
      </trkpt>
      <trkpt lat="49.27415" lon="-0.11529">
        <ele>4.9</ele>
        <time>2023-11-22T13:06:17Z</time>
      </trkpt>
      <trkpt lat="49.27415" lon="-0.1152">
        <ele>4.9</ele>
        <time>2023-11-22T13:06:18Z</time>
      </trkpt>
      <trkpt lat="49.27415" lon="-0.1151">
        <ele>4.9</ele>
        <time>2023-11-22T13:06:19Z</time>
      </trkpt>
      <trkpt lat="49.27416" lon="-0.115">
        <ele>4.9</ele>
        <time>2023-11-22T13:06:20Z</time>
      </trkpt>
      <trkpt lat="49.27416" lon="-0.1149">
        <ele>4.9</ele>
        <time>2023-11-22T13:06:21Z</time>
      </trkpt>
      <trkpt lat="49.27417" lon="-0.11479">
        <ele>4.9</ele>
        <time>2023-11-22T13:06:22Z</time>
      </trkpt>
      <trkpt lat="49.27417" lon="-0.11469">
        <ele>5</ele>
        <time>2023-11-22T13:06:23Z</time>
      </trkpt>
      <trkpt lat="49.27417" lon="-0.11459">
        <ele>5</ele>
        <time>2023-11-22T13:06:24Z</time>
      </trkpt>
      <trkpt lat="49.27417" lon="-0.1145">
        <ele>5</ele>
        <time>2023-11-22T13:06:25Z</time>
      </trkpt>
      <trkpt lat="49.27417" lon="-0.1144">
        <ele>5</ele>
        <time>2023-11-22T13:06:26Z</time>
      </trkpt>
      <trkpt lat="49.27417" lon="-0.1143">
        <ele>5.1</ele>
        <time>2023-11-22T13:06:27Z</time>
      </trkpt>
      <trkpt lat="49.27417" lon="-0.11419">
        <ele>5.1</ele>
        <time>2023-11-22T13:06:28Z</time>
      </trkpt>
      <trkpt lat="49.27418" lon="-0.11409">
        <ele>5.1</ele>
        <time>2023-11-22T13:06:29Z</time>
      </trkpt>
      <trkpt lat="49.27418" lon="-0.11398">
        <ele>5.2</ele>
        <time>2023-11-22T13:06:30Z</time>
      </trkpt>
      <trkpt lat="49.27419" lon="-0.11387">
        <ele>5.2</ele>
        <time>2023-11-22T13:06:31Z</time>
      </trkpt>
      <trkpt lat="49.27419" lon="-0.11376">
        <ele>5.2</ele>
        <time>2023-11-22T13:06:32Z</time>
      </trkpt>
      <trkpt lat="49.27419" lon="-0.11365">
        <ele>5.3</ele>
        <time>2023-11-22T13:06:33Z</time>
      </trkpt>
      <trkpt lat="49.27419" lon="-0.11354">
        <ele>5.3</ele>
        <time>2023-11-22T13:06:34Z</time>
      </trkpt>
      <trkpt lat="49.27419" lon="-0.11342">
        <ele>5.4</ele>
        <time>2023-11-22T13:06:35Z</time>
      </trkpt>
      <trkpt lat="49.2742" lon="-0.11331">
        <ele>5.5</ele>
        <time>2023-11-22T13:06:36Z</time>
      </trkpt>
      <trkpt lat="49.2742" lon="-0.1132">
        <ele>5.6</ele>
        <time>2023-11-22T13:06:37Z</time>
      </trkpt>
      <trkpt lat="49.2742" lon="-0.11309">
        <ele>5.6</ele>
        <time>2023-11-22T13:06:38Z</time>
      </trkpt>
      <trkpt lat="49.2742" lon="-0.11298">
        <ele>5.7</ele>
        <time>2023-11-22T13:06:39Z</time>
      </trkpt>
      <trkpt lat="49.2742" lon="-0.11287">
        <ele>5.8</ele>
        <time>2023-11-22T13:06:40Z</time>
      </trkpt>
      <trkpt lat="49.27421" lon="-0.11276">
        <ele>5.8</ele>
        <time>2023-11-22T13:06:41Z</time>
      </trkpt>
      <trkpt lat="49.27421" lon="-0.11265">
        <ele>5.9</ele>
        <time>2023-11-22T13:06:42Z</time>
      </trkpt>
      <trkpt lat="49.27421" lon="-0.11253">
        <ele>5.9</ele>
        <time>2023-11-22T13:06:43Z</time>
      </trkpt>
      <trkpt lat="49.27421" lon="-0.11241">
        <ele>5.9</ele>
        <time>2023-11-22T13:06:44Z</time>
      </trkpt>
      <trkpt lat="49.27422" lon="-0.11229">
        <ele>6</ele>
        <time>2023-11-22T13:06:45Z</time>
      </trkpt>
      <trkpt lat="49.27422" lon="-0.11218">
        <ele>6</ele>
        <time>2023-11-22T13:06:46Z</time>
      </trkpt>
      <trkpt lat="49.27422" lon="-0.11205">
        <ele>6.1</ele>
        <time>2023-11-22T13:06:47Z</time>
      </trkpt>
      <trkpt lat="49.27423" lon="-0.11193">
        <ele>6.1</ele>
        <time>2023-11-22T13:06:48Z</time>
      </trkpt>
      <trkpt lat="49.27423" lon="-0.11181">
        <ele>6.2</ele>
        <time>2023-11-22T13:06:49Z</time>
      </trkpt>
      <trkpt lat="49.27423" lon="-0.11169">
        <ele>6.2</ele>
        <time>2023-11-22T13:06:50Z</time>
      </trkpt>
      <trkpt lat="49.27423" lon="-0.11158">
        <ele>6.2</ele>
        <time>2023-11-22T13:06:51Z</time>
      </trkpt>
      <trkpt lat="49.27424" lon="-0.11146">
        <ele>6.3</ele>
        <time>2023-11-22T13:06:52Z</time>
      </trkpt>
      <trkpt lat="49.27424" lon="-0.11134">
        <ele>6.3</ele>
        <time>2023-11-22T13:06:53Z</time>
      </trkpt>
      <trkpt lat="49.27425" lon="-0.11122">
        <ele>6.4</ele>
        <time>2023-11-22T13:06:54Z</time>
      </trkpt>
      <trkpt lat="49.27425" lon="-0.11111">
        <ele>6.4</ele>
        <time>2023-11-22T13:06:55Z</time>
      </trkpt>
      <trkpt lat="49.27425" lon="-0.111">
        <ele>6.4</ele>
        <time>2023-11-22T13:06:56Z</time>
      </trkpt>
      <trkpt lat="49.27425" lon="-0.11089">
        <ele>6.4</ele>
        <time>2023-11-22T13:06:57Z</time>
      </trkpt>
      <trkpt lat="49.27425" lon="-0.11078">
        <ele>6.4</ele>
        <time>2023-11-22T13:06:58Z</time>
      </trkpt>
      <trkpt lat="49.27426" lon="-0.11067">
        <ele>6.4</ele>
        <time>2023-11-22T13:06:59Z</time>
      </trkpt>
      <trkpt lat="49.27426" lon="-0.11055">
        <ele>6.3</ele>
        <time>2023-11-22T13:07:00Z</time>
      </trkpt>
      <trkpt lat="49.27426" lon="-0.11043">
        <ele>6.3</ele>
        <time>2023-11-22T13:07:01Z</time>
      </trkpt>
      <trkpt lat="49.27426" lon="-0.11032">
        <ele>6.3</ele>
        <time>2023-11-22T13:07:02Z</time>
      </trkpt>
      <trkpt lat="49.27426" lon="-0.1102">
        <ele>6.3</ele>
        <time>2023-11-22T13:07:03Z</time>
      </trkpt>
      <trkpt lat="49.27426" lon="-0.11008">
        <ele>6.3</ele>
        <time>2023-11-22T13:07:04Z</time>
      </trkpt>
      <trkpt lat="49.27426" lon="-0.10996">
        <ele>6.3</ele>
        <time>2023-11-22T13:07:05Z</time>
      </trkpt>
      <trkpt lat="49.27426" lon="-0.10985">
        <ele>6.3</ele>
        <time>2023-11-22T13:07:06Z</time>
      </trkpt>
      <trkpt lat="49.27427" lon="-0.10973">
        <ele>6.3</ele>
        <time>2023-11-22T13:07:07Z</time>
      </trkpt>
      <trkpt lat="49.27427" lon="-0.1096">
        <ele>6.2</ele>
        <time>2023-11-22T13:07:08Z</time>
      </trkpt>
      <trkpt lat="49.27428" lon="-0.10948">
        <ele>6.2</ele>
        <time>2023-11-22T13:07:09Z</time>
      </trkpt>
      <trkpt lat="49.27428" lon="-0.10936">
        <ele>6.2</ele>
        <time>2023-11-22T13:07:10Z</time>
      </trkpt>
      <trkpt lat="49.27427" lon="-0.10924">
        <ele>6.2</ele>
        <time>2023-11-22T13:07:11Z</time>
      </trkpt>
      <trkpt lat="49.27427" lon="-0.10913">
        <ele>6.2</ele>
        <time>2023-11-22T13:07:12Z</time>
      </trkpt>
      <trkpt lat="49.27427" lon="-0.10901">
        <ele>6.1</ele>
        <time>2023-11-22T13:07:13Z</time>
      </trkpt>
      <trkpt lat="49.27426" lon="-0.1089">
        <ele>6.1</ele>
        <time>2023-11-22T13:07:14Z</time>
      </trkpt>
      <trkpt lat="49.27426" lon="-0.10879">
        <ele>6</ele>
        <time>2023-11-22T13:07:15Z</time>
      </trkpt>
      <trkpt lat="49.27425" lon="-0.10867">
        <ele>6</ele>
        <time>2023-11-22T13:07:16Z</time>
      </trkpt>
      <trkpt lat="49.27424" lon="-0.10856">
        <ele>5.9</ele>
        <time>2023-11-22T13:07:17Z</time>
      </trkpt>
      <trkpt lat="49.27423" lon="-0.10844">
        <ele>5.9</ele>
        <time>2023-11-22T13:07:18Z</time>
      </trkpt>
      <trkpt lat="49.27422" lon="-0.10833">
        <ele>5.9</ele>
        <time>2023-11-22T13:07:19Z</time>
      </trkpt>
      <trkpt lat="49.27421" lon="-0.10822">
        <ele>5.8</ele>
        <time>2023-11-22T13:07:20Z</time>
      </trkpt>
      <trkpt lat="49.2742" lon="-0.10811">
        <ele>5.8</ele>
        <time>2023-11-22T13:07:21Z</time>
      </trkpt>
      <trkpt lat="49.27418" lon="-0.108">
        <ele>5.8</ele>
        <time>2023-11-22T13:07:22Z</time>
      </trkpt>
      <trkpt lat="49.27416" lon="-0.10789">
        <ele>5.7</ele>
        <time>2023-11-22T13:07:23Z</time>
      </trkpt>
      <trkpt lat="49.27414" lon="-0.10779">
        <ele>5.7</ele>
        <time>2023-11-22T13:07:24Z</time>
      </trkpt>
      <trkpt lat="49.27413" lon="-0.10768">
        <ele>5.6</ele>
        <time>2023-11-22T13:07:25Z</time>
      </trkpt>
      <trkpt lat="49.2741" lon="-0.10758">
        <ele>5.6</ele>
        <time>2023-11-22T13:07:26Z</time>
      </trkpt>
      <trkpt lat="49.27408" lon="-0.10748">
        <ele>5.5</ele>
        <time>2023-11-22T13:07:27Z</time>
      </trkpt>
      <trkpt lat="49.27406" lon="-0.10738">
        <ele>5.5</ele>
        <time>2023-11-22T13:07:28Z</time>
      </trkpt>
      <trkpt lat="49.27403" lon="-0.10727">
        <ele>5.5</ele>
        <time>2023-11-22T13:07:29Z</time>
      </trkpt>
      <trkpt lat="49.27401" lon="-0.10715">
        <ele>5.5</ele>
        <time>2023-11-22T13:07:30Z</time>
      </trkpt>
      <trkpt lat="49.27399" lon="-0.10704">
        <ele>5.4</ele>
        <time>2023-11-22T13:07:31Z</time>
      </trkpt>
      <trkpt lat="49.27396" lon="-0.10694">
        <ele>5.4</ele>
        <time>2023-11-22T13:07:32Z</time>
      </trkpt>
      <trkpt lat="49.27393" lon="-0.10683">
        <ele>5.4</ele>
        <time>2023-11-22T13:07:33Z</time>
      </trkpt>
      <trkpt lat="49.2739" lon="-0.10672">
        <ele>5.4</ele>
        <time>2023-11-22T13:07:34Z</time>
      </trkpt>
      <trkpt lat="49.27386" lon="-0.10661">
        <ele>5.3</ele>
        <time>2023-11-22T13:07:35Z</time>
      </trkpt>
      <trkpt lat="49.27383" lon="-0.10651">
        <ele>5.3</ele>
        <time>2023-11-22T13:07:36Z</time>
      </trkpt>
      <trkpt lat="49.27379" lon="-0.1064">
        <ele>5.3</ele>
        <time>2023-11-22T13:07:37Z</time>
      </trkpt>
      <trkpt lat="49.27375" lon="-0.1063">
        <ele>5.3</ele>
        <time>2023-11-22T13:07:38Z</time>
      </trkpt>
      <trkpt lat="49.27371" lon="-0.1062">
        <ele>5.2</ele>
        <time>2023-11-22T13:07:39Z</time>
      </trkpt>
      <trkpt lat="49.27368" lon="-0.10609">
        <ele>5.2</ele>
        <time>2023-11-22T13:07:40Z</time>
      </trkpt>
      <trkpt lat="49.27363" lon="-0.10599">
        <ele>5.2</ele>
        <time>2023-11-22T13:07:41Z</time>
      </trkpt>
      <trkpt lat="49.27359" lon="-0.1059">
        <ele>5.1</ele>
        <time>2023-11-22T13:07:42Z</time>
      </trkpt>
      <trkpt lat="49.27354" lon="-0.10581">
        <ele>5.1</ele>
        <time>2023-11-22T13:07:43Z</time>
      </trkpt>
      <trkpt lat="49.2735" lon="-0.10572">
        <ele>5</ele>
        <time>2023-11-22T13:07:44Z</time>
      </trkpt>
      <trkpt lat="49.27346" lon="-0.10563">
        <ele>5</ele>
        <time>2023-11-22T13:07:45Z</time>
      </trkpt>
      <trkpt lat="49.27341" lon="-0.10554">
        <ele>5</ele>
        <time>2023-11-22T13:07:46Z</time>
      </trkpt>
      <trkpt lat="49.27337" lon="-0.10545">
        <ele>5</ele>
        <time>2023-11-22T13:07:47Z</time>
      </trkpt>
      <trkpt lat="49.27332" lon="-0.10536">
        <ele>5</ele>
        <time>2023-11-22T13:07:48Z</time>
      </trkpt>
      <trkpt lat="49.27328" lon="-0.10528">
        <ele>5</ele>
        <time>2023-11-22T13:07:49Z</time>
      </trkpt>
      <trkpt lat="49.27323" lon="-0.10519">
        <ele>4.9</ele>
        <time>2023-11-22T13:07:50Z</time>
      </trkpt>
      <trkpt lat="49.27317" lon="-0.10511">
        <ele>4.9</ele>
        <time>2023-11-22T13:07:51Z</time>
      </trkpt>
      <trkpt lat="49.27311" lon="-0.10503">
        <ele>4.9</ele>
        <time>2023-11-22T13:07:52Z</time>
      </trkpt>
      <trkpt lat="49.27306" lon="-0.10495">
        <ele>4.9</ele>
        <time>2023-11-22T13:07:53Z</time>
      </trkpt>
      <trkpt lat="49.273" lon="-0.10487">
        <ele>4.8</ele>
        <time>2023-11-22T13:07:54Z</time>
      </trkpt>
      <trkpt lat="49.27294" lon="-0.1048">
        <ele>4.8</ele>
        <time>2023-11-22T13:07:55Z</time>
      </trkpt>
      <trkpt lat="49.27288" lon="-0.10472">
        <ele>4.7</ele>
        <time>2023-11-22T13:07:56Z</time>
      </trkpt>
      <trkpt lat="49.27281" lon="-0.10464">
        <ele>4.7</ele>
        <time>2023-11-22T13:07:57Z</time>
      </trkpt>
      <trkpt lat="49.27275" lon="-0.10457">
        <ele>4.7</ele>
        <time>2023-11-22T13:07:58Z</time>
      </trkpt>
      <trkpt lat="49.27268" lon="-0.1045">
        <ele>4.7</ele>
        <time>2023-11-22T13:07:59Z</time>
      </trkpt>
      <trkpt lat="49.27262" lon="-0.10443">
        <ele>4.6</ele>
        <time>2023-11-22T13:08:00Z</time>
      </trkpt>
      <trkpt lat="49.27255" lon="-0.10437">
        <ele>4.6</ele>
        <time>2023-11-22T13:08:01Z</time>
      </trkpt>
      <trkpt lat="49.27249" lon="-0.10431">
        <ele>4.6</ele>
        <time>2023-11-22T13:08:02Z</time>
      </trkpt>
      <trkpt lat="49.27243" lon="-0.10425">
        <ele>4.6</ele>
        <time>2023-11-22T13:08:03Z</time>
      </trkpt>
      <trkpt lat="49.27236" lon="-0.1042">
        <ele>4.6</ele>
        <time>2023-11-22T13:08:04Z</time>
      </trkpt>
      <trkpt lat="49.2723" lon="-0.10415">
        <ele>4.6</ele>
        <time>2023-11-22T13:08:05Z</time>
      </trkpt>
      <trkpt lat="49.27224" lon="-0.1041">
        <ele>4.6</ele>
        <time>2023-11-22T13:08:06Z</time>
      </trkpt>
      <trkpt lat="49.27217" lon="-0.10404">
        <ele>4.6</ele>
        <time>2023-11-22T13:08:07Z</time>
      </trkpt>
      <trkpt lat="49.27211" lon="-0.10399">
        <ele>4.6</ele>
        <time>2023-11-22T13:08:08Z</time>
      </trkpt>
      <trkpt lat="49.27204" lon="-0.10394">
        <ele>4.7</ele>
        <time>2023-11-22T13:08:09Z</time>
      </trkpt>
      <trkpt lat="49.27198" lon="-0.1039">
        <ele>4.7</ele>
        <time>2023-11-22T13:08:10Z</time>
      </trkpt>
      <trkpt lat="49.27191" lon="-0.10386">
        <ele>4.7</ele>
        <time>2023-11-22T13:08:11Z</time>
      </trkpt>
      <trkpt lat="49.27184" lon="-0.10381">
        <ele>4.7</ele>
        <time>2023-11-22T13:08:12Z</time>
      </trkpt>
      <trkpt lat="49.27177" lon="-0.10377">
        <ele>4.7</ele>
        <time>2023-11-22T13:08:13Z</time>
      </trkpt>
      <trkpt lat="49.2717" lon="-0.10373">
        <ele>4.7</ele>
        <time>2023-11-22T13:08:14Z</time>
      </trkpt>
      <trkpt lat="49.27163" lon="-0.10369">
        <ele>4.8</ele>
        <time>2023-11-22T13:08:15Z</time>
      </trkpt>
      <trkpt lat="49.27156" lon="-0.10366">
        <ele>4.8</ele>
        <time>2023-11-22T13:08:16Z</time>
      </trkpt>
      <trkpt lat="49.27149" lon="-0.10362">
        <ele>4.8</ele>
        <time>2023-11-22T13:08:17Z</time>
      </trkpt>
      <trkpt lat="49.27143" lon="-0.10359">
        <ele>4.8</ele>
        <time>2023-11-22T13:08:18Z</time>
      </trkpt>
      <trkpt lat="49.27136" lon="-0.10356">
        <ele>4.8</ele>
        <time>2023-11-22T13:08:19Z</time>
      </trkpt>
      <trkpt lat="49.2713" lon="-0.10354">
        <ele>4.9</ele>
        <time>2023-11-22T13:08:20Z</time>
      </trkpt>
      <trkpt lat="49.27123" lon="-0.10351">
        <ele>4.9</ele>
        <time>2023-11-22T13:08:21Z</time>
      </trkpt>
      <trkpt lat="49.27116" lon="-0.10349">
        <ele>4.9</ele>
        <time>2023-11-22T13:08:22Z</time>
      </trkpt>
      <trkpt lat="49.2711" lon="-0.10347">
        <ele>4.9</ele>
        <time>2023-11-22T13:08:23Z</time>
      </trkpt>
      <trkpt lat="49.27103" lon="-0.10345">
        <ele>5</ele>
        <time>2023-11-22T13:08:24Z</time>
      </trkpt>
      <trkpt lat="49.27096" lon="-0.10343">
        <ele>5.1</ele>
        <time>2023-11-22T13:08:25Z</time>
      </trkpt>
      <trkpt lat="49.27089" lon="-0.10341">
        <ele>5.2</ele>
        <time>2023-11-22T13:08:26Z</time>
      </trkpt>
      <trkpt lat="49.27081" lon="-0.10339">
        <ele>5.4</ele>
        <time>2023-11-22T13:08:27Z</time>
      </trkpt>
      <trkpt lat="49.27074" lon="-0.10338">
        <ele>5.5</ele>
        <time>2023-11-22T13:08:28Z</time>
      </trkpt>
      <trkpt lat="49.27066" lon="-0.10336">
        <ele>5.6</ele>
        <time>2023-11-22T13:08:29Z</time>
      </trkpt>
      <trkpt lat="49.27058" lon="-0.10335">
        <ele>5.8</ele>
        <time>2023-11-22T13:08:30Z</time>
      </trkpt>
      <trkpt lat="49.27051" lon="-0.10334">
        <ele>5.9</ele>
        <time>2023-11-22T13:08:31Z</time>
      </trkpt>
      <trkpt lat="49.27043" lon="-0.10333">
        <ele>6</ele>
        <time>2023-11-22T13:08:32Z</time>
      </trkpt>
      <trkpt lat="49.27035" lon="-0.10333">
        <ele>6.2</ele>
        <time>2023-11-22T13:08:33Z</time>
      </trkpt>
      <trkpt lat="49.27027" lon="-0.10332">
        <ele>6.3</ele>
        <time>2023-11-22T13:08:34Z</time>
      </trkpt>
      <trkpt lat="49.2702" lon="-0.10332">
        <ele>6.4</ele>
        <time>2023-11-22T13:08:35Z</time>
      </trkpt>
      <trkpt lat="49.27012" lon="-0.10332">
        <ele>6.5</ele>
        <time>2023-11-22T13:08:36Z</time>
      </trkpt>
      <trkpt lat="49.27005" lon="-0.10333">
        <ele>6.6</ele>
        <time>2023-11-22T13:08:37Z</time>
      </trkpt>
      <trkpt lat="49.26997" lon="-0.10333">
        <ele>6.7</ele>
        <time>2023-11-22T13:08:38Z</time>
      </trkpt>
      <trkpt lat="49.26989" lon="-0.10334">
        <ele>6.7</ele>
        <time>2023-11-22T13:08:39Z</time>
      </trkpt>
      <trkpt lat="49.26982" lon="-0.10335">
        <ele>6.8</ele>
        <time>2023-11-22T13:08:40Z</time>
      </trkpt>
      <trkpt lat="49.26974" lon="-0.10336">
        <ele>6.8</ele>
        <time>2023-11-22T13:08:41Z</time>
      </trkpt>
      <trkpt lat="49.26966" lon="-0.10337">
        <ele>6.9</ele>
        <time>2023-11-22T13:08:42Z</time>
      </trkpt>
      <trkpt lat="49.26959" lon="-0.10339">
        <ele>6.9</ele>
        <time>2023-11-22T13:08:43Z</time>
      </trkpt>
      <trkpt lat="49.26951" lon="-0.1034">
        <ele>6.9</ele>
        <time>2023-11-22T13:08:44Z</time>
      </trkpt>
      <trkpt lat="49.26944" lon="-0.10342">
        <ele>6.9</ele>
        <time>2023-11-22T13:08:45Z</time>
      </trkpt>
      <trkpt lat="49.26936" lon="-0.10343">
        <ele>6.9</ele>
        <time>2023-11-22T13:08:46Z</time>
      </trkpt>
      <trkpt lat="49.26929" lon="-0.10345">
        <ele>6.9</ele>
        <time>2023-11-22T13:08:47Z</time>
      </trkpt>
      <trkpt lat="49.26921" lon="-0.10347">
        <ele>7</ele>
        <time>2023-11-22T13:08:48Z</time>
      </trkpt>
      <trkpt lat="49.26914" lon="-0.10349">
        <ele>7</ele>
        <time>2023-11-22T13:08:49Z</time>
      </trkpt>
      <trkpt lat="49.26906" lon="-0.10351">
        <ele>7</ele>
        <time>2023-11-22T13:08:50Z</time>
      </trkpt>
      <trkpt lat="49.26899" lon="-0.10353">
        <ele>6.9</ele>
        <time>2023-11-22T13:08:51Z</time>
      </trkpt>
      <trkpt lat="49.26891" lon="-0.10355">
        <ele>6.9</ele>
        <time>2023-11-22T13:08:52Z</time>
      </trkpt>
      <trkpt lat="49.26883" lon="-0.10358">
        <ele>6.8</ele>
        <time>2023-11-22T13:08:53Z</time>
      </trkpt>
      <trkpt lat="49.26876" lon="-0.10361">
        <ele>6.8</ele>
        <time>2023-11-22T13:08:54Z</time>
      </trkpt>
      <trkpt lat="49.26869" lon="-0.10363">
        <ele>6.8</ele>
        <time>2023-11-22T13:08:55Z</time>
      </trkpt>
      <trkpt lat="49.26861" lon="-0.10366">
        <ele>6.7</ele>
        <time>2023-11-22T13:08:56Z</time>
      </trkpt>
      <trkpt lat="49.26853" lon="-0.10368">
        <ele>6.7</ele>
        <time>2023-11-22T13:08:57Z</time>
      </trkpt>
      <trkpt lat="49.26846" lon="-0.10371">
        <ele>6.7</ele>
        <time>2023-11-22T13:08:58Z</time>
      </trkpt>
      <trkpt lat="49.26838" lon="-0.10374">
        <ele>6.6</ele>
        <time>2023-11-22T13:08:59Z</time>
      </trkpt>
      <trkpt lat="49.26831" lon="-0.10376">
        <ele>6.6</ele>
        <time>2023-11-22T13:09:00Z</time>
      </trkpt>
      <trkpt lat="49.26823" lon="-0.10379">
        <ele>6.6</ele>
        <time>2023-11-22T13:09:01Z</time>
      </trkpt>
      <trkpt lat="49.26816" lon="-0.10381">
        <ele>6.5</ele>
        <time>2023-11-22T13:09:02Z</time>
      </trkpt>
      <trkpt lat="49.26809" lon="-0.10383">
        <ele>6.5</ele>
        <time>2023-11-22T13:09:03Z</time>
      </trkpt>
      <trkpt lat="49.26801" lon="-0.10386">
        <ele>6.5</ele>
        <time>2023-11-22T13:09:04Z</time>
      </trkpt>
      <trkpt lat="49.26794" lon="-0.10388">
        <ele>6.6</ele>
        <time>2023-11-22T13:09:05Z</time>
      </trkpt>
      <trkpt lat="49.26786" lon="-0.10391">
        <ele>6.6</ele>
        <time>2023-11-22T13:09:06Z</time>
      </trkpt>
      <trkpt lat="49.26778" lon="-0.10394">
        <ele>6.6</ele>
        <time>2023-11-22T13:09:07Z</time>
      </trkpt>
      <trkpt lat="49.26771" lon="-0.10396">
        <ele>6.5</ele>
        <time>2023-11-22T13:09:08Z</time>
      </trkpt>
      <trkpt lat="49.26764" lon="-0.10399">
        <ele>6.5</ele>
        <time>2023-11-22T13:09:09Z</time>
      </trkpt>
      <trkpt lat="49.26756" lon="-0.10401">
        <ele>6.4</ele>
        <time>2023-11-22T13:09:10Z</time>
      </trkpt>
      <trkpt lat="49.26749" lon="-0.10404">
        <ele>6.3</ele>
        <time>2023-11-22T13:09:11Z</time>
      </trkpt>
      <trkpt lat="49.26741" lon="-0.10406">
        <ele>6.3</ele>
        <time>2023-11-22T13:09:12Z</time>
      </trkpt>
      <trkpt lat="49.26734" lon="-0.10409">
        <ele>6.2</ele>
        <time>2023-11-22T13:09:13Z</time>
      </trkpt>
      <trkpt lat="49.26726" lon="-0.10412">
        <ele>6.2</ele>
        <time>2023-11-22T13:09:14Z</time>
      </trkpt>
      <trkpt lat="49.26719" lon="-0.10415">
        <ele>6.1</ele>
        <time>2023-11-22T13:09:15Z</time>
      </trkpt>
      <trkpt lat="49.26712" lon="-0.10417">
        <ele>6.1</ele>
        <time>2023-11-22T13:09:16Z</time>
      </trkpt>
      <trkpt lat="49.26704" lon="-0.1042">
        <ele>6</ele>
        <time>2023-11-22T13:09:17Z</time>
      </trkpt>
      <trkpt lat="49.26697" lon="-0.10423">
        <ele>6</ele>
        <time>2023-11-22T13:09:18Z</time>
      </trkpt>
      <trkpt lat="49.2669" lon="-0.10425">
        <ele>5.9</ele>
        <time>2023-11-22T13:09:19Z</time>
      </trkpt>
      <trkpt lat="49.26683" lon="-0.10427">
        <ele>5.9</ele>
        <time>2023-11-22T13:09:20Z</time>
      </trkpt>
      <trkpt lat="49.26676" lon="-0.10429">
        <ele>5.9</ele>
        <time>2023-11-22T13:09:21Z</time>
      </trkpt>
      <trkpt lat="49.26668" lon="-0.10431">
        <ele>5.9</ele>
        <time>2023-11-22T13:09:22Z</time>
      </trkpt>
      <trkpt lat="49.2666" lon="-0.10434">
        <ele>5.9</ele>
        <time>2023-11-22T13:09:23Z</time>
      </trkpt>
      <trkpt lat="49.26653" lon="-0.10436">
        <ele>5.8</ele>
        <time>2023-11-22T13:09:24Z</time>
      </trkpt>
      <trkpt lat="49.26645" lon="-0.10438">
        <ele>5.8</ele>
        <time>2023-11-22T13:09:25Z</time>
      </trkpt>
      <trkpt lat="49.26637" lon="-0.10441">
        <ele>5.7</ele>
        <time>2023-11-22T13:09:26Z</time>
      </trkpt>
      <trkpt lat="49.2663" lon="-0.10443">
        <ele>5.7</ele>
        <time>2023-11-22T13:09:27Z</time>
      </trkpt>
      <trkpt lat="49.26622" lon="-0.10446">
        <ele>5.6</ele>
        <time>2023-11-22T13:09:28Z</time>
      </trkpt>
      <trkpt lat="49.26614" lon="-0.10448">
        <ele>5.6</ele>
        <time>2023-11-22T13:09:29Z</time>
      </trkpt>
      <trkpt lat="49.26606" lon="-0.1045">
        <ele>5.6</ele>
        <time>2023-11-22T13:09:30Z</time>
      </trkpt>
      <trkpt lat="49.26599" lon="-0.10451">
        <ele>5.5</ele>
        <time>2023-11-22T13:09:31Z</time>
      </trkpt>
      <trkpt lat="49.26592" lon="-0.10452">
        <ele>5.5</ele>
        <time>2023-11-22T13:09:32Z</time>
      </trkpt>
      <trkpt lat="49.26584" lon="-0.10454">
        <ele>5.5</ele>
        <time>2023-11-22T13:09:33Z</time>
      </trkpt>
      <trkpt lat="49.26577" lon="-0.10455">
        <ele>5.4</ele>
        <time>2023-11-22T13:09:34Z</time>
      </trkpt>
      <trkpt lat="49.26569" lon="-0.10457">
        <ele>5.4</ele>
        <time>2023-11-22T13:09:35Z</time>
      </trkpt>
      <trkpt lat="49.26562" lon="-0.10458">
        <ele>5.3</ele>
        <time>2023-11-22T13:09:36Z</time>
      </trkpt>
      <trkpt lat="49.26554" lon="-0.10459">
        <ele>5.3</ele>
        <time>2023-11-22T13:09:37Z</time>
      </trkpt>
      <trkpt lat="49.26546" lon="-0.1046">
        <ele>5.3</ele>
        <time>2023-11-22T13:09:38Z</time>
      </trkpt>
      <trkpt lat="49.26539" lon="-0.10461">
        <ele>5.4</ele>
        <time>2023-11-22T13:09:39Z</time>
      </trkpt>
      <trkpt lat="49.26531" lon="-0.10461">
        <ele>5.4</ele>
        <time>2023-11-22T13:09:40Z</time>
      </trkpt>
      <trkpt lat="49.26524" lon="-0.10462">
        <ele>5.4</ele>
        <time>2023-11-22T13:09:41Z</time>
      </trkpt>
      <trkpt lat="49.26516" lon="-0.10463">
        <ele>5.4</ele>
        <time>2023-11-22T13:09:42Z</time>
      </trkpt>
      <trkpt lat="49.26508" lon="-0.10463">
        <ele>5.4</ele>
        <time>2023-11-22T13:09:43Z</time>
      </trkpt>
      <trkpt lat="49.265" lon="-0.10464">
        <ele>5.5</ele>
        <time>2023-11-22T13:09:44Z</time>
      </trkpt>
      <trkpt lat="49.26492" lon="-0.10464">
        <ele>5.5</ele>
        <time>2023-11-22T13:09:45Z</time>
      </trkpt>
      <trkpt lat="49.26485" lon="-0.10464">
        <ele>5.5</ele>
        <time>2023-11-22T13:09:46Z</time>
      </trkpt>
      <trkpt lat="49.26477" lon="-0.10465">
        <ele>5.6</ele>
        <time>2023-11-22T13:09:47Z</time>
      </trkpt>
      <trkpt lat="49.2647" lon="-0.10465">
        <ele>5.6</ele>
        <time>2023-11-22T13:09:48Z</time>
      </trkpt>
      <trkpt lat="49.26463" lon="-0.10465">
        <ele>5.7</ele>
        <time>2023-11-22T13:09:49Z</time>
      </trkpt>
      <trkpt lat="49.26455" lon="-0.10465">
        <ele>5.7</ele>
        <time>2023-11-22T13:09:50Z</time>
      </trkpt>
      <trkpt lat="49.26448" lon="-0.10464">
        <ele>5.8</ele>
        <time>2023-11-22T13:09:51Z</time>
      </trkpt>
      <trkpt lat="49.26441" lon="-0.10464">
        <ele>5.8</ele>
        <time>2023-11-22T13:09:52Z</time>
      </trkpt>
      <trkpt lat="49.26433" lon="-0.10464">
        <ele>5.8</ele>
        <time>2023-11-22T13:09:53Z</time>
      </trkpt>
      <trkpt lat="49.26425" lon="-0.10463">
        <ele>5.9</ele>
        <time>2023-11-22T13:09:54Z</time>
      </trkpt>
      <trkpt lat="49.26418" lon="-0.10462">
        <ele>5.9</ele>
        <time>2023-11-22T13:09:55Z</time>
      </trkpt>
      <trkpt lat="49.2641" lon="-0.10461">
        <ele>5.9</ele>
        <time>2023-11-22T13:09:56Z</time>
      </trkpt>
      <trkpt lat="49.26403" lon="-0.1046">
        <ele>5.9</ele>
        <time>2023-11-22T13:09:57Z</time>
      </trkpt>
      <trkpt lat="49.26395" lon="-0.10459">
        <ele>6</ele>
        <time>2023-11-22T13:09:58Z</time>
      </trkpt>
      <trkpt lat="49.26387" lon="-0.10458">
        <ele>6</ele>
        <time>2023-11-22T13:09:59Z</time>
      </trkpt>
      <trkpt lat="49.2638" lon="-0.10457">
        <ele>6</ele>
        <time>2023-11-22T13:10:00Z</time>
      </trkpt>
      <trkpt lat="49.26373" lon="-0.10457">
        <ele>6</ele>
        <time>2023-11-22T13:10:01Z</time>
      </trkpt>
      <trkpt lat="49.26365" lon="-0.10456">
        <ele>6</ele>
        <time>2023-11-22T13:10:02Z</time>
      </trkpt>
      <trkpt lat="49.26358" lon="-0.10455">
        <ele>6</ele>
        <time>2023-11-22T13:10:03Z</time>
      </trkpt>
      <trkpt lat="49.2635" lon="-0.10454">
        <ele>6.1</ele>
        <time>2023-11-22T13:10:04Z</time>
      </trkpt>
      <trkpt lat="49.26343" lon="-0.10453">
        <ele>6.1</ele>
        <time>2023-11-22T13:10:05Z</time>
      </trkpt>
      <trkpt lat="49.26335" lon="-0.10452">
        <ele>6.1</ele>
        <time>2023-11-22T13:10:06Z</time>
      </trkpt>
      <trkpt lat="49.26328" lon="-0.10451">
        <ele>6.1</ele>
        <time>2023-11-22T13:10:07Z</time>
      </trkpt>
      <trkpt lat="49.2632" lon="-0.1045">
        <ele>6.1</ele>
        <time>2023-11-22T13:10:08Z</time>
      </trkpt>
      <trkpt lat="49.26312" lon="-0.1045">
        <ele>6.2</ele>
        <time>2023-11-22T13:10:09Z</time>
      </trkpt>
      <trkpt lat="49.26305" lon="-0.10449">
        <ele>6.2</ele>
        <time>2023-11-22T13:10:10Z</time>
      </trkpt>
      <trkpt lat="49.26297" lon="-0.10448">
        <ele>6.2</ele>
        <time>2023-11-22T13:10:11Z</time>
      </trkpt>
      <trkpt lat="49.2629" lon="-0.10447">
        <ele>6.3</ele>
        <time>2023-11-22T13:10:12Z</time>
      </trkpt>
      <trkpt lat="49.26282" lon="-0.10447">
        <ele>6.3</ele>
        <time>2023-11-22T13:10:13Z</time>
      </trkpt>
      <trkpt lat="49.26274" lon="-0.10446">
        <ele>6.3</ele>
        <time>2023-11-22T13:10:14Z</time>
      </trkpt>
      <trkpt lat="49.26267" lon="-0.10445">
        <ele>6.3</ele>
        <time>2023-11-22T13:10:15Z</time>
      </trkpt>
      <trkpt lat="49.26259" lon="-0.10444">
        <ele>6.4</ele>
        <time>2023-11-22T13:10:16Z</time>
      </trkpt>
      <trkpt lat="49.26251" lon="-0.10444">
        <ele>6.4</ele>
        <time>2023-11-22T13:10:17Z</time>
      </trkpt>
      <trkpt lat="49.26243" lon="-0.10443">
        <ele>6.4</ele>
        <time>2023-11-22T13:10:18Z</time>
      </trkpt>
      <trkpt lat="49.26236" lon="-0.10443">
        <ele>6.4</ele>
        <time>2023-11-22T13:10:19Z</time>
      </trkpt>
      <trkpt lat="49.26228" lon="-0.10442">
        <ele>6.4</ele>
        <time>2023-11-22T13:10:20Z</time>
      </trkpt>
      <trkpt lat="49.2622" lon="-0.10441">
        <ele>6.4</ele>
        <time>2023-11-22T13:10:21Z</time>
      </trkpt>
      <trkpt lat="49.26212" lon="-0.1044">
        <ele>6.4</ele>
        <time>2023-11-22T13:10:22Z</time>
      </trkpt>
      <trkpt lat="49.26204" lon="-0.1044">
        <ele>6.4</ele>
        <time>2023-11-22T13:10:23Z</time>
      </trkpt>
      <trkpt lat="49.26196" lon="-0.1044">
        <ele>6.4</ele>
        <time>2023-11-22T13:10:24Z</time>
      </trkpt>
      <trkpt lat="49.26188" lon="-0.10439">
        <ele>6.4</ele>
        <time>2023-11-22T13:10:25Z</time>
      </trkpt>
      <trkpt lat="49.26181" lon="-0.10438">
        <ele>6.5</ele>
        <time>2023-11-22T13:10:26Z</time>
      </trkpt>
      <trkpt lat="49.26173" lon="-0.10437">
        <ele>6.5</ele>
        <time>2023-11-22T13:10:27Z</time>
      </trkpt>
      <trkpt lat="49.26165" lon="-0.10436">
        <ele>6.5</ele>
        <time>2023-11-22T13:10:28Z</time>
      </trkpt>
      <trkpt lat="49.26157" lon="-0.10435">
        <ele>6.5</ele>
        <time>2023-11-22T13:10:29Z</time>
      </trkpt>
      <trkpt lat="49.26149" lon="-0.10435">
        <ele>6.5</ele>
        <time>2023-11-22T13:10:30Z</time>
      </trkpt>
      <trkpt lat="49.26142" lon="-0.10434">
        <ele>6.5</ele>
        <time>2023-11-22T13:10:31Z</time>
      </trkpt>
      <trkpt lat="49.26134" lon="-0.10434">
        <ele>6.5</ele>
        <time>2023-11-22T13:10:32Z</time>
      </trkpt>
      <trkpt lat="49.26126" lon="-0.10433">
        <ele>6.5</ele>
        <time>2023-11-22T13:10:33Z</time>
      </trkpt>
      <trkpt lat="49.26119" lon="-0.10432">
        <ele>6.4</ele>
        <time>2023-11-22T13:10:34Z</time>
      </trkpt>
      <trkpt lat="49.26112" lon="-0.10431">
        <ele>6.4</ele>
        <time>2023-11-22T13:10:35Z</time>
      </trkpt>
      <trkpt lat="49.26105" lon="-0.1043">
        <ele>6.3</ele>
        <time>2023-11-22T13:10:36Z</time>
      </trkpt>
      <trkpt lat="49.26097" lon="-0.1043">
        <ele>6.3</ele>
        <time>2023-11-22T13:10:37Z</time>
      </trkpt>
      <trkpt lat="49.2609" lon="-0.10429">
        <ele>6.2</ele>
        <time>2023-11-22T13:10:38Z</time>
      </trkpt>
      <trkpt lat="49.26083" lon="-0.10428">
        <ele>6.2</ele>
        <time>2023-11-22T13:10:39Z</time>
      </trkpt>
      <trkpt lat="49.26075" lon="-0.10427">
        <ele>6.2</ele>
        <time>2023-11-22T13:10:40Z</time>
      </trkpt>
      <trkpt lat="49.26068" lon="-0.10427">
        <ele>6.1</ele>
        <time>2023-11-22T13:10:41Z</time>
      </trkpt>
      <trkpt lat="49.2606" lon="-0.10427">
        <ele>6.1</ele>
        <time>2023-11-22T13:10:42Z</time>
      </trkpt>
      <trkpt lat="49.26052" lon="-0.10427">
        <ele>6</ele>
        <time>2023-11-22T13:10:43Z</time>
      </trkpt>
      <trkpt lat="49.26045" lon="-0.10427">
        <ele>6</ele>
        <time>2023-11-22T13:10:44Z</time>
      </trkpt>
      <trkpt lat="49.26037" lon="-0.10427">
        <ele>6</ele>
        <time>2023-11-22T13:10:45Z</time>
      </trkpt>
      <trkpt lat="49.2603" lon="-0.10426">
        <ele>5.9</ele>
        <time>2023-11-22T13:10:46Z</time>
      </trkpt>
      <trkpt lat="49.26022" lon="-0.10426">
        <ele>5.9</ele>
        <time>2023-11-22T13:10:47Z</time>
      </trkpt>
      <trkpt lat="49.26014" lon="-0.10425">
        <ele>5.9</ele>
        <time>2023-11-22T13:10:48Z</time>
      </trkpt>
      <trkpt lat="49.26006" lon="-0.10424">
        <ele>5.8</ele>
        <time>2023-11-22T13:10:49Z</time>
      </trkpt>
      <trkpt lat="49.25998" lon="-0.10424">
        <ele>5.7</ele>
        <time>2023-11-22T13:10:50Z</time>
      </trkpt>
      <trkpt lat="49.2599" lon="-0.10423">
        <ele>5.7</ele>
        <time>2023-11-22T13:10:51Z</time>
      </trkpt>
      <trkpt lat="49.25982" lon="-0.10423">
        <ele>5.6</ele>
        <time>2023-11-22T13:10:52Z</time>
      </trkpt>
      <trkpt lat="49.25974" lon="-0.10422">
        <ele>5.6</ele>
        <time>2023-11-22T13:10:53Z</time>
      </trkpt>
      <trkpt lat="49.25967" lon="-0.10421">
        <ele>5.6</ele>
        <time>2023-11-22T13:10:54Z</time>
      </trkpt>
      <trkpt lat="49.25959" lon="-0.1042">
        <ele>5.5</ele>
        <time>2023-11-22T13:10:55Z</time>
      </trkpt>
      <trkpt lat="49.25951" lon="-0.1042">
        <ele>5.5</ele>
        <time>2023-11-22T13:10:56Z</time>
      </trkpt>
      <trkpt lat="49.25944" lon="-0.1042">
        <ele>5.5</ele>
        <time>2023-11-22T13:10:57Z</time>
      </trkpt>
      <trkpt lat="49.25936" lon="-0.10419">
        <ele>5.5</ele>
        <time>2023-11-22T13:10:58Z</time>
      </trkpt>
      <trkpt lat="49.25928" lon="-0.10418">
        <ele>5.4</ele>
        <time>2023-11-22T13:10:59Z</time>
      </trkpt>
      <trkpt lat="49.2592" lon="-0.10417">
        <ele>5.4</ele>
        <time>2023-11-22T13:11:00Z</time>
      </trkpt>
      <trkpt lat="49.25913" lon="-0.10415">
        <ele>5.3</ele>
        <time>2023-11-22T13:11:01Z</time>
      </trkpt>
      <trkpt lat="49.25905" lon="-0.10414">
        <ele>5.3</ele>
        <time>2023-11-22T13:11:02Z</time>
      </trkpt>
      <trkpt lat="49.25898" lon="-0.10412">
        <ele>5.3</ele>
        <time>2023-11-22T13:11:03Z</time>
      </trkpt>
      <trkpt lat="49.25891" lon="-0.10411">
        <ele>5.3</ele>
        <time>2023-11-22T13:11:04Z</time>
      </trkpt>
      <trkpt lat="49.25883" lon="-0.1041">
        <ele>5.2</ele>
        <time>2023-11-22T13:11:05Z</time>
      </trkpt>
      <trkpt lat="49.25875" lon="-0.10409">
        <ele>5.2</ele>
        <time>2023-11-22T13:11:06Z</time>
      </trkpt>
      <trkpt lat="49.25868" lon="-0.10409">
        <ele>5.2</ele>
        <time>2023-11-22T13:11:07Z</time>
      </trkpt>
      <trkpt lat="49.25861" lon="-0.10408">
        <ele>5.2</ele>
        <time>2023-11-22T13:11:08Z</time>
      </trkpt>
      <trkpt lat="49.25854" lon="-0.10407">
        <ele>5.2</ele>
        <time>2023-11-22T13:11:09Z</time>
      </trkpt>
      <trkpt lat="49.25847" lon="-0.10406">
        <ele>5.2</ele>
        <time>2023-11-22T13:11:10Z</time>
      </trkpt>
      <trkpt lat="49.2584" lon="-0.10405">
        <ele>5.2</ele>
        <time>2023-11-22T13:11:11Z</time>
      </trkpt>
      <trkpt lat="49.25834" lon="-0.10404">
        <ele>5.2</ele>
        <time>2023-11-22T13:11:12Z</time>
      </trkpt>
      <trkpt lat="49.25827" lon="-0.10404">
        <ele>5.3</ele>
        <time>2023-11-22T13:11:13Z</time>
      </trkpt>
      <trkpt lat="49.25821" lon="-0.10403">
        <ele>5.3</ele>
        <time>2023-11-22T13:11:14Z</time>
      </trkpt>
      <trkpt lat="49.25814" lon="-0.10403">
        <ele>5.3</ele>
        <time>2023-11-22T13:11:15Z</time>
      </trkpt>
      <trkpt lat="49.25808" lon="-0.10404">
        <ele>5.4</ele>
        <time>2023-11-22T13:11:16Z</time>
      </trkpt>
      <trkpt lat="49.25802" lon="-0.10406">
        <ele>5.4</ele>
        <time>2023-11-22T13:11:17Z</time>
      </trkpt>
      <trkpt lat="49.25796" lon="-0.10409">
        <ele>5.3</ele>
        <time>2023-11-22T13:11:18Z</time>
      </trkpt>
      <trkpt lat="49.25791" lon="-0.10414">
        <ele>5.3</ele>
        <time>2023-11-22T13:11:19Z</time>
      </trkpt>
      <trkpt lat="49.25786" lon="-0.10419">
        <ele>5.2</ele>
        <time>2023-11-22T13:11:20Z</time>
      </trkpt>
      <trkpt lat="49.25781" lon="-0.10423">
        <ele>5.1</ele>
        <time>2023-11-22T13:11:21Z</time>
      </trkpt>
      <trkpt lat="49.25775" lon="-0.10425">
        <ele>5</ele>
        <time>2023-11-22T13:11:22Z</time>
      </trkpt>
      <trkpt lat="49.2577" lon="-0.10425">
        <ele>4.9</ele>
        <time>2023-11-22T13:11:23Z</time>
      </trkpt>
      <trkpt lat="49.25764" lon="-0.10422">
        <ele>4.8</ele>
        <time>2023-11-22T13:11:24Z</time>
      </trkpt>
      <trkpt lat="49.25759" lon="-0.10418">
        <ele>4.7</ele>
        <time>2023-11-22T13:11:25Z</time>
      </trkpt>
      <trkpt lat="49.25755" lon="-0.10411">
        <ele>4.7</ele>
        <time>2023-11-22T13:11:26Z</time>
      </trkpt>
      <trkpt lat="49.25752" lon="-0.10404">
        <ele>4.8</ele>
        <time>2023-11-22T13:11:27Z</time>
      </trkpt>
      <trkpt lat="49.25751" lon="-0.10395">
        <ele>4.8</ele>
        <time>2023-11-22T13:11:28Z</time>
      </trkpt>
      <trkpt lat="49.25751" lon="-0.10387">
        <ele>4.8</ele>
        <time>2023-11-22T13:11:29Z</time>
      </trkpt>
      <trkpt lat="49.25753" lon="-0.10377">
        <ele>4.7</ele>
        <time>2023-11-22T13:11:30Z</time>
      </trkpt>
      <trkpt lat="49.25757" lon="-0.10369">
        <ele>4.7</ele>
        <time>2023-11-22T13:11:31Z</time>
      </trkpt>
      <trkpt lat="49.25763" lon="-0.10362">
        <ele>4.7</ele>
        <time>2023-11-22T13:11:32Z</time>
      </trkpt>
      <trkpt lat="49.25768" lon="-0.10355">
        <ele>4.7</ele>
        <time>2023-11-22T13:11:33Z</time>
      </trkpt>
      <trkpt lat="49.25773" lon="-0.10349">
        <ele>4.7</ele>
        <time>2023-11-22T13:11:34Z</time>
      </trkpt>
      <trkpt lat="49.25777" lon="-0.10341">
        <ele>4.7</ele>
        <time>2023-11-22T13:11:35Z</time>
      </trkpt>
      <trkpt lat="49.25781" lon="-0.10332">
        <ele>4.7</ele>
        <time>2023-11-22T13:11:36Z</time>
      </trkpt>
      <trkpt lat="49.25783" lon="-0.10322">
        <ele>4.7</ele>
        <time>2023-11-22T13:11:37Z</time>
      </trkpt>
      <trkpt lat="49.25785" lon="-0.10311">
        <ele>4.8</ele>
        <time>2023-11-22T13:11:38Z</time>
      </trkpt>
      <trkpt lat="49.25787" lon="-0.103">
        <ele>4.9</ele>
        <time>2023-11-22T13:11:39Z</time>
      </trkpt>
      <trkpt lat="49.25788" lon="-0.10289">
        <ele>5</ele>
        <time>2023-11-22T13:11:40Z</time>
      </trkpt>
      <trkpt lat="49.2579" lon="-0.10277">
        <ele>5.1</ele>
        <time>2023-11-22T13:11:41Z</time>
      </trkpt>
      <trkpt lat="49.25792" lon="-0.10266">
        <ele>5.1</ele>
        <time>2023-11-22T13:11:42Z</time>
      </trkpt>
      <trkpt lat="49.25793" lon="-0.10254">
        <ele>5.1</ele>
        <time>2023-11-22T13:11:43Z</time>
      </trkpt>
      <trkpt lat="49.25794" lon="-0.10242">
        <ele>5.1</ele>
        <time>2023-11-22T13:11:44Z</time>
      </trkpt>
      <trkpt lat="49.25795" lon="-0.1023">
        <ele>5.2</ele>
        <time>2023-11-22T13:11:45Z</time>
      </trkpt>
      <trkpt lat="49.25795" lon="-0.10217">
        <ele>5.2</ele>
        <time>2023-11-22T13:11:46Z</time>
      </trkpt>
      <trkpt lat="49.25796" lon="-0.10205">
        <ele>5.2</ele>
        <time>2023-11-22T13:11:47Z</time>
      </trkpt>
      <trkpt lat="49.25796" lon="-0.10193">
        <ele>5.3</ele>
        <time>2023-11-22T13:11:48Z</time>
      </trkpt>
      <trkpt lat="49.25797" lon="-0.10181">
        <ele>5.4</ele>
        <time>2023-11-22T13:11:49Z</time>
      </trkpt>
      <trkpt lat="49.25798" lon="-0.10168">
        <ele>5.4</ele>
        <time>2023-11-22T13:11:50Z</time>
      </trkpt>
      <trkpt lat="49.25798" lon="-0.10157">
        <ele>5.5</ele>
        <time>2023-11-22T13:11:51Z</time>
      </trkpt>
      <trkpt lat="49.25799" lon="-0.10145">
        <ele>5.5</ele>
        <time>2023-11-22T13:11:52Z</time>
      </trkpt>
      <trkpt lat="49.258" lon="-0.10133">
        <ele>5.5</ele>
        <time>2023-11-22T13:11:53Z</time>
      </trkpt>
      <trkpt lat="49.25801" lon="-0.10121">
        <ele>5.6</ele>
        <time>2023-11-22T13:11:54Z</time>
      </trkpt>
      <trkpt lat="49.25801" lon="-0.10109">
        <ele>5.6</ele>
        <time>2023-11-22T13:11:55Z</time>
      </trkpt>
      <trkpt lat="49.25802" lon="-0.10096">
        <ele>5.6</ele>
        <time>2023-11-22T13:11:56Z</time>
      </trkpt>
      <trkpt lat="49.25804" lon="-0.10083">
        <ele>5.6</ele>
        <time>2023-11-22T13:11:57Z</time>
      </trkpt>
      <trkpt lat="49.25805" lon="-0.10071">
        <ele>5.6</ele>
        <time>2023-11-22T13:11:58Z</time>
      </trkpt>
      <trkpt lat="49.25806" lon="-0.10058">
        <ele>5.6</ele>
        <time>2023-11-22T13:11:59Z</time>
      </trkpt>
      <trkpt lat="49.25807" lon="-0.10046">
        <ele>5.6</ele>
        <time>2023-11-22T13:12:00Z</time>
      </trkpt>
      <trkpt lat="49.25808" lon="-0.10035">
        <ele>5.6</ele>
        <time>2023-11-22T13:12:01Z</time>
      </trkpt>
      <trkpt lat="49.25809" lon="-0.10023">
        <ele>5.5</ele>
        <time>2023-11-22T13:12:02Z</time>
      </trkpt>
      <trkpt lat="49.2581" lon="-0.10011">
        <ele>5.5</ele>
        <time>2023-11-22T13:12:03Z</time>
      </trkpt>
      <trkpt lat="49.25811" lon="-0.1">
        <ele>5.5</ele>
        <time>2023-11-22T13:12:04Z</time>
      </trkpt>
      <trkpt lat="49.25812" lon="-0.09989">
        <ele>5.4</ele>
        <time>2023-11-22T13:12:05Z</time>
      </trkpt>
      <trkpt lat="49.25813" lon="-0.09977">
        <ele>5.4</ele>
        <time>2023-11-22T13:12:06Z</time>
      </trkpt>
      <trkpt lat="49.25814" lon="-0.09966">
        <ele>5.4</ele>
        <time>2023-11-22T13:12:07Z</time>
      </trkpt>
      <trkpt lat="49.25815" lon="-0.09955">
        <ele>5.3</ele>
        <time>2023-11-22T13:12:08Z</time>
      </trkpt>
      <trkpt lat="49.25816" lon="-0.09943">
        <ele>5.3</ele>
        <time>2023-11-22T13:12:09Z</time>
      </trkpt>
      <trkpt lat="49.25817" lon="-0.09932">
        <ele>5.3</ele>
        <time>2023-11-22T13:12:10Z</time>
      </trkpt>
      <trkpt lat="49.25817" lon="-0.0992">
        <ele>5.3</ele>
        <time>2023-11-22T13:12:11Z</time>
      </trkpt>
      <trkpt lat="49.25818" lon="-0.09908">
        <ele>5.3</ele>
        <time>2023-11-22T13:12:12Z</time>
      </trkpt>
      <trkpt lat="49.25818" lon="-0.09896">
        <ele>5.3</ele>
        <time>2023-11-22T13:12:13Z</time>
      </trkpt>
      <trkpt lat="49.25819" lon="-0.09884">
        <ele>5.3</ele>
        <time>2023-11-22T13:12:14Z</time>
      </trkpt>
      <trkpt lat="49.2582" lon="-0.09873">
        <ele>5.3</ele>
        <time>2023-11-22T13:12:15Z</time>
      </trkpt>
      <trkpt lat="49.25821" lon="-0.09861">
        <ele>5.3</ele>
        <time>2023-11-22T13:12:16Z</time>
      </trkpt>
      <trkpt lat="49.25822" lon="-0.0985">
        <ele>5.4</ele>
        <time>2023-11-22T13:12:17Z</time>
      </trkpt>
      <trkpt lat="49.25822" lon="-0.09838">
        <ele>5.4</ele>
        <time>2023-11-22T13:12:18Z</time>
      </trkpt>
      <trkpt lat="49.25823" lon="-0.09826">
        <ele>5.4</ele>
        <time>2023-11-22T13:12:19Z</time>
      </trkpt>
      <trkpt lat="49.25824" lon="-0.09814">
        <ele>5.4</ele>
        <time>2023-11-22T13:12:20Z</time>
      </trkpt>
      <trkpt lat="49.25825" lon="-0.09803">
        <ele>5.4</ele>
        <time>2023-11-22T13:12:21Z</time>
      </trkpt>
      <trkpt lat="49.25826" lon="-0.09792">
        <ele>5.4</ele>
        <time>2023-11-22T13:12:22Z</time>
      </trkpt>
      <trkpt lat="49.25826" lon="-0.09781">
        <ele>5.4</ele>
        <time>2023-11-22T13:12:23Z</time>
      </trkpt>
      <trkpt lat="49.25827" lon="-0.0977">
        <ele>5.4</ele>
        <time>2023-11-22T13:12:24Z</time>
      </trkpt>
      <trkpt lat="49.25828" lon="-0.09759">
        <ele>5.4</ele>
        <time>2023-11-22T13:12:25Z</time>
      </trkpt>
      <trkpt lat="49.25829" lon="-0.09748">
        <ele>5.4</ele>
        <time>2023-11-22T13:12:26Z</time>
      </trkpt>
      <trkpt lat="49.2583" lon="-0.09738">
        <ele>5.4</ele>
        <time>2023-11-22T13:12:27Z</time>
      </trkpt>
      <trkpt lat="49.2583" lon="-0.09727">
        <ele>5.4</ele>
        <time>2023-11-22T13:12:28Z</time>
      </trkpt>
      <trkpt lat="49.25831" lon="-0.09716">
        <ele>5.5</ele>
        <time>2023-11-22T13:12:29Z</time>
      </trkpt>
      <trkpt lat="49.25831" lon="-0.09705">
        <ele>5.5</ele>
        <time>2023-11-22T13:12:30Z</time>
      </trkpt>
      <trkpt lat="49.25832" lon="-0.09693">
        <ele>5.6</ele>
        <time>2023-11-22T13:12:31Z</time>
      </trkpt>
      <trkpt lat="49.25832" lon="-0.09682">
        <ele>5.6</ele>
        <time>2023-11-22T13:12:32Z</time>
      </trkpt>
      <trkpt lat="49.25832" lon="-0.09671">
        <ele>5.7</ele>
        <time>2023-11-22T13:12:33Z</time>
      </trkpt>
      <trkpt lat="49.25832" lon="-0.09659">
        <ele>5.8</ele>
        <time>2023-11-22T13:12:34Z</time>
      </trkpt>
      <trkpt lat="49.25831" lon="-0.09648">
        <ele>5.9</ele>
        <time>2023-11-22T13:12:35Z</time>
      </trkpt>
      <trkpt lat="49.25831" lon="-0.09637">
        <ele>6</ele>
        <time>2023-11-22T13:12:36Z</time>
      </trkpt>
      <trkpt lat="49.25831" lon="-0.09625">
        <ele>6.1</ele>
        <time>2023-11-22T13:12:37Z</time>
      </trkpt>
      <trkpt lat="49.25831" lon="-0.09614">
        <ele>6.3</ele>
        <time>2023-11-22T13:12:38Z</time>
      </trkpt>
      <trkpt lat="49.25831" lon="-0.09604">
        <ele>6.4</ele>
        <time>2023-11-22T13:12:39Z</time>
      </trkpt>
      <trkpt lat="49.25831" lon="-0.09593">
        <ele>6.5</ele>
        <time>2023-11-22T13:12:40Z</time>
      </trkpt>
      <trkpt lat="49.25831" lon="-0.09583">
        <ele>6.6</ele>
        <time>2023-11-22T13:12:41Z</time>
      </trkpt>
      <trkpt lat="49.25831" lon="-0.09573">
        <ele>6.8</ele>
        <time>2023-11-22T13:12:42Z</time>
      </trkpt>
      <trkpt lat="49.25831" lon="-0.09562">
        <ele>6.9</ele>
        <time>2023-11-22T13:12:43Z</time>
      </trkpt>
      <trkpt lat="49.25831" lon="-0.09552">
        <ele>7</ele>
        <time>2023-11-22T13:12:44Z</time>
      </trkpt>
      <trkpt lat="49.25831" lon="-0.09541">
        <ele>7.2</ele>
        <time>2023-11-22T13:12:45Z</time>
      </trkpt>
      <trkpt lat="49.25832" lon="-0.0953">
        <ele>7.4</ele>
        <time>2023-11-22T13:12:46Z</time>
      </trkpt>
      <trkpt lat="49.25833" lon="-0.0952">
        <ele>7.5</ele>
        <time>2023-11-22T13:12:47Z</time>
      </trkpt>
      <trkpt lat="49.25833" lon="-0.09511">
        <ele>7.8</ele>
        <time>2023-11-22T13:12:48Z</time>
      </trkpt>
      <trkpt lat="49.25832" lon="-0.09502">
        <ele>8</ele>
        <time>2023-11-22T13:12:49Z</time>
      </trkpt>
      <trkpt lat="49.2583" lon="-0.09494">
        <ele>8.2</ele>
        <time>2023-11-22T13:12:50Z</time>
      </trkpt>
      <trkpt lat="49.25825" lon="-0.09487">
        <ele>8.5</ele>
        <time>2023-11-22T13:12:51Z</time>
      </trkpt>
      <trkpt lat="49.2582" lon="-0.09483">
        <ele>8.5</ele>
        <time>2023-11-22T13:12:52Z</time>
      </trkpt>
      <trkpt lat="49.25813" lon="-0.09481">
        <ele>8.5</ele>
        <time>2023-11-22T13:12:53Z</time>
      </trkpt>
      <trkpt lat="49.25807" lon="-0.09481">
        <ele>8.5</ele>
        <time>2023-11-22T13:12:54Z</time>
      </trkpt>
      <trkpt lat="49.25801" lon="-0.09483">
        <ele>8.5</ele>
        <time>2023-11-22T13:12:55Z</time>
      </trkpt>
      <trkpt lat="49.25794" lon="-0.09485">
        <ele>8.5</ele>
        <time>2023-11-22T13:12:56Z</time>
      </trkpt>
      <trkpt lat="49.25788" lon="-0.09487">
        <ele>8.5</ele>
        <time>2023-11-22T13:12:57Z</time>
      </trkpt>
      <trkpt lat="49.25781" lon="-0.0949">
        <ele>8.5</ele>
        <time>2023-11-22T13:12:58Z</time>
      </trkpt>
      <trkpt lat="49.25773" lon="-0.09494">
        <ele>8.4</ele>
        <time>2023-11-22T13:12:59Z</time>
      </trkpt>
      <trkpt lat="49.25766" lon="-0.09499">
        <ele>8.2</ele>
        <time>2023-11-22T13:13:00Z</time>
      </trkpt>
      <trkpt lat="49.25759" lon="-0.09504">
        <ele>8.1</ele>
        <time>2023-11-22T13:13:01Z</time>
      </trkpt>
      <trkpt lat="49.25751" lon="-0.09509">
        <ele>8</ele>
        <time>2023-11-22T13:13:02Z</time>
      </trkpt>
      <trkpt lat="49.25744" lon="-0.09514">
        <ele>7.9</ele>
        <time>2023-11-22T13:13:03Z</time>
      </trkpt>
      <trkpt lat="49.25736" lon="-0.09521">
        <ele>7.8</ele>
        <time>2023-11-22T13:13:04Z</time>
      </trkpt>
      <trkpt lat="49.25729" lon="-0.09527">
        <ele>7.7</ele>
        <time>2023-11-22T13:13:05Z</time>
      </trkpt>
      <trkpt lat="49.25722" lon="-0.09533">
        <ele>7.7</ele>
        <time>2023-11-22T13:13:06Z</time>
      </trkpt>
      <trkpt lat="49.25714" lon="-0.09538">
        <ele>7.6</ele>
        <time>2023-11-22T13:13:07Z</time>
      </trkpt>
      <trkpt lat="49.25707" lon="-0.09543">
        <ele>7.6</ele>
        <time>2023-11-22T13:13:08Z</time>
      </trkpt>
      <trkpt lat="49.257" lon="-0.09548">
        <ele>7.6</ele>
        <time>2023-11-22T13:13:09Z</time>
      </trkpt>
      <trkpt lat="49.25693" lon="-0.09554">
        <ele>7.5</ele>
        <time>2023-11-22T13:13:10Z</time>
      </trkpt>
      <trkpt lat="49.25685" lon="-0.0956">
        <ele>7.5</ele>
        <time>2023-11-22T13:13:11Z</time>
      </trkpt>
      <trkpt lat="49.25678" lon="-0.09565">
        <ele>7.4</ele>
        <time>2023-11-22T13:13:12Z</time>
      </trkpt>
      <trkpt lat="49.25671" lon="-0.0957">
        <ele>7.4</ele>
        <time>2023-11-22T13:13:13Z</time>
      </trkpt>
      <trkpt lat="49.25664" lon="-0.09575">
        <ele>7.4</ele>
        <time>2023-11-22T13:13:14Z</time>
      </trkpt>
      <trkpt lat="49.25657" lon="-0.09579">
        <ele>7.3</ele>
        <time>2023-11-22T13:13:15Z</time>
      </trkpt>
      <trkpt lat="49.2565" lon="-0.09584">
        <ele>7.3</ele>
        <time>2023-11-22T13:13:16Z</time>
      </trkpt>
      <trkpt lat="49.25642" lon="-0.09588">
        <ele>7.3</ele>
        <time>2023-11-22T13:13:17Z</time>
      </trkpt>
      <trkpt lat="49.25635" lon="-0.09591">
        <ele>7.3</ele>
        <time>2023-11-22T13:13:18Z</time>
      </trkpt>
      <trkpt lat="49.25627" lon="-0.09594">
        <ele>7.2</ele>
        <time>2023-11-22T13:13:19Z</time>
      </trkpt>
      <trkpt lat="49.25619" lon="-0.09597">
        <ele>7.2</ele>
        <time>2023-11-22T13:13:20Z</time>
      </trkpt>
      <trkpt lat="49.25611" lon="-0.09598">
        <ele>7.1</ele>
        <time>2023-11-22T13:13:21Z</time>
      </trkpt>
      <trkpt lat="49.25603" lon="-0.09598">
        <ele>7.1</ele>
        <time>2023-11-22T13:13:22Z</time>
      </trkpt>
      <trkpt lat="49.25596" lon="-0.09598">
        <ele>7.1</ele>
        <time>2023-11-22T13:13:23Z</time>
      </trkpt>
      <trkpt lat="49.25588" lon="-0.09598">
        <ele>7</ele>
        <time>2023-11-22T13:13:24Z</time>
      </trkpt>
      <trkpt lat="49.2558" lon="-0.09598">
        <ele>6.9</ele>
        <time>2023-11-22T13:13:25Z</time>
      </trkpt>
      <trkpt lat="49.25572" lon="-0.09598">
        <ele>6.8</ele>
        <time>2023-11-22T13:13:26Z</time>
      </trkpt>
      <trkpt lat="49.25564" lon="-0.09597">
        <ele>6.8</ele>
        <time>2023-11-22T13:13:27Z</time>
      </trkpt>
      <trkpt lat="49.25556" lon="-0.09597">
        <ele>6.7</ele>
        <time>2023-11-22T13:13:28Z</time>
      </trkpt>
      <trkpt lat="49.25548" lon="-0.09596">
        <ele>6.6</ele>
        <time>2023-11-22T13:13:29Z</time>
      </trkpt>
      <trkpt lat="49.2554" lon="-0.09596">
        <ele>6.5</ele>
        <time>2023-11-22T13:13:30Z</time>
      </trkpt>
      <trkpt lat="49.25532" lon="-0.09596">
        <ele>6.4</ele>
        <time>2023-11-22T13:13:31Z</time>
      </trkpt>
      <trkpt lat="49.25523" lon="-0.09596">
        <ele>6.3</ele>
        <time>2023-11-22T13:13:32Z</time>
      </trkpt>
      <trkpt lat="49.25515" lon="-0.09596">
        <ele>6.2</ele>
        <time>2023-11-22T13:13:33Z</time>
      </trkpt>
      <trkpt lat="49.25507" lon="-0.09597">
        <ele>6</ele>
        <time>2023-11-22T13:13:34Z</time>
      </trkpt>
      <trkpt lat="49.25499" lon="-0.09598">
        <ele>5.9</ele>
        <time>2023-11-22T13:13:35Z</time>
      </trkpt>
      <trkpt lat="49.25491" lon="-0.09599">
        <ele>5.9</ele>
        <time>2023-11-22T13:13:36Z</time>
      </trkpt>
      <trkpt lat="49.25483" lon="-0.096">
        <ele>5.8</ele>
        <time>2023-11-22T13:13:37Z</time>
      </trkpt>
      <trkpt lat="49.25475" lon="-0.09602">
        <ele>5.8</ele>
        <time>2023-11-22T13:13:38Z</time>
      </trkpt>
      <trkpt lat="49.25467" lon="-0.09603">
        <ele>5.7</ele>
        <time>2023-11-22T13:13:39Z</time>
      </trkpt>
      <trkpt lat="49.25459" lon="-0.09604">
        <ele>5.6</ele>
        <time>2023-11-22T13:13:40Z</time>
      </trkpt>
      <trkpt lat="49.25451" lon="-0.09606">
        <ele>5.5</ele>
        <time>2023-11-22T13:13:41Z</time>
      </trkpt>
      <trkpt lat="49.25444" lon="-0.09608">
        <ele>5.4</ele>
        <time>2023-11-22T13:13:42Z</time>
      </trkpt>
      <trkpt lat="49.25436" lon="-0.09609">
        <ele>5.3</ele>
        <time>2023-11-22T13:13:43Z</time>
      </trkpt>
      <trkpt lat="49.25428" lon="-0.09611">
        <ele>5.3</ele>
        <time>2023-11-22T13:13:44Z</time>
      </trkpt>
      <trkpt lat="49.2542" lon="-0.09612">
        <ele>5.3</ele>
        <time>2023-11-22T13:13:45Z</time>
      </trkpt>
      <trkpt lat="49.25413" lon="-0.09613">
        <ele>5.2</ele>
        <time>2023-11-22T13:13:46Z</time>
      </trkpt>
      <trkpt lat="49.25406" lon="-0.09615">
        <ele>5.2</ele>
        <time>2023-11-22T13:13:47Z</time>
      </trkpt>
      <trkpt lat="49.25398" lon="-0.09617">
        <ele>5.1</ele>
        <time>2023-11-22T13:13:48Z</time>
      </trkpt>
      <trkpt lat="49.25391" lon="-0.09619">
        <ele>5.1</ele>
        <time>2023-11-22T13:13:49Z</time>
      </trkpt>
      <trkpt lat="49.25384" lon="-0.0962">
        <ele>5.1</ele>
        <time>2023-11-22T13:13:50Z</time>
      </trkpt>
      <trkpt lat="49.25376" lon="-0.09621">
        <ele>5.1</ele>
        <time>2023-11-22T13:13:51Z</time>
      </trkpt>
      <trkpt lat="49.25369" lon="-0.09622">
        <ele>5.1</ele>
        <time>2023-11-22T13:13:52Z</time>
      </trkpt>
      <trkpt lat="49.25361" lon="-0.09623">
        <ele>5.1</ele>
        <time>2023-11-22T13:13:53Z</time>
      </trkpt>
      <trkpt lat="49.25354" lon="-0.09624">
        <ele>5.1</ele>
        <time>2023-11-22T13:13:54Z</time>
      </trkpt>
      <trkpt lat="49.25347" lon="-0.09625">
        <ele>5.1</ele>
        <time>2023-11-22T13:13:55Z</time>
      </trkpt>
      <trkpt lat="49.2534" lon="-0.09627">
        <ele>5.1</ele>
        <time>2023-11-22T13:13:56Z</time>
      </trkpt>
      <trkpt lat="49.25333" lon="-0.09629">
        <ele>5.2</ele>
        <time>2023-11-22T13:13:57Z</time>
      </trkpt>
      <trkpt lat="49.25326" lon="-0.09632">
        <ele>5.2</ele>
        <time>2023-11-22T13:13:58Z</time>
      </trkpt>
      <trkpt lat="49.25318" lon="-0.09635">
        <ele>5.2</ele>
        <time>2023-11-22T13:13:59Z</time>
      </trkpt>
      <trkpt lat="49.25311" lon="-0.09638">
        <ele>5.3</ele>
        <time>2023-11-22T13:14:00Z</time>
      </trkpt>
      <trkpt lat="49.25304" lon="-0.09642">
        <ele>5.3</ele>
        <time>2023-11-22T13:14:01Z</time>
      </trkpt>
      <trkpt lat="49.25297" lon="-0.09647">
        <ele>5.3</ele>
        <time>2023-11-22T13:14:02Z</time>
      </trkpt>
      <trkpt lat="49.25291" lon="-0.09653">
        <ele>5.4</ele>
        <time>2023-11-22T13:14:03Z</time>
      </trkpt>
      <trkpt lat="49.25285" lon="-0.09659">
        <ele>5.4</ele>
        <time>2023-11-22T13:14:04Z</time>
      </trkpt>
      <trkpt lat="49.25279" lon="-0.09666">
        <ele>5.4</ele>
        <time>2023-11-22T13:14:05Z</time>
      </trkpt>
      <trkpt lat="49.25273" lon="-0.09673">
        <ele>5.4</ele>
        <time>2023-11-22T13:14:06Z</time>
      </trkpt>
      <trkpt lat="49.25267" lon="-0.09679">
        <ele>5.4</ele>
        <time>2023-11-22T13:14:07Z</time>
      </trkpt>
      <trkpt lat="49.2526" lon="-0.09685">
        <ele>5.5</ele>
        <time>2023-11-22T13:14:08Z</time>
      </trkpt>
      <trkpt lat="49.25254" lon="-0.0969">
        <ele>5.5</ele>
        <time>2023-11-22T13:14:09Z</time>
      </trkpt>
      <trkpt lat="49.25247" lon="-0.09694">
        <ele>5.5</ele>
        <time>2023-11-22T13:14:10Z</time>
      </trkpt>
      <trkpt lat="49.25241" lon="-0.09697">
        <ele>5.4</ele>
        <time>2023-11-22T13:14:11Z</time>
      </trkpt>
      <trkpt lat="49.25234" lon="-0.097">
        <ele>5.4</ele>
        <time>2023-11-22T13:14:12Z</time>
      </trkpt>
      <trkpt lat="49.25227" lon="-0.09703">
        <ele>5.4</ele>
        <time>2023-11-22T13:14:13Z</time>
      </trkpt>
      <trkpt lat="49.2522" lon="-0.09706">
        <ele>5.4</ele>
        <time>2023-11-22T13:14:14Z</time>
      </trkpt>
      <trkpt lat="49.25213" lon="-0.09708">
        <ele>5.3</ele>
        <time>2023-11-22T13:14:15Z</time>
      </trkpt>
      <trkpt lat="49.25205" lon="-0.09711">
        <ele>5.2</ele>
        <time>2023-11-22T13:14:16Z</time>
      </trkpt>
      <trkpt lat="49.25198" lon="-0.09713">
        <ele>5.2</ele>
        <time>2023-11-22T13:14:17Z</time>
      </trkpt>
      <trkpt lat="49.25191" lon="-0.09716">
        <ele>5.1</ele>
        <time>2023-11-22T13:14:18Z</time>
      </trkpt>
      <trkpt lat="49.25183" lon="-0.09719">
        <ele>5</ele>
        <time>2023-11-22T13:14:19Z</time>
      </trkpt>
      <trkpt lat="49.25175" lon="-0.09722">
        <ele>4.9</ele>
        <time>2023-11-22T13:14:20Z</time>
      </trkpt>
      <trkpt lat="49.25168" lon="-0.09725">
        <ele>4.9</ele>
        <time>2023-11-22T13:14:21Z</time>
      </trkpt>
      <trkpt lat="49.2516" lon="-0.09728">
        <ele>4.8</ele>
        <time>2023-11-22T13:14:22Z</time>
      </trkpt>
      <trkpt lat="49.25153" lon="-0.09732">
        <ele>4.7</ele>
        <time>2023-11-22T13:14:23Z</time>
      </trkpt>
      <trkpt lat="49.25146" lon="-0.09736">
        <ele>4.7</ele>
        <time>2023-11-22T13:14:24Z</time>
      </trkpt>
      <trkpt lat="49.25139" lon="-0.09742">
        <ele>4.7</ele>
        <time>2023-11-22T13:14:25Z</time>
      </trkpt>
      <trkpt lat="49.25133" lon="-0.09749">
        <ele>4.6</ele>
        <time>2023-11-22T13:14:26Z</time>
      </trkpt>
      <trkpt lat="49.25127" lon="-0.09757">
        <ele>4.6</ele>
        <time>2023-11-22T13:14:27Z</time>
      </trkpt>
      <trkpt lat="49.25122" lon="-0.09766">
        <ele>4.5</ele>
        <time>2023-11-22T13:14:28Z</time>
      </trkpt>
      <trkpt lat="49.25118" lon="-0.09776">
        <ele>4.4</ele>
        <time>2023-11-22T13:14:29Z</time>
      </trkpt>
      <trkpt lat="49.25114" lon="-0.09786">
        <ele>4.4</ele>
        <time>2023-11-22T13:14:30Z</time>
      </trkpt>
      <trkpt lat="49.25109" lon="-0.09797">
        <ele>4.4</ele>
        <time>2023-11-22T13:14:31Z</time>
      </trkpt>
      <trkpt lat="49.25105" lon="-0.09808">
        <ele>4.3</ele>
        <time>2023-11-22T13:14:32Z</time>
      </trkpt>
      <trkpt lat="49.25102" lon="-0.09818">
        <ele>4.3</ele>
        <time>2023-11-22T13:14:33Z</time>
      </trkpt>
      <trkpt lat="49.25098" lon="-0.09828">
        <ele>4.3</ele>
        <time>2023-11-22T13:14:34Z</time>
      </trkpt>
      <trkpt lat="49.25094" lon="-0.09838">
        <ele>4.3</ele>
        <time>2023-11-22T13:14:35Z</time>
      </trkpt>
      <trkpt lat="49.25091" lon="-0.09848">
        <ele>4.2</ele>
        <time>2023-11-22T13:14:36Z</time>
      </trkpt>
      <trkpt lat="49.25087" lon="-0.09858">
        <ele>4.2</ele>
        <time>2023-11-22T13:14:37Z</time>
      </trkpt>
      <trkpt lat="49.25084" lon="-0.09868">
        <ele>4.2</ele>
        <time>2023-11-22T13:14:38Z</time>
      </trkpt>
      <trkpt lat="49.2508" lon="-0.09878">
        <ele>4.3</ele>
        <time>2023-11-22T13:14:39Z</time>
      </trkpt>
      <trkpt lat="49.25076" lon="-0.09888">
        <ele>4.3</ele>
        <time>2023-11-22T13:14:40Z</time>
      </trkpt>
      <trkpt lat="49.25073" lon="-0.09898">
        <ele>4.3</ele>
        <time>2023-11-22T13:14:41Z</time>
      </trkpt>
      <trkpt lat="49.25069" lon="-0.09908">
        <ele>4.3</ele>
        <time>2023-11-22T13:14:42Z</time>
      </trkpt>
      <trkpt lat="49.25066" lon="-0.09917">
        <ele>4.4</ele>
        <time>2023-11-22T13:14:43Z</time>
      </trkpt>
      <trkpt lat="49.25062" lon="-0.09927">
        <ele>4.4</ele>
        <time>2023-11-22T13:14:44Z</time>
      </trkpt>
      <trkpt lat="49.25059" lon="-0.09937">
        <ele>4.4</ele>
        <time>2023-11-22T13:14:45Z</time>
      </trkpt>
      <trkpt lat="49.25055" lon="-0.09946">
        <ele>4.4</ele>
        <time>2023-11-22T13:14:46Z</time>
      </trkpt>
      <trkpt lat="49.25051" lon="-0.09956">
        <ele>4.5</ele>
        <time>2023-11-22T13:14:47Z</time>
      </trkpt>
      <trkpt lat="49.25048" lon="-0.09966">
        <ele>4.5</ele>
        <time>2023-11-22T13:14:48Z</time>
      </trkpt>
      <trkpt lat="49.25044" lon="-0.09976">
        <ele>4.5</ele>
        <time>2023-11-22T13:14:49Z</time>
      </trkpt>
      <trkpt lat="49.2504" lon="-0.09985">
        <ele>4.5</ele>
        <time>2023-11-22T13:14:50Z</time>
      </trkpt>
      <trkpt lat="49.25037" lon="-0.09995">
        <ele>4.6</ele>
        <time>2023-11-22T13:14:51Z</time>
      </trkpt>
      <trkpt lat="49.25033" lon="-0.10004">
        <ele>4.7</ele>
        <time>2023-11-22T13:14:52Z</time>
      </trkpt>
      <trkpt lat="49.25029" lon="-0.10014">
        <ele>4.7</ele>
        <time>2023-11-22T13:14:53Z</time>
      </trkpt>
      <trkpt lat="49.25025" lon="-0.10024">
        <ele>4.8</ele>
        <time>2023-11-22T13:14:54Z</time>
      </trkpt>
      <trkpt lat="49.25021" lon="-0.10034">
        <ele>4.9</ele>
        <time>2023-11-22T13:14:55Z</time>
      </trkpt>
      <trkpt lat="49.25018" lon="-0.10044">
        <ele>4.9</ele>
        <time>2023-11-22T13:14:56Z</time>
      </trkpt>
      <trkpt lat="49.25014" lon="-0.10054">
        <ele>4.9</ele>
        <time>2023-11-22T13:14:57Z</time>
      </trkpt>
      <trkpt lat="49.2501" lon="-0.10064">
        <ele>5</ele>
        <time>2023-11-22T13:14:58Z</time>
      </trkpt>
      <trkpt lat="49.25007" lon="-0.10074">
        <ele>5</ele>
        <time>2023-11-22T13:14:59Z</time>
      </trkpt>
      <trkpt lat="49.25003" lon="-0.10084">
        <ele>5.1</ele>
        <time>2023-11-22T13:15:00Z</time>
      </trkpt>
      <trkpt lat="49.24999" lon="-0.10093">
        <ele>5.2</ele>
        <time>2023-11-22T13:15:01Z</time>
      </trkpt>
      <trkpt lat="49.24995" lon="-0.10102">
        <ele>5.2</ele>
        <time>2023-11-22T13:15:02Z</time>
      </trkpt>
      <trkpt lat="49.24991" lon="-0.10112">
        <ele>5.3</ele>
        <time>2023-11-22T13:15:03Z</time>
      </trkpt>
      <trkpt lat="49.24988" lon="-0.10121">
        <ele>5.4</ele>
        <time>2023-11-22T13:15:04Z</time>
      </trkpt>
      <trkpt lat="49.24985" lon="-0.1013">
        <ele>5.5</ele>
        <time>2023-11-22T13:15:05Z</time>
      </trkpt>
      <trkpt lat="49.24981" lon="-0.1014">
        <ele>5.5</ele>
        <time>2023-11-22T13:15:06Z</time>
      </trkpt>
      <trkpt lat="49.24978" lon="-0.10149">
        <ele>5.5</ele>
        <time>2023-11-22T13:15:07Z</time>
      </trkpt>
      <trkpt lat="49.24974" lon="-0.10158">
        <ele>5.6</ele>
        <time>2023-11-22T13:15:08Z</time>
      </trkpt>
      <trkpt lat="49.24971" lon="-0.10168">
        <ele>5.6</ele>
        <time>2023-11-22T13:15:09Z</time>
      </trkpt>
      <trkpt lat="49.24967" lon="-0.10179">
        <ele>5.6</ele>
        <time>2023-11-22T13:15:10Z</time>
      </trkpt>
      <trkpt lat="49.24963" lon="-0.10188">
        <ele>5.6</ele>
        <time>2023-11-22T13:15:11Z</time>
      </trkpt>
      <trkpt lat="49.2496" lon="-0.10198">
        <ele>5.6</ele>
        <time>2023-11-22T13:15:12Z</time>
      </trkpt>
      <trkpt lat="49.24956" lon="-0.10207">
        <ele>5.6</ele>
        <time>2023-11-22T13:15:13Z</time>
      </trkpt>
      <trkpt lat="49.24952" lon="-0.10217">
        <ele>5.7</ele>
        <time>2023-11-22T13:15:14Z</time>
      </trkpt>
      <trkpt lat="49.24948" lon="-0.10228">
        <ele>5.7</ele>
        <time>2023-11-22T13:15:15Z</time>
      </trkpt>
      <trkpt lat="49.24944" lon="-0.10237">
        <ele>5.8</ele>
        <time>2023-11-22T13:15:16Z</time>
      </trkpt>
      <trkpt lat="49.24939" lon="-0.10245">
        <ele>5.8</ele>
        <time>2023-11-22T13:15:17Z</time>
      </trkpt>
      <trkpt lat="49.24934" lon="-0.10253">
        <ele>5.9</ele>
        <time>2023-11-22T13:15:18Z</time>
      </trkpt>
      <trkpt lat="49.24929" lon="-0.1026">
        <ele>6</ele>
        <time>2023-11-22T13:15:19Z</time>
      </trkpt>
      <trkpt lat="49.24922" lon="-0.10267">
        <ele>6.1</ele>
        <time>2023-11-22T13:15:20Z</time>
      </trkpt>
      <trkpt lat="49.24916" lon="-0.10274">
        <ele>6.2</ele>
        <time>2023-11-22T13:15:21Z</time>
      </trkpt>
      <trkpt lat="49.2491" lon="-0.1028">
        <ele>6.2</ele>
        <time>2023-11-22T13:15:22Z</time>
      </trkpt>
      <trkpt lat="49.24903" lon="-0.10285">
        <ele>6.3</ele>
        <time>2023-11-22T13:15:23Z</time>
      </trkpt>
      <trkpt lat="49.24896" lon="-0.10289">
        <ele>6.3</ele>
        <time>2023-11-22T13:15:24Z</time>
      </trkpt>
      <trkpt lat="49.24889" lon="-0.10292">
        <ele>6.4</ele>
        <time>2023-11-22T13:15:25Z</time>
      </trkpt>
      <trkpt lat="49.24882" lon="-0.10295">
        <ele>6.4</ele>
        <time>2023-11-22T13:15:26Z</time>
      </trkpt>
      <trkpt lat="49.24874" lon="-0.10296">
        <ele>6.4</ele>
        <time>2023-11-22T13:15:27Z</time>
      </trkpt>
      <trkpt lat="49.24867" lon="-0.10296">
        <ele>6.4</ele>
        <time>2023-11-22T13:15:28Z</time>
      </trkpt>
      <trkpt lat="49.24859" lon="-0.10296">
        <ele>6.3</ele>
        <time>2023-11-22T13:15:29Z</time>
      </trkpt>
      <trkpt lat="49.24851" lon="-0.10295">
        <ele>6.3</ele>
        <time>2023-11-22T13:15:30Z</time>
      </trkpt>
      <trkpt lat="49.24843" lon="-0.10293">
        <ele>6.2</ele>
        <time>2023-11-22T13:15:31Z</time>
      </trkpt>
      <trkpt lat="49.24836" lon="-0.10291">
        <ele>6.2</ele>
        <time>2023-11-22T13:15:32Z</time>
      </trkpt>
      <trkpt lat="49.24828" lon="-0.10288">
        <ele>6.2</ele>
        <time>2023-11-22T13:15:33Z</time>
      </trkpt>
      <trkpt lat="49.2482" lon="-0.10285">
        <ele>6.1</ele>
        <time>2023-11-22T13:15:34Z</time>
      </trkpt>
      <trkpt lat="49.24813" lon="-0.1028">
        <ele>6.1</ele>
        <time>2023-11-22T13:15:35Z</time>
      </trkpt>
      <trkpt lat="49.24806" lon="-0.10276">
        <ele>6</ele>
        <time>2023-11-22T13:15:36Z</time>
      </trkpt>
      <trkpt lat="49.24799" lon="-0.1027">
        <ele>5.9</ele>
        <time>2023-11-22T13:15:37Z</time>
      </trkpt>
      <trkpt lat="49.24793" lon="-0.10265">
        <ele>5.9</ele>
        <time>2023-11-22T13:15:38Z</time>
      </trkpt>
      <trkpt lat="49.24786" lon="-0.1026">
        <ele>5.8</ele>
        <time>2023-11-22T13:15:39Z</time>
      </trkpt>
      <trkpt lat="49.24779" lon="-0.10255">
        <ele>5.7</ele>
        <time>2023-11-22T13:15:40Z</time>
      </trkpt>
      <trkpt lat="49.24772" lon="-0.10249">
        <ele>5.6</ele>
        <time>2023-11-22T13:15:41Z</time>
      </trkpt>
      <trkpt lat="49.24765" lon="-0.10243">
        <ele>5.4</ele>
        <time>2023-11-22T13:15:42Z</time>
      </trkpt>
      <trkpt lat="49.24758" lon="-0.10238">
        <ele>5.3</ele>
        <time>2023-11-22T13:15:43Z</time>
      </trkpt>
      <trkpt lat="49.24751" lon="-0.10232">
        <ele>5.2</ele>
        <time>2023-11-22T13:15:44Z</time>
      </trkpt>
      <trkpt lat="49.24744" lon="-0.10226">
        <ele>5.1</ele>
        <time>2023-11-22T13:15:45Z</time>
      </trkpt>
      <trkpt lat="49.24738" lon="-0.10221">
        <ele>5</ele>
        <time>2023-11-22T13:15:46Z</time>
      </trkpt>
      <trkpt lat="49.24731" lon="-0.10215">
        <ele>4.9</ele>
        <time>2023-11-22T13:15:47Z</time>
      </trkpt>
      <trkpt lat="49.24725" lon="-0.10209">
        <ele>4.9</ele>
        <time>2023-11-22T13:15:48Z</time>
      </trkpt>
      <trkpt lat="49.24718" lon="-0.10204">
        <ele>4.8</ele>
        <time>2023-11-22T13:15:49Z</time>
      </trkpt>
      <trkpt lat="49.24712" lon="-0.10198">
        <ele>4.7</ele>
        <time>2023-11-22T13:15:50Z</time>
      </trkpt>
      <trkpt lat="49.24705" lon="-0.10193">
        <ele>4.7</ele>
        <time>2023-11-22T13:15:51Z</time>
      </trkpt>
      <trkpt lat="49.24698" lon="-0.10188">
        <ele>4.7</ele>
        <time>2023-11-22T13:15:52Z</time>
      </trkpt>
      <trkpt lat="49.24692" lon="-0.10183">
        <ele>4.7</ele>
        <time>2023-11-22T13:15:53Z</time>
      </trkpt>
      <trkpt lat="49.24685" lon="-0.10179">
        <ele>4.6</ele>
        <time>2023-11-22T13:15:54Z</time>
      </trkpt>
      <trkpt lat="49.24678" lon="-0.10173">
        <ele>4.6</ele>
        <time>2023-11-22T13:15:55Z</time>
      </trkpt>
      <trkpt lat="49.24672" lon="-0.10168">
        <ele>4.6</ele>
        <time>2023-11-22T13:15:56Z</time>
      </trkpt>
      <trkpt lat="49.24665" lon="-0.10163">
        <ele>4.5</ele>
        <time>2023-11-22T13:15:57Z</time>
      </trkpt>
      <trkpt lat="49.24658" lon="-0.10158">
        <ele>4.5</ele>
        <time>2023-11-22T13:15:58Z</time>
      </trkpt>
      <trkpt lat="49.24652" lon="-0.10153">
        <ele>4.5</ele>
        <time>2023-11-22T13:15:59Z</time>
      </trkpt>
      <trkpt lat="49.24645" lon="-0.10148">
        <ele>4.6</ele>
        <time>2023-11-22T13:16:00Z</time>
      </trkpt>
      <trkpt lat="49.24638" lon="-0.10143">
        <ele>4.6</ele>
        <time>2023-11-22T13:16:01Z</time>
      </trkpt>
      <trkpt lat="49.24632" lon="-0.10138">
        <ele>4.7</ele>
        <time>2023-11-22T13:16:02Z</time>
      </trkpt>
      <trkpt lat="49.24625" lon="-0.10133">
        <ele>4.8</ele>
        <time>2023-11-22T13:16:03Z</time>
      </trkpt>
      <trkpt lat="49.24618" lon="-0.10127">
        <ele>4.9</ele>
        <time>2023-11-22T13:16:04Z</time>
      </trkpt>
      <trkpt lat="49.24611" lon="-0.10122">
        <ele>5.1</ele>
        <time>2023-11-22T13:16:05Z</time>
      </trkpt>
      <trkpt lat="49.24605" lon="-0.10117">
        <ele>5.2</ele>
        <time>2023-11-22T13:16:06Z</time>
      </trkpt>
      <trkpt lat="49.24598" lon="-0.10112">
        <ele>5.4</ele>
        <time>2023-11-22T13:16:07Z</time>
      </trkpt>
      <trkpt lat="49.24591" lon="-0.10107">
        <ele>5.6</ele>
        <time>2023-11-22T13:16:08Z</time>
      </trkpt>
      <trkpt lat="49.24585" lon="-0.10103">
        <ele>5.8</ele>
        <time>2023-11-22T13:16:09Z</time>
      </trkpt>
      <trkpt lat="49.24578" lon="-0.10098">
        <ele>6</ele>
        <time>2023-11-22T13:16:10Z</time>
      </trkpt>
      <trkpt lat="49.24572" lon="-0.10093">
        <ele>6.2</ele>
        <time>2023-11-22T13:16:11Z</time>
      </trkpt>
      <trkpt lat="49.24566" lon="-0.10088">
        <ele>6.3</ele>
        <time>2023-11-22T13:16:12Z</time>
      </trkpt>
      <trkpt lat="49.24559" lon="-0.10084">
        <ele>6.4</ele>
        <time>2023-11-22T13:16:13Z</time>
      </trkpt>
      <trkpt lat="49.24553" lon="-0.10079">
        <ele>6.6</ele>
        <time>2023-11-22T13:16:14Z</time>
      </trkpt>
      <trkpt lat="49.24547" lon="-0.10075">
        <ele>6.9</ele>
        <time>2023-11-22T13:16:15Z</time>
      </trkpt>
      <trkpt lat="49.24542" lon="-0.1007">
        <ele>7.1</ele>
        <time>2023-11-22T13:16:16Z</time>
      </trkpt>
      <trkpt lat="49.24537" lon="-0.10066">
        <ele>7.4</ele>
        <time>2023-11-22T13:16:17Z</time>
      </trkpt>
      <trkpt lat="49.24531" lon="-0.10061">
        <ele>7.7</ele>
        <time>2023-11-22T13:16:18Z</time>
      </trkpt>
      <trkpt lat="49.24526" lon="-0.10057">
        <ele>7.9</ele>
        <time>2023-11-22T13:16:19Z</time>
      </trkpt>
      <trkpt lat="49.2452" lon="-0.10052">
        <ele>8.2</ele>
        <time>2023-11-22T13:16:20Z</time>
      </trkpt>
      <trkpt lat="49.24515" lon="-0.10048">
        <ele>8.5</ele>
        <time>2023-11-22T13:16:21Z</time>
      </trkpt>
      <trkpt lat="49.24509" lon="-0.10043">
        <ele>8.8</ele>
        <time>2023-11-22T13:16:22Z</time>
      </trkpt>
      <trkpt lat="49.24504" lon="-0.10039">
        <ele>9.1</ele>
        <time>2023-11-22T13:16:23Z</time>
      </trkpt>
      <trkpt lat="49.24498" lon="-0.10035">
        <ele>9.3</ele>
        <time>2023-11-22T13:16:24Z</time>
      </trkpt>
      <trkpt lat="49.24493" lon="-0.1003">
        <ele>9.6</ele>
        <time>2023-11-22T13:16:25Z</time>
      </trkpt>
      <trkpt lat="49.24487" lon="-0.10026">
        <ele>9.8</ele>
        <time>2023-11-22T13:16:26Z</time>
      </trkpt>
      <trkpt lat="49.24482" lon="-0.10022">
        <ele>10.1</ele>
        <time>2023-11-22T13:16:27Z</time>
      </trkpt>
      <trkpt lat="49.24476" lon="-0.10018">
        <ele>10.3</ele>
        <time>2023-11-22T13:16:28Z</time>
      </trkpt>
      <trkpt lat="49.24471" lon="-0.10014">
        <ele>10.4</ele>
        <time>2023-11-22T13:16:29Z</time>
      </trkpt>
      <trkpt lat="49.24466" lon="-0.1001">
        <ele>10.6</ele>
        <time>2023-11-22T13:16:30Z</time>
      </trkpt>
      <trkpt lat="49.24461" lon="-0.10005">
        <ele>10.8</ele>
        <time>2023-11-22T13:16:31Z</time>
      </trkpt>
      <trkpt lat="49.24456" lon="-0.1">
        <ele>11.1</ele>
        <time>2023-11-22T13:16:32Z</time>
      </trkpt>
      <trkpt lat="49.24451" lon="-0.09994">
        <ele>11.3</ele>
        <time>2023-11-22T13:16:33Z</time>
      </trkpt>
      <trkpt lat="49.24446" lon="-0.09988">
        <ele>11.5</ele>
        <time>2023-11-22T13:16:34Z</time>
      </trkpt>
      <trkpt lat="49.24441" lon="-0.09981">
        <ele>11.8</ele>
        <time>2023-11-22T13:16:35Z</time>
      </trkpt>
      <trkpt lat="49.24438" lon="-0.09973">
        <ele>12</ele>
        <time>2023-11-22T13:16:36Z</time>
      </trkpt>
      <trkpt lat="49.24434" lon="-0.09965">
        <ele>12.1</ele>
        <time>2023-11-22T13:16:37Z</time>
      </trkpt>
      <trkpt lat="49.24431" lon="-0.09957">
        <ele>12.3</ele>
        <time>2023-11-22T13:16:38Z</time>
      </trkpt>
      <trkpt lat="49.24428" lon="-0.09948">
        <ele>12.4</ele>
        <time>2023-11-22T13:16:39Z</time>
      </trkpt>
      <trkpt lat="49.24426" lon="-0.09939">
        <ele>12.5</ele>
        <time>2023-11-22T13:16:40Z</time>
      </trkpt>
      <trkpt lat="49.24423" lon="-0.0993">
        <ele>12.5</ele>
        <time>2023-11-22T13:16:41Z</time>
      </trkpt>
      <trkpt lat="49.2442" lon="-0.09921">
        <ele>12.5</ele>
        <time>2023-11-22T13:16:42Z</time>
      </trkpt>
      <trkpt lat="49.24418" lon="-0.09911">
        <ele>12.5</ele>
        <time>2023-11-22T13:16:43Z</time>
      </trkpt>
      <trkpt lat="49.24416" lon="-0.09901">
        <ele>12.4</ele>
        <time>2023-11-22T13:16:44Z</time>
      </trkpt>
      <trkpt lat="49.24414" lon="-0.0989">
        <ele>12.3</ele>
        <time>2023-11-22T13:16:45Z</time>
      </trkpt>
      <trkpt lat="49.24411" lon="-0.0988">
        <ele>12.2</ele>
        <time>2023-11-22T13:16:46Z</time>
      </trkpt>
      <trkpt lat="49.24409" lon="-0.09869">
        <ele>12.1</ele>
        <time>2023-11-22T13:16:47Z</time>
      </trkpt>
      <trkpt lat="49.24406" lon="-0.09858">
        <ele>11.9</ele>
        <time>2023-11-22T13:16:48Z</time>
      </trkpt>
      <trkpt lat="49.24404" lon="-0.09847">
        <ele>11.8</ele>
        <time>2023-11-22T13:16:49Z</time>
      </trkpt>
      <trkpt lat="49.24401" lon="-0.09836">
        <ele>11.6</ele>
        <time>2023-11-22T13:16:50Z</time>
      </trkpt>
      <trkpt lat="49.24398" lon="-0.09825">
        <ele>11.4</ele>
        <time>2023-11-22T13:16:51Z</time>
      </trkpt>
      <trkpt lat="49.24395" lon="-0.09813">
        <ele>11.2</ele>
        <time>2023-11-22T13:16:52Z</time>
      </trkpt>
      <trkpt lat="49.24392" lon="-0.09802">
        <ele>11</ele>
        <time>2023-11-22T13:16:53Z</time>
      </trkpt>
      <trkpt lat="49.24388" lon="-0.09791">
        <ele>10.8</ele>
        <time>2023-11-22T13:16:54Z</time>
      </trkpt>
      <trkpt lat="49.24384" lon="-0.09781">
        <ele>10.5</ele>
        <time>2023-11-22T13:16:55Z</time>
      </trkpt>
      <trkpt lat="49.24379" lon="-0.0977">
        <ele>10.2</ele>
        <time>2023-11-22T13:16:56Z</time>
      </trkpt>
      <trkpt lat="49.24373" lon="-0.09761">
        <ele>10</ele>
        <time>2023-11-22T13:16:57Z</time>
      </trkpt>
      <trkpt lat="49.24367" lon="-0.09752">
        <ele>9.7</ele>
        <time>2023-11-22T13:16:58Z</time>
      </trkpt>
      <trkpt lat="49.2436" lon="-0.09743">
        <ele>9.4</ele>
        <time>2023-11-22T13:16:59Z</time>
      </trkpt>
      <trkpt lat="49.24354" lon="-0.09735">
        <ele>9.1</ele>
        <time>2023-11-22T13:17:00Z</time>
      </trkpt>
      <trkpt lat="49.24346" lon="-0.09727">
        <ele>8.9</ele>
        <time>2023-11-22T13:17:01Z</time>
      </trkpt>
      <trkpt lat="49.24339" lon="-0.09719">
        <ele>8.6</ele>
        <time>2023-11-22T13:17:02Z</time>
      </trkpt>
      <trkpt lat="49.24332" lon="-0.09711">
        <ele>8.4</ele>
        <time>2023-11-22T13:17:03Z</time>
      </trkpt>
      <trkpt lat="49.24324" lon="-0.09703">
        <ele>8.3</ele>
        <time>2023-11-22T13:17:04Z</time>
      </trkpt>
      <trkpt lat="49.24317" lon="-0.09695">
        <ele>8.1</ele>
        <time>2023-11-22T13:17:05Z</time>
      </trkpt>
      <trkpt lat="49.2431" lon="-0.09688">
        <ele>8.1</ele>
        <time>2023-11-22T13:17:06Z</time>
      </trkpt>
      <trkpt lat="49.24303" lon="-0.0968">
        <ele>8</ele>
        <time>2023-11-22T13:17:07Z</time>
      </trkpt>
      <trkpt lat="49.24296" lon="-0.09674">
        <ele>8</ele>
        <time>2023-11-22T13:17:08Z</time>
      </trkpt>
      <trkpt lat="49.24289" lon="-0.09667">
        <ele>8</ele>
        <time>2023-11-22T13:17:09Z</time>
      </trkpt>
      <trkpt lat="49.24283" lon="-0.0966">
        <ele>8</ele>
        <time>2023-11-22T13:17:10Z</time>
      </trkpt>
      <trkpt lat="49.24277" lon="-0.09654">
        <ele>8</ele>
        <time>2023-11-22T13:17:11Z</time>
      </trkpt>
      <trkpt lat="49.24272" lon="-0.09649">
        <ele>8.1</ele>
        <time>2023-11-22T13:17:12Z</time>
      </trkpt>
      <trkpt lat="49.24267" lon="-0.09643">
        <ele>8.1</ele>
        <time>2023-11-22T13:17:13Z</time>
      </trkpt>
      <trkpt lat="49.24261" lon="-0.09636">
        <ele>8.1</ele>
        <time>2023-11-22T13:17:14Z</time>
      </trkpt>
      <trkpt lat="49.24255" lon="-0.0963">
        <ele>8.2</ele>
        <time>2023-11-22T13:17:15Z</time>
      </trkpt>
      <trkpt lat="49.24249" lon="-0.09624">
        <ele>8.3</ele>
        <time>2023-11-22T13:17:16Z</time>
      </trkpt>
      <trkpt lat="49.24243" lon="-0.09617">
        <ele>8.3</ele>
        <time>2023-11-22T13:17:17Z</time>
      </trkpt>
      <trkpt lat="49.24236" lon="-0.0961">
        <ele>8.4</ele>
        <time>2023-11-22T13:17:18Z</time>
      </trkpt>
      <trkpt lat="49.2423" lon="-0.09602">
        <ele>8.4</ele>
        <time>2023-11-22T13:17:19Z</time>
      </trkpt>
      <trkpt lat="49.24223" lon="-0.09595">
        <ele>8.4</ele>
        <time>2023-11-22T13:17:20Z</time>
      </trkpt>
      <trkpt lat="49.24217" lon="-0.09588">
        <ele>8.4</ele>
        <time>2023-11-22T13:17:21Z</time>
      </trkpt>
      <trkpt lat="49.24211" lon="-0.0958">
        <ele>8.5</ele>
        <time>2023-11-22T13:17:22Z</time>
      </trkpt>
      <trkpt lat="49.24205" lon="-0.09573">
        <ele>8.5</ele>
        <time>2023-11-22T13:17:23Z</time>
      </trkpt>
      <trkpt lat="49.242" lon="-0.09565">
        <ele>8.5</ele>
        <time>2023-11-22T13:17:24Z</time>
      </trkpt>
      <trkpt lat="49.24195" lon="-0.09557">
        <ele>8.5</ele>
        <time>2023-11-22T13:17:25Z</time>
      </trkpt>
      <trkpt lat="49.2419" lon="-0.09548">
        <ele>8.6</ele>
        <time>2023-11-22T13:17:26Z</time>
      </trkpt>
      <trkpt lat="49.24185" lon="-0.09539">
        <ele>8.5</ele>
        <time>2023-11-22T13:17:27Z</time>
      </trkpt>
      <trkpt lat="49.24181" lon="-0.0953">
        <ele>8.5</ele>
        <time>2023-11-22T13:17:28Z</time>
      </trkpt>
      <trkpt lat="49.24177" lon="-0.0952">
        <ele>8.5</ele>
        <time>2023-11-22T13:17:29Z</time>
      </trkpt>
      <trkpt lat="49.24173" lon="-0.09509">
        <ele>8.4</ele>
        <time>2023-11-22T13:17:30Z</time>
      </trkpt>
      <trkpt lat="49.24169" lon="-0.09499">
        <ele>8.4</ele>
        <time>2023-11-22T13:17:31Z</time>
      </trkpt>
      <trkpt lat="49.24166" lon="-0.09488">
        <ele>8.3</ele>
        <time>2023-11-22T13:17:32Z</time>
      </trkpt>
      <trkpt lat="49.24163" lon="-0.09477">
        <ele>8.2</ele>
        <time>2023-11-22T13:17:33Z</time>
      </trkpt>
      <trkpt lat="49.24161" lon="-0.09465">
        <ele>8.1</ele>
        <time>2023-11-22T13:17:34Z</time>
      </trkpt>
      <trkpt lat="49.24159" lon="-0.09453">
        <ele>8</ele>
        <time>2023-11-22T13:17:35Z</time>
      </trkpt>
      <trkpt lat="49.24157" lon="-0.09441">
        <ele>7.9</ele>
        <time>2023-11-22T13:17:36Z</time>
      </trkpt>
      <trkpt lat="49.24155" lon="-0.09428">
        <ele>7.9</ele>
        <time>2023-11-22T13:17:37Z</time>
      </trkpt>
      <trkpt lat="49.24154" lon="-0.09416">
        <ele>7.8</ele>
        <time>2023-11-22T13:17:38Z</time>
      </trkpt>
      <trkpt lat="49.24153" lon="-0.09404">
        <ele>7.8</ele>
        <time>2023-11-22T13:17:39Z</time>
      </trkpt>
      <trkpt lat="49.24151" lon="-0.09392">
        <ele>7.7</ele>
        <time>2023-11-22T13:17:40Z</time>
      </trkpt>
      <trkpt lat="49.24149" lon="-0.0938">
        <ele>7.7</ele>
        <time>2023-11-22T13:17:41Z</time>
      </trkpt>
      <trkpt lat="49.24148" lon="-0.09369">
        <ele>7.7</ele>
        <time>2023-11-22T13:17:42Z</time>
      </trkpt>
      <trkpt lat="49.24147" lon="-0.09357">
        <ele>7.6</ele>
        <time>2023-11-22T13:17:43Z</time>
      </trkpt>
      <trkpt lat="49.24145" lon="-0.09346">
        <ele>7.6</ele>
        <time>2023-11-22T13:17:44Z</time>
      </trkpt>
      <trkpt lat="49.24144" lon="-0.09335">
        <ele>7.5</ele>
        <time>2023-11-22T13:17:45Z</time>
      </trkpt>
      <trkpt lat="49.24142" lon="-0.09323">
        <ele>7.5</ele>
        <time>2023-11-22T13:17:46Z</time>
      </trkpt>
      <trkpt lat="49.24141" lon="-0.09312">
        <ele>7.4</ele>
        <time>2023-11-22T13:17:47Z</time>
      </trkpt>
      <trkpt lat="49.2414" lon="-0.09301">
        <ele>7.4</ele>
        <time>2023-11-22T13:17:48Z</time>
      </trkpt>
      <trkpt lat="49.24138" lon="-0.0929">
        <ele>7.4</ele>
        <time>2023-11-22T13:17:49Z</time>
      </trkpt>
      <trkpt lat="49.24137" lon="-0.09278">
        <ele>7.3</ele>
        <time>2023-11-22T13:17:50Z</time>
      </trkpt>
      <trkpt lat="49.24135" lon="-0.09266">
        <ele>7.3</ele>
        <time>2023-11-22T13:17:51Z</time>
      </trkpt>
      <trkpt lat="49.24134" lon="-0.09255">
        <ele>7.3</ele>
        <time>2023-11-22T13:17:52Z</time>
      </trkpt>
      <trkpt lat="49.24133" lon="-0.09244">
        <ele>7.3</ele>
        <time>2023-11-22T13:17:53Z</time>
      </trkpt>
      <trkpt lat="49.24131" lon="-0.09233">
        <ele>7.3</ele>
        <time>2023-11-22T13:17:54Z</time>
      </trkpt>
      <trkpt lat="49.2413" lon="-0.09222">
        <ele>7.3</ele>
        <time>2023-11-22T13:17:55Z</time>
      </trkpt>
      <trkpt lat="49.24128" lon="-0.09211">
        <ele>7.2</ele>
        <time>2023-11-22T13:17:56Z</time>
      </trkpt>
      <trkpt lat="49.24126" lon="-0.092">
        <ele>7.2</ele>
        <time>2023-11-22T13:17:57Z</time>
      </trkpt>
      <trkpt lat="49.24124" lon="-0.09189">
        <ele>7.2</ele>
        <time>2023-11-22T13:17:58Z</time>
      </trkpt>
      <trkpt lat="49.24122" lon="-0.09178">
        <ele>7.2</ele>
        <time>2023-11-22T13:17:59Z</time>
      </trkpt>
      <trkpt lat="49.24119" lon="-0.09167">
        <ele>7.1</ele>
        <time>2023-11-22T13:18:00Z</time>
      </trkpt>
      <trkpt lat="49.24116" lon="-0.09157">
        <ele>7.1</ele>
        <time>2023-11-22T13:18:01Z</time>
      </trkpt>
      <trkpt lat="49.24113" lon="-0.09147">
        <ele>7.1</ele>
        <time>2023-11-22T13:18:02Z</time>
      </trkpt>
      <trkpt lat="49.2411" lon="-0.09137">
        <ele>7.1</ele>
        <time>2023-11-22T13:18:03Z</time>
      </trkpt>
      <trkpt lat="49.24107" lon="-0.09126">
        <ele>7.1</ele>
        <time>2023-11-22T13:18:04Z</time>
      </trkpt>
      <trkpt lat="49.24104" lon="-0.09116">
        <ele>7.1</ele>
        <time>2023-11-22T13:18:05Z</time>
      </trkpt>
      <trkpt lat="49.24101" lon="-0.09107">
        <ele>7.1</ele>
        <time>2023-11-22T13:18:06Z</time>
      </trkpt>
      <trkpt lat="49.24098" lon="-0.09097">
        <ele>7.1</ele>
        <time>2023-11-22T13:18:07Z</time>
      </trkpt>
      <trkpt lat="49.24095" lon="-0.09087">
        <ele>7.1</ele>
        <time>2023-11-22T13:18:08Z</time>
      </trkpt>
      <trkpt lat="49.24091" lon="-0.09078">
        <ele>7.1</ele>
        <time>2023-11-22T13:18:09Z</time>
      </trkpt>
      <trkpt lat="49.24088" lon="-0.09069">
        <ele>7.1</ele>
        <time>2023-11-22T13:18:10Z</time>
      </trkpt>
      <trkpt lat="49.24083" lon="-0.09061">
        <ele>7.1</ele>
        <time>2023-11-22T13:18:11Z</time>
      </trkpt>
      <trkpt lat="49.24077" lon="-0.09054">
        <ele>7.1</ele>
        <time>2023-11-22T13:18:12Z</time>
      </trkpt>
      <trkpt lat="49.24071" lon="-0.09048">
        <ele>7.1</ele>
        <time>2023-11-22T13:18:13Z</time>
      </trkpt>
      <trkpt lat="49.24064" lon="-0.09042">
        <ele>7.1</ele>
        <time>2023-11-22T13:18:14Z</time>
      </trkpt>
      <trkpt lat="49.24057" lon="-0.09037">
        <ele>7.1</ele>
        <time>2023-11-22T13:18:15Z</time>
      </trkpt>
      <trkpt lat="49.2405" lon="-0.09033">
        <ele>7.1</ele>
        <time>2023-11-22T13:18:16Z</time>
      </trkpt>
      <trkpt lat="49.24043" lon="-0.09029">
        <ele>7.1</ele>
        <time>2023-11-22T13:18:17Z</time>
      </trkpt>
      <trkpt lat="49.24035" lon="-0.09025">
        <ele>7.1</ele>
        <time>2023-11-22T13:18:18Z</time>
      </trkpt>
      <trkpt lat="49.24028" lon="-0.0902">
        <ele>7.1</ele>
        <time>2023-11-22T13:18:19Z</time>
      </trkpt>
      <trkpt lat="49.24022" lon="-0.09014">
        <ele>7.1</ele>
        <time>2023-11-22T13:18:20Z</time>
      </trkpt>
      <trkpt lat="49.24015" lon="-0.09008">
        <ele>7.1</ele>
        <time>2023-11-22T13:18:21Z</time>
      </trkpt>
      <trkpt lat="49.24009" lon="-0.09001">
        <ele>7.1</ele>
        <time>2023-11-22T13:18:22Z</time>
      </trkpt>
      <trkpt lat="49.24004" lon="-0.08993">
        <ele>7.1</ele>
        <time>2023-11-22T13:18:23Z</time>
      </trkpt>
      <trkpt lat="49.23998" lon="-0.08985">
        <ele>7.1</ele>
        <time>2023-11-22T13:18:24Z</time>
      </trkpt>
      <trkpt lat="49.23993" lon="-0.08977">
        <ele>7.1</ele>
        <time>2023-11-22T13:18:25Z</time>
      </trkpt>
      <trkpt lat="49.23987" lon="-0.08968">
        <ele>7.1</ele>
        <time>2023-11-22T13:18:26Z</time>
      </trkpt>
      <trkpt lat="49.23982" lon="-0.0896">
        <ele>7.2</ele>
        <time>2023-11-22T13:18:27Z</time>
      </trkpt>
      <trkpt lat="49.23977" lon="-0.08951">
        <ele>7.2</ele>
        <time>2023-11-22T13:18:28Z</time>
      </trkpt>
      <trkpt lat="49.23973" lon="-0.08942">
        <ele>7.2</ele>
        <time>2023-11-22T13:18:29Z</time>
      </trkpt>
      <trkpt lat="49.2397" lon="-0.08932">
        <ele>7.2</ele>
        <time>2023-11-22T13:18:30Z</time>
      </trkpt>
      <trkpt lat="49.23967" lon="-0.08921">
        <ele>7.3</ele>
        <time>2023-11-22T13:18:31Z</time>
      </trkpt>
      <trkpt lat="49.23965" lon="-0.08911">
        <ele>7.3</ele>
        <time>2023-11-22T13:18:32Z</time>
      </trkpt>
      <trkpt lat="49.23963" lon="-0.08899">
        <ele>7.3</ele>
        <time>2023-11-22T13:18:33Z</time>
      </trkpt>
      <trkpt lat="49.23962" lon="-0.08888">
        <ele>7.3</ele>
        <time>2023-11-22T13:18:34Z</time>
      </trkpt>
      <trkpt lat="49.23961" lon="-0.08876">
        <ele>7.3</ele>
        <time>2023-11-22T13:18:35Z</time>
      </trkpt>
      <trkpt lat="49.2396" lon="-0.08865">
        <ele>7.4</ele>
        <time>2023-11-22T13:18:36Z</time>
      </trkpt>
      <trkpt lat="49.23959" lon="-0.08854">
        <ele>7.4</ele>
        <time>2023-11-22T13:18:37Z</time>
      </trkpt>
      <trkpt lat="49.23957" lon="-0.08843">
        <ele>7.4</ele>
        <time>2023-11-22T13:18:38Z</time>
      </trkpt>
      <trkpt lat="49.23956" lon="-0.08834">
        <ele>7.4</ele>
        <time>2023-11-22T13:18:39Z</time>
      </trkpt>
      <trkpt lat="49.23954" lon="-0.08823">
        <ele>7.5</ele>
        <time>2023-11-22T13:18:40Z</time>
      </trkpt>
      <trkpt lat="49.23953" lon="-0.08813">
        <ele>7.5</ele>
        <time>2023-11-22T13:18:41Z</time>
      </trkpt>
      <trkpt lat="49.23951" lon="-0.08803">
        <ele>7.5</ele>
        <time>2023-11-22T13:18:42Z</time>
      </trkpt>
      <trkpt lat="49.23949" lon="-0.08793">
        <ele>7.5</ele>
        <time>2023-11-22T13:18:43Z</time>
      </trkpt>
      <trkpt lat="49.23946" lon="-0.08783">
        <ele>7.5</ele>
        <time>2023-11-22T13:18:44Z</time>
      </trkpt>
      <trkpt lat="49.23944" lon="-0.08772">
        <ele>7.5</ele>
        <time>2023-11-22T13:18:45Z</time>
      </trkpt>
      <trkpt lat="49.23941" lon="-0.08762">
        <ele>7.5</ele>
        <time>2023-11-22T13:18:46Z</time>
      </trkpt>
      <trkpt lat="49.23939" lon="-0.08752">
        <ele>7.5</ele>
        <time>2023-11-22T13:18:47Z</time>
      </trkpt>
      <trkpt lat="49.23936" lon="-0.08741">
        <ele>7.5</ele>
        <time>2023-11-22T13:18:48Z</time>
      </trkpt>
      <trkpt lat="49.23934" lon="-0.0873">
        <ele>7.5</ele>
        <time>2023-11-22T13:18:49Z</time>
      </trkpt>
      <trkpt lat="49.23931" lon="-0.08719">
        <ele>7.5</ele>
        <time>2023-11-22T13:18:50Z</time>
      </trkpt>
      <trkpt lat="49.23929" lon="-0.08708">
        <ele>7.5</ele>
        <time>2023-11-22T13:18:51Z</time>
      </trkpt>
      <trkpt lat="49.23927" lon="-0.08696">
        <ele>7.5</ele>
        <time>2023-11-22T13:18:52Z</time>
      </trkpt>
      <trkpt lat="49.23925" lon="-0.08685">
        <ele>7.5</ele>
        <time>2023-11-22T13:18:53Z</time>
      </trkpt>
      <trkpt lat="49.23924" lon="-0.08674">
        <ele>7.6</ele>
        <time>2023-11-22T13:18:54Z</time>
      </trkpt>
      <trkpt lat="49.23922" lon="-0.08663">
        <ele>7.6</ele>
        <time>2023-11-22T13:18:55Z</time>
      </trkpt>
      <trkpt lat="49.23921" lon="-0.08652">
        <ele>7.6</ele>
        <time>2023-11-22T13:18:56Z</time>
      </trkpt>
      <trkpt lat="49.2392" lon="-0.08641">
        <ele>7.6</ele>
        <time>2023-11-22T13:18:57Z</time>
      </trkpt>
      <trkpt lat="49.23919" lon="-0.0863">
        <ele>7.6</ele>
        <time>2023-11-22T13:18:58Z</time>
      </trkpt>
      <trkpt lat="49.23918" lon="-0.08619">
        <ele>7.6</ele>
        <time>2023-11-22T13:18:59Z</time>
      </trkpt>
      <trkpt lat="49.23917" lon="-0.08608">
        <ele>7.6</ele>
        <time>2023-11-22T13:19:00Z</time>
      </trkpt>
      <trkpt lat="49.23915" lon="-0.08597">
        <ele>7.6</ele>
        <time>2023-11-22T13:19:01Z</time>
      </trkpt>
      <trkpt lat="49.23913" lon="-0.08587">
        <ele>7.6</ele>
        <time>2023-11-22T13:19:02Z</time>
      </trkpt>
      <trkpt lat="49.23911" lon="-0.08577">
        <ele>7.6</ele>
        <time>2023-11-22T13:19:03Z</time>
      </trkpt>
      <trkpt lat="49.23909" lon="-0.08566">
        <ele>7.7</ele>
        <time>2023-11-22T13:19:04Z</time>
      </trkpt>
      <trkpt lat="49.23906" lon="-0.08555">
        <ele>7.7</ele>
        <time>2023-11-22T13:19:05Z</time>
      </trkpt>
      <trkpt lat="49.23903" lon="-0.08545">
        <ele>7.6</ele>
        <time>2023-11-22T13:19:06Z</time>
      </trkpt>
      <trkpt lat="49.239" lon="-0.08534">
        <ele>7.6</ele>
        <time>2023-11-22T13:19:07Z</time>
      </trkpt>
      <trkpt lat="49.23896" lon="-0.08524">
        <ele>7.6</ele>
        <time>2023-11-22T13:19:08Z</time>
      </trkpt>
      <trkpt lat="49.23893" lon="-0.08514">
        <ele>7.6</ele>
        <time>2023-11-22T13:19:09Z</time>
      </trkpt>
      <trkpt lat="49.2389" lon="-0.08504">
        <ele>7.6</ele>
        <time>2023-11-22T13:19:10Z</time>
      </trkpt>
      <trkpt lat="49.23887" lon="-0.08493">
        <ele>7.6</ele>
        <time>2023-11-22T13:19:11Z</time>
      </trkpt>
      <trkpt lat="49.23885" lon="-0.08483">
        <ele>7.6</ele>
        <time>2023-11-22T13:19:12Z</time>
      </trkpt>
      <trkpt lat="49.23882" lon="-0.08471">
        <ele>7.6</ele>
        <time>2023-11-22T13:19:13Z</time>
      </trkpt>
      <trkpt lat="49.2388" lon="-0.0846">
        <ele>7.6</ele>
        <time>2023-11-22T13:19:14Z</time>
      </trkpt>
      <trkpt lat="49.23879" lon="-0.08448">
        <ele>7.6</ele>
        <time>2023-11-22T13:19:15Z</time>
      </trkpt>
      <trkpt lat="49.23877" lon="-0.08437">
        <ele>7.7</ele>
        <time>2023-11-22T13:19:16Z</time>
      </trkpt>
      <trkpt lat="49.23876" lon="-0.08425">
        <ele>7.7</ele>
        <time>2023-11-22T13:19:17Z</time>
      </trkpt>
      <trkpt lat="49.23876" lon="-0.08413">
        <ele>7.7</ele>
        <time>2023-11-22T13:19:18Z</time>
      </trkpt>
      <trkpt lat="49.23876" lon="-0.08401">
        <ele>7.7</ele>
        <time>2023-11-22T13:19:19Z</time>
      </trkpt>
      <trkpt lat="49.23877" lon="-0.0839">
        <ele>7.7</ele>
        <time>2023-11-22T13:19:20Z</time>
      </trkpt>
      <trkpt lat="49.23878" lon="-0.08378">
        <ele>7.7</ele>
        <time>2023-11-22T13:19:21Z</time>
      </trkpt>
      <trkpt lat="49.23878" lon="-0.08368">
        <ele>7.7</ele>
        <time>2023-11-22T13:19:22Z</time>
      </trkpt>
      <trkpt lat="49.23879" lon="-0.08357">
        <ele>7.7</ele>
        <time>2023-11-22T13:19:23Z</time>
      </trkpt>
      <trkpt lat="49.2388" lon="-0.08345">
        <ele>7.8</ele>
        <time>2023-11-22T13:19:24Z</time>
      </trkpt>
      <trkpt lat="49.2388" lon="-0.08335">
        <ele>7.9</ele>
        <time>2023-11-22T13:19:25Z</time>
      </trkpt>
      <trkpt lat="49.23879" lon="-0.08324">
        <ele>7.9</ele>
        <time>2023-11-22T13:19:26Z</time>
      </trkpt>
      <trkpt lat="49.23879" lon="-0.08312">
        <ele>8</ele>
        <time>2023-11-22T13:19:27Z</time>
      </trkpt>
      <trkpt lat="49.23878" lon="-0.08301">
        <ele>8.1</ele>
        <time>2023-11-22T13:19:28Z</time>
      </trkpt>
      <trkpt lat="49.23877" lon="-0.08291">
        <ele>8.1</ele>
        <time>2023-11-22T13:19:29Z</time>
      </trkpt>
      <trkpt lat="49.23875" lon="-0.08281">
        <ele>8.2</ele>
        <time>2023-11-22T13:19:30Z</time>
      </trkpt>
      <trkpt lat="49.23873" lon="-0.08272">
        <ele>8.2</ele>
        <time>2023-11-22T13:19:31Z</time>
      </trkpt>
      <trkpt lat="49.2387" lon="-0.08263">
        <ele>8.2</ele>
        <time>2023-11-22T13:19:32Z</time>
      </trkpt>
      <trkpt lat="49.23866" lon="-0.08256">
        <ele>8.2</ele>
        <time>2023-11-22T13:19:33Z</time>
      </trkpt>
      <trkpt lat="49.23861" lon="-0.08248">
        <ele>8.2</ele>
        <time>2023-11-22T13:19:34Z</time>
      </trkpt>
      <trkpt lat="49.23856" lon="-0.08241">
        <ele>8.1</ele>
        <time>2023-11-22T13:19:35Z</time>
      </trkpt>
      <trkpt lat="49.2385" lon="-0.08233">
        <ele>7.9</ele>
        <time>2023-11-22T13:19:36Z</time>
      </trkpt>
      <trkpt lat="49.23844" lon="-0.08226">
        <ele>7.7</ele>
        <time>2023-11-22T13:19:37Z</time>
      </trkpt>
      <trkpt lat="49.23839" lon="-0.08217">
        <ele>7.5</ele>
        <time>2023-11-22T13:19:38Z</time>
      </trkpt>
      <trkpt lat="49.23833" lon="-0.08209">
        <ele>7.4</ele>
        <time>2023-11-22T13:19:39Z</time>
      </trkpt>
      <trkpt lat="49.23826" lon="-0.082">
        <ele>7.2</ele>
        <time>2023-11-22T13:19:40Z</time>
      </trkpt>
      <trkpt lat="49.2382" lon="-0.08191">
        <ele>7.1</ele>
        <time>2023-11-22T13:19:41Z</time>
      </trkpt>
      <trkpt lat="49.23814" lon="-0.08182">
        <ele>6.9</ele>
        <time>2023-11-22T13:19:42Z</time>
      </trkpt>
      <trkpt lat="49.23807" lon="-0.08173">
        <ele>6.8</ele>
        <time>2023-11-22T13:19:43Z</time>
      </trkpt>
      <trkpt lat="49.238" lon="-0.08164">
        <ele>6.7</ele>
        <time>2023-11-22T13:19:44Z</time>
      </trkpt>
      <trkpt lat="49.23793" lon="-0.08156">
        <ele>6.6</ele>
        <time>2023-11-22T13:19:45Z</time>
      </trkpt>
      <trkpt lat="49.23786" lon="-0.08148">
        <ele>6.5</ele>
        <time>2023-11-22T13:19:46Z</time>
      </trkpt>
      <trkpt lat="49.2378" lon="-0.0814">
        <ele>6.4</ele>
        <time>2023-11-22T13:19:47Z</time>
      </trkpt>
      <trkpt lat="49.23773" lon="-0.08133">
        <ele>6.3</ele>
        <time>2023-11-22T13:19:48Z</time>
      </trkpt>
      <trkpt lat="49.23767" lon="-0.08127">
        <ele>6.3</ele>
        <time>2023-11-22T13:19:49Z</time>
      </trkpt>
      <trkpt lat="49.23762" lon="-0.0812">
        <ele>6.3</ele>
        <time>2023-11-22T13:19:50Z</time>
      </trkpt>
      <trkpt lat="49.23756" lon="-0.08114">
        <ele>6.2</ele>
        <time>2023-11-22T13:19:51Z</time>
      </trkpt>
      <trkpt lat="49.2375" lon="-0.08108">
        <ele>6.2</ele>
        <time>2023-11-22T13:19:52Z</time>
      </trkpt>
      <trkpt lat="49.23745" lon="-0.08102">
        <ele>6.2</ele>
        <time>2023-11-22T13:19:53Z</time>
      </trkpt>
      <trkpt lat="49.23739" lon="-0.08096">
        <ele>6.1</ele>
        <time>2023-11-22T13:19:54Z</time>
      </trkpt>
      <trkpt lat="49.23733" lon="-0.08089">
        <ele>6.2</ele>
        <time>2023-11-22T13:19:55Z</time>
      </trkpt>
      <trkpt lat="49.23728" lon="-0.08083">
        <ele>6.2</ele>
        <time>2023-11-22T13:19:56Z</time>
      </trkpt>
      <trkpt lat="49.23722" lon="-0.08075">
        <ele>6.2</ele>
        <time>2023-11-22T13:19:57Z</time>
      </trkpt>
      <trkpt lat="49.23717" lon="-0.08066">
        <ele>6.3</ele>
        <time>2023-11-22T13:19:58Z</time>
      </trkpt>
      <trkpt lat="49.23714" lon="-0.08056">
        <ele>6.3</ele>
        <time>2023-11-22T13:19:59Z</time>
      </trkpt>
      <trkpt lat="49.23712" lon="-0.08045">
        <ele>6.4</ele>
        <time>2023-11-22T13:20:00Z</time>
      </trkpt>
      <trkpt lat="49.23711" lon="-0.08033">
        <ele>6.4</ele>
        <time>2023-11-22T13:20:01Z</time>
      </trkpt>
      <trkpt lat="49.23712" lon="-0.08021">
        <ele>6.4</ele>
        <time>2023-11-22T13:20:02Z</time>
      </trkpt>
      <trkpt lat="49.23713" lon="-0.08009">
        <ele>6.4</ele>
        <time>2023-11-22T13:20:03Z</time>
      </trkpt>
      <trkpt lat="49.23714" lon="-0.07998">
        <ele>6.4</ele>
        <time>2023-11-22T13:20:04Z</time>
      </trkpt>
      <trkpt lat="49.23716" lon="-0.07986">
        <ele>6.5</ele>
        <time>2023-11-22T13:20:05Z</time>
      </trkpt>
      <trkpt lat="49.23717" lon="-0.07975">
        <ele>6.5</ele>
        <time>2023-11-22T13:20:06Z</time>
      </trkpt>
      <trkpt lat="49.23718" lon="-0.07964">
        <ele>6.5</ele>
        <time>2023-11-22T13:20:07Z</time>
      </trkpt>
      <trkpt lat="49.23719" lon="-0.07953">
        <ele>6.6</ele>
        <time>2023-11-22T13:20:08Z</time>
      </trkpt>
      <trkpt lat="49.23721" lon="-0.07941">
        <ele>6.6</ele>
        <time>2023-11-22T13:20:09Z</time>
      </trkpt>
      <trkpt lat="49.23722" lon="-0.07929">
        <ele>6.6</ele>
        <time>2023-11-22T13:20:10Z</time>
      </trkpt>
      <trkpt lat="49.23723" lon="-0.07917">
        <ele>6.6</ele>
        <time>2023-11-22T13:20:11Z</time>
      </trkpt>
      <trkpt lat="49.23725" lon="-0.07906">
        <ele>6.6</ele>
        <time>2023-11-22T13:20:12Z</time>
      </trkpt>
      <trkpt lat="49.23727" lon="-0.07894">
        <ele>6.7</ele>
        <time>2023-11-22T13:20:13Z</time>
      </trkpt>
      <trkpt lat="49.23728" lon="-0.07883">
        <ele>6.8</ele>
        <time>2023-11-22T13:20:14Z</time>
      </trkpt>
      <trkpt lat="49.2373" lon="-0.07872">
        <ele>6.8</ele>
        <time>2023-11-22T13:20:15Z</time>
      </trkpt>
      <trkpt lat="49.2373" lon="-0.07862">
        <ele>6.9</ele>
        <time>2023-11-22T13:20:16Z</time>
      </trkpt>
      <trkpt lat="49.23731" lon="-0.07851">
        <ele>6.9</ele>
        <time>2023-11-22T13:20:17Z</time>
      </trkpt>
      <trkpt lat="49.23732" lon="-0.0784">
        <ele>6.9</ele>
        <time>2023-11-22T13:20:18Z</time>
      </trkpt>
      <trkpt lat="49.23731" lon="-0.07828">
        <ele>7</ele>
        <time>2023-11-22T13:20:19Z</time>
      </trkpt>
      <trkpt lat="49.2373" lon="-0.07817">
        <ele>7</ele>
        <time>2023-11-22T13:20:20Z</time>
      </trkpt>
      <trkpt lat="49.23728" lon="-0.07805">
        <ele>7</ele>
        <time>2023-11-22T13:20:21Z</time>
      </trkpt>
      <trkpt lat="49.23726" lon="-0.07795">
        <ele>7.1</ele>
        <time>2023-11-22T13:20:22Z</time>
      </trkpt>
      <trkpt lat="49.23723" lon="-0.07786">
        <ele>7.1</ele>
        <time>2023-11-22T13:20:23Z</time>
      </trkpt>
      <trkpt lat="49.2372" lon="-0.07776">
        <ele>7.2</ele>
        <time>2023-11-22T13:20:24Z</time>
      </trkpt>
      <trkpt lat="49.23718" lon="-0.07767">
        <ele>7.2</ele>
        <time>2023-11-22T13:20:25Z</time>
      </trkpt>
      <trkpt lat="49.23715" lon="-0.07758">
        <ele>7.2</ele>
        <time>2023-11-22T13:20:26Z</time>
      </trkpt>
      <trkpt lat="49.23713" lon="-0.07749">
        <ele>7.2</ele>
        <time>2023-11-22T13:20:27Z</time>
      </trkpt>
      <trkpt lat="49.23711" lon="-0.07741">
        <ele>7.2</ele>
        <time>2023-11-22T13:20:28Z</time>
      </trkpt>
      <trkpt lat="49.23709" lon="-0.07731">
        <ele>7.2</ele>
        <time>2023-11-22T13:20:29Z</time>
      </trkpt>
      <trkpt lat="49.23708" lon="-0.07722">
        <ele>7.3</ele>
        <time>2023-11-22T13:20:30Z</time>
      </trkpt>
      <trkpt lat="49.23708" lon="-0.07714">
        <ele>7.3</ele>
        <time>2023-11-22T13:20:31Z</time>
      </trkpt>
      <trkpt lat="49.23708" lon="-0.07707">
        <ele>7.3</ele>
        <time>2023-11-22T13:20:32Z</time>
      </trkpt>
      <trkpt lat="49.23708" lon="-0.07701">
        <ele>7.3</ele>
        <time>2023-11-22T13:20:33Z</time>
      </trkpt>
      <trkpt lat="49.23708" lon="-0.07695">
        <ele>7.3</ele>
        <time>2023-11-22T13:20:34Z</time>
      </trkpt>
      <trkpt lat="49.23708" lon="-0.07689">
        <ele>7.3</ele>
        <time>2023-11-22T13:20:35Z</time>
      </trkpt>
      <trkpt lat="49.23708" lon="-0.07684">
        <ele>7.3</ele>
        <time>2023-11-22T13:20:36Z</time>
      </trkpt>
      <trkpt lat="49.23708" lon="-0.07679">
        <ele>7.3</ele>
        <time>2023-11-22T13:20:37Z</time>
      </trkpt>
      <trkpt lat="49.23709" lon="-0.07674">
        <ele>7.3</ele>
        <time>2023-11-22T13:20:38Z</time>
      </trkpt>
      <trkpt lat="49.23709" lon="-0.07669">
        <ele>7.3</ele>
        <time>2023-11-22T13:20:39Z</time>
      </trkpt>
      <trkpt lat="49.23709" lon="-0.07664">
        <ele>7.3</ele>
        <time>2023-11-22T13:20:40Z</time>
      </trkpt>
      <trkpt lat="49.23709" lon="-0.07659">
        <ele>7.3</ele>
        <time>2023-11-22T13:20:41Z</time>
      </trkpt>
      <trkpt lat="49.2371" lon="-0.07654">
        <ele>7.3</ele>
        <time>2023-11-22T13:20:42Z</time>
      </trkpt>
      <trkpt lat="49.2371" lon="-0.07649">
        <ele>7.3</ele>
        <time>2023-11-22T13:20:43Z</time>
      </trkpt>
      <trkpt lat="49.2371" lon="-0.07643">
        <ele>7.4</ele>
        <time>2023-11-22T13:20:44Z</time>
      </trkpt>
      <trkpt lat="49.23711" lon="-0.07637">
        <ele>7.4</ele>
        <time>2023-11-22T13:20:45Z</time>
      </trkpt>
      <trkpt lat="49.23712" lon="-0.0763">
        <ele>7.4</ele>
        <time>2023-11-22T13:20:46Z</time>
      </trkpt>
      <trkpt lat="49.23713" lon="-0.07622">
        <ele>7.4</ele>
        <time>2023-11-22T13:20:47Z</time>
      </trkpt>
      <trkpt lat="49.23713" lon="-0.07613">
        <ele>7.4</ele>
        <time>2023-11-22T13:20:48Z</time>
      </trkpt>
      <trkpt lat="49.23712" lon="-0.07604">
        <ele>7.4</ele>
        <time>2023-11-22T13:20:49Z</time>
      </trkpt>
      <trkpt lat="49.23712" lon="-0.07595">
        <ele>7.5</ele>
        <time>2023-11-22T13:20:50Z</time>
      </trkpt>
      <trkpt lat="49.23712" lon="-0.07585">
        <ele>7.5</ele>
        <time>2023-11-22T13:20:51Z</time>
      </trkpt>
      <trkpt lat="49.2371" lon="-0.07574">
        <ele>7.5</ele>
        <time>2023-11-22T13:20:52Z</time>
      </trkpt>
      <trkpt lat="49.2371" lon="-0.07564">
        <ele>7.5</ele>
        <time>2023-11-22T13:20:53Z</time>
      </trkpt>
      <trkpt lat="49.2371" lon="-0.07553">
        <ele>7.5</ele>
        <time>2023-11-22T13:20:54Z</time>
      </trkpt>
      <trkpt lat="49.2371" lon="-0.07541">
        <ele>7.5</ele>
        <time>2023-11-22T13:20:55Z</time>
      </trkpt>
      <trkpt lat="49.2371" lon="-0.07529">
        <ele>7.5</ele>
        <time>2023-11-22T13:20:56Z</time>
      </trkpt>
      <trkpt lat="49.23712" lon="-0.07517">
        <ele>7.5</ele>
        <time>2023-11-22T13:20:57Z</time>
      </trkpt>
      <trkpt lat="49.23713" lon="-0.07506">
        <ele>7.5</ele>
        <time>2023-11-22T13:20:58Z</time>
      </trkpt>
      <trkpt lat="49.23715" lon="-0.07495">
        <ele>7.5</ele>
        <time>2023-11-22T13:20:59Z</time>
      </trkpt>
      <trkpt lat="49.23716" lon="-0.07483">
        <ele>7.5</ele>
        <time>2023-11-22T13:21:00Z</time>
      </trkpt>
      <trkpt lat="49.23717" lon="-0.07472">
        <ele>7.5</ele>
        <time>2023-11-22T13:21:01Z</time>
      </trkpt>
      <trkpt lat="49.23718" lon="-0.0746">
        <ele>7.6</ele>
        <time>2023-11-22T13:21:02Z</time>
      </trkpt>
      <trkpt lat="49.23718" lon="-0.0745">
        <ele>7.6</ele>
        <time>2023-11-22T13:21:03Z</time>
      </trkpt>
      <trkpt lat="49.23717" lon="-0.07439">
        <ele>7.6</ele>
        <time>2023-11-22T13:21:04Z</time>
      </trkpt>
      <trkpt lat="49.23716" lon="-0.07429">
        <ele>7.6</ele>
        <time>2023-11-22T13:21:05Z</time>
      </trkpt>
      <trkpt lat="49.23715" lon="-0.07418">
        <ele>7.6</ele>
        <time>2023-11-22T13:21:06Z</time>
      </trkpt>
      <trkpt lat="49.23714" lon="-0.07407">
        <ele>7.6</ele>
        <time>2023-11-22T13:21:07Z</time>
      </trkpt>
      <trkpt lat="49.23713" lon="-0.07396">
        <ele>7.6</ele>
        <time>2023-11-22T13:21:08Z</time>
      </trkpt>
      <trkpt lat="49.23712" lon="-0.07385">
        <ele>7.5</ele>
        <time>2023-11-22T13:21:09Z</time>
      </trkpt>
      <trkpt lat="49.23711" lon="-0.07374">
        <ele>7.5</ele>
        <time>2023-11-22T13:21:10Z</time>
      </trkpt>
      <trkpt lat="49.2371" lon="-0.07362">
        <ele>7.5</ele>
        <time>2023-11-22T13:21:11Z</time>
      </trkpt>
      <trkpt lat="49.23708" lon="-0.07351">
        <ele>7.5</ele>
        <time>2023-11-22T13:21:12Z</time>
      </trkpt>
      <trkpt lat="49.23707" lon="-0.0734">
        <ele>7.5</ele>
        <time>2023-11-22T13:21:13Z</time>
      </trkpt>
      <trkpt lat="49.23705" lon="-0.07329">
        <ele>7.5</ele>
        <time>2023-11-22T13:21:14Z</time>
      </trkpt>
      <trkpt lat="49.23703" lon="-0.07318">
        <ele>7.5</ele>
        <time>2023-11-22T13:21:15Z</time>
      </trkpt>
      <trkpt lat="49.23701" lon="-0.07308">
        <ele>7.5</ele>
        <time>2023-11-22T13:21:16Z</time>
      </trkpt>
      <trkpt lat="49.23699" lon="-0.07297">
        <ele>7.5</ele>
        <time>2023-11-22T13:21:17Z</time>
      </trkpt>
      <trkpt lat="49.23698" lon="-0.07287">
        <ele>7.5</ele>
        <time>2023-11-22T13:21:18Z</time>
      </trkpt>
      <trkpt lat="49.23697" lon="-0.07276">
        <ele>7.5</ele>
        <time>2023-11-22T13:21:19Z</time>
      </trkpt>
      <trkpt lat="49.23696" lon="-0.07266">
        <ele>7.6</ele>
        <time>2023-11-22T13:21:20Z</time>
      </trkpt>
      <trkpt lat="49.23696" lon="-0.07257">
        <ele>7.6</ele>
        <time>2023-11-22T13:21:21Z</time>
      </trkpt>
      <trkpt lat="49.23695" lon="-0.07247">
        <ele>7.6</ele>
        <time>2023-11-22T13:21:22Z</time>
      </trkpt>
      <trkpt lat="49.23694" lon="-0.07238">
        <ele>7.6</ele>
        <time>2023-11-22T13:21:23Z</time>
      </trkpt>
      <trkpt lat="49.23693" lon="-0.0723">
        <ele>7.6</ele>
        <time>2023-11-22T13:21:24Z</time>
      </trkpt>
      <trkpt lat="49.23692" lon="-0.07224">
        <ele>7.6</ele>
        <time>2023-11-22T13:21:25Z</time>
      </trkpt>
      <trkpt lat="49.23691" lon="-0.07219">
        <ele>7.6</ele>
        <time>2023-11-22T13:21:26Z</time>
      </trkpt>
      <trkpt lat="49.23691" lon="-0.07214">
        <ele>7.6</ele>
        <time>2023-11-22T13:21:27Z</time>
      </trkpt>
      <trkpt lat="49.2369" lon="-0.07209">
        <ele>7.6</ele>
        <time>2023-11-22T13:21:28Z</time>
      </trkpt>
      <trkpt lat="49.2369" lon="-0.07204">
        <ele>7.6</ele>
        <time>2023-11-22T13:21:29Z</time>
      </trkpt>
      <trkpt lat="49.2369" lon="-0.07199">
        <ele>7.6</ele>
        <time>2023-11-22T13:21:30Z</time>
      </trkpt>
      <trkpt lat="49.23689" lon="-0.07194">
        <ele>7.6</ele>
        <time>2023-11-22T13:21:31Z</time>
      </trkpt>
      <trkpt lat="49.23689" lon="-0.0719">
        <ele>7.6</ele>
        <time>2023-11-22T13:21:32Z</time>
      </trkpt>
      <trkpt lat="49.23688" lon="-0.07185">
        <ele>7.6</ele>
        <time>2023-11-22T13:21:33Z</time>
      </trkpt>
      <trkpt lat="49.23687" lon="-0.0718">
        <ele>7.6</ele>
        <time>2023-11-22T13:21:34Z</time>
      </trkpt>
      <trkpt lat="49.23686" lon="-0.07175">
        <ele>7.6</ele>
        <time>2023-11-22T13:21:35Z</time>
      </trkpt>
      <trkpt lat="49.23686" lon="-0.07173">
        <ele>7.6</ele>
        <time>2023-11-22T13:21:36Z</time>
      </trkpt>
      <trkpt lat="49.23685" lon="-0.07169">
        <ele>7.6</ele>
        <time>2023-11-22T13:21:37Z</time>
      </trkpt>
      <trkpt lat="49.23685" lon="-0.07167">
        <ele>7.6</ele>
        <time>2023-11-22T13:21:38Z</time>
      </trkpt>
      <trkpt lat="49.23685" lon="-0.07164">
        <ele>7.6</ele>
        <time>2023-11-22T13:21:39Z</time>
      </trkpt>
      <trkpt lat="49.23685" lon="-0.07162">
        <ele>7.6</ele>
        <time>2023-11-22T13:21:40Z</time>
      </trkpt>
      <trkpt lat="49.23685" lon="-0.07159">
        <ele>7.6</ele>
        <time>2023-11-22T13:21:41Z</time>
      </trkpt>
      <trkpt lat="49.23684" lon="-0.07157">
        <ele>7.6</ele>
        <time>2023-11-22T13:21:42Z</time>
      </trkpt>
      <trkpt lat="49.23684" lon="-0.07155">
        <ele>7.6</ele>
        <time>2023-11-22T13:21:43Z</time>
      </trkpt>
      <trkpt lat="49.23683" lon="-0.07154">
        <ele>7.6</ele>
        <time>2023-11-22T13:21:44Z</time>
      </trkpt>
      <trkpt lat="49.23683" lon="-0.07153">
        <ele>7.6</ele>
        <time>2023-11-22T13:21:45Z</time>
      </trkpt>
      <trkpt lat="49.23682" lon="-0.07151">
        <ele>7.6</ele>
        <time>2023-11-22T13:21:46Z</time>
      </trkpt>
      <trkpt lat="49.23682" lon="-0.07151">
        <ele>7.6</ele>
        <time>2023-11-22T13:21:47Z</time>
      </trkpt>
      <trkpt lat="49.23681" lon="-0.07151">
        <ele>7.6</ele>
        <time>2023-11-22T13:21:48Z</time>
      </trkpt>
      <trkpt lat="49.23681" lon="-0.0715">
        <ele>7.6</ele>
        <time>2023-11-22T13:21:49Z</time>
      </trkpt>
      <trkpt lat="49.2368" lon="-0.0715">
        <ele>7.6</ele>
        <time>2023-11-22T13:21:50Z</time>
      </trkpt>
      <trkpt lat="49.2368" lon="-0.07149">
        <ele>7.6</ele>
        <time>2023-11-22T13:21:51Z</time>
      </trkpt>
      <trkpt lat="49.2368" lon="-0.07149">
        <ele>7.6</ele>
        <time>2023-11-22T13:21:52Z</time>
      </trkpt>
      <trkpt lat="49.23679" lon="-0.07149">
        <ele>7.6</ele>
        <time>2023-11-22T13:21:53Z</time>
      </trkpt>
      <trkpt lat="49.23679" lon="-0.07148">
        <ele>7.6</ele>
        <time>2023-11-22T13:21:54Z</time>
      </trkpt>
      <trkpt lat="49.23679" lon="-0.07148">
        <ele>7.6</ele>
        <time>2023-11-22T13:21:55Z</time>
      </trkpt>
      <trkpt lat="49.23678" lon="-0.07147">
        <ele>7.6</ele>
        <time>2023-11-22T13:21:56Z</time>
      </trkpt>
      <trkpt lat="49.23678" lon="-0.07147">
        <ele>7.6</ele>
        <time>2023-11-22T13:21:57Z</time>
      </trkpt>
      <trkpt lat="49.23678" lon="-0.07147">
        <ele>7.6</ele>
        <time>2023-11-22T13:22:16Z</time>
      </trkpt>
      <trkpt lat="49.23677" lon="-0.07146">
        <ele>7.6</ele>
        <time>2023-11-22T13:22:17Z</time>
      </trkpt>
      <trkpt lat="49.23677" lon="-0.07146">
        <ele>7.6</ele>
        <time>2023-11-22T13:22:18Z</time>
      </trkpt>
      <trkpt lat="49.23674" lon="-0.07144">
        <ele>7.6</ele>
        <time>2023-11-22T13:22:19Z</time>
      </trkpt>
      <trkpt lat="49.23672" lon="-0.07142">
        <ele>7.6</ele>
        <time>2023-11-22T13:22:20Z</time>
      </trkpt>
      <trkpt lat="49.23669" lon="-0.07139">
        <ele>7.6</ele>
        <time>2023-11-22T13:22:21Z</time>
      </trkpt>
      <trkpt lat="49.23666" lon="-0.07136">
        <ele>7.5</ele>
        <time>2023-11-22T13:22:22Z</time>
      </trkpt>
      <trkpt lat="49.23664" lon="-0.07132">
        <ele>7.5</ele>
        <time>2023-11-22T13:22:23Z</time>
      </trkpt>
      <trkpt lat="49.23662" lon="-0.07129">
        <ele>7.5</ele>
        <time>2023-11-22T13:22:24Z</time>
      </trkpt>
      <trkpt lat="49.2366" lon="-0.07126">
        <ele>7.5</ele>
        <time>2023-11-22T13:22:25Z</time>
      </trkpt>
      <trkpt lat="49.23658" lon="-0.07121">
        <ele>7.5</ele>
        <time>2023-11-22T13:22:26Z</time>
      </trkpt>
      <trkpt lat="49.23657" lon="-0.0712">
        <ele>7.5</ele>
        <time>2023-11-22T13:22:27Z</time>
      </trkpt>
      <trkpt lat="49.23654" lon="-0.07116">
        <ele>7.5</ele>
        <time>2023-11-22T13:22:28Z</time>
      </trkpt>
      <trkpt lat="49.23653" lon="-0.07115">
        <ele>7.5</ele>
        <time>2023-11-22T13:22:29Z</time>
      </trkpt>
      <trkpt lat="49.23651" lon="-0.07111">
        <ele>7.5</ele>
        <time>2023-11-22T13:22:30Z</time>
      </trkpt>
      <trkpt lat="49.2365" lon="-0.0711">
        <ele>7.5</ele>
        <time>2023-11-22T13:22:31Z</time>
      </trkpt>
      <trkpt lat="49.23647" lon="-0.07107">
        <ele>7.5</ele>
        <time>2023-11-22T13:22:32Z</time>
      </trkpt>
      <trkpt lat="49.23647" lon="-0.07105">
        <ele>7.5</ele>
        <time>2023-11-22T13:22:33Z</time>
      </trkpt>
      <trkpt lat="49.23643" lon="-0.07102">
        <ele>7.5</ele>
        <time>2023-11-22T13:22:34Z</time>
      </trkpt>
      <trkpt lat="49.23642" lon="-0.071">
        <ele>7.5</ele>
        <time>2023-11-22T13:22:35Z</time>
      </trkpt>
      <trkpt lat="49.23639" lon="-0.07097">
        <ele>7.5</ele>
        <time>2023-11-22T13:22:36Z</time>
      </trkpt>
      <trkpt lat="49.23637" lon="-0.07094">
        <ele>7.5</ele>
        <time>2023-11-22T13:22:37Z</time>
      </trkpt>
      <trkpt lat="49.23633" lon="-0.0709">
        <ele>7.5</ele>
        <time>2023-11-22T13:22:38Z</time>
      </trkpt>
      <trkpt lat="49.2363" lon="-0.07087">
        <ele>7.5</ele>
        <time>2023-11-22T13:22:39Z</time>
      </trkpt>
      <trkpt lat="49.23626" lon="-0.07083">
        <ele>7.5</ele>
        <time>2023-11-22T13:22:40Z</time>
      </trkpt>
      <trkpt lat="49.23622" lon="-0.0708">
        <ele>7.5</ele>
        <time>2023-11-22T13:22:41Z</time>
      </trkpt>
      <trkpt lat="49.23618" lon="-0.07076">
        <ele>7.5</ele>
        <time>2023-11-22T13:22:42Z</time>
      </trkpt>
      <trkpt lat="49.23614" lon="-0.07073">
        <ele>7.5</ele>
        <time>2023-11-22T13:22:43Z</time>
      </trkpt>
      <trkpt lat="49.2361" lon="-0.0707">
        <ele>7.5</ele>
        <time>2023-11-22T13:22:44Z</time>
      </trkpt>
      <trkpt lat="49.23606" lon="-0.07066">
        <ele>7.5</ele>
        <time>2023-11-22T13:22:45Z</time>
      </trkpt>
      <trkpt lat="49.23601" lon="-0.07063">
        <ele>7.5</ele>
        <time>2023-11-22T13:22:46Z</time>
      </trkpt>
      <trkpt lat="49.23596" lon="-0.07059">
        <ele>7.5</ele>
        <time>2023-11-22T13:22:47Z</time>
      </trkpt>
      <trkpt lat="49.2359" lon="-0.07055">
        <ele>7.5</ele>
        <time>2023-11-22T13:22:48Z</time>
      </trkpt>
      <trkpt lat="49.23584" lon="-0.07051">
        <ele>7.5</ele>
        <time>2023-11-22T13:22:49Z</time>
      </trkpt>
      <trkpt lat="49.23578" lon="-0.07047">
        <ele>7.5</ele>
        <time>2023-11-22T13:22:50Z</time>
      </trkpt>
      <trkpt lat="49.23572" lon="-0.07044">
        <ele>7.5</ele>
        <time>2023-11-22T13:22:51Z</time>
      </trkpt>
      <trkpt lat="49.23566" lon="-0.0704">
        <ele>7.4</ele>
        <time>2023-11-22T13:22:52Z</time>
      </trkpt>
      <trkpt lat="49.2356" lon="-0.07037">
        <ele>7.4</ele>
        <time>2023-11-22T13:22:53Z</time>
      </trkpt>
      <trkpt lat="49.23554" lon="-0.07033">
        <ele>7.4</ele>
        <time>2023-11-22T13:22:54Z</time>
      </trkpt>
      <trkpt lat="49.23548" lon="-0.07029">
        <ele>7.4</ele>
        <time>2023-11-22T13:22:55Z</time>
      </trkpt>
      <trkpt lat="49.23541" lon="-0.07026">
        <ele>7.4</ele>
        <time>2023-11-22T13:22:56Z</time>
      </trkpt>
      <trkpt lat="49.23535" lon="-0.07022">
        <ele>7.4</ele>
        <time>2023-11-22T13:22:57Z</time>
      </trkpt>
      <trkpt lat="49.23529" lon="-0.07017">
        <ele>7.4</ele>
        <time>2023-11-22T13:22:58Z</time>
      </trkpt>
      <trkpt lat="49.23522" lon="-0.07013">
        <ele>7.4</ele>
        <time>2023-11-22T13:22:59Z</time>
      </trkpt>
      <trkpt lat="49.23516" lon="-0.07009">
        <ele>7.4</ele>
        <time>2023-11-22T13:23:00Z</time>
      </trkpt>
      <trkpt lat="49.2351" lon="-0.07005">
        <ele>7.4</ele>
        <time>2023-11-22T13:23:01Z</time>
      </trkpt>
      <trkpt lat="49.23503" lon="-0.07001">
        <ele>7.5</ele>
        <time>2023-11-22T13:23:02Z</time>
      </trkpt>
      <trkpt lat="49.23497" lon="-0.06997">
        <ele>7.5</ele>
        <time>2023-11-22T13:23:03Z</time>
      </trkpt>
      <trkpt lat="49.23491" lon="-0.06993">
        <ele>7.5</ele>
        <time>2023-11-22T13:23:04Z</time>
      </trkpt>
      <trkpt lat="49.23485" lon="-0.0699">
        <ele>7.6</ele>
        <time>2023-11-22T13:23:05Z</time>
      </trkpt>
      <trkpt lat="49.23479" lon="-0.06986">
        <ele>7.6</ele>
        <time>2023-11-22T13:23:06Z</time>
      </trkpt>
      <trkpt lat="49.23473" lon="-0.06982">
        <ele>7.7</ele>
        <time>2023-11-22T13:23:07Z</time>
      </trkpt>
      <trkpt lat="49.23468" lon="-0.06978">
        <ele>7.7</ele>
        <time>2023-11-22T13:23:08Z</time>
      </trkpt>
      <trkpt lat="49.23462" lon="-0.06974">
        <ele>7.8</ele>
        <time>2023-11-22T13:23:09Z</time>
      </trkpt>
      <trkpt lat="49.23457" lon="-0.0697">
        <ele>7.8</ele>
        <time>2023-11-22T13:23:10Z</time>
      </trkpt>
      <trkpt lat="49.23451" lon="-0.06967">
        <ele>7.9</ele>
        <time>2023-11-22T13:23:11Z</time>
      </trkpt>
      <trkpt lat="49.23445" lon="-0.06964">
        <ele>8</ele>
        <time>2023-11-22T13:23:12Z</time>
      </trkpt>
      <trkpt lat="49.2344" lon="-0.0696">
        <ele>8.1</ele>
        <time>2023-11-22T13:23:13Z</time>
      </trkpt>
      <trkpt lat="49.23434" lon="-0.06957">
        <ele>8.2</ele>
        <time>2023-11-22T13:23:14Z</time>
      </trkpt>
      <trkpt lat="49.23429" lon="-0.06954">
        <ele>8.2</ele>
        <time>2023-11-22T13:23:15Z</time>
      </trkpt>
      <trkpt lat="49.23423" lon="-0.06951">
        <ele>8.3</ele>
        <time>2023-11-22T13:23:16Z</time>
      </trkpt>
      <trkpt lat="49.23417" lon="-0.06948">
        <ele>8.4</ele>
        <time>2023-11-22T13:23:17Z</time>
      </trkpt>
      <trkpt lat="49.23412" lon="-0.06945">
        <ele>8.5</ele>
        <time>2023-11-22T13:23:18Z</time>
      </trkpt>
      <trkpt lat="49.23407" lon="-0.06942">
        <ele>8.7</ele>
        <time>2023-11-22T13:23:19Z</time>
      </trkpt>
      <trkpt lat="49.23401" lon="-0.0694">
        <ele>8.8</ele>
        <time>2023-11-22T13:23:20Z</time>
      </trkpt>
      <trkpt lat="49.23396" lon="-0.06937">
        <ele>8.9</ele>
        <time>2023-11-22T13:23:21Z</time>
      </trkpt>
      <trkpt lat="49.23391" lon="-0.06935">
        <ele>9</ele>
        <time>2023-11-22T13:23:22Z</time>
      </trkpt>
      <trkpt lat="49.23385" lon="-0.06932">
        <ele>9.1</ele>
        <time>2023-11-22T13:23:23Z</time>
      </trkpt>
      <trkpt lat="49.2338" lon="-0.06929">
        <ele>9.2</ele>
        <time>2023-11-22T13:23:24Z</time>
      </trkpt>
      <trkpt lat="49.23375" lon="-0.06926">
        <ele>9.3</ele>
        <time>2023-11-22T13:23:25Z</time>
      </trkpt>
      <trkpt lat="49.2337" lon="-0.06924">
        <ele>9.5</ele>
        <time>2023-11-22T13:23:26Z</time>
      </trkpt>
      <trkpt lat="49.23365" lon="-0.06921">
        <ele>9.6</ele>
        <time>2023-11-22T13:23:27Z</time>
      </trkpt>
      <trkpt lat="49.23359" lon="-0.06918">
        <ele>9.7</ele>
        <time>2023-11-22T13:23:28Z</time>
      </trkpt>
      <trkpt lat="49.23354" lon="-0.06915">
        <ele>9.8</ele>
        <time>2023-11-22T13:23:29Z</time>
      </trkpt>
      <trkpt lat="49.23349" lon="-0.06912">
        <ele>9.9</ele>
        <time>2023-11-22T13:23:30Z</time>
      </trkpt>
      <trkpt lat="49.23344" lon="-0.06909">
        <ele>10</ele>
        <time>2023-11-22T13:23:31Z</time>
      </trkpt>
      <trkpt lat="49.23339" lon="-0.06907">
        <ele>10.1</ele>
        <time>2023-11-22T13:23:32Z</time>
      </trkpt>
      <trkpt lat="49.23334" lon="-0.06904">
        <ele>10.2</ele>
        <time>2023-11-22T13:23:33Z</time>
      </trkpt>
      <trkpt lat="49.23329" lon="-0.06901">
        <ele>10.3</ele>
        <time>2023-11-22T13:23:34Z</time>
      </trkpt>
      <trkpt lat="49.23324" lon="-0.06898">
        <ele>10.3</ele>
        <time>2023-11-22T13:23:35Z</time>
      </trkpt>
      <trkpt lat="49.2332" lon="-0.06895">
        <ele>10.4</ele>
        <time>2023-11-22T13:23:36Z</time>
      </trkpt>
      <trkpt lat="49.23316" lon="-0.06893">
        <ele>10.5</ele>
        <time>2023-11-22T13:23:37Z</time>
      </trkpt>
      <trkpt lat="49.23311" lon="-0.0689">
        <ele>10.6</ele>
        <time>2023-11-22T13:23:38Z</time>
      </trkpt>
      <trkpt lat="49.23305" lon="-0.06888">
        <ele>10.7</ele>
        <time>2023-11-22T13:23:39Z</time>
      </trkpt>
      <trkpt lat="49.23299" lon="-0.06885">
        <ele>10.8</ele>
        <time>2023-11-22T13:23:40Z</time>
      </trkpt>
      <trkpt lat="49.23293" lon="-0.06882">
        <ele>10.8</ele>
        <time>2023-11-22T13:23:41Z</time>
      </trkpt>
      <trkpt lat="49.23287" lon="-0.06878">
        <ele>10.9</ele>
        <time>2023-11-22T13:23:42Z</time>
      </trkpt>
      <trkpt lat="49.2328" lon="-0.06875">
        <ele>11</ele>
        <time>2023-11-22T13:23:43Z</time>
      </trkpt>
      <trkpt lat="49.23273" lon="-0.06871">
        <ele>11.1</ele>
        <time>2023-11-22T13:23:44Z</time>
      </trkpt>
      <trkpt lat="49.23266" lon="-0.06867">
        <ele>11.1</ele>
        <time>2023-11-22T13:23:45Z</time>
      </trkpt>
      <trkpt lat="49.23259" lon="-0.06863">
        <ele>11.2</ele>
        <time>2023-11-22T13:23:46Z</time>
      </trkpt>
      <trkpt lat="49.23252" lon="-0.06859">
        <ele>11.2</ele>
        <time>2023-11-22T13:23:47Z</time>
      </trkpt>
      <trkpt lat="49.23245" lon="-0.06855">
        <ele>11.3</ele>
        <time>2023-11-22T13:23:48Z</time>
      </trkpt>
      <trkpt lat="49.23237" lon="-0.06851">
        <ele>11.3</ele>
        <time>2023-11-22T13:23:49Z</time>
      </trkpt>
      <trkpt lat="49.23229" lon="-0.06848">
        <ele>11.4</ele>
        <time>2023-11-22T13:23:50Z</time>
      </trkpt>
      <trkpt lat="49.23222" lon="-0.06844">
        <ele>11.4</ele>
        <time>2023-11-22T13:23:51Z</time>
      </trkpt>
      <trkpt lat="49.23214" lon="-0.06841">
        <ele>11.4</ele>
        <time>2023-11-22T13:23:52Z</time>
      </trkpt>
      <trkpt lat="49.23206" lon="-0.06837">
        <ele>11.4</ele>
        <time>2023-11-22T13:23:53Z</time>
      </trkpt>
      <trkpt lat="49.23198" lon="-0.06833">
        <ele>11.4</ele>
        <time>2023-11-22T13:23:54Z</time>
      </trkpt>
      <trkpt lat="49.2319" lon="-0.0683">
        <ele>11.5</ele>
        <time>2023-11-22T13:23:55Z</time>
      </trkpt>
      <trkpt lat="49.23182" lon="-0.06826">
        <ele>11.5</ele>
        <time>2023-11-22T13:23:56Z</time>
      </trkpt>
      <trkpt lat="49.23174" lon="-0.06823">
        <ele>11.5</ele>
        <time>2023-11-22T13:23:57Z</time>
      </trkpt>
      <trkpt lat="49.23166" lon="-0.06819">
        <ele>11.5</ele>
        <time>2023-11-22T13:23:58Z</time>
      </trkpt>
      <trkpt lat="49.23159" lon="-0.06816">
        <ele>11.6</ele>
        <time>2023-11-22T13:23:59Z</time>
      </trkpt>
      <trkpt lat="49.23151" lon="-0.06811">
        <ele>11.6</ele>
        <time>2023-11-22T13:24:00Z</time>
      </trkpt>
      <trkpt lat="49.23106" lon="-0.0681">
        <ele>12.1</ele>
        <time>2023-11-22T13:24:05Z</time>
      </trkpt>
      <trkpt lat="49.23107" lon="-0.06796">
        <ele>12.3</ele>
        <time>2023-11-22T13:24:06Z</time>
      </trkpt>
      <trkpt lat="49.23099" lon="-0.0679">
        <ele>12.5</ele>
        <time>2023-11-22T13:24:07Z</time>
      </trkpt>
      <trkpt lat="49.23091" lon="-0.06785">
        <ele>12.7</ele>
        <time>2023-11-22T13:24:08Z</time>
      </trkpt>
      <trkpt lat="49.23083" lon="-0.0678">
        <ele>12.9</ele>
        <time>2023-11-22T13:24:09Z</time>
      </trkpt>
      <trkpt lat="49.23076" lon="-0.06776">
        <ele>13.1</ele>
        <time>2023-11-22T13:24:10Z</time>
      </trkpt>
      <trkpt lat="49.2307" lon="-0.06773">
        <ele>13.4</ele>
        <time>2023-11-22T13:24:11Z</time>
      </trkpt>
      <trkpt lat="49.23064" lon="-0.0677">
        <ele>13.6</ele>
        <time>2023-11-22T13:24:12Z</time>
      </trkpt>
      <trkpt lat="49.23057" lon="-0.06768">
        <ele>13.8</ele>
        <time>2023-11-22T13:24:13Z</time>
      </trkpt>
      <trkpt lat="49.2305" lon="-0.06765">
        <ele>14</ele>
        <time>2023-11-22T13:24:14Z</time>
      </trkpt>
      <trkpt lat="49.23043" lon="-0.06761">
        <ele>14.3</ele>
        <time>2023-11-22T13:24:15Z</time>
      </trkpt>
      <trkpt lat="49.23036" lon="-0.06758">
        <ele>14.5</ele>
        <time>2023-11-22T13:24:16Z</time>
      </trkpt>
      <trkpt lat="49.23029" lon="-0.06756">
        <ele>14.7</ele>
        <time>2023-11-22T13:24:17Z</time>
      </trkpt>
      <trkpt lat="49.23022" lon="-0.06755">
        <ele>14.9</ele>
        <time>2023-11-22T13:24:18Z</time>
      </trkpt>
      <trkpt lat="49.23014" lon="-0.06755">
        <ele>15.1</ele>
        <time>2023-11-22T13:24:19Z</time>
      </trkpt>
      <trkpt lat="49.23007" lon="-0.06756">
        <ele>15.4</ele>
        <time>2023-11-22T13:24:20Z</time>
      </trkpt>
      <trkpt lat="49.23" lon="-0.06758">
        <ele>15.6</ele>
        <time>2023-11-22T13:24:21Z</time>
      </trkpt>
      <trkpt lat="49.22994" lon="-0.06761">
        <ele>15.8</ele>
        <time>2023-11-22T13:24:22Z</time>
      </trkpt>
      <trkpt lat="49.22987" lon="-0.06764">
        <ele>16</ele>
        <time>2023-11-22T13:24:23Z</time>
      </trkpt>
      <trkpt lat="49.2298" lon="-0.06767">
        <ele>16.3</ele>
        <time>2023-11-22T13:24:24Z</time>
      </trkpt>
      <trkpt lat="49.22974" lon="-0.06772">
        <ele>16.5</ele>
        <time>2023-11-22T13:24:25Z</time>
      </trkpt>
      <trkpt lat="49.22969" lon="-0.06778">
        <ele>16.7</ele>
        <time>2023-11-22T13:24:26Z</time>
      </trkpt>
      <trkpt lat="49.22963" lon="-0.06784">
        <ele>17</ele>
        <time>2023-11-22T13:24:27Z</time>
      </trkpt>
      <trkpt lat="49.22958" lon="-0.06791">
        <ele>17.2</ele>
        <time>2023-11-22T13:24:28Z</time>
      </trkpt>
      <trkpt lat="49.22953" lon="-0.06798">
        <ele>17.4</ele>
        <time>2023-11-22T13:24:29Z</time>
      </trkpt>
      <trkpt lat="49.22949" lon="-0.06805">
        <ele>17.6</ele>
        <time>2023-11-22T13:24:30Z</time>
      </trkpt>
      <trkpt lat="49.22945" lon="-0.06813">
        <ele>17.8</ele>
        <time>2023-11-22T13:24:31Z</time>
      </trkpt>
      <trkpt lat="49.22942" lon="-0.06822">
        <ele>18</ele>
        <time>2023-11-22T13:24:32Z</time>
      </trkpt>
      <trkpt lat="49.22939" lon="-0.0683">
        <ele>18.2</ele>
        <time>2023-11-22T13:24:33Z</time>
      </trkpt>
      <trkpt lat="49.22936" lon="-0.06839">
        <ele>18.3</ele>
        <time>2023-11-22T13:24:34Z</time>
      </trkpt>
      <trkpt lat="49.22933" lon="-0.06847">
        <ele>18.5</ele>
        <time>2023-11-22T13:24:35Z</time>
      </trkpt>
      <trkpt lat="49.22931" lon="-0.06856">
        <ele>18.7</ele>
        <time>2023-11-22T13:24:36Z</time>
      </trkpt>
      <trkpt lat="49.22929" lon="-0.06864">
        <ele>18.8</ele>
        <time>2023-11-22T13:24:37Z</time>
      </trkpt>
      <trkpt lat="49.22926" lon="-0.06872">
        <ele>19</ele>
        <time>2023-11-22T13:24:38Z</time>
      </trkpt>
      <trkpt lat="49.22924" lon="-0.0688">
        <ele>19.1</ele>
        <time>2023-11-22T13:24:39Z</time>
      </trkpt>
      <trkpt lat="49.22921" lon="-0.06889">
        <ele>19.3</ele>
        <time>2023-11-22T13:24:40Z</time>
      </trkpt>
      <trkpt lat="49.22918" lon="-0.06897">
        <ele>19.4</ele>
        <time>2023-11-22T13:24:41Z</time>
      </trkpt>
      <trkpt lat="49.22914" lon="-0.06905">
        <ele>19.6</ele>
        <time>2023-11-22T13:24:42Z</time>
      </trkpt>
      <trkpt lat="49.2291" lon="-0.06912">
        <ele>19.8</ele>
        <time>2023-11-22T13:24:43Z</time>
      </trkpt>
      <trkpt lat="49.22906" lon="-0.06919">
        <ele>19.9</ele>
        <time>2023-11-22T13:24:44Z</time>
      </trkpt>
      <trkpt lat="49.22901" lon="-0.06925">
        <ele>20.1</ele>
        <time>2023-11-22T13:24:45Z</time>
      </trkpt>
      <trkpt lat="49.22896" lon="-0.0693">
        <ele>20.3</ele>
        <time>2023-11-22T13:24:46Z</time>
      </trkpt>
      <trkpt lat="49.2289" lon="-0.06934">
        <ele>20.5</ele>
        <time>2023-11-22T13:24:47Z</time>
      </trkpt>
      <trkpt lat="49.22885" lon="-0.06937">
        <ele>20.7</ele>
        <time>2023-11-22T13:24:48Z</time>
      </trkpt>
      <trkpt lat="49.22879" lon="-0.0694">
        <ele>20.9</ele>
        <time>2023-11-22T13:24:49Z</time>
      </trkpt>
      <trkpt lat="49.22873" lon="-0.06943">
        <ele>21.1</ele>
        <time>2023-11-22T13:24:50Z</time>
      </trkpt>
      <trkpt lat="49.22867" lon="-0.06945">
        <ele>21.4</ele>
        <time>2023-11-22T13:24:51Z</time>
      </trkpt>
      <trkpt lat="49.22861" lon="-0.06946">
        <ele>21.6</ele>
        <time>2023-11-22T13:24:52Z</time>
      </trkpt>
      <trkpt lat="49.22854" lon="-0.06946">
        <ele>21.8</ele>
        <time>2023-11-22T13:24:53Z</time>
      </trkpt>
      <trkpt lat="49.22848" lon="-0.06946">
        <ele>22.1</ele>
        <time>2023-11-22T13:24:54Z</time>
      </trkpt>
      <trkpt lat="49.22843" lon="-0.06945">
        <ele>22.2</ele>
        <time>2023-11-22T13:24:55Z</time>
      </trkpt>
      <trkpt lat="49.22837" lon="-0.06944">
        <ele>22.4</ele>
        <time>2023-11-22T13:24:56Z</time>
      </trkpt>
      <trkpt lat="49.22832" lon="-0.06943">
        <ele>22.6</ele>
        <time>2023-11-22T13:24:57Z</time>
      </trkpt>
      <trkpt lat="49.22827" lon="-0.06942">
        <ele>22.8</ele>
        <time>2023-11-22T13:24:58Z</time>
      </trkpt>
      <trkpt lat="49.22821" lon="-0.0694">
        <ele>22.9</ele>
        <time>2023-11-22T13:24:59Z</time>
      </trkpt>
      <trkpt lat="49.22816" lon="-0.06939">
        <ele>23.1</ele>
        <time>2023-11-22T13:25:00Z</time>
      </trkpt>
      <trkpt lat="49.22811" lon="-0.06938">
        <ele>23.2</ele>
        <time>2023-11-22T13:25:01Z</time>
      </trkpt>
      <trkpt lat="49.22807" lon="-0.06936">
        <ele>23.3</ele>
        <time>2023-11-22T13:25:02Z</time>
      </trkpt>
      <trkpt lat="49.22802" lon="-0.06935">
        <ele>23.5</ele>
        <time>2023-11-22T13:25:03Z</time>
      </trkpt>
      <trkpt lat="49.22798" lon="-0.06934">
        <ele>23.5</ele>
        <time>2023-11-22T13:25:04Z</time>
      </trkpt>
      <trkpt lat="49.22793" lon="-0.06932">
        <ele>23.6</ele>
        <time>2023-11-22T13:25:05Z</time>
      </trkpt>
      <trkpt lat="49.22788" lon="-0.06931">
        <ele>23.7</ele>
        <time>2023-11-22T13:25:06Z</time>
      </trkpt>
      <trkpt lat="49.22784" lon="-0.0693">
        <ele>23.8</ele>
        <time>2023-11-22T13:25:07Z</time>
      </trkpt>
      <trkpt lat="49.2278" lon="-0.06929">
        <ele>23.8</ele>
        <time>2023-11-22T13:25:08Z</time>
      </trkpt>
      <trkpt lat="49.22775" lon="-0.06929">
        <ele>23.8</ele>
        <time>2023-11-22T13:25:09Z</time>
      </trkpt>
      <trkpt lat="49.2277" lon="-0.06929">
        <ele>23.8</ele>
        <time>2023-11-22T13:25:10Z</time>
      </trkpt>
      <trkpt lat="49.22765" lon="-0.06928">
        <ele>23.8</ele>
        <time>2023-11-22T13:25:11Z</time>
      </trkpt>
      <trkpt lat="49.2276" lon="-0.06927">
        <ele>23.8</ele>
        <time>2023-11-22T13:25:12Z</time>
      </trkpt>
      <trkpt lat="49.22754" lon="-0.06926">
        <ele>23.7</ele>
        <time>2023-11-22T13:25:13Z</time>
      </trkpt>
      <trkpt lat="49.22748" lon="-0.06924">
        <ele>23.6</ele>
        <time>2023-11-22T13:25:14Z</time>
      </trkpt>
      <trkpt lat="49.22741" lon="-0.06922">
        <ele>23.5</ele>
        <time>2023-11-22T13:25:15Z</time>
      </trkpt>
      <trkpt lat="49.22735" lon="-0.06921">
        <ele>23.4</ele>
        <time>2023-11-22T13:25:16Z</time>
      </trkpt>
      <trkpt lat="49.22729" lon="-0.06919">
        <ele>23.3</ele>
        <time>2023-11-22T13:25:17Z</time>
      </trkpt>
      <trkpt lat="49.22723" lon="-0.06917">
        <ele>23.2</ele>
        <time>2023-11-22T13:25:18Z</time>
      </trkpt>
      <trkpt lat="49.22716" lon="-0.06916">
        <ele>23.1</ele>
        <time>2023-11-22T13:25:19Z</time>
      </trkpt>
      <trkpt lat="49.2271" lon="-0.06915">
        <ele>23</ele>
        <time>2023-11-22T13:25:20Z</time>
      </trkpt>
      <trkpt lat="49.22704" lon="-0.06914">
        <ele>22.9</ele>
        <time>2023-11-22T13:25:21Z</time>
      </trkpt>
      <trkpt lat="49.22699" lon="-0.06913">
        <ele>22.8</ele>
        <time>2023-11-22T13:25:22Z</time>
      </trkpt>
      <trkpt lat="49.22693" lon="-0.06911">
        <ele>22.7</ele>
        <time>2023-11-22T13:25:23Z</time>
      </trkpt>
      <trkpt lat="49.22687" lon="-0.06909">
        <ele>22.5</ele>
        <time>2023-11-22T13:25:24Z</time>
      </trkpt>
      <trkpt lat="49.2268" lon="-0.06908">
        <ele>22.3</ele>
        <time>2023-11-22T13:25:25Z</time>
      </trkpt>
      <trkpt lat="49.22674" lon="-0.06907">
        <ele>22.1</ele>
        <time>2023-11-22T13:25:26Z</time>
      </trkpt>
      <trkpt lat="49.22668" lon="-0.06905">
        <ele>21.9</ele>
        <time>2023-11-22T13:25:27Z</time>
      </trkpt>
      <trkpt lat="49.22662" lon="-0.06903">
        <ele>21.7</ele>
        <time>2023-11-22T13:25:28Z</time>
      </trkpt>
      <trkpt lat="49.22657" lon="-0.06902">
        <ele>21.5</ele>
        <time>2023-11-22T13:25:29Z</time>
      </trkpt>
      <trkpt lat="49.22651" lon="-0.069">
        <ele>21.3</ele>
        <time>2023-11-22T13:25:30Z</time>
      </trkpt>
      <trkpt lat="49.22646" lon="-0.06898">
        <ele>21</ele>
        <time>2023-11-22T13:25:31Z</time>
      </trkpt>
      <trkpt lat="49.2264" lon="-0.06897">
        <ele>20.8</ele>
        <time>2023-11-22T13:25:32Z</time>
      </trkpt>
      <trkpt lat="49.22634" lon="-0.06896">
        <ele>20.5</ele>
        <time>2023-11-22T13:25:33Z</time>
      </trkpt>
      <trkpt lat="49.22628" lon="-0.06894">
        <ele>20.3</ele>
        <time>2023-11-22T13:25:34Z</time>
      </trkpt>
      <trkpt lat="49.22622" lon="-0.06892">
        <ele>20</ele>
        <time>2023-11-22T13:25:35Z</time>
      </trkpt>
      <trkpt lat="49.22615" lon="-0.06891">
        <ele>19.7</ele>
        <time>2023-11-22T13:25:36Z</time>
      </trkpt>
      <trkpt lat="49.22608" lon="-0.06889">
        <ele>19.5</ele>
        <time>2023-11-22T13:25:37Z</time>
      </trkpt>
      <trkpt lat="49.22601" lon="-0.06887">
        <ele>19.2</ele>
        <time>2023-11-22T13:25:38Z</time>
      </trkpt>
      <trkpt lat="49.22593" lon="-0.06886">
        <ele>19</ele>
        <time>2023-11-22T13:25:39Z</time>
      </trkpt>
      <trkpt lat="49.22586" lon="-0.06884">
        <ele>18.7</ele>
        <time>2023-11-22T13:25:40Z</time>
      </trkpt>
      <trkpt lat="49.22579" lon="-0.06883">
        <ele>18.5</ele>
        <time>2023-11-22T13:25:41Z</time>
      </trkpt>
      <trkpt lat="49.22572" lon="-0.06881">
        <ele>18.2</ele>
        <time>2023-11-22T13:25:42Z</time>
      </trkpt>
      <trkpt lat="49.22564" lon="-0.0688">
        <ele>17.9</ele>
        <time>2023-11-22T13:25:43Z</time>
      </trkpt>
      <trkpt lat="49.22556" lon="-0.06878">
        <ele>17.6</ele>
        <time>2023-11-22T13:25:44Z</time>
      </trkpt>
      <trkpt lat="49.22548" lon="-0.06876">
        <ele>17.3</ele>
        <time>2023-11-22T13:25:45Z</time>
      </trkpt>
      <trkpt lat="49.2254" lon="-0.06874">
        <ele>17.1</ele>
        <time>2023-11-22T13:25:46Z</time>
      </trkpt>
      <trkpt lat="49.22532" lon="-0.06872">
        <ele>16.9</ele>
        <time>2023-11-22T13:25:47Z</time>
      </trkpt>
      <trkpt lat="49.22526" lon="-0.0687">
        <ele>16.8</ele>
        <time>2023-11-22T13:25:48Z</time>
      </trkpt>
      <trkpt lat="49.22519" lon="-0.06869">
        <ele>16.6</ele>
        <time>2023-11-22T13:25:49Z</time>
      </trkpt>
      <trkpt lat="49.22512" lon="-0.06867">
        <ele>16.5</ele>
        <time>2023-11-22T13:25:50Z</time>
      </trkpt>
      <trkpt lat="49.22505" lon="-0.06865">
        <ele>16.4</ele>
        <time>2023-11-22T13:25:51Z</time>
      </trkpt>
      <trkpt lat="49.22499" lon="-0.06864">
        <ele>16.4</ele>
        <time>2023-11-22T13:25:52Z</time>
      </trkpt>
      <trkpt lat="49.22493" lon="-0.06863">
        <ele>16.3</ele>
        <time>2023-11-22T13:25:53Z</time>
      </trkpt>
      <trkpt lat="49.22487" lon="-0.06861">
        <ele>16.3</ele>
        <time>2023-11-22T13:25:54Z</time>
      </trkpt>
      <trkpt lat="49.22482" lon="-0.0686">
        <ele>16.4</ele>
        <time>2023-11-22T13:25:55Z</time>
      </trkpt>
      <trkpt lat="49.22477" lon="-0.0686">
        <ele>16.4</ele>
        <time>2023-11-22T13:25:56Z</time>
      </trkpt>
      <trkpt lat="49.22474" lon="-0.06859">
        <ele>16.5</ele>
        <time>2023-11-22T13:25:57Z</time>
      </trkpt>
      <trkpt lat="49.22471" lon="-0.06859">
        <ele>16.5</ele>
        <time>2023-11-22T13:25:58Z</time>
      </trkpt>
      <trkpt lat="49.22467" lon="-0.06859">
        <ele>16.6</ele>
        <time>2023-11-22T13:25:59Z</time>
      </trkpt>
      <trkpt lat="49.22466" lon="-0.06859">
        <ele>16.6</ele>
        <time>2023-11-22T13:26:00Z</time>
      </trkpt>
      <trkpt lat="49.22462" lon="-0.06859">
        <ele>16.7</ele>
        <time>2023-11-22T13:26:01Z</time>
      </trkpt>
      <trkpt lat="49.22461" lon="-0.06859">
        <ele>16.7</ele>
        <time>2023-11-22T13:26:02Z</time>
      </trkpt>
      <trkpt lat="49.22458" lon="-0.0686">
        <ele>16.7</ele>
        <time>2023-11-22T13:26:03Z</time>
      </trkpt>
      <trkpt lat="49.22457" lon="-0.0686">
        <ele>16.7</ele>
        <time>2023-11-22T13:26:04Z</time>
      </trkpt>
      <trkpt lat="49.22456" lon="-0.0686">
        <ele>16.7</ele>
        <time>2023-11-22T13:26:05Z</time>
      </trkpt>
      <trkpt lat="49.22454" lon="-0.06861">
        <ele>16.7</ele>
        <time>2023-11-22T13:26:06Z</time>
      </trkpt>
      <trkpt lat="49.22452" lon="-0.06861">
        <ele>16.7</ele>
        <time>2023-11-22T13:26:07Z</time>
      </trkpt>
      <trkpt lat="49.22452" lon="-0.06861">
        <ele>16.7</ele>
        <time>2023-11-22T13:26:08Z</time>
      </trkpt>
      <trkpt lat="49.22452" lon="-0.06861">
        <ele>16.7</ele>
        <time>2023-11-22T13:26:09Z</time>
      </trkpt>
      <trkpt lat="49.22452" lon="-0.06861">
        <ele>16.7</ele>
        <time>2023-11-22T13:26:10Z</time>
      </trkpt>
      <trkpt lat="49.22452" lon="-0.06861">
        <ele>16.7</ele>
        <time>2023-11-22T13:26:11Z</time>
      </trkpt>
      <trkpt lat="49.22452" lon="-0.06861">
        <ele>16.7</ele>
        <time>2023-11-22T13:26:12Z</time>
      </trkpt>
      <trkpt lat="49.22452" lon="-0.06861">
        <ele>16.7</ele>
        <time>2023-11-22T13:26:13Z</time>
      </trkpt>
      <trkpt lat="49.22452" lon="-0.06861">
        <ele>16.7</ele>
        <time>2023-11-22T13:26:14Z</time>
      </trkpt>
      <trkpt lat="49.22452" lon="-0.06861">
        <ele>16.7</ele>
        <time>2023-11-22T13:26:15Z</time>
      </trkpt>
      <trkpt lat="49.22452" lon="-0.06861">
        <ele>16.7</ele>
        <time>2023-11-22T13:26:16Z</time>
      </trkpt>
      <trkpt lat="49.22452" lon="-0.06861">
        <ele>16.7</ele>
        <time>2023-11-22T13:26:17Z</time>
      </trkpt>
      <trkpt lat="49.22451" lon="-0.06861">
        <ele>16.7</ele>
        <time>2023-11-22T13:26:18Z</time>
      </trkpt>
      <trkpt lat="49.22451" lon="-0.06862">
        <ele>16.6</ele>
        <time>2023-11-22T13:26:19Z</time>
      </trkpt>
      <trkpt lat="49.2245" lon="-0.06863">
        <ele>16.6</ele>
        <time>2023-11-22T13:26:20Z</time>
      </trkpt>
      <trkpt lat="49.22449" lon="-0.06864">
        <ele>16.6</ele>
        <time>2023-11-22T13:26:21Z</time>
      </trkpt>
      <trkpt lat="49.22448" lon="-0.06866">
        <ele>16.5</ele>
        <time>2023-11-22T13:26:22Z</time>
      </trkpt>
      <trkpt lat="49.22447" lon="-0.06869">
        <ele>16.4</ele>
        <time>2023-11-22T13:26:23Z</time>
      </trkpt>
      <trkpt lat="49.22446" lon="-0.06874">
        <ele>16.3</ele>
        <time>2023-11-22T13:26:24Z</time>
      </trkpt>
      <trkpt lat="49.22445" lon="-0.06875">
        <ele>16.3</ele>
        <time>2023-11-22T13:26:25Z</time>
      </trkpt>
      <trkpt lat="49.22444" lon="-0.06879">
        <ele>16.2</ele>
        <time>2023-11-22T13:26:26Z</time>
      </trkpt>
      <trkpt lat="49.22443" lon="-0.06883">
        <ele>16.1</ele>
        <time>2023-11-22T13:26:27Z</time>
      </trkpt>
      <trkpt lat="49.22442" lon="-0.06889">
        <ele>16</ele>
        <time>2023-11-22T13:26:28Z</time>
      </trkpt>
      <trkpt lat="49.22441" lon="-0.06894">
        <ele>15.8</ele>
        <time>2023-11-22T13:26:29Z</time>
      </trkpt>
      <trkpt lat="49.22439" lon="-0.069">
        <ele>15.7</ele>
        <time>2023-11-22T13:26:30Z</time>
      </trkpt>
      <trkpt lat="49.22438" lon="-0.06906">
        <ele>15.6</ele>
        <time>2023-11-22T13:26:31Z</time>
      </trkpt>
      <trkpt lat="49.22436" lon="-0.06912">
        <ele>15.5</ele>
        <time>2023-11-22T13:26:32Z</time>
      </trkpt>
      <trkpt lat="49.22435" lon="-0.06918">
        <ele>15.3</ele>
        <time>2023-11-22T13:26:33Z</time>
      </trkpt>
      <trkpt lat="49.22434" lon="-0.06924">
        <ele>15.2</ele>
        <time>2023-11-22T13:26:34Z</time>
      </trkpt>
      <trkpt lat="49.22432" lon="-0.06931">
        <ele>15.1</ele>
        <time>2023-11-22T13:26:35Z</time>
      </trkpt>
      <trkpt lat="49.2243" lon="-0.06937">
        <ele>15</ele>
        <time>2023-11-22T13:26:36Z</time>
      </trkpt>
      <trkpt lat="49.22429" lon="-0.06944">
        <ele>14.9</ele>
        <time>2023-11-22T13:26:37Z</time>
      </trkpt>
      <trkpt lat="49.22427" lon="-0.06951">
        <ele>14.8</ele>
        <time>2023-11-22T13:26:38Z</time>
      </trkpt>
      <trkpt lat="49.22426" lon="-0.06959">
        <ele>14.7</ele>
        <time>2023-11-22T13:26:39Z</time>
      </trkpt>
      <trkpt lat="49.22424" lon="-0.06966">
        <ele>14.6</ele>
        <time>2023-11-22T13:26:40Z</time>
      </trkpt>
      <trkpt lat="49.22422" lon="-0.06974">
        <ele>14.4</ele>
        <time>2023-11-22T13:26:41Z</time>
      </trkpt>
      <trkpt lat="49.2242" lon="-0.06981">
        <ele>14.3</ele>
        <time>2023-11-22T13:26:42Z</time>
      </trkpt>
      <trkpt lat="49.22418" lon="-0.06989">
        <ele>14.2</ele>
        <time>2023-11-22T13:26:43Z</time>
      </trkpt>
      <trkpt lat="49.22416" lon="-0.06997">
        <ele>14.1</ele>
        <time>2023-11-22T13:26:44Z</time>
      </trkpt>
      <trkpt lat="49.22414" lon="-0.07004">
        <ele>14</ele>
        <time>2023-11-22T13:26:45Z</time>
      </trkpt>
      <trkpt lat="49.22412" lon="-0.07012">
        <ele>13.9</ele>
        <time>2023-11-22T13:26:46Z</time>
      </trkpt>
      <trkpt lat="49.2241" lon="-0.0702">
        <ele>13.8</ele>
        <time>2023-11-22T13:26:47Z</time>
      </trkpt>
      <trkpt lat="49.22408" lon="-0.07029">
        <ele>13.7</ele>
        <time>2023-11-22T13:26:48Z</time>
      </trkpt>
      <trkpt lat="49.22406" lon="-0.07038">
        <ele>13.6</ele>
        <time>2023-11-22T13:26:49Z</time>
      </trkpt>
      <trkpt lat="49.22404" lon="-0.07047">
        <ele>13.4</ele>
        <time>2023-11-22T13:26:50Z</time>
      </trkpt>
      <trkpt lat="49.22402" lon="-0.07057">
        <ele>13.3</ele>
        <time>2023-11-22T13:26:51Z</time>
      </trkpt>
      <trkpt lat="49.22399" lon="-0.07066">
        <ele>13.1</ele>
        <time>2023-11-22T13:26:52Z</time>
      </trkpt>
      <trkpt lat="49.22397" lon="-0.07076">
        <ele>13</ele>
        <time>2023-11-22T13:26:53Z</time>
      </trkpt>
      <trkpt lat="49.22394" lon="-0.07086">
        <ele>12.8</ele>
        <time>2023-11-22T13:26:54Z</time>
      </trkpt>
      <trkpt lat="49.22392" lon="-0.07095">
        <ele>12.7</ele>
        <time>2023-11-22T13:26:55Z</time>
      </trkpt>
      <trkpt lat="49.2239" lon="-0.07106">
        <ele>12.5</ele>
        <time>2023-11-22T13:26:56Z</time>
      </trkpt>
      <trkpt lat="49.22388" lon="-0.07116">
        <ele>12.4</ele>
        <time>2023-11-22T13:26:57Z</time>
      </trkpt>
      <trkpt lat="49.22386" lon="-0.07127">
        <ele>12.2</ele>
        <time>2023-11-22T13:26:58Z</time>
      </trkpt>
      <trkpt lat="49.22383" lon="-0.07138">
        <ele>12.1</ele>
        <time>2023-11-22T13:26:59Z</time>
      </trkpt>
      <trkpt lat="49.2238" lon="-0.07151">
        <ele>11.9</ele>
        <time>2023-11-22T13:27:00Z</time>
      </trkpt>
      <trkpt lat="49.22378" lon="-0.07163">
        <ele>11.7</ele>
        <time>2023-11-22T13:27:01Z</time>
      </trkpt>
      <trkpt lat="49.22376" lon="-0.07176">
        <ele>11.5</ele>
        <time>2023-11-22T13:27:02Z</time>
      </trkpt>
      <trkpt lat="49.22373" lon="-0.07188">
        <ele>11.4</ele>
        <time>2023-11-22T13:27:03Z</time>
      </trkpt>
      <trkpt lat="49.2237" lon="-0.07201">
        <ele>11.2</ele>
        <time>2023-11-22T13:27:04Z</time>
      </trkpt>
      <trkpt lat="49.22367" lon="-0.07215">
        <ele>11.1</ele>
        <time>2023-11-22T13:27:05Z</time>
      </trkpt>
      <trkpt lat="49.22364" lon="-0.07229">
        <ele>10.9</ele>
        <time>2023-11-22T13:27:06Z</time>
      </trkpt>
      <trkpt lat="49.2236" lon="-0.07244">
        <ele>10.8</ele>
        <time>2023-11-22T13:27:07Z</time>
      </trkpt>
      <trkpt lat="49.22357" lon="-0.07258">
        <ele>10.7</ele>
        <time>2023-11-22T13:27:08Z</time>
      </trkpt>
      <trkpt lat="49.22354" lon="-0.07273">
        <ele>10.5</ele>
        <time>2023-11-22T13:27:09Z</time>
      </trkpt>
      <trkpt lat="49.22351" lon="-0.07287">
        <ele>10.4</ele>
        <time>2023-11-22T13:27:10Z</time>
      </trkpt>
      <trkpt lat="49.22348" lon="-0.07302">
        <ele>10.4</ele>
        <time>2023-11-22T13:27:11Z</time>
      </trkpt>
      <trkpt lat="49.22344" lon="-0.07316">
        <ele>10.3</ele>
        <time>2023-11-22T13:27:12Z</time>
      </trkpt>
      <trkpt lat="49.22341" lon="-0.0733">
        <ele>10.3</ele>
        <time>2023-11-22T13:27:13Z</time>
      </trkpt>
      <trkpt lat="49.22338" lon="-0.07344">
        <ele>10.3</ele>
        <time>2023-11-22T13:27:14Z</time>
      </trkpt>
      <trkpt lat="49.22334" lon="-0.07359">
        <ele>10.3</ele>
        <time>2023-11-22T13:27:15Z</time>
      </trkpt>
      <trkpt lat="49.22331" lon="-0.07373">
        <ele>10.4</ele>
        <time>2023-11-22T13:27:16Z</time>
      </trkpt>
      <trkpt lat="49.22328" lon="-0.07388">
        <ele>10.5</ele>
        <time>2023-11-22T13:27:17Z</time>
      </trkpt>
      <trkpt lat="49.22325" lon="-0.07402">
        <ele>10.6</ele>
        <time>2023-11-22T13:27:18Z</time>
      </trkpt>
      <trkpt lat="49.22323" lon="-0.07416">
        <ele>10.8</ele>
        <time>2023-11-22T13:27:19Z</time>
      </trkpt>
      <trkpt lat="49.2232" lon="-0.07431">
        <ele>11</ele>
        <time>2023-11-22T13:27:20Z</time>
      </trkpt>
      <trkpt lat="49.22317" lon="-0.07445">
        <ele>11</ele>
        <time>2023-11-22T13:27:21Z</time>
      </trkpt>
      <trkpt lat="49.22315" lon="-0.07459">
        <ele>11.1</ele>
        <time>2023-11-22T13:27:22Z</time>
      </trkpt>
      <trkpt lat="49.22312" lon="-0.07472">
        <ele>11.2</ele>
        <time>2023-11-22T13:27:23Z</time>
      </trkpt>
      <trkpt lat="49.22309" lon="-0.07485">
        <ele>11.3</ele>
        <time>2023-11-22T13:27:24Z</time>
      </trkpt>
      <trkpt lat="49.22306" lon="-0.07499">
        <ele>11.4</ele>
        <time>2023-11-22T13:27:25Z</time>
      </trkpt>
      <trkpt lat="49.22304" lon="-0.07512">
        <ele>11.5</ele>
        <time>2023-11-22T13:27:26Z</time>
      </trkpt>
      <trkpt lat="49.22301" lon="-0.07526">
        <ele>11.6</ele>
        <time>2023-11-22T13:27:27Z</time>
      </trkpt>
      <trkpt lat="49.22298" lon="-0.07539">
        <ele>11.7</ele>
        <time>2023-11-22T13:27:28Z</time>
      </trkpt>
      <trkpt lat="49.22295" lon="-0.07552">
        <ele>11.8</ele>
        <time>2023-11-22T13:27:29Z</time>
      </trkpt>
      <trkpt lat="49.22293" lon="-0.07565">
        <ele>12</ele>
        <time>2023-11-22T13:27:30Z</time>
      </trkpt>
      <trkpt lat="49.2229" lon="-0.07577">
        <ele>12.1</ele>
        <time>2023-11-22T13:27:31Z</time>
      </trkpt>
      <trkpt lat="49.22288" lon="-0.07589">
        <ele>12.2</ele>
        <time>2023-11-22T13:27:32Z</time>
      </trkpt>
      <trkpt lat="49.22286" lon="-0.07601">
        <ele>12.3</ele>
        <time>2023-11-22T13:27:33Z</time>
      </trkpt>
      <trkpt lat="49.22283" lon="-0.07613">
        <ele>12.5</ele>
        <time>2023-11-22T13:27:34Z</time>
      </trkpt>
      <trkpt lat="49.22281" lon="-0.07623">
        <ele>12.7</ele>
        <time>2023-11-22T13:27:35Z</time>
      </trkpt>
      <trkpt lat="49.22279" lon="-0.07633">
        <ele>12.8</ele>
        <time>2023-11-22T13:27:36Z</time>
      </trkpt>
      <trkpt lat="49.22276" lon="-0.07643">
        <ele>12.9</ele>
        <time>2023-11-22T13:27:37Z</time>
      </trkpt>
      <trkpt lat="49.22274" lon="-0.07652">
        <ele>13.1</ele>
        <time>2023-11-22T13:27:38Z</time>
      </trkpt>
      <trkpt lat="49.22272" lon="-0.0766">
        <ele>13.1</ele>
        <time>2023-11-22T13:27:39Z</time>
      </trkpt>
      <trkpt lat="49.2227" lon="-0.07665">
        <ele>13.2</ele>
        <time>2023-11-22T13:27:40Z</time>
      </trkpt>
      <trkpt lat="49.22269" lon="-0.07669">
        <ele>13.2</ele>
        <time>2023-11-22T13:27:41Z</time>
      </trkpt>
      <trkpt lat="49.22268" lon="-0.07674">
        <ele>13.2</ele>
        <time>2023-11-22T13:27:42Z</time>
      </trkpt>
      <trkpt lat="49.22267" lon="-0.07676">
        <ele>13.2</ele>
        <time>2023-11-22T13:27:43Z</time>
      </trkpt>
      <trkpt lat="49.22266" lon="-0.0768">
        <ele>13.2</ele>
        <time>2023-11-22T13:27:44Z</time>
      </trkpt>
      <trkpt lat="49.22266" lon="-0.07681">
        <ele>13.3</ele>
        <time>2023-11-22T13:27:45Z</time>
      </trkpt>
      <trkpt lat="49.22266" lon="-0.07684">
        <ele>13.3</ele>
        <time>2023-11-22T13:27:46Z</time>
      </trkpt>
      <trkpt lat="49.22266" lon="-0.07687">
        <ele>13.3</ele>
        <time>2023-11-22T13:27:47Z</time>
      </trkpt>
      <trkpt lat="49.22265" lon="-0.07689">
        <ele>13.3</ele>
        <time>2023-11-22T13:27:48Z</time>
      </trkpt>
      <trkpt lat="49.22265" lon="-0.07692">
        <ele>13.3</ele>
        <time>2023-11-22T13:27:49Z</time>
      </trkpt>
      <trkpt lat="49.22263" lon="-0.07695">
        <ele>13.3</ele>
        <time>2023-11-22T13:27:50Z</time>
      </trkpt>
      <trkpt lat="49.22263" lon="-0.07697">
        <ele>13.3</ele>
        <time>2023-11-22T13:27:51Z</time>
      </trkpt>
      <trkpt lat="49.2226" lon="-0.07699">
        <ele>13.3</ele>
        <time>2023-11-22T13:27:52Z</time>
      </trkpt>
      <trkpt lat="49.22257" lon="-0.07702">
        <ele>13.3</ele>
        <time>2023-11-22T13:27:53Z</time>
      </trkpt>
      <trkpt lat="49.22254" lon="-0.07704">
        <ele>13.4</ele>
        <time>2023-11-22T13:27:54Z</time>
      </trkpt>
      <trkpt lat="49.22251" lon="-0.07705">
        <ele>13.4</ele>
        <time>2023-11-22T13:27:55Z</time>
      </trkpt>
      <trkpt lat="49.22247" lon="-0.07704">
        <ele>13.5</ele>
        <time>2023-11-22T13:27:56Z</time>
      </trkpt>
      <trkpt lat="49.22243" lon="-0.077">
        <ele>13.5</ele>
        <time>2023-11-22T13:27:57Z</time>
      </trkpt>
      <trkpt lat="49.22239" lon="-0.07695">
        <ele>13.5</ele>
        <time>2023-11-22T13:27:58Z</time>
      </trkpt>
      <trkpt lat="49.22236" lon="-0.0769">
        <ele>13.5</ele>
        <time>2023-11-22T13:27:59Z</time>
      </trkpt>
      <trkpt lat="49.22233" lon="-0.07683">
        <ele>13.6</ele>
        <time>2023-11-22T13:28:00Z</time>
      </trkpt>
      <trkpt lat="49.2223" lon="-0.07675">
        <ele>13.6</ele>
        <time>2023-11-22T13:28:01Z</time>
      </trkpt>
      <trkpt lat="49.22228" lon="-0.07668">
        <ele>13.6</ele>
        <time>2023-11-22T13:28:02Z</time>
      </trkpt>
      <trkpt lat="49.22224" lon="-0.07662">
        <ele>13.6</ele>
        <time>2023-11-22T13:28:03Z</time>
      </trkpt>
      <trkpt lat="49.2222" lon="-0.07657">
        <ele>13.6</ele>
        <time>2023-11-22T13:28:04Z</time>
      </trkpt>
      <trkpt lat="49.22215" lon="-0.07651">
        <ele>13.6</ele>
        <time>2023-11-22T13:28:05Z</time>
      </trkpt>
      <trkpt lat="49.22209" lon="-0.07647">
        <ele>13.6</ele>
        <time>2023-11-22T13:28:06Z</time>
      </trkpt>
      <trkpt lat="49.22204" lon="-0.07641">
        <ele>13.7</ele>
        <time>2023-11-22T13:28:07Z</time>
      </trkpt>
      <trkpt lat="49.22199" lon="-0.07636">
        <ele>13.7</ele>
        <time>2023-11-22T13:28:08Z</time>
      </trkpt>
      <trkpt lat="49.22193" lon="-0.07631">
        <ele>13.7</ele>
        <time>2023-11-22T13:28:09Z</time>
      </trkpt>
      <trkpt lat="49.22188" lon="-0.07626">
        <ele>13.8</ele>
        <time>2023-11-22T13:28:10Z</time>
      </trkpt>
      <trkpt lat="49.22182" lon="-0.07621">
        <ele>13.8</ele>
        <time>2023-11-22T13:28:11Z</time>
      </trkpt>
      <trkpt lat="49.22177" lon="-0.07615">
        <ele>13.9</ele>
        <time>2023-11-22T13:28:12Z</time>
      </trkpt>
      <trkpt lat="49.22172" lon="-0.07609">
        <ele>13.9</ele>
        <time>2023-11-22T13:28:13Z</time>
      </trkpt>
      <trkpt lat="49.22168" lon="-0.07602">
        <ele>14</ele>
        <time>2023-11-22T13:28:14Z</time>
      </trkpt>
      <trkpt lat="49.22165" lon="-0.07593">
        <ele>14</ele>
        <time>2023-11-22T13:28:15Z</time>
      </trkpt>
      <trkpt lat="49.22164" lon="-0.07584">
        <ele>14</ele>
        <time>2023-11-22T13:28:16Z</time>
      </trkpt>
      <trkpt lat="49.22163" lon="-0.07574">
        <ele>14.1</ele>
        <time>2023-11-22T13:28:17Z</time>
      </trkpt>
      <trkpt lat="49.22163" lon="-0.07565">
        <ele>14.1</ele>
        <time>2023-11-22T13:28:18Z</time>
      </trkpt>
      <trkpt lat="49.22162" lon="-0.07556">
        <ele>14.2</ele>
        <time>2023-11-22T13:28:19Z</time>
      </trkpt>
      <trkpt lat="49.22161" lon="-0.07547">
        <ele>14.2</ele>
        <time>2023-11-22T13:28:20Z</time>
      </trkpt>
      <trkpt lat="49.2216" lon="-0.07538">
        <ele>14.2</ele>
        <time>2023-11-22T13:28:21Z</time>
      </trkpt>
      <trkpt lat="49.22158" lon="-0.07529">
        <ele>14.2</ele>
        <time>2023-11-22T13:28:22Z</time>
      </trkpt>
      <trkpt lat="49.22157" lon="-0.0752">
        <ele>14.2</ele>
        <time>2023-11-22T13:28:23Z</time>
      </trkpt>
      <trkpt lat="49.22154" lon="-0.07512">
        <ele>14.2</ele>
        <time>2023-11-22T13:28:24Z</time>
      </trkpt>
      <trkpt lat="49.2215" lon="-0.07504">
        <ele>14.3</ele>
        <time>2023-11-22T13:28:25Z</time>
      </trkpt>
      <trkpt lat="49.22146" lon="-0.07496">
        <ele>14.3</ele>
        <time>2023-11-22T13:28:26Z</time>
      </trkpt>
      <trkpt lat="49.22142" lon="-0.07488">
        <ele>14.4</ele>
        <time>2023-11-22T13:28:27Z</time>
      </trkpt>
      <trkpt lat="49.22137" lon="-0.07481">
        <ele>14.5</ele>
        <time>2023-11-22T13:28:28Z</time>
      </trkpt>
      <trkpt lat="49.22132" lon="-0.07474">
        <ele>14.5</ele>
        <time>2023-11-22T13:28:29Z</time>
      </trkpt>
      <trkpt lat="49.22127" lon="-0.07468">
        <ele>14.6</ele>
        <time>2023-11-22T13:28:30Z</time>
      </trkpt>
      <trkpt lat="49.22122" lon="-0.07461">
        <ele>14.7</ele>
        <time>2023-11-22T13:28:31Z</time>
      </trkpt>
      <trkpt lat="49.22116" lon="-0.07455">
        <ele>14.8</ele>
        <time>2023-11-22T13:28:32Z</time>
      </trkpt>
      <trkpt lat="49.22111" lon="-0.0745">
        <ele>15</ele>
        <time>2023-11-22T13:28:33Z</time>
      </trkpt>
      <trkpt lat="49.22105" lon="-0.07444">
        <ele>15.1</ele>
        <time>2023-11-22T13:28:34Z</time>
      </trkpt>
      <trkpt lat="49.221" lon="-0.07438">
        <ele>15.2</ele>
        <time>2023-11-22T13:28:35Z</time>
      </trkpt>
      <trkpt lat="49.22095" lon="-0.07432">
        <ele>15.3</ele>
        <time>2023-11-22T13:28:36Z</time>
      </trkpt>
      <trkpt lat="49.2209" lon="-0.07427">
        <ele>15.5</ele>
        <time>2023-11-22T13:28:37Z</time>
      </trkpt>
      <trkpt lat="49.22085" lon="-0.07421">
        <ele>15.7</ele>
        <time>2023-11-22T13:28:38Z</time>
      </trkpt>
      <trkpt lat="49.2208" lon="-0.07415">
        <ele>15.9</ele>
        <time>2023-11-22T13:28:39Z</time>
      </trkpt>
      <trkpt lat="49.22076" lon="-0.07408">
        <ele>16</ele>
        <time>2023-11-22T13:28:40Z</time>
      </trkpt>
      <trkpt lat="49.22071" lon="-0.074">
        <ele>16.2</ele>
        <time>2023-11-22T13:28:41Z</time>
      </trkpt>
      <trkpt lat="49.22067" lon="-0.07393">
        <ele>16.4</ele>
        <time>2023-11-22T13:28:42Z</time>
      </trkpt>
      <trkpt lat="49.22064" lon="-0.07384">
        <ele>16.6</ele>
        <time>2023-11-22T13:28:43Z</time>
      </trkpt>
      <trkpt lat="49.2206" lon="-0.07375">
        <ele>16.8</ele>
        <time>2023-11-22T13:28:44Z</time>
      </trkpt>
      <trkpt lat="49.22057" lon="-0.07366">
        <ele>16.9</ele>
        <time>2023-11-22T13:28:45Z</time>
      </trkpt>
      <trkpt lat="49.22055" lon="-0.07357">
        <ele>17.1</ele>
        <time>2023-11-22T13:28:46Z</time>
      </trkpt>
      <trkpt lat="49.22053" lon="-0.07347">
        <ele>17.2</ele>
        <time>2023-11-22T13:28:47Z</time>
      </trkpt>
      <trkpt lat="49.2205" lon="-0.07338">
        <ele>17.4</ele>
        <time>2023-11-22T13:28:48Z</time>
      </trkpt>
      <trkpt lat="49.22047" lon="-0.0733">
        <ele>17.5</ele>
        <time>2023-11-22T13:28:49Z</time>
      </trkpt>
      <trkpt lat="49.22045" lon="-0.07321">
        <ele>17.7</ele>
        <time>2023-11-22T13:28:50Z</time>
      </trkpt>
      <trkpt lat="49.22043" lon="-0.07312">
        <ele>17.8</ele>
        <time>2023-11-22T13:28:51Z</time>
      </trkpt>
      <trkpt lat="49.2204" lon="-0.07303">
        <ele>18</ele>
        <time>2023-11-22T13:28:52Z</time>
      </trkpt>
      <trkpt lat="49.22037" lon="-0.07295">
        <ele>18.1</ele>
        <time>2023-11-22T13:28:53Z</time>
      </trkpt>
      <trkpt lat="49.22035" lon="-0.07286">
        <ele>18.3</ele>
        <time>2023-11-22T13:28:54Z</time>
      </trkpt>
      <trkpt lat="49.22032" lon="-0.07277">
        <ele>18.4</ele>
        <time>2023-11-22T13:28:55Z</time>
      </trkpt>
      <trkpt lat="49.2203" lon="-0.07268">
        <ele>18.6</ele>
        <time>2023-11-22T13:28:56Z</time>
      </trkpt>
      <trkpt lat="49.22027" lon="-0.07259">
        <ele>18.7</ele>
        <time>2023-11-22T13:28:57Z</time>
      </trkpt>
      <trkpt lat="49.22023" lon="-0.07251">
        <ele>18.8</ele>
        <time>2023-11-22T13:28:58Z</time>
      </trkpt>
      <trkpt lat="49.22019" lon="-0.07242">
        <ele>19</ele>
        <time>2023-11-22T13:28:59Z</time>
      </trkpt>
      <trkpt lat="49.22016" lon="-0.07233">
        <ele>19.1</ele>
        <time>2023-11-22T13:29:00Z</time>
      </trkpt>
      <trkpt lat="49.22013" lon="-0.07225">
        <ele>19.2</ele>
        <time>2023-11-22T13:29:01Z</time>
      </trkpt>
      <trkpt lat="49.22011" lon="-0.07216">
        <ele>19.4</ele>
        <time>2023-11-22T13:29:02Z</time>
      </trkpt>
      <trkpt lat="49.22008" lon="-0.07208">
        <ele>19.5</ele>
        <time>2023-11-22T13:29:03Z</time>
      </trkpt>
      <trkpt lat="49.22005" lon="-0.07199">
        <ele>19.6</ele>
        <time>2023-11-22T13:29:04Z</time>
      </trkpt>
      <trkpt lat="49.22001" lon="-0.07191">
        <ele>19.8</ele>
        <time>2023-11-22T13:29:05Z</time>
      </trkpt>
      <trkpt lat="49.21998" lon="-0.07184">
        <ele>19.9</ele>
        <time>2023-11-22T13:29:06Z</time>
      </trkpt>
      <trkpt lat="49.21994" lon="-0.07176">
        <ele>20.1</ele>
        <time>2023-11-22T13:29:07Z</time>
      </trkpt>
      <trkpt lat="49.2199" lon="-0.07168">
        <ele>20.3</ele>
        <time>2023-11-22T13:29:08Z</time>
      </trkpt>
      <trkpt lat="49.21987" lon="-0.0716">
        <ele>20.5</ele>
        <time>2023-11-22T13:29:09Z</time>
      </trkpt>
      <trkpt lat="49.21983" lon="-0.07152">
        <ele>20.6</ele>
        <time>2023-11-22T13:29:10Z</time>
      </trkpt>
      <trkpt lat="49.21979" lon="-0.07144">
        <ele>20.8</ele>
        <time>2023-11-22T13:29:11Z</time>
      </trkpt>
      <trkpt lat="49.21975" lon="-0.07137">
        <ele>21</ele>
        <time>2023-11-22T13:29:12Z</time>
      </trkpt>
      <trkpt lat="49.21972" lon="-0.07129">
        <ele>21.2</ele>
        <time>2023-11-22T13:29:13Z</time>
      </trkpt>
      <trkpt lat="49.21968" lon="-0.07121">
        <ele>21.4</ele>
        <time>2023-11-22T13:29:14Z</time>
      </trkpt>
      <trkpt lat="49.21965" lon="-0.07113">
        <ele>21.6</ele>
        <time>2023-11-22T13:29:15Z</time>
      </trkpt>
      <trkpt lat="49.21962" lon="-0.07106">
        <ele>21.7</ele>
        <time>2023-11-22T13:29:16Z</time>
      </trkpt>
      <trkpt lat="49.21958" lon="-0.07098">
        <ele>21.9</ele>
        <time>2023-11-22T13:29:17Z</time>
      </trkpt>
      <trkpt lat="49.21955" lon="-0.0709">
        <ele>22</ele>
        <time>2023-11-22T13:29:18Z</time>
      </trkpt>
      <trkpt lat="49.21951" lon="-0.07081">
        <ele>22.1</ele>
        <time>2023-11-22T13:29:19Z</time>
      </trkpt>
      <trkpt lat="49.21948" lon="-0.07073">
        <ele>22.3</ele>
        <time>2023-11-22T13:29:20Z</time>
      </trkpt>
      <trkpt lat="49.21945" lon="-0.07065">
        <ele>22.4</ele>
        <time>2023-11-22T13:29:21Z</time>
      </trkpt>
      <trkpt lat="49.21941" lon="-0.07057">
        <ele>22.5</ele>
        <time>2023-11-22T13:29:22Z</time>
      </trkpt>
      <trkpt lat="49.21938" lon="-0.07048">
        <ele>22.6</ele>
        <time>2023-11-22T13:29:23Z</time>
      </trkpt>
      <trkpt lat="49.21935" lon="-0.0704">
        <ele>22.8</ele>
        <time>2023-11-22T13:29:24Z</time>
      </trkpt>
      <trkpt lat="49.21932" lon="-0.07031">
        <ele>22.9</ele>
        <time>2023-11-22T13:29:25Z</time>
      </trkpt>
      <trkpt lat="49.21929" lon="-0.07022">
        <ele>23</ele>
        <time>2023-11-22T13:29:26Z</time>
      </trkpt>
      <trkpt lat="49.21926" lon="-0.07014">
        <ele>23.1</ele>
        <time>2023-11-22T13:29:27Z</time>
      </trkpt>
      <trkpt lat="49.21923" lon="-0.07005">
        <ele>23.3</ele>
        <time>2023-11-22T13:29:28Z</time>
      </trkpt>
      <trkpt lat="49.21921" lon="-0.06996">
        <ele>23.4</ele>
        <time>2023-11-22T13:29:29Z</time>
      </trkpt>
      <trkpt lat="49.21919" lon="-0.06987">
        <ele>23.5</ele>
        <time>2023-11-22T13:29:30Z</time>
      </trkpt>
      <trkpt lat="49.21917" lon="-0.06978">
        <ele>23.6</ele>
        <time>2023-11-22T13:29:31Z</time>
      </trkpt>
      <trkpt lat="49.21915" lon="-0.06969">
        <ele>23.7</ele>
        <time>2023-11-22T13:29:32Z</time>
      </trkpt>
      <trkpt lat="49.21913" lon="-0.06961">
        <ele>23.8</ele>
        <time>2023-11-22T13:29:33Z</time>
      </trkpt>
      <trkpt lat="49.2191" lon="-0.06952">
        <ele>23.9</ele>
        <time>2023-11-22T13:29:34Z</time>
      </trkpt>
      <trkpt lat="49.21908" lon="-0.06943">
        <ele>24</ele>
        <time>2023-11-22T13:29:35Z</time>
      </trkpt>
      <trkpt lat="49.21907" lon="-0.06935">
        <ele>24</ele>
        <time>2023-11-22T13:29:36Z</time>
      </trkpt>
      <trkpt lat="49.21905" lon="-0.06927">
        <ele>24.1</ele>
        <time>2023-11-22T13:29:37Z</time>
      </trkpt>
      <trkpt lat="49.21904" lon="-0.06919">
        <ele>24.1</ele>
        <time>2023-11-22T13:29:38Z</time>
      </trkpt>
      <trkpt lat="49.21903" lon="-0.06912">
        <ele>24.2</ele>
        <time>2023-11-22T13:29:39Z</time>
      </trkpt>
      <trkpt lat="49.21903" lon="-0.06905">
        <ele>24.2</ele>
        <time>2023-11-22T13:29:40Z</time>
      </trkpt>
      <trkpt lat="49.21903" lon="-0.06898">
        <ele>24.2</ele>
        <time>2023-11-22T13:29:41Z</time>
      </trkpt>
      <trkpt lat="49.21901" lon="-0.06891">
        <ele>24.4</ele>
        <time>2023-11-22T13:29:42Z</time>
      </trkpt>
      <trkpt lat="49.21898" lon="-0.06885">
        <ele>24.6</ele>
        <time>2023-11-22T13:29:43Z</time>
      </trkpt>
      <trkpt lat="49.21895" lon="-0.06879">
        <ele>24.8</ele>
        <time>2023-11-22T13:29:44Z</time>
      </trkpt>
      <trkpt lat="49.21891" lon="-0.06874">
        <ele>25</ele>
        <time>2023-11-22T13:29:45Z</time>
      </trkpt>
      <trkpt lat="49.21886" lon="-0.06869">
        <ele>25.3</ele>
        <time>2023-11-22T13:29:46Z</time>
      </trkpt>
      <trkpt lat="49.21882" lon="-0.06864">
        <ele>25.5</ele>
        <time>2023-11-22T13:29:47Z</time>
      </trkpt>
      <trkpt lat="49.21877" lon="-0.06859">
        <ele>25.7</ele>
        <time>2023-11-22T13:29:48Z</time>
      </trkpt>
      <trkpt lat="49.21872" lon="-0.06853">
        <ele>25.9</ele>
        <time>2023-11-22T13:29:49Z</time>
      </trkpt>
      <trkpt lat="49.21868" lon="-0.06848">
        <ele>26.2</ele>
        <time>2023-11-22T13:29:50Z</time>
      </trkpt>
      <trkpt lat="49.21864" lon="-0.06841">
        <ele>26.4</ele>
        <time>2023-11-22T13:29:51Z</time>
      </trkpt>
      <trkpt lat="49.2186" lon="-0.06833">
        <ele>26.6</ele>
        <time>2023-11-22T13:29:52Z</time>
      </trkpt>
      <trkpt lat="49.21856" lon="-0.06826">
        <ele>26.8</ele>
        <time>2023-11-22T13:29:53Z</time>
      </trkpt>
      <trkpt lat="49.21852" lon="-0.06819">
        <ele>27</ele>
        <time>2023-11-22T13:29:54Z</time>
      </trkpt>
      <trkpt lat="49.21848" lon="-0.06812">
        <ele>27.3</ele>
        <time>2023-11-22T13:29:55Z</time>
      </trkpt>
      <trkpt lat="49.21843" lon="-0.06805">
        <ele>27.4</ele>
        <time>2023-11-22T13:29:56Z</time>
      </trkpt>
      <trkpt lat="49.21838" lon="-0.06799">
        <ele>27.6</ele>
        <time>2023-11-22T13:29:57Z</time>
      </trkpt>
      <trkpt lat="49.21833" lon="-0.06793">
        <ele>27.8</ele>
        <time>2023-11-22T13:29:58Z</time>
      </trkpt>
      <trkpt lat="49.21828" lon="-0.06788">
        <ele>27.9</ele>
        <time>2023-11-22T13:29:59Z</time>
      </trkpt>
      <trkpt lat="49.21822" lon="-0.06784">
        <ele>28.1</ele>
        <time>2023-11-22T13:30:00Z</time>
      </trkpt>
      <trkpt lat="49.21816" lon="-0.06781">
        <ele>28.2</ele>
        <time>2023-11-22T13:30:01Z</time>
      </trkpt>
      <trkpt lat="49.21811" lon="-0.06779">
        <ele>28.3</ele>
        <time>2023-11-22T13:30:02Z</time>
      </trkpt>
      <trkpt lat="49.21805" lon="-0.06778">
        <ele>28.4</ele>
        <time>2023-11-22T13:30:03Z</time>
      </trkpt>
      <trkpt lat="49.21798" lon="-0.06777">
        <ele>28.6</ele>
        <time>2023-11-22T13:30:04Z</time>
      </trkpt>
      <trkpt lat="49.21792" lon="-0.06777">
        <ele>28.7</ele>
        <time>2023-11-22T13:30:05Z</time>
      </trkpt>
      <trkpt lat="49.21785" lon="-0.06777">
        <ele>28.8</ele>
        <time>2023-11-22T13:30:06Z</time>
      </trkpt>
      <trkpt lat="49.21778" lon="-0.06776">
        <ele>28.9</ele>
        <time>2023-11-22T13:30:07Z</time>
      </trkpt>
      <trkpt lat="49.21772" lon="-0.06775">
        <ele>29</ele>
        <time>2023-11-22T13:30:08Z</time>
      </trkpt>
      <trkpt lat="49.21766" lon="-0.06775">
        <ele>29</ele>
        <time>2023-11-22T13:30:09Z</time>
      </trkpt>
      <trkpt lat="49.2176" lon="-0.06774">
        <ele>29.1</ele>
        <time>2023-11-22T13:30:10Z</time>
      </trkpt>
      <trkpt lat="49.21755" lon="-0.06773">
        <ele>29.1</ele>
        <time>2023-11-22T13:30:11Z</time>
      </trkpt>
      <trkpt lat="49.2175" lon="-0.06773">
        <ele>29.1</ele>
        <time>2023-11-22T13:30:12Z</time>
      </trkpt>
      <trkpt lat="49.21745" lon="-0.06773">
        <ele>29.1</ele>
        <time>2023-11-22T13:30:13Z</time>
      </trkpt>
      <trkpt lat="49.21741" lon="-0.06773">
        <ele>29.1</ele>
        <time>2023-11-22T13:30:14Z</time>
      </trkpt>
      <trkpt lat="49.21737" lon="-0.06773">
        <ele>29.1</ele>
        <time>2023-11-22T13:30:15Z</time>
      </trkpt>
      <trkpt lat="49.21733" lon="-0.06772">
        <ele>29.1</ele>
        <time>2023-11-22T13:30:16Z</time>
      </trkpt>
      <trkpt lat="49.21729" lon="-0.06772">
        <ele>29.1</ele>
        <time>2023-11-22T13:30:17Z</time>
      </trkpt>
      <trkpt lat="49.21725" lon="-0.06771">
        <ele>29.1</ele>
        <time>2023-11-22T13:30:18Z</time>
      </trkpt>
      <trkpt lat="49.21721" lon="-0.0677">
        <ele>29</ele>
        <time>2023-11-22T13:30:19Z</time>
      </trkpt>
      <trkpt lat="49.21717" lon="-0.06769">
        <ele>29</ele>
        <time>2023-11-22T13:30:20Z</time>
      </trkpt>
      <trkpt lat="49.21714" lon="-0.06765">
        <ele>29</ele>
        <time>2023-11-22T13:30:21Z</time>
      </trkpt>
      <trkpt lat="49.21713" lon="-0.0676">
        <ele>29</ele>
        <time>2023-11-22T13:30:22Z</time>
      </trkpt>
      <trkpt lat="49.21712" lon="-0.06754">
        <ele>29</ele>
        <time>2023-11-22T13:30:23Z</time>
      </trkpt>
      <trkpt lat="49.21711" lon="-0.06749">
        <ele>29.1</ele>
        <time>2023-11-22T13:30:24Z</time>
      </trkpt>
      <trkpt lat="49.2171" lon="-0.06742">
        <ele>29.1</ele>
        <time>2023-11-22T13:30:25Z</time>
      </trkpt>
      <trkpt lat="49.2171" lon="-0.06735">
        <ele>29.2</ele>
        <time>2023-11-22T13:30:26Z</time>
      </trkpt>
      <trkpt lat="49.2171" lon="-0.06728">
        <ele>29.3</ele>
        <time>2023-11-22T13:30:27Z</time>
      </trkpt>
      <trkpt lat="49.2171" lon="-0.06721">
        <ele>29.3</ele>
        <time>2023-11-22T13:30:28Z</time>
      </trkpt>
      <trkpt lat="49.21709" lon="-0.06713">
        <ele>29.4</ele>
        <time>2023-11-22T13:30:29Z</time>
      </trkpt>
      <trkpt lat="49.2171" lon="-0.06704">
        <ele>29.6</ele>
        <time>2023-11-22T13:30:30Z</time>
      </trkpt>
      <trkpt lat="49.2171" lon="-0.06696">
        <ele>29.7</ele>
        <time>2023-11-22T13:30:31Z</time>
      </trkpt>
      <trkpt lat="49.2171" lon="-0.06688">
        <ele>29.8</ele>
        <time>2023-11-22T13:30:32Z</time>
      </trkpt>
      <trkpt lat="49.2171" lon="-0.06681">
        <ele>30</ele>
        <time>2023-11-22T13:30:33Z</time>
      </trkpt>
      <trkpt lat="49.2171" lon="-0.06674">
        <ele>30.1</ele>
        <time>2023-11-22T13:30:34Z</time>
      </trkpt>
      <trkpt lat="49.2171" lon="-0.06667">
        <ele>30.2</ele>
        <time>2023-11-22T13:30:35Z</time>
      </trkpt>
      <trkpt lat="49.2171" lon="-0.0666">
        <ele>30.4</ele>
        <time>2023-11-22T13:30:36Z</time>
      </trkpt>
      <trkpt lat="49.2171" lon="-0.06653">
        <ele>30.5</ele>
        <time>2023-11-22T13:30:37Z</time>
      </trkpt>
      <trkpt lat="49.2171" lon="-0.06645">
        <ele>30.6</ele>
        <time>2023-11-22T13:30:38Z</time>
      </trkpt>
      <trkpt lat="49.21709" lon="-0.06637">
        <ele>30.8</ele>
        <time>2023-11-22T13:30:39Z</time>
      </trkpt>
      <trkpt lat="49.21708" lon="-0.0663">
        <ele>30.9</ele>
        <time>2023-11-22T13:30:40Z</time>
      </trkpt>
      <trkpt lat="49.21706" lon="-0.06622">
        <ele>31</ele>
        <time>2023-11-22T13:30:41Z</time>
      </trkpt>
      <trkpt lat="49.21704" lon="-0.06614">
        <ele>31.1</ele>
        <time>2023-11-22T13:30:42Z</time>
      </trkpt>
      <trkpt lat="49.21701" lon="-0.06608">
        <ele>31.1</ele>
        <time>2023-11-22T13:30:43Z</time>
      </trkpt>
      <trkpt lat="49.21698" lon="-0.06601">
        <ele>31.1</ele>
        <time>2023-11-22T13:30:44Z</time>
      </trkpt>
      <trkpt lat="49.21696" lon="-0.06595">
        <ele>31.1</ele>
        <time>2023-11-22T13:30:45Z</time>
      </trkpt>
      <trkpt lat="49.21693" lon="-0.06589">
        <ele>31.1</ele>
        <time>2023-11-22T13:30:46Z</time>
      </trkpt>
      <trkpt lat="49.2169" lon="-0.06583">
        <ele>31</ele>
        <time>2023-11-22T13:30:47Z</time>
      </trkpt>
      <trkpt lat="49.21688" lon="-0.06578">
        <ele>30.9</ele>
        <time>2023-11-22T13:30:48Z</time>
      </trkpt>
      <trkpt lat="49.21684" lon="-0.06572">
        <ele>30.7</ele>
        <time>2023-11-22T13:30:49Z</time>
      </trkpt>
      <trkpt lat="49.21681" lon="-0.06567">
        <ele>30.5</ele>
        <time>2023-11-22T13:30:50Z</time>
      </trkpt>
      <trkpt lat="49.21676" lon="-0.0656">
        <ele>30.1</ele>
        <time>2023-11-22T13:30:51Z</time>
      </trkpt>
      <trkpt lat="49.21671" lon="-0.06553">
        <ele>29.6</ele>
        <time>2023-11-22T13:30:52Z</time>
      </trkpt>
      <trkpt lat="49.21666" lon="-0.06545">
        <ele>29.1</ele>
        <time>2023-11-22T13:30:53Z</time>
      </trkpt>
      <trkpt lat="49.2166" lon="-0.06535">
        <ele>28.4</ele>
        <time>2023-11-22T13:30:54Z</time>
      </trkpt>
      <trkpt lat="49.21654" lon="-0.06525">
        <ele>27.6</ele>
        <time>2023-11-22T13:30:55Z</time>
      </trkpt>
      <trkpt lat="49.21648" lon="-0.06514">
        <ele>26.9</ele>
        <time>2023-11-22T13:30:56Z</time>
      </trkpt>
      <trkpt lat="49.21642" lon="-0.06502">
        <ele>26.3</ele>
        <time>2023-11-22T13:30:57Z</time>
      </trkpt>
      <trkpt lat="49.21636" lon="-0.0649">
        <ele>25.6</ele>
        <time>2023-11-22T13:30:58Z</time>
      </trkpt>
      <trkpt lat="49.21629" lon="-0.06476">
        <ele>25</ele>
        <time>2023-11-22T13:30:59Z</time>
      </trkpt>
      <trkpt lat="49.21624" lon="-0.06462">
        <ele>24.4</ele>
        <time>2023-11-22T13:31:00Z</time>
      </trkpt>
      <trkpt lat="49.21618" lon="-0.06448">
        <ele>23.8</ele>
        <time>2023-11-22T13:31:01Z</time>
      </trkpt>
      <trkpt lat="49.21613" lon="-0.06434">
        <ele>23.2</ele>
        <time>2023-11-22T13:31:02Z</time>
      </trkpt>
      <trkpt lat="49.21609" lon="-0.06418">
        <ele>22.7</ele>
        <time>2023-11-22T13:31:03Z</time>
      </trkpt>
      <trkpt lat="49.21605" lon="-0.06403">
        <ele>22.3</ele>
        <time>2023-11-22T13:31:04Z</time>
      </trkpt>
      <trkpt lat="49.21601" lon="-0.06387">
        <ele>22</ele>
        <time>2023-11-22T13:31:05Z</time>
      </trkpt>
      <trkpt lat="49.21598" lon="-0.06372">
        <ele>21.8</ele>
        <time>2023-11-22T13:31:06Z</time>
      </trkpt>
      <trkpt lat="49.21595" lon="-0.06357">
        <ele>21.6</ele>
        <time>2023-11-22T13:31:07Z</time>
      </trkpt>
      <trkpt lat="49.21592" lon="-0.06343">
        <ele>21.4</ele>
        <time>2023-11-22T13:31:08Z</time>
      </trkpt>
      <trkpt lat="49.2159" lon="-0.06328">
        <ele>21.3</ele>
        <time>2023-11-22T13:31:09Z</time>
      </trkpt>
      <trkpt lat="49.21588" lon="-0.06315">
        <ele>21.2</ele>
        <time>2023-11-22T13:31:10Z</time>
      </trkpt>
      <trkpt lat="49.21586" lon="-0.06301">
        <ele>21.1</ele>
        <time>2023-11-22T13:31:11Z</time>
      </trkpt>
      <trkpt lat="49.21584" lon="-0.06288">
        <ele>21.1</ele>
        <time>2023-11-22T13:31:12Z</time>
      </trkpt>
      <trkpt lat="49.21582" lon="-0.06275">
        <ele>21.1</ele>
        <time>2023-11-22T13:31:13Z</time>
      </trkpt>
      <trkpt lat="49.21579" lon="-0.06262">
        <ele>21.1</ele>
        <time>2023-11-22T13:31:14Z</time>
      </trkpt>
      <trkpt lat="49.21576" lon="-0.06249">
        <ele>21.1</ele>
        <time>2023-11-22T13:31:15Z</time>
      </trkpt>
      <trkpt lat="49.21573" lon="-0.06238">
        <ele>21.1</ele>
        <time>2023-11-22T13:31:16Z</time>
      </trkpt>
      <trkpt lat="49.2157" lon="-0.06227">
        <ele>21.2</ele>
        <time>2023-11-22T13:31:17Z</time>
      </trkpt>
      <trkpt lat="49.21565" lon="-0.06216">
        <ele>21.2</ele>
        <time>2023-11-22T13:31:18Z</time>
      </trkpt>
      <trkpt lat="49.2156" lon="-0.06205">
        <ele>21.2</ele>
        <time>2023-11-22T13:31:19Z</time>
      </trkpt>
      <trkpt lat="49.21556" lon="-0.06194">
        <ele>21.2</ele>
        <time>2023-11-22T13:31:20Z</time>
      </trkpt>
      <trkpt lat="49.21552" lon="-0.06188">
        <ele>21.2</ele>
        <time>2023-11-22T13:31:21Z</time>
      </trkpt>
      <trkpt lat="49.2155" lon="-0.06183">
        <ele>21.3</ele>
        <time>2023-11-22T13:31:22Z</time>
      </trkpt>
      <trkpt lat="49.21548" lon="-0.06179">
        <ele>21.3</ele>
        <time>2023-11-22T13:31:23Z</time>
      </trkpt>
      <trkpt lat="49.21546" lon="-0.06174">
        <ele>21.3</ele>
        <time>2023-11-22T13:31:24Z</time>
      </trkpt>
      <trkpt lat="49.21546" lon="-0.06173">
        <ele>21.3</ele>
        <time>2023-11-22T13:31:25Z</time>
      </trkpt>
      <trkpt lat="49.21544" lon="-0.06168">
        <ele>21.3</ele>
        <time>2023-11-22T13:31:26Z</time>
      </trkpt>
      <trkpt lat="49.21543" lon="-0.06167">
        <ele>21.4</ele>
        <time>2023-11-22T13:31:27Z</time>
      </trkpt>
      <trkpt lat="49.21542" lon="-0.06162">
        <ele>21.4</ele>
        <time>2023-11-22T13:31:28Z</time>
      </trkpt>
      <trkpt lat="49.21541" lon="-0.0616">
        <ele>21.4</ele>
        <time>2023-11-22T13:31:29Z</time>
      </trkpt>
      <trkpt lat="49.2154" lon="-0.06156">
        <ele>21.4</ele>
        <time>2023-11-22T13:31:30Z</time>
      </trkpt>
      <trkpt lat="49.21538" lon="-0.0615">
        <ele>21.5</ele>
        <time>2023-11-22T13:31:31Z</time>
      </trkpt>
      <trkpt lat="49.21537" lon="-0.06143">
        <ele>21.5</ele>
        <time>2023-11-22T13:31:32Z</time>
      </trkpt>
      <trkpt lat="49.21535" lon="-0.06136">
        <ele>21.6</ele>
        <time>2023-11-22T13:31:33Z</time>
      </trkpt>
      <trkpt lat="49.21534" lon="-0.06129">
        <ele>21.7</ele>
        <time>2023-11-22T13:31:34Z</time>
      </trkpt>
      <trkpt lat="49.21533" lon="-0.06121">
        <ele>21.8</ele>
        <time>2023-11-22T13:31:35Z</time>
      </trkpt>
      <trkpt lat="49.21532" lon="-0.06113">
        <ele>21.9</ele>
        <time>2023-11-22T13:31:36Z</time>
      </trkpt>
      <trkpt lat="49.2153" lon="-0.06106">
        <ele>22</ele>
        <time>2023-11-22T13:31:37Z</time>
      </trkpt>
      <trkpt lat="49.21529" lon="-0.06099">
        <ele>22.1</ele>
        <time>2023-11-22T13:31:38Z</time>
      </trkpt>
      <trkpt lat="49.21528" lon="-0.06092">
        <ele>22.2</ele>
        <time>2023-11-22T13:31:39Z</time>
      </trkpt>
      <trkpt lat="49.21526" lon="-0.06086">
        <ele>22.3</ele>
        <time>2023-11-22T13:31:40Z</time>
      </trkpt>
      <trkpt lat="49.21524" lon="-0.06079">
        <ele>22.4</ele>
        <time>2023-11-22T13:31:41Z</time>
      </trkpt>
      <trkpt lat="49.21522" lon="-0.06073">
        <ele>22.5</ele>
        <time>2023-11-22T13:31:42Z</time>
      </trkpt>
      <trkpt lat="49.2152" lon="-0.06066">
        <ele>22.6</ele>
        <time>2023-11-22T13:31:43Z</time>
      </trkpt>
      <trkpt lat="49.21518" lon="-0.06059">
        <ele>22.8</ele>
        <time>2023-11-22T13:31:44Z</time>
      </trkpt>
      <trkpt lat="49.21515" lon="-0.06052">
        <ele>23</ele>
        <time>2023-11-22T13:31:45Z</time>
      </trkpt>
      <trkpt lat="49.21511" lon="-0.06044">
        <ele>23.2</ele>
        <time>2023-11-22T13:31:46Z</time>
      </trkpt>
      <trkpt lat="49.21508" lon="-0.06037">
        <ele>23.4</ele>
        <time>2023-11-22T13:31:47Z</time>
      </trkpt>
      <trkpt lat="49.21505" lon="-0.0603">
        <ele>23.6</ele>
        <time>2023-11-22T13:31:48Z</time>
      </trkpt>
      <trkpt lat="49.21501" lon="-0.06023">
        <ele>23.9</ele>
        <time>2023-11-22T13:31:49Z</time>
      </trkpt>
      <trkpt lat="49.21498" lon="-0.06015">
        <ele>24.2</ele>
        <time>2023-11-22T13:31:50Z</time>
      </trkpt>
      <trkpt lat="49.21494" lon="-0.06008">
        <ele>24.5</ele>
        <time>2023-11-22T13:31:51Z</time>
      </trkpt>
      <trkpt lat="49.21491" lon="-0.06001">
        <ele>24.8</ele>
        <time>2023-11-22T13:31:52Z</time>
      </trkpt>
      <trkpt lat="49.21488" lon="-0.05994">
        <ele>25.1</ele>
        <time>2023-11-22T13:31:53Z</time>
      </trkpt>
      <trkpt lat="49.21484" lon="-0.05987">
        <ele>25.4</ele>
        <time>2023-11-22T13:31:54Z</time>
      </trkpt>
      <trkpt lat="49.21481" lon="-0.05981">
        <ele>25.7</ele>
        <time>2023-11-22T13:31:55Z</time>
      </trkpt>
      <trkpt lat="49.21477" lon="-0.05974">
        <ele>26</ele>
        <time>2023-11-22T13:31:56Z</time>
      </trkpt>
      <trkpt lat="49.21474" lon="-0.05967">
        <ele>26.3</ele>
        <time>2023-11-22T13:31:57Z</time>
      </trkpt>
      <trkpt lat="49.2147" lon="-0.0596">
        <ele>26.6</ele>
        <time>2023-11-22T13:31:58Z</time>
      </trkpt>
      <trkpt lat="49.21467" lon="-0.05954">
        <ele>26.9</ele>
        <time>2023-11-22T13:31:59Z</time>
      </trkpt>
      <trkpt lat="49.21462" lon="-0.05947">
        <ele>27.2</ele>
        <time>2023-11-22T13:32:00Z</time>
      </trkpt>
      <trkpt lat="49.21457" lon="-0.05942">
        <ele>27.5</ele>
        <time>2023-11-22T13:32:01Z</time>
      </trkpt>
      <trkpt lat="49.21452" lon="-0.05938">
        <ele>27.8</ele>
        <time>2023-11-22T13:32:02Z</time>
      </trkpt>
      <trkpt lat="49.21446" lon="-0.05935">
        <ele>28</ele>
        <time>2023-11-22T13:32:03Z</time>
      </trkpt>
      <trkpt lat="49.2144" lon="-0.05932">
        <ele>28.3</ele>
        <time>2023-11-22T13:32:04Z</time>
      </trkpt>
      <trkpt lat="49.21435" lon="-0.05929">
        <ele>28.5</ele>
        <time>2023-11-22T13:32:05Z</time>
      </trkpt>
      <trkpt lat="49.21428" lon="-0.05925">
        <ele>28.8</ele>
        <time>2023-11-22T13:32:06Z</time>
      </trkpt>
      <trkpt lat="49.21422" lon="-0.05922">
        <ele>29</ele>
        <time>2023-11-22T13:32:07Z</time>
      </trkpt>
      <trkpt lat="49.21416" lon="-0.05918">
        <ele>29.2</ele>
        <time>2023-11-22T13:32:08Z</time>
      </trkpt>
      <trkpt lat="49.2141" lon="-0.05914">
        <ele>29.3</ele>
        <time>2023-11-22T13:32:09Z</time>
      </trkpt>
      <trkpt lat="49.21403" lon="-0.0591">
        <ele>29.4</ele>
        <time>2023-11-22T13:32:10Z</time>
      </trkpt>
      <trkpt lat="49.21397" lon="-0.05906">
        <ele>29.5</ele>
        <time>2023-11-22T13:32:11Z</time>
      </trkpt>
      <trkpt lat="49.21391" lon="-0.05902">
        <ele>29.5</ele>
        <time>2023-11-22T13:32:12Z</time>
      </trkpt>
      <trkpt lat="49.21385" lon="-0.05897">
        <ele>29.5</ele>
        <time>2023-11-22T13:32:13Z</time>
      </trkpt>
      <trkpt lat="49.21378" lon="-0.05893">
        <ele>29.6</ele>
        <time>2023-11-22T13:32:14Z</time>
      </trkpt>
      <trkpt lat="49.21371" lon="-0.05887">
        <ele>29.6</ele>
        <time>2023-11-22T13:32:15Z</time>
      </trkpt>
      <trkpt lat="49.21365" lon="-0.05883">
        <ele>29.6</ele>
        <time>2023-11-22T13:32:16Z</time>
      </trkpt>
      <trkpt lat="49.21358" lon="-0.05878">
        <ele>29.7</ele>
        <time>2023-11-22T13:32:17Z</time>
      </trkpt>
      <trkpt lat="49.21352" lon="-0.05874">
        <ele>29.7</ele>
        <time>2023-11-22T13:32:18Z</time>
      </trkpt>
      <trkpt lat="49.21345" lon="-0.0587">
        <ele>29.8</ele>
        <time>2023-11-22T13:32:19Z</time>
      </trkpt>
      <trkpt lat="49.21338" lon="-0.05865">
        <ele>29.8</ele>
        <time>2023-11-22T13:32:20Z</time>
      </trkpt>
      <trkpt lat="49.21331" lon="-0.05861">
        <ele>29.9</ele>
        <time>2023-11-22T13:32:21Z</time>
      </trkpt>
      <trkpt lat="49.21324" lon="-0.05857">
        <ele>29.9</ele>
        <time>2023-11-22T13:32:22Z</time>
      </trkpt>
      <trkpt lat="49.21319" lon="-0.05853">
        <ele>29.8</ele>
        <time>2023-11-22T13:32:23Z</time>
      </trkpt>
      <trkpt lat="49.21315" lon="-0.05848">
        <ele>29.8</ele>
        <time>2023-11-22T13:32:24Z</time>
      </trkpt>
      <trkpt lat="49.21311" lon="-0.05844">
        <ele>29.7</ele>
        <time>2023-11-22T13:32:25Z</time>
      </trkpt>
      <trkpt lat="49.21307" lon="-0.0584">
        <ele>29.6</ele>
        <time>2023-11-22T13:32:26Z</time>
      </trkpt>
      <trkpt lat="49.21303" lon="-0.05835">
        <ele>29.4</ele>
        <time>2023-11-22T13:32:27Z</time>
      </trkpt>
      <trkpt lat="49.21299" lon="-0.05832">
        <ele>29.2</ele>
        <time>2023-11-22T13:32:28Z</time>
      </trkpt>
      <trkpt lat="49.21295" lon="-0.05828">
        <ele>28.9</ele>
        <time>2023-11-22T13:32:29Z</time>
      </trkpt>
      <trkpt lat="49.2129" lon="-0.05826">
        <ele>28.6</ele>
        <time>2023-11-22T13:32:30Z</time>
      </trkpt>
      <trkpt lat="49.21285" lon="-0.05825">
        <ele>28.3</ele>
        <time>2023-11-22T13:32:31Z</time>
      </trkpt>
      <trkpt lat="49.21279" lon="-0.05826">
        <ele>27.9</ele>
        <time>2023-11-22T13:32:32Z</time>
      </trkpt>
      <trkpt lat="49.21273" lon="-0.05829">
        <ele>27.4</ele>
        <time>2023-11-22T13:32:33Z</time>
      </trkpt>
      <trkpt lat="49.21267" lon="-0.05834">
        <ele>26.9</ele>
        <time>2023-11-22T13:32:34Z</time>
      </trkpt>
      <trkpt lat="49.21261" lon="-0.0584">
        <ele>26.4</ele>
        <time>2023-11-22T13:32:35Z</time>
      </trkpt>
      <trkpt lat="49.21254" lon="-0.05846">
        <ele>26</ele>
        <time>2023-11-22T13:32:36Z</time>
      </trkpt>
      <trkpt lat="49.21246" lon="-0.0585">
        <ele>25.5</ele>
        <time>2023-11-22T13:32:37Z</time>
      </trkpt>
      <trkpt lat="49.21237" lon="-0.05851">
        <ele>25</ele>
        <time>2023-11-22T13:32:38Z</time>
      </trkpt>
      <trkpt lat="49.21228" lon="-0.0585">
        <ele>24.5</ele>
        <time>2023-11-22T13:32:39Z</time>
      </trkpt>
      <trkpt lat="49.21219" lon="-0.05846">
        <ele>24.1</ele>
        <time>2023-11-22T13:32:40Z</time>
      </trkpt>
      <trkpt lat="49.21211" lon="-0.0584">
        <ele>23.6</ele>
        <time>2023-11-22T13:32:41Z</time>
      </trkpt>
      <trkpt lat="49.21204" lon="-0.05834">
        <ele>23.2</ele>
        <time>2023-11-22T13:32:42Z</time>
      </trkpt>
      <trkpt lat="49.21196" lon="-0.05829">
        <ele>22.9</ele>
        <time>2023-11-22T13:32:43Z</time>
      </trkpt>
      <trkpt lat="49.21188" lon="-0.05824">
        <ele>22.5</ele>
        <time>2023-11-22T13:32:44Z</time>
      </trkpt>
      <trkpt lat="49.2118" lon="-0.05819">
        <ele>22.2</ele>
        <time>2023-11-22T13:32:45Z</time>
      </trkpt>
      <trkpt lat="49.21172" lon="-0.05816">
        <ele>21.9</ele>
        <time>2023-11-22T13:32:46Z</time>
      </trkpt>
      <trkpt lat="49.21163" lon="-0.05814">
        <ele>21.7</ele>
        <time>2023-11-22T13:32:47Z</time>
      </trkpt>
      <trkpt lat="49.21155" lon="-0.05812">
        <ele>21.6</ele>
        <time>2023-11-22T13:32:48Z</time>
      </trkpt>
      <trkpt lat="49.21147" lon="-0.05811">
        <ele>21.5</ele>
        <time>2023-11-22T13:32:49Z</time>
      </trkpt>
      <trkpt lat="49.21139" lon="-0.05809">
        <ele>21.5</ele>
        <time>2023-11-22T13:32:50Z</time>
      </trkpt>
      <trkpt lat="49.21131" lon="-0.05808">
        <ele>21.5</ele>
        <time>2023-11-22T13:32:51Z</time>
      </trkpt>
      <trkpt lat="49.21125" lon="-0.05806">
        <ele>21.5</ele>
        <time>2023-11-22T13:32:52Z</time>
      </trkpt>
      <trkpt lat="49.21118" lon="-0.05804">
        <ele>21.6</ele>
        <time>2023-11-22T13:32:53Z</time>
      </trkpt>
      <trkpt lat="49.21112" lon="-0.05802">
        <ele>21.6</ele>
        <time>2023-11-22T13:32:54Z</time>
      </trkpt>
      <trkpt lat="49.21105" lon="-0.05799">
        <ele>21.7</ele>
        <time>2023-11-22T13:32:55Z</time>
      </trkpt>
      <trkpt lat="49.21098" lon="-0.05796">
        <ele>21.8</ele>
        <time>2023-11-22T13:32:56Z</time>
      </trkpt>
      <trkpt lat="49.21092" lon="-0.05792">
        <ele>21.8</ele>
        <time>2023-11-22T13:32:57Z</time>
      </trkpt>
      <trkpt lat="49.21085" lon="-0.05787">
        <ele>21.9</ele>
        <time>2023-11-22T13:32:58Z</time>
      </trkpt>
      <trkpt lat="49.21078" lon="-0.05781">
        <ele>21.9</ele>
        <time>2023-11-22T13:32:59Z</time>
      </trkpt>
      <trkpt lat="49.21071" lon="-0.05775">
        <ele>22</ele>
        <time>2023-11-22T13:33:00Z</time>
      </trkpt>
      <trkpt lat="49.21063" lon="-0.05769">
        <ele>22.1</ele>
        <time>2023-11-22T13:33:01Z</time>
      </trkpt>
      <trkpt lat="49.21056" lon="-0.05763">
        <ele>22.1</ele>
        <time>2023-11-22T13:33:02Z</time>
      </trkpt>
      <trkpt lat="49.21048" lon="-0.05758">
        <ele>22.2</ele>
        <time>2023-11-22T13:33:03Z</time>
      </trkpt>
      <trkpt lat="49.21039" lon="-0.05753">
        <ele>22.2</ele>
        <time>2023-11-22T13:33:04Z</time>
      </trkpt>
      <trkpt lat="49.2103" lon="-0.05748">
        <ele>22.3</ele>
        <time>2023-11-22T13:33:05Z</time>
      </trkpt>
      <trkpt lat="49.21021" lon="-0.05742">
        <ele>22.4</ele>
        <time>2023-11-22T13:33:06Z</time>
      </trkpt>
      <trkpt lat="49.21012" lon="-0.05737">
        <ele>22.4</ele>
        <time>2023-11-22T13:33:07Z</time>
      </trkpt>
      <trkpt lat="49.21004" lon="-0.05731">
        <ele>22.4</ele>
        <time>2023-11-22T13:33:08Z</time>
      </trkpt>
      <trkpt lat="49.20995" lon="-0.05726">
        <ele>22.4</ele>
        <time>2023-11-22T13:33:09Z</time>
      </trkpt>
      <trkpt lat="49.20988" lon="-0.05722">
        <ele>22.4</ele>
        <time>2023-11-22T13:33:10Z</time>
      </trkpt>
      <trkpt lat="49.2098" lon="-0.05718">
        <ele>22.4</ele>
        <time>2023-11-22T13:33:11Z</time>
      </trkpt>
      <trkpt lat="49.20974" lon="-0.05714">
        <ele>22.5</ele>
        <time>2023-11-22T13:33:12Z</time>
      </trkpt>
      <trkpt lat="49.20967" lon="-0.05709">
        <ele>22.5</ele>
        <time>2023-11-22T13:33:13Z</time>
      </trkpt>
      <trkpt lat="49.20961" lon="-0.05705">
        <ele>22.4</ele>
        <time>2023-11-22T13:33:14Z</time>
      </trkpt>
      <trkpt lat="49.20954" lon="-0.057">
        <ele>22.4</ele>
        <time>2023-11-22T13:33:15Z</time>
      </trkpt>
      <trkpt lat="49.20948" lon="-0.05696">
        <ele>22.3</ele>
        <time>2023-11-22T13:33:16Z</time>
      </trkpt>
      <trkpt lat="49.20941" lon="-0.05691">
        <ele>22.2</ele>
        <time>2023-11-22T13:33:17Z</time>
      </trkpt>
      <trkpt lat="49.20935" lon="-0.05685">
        <ele>22.1</ele>
        <time>2023-11-22T13:33:18Z</time>
      </trkpt>
      <trkpt lat="49.20928" lon="-0.05679">
        <ele>21.9</ele>
        <time>2023-11-22T13:33:19Z</time>
      </trkpt>
      <trkpt lat="49.20921" lon="-0.05673">
        <ele>21.8</ele>
        <time>2023-11-22T13:33:20Z</time>
      </trkpt>
      <trkpt lat="49.20915" lon="-0.05666">
        <ele>21.7</ele>
        <time>2023-11-22T13:33:21Z</time>
      </trkpt>
      <trkpt lat="49.20908" lon="-0.0566">
        <ele>21.5</ele>
        <time>2023-11-22T13:33:22Z</time>
      </trkpt>
      <trkpt lat="49.20901" lon="-0.05654">
        <ele>21.4</ele>
        <time>2023-11-22T13:33:23Z</time>
      </trkpt>
      <trkpt lat="49.20895" lon="-0.05647">
        <ele>21.3</ele>
        <time>2023-11-22T13:33:24Z</time>
      </trkpt>
      <trkpt lat="49.20888" lon="-0.05641">
        <ele>21.2</ele>
        <time>2023-11-22T13:33:25Z</time>
      </trkpt>
      <trkpt lat="49.20882" lon="-0.05635">
        <ele>21.1</ele>
        <time>2023-11-22T13:33:26Z</time>
      </trkpt>
      <trkpt lat="49.20876" lon="-0.0563">
        <ele>21</ele>
        <time>2023-11-22T13:33:27Z</time>
      </trkpt>
      <trkpt lat="49.2087" lon="-0.05624">
        <ele>20.8</ele>
        <time>2023-11-22T13:33:28Z</time>
      </trkpt>
      <trkpt lat="49.20863" lon="-0.05619">
        <ele>20.7</ele>
        <time>2023-11-22T13:33:29Z</time>
      </trkpt>
      <trkpt lat="49.20857" lon="-0.05613">
        <ele>20.6</ele>
        <time>2023-11-22T13:33:30Z</time>
      </trkpt>
      <trkpt lat="49.2085" lon="-0.05608">
        <ele>20.4</ele>
        <time>2023-11-22T13:33:31Z</time>
      </trkpt>
      <trkpt lat="49.20844" lon="-0.05603">
        <ele>20.3</ele>
        <time>2023-11-22T13:33:32Z</time>
      </trkpt>
      <trkpt lat="49.20837" lon="-0.05598">
        <ele>20.1</ele>
        <time>2023-11-22T13:33:33Z</time>
      </trkpt>
      <trkpt lat="49.2083" lon="-0.05592">
        <ele>20</ele>
        <time>2023-11-22T13:33:34Z</time>
      </trkpt>
      <trkpt lat="49.20824" lon="-0.05586">
        <ele>19.9</ele>
        <time>2023-11-22T13:33:35Z</time>
      </trkpt>
      <trkpt lat="49.20817" lon="-0.05581">
        <ele>19.8</ele>
        <time>2023-11-22T13:33:36Z</time>
      </trkpt>
      <trkpt lat="49.2081" lon="-0.05575">
        <ele>19.7</ele>
        <time>2023-11-22T13:33:37Z</time>
      </trkpt>
      <trkpt lat="49.20803" lon="-0.05569">
        <ele>19.6</ele>
        <time>2023-11-22T13:33:38Z</time>
      </trkpt>
      <trkpt lat="49.20797" lon="-0.05564">
        <ele>19.5</ele>
        <time>2023-11-22T13:33:39Z</time>
      </trkpt>
      <trkpt lat="49.2079" lon="-0.05558">
        <ele>19.4</ele>
        <time>2023-11-22T13:33:40Z</time>
      </trkpt>
      <trkpt lat="49.20784" lon="-0.05552">
        <ele>19.2</ele>
        <time>2023-11-22T13:33:41Z</time>
      </trkpt>
      <trkpt lat="49.20777" lon="-0.05546">
        <ele>19.1</ele>
        <time>2023-11-22T13:33:42Z</time>
      </trkpt>
      <trkpt lat="49.2077" lon="-0.0554">
        <ele>18.9</ele>
        <time>2023-11-22T13:33:43Z</time>
      </trkpt>
      <trkpt lat="49.20763" lon="-0.05533">
        <ele>18.8</ele>
        <time>2023-11-22T13:33:44Z</time>
      </trkpt>
      <trkpt lat="49.20756" lon="-0.05527">
        <ele>18.6</ele>
        <time>2023-11-22T13:33:45Z</time>
      </trkpt>
      <trkpt lat="49.20749" lon="-0.05522">
        <ele>18.5</ele>
        <time>2023-11-22T13:33:46Z</time>
      </trkpt>
      <trkpt lat="49.20742" lon="-0.05517">
        <ele>18.4</ele>
        <time>2023-11-22T13:33:47Z</time>
      </trkpt>
      <trkpt lat="49.20735" lon="-0.05512">
        <ele>18.3</ele>
        <time>2023-11-22T13:33:48Z</time>
      </trkpt>
      <trkpt lat="49.20728" lon="-0.05508">
        <ele>18.3</ele>
        <time>2023-11-22T13:33:49Z</time>
      </trkpt>
      <trkpt lat="49.20721" lon="-0.05504">
        <ele>18.2</ele>
        <time>2023-11-22T13:33:50Z</time>
      </trkpt>
      <trkpt lat="49.20714" lon="-0.055">
        <ele>18.2</ele>
        <time>2023-11-22T13:33:51Z</time>
      </trkpt>
      <trkpt lat="49.20707" lon="-0.05495">
        <ele>18.1</ele>
        <time>2023-11-22T13:33:52Z</time>
      </trkpt>
      <trkpt lat="49.207" lon="-0.05491">
        <ele>18.1</ele>
        <time>2023-11-22T13:33:53Z</time>
      </trkpt>
      <trkpt lat="49.20693" lon="-0.05487">
        <ele>18</ele>
        <time>2023-11-22T13:33:54Z</time>
      </trkpt>
      <trkpt lat="49.20686" lon="-0.05483">
        <ele>18</ele>
        <time>2023-11-22T13:33:55Z</time>
      </trkpt>
      <trkpt lat="49.2068" lon="-0.05479">
        <ele>17.9</ele>
        <time>2023-11-22T13:33:56Z</time>
      </trkpt>
      <trkpt lat="49.20673" lon="-0.05476">
        <ele>17.9</ele>
        <time>2023-11-22T13:33:57Z</time>
      </trkpt>
      <trkpt lat="49.20667" lon="-0.05473">
        <ele>17.9</ele>
        <time>2023-11-22T13:33:58Z</time>
      </trkpt>
      <trkpt lat="49.20661" lon="-0.05471">
        <ele>17.9</ele>
        <time>2023-11-22T13:33:59Z</time>
      </trkpt>
      <trkpt lat="49.20656" lon="-0.05468">
        <ele>18</ele>
        <time>2023-11-22T13:34:00Z</time>
      </trkpt>
      <trkpt lat="49.20653" lon="-0.05467">
        <ele>18</ele>
        <time>2023-11-22T13:34:01Z</time>
      </trkpt>
      <trkpt lat="49.2065" lon="-0.05465">
        <ele>18</ele>
        <time>2023-11-22T13:34:02Z</time>
      </trkpt>
      <trkpt lat="49.20649" lon="-0.05464">
        <ele>18</ele>
        <time>2023-11-22T13:34:03Z</time>
      </trkpt>
      <trkpt lat="49.20646" lon="-0.05463">
        <ele>18</ele>
        <time>2023-11-22T13:34:04Z</time>
      </trkpt>
      <trkpt lat="49.20646" lon="-0.05463">
        <ele>18</ele>
        <time>2023-11-22T13:34:05Z</time>
      </trkpt>
      <trkpt lat="49.20643" lon="-0.05461">
        <ele>18.1</ele>
        <time>2023-11-22T13:34:06Z</time>
      </trkpt>
      <trkpt lat="49.20642" lon="-0.05461">
        <ele>18.1</ele>
        <time>2023-11-22T13:34:07Z</time>
      </trkpt>
      <trkpt lat="49.20639" lon="-0.05459">
        <ele>18.1</ele>
        <time>2023-11-22T13:34:08Z</time>
      </trkpt>
      <trkpt lat="49.20638" lon="-0.05458">
        <ele>18.1</ele>
        <time>2023-11-22T13:34:09Z</time>
      </trkpt>
      <trkpt lat="49.20635" lon="-0.05456">
        <ele>18.1</ele>
        <time>2023-11-22T13:34:10Z</time>
      </trkpt>
      <trkpt lat="49.20633" lon="-0.05455">
        <ele>18.2</ele>
        <time>2023-11-22T13:34:11Z</time>
      </trkpt>
      <trkpt lat="49.20629" lon="-0.05453">
        <ele>18.2</ele>
        <time>2023-11-22T13:34:12Z</time>
      </trkpt>
      <trkpt lat="49.20628" lon="-0.05452">
        <ele>18.2</ele>
        <time>2023-11-22T13:34:13Z</time>
      </trkpt>
      <trkpt lat="49.20624" lon="-0.05449">
        <ele>18.3</ele>
        <time>2023-11-22T13:34:14Z</time>
      </trkpt>
      <trkpt lat="49.20621" lon="-0.05446">
        <ele>18.3</ele>
        <time>2023-11-22T13:34:15Z</time>
      </trkpt>
      <trkpt lat="49.20618" lon="-0.05442">
        <ele>18.4</ele>
        <time>2023-11-22T13:34:16Z</time>
      </trkpt>
      <trkpt lat="49.20615" lon="-0.05438">
        <ele>18.5</ele>
        <time>2023-11-22T13:34:17Z</time>
      </trkpt>
      <trkpt lat="49.20611" lon="-0.05435">
        <ele>18.6</ele>
        <time>2023-11-22T13:34:18Z</time>
      </trkpt>
      <trkpt lat="49.20608" lon="-0.05431">
        <ele>18.7</ele>
        <time>2023-11-22T13:34:19Z</time>
      </trkpt>
      <trkpt lat="49.20604" lon="-0.05428">
        <ele>18.8</ele>
        <time>2023-11-22T13:34:20Z</time>
      </trkpt>
      <trkpt lat="49.206" lon="-0.05424">
        <ele>18.9</ele>
        <time>2023-11-22T13:34:21Z</time>
      </trkpt>
      <trkpt lat="49.20596" lon="-0.0542">
        <ele>19</ele>
        <time>2023-11-22T13:34:22Z</time>
      </trkpt>
      <trkpt lat="49.20592" lon="-0.05416">
        <ele>19.1</ele>
        <time>2023-11-22T13:34:23Z</time>
      </trkpt>
      <trkpt lat="49.20588" lon="-0.05411">
        <ele>19.3</ele>
        <time>2023-11-22T13:34:24Z</time>
      </trkpt>
      <trkpt lat="49.20583" lon="-0.05407">
        <ele>19.4</ele>
        <time>2023-11-22T13:34:25Z</time>
      </trkpt>
      <trkpt lat="49.20578" lon="-0.05402">
        <ele>19.6</ele>
        <time>2023-11-22T13:34:26Z</time>
      </trkpt>
      <trkpt lat="49.20574" lon="-0.05398">
        <ele>19.7</ele>
        <time>2023-11-22T13:34:27Z</time>
      </trkpt>
      <trkpt lat="49.20569" lon="-0.05394">
        <ele>19.9</ele>
        <time>2023-11-22T13:34:28Z</time>
      </trkpt>
      <trkpt lat="49.20565" lon="-0.0539">
        <ele>20.1</ele>
        <time>2023-11-22T13:34:29Z</time>
      </trkpt>
      <trkpt lat="49.20559" lon="-0.05386">
        <ele>20.3</ele>
        <time>2023-11-22T13:34:30Z</time>
      </trkpt>
      <trkpt lat="49.20553" lon="-0.05382">
        <ele>20.5</ele>
        <time>2023-11-22T13:34:31Z</time>
      </trkpt>
      <trkpt lat="49.20547" lon="-0.05378">
        <ele>20.8</ele>
        <time>2023-11-22T13:34:32Z</time>
      </trkpt>
      <trkpt lat="49.20541" lon="-0.05374">
        <ele>21</ele>
        <time>2023-11-22T13:34:33Z</time>
      </trkpt>
      <trkpt lat="49.20535" lon="-0.0537">
        <ele>21.3</ele>
        <time>2023-11-22T13:34:34Z</time>
      </trkpt>
      <trkpt lat="49.20529" lon="-0.05366">
        <ele>21.6</ele>
        <time>2023-11-22T13:34:35Z</time>
      </trkpt>
      <trkpt lat="49.20524" lon="-0.05362">
        <ele>21.9</ele>
        <time>2023-11-22T13:34:36Z</time>
      </trkpt>
      <trkpt lat="49.20518" lon="-0.05358">
        <ele>22.2</ele>
        <time>2023-11-22T13:34:37Z</time>
      </trkpt>
      <trkpt lat="49.20512" lon="-0.05354">
        <ele>22.6</ele>
        <time>2023-11-22T13:34:38Z</time>
      </trkpt>
      <trkpt lat="49.20507" lon="-0.0535">
        <ele>22.9</ele>
        <time>2023-11-22T13:34:39Z</time>
      </trkpt>
      <trkpt lat="49.20502" lon="-0.05345">
        <ele>23.2</ele>
        <time>2023-11-22T13:34:40Z</time>
      </trkpt>
      <trkpt lat="49.20497" lon="-0.0534">
        <ele>23.5</ele>
        <time>2023-11-22T13:34:41Z</time>
      </trkpt>
      <trkpt lat="49.20492" lon="-0.05336">
        <ele>23.8</ele>
        <time>2023-11-22T13:34:42Z</time>
      </trkpt>
      <trkpt lat="49.20487" lon="-0.05331">
        <ele>24.1</ele>
        <time>2023-11-22T13:34:43Z</time>
      </trkpt>
      <trkpt lat="49.20483" lon="-0.05327">
        <ele>24.4</ele>
        <time>2023-11-22T13:34:44Z</time>
      </trkpt>
      <trkpt lat="49.20478" lon="-0.05322">
        <ele>24.7</ele>
        <time>2023-11-22T13:34:45Z</time>
      </trkpt>
      <trkpt lat="49.20474" lon="-0.05318">
        <ele>25</ele>
        <time>2023-11-22T13:34:46Z</time>
      </trkpt>
      <trkpt lat="49.2047" lon="-0.05313">
        <ele>25.3</ele>
        <time>2023-11-22T13:34:47Z</time>
      </trkpt>
      <trkpt lat="49.20466" lon="-0.05307">
        <ele>25.7</ele>
        <time>2023-11-22T13:34:48Z</time>
      </trkpt>
      <trkpt lat="49.20463" lon="-0.05302">
        <ele>26.1</ele>
        <time>2023-11-22T13:34:49Z</time>
      </trkpt>
      <trkpt lat="49.2046" lon="-0.05296">
        <ele>26.4</ele>
        <time>2023-11-22T13:34:50Z</time>
      </trkpt>
      <trkpt lat="49.20457" lon="-0.05291">
        <ele>26.8</ele>
        <time>2023-11-22T13:34:51Z</time>
      </trkpt>
      <trkpt lat="49.20455" lon="-0.05286">
        <ele>27.1</ele>
        <time>2023-11-22T13:34:52Z</time>
      </trkpt>
      <trkpt lat="49.20453" lon="-0.05281">
        <ele>27.4</ele>
        <time>2023-11-22T13:34:53Z</time>
      </trkpt>
      <trkpt lat="49.20451" lon="-0.05276">
        <ele>27.7</ele>
        <time>2023-11-22T13:34:54Z</time>
      </trkpt>
      <trkpt lat="49.20449" lon="-0.05271">
        <ele>28</ele>
        <time>2023-11-22T13:34:55Z</time>
      </trkpt>
      <trkpt lat="49.20447" lon="-0.05266">
        <ele>28.3</ele>
        <time>2023-11-22T13:34:56Z</time>
      </trkpt>
      <trkpt lat="49.20445" lon="-0.05262">
        <ele>28.6</ele>
        <time>2023-11-22T13:34:57Z</time>
      </trkpt>
      <trkpt lat="49.20442" lon="-0.05258">
        <ele>28.9</ele>
        <time>2023-11-22T13:34:58Z</time>
      </trkpt>
      <trkpt lat="49.20439" lon="-0.05254">
        <ele>29.2</ele>
        <time>2023-11-22T13:34:59Z</time>
      </trkpt>
      <trkpt lat="49.20436" lon="-0.0525">
        <ele>29.5</ele>
        <time>2023-11-22T13:35:00Z</time>
      </trkpt>
      <trkpt lat="49.20433" lon="-0.05246">
        <ele>29.8</ele>
        <time>2023-11-22T13:35:01Z</time>
      </trkpt>
      <trkpt lat="49.2043" lon="-0.05243">
        <ele>30.1</ele>
        <time>2023-11-22T13:35:02Z</time>
      </trkpt>
      <trkpt lat="49.20427" lon="-0.0524">
        <ele>30.4</ele>
        <time>2023-11-22T13:35:03Z</time>
      </trkpt>
      <trkpt lat="49.20423" lon="-0.05237">
        <ele>30.6</ele>
        <time>2023-11-22T13:35:04Z</time>
      </trkpt>
      <trkpt lat="49.20419" lon="-0.05234">
        <ele>30.8</ele>
        <time>2023-11-22T13:35:05Z</time>
      </trkpt>
      <trkpt lat="49.20415" lon="-0.05231">
        <ele>31</ele>
        <time>2023-11-22T13:35:06Z</time>
      </trkpt>
      <trkpt lat="49.20411" lon="-0.05228">
        <ele>31.1</ele>
        <time>2023-11-22T13:35:07Z</time>
      </trkpt>
      <trkpt lat="49.20408" lon="-0.05226">
        <ele>31.2</ele>
        <time>2023-11-22T13:35:08Z</time>
      </trkpt>
      <trkpt lat="49.20404" lon="-0.05223">
        <ele>31.3</ele>
        <time>2023-11-22T13:35:09Z</time>
      </trkpt>
      <trkpt lat="49.204" lon="-0.0522">
        <ele>31.3</ele>
        <time>2023-11-22T13:35:10Z</time>
      </trkpt>
      <trkpt lat="49.20397" lon="-0.05217">
        <ele>31.2</ele>
        <time>2023-11-22T13:35:11Z</time>
      </trkpt>
      <trkpt lat="49.20393" lon="-0.05214">
        <ele>31.1</ele>
        <time>2023-11-22T13:35:12Z</time>
      </trkpt>
      <trkpt lat="49.2039" lon="-0.0521">
        <ele>31</ele>
        <time>2023-11-22T13:35:13Z</time>
      </trkpt>
      <trkpt lat="49.20385" lon="-0.05206">
        <ele>30.7</ele>
        <time>2023-11-22T13:35:14Z</time>
      </trkpt>
      <trkpt lat="49.20381" lon="-0.05202">
        <ele>30.4</ele>
        <time>2023-11-22T13:35:15Z</time>
      </trkpt>
      <trkpt lat="49.20377" lon="-0.05199">
        <ele>30.1</ele>
        <time>2023-11-22T13:35:16Z</time>
      </trkpt>
      <trkpt lat="49.20371" lon="-0.05196">
        <ele>29.8</ele>
        <time>2023-11-22T13:35:17Z</time>
      </trkpt>
      <trkpt lat="49.20365" lon="-0.05195">
        <ele>29.4</ele>
        <time>2023-11-22T13:35:18Z</time>
      </trkpt>
      <trkpt lat="49.20358" lon="-0.05195">
        <ele>29</ele>
        <time>2023-11-22T13:35:19Z</time>
      </trkpt>
      <trkpt lat="49.20351" lon="-0.05195">
        <ele>28.6</ele>
        <time>2023-11-22T13:35:20Z</time>
      </trkpt>
      <trkpt lat="49.20344" lon="-0.05193">
        <ele>28.3</ele>
        <time>2023-11-22T13:35:21Z</time>
      </trkpt>
      <trkpt lat="49.20338" lon="-0.05192">
        <ele>28.1</ele>
        <time>2023-11-22T13:35:22Z</time>
      </trkpt>
      <trkpt lat="49.20331" lon="-0.05191">
        <ele>27.9</ele>
        <time>2023-11-22T13:35:23Z</time>
      </trkpt>
      <trkpt lat="49.20325" lon="-0.05191">
        <ele>27.7</ele>
        <time>2023-11-22T13:35:24Z</time>
      </trkpt>
      <trkpt lat="49.20319" lon="-0.0519">
        <ele>27.5</ele>
        <time>2023-11-22T13:35:25Z</time>
      </trkpt>
      <trkpt lat="49.20312" lon="-0.0519">
        <ele>27.2</ele>
        <time>2023-11-22T13:35:26Z</time>
      </trkpt>
      <trkpt lat="49.20307" lon="-0.05192">
        <ele>27</ele>
        <time>2023-11-22T13:35:27Z</time>
      </trkpt>
      <trkpt lat="49.20301" lon="-0.05195">
        <ele>26.7</ele>
        <time>2023-11-22T13:35:28Z</time>
      </trkpt>
      <trkpt lat="49.20294" lon="-0.05199">
        <ele>26.4</ele>
        <time>2023-11-22T13:35:29Z</time>
      </trkpt>
      <trkpt lat="49.20287" lon="-0.05203">
        <ele>26.1</ele>
        <time>2023-11-22T13:35:30Z</time>
      </trkpt>
      <trkpt lat="49.2028" lon="-0.05208">
        <ele>25.9</ele>
        <time>2023-11-22T13:35:31Z</time>
      </trkpt>
      <trkpt lat="49.20272" lon="-0.0521">
        <ele>25.7</ele>
        <time>2023-11-22T13:35:32Z</time>
      </trkpt>
      <trkpt lat="49.20264" lon="-0.05212">
        <ele>25.5</ele>
        <time>2023-11-22T13:35:33Z</time>
      </trkpt>
      <trkpt lat="49.20257" lon="-0.05211">
        <ele>25.4</ele>
        <time>2023-11-22T13:35:34Z</time>
      </trkpt>
      <trkpt lat="49.20249" lon="-0.0521">
        <ele>25.4</ele>
        <time>2023-11-22T13:35:35Z</time>
      </trkpt>
      <trkpt lat="49.20243" lon="-0.05208">
        <ele>25.5</ele>
        <time>2023-11-22T13:35:36Z</time>
      </trkpt>
      <trkpt lat="49.20237" lon="-0.05204">
        <ele>25.6</ele>
        <time>2023-11-22T13:35:37Z</time>
      </trkpt>
      <trkpt lat="49.2023" lon="-0.052">
        <ele>25.7</ele>
        <time>2023-11-22T13:35:38Z</time>
      </trkpt>
      <trkpt lat="49.20224" lon="-0.05195">
        <ele>25.8</ele>
        <time>2023-11-22T13:35:39Z</time>
      </trkpt>
      <trkpt lat="49.20219" lon="-0.05188">
        <ele>25.9</ele>
        <time>2023-11-22T13:35:40Z</time>
      </trkpt>
      <trkpt lat="49.20213" lon="-0.05181">
        <ele>26.1</ele>
        <time>2023-11-22T13:35:41Z</time>
      </trkpt>
      <trkpt lat="49.20208" lon="-0.05175">
        <ele>26.2</ele>
        <time>2023-11-22T13:35:42Z</time>
      </trkpt>
      <trkpt lat="49.20203" lon="-0.05169">
        <ele>26.4</ele>
        <time>2023-11-22T13:35:43Z</time>
      </trkpt>
      <trkpt lat="49.20198" lon="-0.05162">
        <ele>26.6</ele>
        <time>2023-11-22T13:35:44Z</time>
      </trkpt>
      <trkpt lat="49.20192" lon="-0.05154">
        <ele>26.9</ele>
        <time>2023-11-22T13:35:45Z</time>
      </trkpt>
      <trkpt lat="49.20187" lon="-0.05146">
        <ele>27.1</ele>
        <time>2023-11-22T13:35:46Z</time>
      </trkpt>
      <trkpt lat="49.20182" lon="-0.05138">
        <ele>27.3</ele>
        <time>2023-11-22T13:35:47Z</time>
      </trkpt>
      <trkpt lat="49.20177" lon="-0.0513">
        <ele>27.6</ele>
        <time>2023-11-22T13:35:48Z</time>
      </trkpt>
      <trkpt lat="49.20172" lon="-0.05121">
        <ele>27.7</ele>
        <time>2023-11-22T13:35:49Z</time>
      </trkpt>
      <trkpt lat="49.20166" lon="-0.05113">
        <ele>27.8</ele>
        <time>2023-11-22T13:35:50Z</time>
      </trkpt>
      <trkpt lat="49.20161" lon="-0.05105">
        <ele>27.8</ele>
        <time>2023-11-22T13:35:51Z</time>
      </trkpt>
      <trkpt lat="49.20156" lon="-0.05097">
        <ele>27.7</ele>
        <time>2023-11-22T13:35:52Z</time>
      </trkpt>
      <trkpt lat="49.2015" lon="-0.05089">
        <ele>27.5</ele>
        <time>2023-11-22T13:35:53Z</time>
      </trkpt>
      <trkpt lat="49.20145" lon="-0.05082">
        <ele>27.2</ele>
        <time>2023-11-22T13:35:54Z</time>
      </trkpt>
      <trkpt lat="49.20138" lon="-0.05075">
        <ele>26.8</ele>
        <time>2023-11-22T13:35:55Z</time>
      </trkpt>
      <trkpt lat="49.20132" lon="-0.05069">
        <ele>26.3</ele>
        <time>2023-11-22T13:35:56Z</time>
      </trkpt>
      <trkpt lat="49.20125" lon="-0.05063">
        <ele>25.9</ele>
        <time>2023-11-22T13:35:57Z</time>
      </trkpt>
      <trkpt lat="49.20117" lon="-0.05057">
        <ele>25.4</ele>
        <time>2023-11-22T13:35:58Z</time>
      </trkpt>
      <trkpt lat="49.20108" lon="-0.05053">
        <ele>25</ele>
        <time>2023-11-22T13:35:59Z</time>
      </trkpt>
      <trkpt lat="49.20098" lon="-0.05048">
        <ele>24.6</ele>
        <time>2023-11-22T13:36:00Z</time>
      </trkpt>
      <trkpt lat="49.20089" lon="-0.05043">
        <ele>24.3</ele>
        <time>2023-11-22T13:36:01Z</time>
      </trkpt>
      <trkpt lat="49.20079" lon="-0.05038">
        <ele>24</ele>
        <time>2023-11-22T13:36:02Z</time>
      </trkpt>
      <trkpt lat="49.2007" lon="-0.05033">
        <ele>23.9</ele>
        <time>2023-11-22T13:36:03Z</time>
      </trkpt>
      <trkpt lat="49.2006" lon="-0.05028">
        <ele>23.7</ele>
        <time>2023-11-22T13:36:04Z</time>
      </trkpt>
      <trkpt lat="49.20051" lon="-0.05022">
        <ele>23.6</ele>
        <time>2023-11-22T13:36:05Z</time>
      </trkpt>
      <trkpt lat="49.20041" lon="-0.05016">
        <ele>23.6</ele>
        <time>2023-11-22T13:36:06Z</time>
      </trkpt>
      <trkpt lat="49.20032" lon="-0.05007">
        <ele>23.6</ele>
        <time>2023-11-22T13:36:07Z</time>
      </trkpt>
      <trkpt lat="49.20024" lon="-0.04998">
        <ele>23.8</ele>
        <time>2023-11-22T13:36:08Z</time>
      </trkpt>
      <trkpt lat="49.20017" lon="-0.04988">
        <ele>24</ele>
        <time>2023-11-22T13:36:09Z</time>
      </trkpt>
      <trkpt lat="49.2001" lon="-0.04979">
        <ele>24.3</ele>
        <time>2023-11-22T13:36:10Z</time>
      </trkpt>
      <trkpt lat="49.20004" lon="-0.0497">
        <ele>24.6</ele>
        <time>2023-11-22T13:36:11Z</time>
      </trkpt>
      <trkpt lat="49.19998" lon="-0.04961">
        <ele>24.9</ele>
        <time>2023-11-22T13:36:12Z</time>
      </trkpt>
      <trkpt lat="49.19993" lon="-0.04953">
        <ele>25.1</ele>
        <time>2023-11-22T13:36:13Z</time>
      </trkpt>
      <trkpt lat="49.19987" lon="-0.04945">
        <ele>25.4</ele>
        <time>2023-11-22T13:36:14Z</time>
      </trkpt>
      <trkpt lat="49.19982" lon="-0.04937">
        <ele>25.6</ele>
        <time>2023-11-22T13:36:15Z</time>
      </trkpt>
      <trkpt lat="49.19976" lon="-0.0493">
        <ele>25.9</ele>
        <time>2023-11-22T13:36:16Z</time>
      </trkpt>
      <trkpt lat="49.19971" lon="-0.04923">
        <ele>26.1</ele>
        <time>2023-11-22T13:36:17Z</time>
      </trkpt>
      <trkpt lat="49.19965" lon="-0.04916">
        <ele>26.3</ele>
        <time>2023-11-22T13:36:18Z</time>
      </trkpt>
      <trkpt lat="49.1996" lon="-0.0491">
        <ele>26.5</ele>
        <time>2023-11-22T13:36:19Z</time>
      </trkpt>
      <trkpt lat="49.19955" lon="-0.04903">
        <ele>26.7</ele>
        <time>2023-11-22T13:36:20Z</time>
      </trkpt>
      <trkpt lat="49.19949" lon="-0.04897">
        <ele>26.8</ele>
        <time>2023-11-22T13:36:21Z</time>
      </trkpt>
      <trkpt lat="49.19944" lon="-0.0489">
        <ele>26.9</ele>
        <time>2023-11-22T13:36:22Z</time>
      </trkpt>
      <trkpt lat="49.19938" lon="-0.04882">
        <ele>27</ele>
        <time>2023-11-22T13:36:23Z</time>
      </trkpt>
      <trkpt lat="49.19933" lon="-0.04874">
        <ele>27</ele>
        <time>2023-11-22T13:36:24Z</time>
      </trkpt>
      <trkpt lat="49.19927" lon="-0.04866">
        <ele>27.1</ele>
        <time>2023-11-22T13:36:25Z</time>
      </trkpt>
      <trkpt lat="49.19921" lon="-0.04859">
        <ele>27.1</ele>
        <time>2023-11-22T13:36:26Z</time>
      </trkpt>
      <trkpt lat="49.19915" lon="-0.04851">
        <ele>27.1</ele>
        <time>2023-11-22T13:36:27Z</time>
      </trkpt>
      <trkpt lat="49.19909" lon="-0.04844">
        <ele>27.1</ele>
        <time>2023-11-22T13:36:28Z</time>
      </trkpt>
      <trkpt lat="49.19904" lon="-0.04836">
        <ele>27.1</ele>
        <time>2023-11-22T13:36:29Z</time>
      </trkpt>
      <trkpt lat="49.19898" lon="-0.04829">
        <ele>27.1</ele>
        <time>2023-11-22T13:36:30Z</time>
      </trkpt>
      <trkpt lat="49.19892" lon="-0.04822">
        <ele>27.1</ele>
        <time>2023-11-22T13:36:31Z</time>
      </trkpt>
      <trkpt lat="49.19886" lon="-0.04816">
        <ele>27.1</ele>
        <time>2023-11-22T13:36:32Z</time>
      </trkpt>
      <trkpt lat="49.1988" lon="-0.04809">
        <ele>27</ele>
        <time>2023-11-22T13:36:33Z</time>
      </trkpt>
      <trkpt lat="49.19873" lon="-0.04803">
        <ele>27</ele>
        <time>2023-11-22T13:36:34Z</time>
      </trkpt>
      <trkpt lat="49.19867" lon="-0.04798">
        <ele>26.9</ele>
        <time>2023-11-22T13:36:35Z</time>
      </trkpt>
      <trkpt lat="49.19861" lon="-0.04794">
        <ele>26.8</ele>
        <time>2023-11-22T13:36:36Z</time>
      </trkpt>
      <trkpt lat="49.19855" lon="-0.0479">
        <ele>26.7</ele>
        <time>2023-11-22T13:36:37Z</time>
      </trkpt>
      <trkpt lat="49.19849" lon="-0.04786">
        <ele>26.5</ele>
        <time>2023-11-22T13:36:38Z</time>
      </trkpt>
      <trkpt lat="49.19843" lon="-0.04784">
        <ele>26.3</ele>
        <time>2023-11-22T13:36:39Z</time>
      </trkpt>
      <trkpt lat="49.19837" lon="-0.04783">
        <ele>25.9</ele>
        <time>2023-11-22T13:36:40Z</time>
      </trkpt>
      <trkpt lat="49.19831" lon="-0.04783">
        <ele>25.4</ele>
        <time>2023-11-22T13:36:41Z</time>
      </trkpt>
      <trkpt lat="49.19824" lon="-0.04785">
        <ele>24.8</ele>
        <time>2023-11-22T13:36:42Z</time>
      </trkpt>
      <trkpt lat="49.19819" lon="-0.04788">
        <ele>24.1</ele>
        <time>2023-11-22T13:36:43Z</time>
      </trkpt>
      <trkpt lat="49.19812" lon="-0.04793">
        <ele>23.4</ele>
        <time>2023-11-22T13:36:44Z</time>
      </trkpt>
      <trkpt lat="49.19805" lon="-0.04799">
        <ele>22.5</ele>
        <time>2023-11-22T13:36:45Z</time>
      </trkpt>
      <trkpt lat="49.19798" lon="-0.04806">
        <ele>21.6</ele>
        <time>2023-11-22T13:36:46Z</time>
      </trkpt>
      <trkpt lat="49.1979" lon="-0.04811">
        <ele>20.7</ele>
        <time>2023-11-22T13:36:47Z</time>
      </trkpt>
      <trkpt lat="49.19781" lon="-0.04816">
        <ele>19.9</ele>
        <time>2023-11-22T13:36:48Z</time>
      </trkpt>
      <trkpt lat="49.19771" lon="-0.04818">
        <ele>19.2</ele>
        <time>2023-11-22T13:36:49Z</time>
      </trkpt>
      <trkpt lat="49.19762" lon="-0.04818">
        <ele>18.6</ele>
        <time>2023-11-22T13:36:50Z</time>
      </trkpt>
      <trkpt lat="49.19753" lon="-0.04818">
        <ele>18.1</ele>
        <time>2023-11-22T13:36:51Z</time>
      </trkpt>
      <trkpt lat="49.19744" lon="-0.04815">
        <ele>17.7</ele>
        <time>2023-11-22T13:36:52Z</time>
      </trkpt>
      <trkpt lat="49.19736" lon="-0.04811">
        <ele>17.3</ele>
        <time>2023-11-22T13:36:53Z</time>
      </trkpt>
      <trkpt lat="49.19729" lon="-0.04804">
        <ele>17</ele>
        <time>2023-11-22T13:36:54Z</time>
      </trkpt>
      <trkpt lat="49.19722" lon="-0.04797">
        <ele>16.7</ele>
        <time>2023-11-22T13:36:55Z</time>
      </trkpt>
      <trkpt lat="49.19715" lon="-0.0479">
        <ele>16.5</ele>
        <time>2023-11-22T13:36:56Z</time>
      </trkpt>
      <trkpt lat="49.19708" lon="-0.04783">
        <ele>16.4</ele>
        <time>2023-11-22T13:36:57Z</time>
      </trkpt>
      <trkpt lat="49.19701" lon="-0.04779">
        <ele>16.2</ele>
        <time>2023-11-22T13:36:58Z</time>
      </trkpt>
      <trkpt lat="49.19693" lon="-0.04776">
        <ele>16.1</ele>
        <time>2023-11-22T13:36:59Z</time>
      </trkpt>
      <trkpt lat="49.19684" lon="-0.04775">
        <ele>16</ele>
        <time>2023-11-22T13:37:00Z</time>
      </trkpt>
      <trkpt lat="49.19675" lon="-0.04775">
        <ele>16</ele>
        <time>2023-11-22T13:37:01Z</time>
      </trkpt>
      <trkpt lat="49.19666" lon="-0.04774">
        <ele>16</ele>
        <time>2023-11-22T13:37:02Z</time>
      </trkpt>
      <trkpt lat="49.19657" lon="-0.04772">
        <ele>16.1</ele>
        <time>2023-11-22T13:37:03Z</time>
      </trkpt>
      <trkpt lat="49.19648" lon="-0.04771">
        <ele>16.2</ele>
        <time>2023-11-22T13:37:04Z</time>
      </trkpt>
      <trkpt lat="49.19639" lon="-0.0477">
        <ele>16.3</ele>
        <time>2023-11-22T13:37:05Z</time>
      </trkpt>
      <trkpt lat="49.19629" lon="-0.04769">
        <ele>16.5</ele>
        <time>2023-11-22T13:37:06Z</time>
      </trkpt>
      <trkpt lat="49.19621" lon="-0.04767">
        <ele>16.7</ele>
        <time>2023-11-22T13:37:07Z</time>
      </trkpt>
      <trkpt lat="49.19612" lon="-0.04766">
        <ele>17</ele>
        <time>2023-11-22T13:37:08Z</time>
      </trkpt>
      <trkpt lat="49.19604" lon="-0.04765">
        <ele>17.4</ele>
        <time>2023-11-22T13:37:09Z</time>
      </trkpt>
      <trkpt lat="49.19597" lon="-0.04764">
        <ele>17.7</ele>
        <time>2023-11-22T13:37:10Z</time>
      </trkpt>
      <trkpt lat="49.1959" lon="-0.04763">
        <ele>18</ele>
        <time>2023-11-22T13:37:11Z</time>
      </trkpt>
      <trkpt lat="49.19583" lon="-0.04762">
        <ele>18.4</ele>
        <time>2023-11-22T13:37:12Z</time>
      </trkpt>
      <trkpt lat="49.19576" lon="-0.04761">
        <ele>18.8</ele>
        <time>2023-11-22T13:37:13Z</time>
      </trkpt>
      <trkpt lat="49.1957" lon="-0.04761">
        <ele>19.2</ele>
        <time>2023-11-22T13:37:14Z</time>
      </trkpt>
      <trkpt lat="49.19564" lon="-0.04761">
        <ele>19.6</ele>
        <time>2023-11-22T13:37:15Z</time>
      </trkpt>
      <trkpt lat="49.19557" lon="-0.04761">
        <ele>19.9</ele>
        <time>2023-11-22T13:37:16Z</time>
      </trkpt>
      <trkpt lat="49.19551" lon="-0.04761">
        <ele>20.3</ele>
        <time>2023-11-22T13:37:17Z</time>
      </trkpt>
      <trkpt lat="49.19545" lon="-0.04761">
        <ele>20.7</ele>
        <time>2023-11-22T13:37:18Z</time>
      </trkpt>
      <trkpt lat="49.19539" lon="-0.0476">
        <ele>21.1</ele>
        <time>2023-11-22T13:37:19Z</time>
      </trkpt>
      <trkpt lat="49.19533" lon="-0.0476">
        <ele>21.5</ele>
        <time>2023-11-22T13:37:20Z</time>
      </trkpt>
      <trkpt lat="49.19527" lon="-0.04759">
        <ele>21.9</ele>
        <time>2023-11-22T13:37:21Z</time>
      </trkpt>
      <trkpt lat="49.19521" lon="-0.04759">
        <ele>22.2</ele>
        <time>2023-11-22T13:37:22Z</time>
      </trkpt>
      <trkpt lat="49.19516" lon="-0.04759">
        <ele>22.6</ele>
        <time>2023-11-22T13:37:23Z</time>
      </trkpt>
      <trkpt lat="49.19511" lon="-0.04759">
        <ele>22.9</ele>
        <time>2023-11-22T13:37:24Z</time>
      </trkpt>
      <trkpt lat="49.19506" lon="-0.04758">
        <ele>23.2</ele>
        <time>2023-11-22T13:37:25Z</time>
      </trkpt>
      <trkpt lat="49.19501" lon="-0.04758">
        <ele>23.4</ele>
        <time>2023-11-22T13:37:26Z</time>
      </trkpt>
      <trkpt lat="49.19496" lon="-0.04758">
        <ele>23.7</ele>
        <time>2023-11-22T13:37:27Z</time>
      </trkpt>
      <trkpt lat="49.19491" lon="-0.04758">
        <ele>24</ele>
        <time>2023-11-22T13:37:28Z</time>
      </trkpt>
      <trkpt lat="49.19487" lon="-0.04758">
        <ele>24.2</ele>
        <time>2023-11-22T13:37:29Z</time>
      </trkpt>
      <trkpt lat="49.19482" lon="-0.04758">
        <ele>24.5</ele>
        <time>2023-11-22T13:37:30Z</time>
      </trkpt>
      <trkpt lat="49.19477" lon="-0.04758">
        <ele>24.8</ele>
        <time>2023-11-22T13:37:31Z</time>
      </trkpt>
      <trkpt lat="49.19472" lon="-0.04758">
        <ele>25</ele>
        <time>2023-11-22T13:37:32Z</time>
      </trkpt>
      <trkpt lat="49.19467" lon="-0.04758">
        <ele>25.3</ele>
        <time>2023-11-22T13:37:33Z</time>
      </trkpt>
      <trkpt lat="49.19463" lon="-0.04759">
        <ele>25.5</ele>
        <time>2023-11-22T13:37:34Z</time>
      </trkpt>
      <trkpt lat="49.19459" lon="-0.04759">
        <ele>25.8</ele>
        <time>2023-11-22T13:37:35Z</time>
      </trkpt>
      <trkpt lat="49.19455" lon="-0.04759">
        <ele>26</ele>
        <time>2023-11-22T13:37:36Z</time>
      </trkpt>
      <trkpt lat="49.19451" lon="-0.0476">
        <ele>26.2</ele>
        <time>2023-11-22T13:37:37Z</time>
      </trkpt>
      <trkpt lat="49.19448" lon="-0.0476">
        <ele>26.3</ele>
        <time>2023-11-22T13:37:38Z</time>
      </trkpt>
      <trkpt lat="49.19444" lon="-0.0476">
        <ele>26.5</ele>
        <time>2023-11-22T13:37:39Z</time>
      </trkpt>
      <trkpt lat="49.1944" lon="-0.0476">
        <ele>26.7</ele>
        <time>2023-11-22T13:37:40Z</time>
      </trkpt>
      <trkpt lat="49.19437" lon="-0.04759">
        <ele>26.9</ele>
        <time>2023-11-22T13:37:41Z</time>
      </trkpt>
      <trkpt lat="49.19433" lon="-0.04759">
        <ele>27.1</ele>
        <time>2023-11-22T13:37:42Z</time>
      </trkpt>
      <trkpt lat="49.1943" lon="-0.04759">
        <ele>27.2</ele>
        <time>2023-11-22T13:37:43Z</time>
      </trkpt>
      <trkpt lat="49.19427" lon="-0.04759">
        <ele>27.3</ele>
        <time>2023-11-22T13:37:44Z</time>
      </trkpt>
      <trkpt lat="49.19424" lon="-0.0476">
        <ele>27.5</ele>
        <time>2023-11-22T13:37:45Z</time>
      </trkpt>
      <trkpt lat="49.19422" lon="-0.0476">
        <ele>27.5</ele>
        <time>2023-11-22T13:37:46Z</time>
      </trkpt>
      <trkpt lat="49.19419" lon="-0.04759">
        <ele>27.6</ele>
        <time>2023-11-22T13:37:47Z</time>
      </trkpt>
      <trkpt lat="49.19418" lon="-0.04759">
        <ele>27.7</ele>
        <time>2023-11-22T13:37:48Z</time>
      </trkpt>
      <trkpt lat="49.19414" lon="-0.0476">
        <ele>27.8</ele>
        <time>2023-11-22T13:37:49Z</time>
      </trkpt>
      <trkpt lat="49.19413" lon="-0.0476">
        <ele>27.8</ele>
        <time>2023-11-22T13:37:50Z</time>
      </trkpt>
      <trkpt lat="49.19409" lon="-0.0476">
        <ele>27.9</ele>
        <time>2023-11-22T13:37:51Z</time>
      </trkpt>
      <trkpt lat="49.19408" lon="-0.04761">
        <ele>28</ele>
        <time>2023-11-22T13:37:52Z</time>
      </trkpt>
      <trkpt lat="49.19404" lon="-0.0476">
        <ele>28</ele>
        <time>2023-11-22T13:37:53Z</time>
      </trkpt>
      <trkpt lat="49.19403" lon="-0.0476">
        <ele>28</ele>
        <time>2023-11-22T13:37:54Z</time>
      </trkpt>
      <trkpt lat="49.194" lon="-0.04758">
        <ele>28</ele>
        <time>2023-11-22T13:37:55Z</time>
      </trkpt>
      <trkpt lat="49.19397" lon="-0.04755">
        <ele>28</ele>
        <time>2023-11-22T13:37:56Z</time>
      </trkpt>
      <trkpt lat="49.19395" lon="-0.04751">
        <ele>28</ele>
        <time>2023-11-22T13:37:57Z</time>
      </trkpt>
      <trkpt lat="49.19392" lon="-0.04747">
        <ele>27.9</ele>
        <time>2023-11-22T13:37:58Z</time>
      </trkpt>
      <trkpt lat="49.19388" lon="-0.04744">
        <ele>27.8</ele>
        <time>2023-11-22T13:37:59Z</time>
      </trkpt>
      <trkpt lat="49.19385" lon="-0.0474">
        <ele>27.6</ele>
        <time>2023-11-22T13:38:00Z</time>
      </trkpt>
      <trkpt lat="49.19382" lon="-0.04736">
        <ele>27.5</ele>
        <time>2023-11-22T13:38:01Z</time>
      </trkpt>
      <trkpt lat="49.19378" lon="-0.04732">
        <ele>27.3</ele>
        <time>2023-11-22T13:38:02Z</time>
      </trkpt>
      <trkpt lat="49.19374" lon="-0.04729">
        <ele>27</ele>
        <time>2023-11-22T13:38:03Z</time>
      </trkpt>
      <trkpt lat="49.19369" lon="-0.04725">
        <ele>26.7</ele>
        <time>2023-11-22T13:38:04Z</time>
      </trkpt>
      <trkpt lat="49.19363" lon="-0.04723">
        <ele>26.4</ele>
        <time>2023-11-22T13:38:05Z</time>
      </trkpt>
      <trkpt lat="49.19358" lon="-0.04722">
        <ele>26</ele>
        <time>2023-11-22T13:38:06Z</time>
      </trkpt>
      <trkpt lat="49.19351" lon="-0.04722">
        <ele>25.6</ele>
        <time>2023-11-22T13:38:07Z</time>
      </trkpt>
      <trkpt lat="49.19344" lon="-0.04722">
        <ele>25.2</ele>
        <time>2023-11-22T13:38:08Z</time>
      </trkpt>
      <trkpt lat="49.19336" lon="-0.04722">
        <ele>24.7</ele>
        <time>2023-11-22T13:38:09Z</time>
      </trkpt>
      <trkpt lat="49.19328" lon="-0.0472">
        <ele>24.2</ele>
        <time>2023-11-22T13:38:10Z</time>
      </trkpt>
      <trkpt lat="49.1932" lon="-0.04718">
        <ele>23.6</ele>
        <time>2023-11-22T13:38:11Z</time>
      </trkpt>
      <trkpt lat="49.19312" lon="-0.04716">
        <ele>23.1</ele>
        <time>2023-11-22T13:38:12Z</time>
      </trkpt>
      <trkpt lat="49.19303" lon="-0.04714">
        <ele>22.5</ele>
        <time>2023-11-22T13:38:13Z</time>
      </trkpt>
      <trkpt lat="49.19295" lon="-0.04711">
        <ele>22</ele>
        <time>2023-11-22T13:38:14Z</time>
      </trkpt>
      <trkpt lat="49.19288" lon="-0.04708">
        <ele>21.4</ele>
        <time>2023-11-22T13:38:15Z</time>
      </trkpt>
      <trkpt lat="49.19279" lon="-0.04705">
        <ele>20.8</ele>
        <time>2023-11-22T13:38:16Z</time>
      </trkpt>
      <trkpt lat="49.19271" lon="-0.04701">
        <ele>20.1</ele>
        <time>2023-11-22T13:38:17Z</time>
      </trkpt>
      <trkpt lat="49.19262" lon="-0.04697">
        <ele>19.5</ele>
        <time>2023-11-22T13:38:18Z</time>
      </trkpt>
      <trkpt lat="49.19253" lon="-0.04693">
        <ele>18.8</ele>
        <time>2023-11-22T13:38:19Z</time>
      </trkpt>
      <trkpt lat="49.19245" lon="-0.04689">
        <ele>18.1</ele>
        <time>2023-11-22T13:38:20Z</time>
      </trkpt>
      <trkpt lat="49.19236" lon="-0.04685">
        <ele>17.5</ele>
        <time>2023-11-22T13:38:21Z</time>
      </trkpt>
      <trkpt lat="49.19226" lon="-0.04679">
        <ele>16.8</ele>
        <time>2023-11-22T13:38:22Z</time>
      </trkpt>
      <trkpt lat="49.19217" lon="-0.04673">
        <ele>16.3</ele>
        <time>2023-11-22T13:38:23Z</time>
      </trkpt>
      <trkpt lat="49.19207" lon="-0.04668">
        <ele>15.7</ele>
        <time>2023-11-22T13:38:24Z</time>
      </trkpt>
      <trkpt lat="49.19197" lon="-0.04662">
        <ele>15.2</ele>
        <time>2023-11-22T13:38:25Z</time>
      </trkpt>
      <trkpt lat="49.19188" lon="-0.04656">
        <ele>14.6</ele>
        <time>2023-11-22T13:38:26Z</time>
      </trkpt>
      <trkpt lat="49.19178" lon="-0.04651">
        <ele>14.1</ele>
        <time>2023-11-22T13:38:27Z</time>
      </trkpt>
      <trkpt lat="49.19168" lon="-0.04646">
        <ele>13.7</ele>
        <time>2023-11-22T13:38:28Z</time>
      </trkpt>
      <trkpt lat="49.19158" lon="-0.04642">
        <ele>13.3</ele>
        <time>2023-11-22T13:38:29Z</time>
      </trkpt>
      <trkpt lat="49.19148" lon="-0.04638">
        <ele>13</ele>
        <time>2023-11-22T13:38:30Z</time>
      </trkpt>
      <trkpt lat="49.19137" lon="-0.04635">
        <ele>12.7</ele>
        <time>2023-11-22T13:38:31Z</time>
      </trkpt>
      <trkpt lat="49.19127" lon="-0.04634">
        <ele>12.5</ele>
        <time>2023-11-22T13:38:32Z</time>
      </trkpt>
      <trkpt lat="49.19117" lon="-0.04632">
        <ele>12.4</ele>
        <time>2023-11-22T13:38:33Z</time>
      </trkpt>
      <trkpt lat="49.19108" lon="-0.04631">
        <ele>12.2</ele>
        <time>2023-11-22T13:38:34Z</time>
      </trkpt>
      <trkpt lat="49.19098" lon="-0.04631">
        <ele>12.1</ele>
        <time>2023-11-22T13:38:35Z</time>
      </trkpt>
      <trkpt lat="49.1909" lon="-0.04631">
        <ele>12.1</ele>
        <time>2023-11-22T13:38:36Z</time>
      </trkpt>
      <trkpt lat="49.19082" lon="-0.0463">
        <ele>12</ele>
        <time>2023-11-22T13:38:37Z</time>
      </trkpt>
      <trkpt lat="49.19075" lon="-0.0463">
        <ele>12</ele>
        <time>2023-11-22T13:38:38Z</time>
      </trkpt>
      <trkpt lat="49.19068" lon="-0.04629">
        <ele>12</ele>
        <time>2023-11-22T13:38:39Z</time>
      </trkpt>
      <trkpt lat="49.19062" lon="-0.04627">
        <ele>12</ele>
        <time>2023-11-22T13:38:40Z</time>
      </trkpt>
      <trkpt lat="49.19056" lon="-0.04626">
        <ele>12</ele>
        <time>2023-11-22T13:38:41Z</time>
      </trkpt>
      <trkpt lat="49.19051" lon="-0.04626">
        <ele>11.9</ele>
        <time>2023-11-22T13:38:42Z</time>
      </trkpt>
      <trkpt lat="49.19045" lon="-0.04626">
        <ele>11.9</ele>
        <time>2023-11-22T13:38:43Z</time>
      </trkpt>
      <trkpt lat="49.19041" lon="-0.0463">
        <ele>11.9</ele>
        <time>2023-11-22T13:38:44Z</time>
      </trkpt>
      <trkpt lat="49.19038" lon="-0.04636">
        <ele>12.2</ele>
        <time>2023-11-22T13:38:45Z</time>
      </trkpt>
      <trkpt lat="49.19036" lon="-0.04644">
        <ele>12.7</ele>
        <time>2023-11-22T13:38:46Z</time>
      </trkpt>
      <trkpt lat="49.19037" lon="-0.04652">
        <ele>13</ele>
        <time>2023-11-22T13:38:47Z</time>
      </trkpt>
      <trkpt lat="49.19038" lon="-0.04661">
        <ele>13.1</ele>
        <time>2023-11-22T13:38:48Z</time>
      </trkpt>
      <trkpt lat="49.19039" lon="-0.0467">
        <ele>13.1</ele>
        <time>2023-11-22T13:38:49Z</time>
      </trkpt>
      <trkpt lat="49.19041" lon="-0.04679">
        <ele>13.2</ele>
        <time>2023-11-22T13:38:50Z</time>
      </trkpt>
      <trkpt lat="49.19043" lon="-0.04689">
        <ele>13.2</ele>
        <time>2023-11-22T13:38:51Z</time>
      </trkpt>
      <trkpt lat="49.19043" lon="-0.04699">
        <ele>13.3</ele>
        <time>2023-11-22T13:38:52Z</time>
      </trkpt>
      <trkpt lat="49.19043" lon="-0.04709">
        <ele>13.4</ele>
        <time>2023-11-22T13:38:53Z</time>
      </trkpt>
      <trkpt lat="49.19041" lon="-0.0472">
        <ele>13.4</ele>
        <time>2023-11-22T13:38:54Z</time>
      </trkpt>
      <trkpt lat="49.19038" lon="-0.0473">
        <ele>13.3</ele>
        <time>2023-11-22T13:38:55Z</time>
      </trkpt>
      <trkpt lat="49.19033" lon="-0.04739">
        <ele>13.2</ele>
        <time>2023-11-22T13:38:56Z</time>
      </trkpt>
      <trkpt lat="49.19028" lon="-0.04747">
        <ele>13.1</ele>
        <time>2023-11-22T13:38:57Z</time>
      </trkpt>
      <trkpt lat="49.19022" lon="-0.04753">
        <ele>13</ele>
        <time>2023-11-22T13:38:58Z</time>
      </trkpt>
      <trkpt lat="49.19014" lon="-0.04757">
        <ele>12.8</ele>
        <time>2023-11-22T13:38:59Z</time>
      </trkpt>
      <trkpt lat="49.19006" lon="-0.04759">
        <ele>12.6</ele>
        <time>2023-11-22T13:39:00Z</time>
      </trkpt>
      <trkpt lat="49.18998" lon="-0.04759">
        <ele>12.5</ele>
        <time>2023-11-22T13:39:01Z</time>
      </trkpt>
      <trkpt lat="49.1899" lon="-0.04759">
        <ele>12.3</ele>
        <time>2023-11-22T13:39:02Z</time>
      </trkpt>
      <trkpt lat="49.18982" lon="-0.04759">
        <ele>12.2</ele>
        <time>2023-11-22T13:39:03Z</time>
      </trkpt>
      <trkpt lat="49.18975" lon="-0.04759">
        <ele>12.1</ele>
        <time>2023-11-22T13:39:04Z</time>
      </trkpt>
      <trkpt lat="49.18967" lon="-0.04759">
        <ele>11.9</ele>
        <time>2023-11-22T13:39:05Z</time>
      </trkpt>
      <trkpt lat="49.18959" lon="-0.04759">
        <ele>11.7</ele>
        <time>2023-11-22T13:39:06Z</time>
      </trkpt>
      <trkpt lat="49.18952" lon="-0.04759">
        <ele>11.5</ele>
        <time>2023-11-22T13:39:07Z</time>
      </trkpt>
      <trkpt lat="49.18944" lon="-0.04759">
        <ele>11.4</ele>
        <time>2023-11-22T13:39:08Z</time>
      </trkpt>
      <trkpt lat="49.18937" lon="-0.04758">
        <ele>11.3</ele>
        <time>2023-11-22T13:39:09Z</time>
      </trkpt>
      <trkpt lat="49.18929" lon="-0.04758">
        <ele>11.2</ele>
        <time>2023-11-22T13:39:10Z</time>
      </trkpt>
      <trkpt lat="49.18922" lon="-0.04758">
        <ele>11.1</ele>
        <time>2023-11-22T13:39:11Z</time>
      </trkpt>
      <trkpt lat="49.18914" lon="-0.04759">
        <ele>11</ele>
        <time>2023-11-22T13:39:12Z</time>
      </trkpt>
      <trkpt lat="49.18907" lon="-0.04759">
        <ele>10.9</ele>
        <time>2023-11-22T13:39:13Z</time>
      </trkpt>
      <trkpt lat="49.189" lon="-0.04759">
        <ele>10.8</ele>
        <time>2023-11-22T13:39:14Z</time>
      </trkpt>
      <trkpt lat="49.18893" lon="-0.04759">
        <ele>10.8</ele>
        <time>2023-11-22T13:39:15Z</time>
      </trkpt>
      <trkpt lat="49.18886" lon="-0.04759">
        <ele>10.7</ele>
        <time>2023-11-22T13:39:16Z</time>
      </trkpt>
      <trkpt lat="49.18879" lon="-0.04759">
        <ele>10.6</ele>
        <time>2023-11-22T13:39:17Z</time>
      </trkpt>
      <trkpt lat="49.18872" lon="-0.0476">
        <ele>10.5</ele>
        <time>2023-11-22T13:39:18Z</time>
      </trkpt>
      <trkpt lat="49.18865" lon="-0.04759">
        <ele>10.5</ele>
        <time>2023-11-22T13:39:19Z</time>
      </trkpt>
      <trkpt lat="49.18858" lon="-0.04759">
        <ele>10.5</ele>
        <time>2023-11-22T13:39:20Z</time>
      </trkpt>
      <trkpt lat="49.18852" lon="-0.0476">
        <ele>10.5</ele>
        <time>2023-11-22T13:39:21Z</time>
      </trkpt>
      <trkpt lat="49.18845" lon="-0.0476">
        <ele>10.5</ele>
        <time>2023-11-22T13:39:22Z</time>
      </trkpt>
      <trkpt lat="49.18839" lon="-0.0476">
        <ele>10.5</ele>
        <time>2023-11-22T13:39:23Z</time>
      </trkpt>
      <trkpt lat="49.18833" lon="-0.0476">
        <ele>10.5</ele>
        <time>2023-11-22T13:39:24Z</time>
      </trkpt>
      <trkpt lat="49.18826" lon="-0.04759">
        <ele>10.5</ele>
        <time>2023-11-22T13:39:25Z</time>
      </trkpt>
      <trkpt lat="49.1882" lon="-0.04757">
        <ele>10.5</ele>
        <time>2023-11-22T13:39:26Z</time>
      </trkpt>
      <trkpt lat="49.18815" lon="-0.04753">
        <ele>10.5</ele>
        <time>2023-11-22T13:39:27Z</time>
      </trkpt>
      <trkpt lat="49.1881" lon="-0.04746">
        <ele>10.5</ele>
        <time>2023-11-22T13:39:28Z</time>
      </trkpt>
      <trkpt lat="49.18806" lon="-0.04739">
        <ele>10.5</ele>
        <time>2023-11-22T13:39:29Z</time>
      </trkpt>
      <trkpt lat="49.18803" lon="-0.04732">
        <ele>10.5</ele>
        <time>2023-11-22T13:39:30Z</time>
      </trkpt>
      <trkpt lat="49.18799" lon="-0.04725">
        <ele>10.5</ele>
        <time>2023-11-22T13:39:31Z</time>
      </trkpt>
      <trkpt lat="49.18795" lon="-0.04718">
        <ele>10.5</ele>
        <time>2023-11-22T13:39:32Z</time>
      </trkpt>
      <trkpt lat="49.18791" lon="-0.04713">
        <ele>10.5</ele>
        <time>2023-11-22T13:39:33Z</time>
      </trkpt>
      <trkpt lat="49.18786" lon="-0.0471">
        <ele>10.5</ele>
        <time>2023-11-22T13:39:34Z</time>
      </trkpt>
      <trkpt lat="49.18781" lon="-0.04707">
        <ele>10.5</ele>
        <time>2023-11-22T13:39:35Z</time>
      </trkpt>
      <trkpt lat="49.18776" lon="-0.04704">
        <ele>10.5</ele>
        <time>2023-11-22T13:39:36Z</time>
      </trkpt>
      <trkpt lat="49.18772" lon="-0.04702">
        <ele>10.5</ele>
        <time>2023-11-22T13:39:37Z</time>
      </trkpt>
      <trkpt lat="49.18767" lon="-0.04699">
        <ele>10.4</ele>
        <time>2023-11-22T13:39:38Z</time>
      </trkpt>
      <trkpt lat="49.18762" lon="-0.04695">
        <ele>10.5</ele>
        <time>2023-11-22T13:39:39Z</time>
      </trkpt>
      <trkpt lat="49.18756" lon="-0.04692">
        <ele>10.5</ele>
        <time>2023-11-22T13:39:40Z</time>
      </trkpt>
      <trkpt lat="49.18751" lon="-0.04689">
        <ele>10.5</ele>
        <time>2023-11-22T13:39:41Z</time>
      </trkpt>
      <trkpt lat="49.18746" lon="-0.04686">
        <ele>10.5</ele>
        <time>2023-11-22T13:39:42Z</time>
      </trkpt>
      <trkpt lat="49.18741" lon="-0.04684">
        <ele>10.5</ele>
        <time>2023-11-22T13:39:43Z</time>
      </trkpt>
      <trkpt lat="49.18736" lon="-0.0468">
        <ele>10.5</ele>
        <time>2023-11-22T13:39:44Z</time>
      </trkpt>
      <trkpt lat="49.18732" lon="-0.04676">
        <ele>10.5</ele>
        <time>2023-11-22T13:39:45Z</time>
      </trkpt>
      <trkpt lat="49.18729" lon="-0.0467">
        <ele>10.5</ele>
        <time>2023-11-22T13:39:46Z</time>
      </trkpt>
      <trkpt lat="49.18728" lon="-0.04662">
        <ele>10.5</ele>
        <time>2023-11-22T13:39:47Z</time>
      </trkpt>
      <trkpt lat="49.18729" lon="-0.04655">
        <ele>10.5</ele>
        <time>2023-11-22T13:39:48Z</time>
      </trkpt>
      <trkpt lat="49.18731" lon="-0.04648">
        <ele>10.5</ele>
        <time>2023-11-22T13:39:49Z</time>
      </trkpt>
      <trkpt lat="49.18733" lon="-0.04641">
        <ele>10.5</ele>
        <time>2023-11-22T13:39:50Z</time>
      </trkpt>
      <trkpt lat="49.18735" lon="-0.04635">
        <ele>10.4</ele>
        <time>2023-11-22T13:39:51Z</time>
      </trkpt>
      <trkpt lat="49.18736" lon="-0.04628">
        <ele>10.4</ele>
        <time>2023-11-22T13:39:52Z</time>
      </trkpt>
      <trkpt lat="49.18738" lon="-0.04622">
        <ele>10.4</ele>
        <time>2023-11-22T13:39:53Z</time>
      </trkpt>
      <trkpt lat="49.1874" lon="-0.04616">
        <ele>10.4</ele>
        <time>2023-11-22T13:39:54Z</time>
      </trkpt>
      <trkpt lat="49.18741" lon="-0.04609">
        <ele>10.4</ele>
        <time>2023-11-22T13:39:55Z</time>
      </trkpt>
      <trkpt lat="49.18743" lon="-0.04603">
        <ele>10.4</ele>
        <time>2023-11-22T13:39:56Z</time>
      </trkpt>
      <trkpt lat="49.18745" lon="-0.04597">
        <ele>10.3</ele>
        <time>2023-11-22T13:39:57Z</time>
      </trkpt>
      <trkpt lat="49.18747" lon="-0.04591">
        <ele>10.3</ele>
        <time>2023-11-22T13:39:58Z</time>
      </trkpt>
      <trkpt lat="49.18747" lon="-0.04585">
        <ele>10.3</ele>
        <time>2023-11-22T13:39:59Z</time>
      </trkpt>
      <trkpt lat="49.18745" lon="-0.0458">
        <ele>10.3</ele>
        <time>2023-11-22T13:40:00Z</time>
      </trkpt>
      <trkpt lat="49.1874" lon="-0.04576">
        <ele>10.4</ele>
        <time>2023-11-22T13:40:01Z</time>
      </trkpt>
      <trkpt lat="49.18734" lon="-0.04572">
        <ele>10.4</ele>
        <time>2023-11-22T13:40:02Z</time>
      </trkpt>
      <trkpt lat="49.18729" lon="-0.04568">
        <ele>10.4</ele>
        <time>2023-11-22T13:40:03Z</time>
      </trkpt>
      <trkpt lat="49.18723" lon="-0.04565">
        <ele>10.5</ele>
        <time>2023-11-22T13:40:04Z</time>
      </trkpt>
      <trkpt lat="49.18717" lon="-0.04561">
        <ele>10.5</ele>
        <time>2023-11-22T13:40:05Z</time>
      </trkpt>
      <trkpt lat="49.18711" lon="-0.04556">
        <ele>10.5</ele>
        <time>2023-11-22T13:40:06Z</time>
      </trkpt>
      <trkpt lat="49.18705" lon="-0.04551">
        <ele>10.6</ele>
        <time>2023-11-22T13:40:07Z</time>
      </trkpt>
      <trkpt lat="49.18699" lon="-0.04546">
        <ele>10.6</ele>
        <time>2023-11-22T13:40:08Z</time>
      </trkpt>
      <trkpt lat="49.18692" lon="-0.04541">
        <ele>10.6</ele>
        <time>2023-11-22T13:40:09Z</time>
      </trkpt>
      <trkpt lat="49.18686" lon="-0.04537">
        <ele>10.6</ele>
        <time>2023-11-22T13:40:10Z</time>
      </trkpt>
      <trkpt lat="49.1868" lon="-0.04532">
        <ele>10.6</ele>
        <time>2023-11-22T13:40:11Z</time>
      </trkpt>
      <trkpt lat="49.18674" lon="-0.04528">
        <ele>10.6</ele>
        <time>2023-11-22T13:40:12Z</time>
      </trkpt>
      <trkpt lat="49.18667" lon="-0.04523">
        <ele>10.6</ele>
        <time>2023-11-22T13:40:13Z</time>
      </trkpt>
      <trkpt lat="49.18661" lon="-0.04518">
        <ele>10.7</ele>
        <time>2023-11-22T13:40:14Z</time>
      </trkpt>
      <trkpt lat="49.18655" lon="-0.04514">
        <ele>10.7</ele>
        <time>2023-11-22T13:40:15Z</time>
      </trkpt>
      <trkpt lat="49.18649" lon="-0.0451">
        <ele>10.7</ele>
        <time>2023-11-22T13:40:16Z</time>
      </trkpt>
      <trkpt lat="49.18642" lon="-0.04507">
        <ele>10.7</ele>
        <time>2023-11-22T13:40:17Z</time>
      </trkpt>
      <trkpt lat="49.18635" lon="-0.04504">
        <ele>10.7</ele>
        <time>2023-11-22T13:40:18Z</time>
      </trkpt>
      <trkpt lat="49.18628" lon="-0.04501">
        <ele>10.7</ele>
        <time>2023-11-22T13:40:19Z</time>
      </trkpt>
      <trkpt lat="49.18621" lon="-0.04498">
        <ele>10.7</ele>
        <time>2023-11-22T13:40:20Z</time>
      </trkpt>
      <trkpt lat="49.18614" lon="-0.04496">
        <ele>10.7</ele>
        <time>2023-11-22T13:40:21Z</time>
      </trkpt>
      <trkpt lat="49.18607" lon="-0.04494">
        <ele>10.7</ele>
        <time>2023-11-22T13:40:22Z</time>
      </trkpt>
      <trkpt lat="49.18599" lon="-0.04492">
        <ele>10.6</ele>
        <time>2023-11-22T13:40:23Z</time>
      </trkpt>
      <trkpt lat="49.18591" lon="-0.0449">
        <ele>10.6</ele>
        <time>2023-11-22T13:40:24Z</time>
      </trkpt>
      <trkpt lat="49.18583" lon="-0.04489">
        <ele>10.6</ele>
        <time>2023-11-22T13:40:25Z</time>
      </trkpt>
      <trkpt lat="49.18575" lon="-0.04487">
        <ele>10.6</ele>
        <time>2023-11-22T13:40:26Z</time>
      </trkpt>
      <trkpt lat="49.18567" lon="-0.04486">
        <ele>10.6</ele>
        <time>2023-11-22T13:40:27Z</time>
      </trkpt>
      <trkpt lat="49.18559" lon="-0.04486">
        <ele>10.5</ele>
        <time>2023-11-22T13:40:28Z</time>
      </trkpt>
      <trkpt lat="49.18551" lon="-0.04485">
        <ele>10.5</ele>
        <time>2023-11-22T13:40:29Z</time>
      </trkpt>
      <trkpt lat="49.18544" lon="-0.04484">
        <ele>10.4</ele>
        <time>2023-11-22T13:40:30Z</time>
      </trkpt>
      <trkpt lat="49.18537" lon="-0.04483">
        <ele>10.4</ele>
        <time>2023-11-22T13:40:31Z</time>
      </trkpt>
      <trkpt lat="49.1853" lon="-0.04482">
        <ele>10.4</ele>
        <time>2023-11-22T13:40:32Z</time>
      </trkpt>
      <trkpt lat="49.18524" lon="-0.04482">
        <ele>10.4</ele>
        <time>2023-11-22T13:40:33Z</time>
      </trkpt>
      <trkpt lat="49.18517" lon="-0.0448">
        <ele>10.4</ele>
        <time>2023-11-22T13:40:34Z</time>
      </trkpt>
      <trkpt lat="49.18511" lon="-0.04478">
        <ele>10.4</ele>
        <time>2023-11-22T13:40:35Z</time>
      </trkpt>
      <trkpt lat="49.18505" lon="-0.04476">
        <ele>10.5</ele>
        <time>2023-11-22T13:40:36Z</time>
      </trkpt>
      <trkpt lat="49.18499" lon="-0.04474">
        <ele>10.5</ele>
        <time>2023-11-22T13:40:37Z</time>
      </trkpt>
      <trkpt lat="49.18492" lon="-0.04472">
        <ele>10.4</ele>
        <time>2023-11-22T13:40:38Z</time>
      </trkpt>
      <trkpt lat="49.18486" lon="-0.04469">
        <ele>10.4</ele>
        <time>2023-11-22T13:40:39Z</time>
      </trkpt>
      <trkpt lat="49.18479" lon="-0.04467">
        <ele>10.4</ele>
        <time>2023-11-22T13:40:40Z</time>
      </trkpt>
      <trkpt lat="49.18472" lon="-0.04465">
        <ele>10.4</ele>
        <time>2023-11-22T13:40:41Z</time>
      </trkpt>
      <trkpt lat="49.18466" lon="-0.04463">
        <ele>10.4</ele>
        <time>2023-11-22T13:40:42Z</time>
      </trkpt>
      <trkpt lat="49.18459" lon="-0.04461">
        <ele>10.4</ele>
        <time>2023-11-22T13:40:43Z</time>
      </trkpt>
      <trkpt lat="49.18453" lon="-0.04459">
        <ele>10.5</ele>
        <time>2023-11-22T13:40:44Z</time>
      </trkpt>
      <trkpt lat="49.18447" lon="-0.04457">
        <ele>10.5</ele>
        <time>2023-11-22T13:40:45Z</time>
      </trkpt>
      <trkpt lat="49.18441" lon="-0.04456">
        <ele>10.6</ele>
        <time>2023-11-22T13:40:46Z</time>
      </trkpt>
      <trkpt lat="49.18434" lon="-0.04454">
        <ele>10.6</ele>
        <time>2023-11-22T13:40:47Z</time>
      </trkpt>
      <trkpt lat="49.18429" lon="-0.04452">
        <ele>10.7</ele>
        <time>2023-11-22T13:40:48Z</time>
      </trkpt>
      <trkpt lat="49.18423" lon="-0.0445">
        <ele>10.7</ele>
        <time>2023-11-22T13:40:49Z</time>
      </trkpt>
      <trkpt lat="49.18417" lon="-0.04448">
        <ele>10.7</ele>
        <time>2023-11-22T13:40:50Z</time>
      </trkpt>
      <trkpt lat="49.18411" lon="-0.04446">
        <ele>10.7</ele>
        <time>2023-11-22T13:40:51Z</time>
      </trkpt>
      <trkpt lat="49.18405" lon="-0.04445">
        <ele>10.7</ele>
        <time>2023-11-22T13:40:52Z</time>
      </trkpt>
      <trkpt lat="49.18399" lon="-0.04443">
        <ele>10.7</ele>
        <time>2023-11-22T13:40:53Z</time>
      </trkpt>
      <trkpt lat="49.18393" lon="-0.04441">
        <ele>10.7</ele>
        <time>2023-11-22T13:40:54Z</time>
      </trkpt>
      <trkpt lat="49.18386" lon="-0.04439">
        <ele>10.7</ele>
        <time>2023-11-22T13:40:55Z</time>
      </trkpt>
      <trkpt lat="49.1838" lon="-0.04437">
        <ele>10.7</ele>
        <time>2023-11-22T13:40:56Z</time>
      </trkpt>
      <trkpt lat="49.18374" lon="-0.04434">
        <ele>10.7</ele>
        <time>2023-11-22T13:40:57Z</time>
      </trkpt>
      <trkpt lat="49.18367" lon="-0.04432">
        <ele>10.8</ele>
        <time>2023-11-22T13:40:58Z</time>
      </trkpt>
      <trkpt lat="49.18361" lon="-0.04429">
        <ele>10.8</ele>
        <time>2023-11-22T13:40:59Z</time>
      </trkpt>
      <trkpt lat="49.18353" lon="-0.04426">
        <ele>10.8</ele>
        <time>2023-11-22T13:41:00Z</time>
      </trkpt>
      <trkpt lat="49.18347" lon="-0.04424">
        <ele>10.9</ele>
        <time>2023-11-22T13:41:01Z</time>
      </trkpt>
      <trkpt lat="49.1834" lon="-0.04421">
        <ele>10.9</ele>
        <time>2023-11-22T13:41:02Z</time>
      </trkpt>
      <trkpt lat="49.18334" lon="-0.04419">
        <ele>11</ele>
        <time>2023-11-22T13:41:03Z</time>
      </trkpt>
      <trkpt lat="49.18327" lon="-0.04417">
        <ele>11</ele>
        <time>2023-11-22T13:41:04Z</time>
      </trkpt>
      <trkpt lat="49.1832" lon="-0.04415">
        <ele>11.1</ele>
        <time>2023-11-22T13:41:05Z</time>
      </trkpt>
      <trkpt lat="49.18313" lon="-0.04413">
        <ele>11.1</ele>
        <time>2023-11-22T13:41:06Z</time>
      </trkpt>
      <trkpt lat="49.18306" lon="-0.0441">
        <ele>11.2</ele>
        <time>2023-11-22T13:41:07Z</time>
      </trkpt>
      <trkpt lat="49.18299" lon="-0.04408">
        <ele>11.2</ele>
        <time>2023-11-22T13:41:08Z</time>
      </trkpt>
      <trkpt lat="49.18292" lon="-0.04406">
        <ele>11.2</ele>
        <time>2023-11-22T13:41:09Z</time>
      </trkpt>
      <trkpt lat="49.18285" lon="-0.04404">
        <ele>11.2</ele>
        <time>2023-11-22T13:41:10Z</time>
      </trkpt>
      <trkpt lat="49.18278" lon="-0.04401">
        <ele>11.2</ele>
        <time>2023-11-22T13:41:11Z</time>
      </trkpt>
      <trkpt lat="49.18271" lon="-0.04399">
        <ele>11.2</ele>
        <time>2023-11-22T13:41:12Z</time>
      </trkpt>
      <trkpt lat="49.18264" lon="-0.04396">
        <ele>11.2</ele>
        <time>2023-11-22T13:41:13Z</time>
      </trkpt>
      <trkpt lat="49.18257" lon="-0.04394">
        <ele>11.2</ele>
        <time>2023-11-22T13:41:14Z</time>
      </trkpt>
      <trkpt lat="49.1825" lon="-0.04392">
        <ele>11.2</ele>
        <time>2023-11-22T13:41:15Z</time>
      </trkpt>
      <trkpt lat="49.18243" lon="-0.0439">
        <ele>11.2</ele>
        <time>2023-11-22T13:41:16Z</time>
      </trkpt>
      <trkpt lat="49.18236" lon="-0.04388">
        <ele>11.2</ele>
        <time>2023-11-22T13:41:17Z</time>
      </trkpt>
      <trkpt lat="49.18229" lon="-0.04386">
        <ele>11.3</ele>
        <time>2023-11-22T13:41:18Z</time>
      </trkpt>
      <trkpt lat="49.18222" lon="-0.04383">
        <ele>11.3</ele>
        <time>2023-11-22T13:41:19Z</time>
      </trkpt>
      <trkpt lat="49.18215" lon="-0.04381">
        <ele>11.3</ele>
        <time>2023-11-22T13:41:20Z</time>
      </trkpt>
      <trkpt lat="49.18209" lon="-0.04378">
        <ele>11.3</ele>
        <time>2023-11-22T13:41:21Z</time>
      </trkpt>
      <trkpt lat="49.18202" lon="-0.04376">
        <ele>11.4</ele>
        <time>2023-11-22T13:41:22Z</time>
      </trkpt>
      <trkpt lat="49.18195" lon="-0.04374">
        <ele>11.4</ele>
        <time>2023-11-22T13:41:23Z</time>
      </trkpt>
      <trkpt lat="49.18188" lon="-0.04371">
        <ele>11.4</ele>
        <time>2023-11-22T13:41:24Z</time>
      </trkpt>
      <trkpt lat="49.18181" lon="-0.04369">
        <ele>11.4</ele>
        <time>2023-11-22T13:41:25Z</time>
      </trkpt>
      <trkpt lat="49.18175" lon="-0.04366">
        <ele>11.5</ele>
        <time>2023-11-22T13:41:26Z</time>
      </trkpt>
      <trkpt lat="49.18168" lon="-0.04364">
        <ele>11.5</ele>
        <time>2023-11-22T13:41:27Z</time>
      </trkpt>
      <trkpt lat="49.18161" lon="-0.04362">
        <ele>11.5</ele>
        <time>2023-11-22T13:41:28Z</time>
      </trkpt>
      <trkpt lat="49.18154" lon="-0.04359">
        <ele>11.6</ele>
        <time>2023-11-22T13:41:29Z</time>
      </trkpt>
      <trkpt lat="49.18148" lon="-0.04357">
        <ele>11.7</ele>
        <time>2023-11-22T13:41:30Z</time>
      </trkpt>
      <trkpt lat="49.18141" lon="-0.04354">
        <ele>11.8</ele>
        <time>2023-11-22T13:41:31Z</time>
      </trkpt>
      <trkpt lat="49.18134" lon="-0.04352">
        <ele>11.9</ele>
        <time>2023-11-22T13:41:32Z</time>
      </trkpt>
      <trkpt lat="49.18128" lon="-0.04349">
        <ele>12</ele>
        <time>2023-11-22T13:41:33Z</time>
      </trkpt>
      <trkpt lat="49.18121" lon="-0.04347">
        <ele>12.1</ele>
        <time>2023-11-22T13:41:34Z</time>
      </trkpt>
      <trkpt lat="49.18114" lon="-0.04345">
        <ele>12.2</ele>
        <time>2023-11-22T13:41:35Z</time>
      </trkpt>
      <trkpt lat="49.18108" lon="-0.04342">
        <ele>12.4</ele>
        <time>2023-11-22T13:41:36Z</time>
      </trkpt>
      <trkpt lat="49.18101" lon="-0.0434">
        <ele>12.5</ele>
        <time>2023-11-22T13:41:37Z</time>
      </trkpt>
      <trkpt lat="49.18094" lon="-0.04337">
        <ele>12.7</ele>
        <time>2023-11-22T13:41:38Z</time>
      </trkpt>
      <trkpt lat="49.18087" lon="-0.04334">
        <ele>12.9</ele>
        <time>2023-11-22T13:41:39Z</time>
      </trkpt>
      <trkpt lat="49.18081" lon="-0.04332">
        <ele>13</ele>
        <time>2023-11-22T13:41:40Z</time>
      </trkpt>
      <trkpt lat="49.18074" lon="-0.0433">
        <ele>13.2</ele>
        <time>2023-11-22T13:41:41Z</time>
      </trkpt>
      <trkpt lat="49.18068" lon="-0.04327">
        <ele>13.4</ele>
        <time>2023-11-22T13:41:42Z</time>
      </trkpt>
      <trkpt lat="49.18061" lon="-0.04325">
        <ele>13.5</ele>
        <time>2023-11-22T13:41:43Z</time>
      </trkpt>
      <trkpt lat="49.18054" lon="-0.04322">
        <ele>13.7</ele>
        <time>2023-11-22T13:41:44Z</time>
      </trkpt>
      <trkpt lat="49.18047" lon="-0.0432">
        <ele>13.9</ele>
        <time>2023-11-22T13:41:45Z</time>
      </trkpt>
      <trkpt lat="49.1804" lon="-0.04317">
        <ele>14.2</ele>
        <time>2023-11-22T13:41:46Z</time>
      </trkpt>
      <trkpt lat="49.18034" lon="-0.04315">
        <ele>14.4</ele>
        <time>2023-11-22T13:41:47Z</time>
      </trkpt>
      <trkpt lat="49.18027" lon="-0.04312">
        <ele>14.7</ele>
        <time>2023-11-22T13:41:48Z</time>
      </trkpt>
      <trkpt lat="49.18021" lon="-0.0431">
        <ele>15</ele>
        <time>2023-11-22T13:41:49Z</time>
      </trkpt>
      <trkpt lat="49.18014" lon="-0.04308">
        <ele>15.2</ele>
        <time>2023-11-22T13:41:50Z</time>
      </trkpt>
      <trkpt lat="49.18007" lon="-0.04306">
        <ele>15.5</ele>
        <time>2023-11-22T13:41:51Z</time>
      </trkpt>
      <trkpt lat="49.18001" lon="-0.04305">
        <ele>15.8</ele>
        <time>2023-11-22T13:41:52Z</time>
      </trkpt>
      <trkpt lat="49.17995" lon="-0.04303">
        <ele>16</ele>
        <time>2023-11-22T13:41:53Z</time>
      </trkpt>
      <trkpt lat="49.17988" lon="-0.04301">
        <ele>16.3</ele>
        <time>2023-11-22T13:41:54Z</time>
      </trkpt>
      <trkpt lat="49.17982" lon="-0.04299">
        <ele>16.6</ele>
        <time>2023-11-22T13:41:55Z</time>
      </trkpt>
      <trkpt lat="49.17976" lon="-0.04298">
        <ele>16.8</ele>
        <time>2023-11-22T13:41:56Z</time>
      </trkpt>
      <trkpt lat="49.17969" lon="-0.04296">
        <ele>17.1</ele>
        <time>2023-11-22T13:41:57Z</time>
      </trkpt>
      <trkpt lat="49.17963" lon="-0.04294">
        <ele>17.3</ele>
        <time>2023-11-22T13:41:58Z</time>
      </trkpt>
      <trkpt lat="49.17957" lon="-0.04292">
        <ele>17.5</ele>
        <time>2023-11-22T13:41:59Z</time>
      </trkpt>
      <trkpt lat="49.17951" lon="-0.04291">
        <ele>17.8</ele>
        <time>2023-11-22T13:42:00Z</time>
      </trkpt>
      <trkpt lat="49.17945" lon="-0.04289">
        <ele>18</ele>
        <time>2023-11-22T13:42:01Z</time>
      </trkpt>
      <trkpt lat="49.17939" lon="-0.04287">
        <ele>18.3</ele>
        <time>2023-11-22T13:42:02Z</time>
      </trkpt>
      <trkpt lat="49.17933" lon="-0.04286">
        <ele>18.5</ele>
        <time>2023-11-22T13:42:03Z</time>
      </trkpt>
      <trkpt lat="49.17926" lon="-0.04284">
        <ele>18.6</ele>
        <time>2023-11-22T13:42:04Z</time>
      </trkpt>
      <trkpt lat="49.1792" lon="-0.04282">
        <ele>18.7</ele>
        <time>2023-11-22T13:42:05Z</time>
      </trkpt>
      <trkpt lat="49.17914" lon="-0.0428">
        <ele>18.9</ele>
        <time>2023-11-22T13:42:06Z</time>
      </trkpt>
      <trkpt lat="49.17908" lon="-0.04278">
        <ele>19</ele>
        <time>2023-11-22T13:42:07Z</time>
      </trkpt>
      <trkpt lat="49.17901" lon="-0.04276">
        <ele>19.2</ele>
        <time>2023-11-22T13:42:08Z</time>
      </trkpt>
      <trkpt lat="49.17895" lon="-0.04273">
        <ele>19.4</ele>
        <time>2023-11-22T13:42:09Z</time>
      </trkpt>
      <trkpt lat="49.1789" lon="-0.04271">
        <ele>19.5</ele>
        <time>2023-11-22T13:42:10Z</time>
      </trkpt>
      <trkpt lat="49.17884" lon="-0.04269">
        <ele>19.6</ele>
        <time>2023-11-22T13:42:11Z</time>
      </trkpt>
      <trkpt lat="49.17878" lon="-0.04267">
        <ele>19.7</ele>
        <time>2023-11-22T13:42:12Z</time>
      </trkpt>
      <trkpt lat="49.17872" lon="-0.04264">
        <ele>19.8</ele>
        <time>2023-11-22T13:42:13Z</time>
      </trkpt>
      <trkpt lat="49.17867" lon="-0.04261">
        <ele>19.9</ele>
        <time>2023-11-22T13:42:14Z</time>
      </trkpt>
      <trkpt lat="49.17861" lon="-0.04258">
        <ele>20</ele>
        <time>2023-11-22T13:42:15Z</time>
      </trkpt>
      <trkpt lat="49.17855" lon="-0.04255">
        <ele>20</ele>
        <time>2023-11-22T13:42:16Z</time>
      </trkpt>
      <trkpt lat="49.17849" lon="-0.04251">
        <ele>20.1</ele>
        <time>2023-11-22T13:42:17Z</time>
      </trkpt>
      <trkpt lat="49.17843" lon="-0.04247">
        <ele>20.1</ele>
        <time>2023-11-22T13:42:18Z</time>
      </trkpt>
      <trkpt lat="49.17837" lon="-0.04243">
        <ele>20.1</ele>
        <time>2023-11-22T13:42:19Z</time>
      </trkpt>
      <trkpt lat="49.17831" lon="-0.04239">
        <ele>20.1</ele>
        <time>2023-11-22T13:42:20Z</time>
      </trkpt>
      <trkpt lat="49.17826" lon="-0.04234">
        <ele>20.1</ele>
        <time>2023-11-22T13:42:21Z</time>
      </trkpt>
      <trkpt lat="49.1782" lon="-0.04229">
        <ele>20.1</ele>
        <time>2023-11-22T13:42:22Z</time>
      </trkpt>
      <trkpt lat="49.17815" lon="-0.04224">
        <ele>20</ele>
        <time>2023-11-22T13:42:23Z</time>
      </trkpt>
      <trkpt lat="49.1781" lon="-0.04218">
        <ele>20</ele>
        <time>2023-11-22T13:42:24Z</time>
      </trkpt>
      <trkpt lat="49.17805" lon="-0.04213">
        <ele>19.9</ele>
        <time>2023-11-22T13:42:25Z</time>
      </trkpt>
      <trkpt lat="49.17799" lon="-0.04208">
        <ele>19.9</ele>
        <time>2023-11-22T13:42:26Z</time>
      </trkpt>
      <trkpt lat="49.17794" lon="-0.04202">
        <ele>19.7</ele>
        <time>2023-11-22T13:42:27Z</time>
      </trkpt>
      <trkpt lat="49.17789" lon="-0.04195">
        <ele>19.6</ele>
        <time>2023-11-22T13:42:28Z</time>
      </trkpt>
      <trkpt lat="49.17784" lon="-0.04188">
        <ele>19.4</ele>
        <time>2023-11-22T13:42:29Z</time>
      </trkpt>
      <trkpt lat="49.17779" lon="-0.04181">
        <ele>19.3</ele>
        <time>2023-11-22T13:42:30Z</time>
      </trkpt>
      <trkpt lat="49.17774" lon="-0.04172">
        <ele>19.1</ele>
        <time>2023-11-22T13:42:31Z</time>
      </trkpt>
      <trkpt lat="49.1777" lon="-0.04164">
        <ele>19</ele>
        <time>2023-11-22T13:42:32Z</time>
      </trkpt>
      <trkpt lat="49.17766" lon="-0.04156">
        <ele>18.9</ele>
        <time>2023-11-22T13:42:33Z</time>
      </trkpt>
      <trkpt lat="49.17762" lon="-0.04147">
        <ele>18.8</ele>
        <time>2023-11-22T13:42:34Z</time>
      </trkpt>
      <trkpt lat="49.17758" lon="-0.04139">
        <ele>18.7</ele>
        <time>2023-11-22T13:42:35Z</time>
      </trkpt>
      <trkpt lat="49.17754" lon="-0.0413">
        <ele>18.5</ele>
        <time>2023-11-22T13:42:36Z</time>
      </trkpt>
      <trkpt lat="49.1775" lon="-0.04121">
        <ele>18.4</ele>
        <time>2023-11-22T13:42:37Z</time>
      </trkpt>
      <trkpt lat="49.17746" lon="-0.04112">
        <ele>18.2</ele>
        <time>2023-11-22T13:42:38Z</time>
      </trkpt>
      <trkpt lat="49.17742" lon="-0.04103">
        <ele>18.1</ele>
        <time>2023-11-22T13:42:39Z</time>
      </trkpt>
      <trkpt lat="49.17738" lon="-0.04093">
        <ele>17.9</ele>
        <time>2023-11-22T13:42:40Z</time>
      </trkpt>
      <trkpt lat="49.17733" lon="-0.04083">
        <ele>17.8</ele>
        <time>2023-11-22T13:42:41Z</time>
      </trkpt>
      <trkpt lat="49.17729" lon="-0.04074">
        <ele>17.7</ele>
        <time>2023-11-22T13:42:42Z</time>
      </trkpt>
      <trkpt lat="49.17725" lon="-0.04065">
        <ele>17.6</ele>
        <time>2023-11-22T13:42:43Z</time>
      </trkpt>
      <trkpt lat="49.17719" lon="-0.04057">
        <ele>17.5</ele>
        <time>2023-11-22T13:42:44Z</time>
      </trkpt>
      <trkpt lat="49.17714" lon="-0.04048">
        <ele>17.4</ele>
        <time>2023-11-22T13:42:45Z</time>
      </trkpt>
      <trkpt lat="49.17708" lon="-0.04041">
        <ele>17.3</ele>
        <time>2023-11-22T13:42:46Z</time>
      </trkpt>
      <trkpt lat="49.17701" lon="-0.04035">
        <ele>17.2</ele>
        <time>2023-11-22T13:42:47Z</time>
      </trkpt>
      <trkpt lat="49.17694" lon="-0.0403">
        <ele>17.1</ele>
        <time>2023-11-22T13:42:48Z</time>
      </trkpt>
      <trkpt lat="49.17687" lon="-0.04026">
        <ele>17</ele>
        <time>2023-11-22T13:42:49Z</time>
      </trkpt>
      <trkpt lat="49.17679" lon="-0.04022">
        <ele>16.9</ele>
        <time>2023-11-22T13:42:50Z</time>
      </trkpt>
      <trkpt lat="49.17672" lon="-0.04019">
        <ele>16.7</ele>
        <time>2023-11-22T13:42:51Z</time>
      </trkpt>
      <trkpt lat="49.17664" lon="-0.04016">
        <ele>16.6</ele>
        <time>2023-11-22T13:42:52Z</time>
      </trkpt>
      <trkpt lat="49.17657" lon="-0.04014">
        <ele>16.4</ele>
        <time>2023-11-22T13:42:53Z</time>
      </trkpt>
      <trkpt lat="49.17649" lon="-0.04012">
        <ele>16.3</ele>
        <time>2023-11-22T13:42:54Z</time>
      </trkpt>
      <trkpt lat="49.17641" lon="-0.0401">
        <ele>16.3</ele>
        <time>2023-11-22T13:42:55Z</time>
      </trkpt>
      <trkpt lat="49.17634" lon="-0.04008">
        <ele>16.2</ele>
        <time>2023-11-22T13:42:56Z</time>
      </trkpt>
      <trkpt lat="49.17627" lon="-0.04006">
        <ele>16.2</ele>
        <time>2023-11-22T13:42:57Z</time>
      </trkpt>
      <trkpt lat="49.17619" lon="-0.04004">
        <ele>16.2</ele>
        <time>2023-11-22T13:42:58Z</time>
      </trkpt>
      <trkpt lat="49.17611" lon="-0.04002">
        <ele>16.2</ele>
        <time>2023-11-22T13:42:59Z</time>
      </trkpt>
      <trkpt lat="49.17604" lon="-0.03999">
        <ele>16.2</ele>
        <time>2023-11-22T13:43:00Z</time>
      </trkpt>
      <trkpt lat="49.17596" lon="-0.03998">
        <ele>16.2</ele>
        <time>2023-11-22T13:43:01Z</time>
      </trkpt>
      <trkpt lat="49.17588" lon="-0.03996">
        <ele>16.3</ele>
        <time>2023-11-22T13:43:02Z</time>
      </trkpt>
      <trkpt lat="49.1758" lon="-0.03994">
        <ele>16.4</ele>
        <time>2023-11-22T13:43:03Z</time>
      </trkpt>
      <trkpt lat="49.17573" lon="-0.03992">
        <ele>16.5</ele>
        <time>2023-11-22T13:43:04Z</time>
      </trkpt>
      <trkpt lat="49.17565" lon="-0.0399">
        <ele>16.6</ele>
        <time>2023-11-22T13:43:05Z</time>
      </trkpt>
      <trkpt lat="49.17558" lon="-0.03988">
        <ele>16.8</ele>
        <time>2023-11-22T13:43:06Z</time>
      </trkpt>
      <trkpt lat="49.17551" lon="-0.03985">
        <ele>16.9</ele>
        <time>2023-11-22T13:43:07Z</time>
      </trkpt>
      <trkpt lat="49.17543" lon="-0.03983">
        <ele>17</ele>
        <time>2023-11-22T13:43:08Z</time>
      </trkpt>
      <trkpt lat="49.17536" lon="-0.03981">
        <ele>17.1</ele>
        <time>2023-11-22T13:43:09Z</time>
      </trkpt>
      <trkpt lat="49.17529" lon="-0.03979">
        <ele>17.3</ele>
        <time>2023-11-22T13:43:10Z</time>
      </trkpt>
      <trkpt lat="49.17521" lon="-0.03976">
        <ele>17.4</ele>
        <time>2023-11-22T13:43:11Z</time>
      </trkpt>
      <trkpt lat="49.17514" lon="-0.03974">
        <ele>17.5</ele>
        <time>2023-11-22T13:43:12Z</time>
      </trkpt>
      <trkpt lat="49.17507" lon="-0.03972">
        <ele>17.6</ele>
        <time>2023-11-22T13:43:13Z</time>
      </trkpt>
      <trkpt lat="49.175" lon="-0.0397">
        <ele>17.8</ele>
        <time>2023-11-22T13:43:14Z</time>
      </trkpt>
      <trkpt lat="49.17493" lon="-0.03968">
        <ele>17.9</ele>
        <time>2023-11-22T13:43:15Z</time>
      </trkpt>
      <trkpt lat="49.17486" lon="-0.03965">
        <ele>18.1</ele>
        <time>2023-11-22T13:43:16Z</time>
      </trkpt>
      <trkpt lat="49.17479" lon="-0.03964">
        <ele>18.2</ele>
        <time>2023-11-22T13:43:17Z</time>
      </trkpt>
      <trkpt lat="49.17472" lon="-0.03962">
        <ele>18.3</ele>
        <time>2023-11-22T13:43:18Z</time>
      </trkpt>
      <trkpt lat="49.17466" lon="-0.03961">
        <ele>18.5</ele>
        <time>2023-11-22T13:43:19Z</time>
      </trkpt>
      <trkpt lat="49.17459" lon="-0.03958">
        <ele>18.6</ele>
        <time>2023-11-22T13:43:20Z</time>
      </trkpt>
      <trkpt lat="49.17452" lon="-0.03957">
        <ele>18.8</ele>
        <time>2023-11-22T13:43:21Z</time>
      </trkpt>
      <trkpt lat="49.17446" lon="-0.03955">
        <ele>19</ele>
        <time>2023-11-22T13:43:22Z</time>
      </trkpt>
      <trkpt lat="49.17439" lon="-0.03953">
        <ele>19.1</ele>
        <time>2023-11-22T13:43:23Z</time>
      </trkpt>
      <trkpt lat="49.17433" lon="-0.03951">
        <ele>19.3</ele>
        <time>2023-11-22T13:43:24Z</time>
      </trkpt>
      <trkpt lat="49.17427" lon="-0.03949">
        <ele>19.5</ele>
        <time>2023-11-22T13:43:25Z</time>
      </trkpt>
      <trkpt lat="49.1742" lon="-0.03947">
        <ele>19.6</ele>
        <time>2023-11-22T13:43:26Z</time>
      </trkpt>
      <trkpt lat="49.17414" lon="-0.03945">
        <ele>19.8</ele>
        <time>2023-11-22T13:43:27Z</time>
      </trkpt>
      <trkpt lat="49.17407" lon="-0.03943">
        <ele>20</ele>
        <time>2023-11-22T13:43:28Z</time>
      </trkpt>
      <trkpt lat="49.17401" lon="-0.03941">
        <ele>20.2</ele>
        <time>2023-11-22T13:43:29Z</time>
      </trkpt>
      <trkpt lat="49.17395" lon="-0.03939">
        <ele>20.4</ele>
        <time>2023-11-22T13:43:30Z</time>
      </trkpt>
      <trkpt lat="49.17389" lon="-0.03937">
        <ele>20.6</ele>
        <time>2023-11-22T13:43:31Z</time>
      </trkpt>
      <trkpt lat="49.17383" lon="-0.03935">
        <ele>20.8</ele>
        <time>2023-11-22T13:43:32Z</time>
      </trkpt>
      <trkpt lat="49.17377" lon="-0.03933">
        <ele>21.1</ele>
        <time>2023-11-22T13:43:33Z</time>
      </trkpt>
      <trkpt lat="49.1737" lon="-0.03932">
        <ele>21.3</ele>
        <time>2023-11-22T13:43:34Z</time>
      </trkpt>
      <trkpt lat="49.17364" lon="-0.0393">
        <ele>21.5</ele>
        <time>2023-11-22T13:43:35Z</time>
      </trkpt>
      <trkpt lat="49.17358" lon="-0.03928">
        <ele>21.8</ele>
        <time>2023-11-22T13:43:36Z</time>
      </trkpt>
      <trkpt lat="49.17352" lon="-0.03925">
        <ele>22</ele>
        <time>2023-11-22T13:43:37Z</time>
      </trkpt>
      <trkpt lat="49.17346" lon="-0.03923">
        <ele>22.3</ele>
        <time>2023-11-22T13:43:38Z</time>
      </trkpt>
      <trkpt lat="49.1734" lon="-0.03921">
        <ele>22.5</ele>
        <time>2023-11-22T13:43:39Z</time>
      </trkpt>
      <trkpt lat="49.17334" lon="-0.03919">
        <ele>22.7</ele>
        <time>2023-11-22T13:43:40Z</time>
      </trkpt>
      <trkpt lat="49.17328" lon="-0.03915">
        <ele>23</ele>
        <time>2023-11-22T13:43:41Z</time>
      </trkpt>
      <trkpt lat="49.17323" lon="-0.03911">
        <ele>23.2</ele>
        <time>2023-11-22T13:43:42Z</time>
      </trkpt>
      <trkpt lat="49.17318" lon="-0.03908">
        <ele>23.4</ele>
        <time>2023-11-22T13:43:43Z</time>
      </trkpt>
      <trkpt lat="49.17312" lon="-0.03907">
        <ele>23.4</ele>
        <time>2023-11-22T13:43:44Z</time>
      </trkpt>
      <trkpt lat="49.17306" lon="-0.03908">
        <ele>23.4</ele>
        <time>2023-11-22T13:43:45Z</time>
      </trkpt>
      <trkpt lat="49.17301" lon="-0.03913">
        <ele>23.5</ele>
        <time>2023-11-22T13:43:46Z</time>
      </trkpt>
      <trkpt lat="49.17296" lon="-0.0392">
        <ele>23.5</ele>
        <time>2023-11-22T13:43:47Z</time>
      </trkpt>
      <trkpt lat="49.17293" lon="-0.03928">
        <ele>23.6</ele>
        <time>2023-11-22T13:43:48Z</time>
      </trkpt>
      <trkpt lat="49.1729" lon="-0.03936">
        <ele>23.6</ele>
        <time>2023-11-22T13:43:49Z</time>
      </trkpt>
      <trkpt lat="49.17287" lon="-0.03945">
        <ele>23.7</ele>
        <time>2023-11-22T13:43:50Z</time>
      </trkpt>
      <trkpt lat="49.17284" lon="-0.03953">
        <ele>23.9</ele>
        <time>2023-11-22T13:43:51Z</time>
      </trkpt>
      <trkpt lat="49.17282" lon="-0.0396">
        <ele>23.9</ele>
        <time>2023-11-22T13:43:52Z</time>
      </trkpt>
      <trkpt lat="49.17279" lon="-0.03968">
        <ele>24</ele>
        <time>2023-11-22T13:43:53Z</time>
      </trkpt>
      <trkpt lat="49.17276" lon="-0.03976">
        <ele>24.1</ele>
        <time>2023-11-22T13:43:54Z</time>
      </trkpt>
      <trkpt lat="49.17274" lon="-0.03983">
        <ele>24.1</ele>
        <time>2023-11-22T13:43:55Z</time>
      </trkpt>
      <trkpt lat="49.17271" lon="-0.0399">
        <ele>24.2</ele>
        <time>2023-11-22T13:43:56Z</time>
      </trkpt>
      <trkpt lat="49.17268" lon="-0.03997">
        <ele>24.2</ele>
        <time>2023-11-22T13:43:57Z</time>
      </trkpt>
      <trkpt lat="49.17266" lon="-0.04003">
        <ele>24.3</ele>
        <time>2023-11-22T13:43:58Z</time>
      </trkpt>
      <trkpt lat="49.17263" lon="-0.0401">
        <ele>24.4</ele>
        <time>2023-11-22T13:43:59Z</time>
      </trkpt>
      <trkpt lat="49.17261" lon="-0.04017">
        <ele>24.5</ele>
        <time>2023-11-22T13:44:00Z</time>
      </trkpt>
      <trkpt lat="49.17259" lon="-0.04024">
        <ele>24.6</ele>
        <time>2023-11-22T13:44:01Z</time>
      </trkpt>
      <trkpt lat="49.17256" lon="-0.04031">
        <ele>24.6</ele>
        <time>2023-11-22T13:44:02Z</time>
      </trkpt>
      <trkpt lat="49.17254" lon="-0.04038">
        <ele>24.7</ele>
        <time>2023-11-22T13:44:03Z</time>
      </trkpt>
      <trkpt lat="49.17251" lon="-0.04045">
        <ele>24.8</ele>
        <time>2023-11-22T13:44:04Z</time>
      </trkpt>
      <trkpt lat="49.17249" lon="-0.04053">
        <ele>24.8</ele>
        <time>2023-11-22T13:44:05Z</time>
      </trkpt>
      <trkpt lat="49.17247" lon="-0.04061">
        <ele>24.9</ele>
        <time>2023-11-22T13:44:06Z</time>
      </trkpt>
      <trkpt lat="49.17244" lon="-0.04068">
        <ele>24.9</ele>
        <time>2023-11-22T13:44:07Z</time>
      </trkpt>
      <trkpt lat="49.17242" lon="-0.04076">
        <ele>24.9</ele>
        <time>2023-11-22T13:44:08Z</time>
      </trkpt>
      <trkpt lat="49.1724" lon="-0.04084">
        <ele>25</ele>
        <time>2023-11-22T13:44:09Z</time>
      </trkpt>
      <trkpt lat="49.17237" lon="-0.04092">
        <ele>24.9</ele>
        <time>2023-11-22T13:44:10Z</time>
      </trkpt>
      <trkpt lat="49.17236" lon="-0.04099">
        <ele>24.9</ele>
        <time>2023-11-22T13:44:11Z</time>
      </trkpt>
      <trkpt lat="49.17234" lon="-0.04105">
        <ele>24.9</ele>
        <time>2023-11-22T13:44:12Z</time>
      </trkpt>
      <trkpt lat="49.17233" lon="-0.04112">
        <ele>24.9</ele>
        <time>2023-11-22T13:44:13Z</time>
      </trkpt>
      <trkpt lat="49.17231" lon="-0.04118">
        <ele>24.9</ele>
        <time>2023-11-22T13:44:14Z</time>
      </trkpt>
      <trkpt lat="49.1723" lon="-0.04125">
        <ele>24.9</ele>
        <time>2023-11-22T13:44:15Z</time>
      </trkpt>
      <trkpt lat="49.17228" lon="-0.04132">
        <ele>24.9</ele>
        <time>2023-11-22T13:44:16Z</time>
      </trkpt>
      <trkpt lat="49.17226" lon="-0.0414">
        <ele>24.9</ele>
        <time>2023-11-22T13:44:17Z</time>
      </trkpt>
      <trkpt lat="49.17225" lon="-0.04147">
        <ele>24.9</ele>
        <time>2023-11-22T13:44:18Z</time>
      </trkpt>
      <trkpt lat="49.17223" lon="-0.04156">
        <ele>24.9</ele>
        <time>2023-11-22T13:44:19Z</time>
      </trkpt>
      <trkpt lat="49.17221" lon="-0.04165">
        <ele>24.9</ele>
        <time>2023-11-22T13:44:20Z</time>
      </trkpt>
      <trkpt lat="49.17219" lon="-0.04174">
        <ele>24.9</ele>
        <time>2023-11-22T13:44:21Z</time>
      </trkpt>
      <trkpt lat="49.17217" lon="-0.04183">
        <ele>25</ele>
        <time>2023-11-22T13:44:22Z</time>
      </trkpt>
      <trkpt lat="49.17215" lon="-0.04193">
        <ele>25</ele>
        <time>2023-11-22T13:44:23Z</time>
      </trkpt>
      <trkpt lat="49.17213" lon="-0.04202">
        <ele>25</ele>
        <time>2023-11-22T13:44:24Z</time>
      </trkpt>
      <trkpt lat="49.17212" lon="-0.0421">
        <ele>25</ele>
        <time>2023-11-22T13:44:25Z</time>
      </trkpt>
      <trkpt lat="49.1721" lon="-0.04219">
        <ele>25</ele>
        <time>2023-11-22T13:44:26Z</time>
      </trkpt>
      <trkpt lat="49.17209" lon="-0.04227">
        <ele>25</ele>
        <time>2023-11-22T13:44:27Z</time>
      </trkpt>
      <trkpt lat="49.17207" lon="-0.04236">
        <ele>25</ele>
        <time>2023-11-22T13:44:28Z</time>
      </trkpt>
      <trkpt lat="49.17205" lon="-0.04244">
        <ele>25.1</ele>
        <time>2023-11-22T13:44:29Z</time>
      </trkpt>
      <trkpt lat="49.17203" lon="-0.04253">
        <ele>25.1</ele>
        <time>2023-11-22T13:44:30Z</time>
      </trkpt>
      <trkpt lat="49.17201" lon="-0.04263">
        <ele>25.1</ele>
        <time>2023-11-22T13:44:31Z</time>
      </trkpt>
      <trkpt lat="49.17199" lon="-0.04272">
        <ele>25.1</ele>
        <time>2023-11-22T13:44:32Z</time>
      </trkpt>
      <trkpt lat="49.17197" lon="-0.04282">
        <ele>25.1</ele>
        <time>2023-11-22T13:44:33Z</time>
      </trkpt>
      <trkpt lat="49.17196" lon="-0.04292">
        <ele>25.2</ele>
        <time>2023-11-22T13:44:34Z</time>
      </trkpt>
      <trkpt lat="49.17193" lon="-0.04301">
        <ele>25.2</ele>
        <time>2023-11-22T13:44:35Z</time>
      </trkpt>
      <trkpt lat="49.17191" lon="-0.04311">
        <ele>25.2</ele>
        <time>2023-11-22T13:44:36Z</time>
      </trkpt>
      <trkpt lat="49.17189" lon="-0.04321">
        <ele>25.2</ele>
        <time>2023-11-22T13:44:37Z</time>
      </trkpt>
      <trkpt lat="49.17186" lon="-0.04331">
        <ele>25.3</ele>
        <time>2023-11-22T13:44:38Z</time>
      </trkpt>
      <trkpt lat="49.17183" lon="-0.0434">
        <ele>25.3</ele>
        <time>2023-11-22T13:44:39Z</time>
      </trkpt>
      <trkpt lat="49.1718" lon="-0.04348">
        <ele>25.3</ele>
        <time>2023-11-22T13:44:40Z</time>
      </trkpt>
      <trkpt lat="49.17177" lon="-0.04357">
        <ele>25.4</ele>
        <time>2023-11-22T13:44:41Z</time>
      </trkpt>
      <trkpt lat="49.17174" lon="-0.04366">
        <ele>25.4</ele>
        <time>2023-11-22T13:44:42Z</time>
      </trkpt>
      <trkpt lat="49.1717" lon="-0.04375">
        <ele>25.4</ele>
        <time>2023-11-22T13:44:43Z</time>
      </trkpt>
      <trkpt lat="49.17166" lon="-0.04384">
        <ele>25.4</ele>
        <time>2023-11-22T13:44:44Z</time>
      </trkpt>
      <trkpt lat="49.17161" lon="-0.04391">
        <ele>25.5</ele>
        <time>2023-11-22T13:44:45Z</time>
      </trkpt>
      <trkpt lat="49.17156" lon="-0.04399">
        <ele>25.5</ele>
        <time>2023-11-22T13:44:46Z</time>
      </trkpt>
      <trkpt lat="49.17151" lon="-0.04407">
        <ele>25.6</ele>
        <time>2023-11-22T13:44:47Z</time>
      </trkpt>
      <trkpt lat="49.17146" lon="-0.04414">
        <ele>25.6</ele>
        <time>2023-11-22T13:44:48Z</time>
      </trkpt>
      <trkpt lat="49.17141" lon="-0.04421">
        <ele>25.7</ele>
        <time>2023-11-22T13:44:49Z</time>
      </trkpt>
      <trkpt lat="49.17136" lon="-0.04429">
        <ele>25.8</ele>
        <time>2023-11-22T13:44:50Z</time>
      </trkpt>
      <trkpt lat="49.17131" lon="-0.04436">
        <ele>25.8</ele>
        <time>2023-11-22T13:44:51Z</time>
      </trkpt>
      <trkpt lat="49.17127" lon="-0.04443">
        <ele>25.9</ele>
        <time>2023-11-22T13:44:52Z</time>
      </trkpt>
      <trkpt lat="49.17122" lon="-0.0445">
        <ele>25.9</ele>
        <time>2023-11-22T13:44:53Z</time>
      </trkpt>
      <trkpt lat="49.17118" lon="-0.04458">
        <ele>26</ele>
        <time>2023-11-22T13:44:54Z</time>
      </trkpt>
      <trkpt lat="49.17113" lon="-0.04465">
        <ele>26</ele>
        <time>2023-11-22T13:44:55Z</time>
      </trkpt>
      <trkpt lat="49.17109" lon="-0.04474">
        <ele>26.1</ele>
        <time>2023-11-22T13:44:56Z</time>
      </trkpt>
      <trkpt lat="49.17104" lon="-0.04482">
        <ele>26.2</ele>
        <time>2023-11-22T13:44:57Z</time>
      </trkpt>
      <trkpt lat="49.171" lon="-0.0449">
        <ele>26.3</ele>
        <time>2023-11-22T13:44:58Z</time>
      </trkpt>
      <trkpt lat="49.17096" lon="-0.04499">
        <ele>26.3</ele>
        <time>2023-11-22T13:44:59Z</time>
      </trkpt>
      <trkpt lat="49.17092" lon="-0.04508">
        <ele>26.4</ele>
        <time>2023-11-22T13:45:00Z</time>
      </trkpt>
      <trkpt lat="49.17089" lon="-0.04517">
        <ele>26.4</ele>
        <time>2023-11-22T13:45:01Z</time>
      </trkpt>
      <trkpt lat="49.17086" lon="-0.04527">
        <ele>26.5</ele>
        <time>2023-11-22T13:45:02Z</time>
      </trkpt>
      <trkpt lat="49.17083" lon="-0.04536">
        <ele>26.6</ele>
        <time>2023-11-22T13:45:03Z</time>
      </trkpt>
      <trkpt lat="49.1708" lon="-0.04545">
        <ele>26.7</ele>
        <time>2023-11-22T13:45:04Z</time>
      </trkpt>
      <trkpt lat="49.17078" lon="-0.04555">
        <ele>26.8</ele>
        <time>2023-11-22T13:45:05Z</time>
      </trkpt>
      <trkpt lat="49.17076" lon="-0.04565">
        <ele>26.9</ele>
        <time>2023-11-22T13:45:06Z</time>
      </trkpt>
      <trkpt lat="49.17074" lon="-0.04574">
        <ele>27</ele>
        <time>2023-11-22T13:45:07Z</time>
      </trkpt>
      <trkpt lat="49.17072" lon="-0.04584">
        <ele>27.1</ele>
        <time>2023-11-22T13:45:08Z</time>
      </trkpt>
      <trkpt lat="49.1707" lon="-0.04593">
        <ele>27.2</ele>
        <time>2023-11-22T13:45:09Z</time>
      </trkpt>
      <trkpt lat="49.17068" lon="-0.04602">
        <ele>27.3</ele>
        <time>2023-11-22T13:45:10Z</time>
      </trkpt>
      <trkpt lat="49.17066" lon="-0.04611">
        <ele>27.4</ele>
        <time>2023-11-22T13:45:11Z</time>
      </trkpt>
      <trkpt lat="49.17064" lon="-0.0462">
        <ele>27.5</ele>
        <time>2023-11-22T13:45:12Z</time>
      </trkpt>
      <trkpt lat="49.17063" lon="-0.0463">
        <ele>27.7</ele>
        <time>2023-11-22T13:45:13Z</time>
      </trkpt>
      <trkpt lat="49.17061" lon="-0.04639">
        <ele>27.8</ele>
        <time>2023-11-22T13:45:14Z</time>
      </trkpt>
      <trkpt lat="49.17059" lon="-0.04648">
        <ele>28</ele>
        <time>2023-11-22T13:45:15Z</time>
      </trkpt>
      <trkpt lat="49.17057" lon="-0.04657">
        <ele>28.1</ele>
        <time>2023-11-22T13:45:16Z</time>
      </trkpt>
      <trkpt lat="49.17055" lon="-0.04666">
        <ele>28.2</ele>
        <time>2023-11-22T13:45:17Z</time>
      </trkpt>
      <trkpt lat="49.17053" lon="-0.04676">
        <ele>28.4</ele>
        <time>2023-11-22T13:45:18Z</time>
      </trkpt>
      <trkpt lat="49.1705" lon="-0.04685">
        <ele>28.6</ele>
        <time>2023-11-22T13:45:19Z</time>
      </trkpt>
      <trkpt lat="49.17048" lon="-0.04694">
        <ele>28.7</ele>
        <time>2023-11-22T13:45:20Z</time>
      </trkpt>
      <trkpt lat="49.17046" lon="-0.04702">
        <ele>28.9</ele>
        <time>2023-11-22T13:45:21Z</time>
      </trkpt>
      <trkpt lat="49.17044" lon="-0.04711">
        <ele>29.1</ele>
        <time>2023-11-22T13:45:22Z</time>
      </trkpt>
      <trkpt lat="49.17042" lon="-0.0472">
        <ele>29.2</ele>
        <time>2023-11-22T13:45:23Z</time>
      </trkpt>
      <trkpt lat="49.17039" lon="-0.04729">
        <ele>29.4</ele>
        <time>2023-11-22T13:45:24Z</time>
      </trkpt>
      <trkpt lat="49.17037" lon="-0.04738">
        <ele>29.5</ele>
        <time>2023-11-22T13:45:25Z</time>
      </trkpt>
      <trkpt lat="49.17035" lon="-0.04748">
        <ele>29.7</ele>
        <time>2023-11-22T13:45:26Z</time>
      </trkpt>
      <trkpt lat="49.17032" lon="-0.04756">
        <ele>29.8</ele>
        <time>2023-11-22T13:45:27Z</time>
      </trkpt>
      <trkpt lat="49.17029" lon="-0.04765">
        <ele>30</ele>
        <time>2023-11-22T13:45:28Z</time>
      </trkpt>
      <trkpt lat="49.17027" lon="-0.04773">
        <ele>30.2</ele>
        <time>2023-11-22T13:45:29Z</time>
      </trkpt>
      <trkpt lat="49.17024" lon="-0.04782">
        <ele>30.4</ele>
        <time>2023-11-22T13:45:30Z</time>
      </trkpt>
      <trkpt lat="49.17021" lon="-0.04791">
        <ele>30.6</ele>
        <time>2023-11-22T13:45:31Z</time>
      </trkpt>
      <trkpt lat="49.17019" lon="-0.048">
        <ele>30.8</ele>
        <time>2023-11-22T13:45:32Z</time>
      </trkpt>
      <trkpt lat="49.17016" lon="-0.04809">
        <ele>31</ele>
        <time>2023-11-22T13:45:33Z</time>
      </trkpt>
      <trkpt lat="49.17014" lon="-0.04818">
        <ele>31.2</ele>
        <time>2023-11-22T13:45:34Z</time>
      </trkpt>
      <trkpt lat="49.17011" lon="-0.04826">
        <ele>31.4</ele>
        <time>2023-11-22T13:45:35Z</time>
      </trkpt>
      <trkpt lat="49.17009" lon="-0.04835">
        <ele>31.5</ele>
        <time>2023-11-22T13:45:36Z</time>
      </trkpt>
      <trkpt lat="49.17006" lon="-0.04843">
        <ele>31.7</ele>
        <time>2023-11-22T13:45:37Z</time>
      </trkpt>
      <trkpt lat="49.17004" lon="-0.04852">
        <ele>31.9</ele>
        <time>2023-11-22T13:45:38Z</time>
      </trkpt>
      <trkpt lat="49.17001" lon="-0.0486">
        <ele>32</ele>
        <time>2023-11-22T13:45:39Z</time>
      </trkpt>
      <trkpt lat="49.16999" lon="-0.04868">
        <ele>32.2</ele>
        <time>2023-11-22T13:45:40Z</time>
      </trkpt>
      <trkpt lat="49.16996" lon="-0.04876">
        <ele>32.3</ele>
        <time>2023-11-22T13:45:41Z</time>
      </trkpt>
      <trkpt lat="49.16994" lon="-0.04884">
        <ele>32.4</ele>
        <time>2023-11-22T13:45:42Z</time>
      </trkpt>
      <trkpt lat="49.16992" lon="-0.04892">
        <ele>32.5</ele>
        <time>2023-11-22T13:45:43Z</time>
      </trkpt>
      <trkpt lat="49.1699" lon="-0.049">
        <ele>32.6</ele>
        <time>2023-11-22T13:45:44Z</time>
      </trkpt>
      <trkpt lat="49.16988" lon="-0.04907">
        <ele>32.6</ele>
        <time>2023-11-22T13:45:45Z</time>
      </trkpt>
      <trkpt lat="49.16986" lon="-0.04915">
        <ele>32.7</ele>
        <time>2023-11-22T13:45:46Z</time>
      </trkpt>
      <trkpt lat="49.16983" lon="-0.04924">
        <ele>32.8</ele>
        <time>2023-11-22T13:45:47Z</time>
      </trkpt>
      <trkpt lat="49.16981" lon="-0.04932">
        <ele>32.8</ele>
        <time>2023-11-22T13:45:48Z</time>
      </trkpt>
      <trkpt lat="49.16978" lon="-0.0494">
        <ele>32.9</ele>
        <time>2023-11-22T13:45:49Z</time>
      </trkpt>
      <trkpt lat="49.16976" lon="-0.04949">
        <ele>32.9</ele>
        <time>2023-11-22T13:45:50Z</time>
      </trkpt>
      <trkpt lat="49.16974" lon="-0.04957">
        <ele>33</ele>
        <time>2023-11-22T13:45:51Z</time>
      </trkpt>
      <trkpt lat="49.16972" lon="-0.04966">
        <ele>33</ele>
        <time>2023-11-22T13:45:52Z</time>
      </trkpt>
      <trkpt lat="49.1697" lon="-0.04974">
        <ele>33</ele>
        <time>2023-11-22T13:45:53Z</time>
      </trkpt>
      <trkpt lat="49.16968" lon="-0.04982">
        <ele>33</ele>
        <time>2023-11-22T13:45:54Z</time>
      </trkpt>
      <trkpt lat="49.16966" lon="-0.0499">
        <ele>33.1</ele>
        <time>2023-11-22T13:45:55Z</time>
      </trkpt>
      <trkpt lat="49.16965" lon="-0.04998">
        <ele>33.1</ele>
        <time>2023-11-22T13:45:56Z</time>
      </trkpt>
      <trkpt lat="49.16964" lon="-0.05006">
        <ele>33.1</ele>
        <time>2023-11-22T13:45:57Z</time>
      </trkpt>
      <trkpt lat="49.16962" lon="-0.05014">
        <ele>33.1</ele>
        <time>2023-11-22T13:45:58Z</time>
      </trkpt>
      <trkpt lat="49.16961" lon="-0.05021">
        <ele>33.1</ele>
        <time>2023-11-22T13:45:59Z</time>
      </trkpt>
      <trkpt lat="49.16958" lon="-0.05029">
        <ele>33.1</ele>
        <time>2023-11-22T13:46:00Z</time>
      </trkpt>
      <trkpt lat="49.16955" lon="-0.05035">
        <ele>33.2</ele>
        <time>2023-11-22T13:46:01Z</time>
      </trkpt>
      <trkpt lat="49.16952" lon="-0.0504">
        <ele>33.2</ele>
        <time>2023-11-22T13:46:02Z</time>
      </trkpt>
      <trkpt lat="49.16947" lon="-0.05046">
        <ele>33.1</ele>
        <time>2023-11-22T13:46:03Z</time>
      </trkpt>
      <trkpt lat="49.16942" lon="-0.0505">
        <ele>33.1</ele>
        <time>2023-11-22T13:46:04Z</time>
      </trkpt>
      <trkpt lat="49.16936" lon="-0.05055">
        <ele>33.1</ele>
        <time>2023-11-22T13:46:05Z</time>
      </trkpt>
      <trkpt lat="49.1693" lon="-0.05058">
        <ele>33</ele>
        <time>2023-11-22T13:46:06Z</time>
      </trkpt>
      <trkpt lat="49.16924" lon="-0.05062">
        <ele>33</ele>
        <time>2023-11-22T13:46:07Z</time>
      </trkpt>
      <trkpt lat="49.16917" lon="-0.05064">
        <ele>33</ele>
        <time>2023-11-22T13:46:08Z</time>
      </trkpt>
      <trkpt lat="49.16911" lon="-0.05065">
        <ele>33</ele>
        <time>2023-11-22T13:46:09Z</time>
      </trkpt>
      <trkpt lat="49.16904" lon="-0.05064">
        <ele>33.1</ele>
        <time>2023-11-22T13:46:10Z</time>
      </trkpt>
      <trkpt lat="49.16898" lon="-0.05065">
        <ele>33.2</ele>
        <time>2023-11-22T13:46:11Z</time>
      </trkpt>
      <trkpt lat="49.16891" lon="-0.05064">
        <ele>33.2</ele>
        <time>2023-11-22T13:46:12Z</time>
      </trkpt>
      <trkpt lat="49.16885" lon="-0.05064">
        <ele>33.3</ele>
        <time>2023-11-22T13:46:13Z</time>
      </trkpt>
      <trkpt lat="49.16879" lon="-0.05065">
        <ele>33.4</ele>
        <time>2023-11-22T13:46:14Z</time>
      </trkpt>
      <trkpt lat="49.16872" lon="-0.05067">
        <ele>33.5</ele>
        <time>2023-11-22T13:46:15Z</time>
      </trkpt>
      <trkpt lat="49.16866" lon="-0.05069">
        <ele>33.5</ele>
        <time>2023-11-22T13:46:16Z</time>
      </trkpt>
      <trkpt lat="49.1686" lon="-0.05072">
        <ele>33.6</ele>
        <time>2023-11-22T13:46:17Z</time>
      </trkpt>
      <trkpt lat="49.16853" lon="-0.05074">
        <ele>33.7</ele>
        <time>2023-11-22T13:46:18Z</time>
      </trkpt>
      <trkpt lat="49.16847" lon="-0.05078">
        <ele>33.7</ele>
        <time>2023-11-22T13:46:19Z</time>
      </trkpt>
      <trkpt lat="49.16841" lon="-0.05081">
        <ele>33.8</ele>
        <time>2023-11-22T13:46:20Z</time>
      </trkpt>
      <trkpt lat="49.16835" lon="-0.05084">
        <ele>33.9</ele>
        <time>2023-11-22T13:46:21Z</time>
      </trkpt>
      <trkpt lat="49.1683" lon="-0.05087">
        <ele>33.9</ele>
        <time>2023-11-22T13:46:22Z</time>
      </trkpt>
      <trkpt lat="49.16825" lon="-0.05091">
        <ele>33.9</ele>
        <time>2023-11-22T13:46:23Z</time>
      </trkpt>
      <trkpt lat="49.1682" lon="-0.05095">
        <ele>33.9</ele>
        <time>2023-11-22T13:46:24Z</time>
      </trkpt>
      <trkpt lat="49.16815" lon="-0.05101">
        <ele>33.9</ele>
        <time>2023-11-22T13:46:25Z</time>
      </trkpt>
      <trkpt lat="49.1681" lon="-0.05107">
        <ele>33.9</ele>
        <time>2023-11-22T13:46:26Z</time>
      </trkpt>
      <trkpt lat="49.16805" lon="-0.05113">
        <ele>33.9</ele>
        <time>2023-11-22T13:46:27Z</time>
      </trkpt>
      <trkpt lat="49.168" lon="-0.0512">
        <ele>33.9</ele>
        <time>2023-11-22T13:46:28Z</time>
      </trkpt>
      <trkpt lat="49.16795" lon="-0.05127">
        <ele>33.8</ele>
        <time>2023-11-22T13:46:29Z</time>
      </trkpt>
      <trkpt lat="49.16791" lon="-0.05134">
        <ele>33.8</ele>
        <time>2023-11-22T13:46:30Z</time>
      </trkpt>
      <trkpt lat="49.16785" lon="-0.0514">
        <ele>33.7</ele>
        <time>2023-11-22T13:46:31Z</time>
      </trkpt>
      <trkpt lat="49.1678" lon="-0.05144">
        <ele>33.6</ele>
        <time>2023-11-22T13:46:32Z</time>
      </trkpt>
      <trkpt lat="49.16773" lon="-0.05146">
        <ele>33.6</ele>
        <time>2023-11-22T13:46:33Z</time>
      </trkpt>
      <trkpt lat="49.16767" lon="-0.05148">
        <ele>33.4</ele>
        <time>2023-11-22T13:46:34Z</time>
      </trkpt>
      <trkpt lat="49.1676" lon="-0.05149">
        <ele>33.3</ele>
        <time>2023-11-22T13:46:35Z</time>
      </trkpt>
      <trkpt lat="49.16753" lon="-0.0515">
        <ele>33.1</ele>
        <time>2023-11-22T13:46:36Z</time>
      </trkpt>
      <trkpt lat="49.16747" lon="-0.0515">
        <ele>33</ele>
        <time>2023-11-22T13:46:37Z</time>
      </trkpt>
      <trkpt lat="49.16741" lon="-0.05151">
        <ele>32.8</ele>
        <time>2023-11-22T13:46:38Z</time>
      </trkpt>
      <trkpt lat="49.16735" lon="-0.05151">
        <ele>32.7</ele>
        <time>2023-11-22T13:46:39Z</time>
      </trkpt>
      <trkpt lat="49.16728" lon="-0.05151">
        <ele>32.5</ele>
        <time>2023-11-22T13:46:40Z</time>
      </trkpt>
      <trkpt lat="49.16721" lon="-0.05151">
        <ele>32.3</ele>
        <time>2023-11-22T13:46:41Z</time>
      </trkpt>
      <trkpt lat="49.16714" lon="-0.05151">
        <ele>32.2</ele>
        <time>2023-11-22T13:46:42Z</time>
      </trkpt>
      <trkpt lat="49.16707" lon="-0.05151">
        <ele>32</ele>
        <time>2023-11-22T13:46:43Z</time>
      </trkpt>
      <trkpt lat="49.167" lon="-0.05151">
        <ele>31.9</ele>
        <time>2023-11-22T13:46:44Z</time>
      </trkpt>
      <trkpt lat="49.16693" lon="-0.05153">
        <ele>31.8</ele>
        <time>2023-11-22T13:46:45Z</time>
      </trkpt>
      <trkpt lat="49.16687" lon="-0.05158">
        <ele>31.7</ele>
        <time>2023-11-22T13:46:46Z</time>
      </trkpt>
      <trkpt lat="49.16681" lon="-0.05165">
        <ele>31.7</ele>
        <time>2023-11-22T13:46:47Z</time>
      </trkpt>
      <trkpt lat="49.16677" lon="-0.05174">
        <ele>31.6</ele>
        <time>2023-11-22T13:46:48Z</time>
      </trkpt>
      <trkpt lat="49.16674" lon="-0.05184">
        <ele>31.5</ele>
        <time>2023-11-22T13:46:49Z</time>
      </trkpt>
      <trkpt lat="49.16672" lon="-0.05195">
        <ele>31.4</ele>
        <time>2023-11-22T13:46:50Z</time>
      </trkpt>
      <trkpt lat="49.1667" lon="-0.05205">
        <ele>31.3</ele>
        <time>2023-11-22T13:46:51Z</time>
      </trkpt>
      <trkpt lat="49.16668" lon="-0.05216">
        <ele>31.3</ele>
        <time>2023-11-22T13:46:52Z</time>
      </trkpt>
      <trkpt lat="49.16666" lon="-0.05226">
        <ele>31.2</ele>
        <time>2023-11-22T13:46:53Z</time>
      </trkpt>
      <trkpt lat="49.16663" lon="-0.05236">
        <ele>31.2</ele>
        <time>2023-11-22T13:46:54Z</time>
      </trkpt>
      <trkpt lat="49.1666" lon="-0.05246">
        <ele>31.2</ele>
        <time>2023-11-22T13:46:55Z</time>
      </trkpt>
      <trkpt lat="49.16655" lon="-0.05254">
        <ele>31.2</ele>
        <time>2023-11-22T13:46:56Z</time>
      </trkpt>
      <trkpt lat="49.1665" lon="-0.05262">
        <ele>31.1</ele>
        <time>2023-11-22T13:46:57Z</time>
      </trkpt>
      <trkpt lat="49.16643" lon="-0.05268">
        <ele>31</ele>
        <time>2023-11-22T13:46:58Z</time>
      </trkpt>
      <trkpt lat="49.16637" lon="-0.05272">
        <ele>30.9</ele>
        <time>2023-11-22T13:46:59Z</time>
      </trkpt>
      <trkpt lat="49.1663" lon="-0.05277">
        <ele>30.7</ele>
        <time>2023-11-22T13:47:00Z</time>
      </trkpt>
      <trkpt lat="49.16623" lon="-0.05282">
        <ele>30.5</ele>
        <time>2023-11-22T13:47:01Z</time>
      </trkpt>
      <trkpt lat="49.16616" lon="-0.05287">
        <ele>30.4</ele>
        <time>2023-11-22T13:47:02Z</time>
      </trkpt>
      <trkpt lat="49.16609" lon="-0.05293">
        <ele>30.2</ele>
        <time>2023-11-22T13:47:03Z</time>
      </trkpt>
      <trkpt lat="49.16602" lon="-0.05299">
        <ele>30.1</ele>
        <time>2023-11-22T13:47:04Z</time>
      </trkpt>
      <trkpt lat="49.16595" lon="-0.05305">
        <ele>29.9</ele>
        <time>2023-11-22T13:47:05Z</time>
      </trkpt>
      <trkpt lat="49.16589" lon="-0.05312">
        <ele>29.9</ele>
        <time>2023-11-22T13:47:06Z</time>
      </trkpt>
      <trkpt lat="49.16585" lon="-0.0532">
        <ele>29.8</ele>
        <time>2023-11-22T13:47:07Z</time>
      </trkpt>
      <trkpt lat="49.16582" lon="-0.05329">
        <ele>29.7</ele>
        <time>2023-11-22T13:47:08Z</time>
      </trkpt>
      <trkpt lat="49.16579" lon="-0.05338">
        <ele>29.7</ele>
        <time>2023-11-22T13:47:09Z</time>
      </trkpt>
      <trkpt lat="49.16578" lon="-0.05348">
        <ele>29.6</ele>
        <time>2023-11-22T13:47:10Z</time>
      </trkpt>
      <trkpt lat="49.16577" lon="-0.05358">
        <ele>29.5</ele>
        <time>2023-11-22T13:47:11Z</time>
      </trkpt>
      <trkpt lat="49.16577" lon="-0.05367">
        <ele>29.4</ele>
        <time>2023-11-22T13:47:12Z</time>
      </trkpt>
      <trkpt lat="49.16577" lon="-0.05376">
        <ele>29.3</ele>
        <time>2023-11-22T13:47:13Z</time>
      </trkpt>
      <trkpt lat="49.16577" lon="-0.05385">
        <ele>29.2</ele>
        <time>2023-11-22T13:47:14Z</time>
      </trkpt>
      <trkpt lat="49.16577" lon="-0.05395">
        <ele>29</ele>
        <time>2023-11-22T13:47:15Z</time>
      </trkpt>
      <trkpt lat="49.16577" lon="-0.05404">
        <ele>28.9</ele>
        <time>2023-11-22T13:47:16Z</time>
      </trkpt>
      <trkpt lat="49.16577" lon="-0.05414">
        <ele>28.8</ele>
        <time>2023-11-22T13:47:17Z</time>
      </trkpt>
      <trkpt lat="49.16578" lon="-0.05424">
        <ele>28.6</ele>
        <time>2023-11-22T13:47:18Z</time>
      </trkpt>
      <trkpt lat="49.16579" lon="-0.05434">
        <ele>28.4</ele>
        <time>2023-11-22T13:47:19Z</time>
      </trkpt>
      <trkpt lat="49.16579" lon="-0.05445">
        <ele>28.2</ele>
        <time>2023-11-22T13:47:20Z</time>
      </trkpt>
      <trkpt lat="49.16581" lon="-0.05456">
        <ele>27.9</ele>
        <time>2023-11-22T13:47:21Z</time>
      </trkpt>
      <trkpt lat="49.16583" lon="-0.05467">
        <ele>27.6</ele>
        <time>2023-11-22T13:47:22Z</time>
      </trkpt>
      <trkpt lat="49.16585" lon="-0.05479">
        <ele>27.3</ele>
        <time>2023-11-22T13:47:23Z</time>
      </trkpt>
      <trkpt lat="49.16587" lon="-0.0549">
        <ele>27.2</ele>
        <time>2023-11-22T13:47:24Z</time>
      </trkpt>
      <trkpt lat="49.16588" lon="-0.05502">
        <ele>27.1</ele>
        <time>2023-11-22T13:47:25Z</time>
      </trkpt>
      <trkpt lat="49.16588" lon="-0.05513">
        <ele>26.8</ele>
        <time>2023-11-22T13:47:26Z</time>
      </trkpt>
      <trkpt lat="49.16587" lon="-0.05523">
        <ele>26.6</ele>
        <time>2023-11-22T13:47:27Z</time>
      </trkpt>
      <trkpt lat="49.16587" lon="-0.05535">
        <ele>26.3</ele>
        <time>2023-11-22T13:47:28Z</time>
      </trkpt>
      <trkpt lat="49.16586" lon="-0.05546">
        <ele>26.1</ele>
        <time>2023-11-22T13:47:29Z</time>
      </trkpt>
      <trkpt lat="49.16585" lon="-0.05558">
        <ele>25.8</ele>
        <time>2023-11-22T13:47:30Z</time>
      </trkpt>
      <trkpt lat="49.16584" lon="-0.0557">
        <ele>25.6</ele>
        <time>2023-11-22T13:47:31Z</time>
      </trkpt>
      <trkpt lat="49.16583" lon="-0.05582">
        <ele>25.4</ele>
        <time>2023-11-22T13:47:32Z</time>
      </trkpt>
      <trkpt lat="49.16582" lon="-0.05595">
        <ele>25.2</ele>
        <time>2023-11-22T13:47:33Z</time>
      </trkpt>
      <trkpt lat="49.16581" lon="-0.05607">
        <ele>25</ele>
        <time>2023-11-22T13:47:34Z</time>
      </trkpt>
      <trkpt lat="49.1658" lon="-0.05619">
        <ele>24.9</ele>
        <time>2023-11-22T13:47:35Z</time>
      </trkpt>
      <trkpt lat="49.16578" lon="-0.05632">
        <ele>24.7</ele>
        <time>2023-11-22T13:47:36Z</time>
      </trkpt>
      <trkpt lat="49.16577" lon="-0.05644">
        <ele>24.5</ele>
        <time>2023-11-22T13:47:37Z</time>
      </trkpt>
      <trkpt lat="49.16575" lon="-0.05656">
        <ele>24.2</ele>
        <time>2023-11-22T13:47:38Z</time>
      </trkpt>
      <trkpt lat="49.16573" lon="-0.05667">
        <ele>24</ele>
        <time>2023-11-22T13:47:39Z</time>
      </trkpt>
      <trkpt lat="49.16572" lon="-0.05676">
        <ele>23.9</ele>
        <time>2023-11-22T13:47:40Z</time>
      </trkpt>
      <trkpt lat="49.16571" lon="-0.05684">
        <ele>23.7</ele>
        <time>2023-11-22T13:47:41Z</time>
      </trkpt>
      <trkpt lat="49.1657" lon="-0.05691">
        <ele>23.6</ele>
        <time>2023-11-22T13:47:42Z</time>
      </trkpt>
      <trkpt lat="49.1657" lon="-0.05698">
        <ele>23.6</ele>
        <time>2023-11-22T13:47:43Z</time>
      </trkpt>
      <trkpt lat="49.16569" lon="-0.05704">
        <ele>23.5</ele>
        <time>2023-11-22T13:47:44Z</time>
      </trkpt>
      <trkpt lat="49.1657" lon="-0.0571">
        <ele>23.5</ele>
        <time>2023-11-22T13:47:45Z</time>
      </trkpt>
      <trkpt lat="49.1657" lon="-0.05715">
        <ele>23.4</ele>
        <time>2023-11-22T13:47:46Z</time>
      </trkpt>
      <trkpt lat="49.16569" lon="-0.05719">
        <ele>23.3</ele>
        <time>2023-11-22T13:47:47Z</time>
      </trkpt>
      <trkpt lat="49.16568" lon="-0.05724">
        <ele>23.3</ele>
        <time>2023-11-22T13:47:48Z</time>
      </trkpt>
      <trkpt lat="49.16564" lon="-0.05728">
        <ele>23.3</ele>
        <time>2023-11-22T13:47:49Z</time>
      </trkpt>
      <trkpt lat="49.1656" lon="-0.05731">
        <ele>23.2</ele>
        <time>2023-11-22T13:47:50Z</time>
      </trkpt>
      <trkpt lat="49.16555" lon="-0.05733">
        <ele>23.1</ele>
        <time>2023-11-22T13:47:51Z</time>
      </trkpt>
      <trkpt lat="49.1655" lon="-0.05735">
        <ele>23</ele>
        <time>2023-11-22T13:47:52Z</time>
      </trkpt>
      <trkpt lat="49.16545" lon="-0.05738">
        <ele>22.8</ele>
        <time>2023-11-22T13:47:53Z</time>
      </trkpt>
      <trkpt lat="49.1654" lon="-0.0574">
        <ele>22.7</ele>
        <time>2023-11-22T13:47:54Z</time>
      </trkpt>
      <trkpt lat="49.16534" lon="-0.05743">
        <ele>22.5</ele>
        <time>2023-11-22T13:47:55Z</time>
      </trkpt>
      <trkpt lat="49.16528" lon="-0.05746">
        <ele>22.3</ele>
        <time>2023-11-22T13:47:56Z</time>
      </trkpt>
      <trkpt lat="49.16521" lon="-0.05748">
        <ele>22.2</ele>
        <time>2023-11-22T13:47:57Z</time>
      </trkpt>
      <trkpt lat="49.16515" lon="-0.0575">
        <ele>22.1</ele>
        <time>2023-11-22T13:47:58Z</time>
      </trkpt>
      <trkpt lat="49.16508" lon="-0.05753">
        <ele>21.9</ele>
        <time>2023-11-22T13:47:59Z</time>
      </trkpt>
      <trkpt lat="49.16501" lon="-0.05755">
        <ele>21.8</ele>
        <time>2023-11-22T13:48:00Z</time>
      </trkpt>
      <trkpt lat="49.16494" lon="-0.05759">
        <ele>21.6</ele>
        <time>2023-11-22T13:48:01Z</time>
      </trkpt>
      <trkpt lat="49.16486" lon="-0.05762">
        <ele>21.5</ele>
        <time>2023-11-22T13:48:02Z</time>
      </trkpt>
      <trkpt lat="49.16479" lon="-0.05764">
        <ele>21.4</ele>
        <time>2023-11-22T13:48:03Z</time>
      </trkpt>
      <trkpt lat="49.16472" lon="-0.05767">
        <ele>21.3</ele>
        <time>2023-11-22T13:48:04Z</time>
      </trkpt>
      <trkpt lat="49.16465" lon="-0.05771">
        <ele>21.2</ele>
        <time>2023-11-22T13:48:05Z</time>
      </trkpt>
      <trkpt lat="49.16457" lon="-0.05774">
        <ele>21.1</ele>
        <time>2023-11-22T13:48:06Z</time>
      </trkpt>
      <trkpt lat="49.1645" lon="-0.05777">
        <ele>21.1</ele>
        <time>2023-11-22T13:48:07Z</time>
      </trkpt>
      <trkpt lat="49.16443" lon="-0.0578">
        <ele>21</ele>
        <time>2023-11-22T13:48:08Z</time>
      </trkpt>
      <trkpt lat="49.16436" lon="-0.05783">
        <ele>20.9</ele>
        <time>2023-11-22T13:48:09Z</time>
      </trkpt>
      <trkpt lat="49.16428" lon="-0.05786">
        <ele>20.9</ele>
        <time>2023-11-22T13:48:10Z</time>
      </trkpt>
      <trkpt lat="49.16421" lon="-0.05789">
        <ele>20.8</ele>
        <time>2023-11-22T13:48:11Z</time>
      </trkpt>
      <trkpt lat="49.16414" lon="-0.05792">
        <ele>20.8</ele>
        <time>2023-11-22T13:48:12Z</time>
      </trkpt>
      <trkpt lat="49.16406" lon="-0.05795">
        <ele>20.7</ele>
        <time>2023-11-22T13:48:13Z</time>
      </trkpt>
      <trkpt lat="49.16399" lon="-0.05798">
        <ele>20.6</ele>
        <time>2023-11-22T13:48:14Z</time>
      </trkpt>
      <trkpt lat="49.16391" lon="-0.05802">
        <ele>20.5</ele>
        <time>2023-11-22T13:48:15Z</time>
      </trkpt>
      <trkpt lat="49.16384" lon="-0.05805">
        <ele>20.4</ele>
        <time>2023-11-22T13:48:16Z</time>
      </trkpt>
      <trkpt lat="49.16376" lon="-0.05808">
        <ele>20.3</ele>
        <time>2023-11-22T13:48:17Z</time>
      </trkpt>
      <trkpt lat="49.16369" lon="-0.05811">
        <ele>20.2</ele>
        <time>2023-11-22T13:48:18Z</time>
      </trkpt>
      <trkpt lat="49.16361" lon="-0.05814">
        <ele>20</ele>
        <time>2023-11-22T13:48:19Z</time>
      </trkpt>
      <trkpt lat="49.16354" lon="-0.05817">
        <ele>19.9</ele>
        <time>2023-11-22T13:48:20Z</time>
      </trkpt>
      <trkpt lat="49.16346" lon="-0.05821">
        <ele>19.7</ele>
        <time>2023-11-22T13:48:21Z</time>
      </trkpt>
      <trkpt lat="49.16339" lon="-0.05824">
        <ele>19.5</ele>
        <time>2023-11-22T13:48:22Z</time>
      </trkpt>
      <trkpt lat="49.16331" lon="-0.05827">
        <ele>19.3</ele>
        <time>2023-11-22T13:48:23Z</time>
      </trkpt>
      <trkpt lat="49.16323" lon="-0.0583">
        <ele>19.1</ele>
        <time>2023-11-22T13:48:24Z</time>
      </trkpt>
      <trkpt lat="49.16315" lon="-0.05833">
        <ele>19</ele>
        <time>2023-11-22T13:48:25Z</time>
      </trkpt>
      <trkpt lat="49.16307" lon="-0.05837">
        <ele>18.8</ele>
        <time>2023-11-22T13:48:26Z</time>
      </trkpt>
      <trkpt lat="49.16299" lon="-0.0584">
        <ele>18.6</ele>
        <time>2023-11-22T13:48:27Z</time>
      </trkpt>
      <trkpt lat="49.16291" lon="-0.05844">
        <ele>18.4</ele>
        <time>2023-11-22T13:48:28Z</time>
      </trkpt>
      <trkpt lat="49.16283" lon="-0.05847">
        <ele>18.2</ele>
        <time>2023-11-22T13:48:29Z</time>
      </trkpt>
      <trkpt lat="49.16275" lon="-0.0585">
        <ele>18</ele>
        <time>2023-11-22T13:48:30Z</time>
      </trkpt>
      <trkpt lat="49.16267" lon="-0.05854">
        <ele>17.8</ele>
        <time>2023-11-22T13:48:31Z</time>
      </trkpt>
      <trkpt lat="49.16259" lon="-0.05858">
        <ele>17.6</ele>
        <time>2023-11-22T13:48:32Z</time>
      </trkpt>
      <trkpt lat="49.1625" lon="-0.05861">
        <ele>17.4</ele>
        <time>2023-11-22T13:48:33Z</time>
      </trkpt>
      <trkpt lat="49.16242" lon="-0.05865">
        <ele>17.2</ele>
        <time>2023-11-22T13:48:34Z</time>
      </trkpt>
      <trkpt lat="49.16234" lon="-0.05868">
        <ele>17</ele>
        <time>2023-11-22T13:48:35Z</time>
      </trkpt>
      <trkpt lat="49.16226" lon="-0.05871">
        <ele>16.7</ele>
        <time>2023-11-22T13:48:36Z</time>
      </trkpt>
      <trkpt lat="49.16218" lon="-0.05875">
        <ele>16.5</ele>
        <time>2023-11-22T13:48:37Z</time>
      </trkpt>
      <trkpt lat="49.1621" lon="-0.05878">
        <ele>16.2</ele>
        <time>2023-11-22T13:48:38Z</time>
      </trkpt>
      <trkpt lat="49.16202" lon="-0.05881">
        <ele>15.9</ele>
        <time>2023-11-22T13:48:39Z</time>
      </trkpt>
      <trkpt lat="49.16194" lon="-0.05885">
        <ele>15.6</ele>
        <time>2023-11-22T13:48:40Z</time>
      </trkpt>
      <trkpt lat="49.16185" lon="-0.05888">
        <ele>15.4</ele>
        <time>2023-11-22T13:48:41Z</time>
      </trkpt>
      <trkpt lat="49.16177" lon="-0.05891">
        <ele>15.1</ele>
        <time>2023-11-22T13:48:42Z</time>
      </trkpt>
      <trkpt lat="49.16169" lon="-0.05894">
        <ele>14.9</ele>
        <time>2023-11-22T13:48:43Z</time>
      </trkpt>
      <trkpt lat="49.1616" lon="-0.05897">
        <ele>14.6</ele>
        <time>2023-11-22T13:48:44Z</time>
      </trkpt>
      <trkpt lat="49.16152" lon="-0.05901">
        <ele>14.3</ele>
        <time>2023-11-22T13:48:45Z</time>
      </trkpt>
      <trkpt lat="49.16143" lon="-0.05904">
        <ele>14</ele>
        <time>2023-11-22T13:48:46Z</time>
      </trkpt>
      <trkpt lat="49.16135" lon="-0.05908">
        <ele>13.6</ele>
        <time>2023-11-22T13:48:47Z</time>
      </trkpt>
      <trkpt lat="49.16126" lon="-0.05912">
        <ele>13.3</ele>
        <time>2023-11-22T13:48:48Z</time>
      </trkpt>
      <trkpt lat="49.16118" lon="-0.05915">
        <ele>13</ele>
        <time>2023-11-22T13:48:49Z</time>
      </trkpt>
      <trkpt lat="49.16109" lon="-0.05918">
        <ele>12.6</ele>
        <time>2023-11-22T13:48:50Z</time>
      </trkpt>
      <trkpt lat="49.161" lon="-0.05922">
        <ele>12.2</ele>
        <time>2023-11-22T13:48:51Z</time>
      </trkpt>
      <trkpt lat="49.16091" lon="-0.05926">
        <ele>11.9</ele>
        <time>2023-11-22T13:48:52Z</time>
      </trkpt>
      <trkpt lat="49.16082" lon="-0.0593">
        <ele>11.5</ele>
        <time>2023-11-22T13:48:53Z</time>
      </trkpt>
      <trkpt lat="49.16073" lon="-0.05933">
        <ele>11.2</ele>
        <time>2023-11-22T13:48:54Z</time>
      </trkpt>
      <trkpt lat="49.16064" lon="-0.05937">
        <ele>10.8</ele>
        <time>2023-11-22T13:48:55Z</time>
      </trkpt>
      <trkpt lat="49.16055" lon="-0.05941">
        <ele>10.5</ele>
        <time>2023-11-22T13:48:56Z</time>
      </trkpt>
      <trkpt lat="49.16046" lon="-0.05945">
        <ele>10.2</ele>
        <time>2023-11-22T13:48:57Z</time>
      </trkpt>
      <trkpt lat="49.16036" lon="-0.05949">
        <ele>9.8</ele>
        <time>2023-11-22T13:48:58Z</time>
      </trkpt>
      <trkpt lat="49.16026" lon="-0.05953">
        <ele>9.5</ele>
        <time>2023-11-22T13:48:59Z</time>
      </trkpt>
      <trkpt lat="49.16017" lon="-0.05957">
        <ele>9.2</ele>
        <time>2023-11-22T13:49:00Z</time>
      </trkpt>
      <trkpt lat="49.16007" lon="-0.05961">
        <ele>8.9</ele>
        <time>2023-11-22T13:49:01Z</time>
      </trkpt>
      <trkpt lat="49.15998" lon="-0.05965">
        <ele>8.6</ele>
        <time>2023-11-22T13:49:02Z</time>
      </trkpt>
      <trkpt lat="49.15988" lon="-0.05969">
        <ele>8.4</ele>
        <time>2023-11-22T13:49:03Z</time>
      </trkpt>
      <trkpt lat="49.15979" lon="-0.05973">
        <ele>8.1</ele>
        <time>2023-11-22T13:49:04Z</time>
      </trkpt>
      <trkpt lat="49.15969" lon="-0.05977">
        <ele>7.9</ele>
        <time>2023-11-22T13:49:05Z</time>
      </trkpt>
      <trkpt lat="49.1596" lon="-0.05981">
        <ele>7.7</ele>
        <time>2023-11-22T13:49:06Z</time>
      </trkpt>
      <trkpt lat="49.15951" lon="-0.05985">
        <ele>7.5</ele>
        <time>2023-11-22T13:49:07Z</time>
      </trkpt>
      <trkpt lat="49.15942" lon="-0.05989">
        <ele>7.4</ele>
        <time>2023-11-22T13:49:08Z</time>
      </trkpt>
      <trkpt lat="49.15933" lon="-0.05993">
        <ele>7.3</ele>
        <time>2023-11-22T13:49:09Z</time>
      </trkpt>
      <trkpt lat="49.15925" lon="-0.05996">
        <ele>7.2</ele>
        <time>2023-11-22T13:49:10Z</time>
      </trkpt>
      <trkpt lat="49.15917" lon="-0.05999">
        <ele>7.1</ele>
        <time>2023-11-22T13:49:11Z</time>
      </trkpt>
      <trkpt lat="49.15909" lon="-0.06003">
        <ele>7.1</ele>
        <time>2023-11-22T13:49:12Z</time>
      </trkpt>
      <trkpt lat="49.15901" lon="-0.06006">
        <ele>7</ele>
        <time>2023-11-22T13:49:13Z</time>
      </trkpt>
      <trkpt lat="49.15893" lon="-0.0601">
        <ele>6.9</ele>
        <time>2023-11-22T13:49:14Z</time>
      </trkpt>
      <trkpt lat="49.15885" lon="-0.06013">
        <ele>6.9</ele>
        <time>2023-11-22T13:49:15Z</time>
      </trkpt>
      <trkpt lat="49.15877" lon="-0.06016">
        <ele>6.9</ele>
        <time>2023-11-22T13:49:16Z</time>
      </trkpt>
      <trkpt lat="49.1587" lon="-0.0602">
        <ele>6.9</ele>
        <time>2023-11-22T13:49:17Z</time>
      </trkpt>
      <trkpt lat="49.15862" lon="-0.06023">
        <ele>6.9</ele>
        <time>2023-11-22T13:49:18Z</time>
      </trkpt>
      <trkpt lat="49.15854" lon="-0.06026">
        <ele>6.9</ele>
        <time>2023-11-22T13:49:19Z</time>
      </trkpt>
      <trkpt lat="49.15847" lon="-0.0603">
        <ele>7</ele>
        <time>2023-11-22T13:49:20Z</time>
      </trkpt>
      <trkpt lat="49.15839" lon="-0.06033">
        <ele>6.9</ele>
        <time>2023-11-22T13:49:21Z</time>
      </trkpt>
      <trkpt lat="49.15831" lon="-0.06036">
        <ele>6.9</ele>
        <time>2023-11-22T13:49:22Z</time>
      </trkpt>
      <trkpt lat="49.15824" lon="-0.06039">
        <ele>6.9</ele>
        <time>2023-11-22T13:49:23Z</time>
      </trkpt>
      <trkpt lat="49.15816" lon="-0.06042">
        <ele>6.9</ele>
        <time>2023-11-22T13:49:24Z</time>
      </trkpt>
      <trkpt lat="49.15808" lon="-0.06046">
        <ele>6.7</ele>
        <time>2023-11-22T13:49:25Z</time>
      </trkpt>
      <trkpt lat="49.15801" lon="-0.06049">
        <ele>6.6</ele>
        <time>2023-11-22T13:49:26Z</time>
      </trkpt>
      <trkpt lat="49.15793" lon="-0.06053">
        <ele>6.5</ele>
        <time>2023-11-22T13:49:27Z</time>
      </trkpt>
      <trkpt lat="49.15785" lon="-0.06057">
        <ele>6.3</ele>
        <time>2023-11-22T13:49:28Z</time>
      </trkpt>
      <trkpt lat="49.15769" lon="-0.06064">
        <ele>6.2</ele>
        <time>2023-11-22T13:49:30Z</time>
      </trkpt>
      <trkpt lat="49.15761" lon="-0.06067">
        <ele>6.1</ele>
        <time>2023-11-22T13:49:31Z</time>
      </trkpt>
      <trkpt lat="49.15753" lon="-0.0607">
        <ele>6</ele>
        <time>2023-11-22T13:49:32Z</time>
      </trkpt>
      <trkpt lat="49.15745" lon="-0.06073">
        <ele>5.9</ele>
        <time>2023-11-22T13:49:33Z</time>
      </trkpt>
      <trkpt lat="49.15737" lon="-0.06076">
        <ele>5.9</ele>
        <time>2023-11-22T13:49:34Z</time>
      </trkpt>
      <trkpt lat="49.1573" lon="-0.06079">
        <ele>5.8</ele>
        <time>2023-11-22T13:49:35Z</time>
      </trkpt>
      <trkpt lat="49.15714" lon="-0.06086">
        <ele>5.7</ele>
        <time>2023-11-22T13:49:37Z</time>
      </trkpt>
      <trkpt lat="49.15706" lon="-0.0609">
        <ele>5.7</ele>
        <time>2023-11-22T13:49:38Z</time>
      </trkpt>
      <trkpt lat="49.15698" lon="-0.06093">
        <ele>5.7</ele>
        <time>2023-11-22T13:49:39Z</time>
      </trkpt>
      <trkpt lat="49.1569" lon="-0.06097">
        <ele>5.7</ele>
        <time>2023-11-22T13:49:40Z</time>
      </trkpt>
      <trkpt lat="49.15682" lon="-0.061">
        <ele>5.7</ele>
        <time>2023-11-22T13:49:41Z</time>
      </trkpt>
      <trkpt lat="49.15674" lon="-0.06103">
        <ele>5.7</ele>
        <time>2023-11-22T13:49:42Z</time>
      </trkpt>
      <trkpt lat="49.15666" lon="-0.06106">
        <ele>5.7</ele>
        <time>2023-11-22T13:49:43Z</time>
      </trkpt>
      <trkpt lat="49.15659" lon="-0.06109">
        <ele>5.7</ele>
        <time>2023-11-22T13:49:44Z</time>
      </trkpt>
      <trkpt lat="49.15651" lon="-0.06112">
        <ele>5.7</ele>
        <time>2023-11-22T13:49:45Z</time>
      </trkpt>
      <trkpt lat="49.15643" lon="-0.06115">
        <ele>5.7</ele>
        <time>2023-11-22T13:49:46Z</time>
      </trkpt>
      <trkpt lat="49.15636" lon="-0.06119">
        <ele>5.7</ele>
        <time>2023-11-22T13:49:47Z</time>
      </trkpt>
      <trkpt lat="49.15628" lon="-0.06122">
        <ele>5.7</ele>
        <time>2023-11-22T13:49:48Z</time>
      </trkpt>
      <trkpt lat="49.1562" lon="-0.06125">
        <ele>5.7</ele>
        <time>2023-11-22T13:49:49Z</time>
      </trkpt>
      <trkpt lat="49.15612" lon="-0.06128">
        <ele>5.7</ele>
        <time>2023-11-22T13:49:50Z</time>
      </trkpt>
      <trkpt lat="49.15605" lon="-0.06131">
        <ele>5.7</ele>
        <time>2023-11-22T13:49:51Z</time>
      </trkpt>
      <trkpt lat="49.15597" lon="-0.06135">
        <ele>5.7</ele>
        <time>2023-11-22T13:49:52Z</time>
      </trkpt>
      <trkpt lat="49.1559" lon="-0.06138">
        <ele>5.7</ele>
        <time>2023-11-22T13:49:53Z</time>
      </trkpt>
      <trkpt lat="49.15583" lon="-0.06141">
        <ele>5.7</ele>
        <time>2023-11-22T13:49:54Z</time>
      </trkpt>
      <trkpt lat="49.15576" lon="-0.06143">
        <ele>5.7</ele>
        <time>2023-11-22T13:49:55Z</time>
      </trkpt>
      <trkpt lat="49.1557" lon="-0.06146">
        <ele>5.7</ele>
        <time>2023-11-22T13:49:56Z</time>
      </trkpt>
      <trkpt lat="49.15563" lon="-0.06149">
        <ele>5.7</ele>
        <time>2023-11-22T13:49:57Z</time>
      </trkpt>
      <trkpt lat="49.15556" lon="-0.06152">
        <ele>5.7</ele>
        <time>2023-11-22T13:49:58Z</time>
      </trkpt>
      <trkpt lat="49.1555" lon="-0.06155">
        <ele>5.7</ele>
        <time>2023-11-22T13:49:59Z</time>
      </trkpt>
      <trkpt lat="49.15537" lon="-0.06161">
        <ele>5.6</ele>
        <time>2023-11-22T13:50:01Z</time>
      </trkpt>
      <trkpt lat="49.1553" lon="-0.06164">
        <ele>5.6</ele>
        <time>2023-11-22T13:50:02Z</time>
      </trkpt>
      <trkpt lat="49.15523" lon="-0.06167">
        <ele>5.6</ele>
        <time>2023-11-22T13:50:03Z</time>
      </trkpt>
      <trkpt lat="49.15517" lon="-0.06169">
        <ele>5.6</ele>
        <time>2023-11-22T13:50:04Z</time>
      </trkpt>
      <trkpt lat="49.1551" lon="-0.06172">
        <ele>5.6</ele>
        <time>2023-11-22T13:50:05Z</time>
      </trkpt>
      <trkpt lat="49.15504" lon="-0.06174">
        <ele>5.7</ele>
        <time>2023-11-22T13:50:06Z</time>
      </trkpt>
      <trkpt lat="49.15497" lon="-0.06177">
        <ele>5.7</ele>
        <time>2023-11-22T13:50:07Z</time>
      </trkpt>
      <trkpt lat="49.1549" lon="-0.0618">
        <ele>5.7</ele>
        <time>2023-11-22T13:50:08Z</time>
      </trkpt>
      <trkpt lat="49.15483" lon="-0.06183">
        <ele>5.7</ele>
        <time>2023-11-22T13:50:09Z</time>
      </trkpt>
      <trkpt lat="49.15476" lon="-0.06186">
        <ele>5.7</ele>
        <time>2023-11-22T13:50:10Z</time>
      </trkpt>
      <trkpt lat="49.15469" lon="-0.06189">
        <ele>5.7</ele>
        <time>2023-11-22T13:50:11Z</time>
      </trkpt>
      <trkpt lat="49.15462" lon="-0.06192">
        <ele>5.8</ele>
        <time>2023-11-22T13:50:12Z</time>
      </trkpt>
      <trkpt lat="49.15455" lon="-0.06195">
        <ele>5.8</ele>
        <time>2023-11-22T13:50:13Z</time>
      </trkpt>
      <trkpt lat="49.15448" lon="-0.06198">
        <ele>5.8</ele>
        <time>2023-11-22T13:50:14Z</time>
      </trkpt>
      <trkpt lat="49.1544" lon="-0.06201">
        <ele>5.7</ele>
        <time>2023-11-22T13:50:15Z</time>
      </trkpt>
      <trkpt lat="49.15433" lon="-0.06204">
        <ele>5.7</ele>
        <time>2023-11-22T13:50:16Z</time>
      </trkpt>
      <trkpt lat="49.15425" lon="-0.06207">
        <ele>5.8</ele>
        <time>2023-11-22T13:50:17Z</time>
      </trkpt>
      <trkpt lat="49.15418" lon="-0.06211">
        <ele>5.8</ele>
        <time>2023-11-22T13:50:18Z</time>
      </trkpt>
      <trkpt lat="49.15411" lon="-0.06214">
        <ele>5.8</ele>
        <time>2023-11-22T13:50:19Z</time>
      </trkpt>
      <trkpt lat="49.15403" lon="-0.06217">
        <ele>5.8</ele>
        <time>2023-11-22T13:50:20Z</time>
      </trkpt>
      <trkpt lat="49.15395" lon="-0.0622">
        <ele>5.8</ele>
        <time>2023-11-22T13:50:21Z</time>
      </trkpt>
      <trkpt lat="49.15388" lon="-0.06223">
        <ele>5.8</ele>
        <time>2023-11-22T13:50:22Z</time>
      </trkpt>
      <trkpt lat="49.1538" lon="-0.06226">
        <ele>5.8</ele>
        <time>2023-11-22T13:50:23Z</time>
      </trkpt>
      <trkpt lat="49.15373" lon="-0.06229">
        <ele>5.8</ele>
        <time>2023-11-22T13:50:24Z</time>
      </trkpt>
      <trkpt lat="49.15365" lon="-0.06232">
        <ele>5.9</ele>
        <time>2023-11-22T13:50:25Z</time>
      </trkpt>
      <trkpt lat="49.15358" lon="-0.06235">
        <ele>5.9</ele>
        <time>2023-11-22T13:50:26Z</time>
      </trkpt>
      <trkpt lat="49.1535" lon="-0.06237">
        <ele>5.9</ele>
        <time>2023-11-22T13:50:27Z</time>
      </trkpt>
      <trkpt lat="49.15343" lon="-0.0624">
        <ele>5.9</ele>
        <time>2023-11-22T13:50:28Z</time>
      </trkpt>
      <trkpt lat="49.15335" lon="-0.06243">
        <ele>6</ele>
        <time>2023-11-22T13:50:29Z</time>
      </trkpt>
      <trkpt lat="49.15328" lon="-0.06247">
        <ele>6</ele>
        <time>2023-11-22T13:50:30Z</time>
      </trkpt>
      <trkpt lat="49.15321" lon="-0.0625">
        <ele>6</ele>
        <time>2023-11-22T13:50:31Z</time>
      </trkpt>
      <trkpt lat="49.15313" lon="-0.06253">
        <ele>6</ele>
        <time>2023-11-22T13:50:32Z</time>
      </trkpt>
      <trkpt lat="49.15305" lon="-0.06256">
        <ele>6</ele>
        <time>2023-11-22T13:50:33Z</time>
      </trkpt>
      <trkpt lat="49.15298" lon="-0.06259">
        <ele>6</ele>
        <time>2023-11-22T13:50:34Z</time>
      </trkpt>
      <trkpt lat="49.1529" lon="-0.06263">
        <ele>6</ele>
        <time>2023-11-22T13:50:35Z</time>
      </trkpt>
      <trkpt lat="49.15282" lon="-0.06266">
        <ele>6</ele>
        <time>2023-11-22T13:50:36Z</time>
      </trkpt>
      <trkpt lat="49.15275" lon="-0.0627">
        <ele>6</ele>
        <time>2023-11-22T13:50:37Z</time>
      </trkpt>
      <trkpt lat="49.15267" lon="-0.06273">
        <ele>6</ele>
        <time>2023-11-22T13:50:38Z</time>
      </trkpt>
      <trkpt lat="49.15259" lon="-0.06277">
        <ele>6</ele>
        <time>2023-11-22T13:50:39Z</time>
      </trkpt>
      <trkpt lat="49.15251" lon="-0.0628">
        <ele>6</ele>
        <time>2023-11-22T13:50:40Z</time>
      </trkpt>
      <trkpt lat="49.15243" lon="-0.06283">
        <ele>6</ele>
        <time>2023-11-22T13:50:41Z</time>
      </trkpt>
      <trkpt lat="49.15235" lon="-0.06287">
        <ele>6</ele>
        <time>2023-11-22T13:50:42Z</time>
      </trkpt>
      <trkpt lat="49.15227" lon="-0.0629">
        <ele>6.1</ele>
        <time>2023-11-22T13:50:43Z</time>
      </trkpt>
      <trkpt lat="49.15219" lon="-0.06294">
        <ele>6.1</ele>
        <time>2023-11-22T13:50:44Z</time>
      </trkpt>
      <trkpt lat="49.15211" lon="-0.06297">
        <ele>6.1</ele>
        <time>2023-11-22T13:50:45Z</time>
      </trkpt>
      <trkpt lat="49.15203" lon="-0.063">
        <ele>6.1</ele>
        <time>2023-11-22T13:50:46Z</time>
      </trkpt>
      <trkpt lat="49.15195" lon="-0.06304">
        <ele>6.1</ele>
        <time>2023-11-22T13:50:47Z</time>
      </trkpt>
      <trkpt lat="49.15187" lon="-0.06307">
        <ele>6.2</ele>
        <time>2023-11-22T13:50:48Z</time>
      </trkpt>
      <trkpt lat="49.15179" lon="-0.0631">
        <ele>6.2</ele>
        <time>2023-11-22T13:50:49Z</time>
      </trkpt>
      <trkpt lat="49.15171" lon="-0.06313">
        <ele>6.3</ele>
        <time>2023-11-22T13:50:50Z</time>
      </trkpt>
      <trkpt lat="49.15164" lon="-0.06317">
        <ele>6.3</ele>
        <time>2023-11-22T13:50:51Z</time>
      </trkpt>
      <trkpt lat="49.15156" lon="-0.0632">
        <ele>6.4</ele>
        <time>2023-11-22T13:50:52Z</time>
      </trkpt>
      <trkpt lat="49.15149" lon="-0.06323">
        <ele>6.4</ele>
        <time>2023-11-22T13:50:53Z</time>
      </trkpt>
      <trkpt lat="49.15141" lon="-0.06326">
        <ele>6.5</ele>
        <time>2023-11-22T13:50:54Z</time>
      </trkpt>
      <trkpt lat="49.15133" lon="-0.06329">
        <ele>6.5</ele>
        <time>2023-11-22T13:50:55Z</time>
      </trkpt>
      <trkpt lat="49.15126" lon="-0.06332">
        <ele>6.6</ele>
        <time>2023-11-22T13:50:56Z</time>
      </trkpt>
      <trkpt lat="49.15119" lon="-0.06335">
        <ele>6.6</ele>
        <time>2023-11-22T13:50:57Z</time>
      </trkpt>
      <trkpt lat="49.15111" lon="-0.06338">
        <ele>6.7</ele>
        <time>2023-11-22T13:50:58Z</time>
      </trkpt>
      <trkpt lat="49.15104" lon="-0.06341">
        <ele>6.7</ele>
        <time>2023-11-22T13:50:59Z</time>
      </trkpt>
      <trkpt lat="49.15096" lon="-0.06343">
        <ele>6.7</ele>
        <time>2023-11-22T13:51:00Z</time>
      </trkpt>
      <trkpt lat="49.15089" lon="-0.06346">
        <ele>6.8</ele>
        <time>2023-11-22T13:51:01Z</time>
      </trkpt>
      <trkpt lat="49.15082" lon="-0.0635">
        <ele>6.8</ele>
        <time>2023-11-22T13:51:02Z</time>
      </trkpt>
      <trkpt lat="49.15074" lon="-0.06353">
        <ele>6.9</ele>
        <time>2023-11-22T13:51:03Z</time>
      </trkpt>
      <trkpt lat="49.15067" lon="-0.06356">
        <ele>6.9</ele>
        <time>2023-11-22T13:51:04Z</time>
      </trkpt>
      <trkpt lat="49.15059" lon="-0.06359">
        <ele>7</ele>
        <time>2023-11-22T13:51:05Z</time>
      </trkpt>
      <trkpt lat="49.15052" lon="-0.06362">
        <ele>7.1</ele>
        <time>2023-11-22T13:51:06Z</time>
      </trkpt>
      <trkpt lat="49.15045" lon="-0.06365">
        <ele>7.1</ele>
        <time>2023-11-22T13:51:07Z</time>
      </trkpt>
      <trkpt lat="49.15038" lon="-0.06368">
        <ele>7.2</ele>
        <time>2023-11-22T13:51:08Z</time>
      </trkpt>
      <trkpt lat="49.15031" lon="-0.06371">
        <ele>7.3</ele>
        <time>2023-11-22T13:51:09Z</time>
      </trkpt>
      <trkpt lat="49.15024" lon="-0.06374">
        <ele>7.4</ele>
        <time>2023-11-22T13:51:10Z</time>
      </trkpt>
      <trkpt lat="49.15017" lon="-0.06377">
        <ele>7.5</ele>
        <time>2023-11-22T13:51:11Z</time>
      </trkpt>
      <trkpt lat="49.1501" lon="-0.0638">
        <ele>7.6</ele>
        <time>2023-11-22T13:51:12Z</time>
      </trkpt>
      <trkpt lat="49.15003" lon="-0.06384">
        <ele>7.7</ele>
        <time>2023-11-22T13:51:13Z</time>
      </trkpt>
      <trkpt lat="49.14996" lon="-0.06388">
        <ele>7.8</ele>
        <time>2023-11-22T13:51:14Z</time>
      </trkpt>
      <trkpt lat="49.14989" lon="-0.06393">
        <ele>7.9</ele>
        <time>2023-11-22T13:51:15Z</time>
      </trkpt>
      <trkpt lat="49.14982" lon="-0.06399">
        <ele>8.1</ele>
        <time>2023-11-22T13:51:16Z</time>
      </trkpt>
      <trkpt lat="49.14975" lon="-0.06405">
        <ele>8.3</ele>
        <time>2023-11-22T13:51:17Z</time>
      </trkpt>
      <trkpt lat="49.14969" lon="-0.0641">
        <ele>8.5</ele>
        <time>2023-11-22T13:51:18Z</time>
      </trkpt>
      <trkpt lat="49.14963" lon="-0.06416">
        <ele>8.6</ele>
        <time>2023-11-22T13:51:19Z</time>
      </trkpt>
      <trkpt lat="49.14956" lon="-0.06421">
        <ele>8.6</ele>
        <time>2023-11-22T13:51:20Z</time>
      </trkpt>
      <trkpt lat="49.14951" lon="-0.06427">
        <ele>8.6</ele>
        <time>2023-11-22T13:51:21Z</time>
      </trkpt>
      <trkpt lat="49.14945" lon="-0.06432">
        <ele>8.7</ele>
        <time>2023-11-22T13:51:22Z</time>
      </trkpt>
      <trkpt lat="49.1494" lon="-0.06438">
        <ele>8.7</ele>
        <time>2023-11-22T13:51:23Z</time>
      </trkpt>
      <trkpt lat="49.14935" lon="-0.06445">
        <ele>8.7</ele>
        <time>2023-11-22T13:51:24Z</time>
      </trkpt>
      <trkpt lat="49.1493" lon="-0.06451">
        <ele>8.7</ele>
        <time>2023-11-22T13:51:25Z</time>
      </trkpt>
      <trkpt lat="49.14925" lon="-0.06458">
        <ele>8.7</ele>
        <time>2023-11-22T13:51:26Z</time>
      </trkpt>
      <trkpt lat="49.14921" lon="-0.06465">
        <ele>8.7</ele>
        <time>2023-11-22T13:51:27Z</time>
      </trkpt>
      <trkpt lat="49.14916" lon="-0.06472">
        <ele>8.7</ele>
        <time>2023-11-22T13:51:28Z</time>
      </trkpt>
      <trkpt lat="49.14912" lon="-0.06478">
        <ele>8.7</ele>
        <time>2023-11-22T13:51:29Z</time>
      </trkpt>
      <trkpt lat="49.14907" lon="-0.06485">
        <ele>8.6</ele>
        <time>2023-11-22T13:51:30Z</time>
      </trkpt>
      <trkpt lat="49.14903" lon="-0.06492">
        <ele>8.6</ele>
        <time>2023-11-22T13:51:31Z</time>
      </trkpt>
      <trkpt lat="49.14898" lon="-0.06499">
        <ele>8.6</ele>
        <time>2023-11-22T13:51:32Z</time>
      </trkpt>
      <trkpt lat="49.14893" lon="-0.06506">
        <ele>8.5</ele>
        <time>2023-11-22T13:51:33Z</time>
      </trkpt>
      <trkpt lat="49.14888" lon="-0.06514">
        <ele>8.5</ele>
        <time>2023-11-22T13:51:34Z</time>
      </trkpt>
      <trkpt lat="49.14882" lon="-0.06521">
        <ele>8.4</ele>
        <time>2023-11-22T13:51:35Z</time>
      </trkpt>
      <trkpt lat="49.14877" lon="-0.06527">
        <ele>8.3</ele>
        <time>2023-11-22T13:51:36Z</time>
      </trkpt>
      <trkpt lat="49.1487" lon="-0.06533">
        <ele>8.3</ele>
        <time>2023-11-22T13:51:37Z</time>
      </trkpt>
      <trkpt lat="49.14863" lon="-0.06538">
        <ele>8.2</ele>
        <time>2023-11-22T13:51:38Z</time>
      </trkpt>
      <trkpt lat="49.14855" lon="-0.06543">
        <ele>8.2</ele>
        <time>2023-11-22T13:51:39Z</time>
      </trkpt>
      <trkpt lat="49.14847" lon="-0.06546">
        <ele>8.2</ele>
        <time>2023-11-22T13:51:40Z</time>
      </trkpt>
      <trkpt lat="49.14839" lon="-0.06548">
        <ele>8.1</ele>
        <time>2023-11-22T13:51:41Z</time>
      </trkpt>
      <trkpt lat="49.1483" lon="-0.0655">
        <ele>8.1</ele>
        <time>2023-11-22T13:51:42Z</time>
      </trkpt>
      <trkpt lat="49.14822" lon="-0.06552">
        <ele>8.1</ele>
        <time>2023-11-22T13:51:43Z</time>
      </trkpt>
      <trkpt lat="49.14814" lon="-0.06554">
        <ele>8.1</ele>
        <time>2023-11-22T13:51:44Z</time>
      </trkpt>
      <trkpt lat="49.14806" lon="-0.06555">
        <ele>8.2</ele>
        <time>2023-11-22T13:51:45Z</time>
      </trkpt>
      <trkpt lat="49.14799" lon="-0.06557">
        <ele>8.3</ele>
        <time>2023-11-22T13:51:46Z</time>
      </trkpt>
      <trkpt lat="49.14791" lon="-0.06558">
        <ele>8.4</ele>
        <time>2023-11-22T13:51:47Z</time>
      </trkpt>
      <trkpt lat="49.14783" lon="-0.06558">
        <ele>8.5</ele>
        <time>2023-11-22T13:51:48Z</time>
      </trkpt>
      <trkpt lat="49.14776" lon="-0.06559">
        <ele>8.6</ele>
        <time>2023-11-22T13:51:49Z</time>
      </trkpt>
      <trkpt lat="49.14768" lon="-0.0656">
        <ele>8.8</ele>
        <time>2023-11-22T13:51:50Z</time>
      </trkpt>
      <trkpt lat="49.1476" lon="-0.06562">
        <ele>8.9</ele>
        <time>2023-11-22T13:51:51Z</time>
      </trkpt>
      <trkpt lat="49.14753" lon="-0.06564">
        <ele>9.1</ele>
        <time>2023-11-22T13:51:52Z</time>
      </trkpt>
      <trkpt lat="49.14745" lon="-0.06567">
        <ele>9.3</ele>
        <time>2023-11-22T13:51:53Z</time>
      </trkpt>
      <trkpt lat="49.14738" lon="-0.06572">
        <ele>9.4</ele>
        <time>2023-11-22T13:51:54Z</time>
      </trkpt>
      <trkpt lat="49.14731" lon="-0.06578">
        <ele>9.6</ele>
        <time>2023-11-22T13:51:55Z</time>
      </trkpt>
      <trkpt lat="49.14725" lon="-0.06585">
        <ele>9.8</ele>
        <time>2023-11-22T13:51:56Z</time>
      </trkpt>
      <trkpt lat="49.14719" lon="-0.06593">
        <ele>10</ele>
        <time>2023-11-22T13:51:57Z</time>
      </trkpt>
      <trkpt lat="49.14714" lon="-0.06602">
        <ele>10.1</ele>
        <time>2023-11-22T13:51:58Z</time>
      </trkpt>
      <trkpt lat="49.1471" lon="-0.06612">
        <ele>10.2</ele>
        <time>2023-11-22T13:51:59Z</time>
      </trkpt>
      <trkpt lat="49.14706" lon="-0.06622">
        <ele>10.4</ele>
        <time>2023-11-22T13:52:00Z</time>
      </trkpt>
      <trkpt lat="49.14703" lon="-0.06633">
        <ele>10.6</ele>
        <time>2023-11-22T13:52:01Z</time>
      </trkpt>
      <trkpt lat="49.14701" lon="-0.06644">
        <ele>10.9</ele>
        <time>2023-11-22T13:52:02Z</time>
      </trkpt>
      <trkpt lat="49.14698" lon="-0.06655">
        <ele>11.1</ele>
        <time>2023-11-22T13:52:03Z</time>
      </trkpt>
      <trkpt lat="49.14695" lon="-0.06665">
        <ele>11.3</ele>
        <time>2023-11-22T13:52:04Z</time>
      </trkpt>
      <trkpt lat="49.14693" lon="-0.06674">
        <ele>11.4</ele>
        <time>2023-11-22T13:52:05Z</time>
      </trkpt>
      <trkpt lat="49.14691" lon="-0.06684">
        <ele>11.6</ele>
        <time>2023-11-22T13:52:06Z</time>
      </trkpt>
      <trkpt lat="49.14688" lon="-0.06693">
        <ele>11.8</ele>
        <time>2023-11-22T13:52:07Z</time>
      </trkpt>
      <trkpt lat="49.14686" lon="-0.06702">
        <ele>11.9</ele>
        <time>2023-11-22T13:52:08Z</time>
      </trkpt>
      <trkpt lat="49.14683" lon="-0.06711">
        <ele>12</ele>
        <time>2023-11-22T13:52:09Z</time>
      </trkpt>
      <trkpt lat="49.1468" lon="-0.06721">
        <ele>12.2</ele>
        <time>2023-11-22T13:52:10Z</time>
      </trkpt>
      <trkpt lat="49.14677" lon="-0.0673">
        <ele>12.3</ele>
        <time>2023-11-22T13:52:11Z</time>
      </trkpt>
      <trkpt lat="49.14674" lon="-0.0674">
        <ele>12.4</ele>
        <time>2023-11-22T13:52:12Z</time>
      </trkpt>
      <trkpt lat="49.1467" lon="-0.06749">
        <ele>12.4</ele>
        <time>2023-11-22T13:52:13Z</time>
      </trkpt>
      <trkpt lat="49.14666" lon="-0.06758">
        <ele>12.5</ele>
        <time>2023-11-22T13:52:14Z</time>
      </trkpt>
      <trkpt lat="49.14661" lon="-0.06767">
        <ele>12.5</ele>
        <time>2023-11-22T13:52:15Z</time>
      </trkpt>
      <trkpt lat="49.14656" lon="-0.06777">
        <ele>12.6</ele>
        <time>2023-11-22T13:52:16Z</time>
      </trkpt>
      <trkpt lat="49.1465" lon="-0.06786">
        <ele>12.6</ele>
        <time>2023-11-22T13:52:17Z</time>
      </trkpt>
      <trkpt lat="49.14645" lon="-0.06796">
        <ele>12.6</ele>
        <time>2023-11-22T13:52:18Z</time>
      </trkpt>
      <trkpt lat="49.1464" lon="-0.06805">
        <ele>12.7</ele>
        <time>2023-11-22T13:52:19Z</time>
      </trkpt>
      <trkpt lat="49.14635" lon="-0.06815">
        <ele>12.7</ele>
        <time>2023-11-22T13:52:20Z</time>
      </trkpt>
      <trkpt lat="49.1463" lon="-0.06824">
        <ele>12.8</ele>
        <time>2023-11-22T13:52:21Z</time>
      </trkpt>
      <trkpt lat="49.14625" lon="-0.06833">
        <ele>12.8</ele>
        <time>2023-11-22T13:52:22Z</time>
      </trkpt>
      <trkpt lat="49.14619" lon="-0.06842">
        <ele>12.8</ele>
        <time>2023-11-22T13:52:23Z</time>
      </trkpt>
      <trkpt lat="49.14614" lon="-0.06851">
        <ele>12.9</ele>
        <time>2023-11-22T13:52:24Z</time>
      </trkpt>
      <trkpt lat="49.14609" lon="-0.0686">
        <ele>12.9</ele>
        <time>2023-11-22T13:52:25Z</time>
      </trkpt>
      <trkpt lat="49.14604" lon="-0.06869">
        <ele>13</ele>
        <time>2023-11-22T13:52:26Z</time>
      </trkpt>
      <trkpt lat="49.14598" lon="-0.06878">
        <ele>13</ele>
        <time>2023-11-22T13:52:27Z</time>
      </trkpt>
      <trkpt lat="49.14593" lon="-0.06886">
        <ele>13</ele>
        <time>2023-11-22T13:52:28Z</time>
      </trkpt>
      <trkpt lat="49.14588" lon="-0.06894">
        <ele>13.1</ele>
        <time>2023-11-22T13:52:29Z</time>
      </trkpt>
      <trkpt lat="49.14583" lon="-0.06902">
        <ele>13.1</ele>
        <time>2023-11-22T13:52:30Z</time>
      </trkpt>
      <trkpt lat="49.14578" lon="-0.06911">
        <ele>13.1</ele>
        <time>2023-11-22T13:52:31Z</time>
      </trkpt>
      <trkpt lat="49.14573" lon="-0.06919">
        <ele>13.1</ele>
        <time>2023-11-22T13:52:32Z</time>
      </trkpt>
      <trkpt lat="49.14568" lon="-0.06927">
        <ele>13.2</ele>
        <time>2023-11-22T13:52:33Z</time>
      </trkpt>
      <trkpt lat="49.14562" lon="-0.06935">
        <ele>13.2</ele>
        <time>2023-11-22T13:52:34Z</time>
      </trkpt>
      <trkpt lat="49.14557" lon="-0.06943">
        <ele>13.2</ele>
        <time>2023-11-22T13:52:35Z</time>
      </trkpt>
      <trkpt lat="49.14552" lon="-0.06952">
        <ele>13.3</ele>
        <time>2023-11-22T13:52:36Z</time>
      </trkpt>
      <trkpt lat="49.14547" lon="-0.06961">
        <ele>13.3</ele>
        <time>2023-11-22T13:52:37Z</time>
      </trkpt>
      <trkpt lat="49.14541" lon="-0.06969">
        <ele>13.3</ele>
        <time>2023-11-22T13:52:38Z</time>
      </trkpt>
      <trkpt lat="49.14536" lon="-0.06978">
        <ele>13.2</ele>
        <time>2023-11-22T13:52:39Z</time>
      </trkpt>
      <trkpt lat="49.14531" lon="-0.06986">
        <ele>13.2</ele>
        <time>2023-11-22T13:52:40Z</time>
      </trkpt>
      <trkpt lat="49.14526" lon="-0.06994">
        <ele>13.2</ele>
        <time>2023-11-22T13:52:41Z</time>
      </trkpt>
      <trkpt lat="49.14521" lon="-0.07003">
        <ele>13.1</ele>
        <time>2023-11-22T13:52:42Z</time>
      </trkpt>
      <trkpt lat="49.14516" lon="-0.07011">
        <ele>13.1</ele>
        <time>2023-11-22T13:52:43Z</time>
      </trkpt>
      <trkpt lat="49.1451" lon="-0.0702">
        <ele>13</ele>
        <time>2023-11-22T13:52:44Z</time>
      </trkpt>
      <trkpt lat="49.14505" lon="-0.07028">
        <ele>13</ele>
        <time>2023-11-22T13:52:45Z</time>
      </trkpt>
      <trkpt lat="49.14499" lon="-0.07037">
        <ele>12.9</ele>
        <time>2023-11-22T13:52:46Z</time>
      </trkpt>
      <trkpt lat="49.14493" lon="-0.07045">
        <ele>12.8</ele>
        <time>2023-11-22T13:52:47Z</time>
      </trkpt>
      <trkpt lat="49.14487" lon="-0.07054">
        <ele>12.7</ele>
        <time>2023-11-22T13:52:48Z</time>
      </trkpt>
      <trkpt lat="49.1448" lon="-0.07062">
        <ele>12.5</ele>
        <time>2023-11-22T13:52:49Z</time>
      </trkpt>
      <trkpt lat="49.14474" lon="-0.0707">
        <ele>12.4</ele>
        <time>2023-11-22T13:52:50Z</time>
      </trkpt>
      <trkpt lat="49.14467" lon="-0.07079">
        <ele>12.3</ele>
        <time>2023-11-22T13:52:51Z</time>
      </trkpt>
      <trkpt lat="49.1446" lon="-0.07086">
        <ele>12.1</ele>
        <time>2023-11-22T13:52:52Z</time>
      </trkpt>
      <trkpt lat="49.14453" lon="-0.07094">
        <ele>11.9</ele>
        <time>2023-11-22T13:52:53Z</time>
      </trkpt>
      <trkpt lat="49.14447" lon="-0.07101">
        <ele>11.8</ele>
        <time>2023-11-22T13:52:54Z</time>
      </trkpt>
      <trkpt lat="49.1444" lon="-0.07108">
        <ele>11.6</ele>
        <time>2023-11-22T13:52:55Z</time>
      </trkpt>
      <trkpt lat="49.14434" lon="-0.07116">
        <ele>11.4</ele>
        <time>2023-11-22T13:52:56Z</time>
      </trkpt>
      <trkpt lat="49.14428" lon="-0.07123">
        <ele>11.2</ele>
        <time>2023-11-22T13:52:57Z</time>
      </trkpt>
      <trkpt lat="49.14422" lon="-0.0713">
        <ele>11</ele>
        <time>2023-11-22T13:52:58Z</time>
      </trkpt>
      <trkpt lat="49.14416" lon="-0.07137">
        <ele>10.7</ele>
        <time>2023-11-22T13:52:59Z</time>
      </trkpt>
      <trkpt lat="49.14409" lon="-0.07145">
        <ele>10.4</ele>
        <time>2023-11-22T13:53:00Z</time>
      </trkpt>
      <trkpt lat="49.14402" lon="-0.07153">
        <ele>10.1</ele>
        <time>2023-11-22T13:53:01Z</time>
      </trkpt>
      <trkpt lat="49.14396" lon="-0.0716">
        <ele>9.8</ele>
        <time>2023-11-22T13:53:02Z</time>
      </trkpt>
      <trkpt lat="49.14389" lon="-0.07168">
        <ele>9.5</ele>
        <time>2023-11-22T13:53:03Z</time>
      </trkpt>
      <trkpt lat="49.14382" lon="-0.07176">
        <ele>9.2</ele>
        <time>2023-11-22T13:53:04Z</time>
      </trkpt>
      <trkpt lat="49.14375" lon="-0.07183">
        <ele>8.9</ele>
        <time>2023-11-22T13:53:05Z</time>
      </trkpt>
      <trkpt lat="49.14368" lon="-0.07191">
        <ele>8.7</ele>
        <time>2023-11-22T13:53:06Z</time>
      </trkpt>
      <trkpt lat="49.1436" lon="-0.07199">
        <ele>8.5</ele>
        <time>2023-11-22T13:53:07Z</time>
      </trkpt>
      <trkpt lat="49.14354" lon="-0.07207">
        <ele>8.3</ele>
        <time>2023-11-22T13:53:08Z</time>
      </trkpt>
      <trkpt lat="49.14347" lon="-0.07215">
        <ele>8.2</ele>
        <time>2023-11-22T13:53:09Z</time>
      </trkpt>
      <trkpt lat="49.1434" lon="-0.07223">
        <ele>8.1</ele>
        <time>2023-11-22T13:53:10Z</time>
      </trkpt>
      <trkpt lat="49.14333" lon="-0.07232">
        <ele>8</ele>
        <time>2023-11-22T13:53:11Z</time>
      </trkpt>
      <trkpt lat="49.14327" lon="-0.0724">
        <ele>7.9</ele>
        <time>2023-11-22T13:53:12Z</time>
      </trkpt>
      <trkpt lat="49.1432" lon="-0.07249">
        <ele>7.8</ele>
        <time>2023-11-22T13:53:13Z</time>
      </trkpt>
      <trkpt lat="49.14314" lon="-0.07258">
        <ele>7.7</ele>
        <time>2023-11-22T13:53:14Z</time>
      </trkpt>
      <trkpt lat="49.14308" lon="-0.07267">
        <ele>7.5</ele>
        <time>2023-11-22T13:53:15Z</time>
      </trkpt>
      <trkpt lat="49.14302" lon="-0.07276">
        <ele>7.4</ele>
        <time>2023-11-22T13:53:16Z</time>
      </trkpt>
      <trkpt lat="49.14297" lon="-0.07286">
        <ele>7.3</ele>
        <time>2023-11-22T13:53:17Z</time>
      </trkpt>
      <trkpt lat="49.14292" lon="-0.07296">
        <ele>7.2</ele>
        <time>2023-11-22T13:53:18Z</time>
      </trkpt>
      <trkpt lat="49.14286" lon="-0.07306">
        <ele>7.2</ele>
        <time>2023-11-22T13:53:19Z</time>
      </trkpt>
      <trkpt lat="49.14281" lon="-0.07315">
        <ele>7.1</ele>
        <time>2023-11-22T13:53:20Z</time>
      </trkpt>
      <trkpt lat="49.14276" lon="-0.07324">
        <ele>7.1</ele>
        <time>2023-11-22T13:53:21Z</time>
      </trkpt>
      <trkpt lat="49.1427" lon="-0.07332">
        <ele>7.1</ele>
        <time>2023-11-22T13:53:22Z</time>
      </trkpt>
      <trkpt lat="49.14265" lon="-0.07341">
        <ele>7.1</ele>
        <time>2023-11-22T13:53:23Z</time>
      </trkpt>
      <trkpt lat="49.14259" lon="-0.07349">
        <ele>7.2</ele>
        <time>2023-11-22T13:53:24Z</time>
      </trkpt>
      <trkpt lat="49.14253" lon="-0.07357">
        <ele>7.2</ele>
        <time>2023-11-22T13:53:25Z</time>
      </trkpt>
      <trkpt lat="49.14246" lon="-0.07364">
        <ele>7.3</ele>
        <time>2023-11-22T13:53:26Z</time>
      </trkpt>
      <trkpt lat="49.1424" lon="-0.07371">
        <ele>7.3</ele>
        <time>2023-11-22T13:53:27Z</time>
      </trkpt>
      <trkpt lat="49.14233" lon="-0.07379">
        <ele>7.4</ele>
        <time>2023-11-22T13:53:28Z</time>
      </trkpt>
      <trkpt lat="49.14227" lon="-0.07387">
        <ele>7.4</ele>
        <time>2023-11-22T13:53:29Z</time>
      </trkpt>
      <trkpt lat="49.14221" lon="-0.07394">
        <ele>7.4</ele>
        <time>2023-11-22T13:53:30Z</time>
      </trkpt>
      <trkpt lat="49.14214" lon="-0.07402">
        <ele>7.5</ele>
        <time>2023-11-22T13:53:31Z</time>
      </trkpt>
      <trkpt lat="49.14208" lon="-0.07411">
        <ele>7.5</ele>
        <time>2023-11-22T13:53:32Z</time>
      </trkpt>
      <trkpt lat="49.14202" lon="-0.07419">
        <ele>7.5</ele>
        <time>2023-11-22T13:53:33Z</time>
      </trkpt>
      <trkpt lat="49.14196" lon="-0.07426">
        <ele>7.6</ele>
        <time>2023-11-22T13:53:34Z</time>
      </trkpt>
      <trkpt lat="49.14189" lon="-0.07433">
        <ele>7.6</ele>
        <time>2023-11-22T13:53:35Z</time>
      </trkpt>
      <trkpt lat="49.14183" lon="-0.0744">
        <ele>7.6</ele>
        <time>2023-11-22T13:53:36Z</time>
      </trkpt>
      <trkpt lat="49.14176" lon="-0.07446">
        <ele>7.6</ele>
        <time>2023-11-22T13:53:37Z</time>
      </trkpt>
      <trkpt lat="49.1417" lon="-0.07452">
        <ele>7.6</ele>
        <time>2023-11-22T13:53:38Z</time>
      </trkpt>
      <trkpt lat="49.14163" lon="-0.07457">
        <ele>7.6</ele>
        <time>2023-11-22T13:53:39Z</time>
      </trkpt>
      <trkpt lat="49.14156" lon="-0.07462">
        <ele>7.6</ele>
        <time>2023-11-22T13:53:40Z</time>
      </trkpt>
      <trkpt lat="49.14149" lon="-0.07466">
        <ele>7.6</ele>
        <time>2023-11-22T13:53:41Z</time>
      </trkpt>
      <trkpt lat="49.14142" lon="-0.07471">
        <ele>7.6</ele>
        <time>2023-11-22T13:53:42Z</time>
      </trkpt>
      <trkpt lat="49.14136" lon="-0.07476">
        <ele>7.5</ele>
        <time>2023-11-22T13:53:43Z</time>
      </trkpt>
      <trkpt lat="49.14129" lon="-0.0748">
        <ele>7.5</ele>
        <time>2023-11-22T13:53:44Z</time>
      </trkpt>
      <trkpt lat="49.14122" lon="-0.07484">
        <ele>7.5</ele>
        <time>2023-11-22T13:53:45Z</time>
      </trkpt>
      <trkpt lat="49.14115" lon="-0.07488">
        <ele>7.5</ele>
        <time>2023-11-22T13:53:46Z</time>
      </trkpt>
      <trkpt lat="49.14109" lon="-0.07493">
        <ele>7.4</ele>
        <time>2023-11-22T13:53:47Z</time>
      </trkpt>
      <trkpt lat="49.14102" lon="-0.07497">
        <ele>7.4</ele>
        <time>2023-11-22T13:53:48Z</time>
      </trkpt>
      <trkpt lat="49.14095" lon="-0.07501">
        <ele>7.3</ele>
        <time>2023-11-22T13:53:49Z</time>
      </trkpt>
      <trkpt lat="49.14087" lon="-0.07506">
        <ele>7.2</ele>
        <time>2023-11-22T13:53:50Z</time>
      </trkpt>
      <trkpt lat="49.1408" lon="-0.0751">
        <ele>7.1</ele>
        <time>2023-11-22T13:53:51Z</time>
      </trkpt>
      <trkpt lat="49.14073" lon="-0.07515">
        <ele>7</ele>
        <time>2023-11-22T13:53:52Z</time>
      </trkpt>
      <trkpt lat="49.14065" lon="-0.0752">
        <ele>6.9</ele>
        <time>2023-11-22T13:53:53Z</time>
      </trkpt>
      <trkpt lat="49.14058" lon="-0.07525">
        <ele>6.8</ele>
        <time>2023-11-22T13:53:54Z</time>
      </trkpt>
      <trkpt lat="49.14052" lon="-0.07533">
        <ele>6.8</ele>
        <time>2023-11-22T13:53:55Z</time>
      </trkpt>
      <trkpt lat="49.14046" lon="-0.0754">
        <ele>6.8</ele>
        <time>2023-11-22T13:53:56Z</time>
      </trkpt>
      <trkpt lat="49.1404" lon="-0.07549">
        <ele>6.8</ele>
        <time>2023-11-22T13:53:57Z</time>
      </trkpt>
      <trkpt lat="49.14034" lon="-0.07558">
        <ele>6.8</ele>
        <time>2023-11-22T13:53:58Z</time>
      </trkpt>
      <trkpt lat="49.14029" lon="-0.07566">
        <ele>6.8</ele>
        <time>2023-11-22T13:53:59Z</time>
      </trkpt>
      <trkpt lat="49.14024" lon="-0.07575">
        <ele>6.9</ele>
        <time>2023-11-22T13:54:00Z</time>
      </trkpt>
      <trkpt lat="49.14019" lon="-0.07583">
        <ele>6.9</ele>
        <time>2023-11-22T13:54:01Z</time>
      </trkpt>
      <trkpt lat="49.14014" lon="-0.07591">
        <ele>7</ele>
        <time>2023-11-22T13:54:02Z</time>
      </trkpt>
      <trkpt lat="49.14009" lon="-0.07599">
        <ele>7</ele>
        <time>2023-11-22T13:54:03Z</time>
      </trkpt>
      <trkpt lat="49.14004" lon="-0.07607">
        <ele>7.1</ele>
        <time>2023-11-22T13:54:04Z</time>
      </trkpt>
      <trkpt lat="49.13999" lon="-0.07614">
        <ele>7.2</ele>
        <time>2023-11-22T13:54:05Z</time>
      </trkpt>
      <trkpt lat="49.13994" lon="-0.07621">
        <ele>7.2</ele>
        <time>2023-11-22T13:54:06Z</time>
      </trkpt>
      <trkpt lat="49.13989" lon="-0.07628">
        <ele>7.3</ele>
        <time>2023-11-22T13:54:07Z</time>
      </trkpt>
      <trkpt lat="49.13983" lon="-0.07635">
        <ele>7.3</ele>
        <time>2023-11-22T13:54:08Z</time>
      </trkpt>
      <trkpt lat="49.13977" lon="-0.07642">
        <ele>7.4</ele>
        <time>2023-11-22T13:54:09Z</time>
      </trkpt>
      <trkpt lat="49.1397" lon="-0.07648">
        <ele>7.4</ele>
        <time>2023-11-22T13:54:10Z</time>
      </trkpt>
      <trkpt lat="49.13964" lon="-0.07653">
        <ele>7.5</ele>
        <time>2023-11-22T13:54:11Z</time>
      </trkpt>
      <trkpt lat="49.13957" lon="-0.07657">
        <ele>7.5</ele>
        <time>2023-11-22T13:54:12Z</time>
      </trkpt>
      <trkpt lat="49.1395" lon="-0.0766">
        <ele>7.6</ele>
        <time>2023-11-22T13:54:13Z</time>
      </trkpt>
      <trkpt lat="49.13942" lon="-0.07662">
        <ele>7.7</ele>
        <time>2023-11-22T13:54:14Z</time>
      </trkpt>
      <trkpt lat="49.13935" lon="-0.07663">
        <ele>7.8</ele>
        <time>2023-11-22T13:54:15Z</time>
      </trkpt>
      <trkpt lat="49.13928" lon="-0.07663">
        <ele>7.8</ele>
        <time>2023-11-22T13:54:16Z</time>
      </trkpt>
      <trkpt lat="49.13922" lon="-0.07662">
        <ele>7.9</ele>
        <time>2023-11-22T13:54:17Z</time>
      </trkpt>
      <trkpt lat="49.13916" lon="-0.07662">
        <ele>8</ele>
        <time>2023-11-22T13:54:18Z</time>
      </trkpt>
      <trkpt lat="49.13911" lon="-0.07661">
        <ele>8.1</ele>
        <time>2023-11-22T13:54:19Z</time>
      </trkpt>
      <trkpt lat="49.13906" lon="-0.07661">
        <ele>8.2</ele>
        <time>2023-11-22T13:54:20Z</time>
      </trkpt>
      <trkpt lat="49.13901" lon="-0.0766">
        <ele>8.2</ele>
        <time>2023-11-22T13:54:21Z</time>
      </trkpt>
      <trkpt lat="49.13896" lon="-0.0766">
        <ele>8.3</ele>
        <time>2023-11-22T13:54:22Z</time>
      </trkpt>
      <trkpt lat="49.13891" lon="-0.07659">
        <ele>8.4</ele>
        <time>2023-11-22T13:54:23Z</time>
      </trkpt>
      <trkpt lat="49.13886" lon="-0.07658">
        <ele>8.4</ele>
        <time>2023-11-22T13:54:24Z</time>
      </trkpt>
      <trkpt lat="49.1388" lon="-0.07657">
        <ele>8.5</ele>
        <time>2023-11-22T13:54:25Z</time>
      </trkpt>
      <trkpt lat="49.13875" lon="-0.07655">
        <ele>8.5</ele>
        <time>2023-11-22T13:54:26Z</time>
      </trkpt>
      <trkpt lat="49.1387" lon="-0.07651">
        <ele>8.5</ele>
        <time>2023-11-22T13:54:27Z</time>
      </trkpt>
      <trkpt lat="49.13864" lon="-0.07648">
        <ele>8.5</ele>
        <time>2023-11-22T13:54:28Z</time>
      </trkpt>
      <trkpt lat="49.13859" lon="-0.07645">
        <ele>8.5</ele>
        <time>2023-11-22T13:54:29Z</time>
      </trkpt>
      <trkpt lat="49.13853" lon="-0.07642">
        <ele>8.6</ele>
        <time>2023-11-22T13:54:30Z</time>
      </trkpt>
      <trkpt lat="49.13847" lon="-0.07639">
        <ele>8.6</ele>
        <time>2023-11-22T13:54:31Z</time>
      </trkpt>
      <trkpt lat="49.13841" lon="-0.07636">
        <ele>8.7</ele>
        <time>2023-11-22T13:54:32Z</time>
      </trkpt>
      <trkpt lat="49.13835" lon="-0.07633">
        <ele>8.8</ele>
        <time>2023-11-22T13:54:33Z</time>
      </trkpt>
      <trkpt lat="49.13829" lon="-0.07629">
        <ele>8.9</ele>
        <time>2023-11-22T13:54:34Z</time>
      </trkpt>
      <trkpt lat="49.13823" lon="-0.07626">
        <ele>8.9</ele>
        <time>2023-11-22T13:54:35Z</time>
      </trkpt>
      <trkpt lat="49.13817" lon="-0.07623">
        <ele>9</ele>
        <time>2023-11-22T13:54:36Z</time>
      </trkpt>
      <trkpt lat="49.13811" lon="-0.0762">
        <ele>9.1</ele>
        <time>2023-11-22T13:54:37Z</time>
      </trkpt>
      <trkpt lat="49.13804" lon="-0.07617">
        <ele>9.2</ele>
        <time>2023-11-22T13:54:38Z</time>
      </trkpt>
      <trkpt lat="49.13798" lon="-0.07613">
        <ele>9.4</ele>
        <time>2023-11-22T13:54:39Z</time>
      </trkpt>
      <trkpt lat="49.13792" lon="-0.0761">
        <ele>9.5</ele>
        <time>2023-11-22T13:54:40Z</time>
      </trkpt>
      <trkpt lat="49.13786" lon="-0.07606">
        <ele>9.6</ele>
        <time>2023-11-22T13:54:41Z</time>
      </trkpt>
      <trkpt lat="49.1378" lon="-0.07602">
        <ele>9.6</ele>
        <time>2023-11-22T13:54:42Z</time>
      </trkpt>
      <trkpt lat="49.13774" lon="-0.07598">
        <ele>9.7</ele>
        <time>2023-11-22T13:54:43Z</time>
      </trkpt>
      <trkpt lat="49.13768" lon="-0.07594">
        <ele>9.7</ele>
        <time>2023-11-22T13:54:44Z</time>
      </trkpt>
      <trkpt lat="49.13762" lon="-0.07591">
        <ele>9.7</ele>
        <time>2023-11-22T13:54:45Z</time>
      </trkpt>
      <trkpt lat="49.13756" lon="-0.07588">
        <ele>9.7</ele>
        <time>2023-11-22T13:54:46Z</time>
      </trkpt>
      <trkpt lat="49.1375" lon="-0.07584">
        <ele>9.8</ele>
        <time>2023-11-22T13:54:47Z</time>
      </trkpt>
      <trkpt lat="49.13744" lon="-0.07581">
        <ele>9.8</ele>
        <time>2023-11-22T13:54:48Z</time>
      </trkpt>
      <trkpt lat="49.13738" lon="-0.07578">
        <ele>9.9</ele>
        <time>2023-11-22T13:54:49Z</time>
      </trkpt>
      <trkpt lat="49.13732" lon="-0.07575">
        <ele>9.9</ele>
        <time>2023-11-22T13:54:50Z</time>
      </trkpt>
      <trkpt lat="49.13725" lon="-0.07571">
        <ele>10</ele>
        <time>2023-11-22T13:54:51Z</time>
      </trkpt>
      <trkpt lat="49.13719" lon="-0.07568">
        <ele>10.1</ele>
        <time>2023-11-22T13:54:52Z</time>
      </trkpt>
      <trkpt lat="49.13712" lon="-0.07565">
        <ele>10.2</ele>
        <time>2023-11-22T13:54:53Z</time>
      </trkpt>
      <trkpt lat="49.13705" lon="-0.07563">
        <ele>10.3</ele>
        <time>2023-11-22T13:54:54Z</time>
      </trkpt>
      <trkpt lat="49.13699" lon="-0.0756">
        <ele>10.4</ele>
        <time>2023-11-22T13:54:55Z</time>
      </trkpt>
      <trkpt lat="49.13692" lon="-0.07559">
        <ele>10.5</ele>
        <time>2023-11-22T13:54:56Z</time>
      </trkpt>
      <trkpt lat="49.13685" lon="-0.07558">
        <ele>10.5</ele>
        <time>2023-11-22T13:54:57Z</time>
      </trkpt>
      <trkpt lat="49.13678" lon="-0.07558">
        <ele>10.5</ele>
        <time>2023-11-22T13:54:58Z</time>
      </trkpt>
      <trkpt lat="49.13671" lon="-0.07558">
        <ele>10.5</ele>
        <time>2023-11-22T13:54:59Z</time>
      </trkpt>
      <trkpt lat="49.13664" lon="-0.07559">
        <ele>10.5</ele>
        <time>2023-11-22T13:55:00Z</time>
      </trkpt>
      <trkpt lat="49.13657" lon="-0.07561">
        <ele>10.4</ele>
        <time>2023-11-22T13:55:01Z</time>
      </trkpt>
      <trkpt lat="49.13649" lon="-0.07563">
        <ele>10.3</ele>
        <time>2023-11-22T13:55:02Z</time>
      </trkpt>
      <trkpt lat="49.13641" lon="-0.07566">
        <ele>10.2</ele>
        <time>2023-11-22T13:55:03Z</time>
      </trkpt>
      <trkpt lat="49.13633" lon="-0.07569">
        <ele>10.1</ele>
        <time>2023-11-22T13:55:04Z</time>
      </trkpt>
      <trkpt lat="49.13625" lon="-0.07571">
        <ele>10</ele>
        <time>2023-11-22T13:55:05Z</time>
      </trkpt>
      <trkpt lat="49.13617" lon="-0.07574">
        <ele>9.9</ele>
        <time>2023-11-22T13:55:06Z</time>
      </trkpt>
      <trkpt lat="49.13609" lon="-0.07576">
        <ele>9.8</ele>
        <time>2023-11-22T13:55:07Z</time>
      </trkpt>
      <trkpt lat="49.13601" lon="-0.07578">
        <ele>9.8</ele>
        <time>2023-11-22T13:55:08Z</time>
      </trkpt>
      <trkpt lat="49.13594" lon="-0.0758">
        <ele>9.7</ele>
        <time>2023-11-22T13:55:09Z</time>
      </trkpt>
      <trkpt lat="49.13586" lon="-0.07581">
        <ele>9.7</ele>
        <time>2023-11-22T13:55:10Z</time>
      </trkpt>
      <trkpt lat="49.13578" lon="-0.07582">
        <ele>9.6</ele>
        <time>2023-11-22T13:55:11Z</time>
      </trkpt>
      <trkpt lat="49.13569" lon="-0.07581">
        <ele>9.6</ele>
        <time>2023-11-22T13:55:12Z</time>
      </trkpt>
      <trkpt lat="49.13561" lon="-0.07579">
        <ele>9.6</ele>
        <time>2023-11-22T13:55:13Z</time>
      </trkpt>
      <trkpt lat="49.13553" lon="-0.07577">
        <ele>9.6</ele>
        <time>2023-11-22T13:55:14Z</time>
      </trkpt>
      <trkpt lat="49.13546" lon="-0.07575">
        <ele>9.6</ele>
        <time>2023-11-22T13:55:15Z</time>
      </trkpt>
      <trkpt lat="49.13538" lon="-0.07572">
        <ele>9.6</ele>
        <time>2023-11-22T13:55:16Z</time>
      </trkpt>
      <trkpt lat="49.1353" lon="-0.0757">
        <ele>9.6</ele>
        <time>2023-11-22T13:55:17Z</time>
      </trkpt>
      <trkpt lat="49.13523" lon="-0.07568">
        <ele>9.6</ele>
        <time>2023-11-22T13:55:18Z</time>
      </trkpt>
      <trkpt lat="49.13516" lon="-0.07567">
        <ele>9.6</ele>
        <time>2023-11-22T13:55:19Z</time>
      </trkpt>
      <trkpt lat="49.13508" lon="-0.07565">
        <ele>9.7</ele>
        <time>2023-11-22T13:55:20Z</time>
      </trkpt>
      <trkpt lat="49.13501" lon="-0.07564">
        <ele>9.7</ele>
        <time>2023-11-22T13:55:21Z</time>
      </trkpt>
      <trkpt lat="49.13494" lon="-0.07563">
        <ele>9.8</ele>
        <time>2023-11-22T13:55:22Z</time>
      </trkpt>
      <trkpt lat="49.13488" lon="-0.07562">
        <ele>9.8</ele>
        <time>2023-11-22T13:55:23Z</time>
      </trkpt>
      <trkpt lat="49.13481" lon="-0.07561">
        <ele>9.9</ele>
        <time>2023-11-22T13:55:24Z</time>
      </trkpt>
      <trkpt lat="49.13475" lon="-0.0756">
        <ele>9.9</ele>
        <time>2023-11-22T13:55:25Z</time>
      </trkpt>
      <trkpt lat="49.13468" lon="-0.07559">
        <ele>10</ele>
        <time>2023-11-22T13:55:26Z</time>
      </trkpt>
      <trkpt lat="49.13463" lon="-0.07558">
        <ele>10</ele>
        <time>2023-11-22T13:55:27Z</time>
      </trkpt>
      <trkpt lat="49.13457" lon="-0.07558">
        <ele>10</ele>
        <time>2023-11-22T13:55:28Z</time>
      </trkpt>
      <trkpt lat="49.13452" lon="-0.07557">
        <ele>10</ele>
        <time>2023-11-22T13:55:29Z</time>
      </trkpt>
      <trkpt lat="49.13446" lon="-0.07557">
        <ele>10</ele>
        <time>2023-11-22T13:55:30Z</time>
      </trkpt>
      <trkpt lat="49.13441" lon="-0.07556">
        <ele>10</ele>
        <time>2023-11-22T13:55:31Z</time>
      </trkpt>
      <trkpt lat="49.13436" lon="-0.07555">
        <ele>10</ele>
        <time>2023-11-22T13:55:32Z</time>
      </trkpt>
      <trkpt lat="49.13431" lon="-0.07555">
        <ele>10</ele>
        <time>2023-11-22T13:55:33Z</time>
      </trkpt>
      <trkpt lat="49.13426" lon="-0.07555">
        <ele>10</ele>
        <time>2023-11-22T13:55:34Z</time>
      </trkpt>
      <trkpt lat="49.13422" lon="-0.07555">
        <ele>10</ele>
        <time>2023-11-22T13:55:35Z</time>
      </trkpt>
      <trkpt lat="49.13418" lon="-0.07554">
        <ele>10</ele>
        <time>2023-11-22T13:55:36Z</time>
      </trkpt>
      <trkpt lat="49.13415" lon="-0.07554">
        <ele>10</ele>
        <time>2023-11-22T13:55:37Z</time>
      </trkpt>
      <trkpt lat="49.13411" lon="-0.07553">
        <ele>10.1</ele>
        <time>2023-11-22T13:55:38Z</time>
      </trkpt>
      <trkpt lat="49.13408" lon="-0.0755">
        <ele>10.1</ele>
        <time>2023-11-22T13:55:39Z</time>
      </trkpt>
      <trkpt lat="49.13407" lon="-0.07543">
        <ele>10.1</ele>
        <time>2023-11-22T13:55:40Z</time>
      </trkpt>
      <trkpt lat="49.13407" lon="-0.07536">
        <ele>10.2</ele>
        <time>2023-11-22T13:55:41Z</time>
      </trkpt>
      <trkpt lat="49.13407" lon="-0.07528">
        <ele>10.3</ele>
        <time>2023-11-22T13:55:42Z</time>
      </trkpt>
      <trkpt lat="49.13407" lon="-0.07521">
        <ele>10.4</ele>
        <time>2023-11-22T13:55:43Z</time>
      </trkpt>
      <trkpt lat="49.13407" lon="-0.07513">
        <ele>10.5</ele>
        <time>2023-11-22T13:55:44Z</time>
      </trkpt>
      <trkpt lat="49.13408" lon="-0.07504">
        <ele>10.6</ele>
        <time>2023-11-22T13:55:45Z</time>
      </trkpt>
      <trkpt lat="49.13409" lon="-0.07495">
        <ele>10.7</ele>
        <time>2023-11-22T13:55:46Z</time>
      </trkpt>
      <trkpt lat="49.13409" lon="-0.07486">
        <ele>10.8</ele>
        <time>2023-11-22T13:55:47Z</time>
      </trkpt>
      <trkpt lat="49.1341" lon="-0.07476">
        <ele>10.8</ele>
        <time>2023-11-22T13:55:48Z</time>
      </trkpt>
      <trkpt lat="49.13411" lon="-0.07467">
        <ele>10.9</ele>
        <time>2023-11-22T13:55:49Z</time>
      </trkpt>
      <trkpt lat="49.13411" lon="-0.07458">
        <ele>11</ele>
        <time>2023-11-22T13:55:50Z</time>
      </trkpt>
      <trkpt lat="49.13412" lon="-0.07449">
        <ele>11</ele>
        <time>2023-11-22T13:55:51Z</time>
      </trkpt>
      <trkpt lat="49.13412" lon="-0.07441">
        <ele>11</ele>
        <time>2023-11-22T13:55:52Z</time>
      </trkpt>
      <trkpt lat="49.13413" lon="-0.07432">
        <ele>11</ele>
        <time>2023-11-22T13:55:53Z</time>
      </trkpt>
      <trkpt lat="49.13413" lon="-0.07423">
        <ele>11.1</ele>
        <time>2023-11-22T13:55:54Z</time>
      </trkpt>
      <trkpt lat="49.13414" lon="-0.07413">
        <ele>11.1</ele>
        <time>2023-11-22T13:55:55Z</time>
      </trkpt>
      <trkpt lat="49.13414" lon="-0.07404">
        <ele>11.1</ele>
        <time>2023-11-22T13:55:56Z</time>
      </trkpt>
      <trkpt lat="49.13415" lon="-0.07394">
        <ele>11.1</ele>
        <time>2023-11-22T13:55:57Z</time>
      </trkpt>
      <trkpt lat="49.13415" lon="-0.07384">
        <ele>11.1</ele>
        <time>2023-11-22T13:55:58Z</time>
      </trkpt>
      <trkpt lat="49.13415" lon="-0.07373">
        <ele>11.1</ele>
        <time>2023-11-22T13:55:59Z</time>
      </trkpt>
      <trkpt lat="49.13416" lon="-0.07363">
        <ele>11.1</ele>
        <time>2023-11-22T13:56:00Z</time>
      </trkpt>
      <trkpt lat="49.13416" lon="-0.07353">
        <ele>11.1</ele>
        <time>2023-11-22T13:56:01Z</time>
      </trkpt>
      <trkpt lat="49.13417" lon="-0.07343">
        <ele>11.1</ele>
        <time>2023-11-22T13:56:02Z</time>
      </trkpt>
      <trkpt lat="49.13417" lon="-0.07333">
        <ele>11.1</ele>
        <time>2023-11-22T13:56:03Z</time>
      </trkpt>
      <trkpt lat="49.13417" lon="-0.07323">
        <ele>11.1</ele>
        <time>2023-11-22T13:56:04Z</time>
      </trkpt>
      <trkpt lat="49.13418" lon="-0.07313">
        <ele>11.2</ele>
        <time>2023-11-22T13:56:05Z</time>
      </trkpt>
      <trkpt lat="49.13418" lon="-0.07303">
        <ele>11.2</ele>
        <time>2023-11-22T13:56:06Z</time>
      </trkpt>
      <trkpt lat="49.13418" lon="-0.07292">
        <ele>11.2</ele>
        <time>2023-11-22T13:56:07Z</time>
      </trkpt>
      <trkpt lat="49.13419" lon="-0.07282">
        <ele>11.2</ele>
        <time>2023-11-22T13:56:08Z</time>
      </trkpt>
      <trkpt lat="49.13419" lon="-0.07272">
        <ele>11.1</ele>
        <time>2023-11-22T13:56:09Z</time>
      </trkpt>
      <trkpt lat="49.13419" lon="-0.07261">
        <ele>11.1</ele>
        <time>2023-11-22T13:56:10Z</time>
      </trkpt>
      <trkpt lat="49.1342" lon="-0.07252">
        <ele>11.2</ele>
        <time>2023-11-22T13:56:11Z</time>
      </trkpt>
      <trkpt lat="49.13421" lon="-0.07242">
        <ele>11.2</ele>
        <time>2023-11-22T13:56:12Z</time>
      </trkpt>
      <trkpt lat="49.13421" lon="-0.07232">
        <ele>11.2</ele>
        <time>2023-11-22T13:56:13Z</time>
      </trkpt>
      <trkpt lat="49.13422" lon="-0.07221">
        <ele>11.2</ele>
        <time>2023-11-22T13:56:14Z</time>
      </trkpt>
      <trkpt lat="49.13422" lon="-0.07211">
        <ele>11.2</ele>
        <time>2023-11-22T13:56:15Z</time>
      </trkpt>
      <trkpt lat="49.13423" lon="-0.07201">
        <ele>11.2</ele>
        <time>2023-11-22T13:56:16Z</time>
      </trkpt>
      <trkpt lat="49.13423" lon="-0.0719">
        <ele>11.2</ele>
        <time>2023-11-22T13:56:17Z</time>
      </trkpt>
      <trkpt lat="49.13424" lon="-0.0718">
        <ele>11.2</ele>
        <time>2023-11-22T13:56:18Z</time>
      </trkpt>
      <trkpt lat="49.13424" lon="-0.07169">
        <ele>11.2</ele>
        <time>2023-11-22T13:56:19Z</time>
      </trkpt>
      <trkpt lat="49.13425" lon="-0.07158">
        <ele>11.2</ele>
        <time>2023-11-22T13:56:20Z</time>
      </trkpt>
      <trkpt lat="49.13425" lon="-0.07147">
        <ele>11.3</ele>
        <time>2023-11-22T13:56:21Z</time>
      </trkpt>
      <trkpt lat="49.13425" lon="-0.07136">
        <ele>11.3</ele>
        <time>2023-11-22T13:56:22Z</time>
      </trkpt>
      <trkpt lat="49.13426" lon="-0.07124">
        <ele>11.3</ele>
        <time>2023-11-22T13:56:23Z</time>
      </trkpt>
      <trkpt lat="49.13426" lon="-0.07113">
        <ele>11.3</ele>
        <time>2023-11-22T13:56:24Z</time>
      </trkpt>
      <trkpt lat="49.13427" lon="-0.07101">
        <ele>11.3</ele>
        <time>2023-11-22T13:56:25Z</time>
      </trkpt>
      <trkpt lat="49.13427" lon="-0.07089">
        <ele>11.3</ele>
        <time>2023-11-22T13:56:26Z</time>
      </trkpt>
      <trkpt lat="49.13428" lon="-0.07077">
        <ele>11.3</ele>
        <time>2023-11-22T13:56:27Z</time>
      </trkpt>
      <trkpt lat="49.13428" lon="-0.07065">
        <ele>11.3</ele>
        <time>2023-11-22T13:56:28Z</time>
      </trkpt>
      <trkpt lat="49.13429" lon="-0.07054">
        <ele>11.3</ele>
        <time>2023-11-22T13:56:29Z</time>
      </trkpt>
      <trkpt lat="49.13429" lon="-0.07042">
        <ele>11.4</ele>
        <time>2023-11-22T13:56:30Z</time>
      </trkpt>
      <trkpt lat="49.1343" lon="-0.07031">
        <ele>11.4</ele>
        <time>2023-11-22T13:56:31Z</time>
      </trkpt>
      <trkpt lat="49.1343" lon="-0.0702">
        <ele>11.4</ele>
        <time>2023-11-22T13:56:32Z</time>
      </trkpt>
      <trkpt lat="49.13431" lon="-0.0701">
        <ele>11.4</ele>
        <time>2023-11-22T13:56:33Z</time>
      </trkpt>
      <trkpt lat="49.13431" lon="-0.07">
        <ele>11.5</ele>
        <time>2023-11-22T13:56:34Z</time>
      </trkpt>
      <trkpt lat="49.13432" lon="-0.06989">
        <ele>11.5</ele>
        <time>2023-11-22T13:56:35Z</time>
      </trkpt>
      <trkpt lat="49.13433" lon="-0.06979">
        <ele>11.4</ele>
        <time>2023-11-22T13:56:36Z</time>
      </trkpt>
      <trkpt lat="49.13433" lon="-0.06968">
        <ele>11.4</ele>
        <time>2023-11-22T13:56:37Z</time>
      </trkpt>
      <trkpt lat="49.13433" lon="-0.06957">
        <ele>11.4</ele>
        <time>2023-11-22T13:56:38Z</time>
      </trkpt>
      <trkpt lat="49.13433" lon="-0.06947">
        <ele>11.4</ele>
        <time>2023-11-22T13:56:39Z</time>
      </trkpt>
      <trkpt lat="49.13434" lon="-0.06936">
        <ele>11.4</ele>
        <time>2023-11-22T13:56:40Z</time>
      </trkpt>
      <trkpt lat="49.13434" lon="-0.06925">
        <ele>11.3</ele>
        <time>2023-11-22T13:56:41Z</time>
      </trkpt>
      <trkpt lat="49.13435" lon="-0.06913">
        <ele>11.3</ele>
        <time>2023-11-22T13:56:42Z</time>
      </trkpt>
      <trkpt lat="49.13435" lon="-0.06902">
        <ele>11.3</ele>
        <time>2023-11-22T13:56:43Z</time>
      </trkpt>
      <trkpt lat="49.13435" lon="-0.0689">
        <ele>11.3</ele>
        <time>2023-11-22T13:56:44Z</time>
      </trkpt>
      <trkpt lat="49.13436" lon="-0.06879">
        <ele>11.2</ele>
        <time>2023-11-22T13:56:45Z</time>
      </trkpt>
      <trkpt lat="49.13437" lon="-0.06867">
        <ele>11.2</ele>
        <time>2023-11-22T13:56:46Z</time>
      </trkpt>
      <trkpt lat="49.13437" lon="-0.06856">
        <ele>11.2</ele>
        <time>2023-11-22T13:56:47Z</time>
      </trkpt>
      <trkpt lat="49.13438" lon="-0.06845">
        <ele>11.2</ele>
        <time>2023-11-22T13:56:48Z</time>
      </trkpt>
      <trkpt lat="49.13438" lon="-0.06834">
        <ele>11.2</ele>
        <time>2023-11-22T13:56:49Z</time>
      </trkpt>
      <trkpt lat="49.13438" lon="-0.06824">
        <ele>11.2</ele>
        <time>2023-11-22T13:56:50Z</time>
      </trkpt>
      <trkpt lat="49.13437" lon="-0.06813">
        <ele>11.2</ele>
        <time>2023-11-22T13:56:51Z</time>
      </trkpt>
      <trkpt lat="49.13436" lon="-0.06802">
        <ele>11.1</ele>
        <time>2023-11-22T13:56:52Z</time>
      </trkpt>
      <trkpt lat="49.13433" lon="-0.06792">
        <ele>11</ele>
        <time>2023-11-22T13:56:53Z</time>
      </trkpt>
      <trkpt lat="49.13429" lon="-0.06784">
        <ele>11</ele>
        <time>2023-11-22T13:56:54Z</time>
      </trkpt>
      <trkpt lat="49.13424" lon="-0.06776">
        <ele>10.9</ele>
        <time>2023-11-22T13:56:55Z</time>
      </trkpt>
      <trkpt lat="49.13418" lon="-0.0677">
        <ele>10.9</ele>
        <time>2023-11-22T13:56:56Z</time>
      </trkpt>
      <trkpt lat="49.13411" lon="-0.06766">
        <ele>10.9</ele>
        <time>2023-11-22T13:56:57Z</time>
      </trkpt>
      <trkpt lat="49.13404" lon="-0.06763">
        <ele>11</ele>
        <time>2023-11-22T13:56:58Z</time>
      </trkpt>
      <trkpt lat="49.13396" lon="-0.06761">
        <ele>11</ele>
        <time>2023-11-22T13:56:59Z</time>
      </trkpt>
      <trkpt lat="49.13388" lon="-0.0676">
        <ele>10.9</ele>
        <time>2023-11-22T13:57:00Z</time>
      </trkpt>
      <trkpt lat="49.1338" lon="-0.0676">
        <ele>10.9</ele>
        <time>2023-11-22T13:57:01Z</time>
      </trkpt>
      <trkpt lat="49.13372" lon="-0.06759">
        <ele>10.9</ele>
        <time>2023-11-22T13:57:02Z</time>
      </trkpt>
      <trkpt lat="49.13364" lon="-0.06759">
        <ele>10.9</ele>
        <time>2023-11-22T13:57:03Z</time>
      </trkpt>
      <trkpt lat="49.13357" lon="-0.06759">
        <ele>10.9</ele>
        <time>2023-11-22T13:57:04Z</time>
      </trkpt>
      <trkpt lat="49.1335" lon="-0.06759">
        <ele>11</ele>
        <time>2023-11-22T13:57:05Z</time>
      </trkpt>
      <trkpt lat="49.13342" lon="-0.0676">
        <ele>11</ele>
        <time>2023-11-22T13:57:06Z</time>
      </trkpt>
      <trkpt lat="49.13335" lon="-0.0676">
        <ele>11</ele>
        <time>2023-11-22T13:57:07Z</time>
      </trkpt>
      <trkpt lat="49.13329" lon="-0.06759">
        <ele>10.9</ele>
        <time>2023-11-22T13:57:08Z</time>
      </trkpt>
      <trkpt lat="49.13322" lon="-0.06759">
        <ele>10.9</ele>
        <time>2023-11-22T13:57:09Z</time>
      </trkpt>
      <trkpt lat="49.13315" lon="-0.06758">
        <ele>10.9</ele>
        <time>2023-11-22T13:57:10Z</time>
      </trkpt>
      <trkpt lat="49.13308" lon="-0.06758">
        <ele>10.9</ele>
        <time>2023-11-22T13:57:11Z</time>
      </trkpt>
      <trkpt lat="49.133" lon="-0.06757">
        <ele>10.9</ele>
        <time>2023-11-22T13:57:12Z</time>
      </trkpt>
      <trkpt lat="49.13293" lon="-0.06757">
        <ele>10.9</ele>
        <time>2023-11-22T13:57:13Z</time>
      </trkpt>
      <trkpt lat="49.13285" lon="-0.06758">
        <ele>10.9</ele>
        <time>2023-11-22T13:57:14Z</time>
      </trkpt>
      <trkpt lat="49.13278" lon="-0.06758">
        <ele>10.9</ele>
        <time>2023-11-22T13:57:15Z</time>
      </trkpt>
      <trkpt lat="49.1327" lon="-0.06757">
        <ele>10.9</ele>
        <time>2023-11-22T13:57:16Z</time>
      </trkpt>
      <trkpt lat="49.13263" lon="-0.06758">
        <ele>10.9</ele>
        <time>2023-11-22T13:57:17Z</time>
      </trkpt>
      <trkpt lat="49.13255" lon="-0.06758">
        <ele>10.9</ele>
        <time>2023-11-22T13:57:18Z</time>
      </trkpt>
      <trkpt lat="49.13247" lon="-0.06758">
        <ele>10.9</ele>
        <time>2023-11-22T13:57:19Z</time>
      </trkpt>
      <trkpt lat="49.13239" lon="-0.06758">
        <ele>11</ele>
        <time>2023-11-22T13:57:20Z</time>
      </trkpt>
      <trkpt lat="49.13232" lon="-0.06759">
        <ele>11</ele>
        <time>2023-11-22T13:57:21Z</time>
      </trkpt>
      <trkpt lat="49.13224" lon="-0.06759">
        <ele>11</ele>
        <time>2023-11-22T13:57:22Z</time>
      </trkpt>
      <trkpt lat="49.13217" lon="-0.06759">
        <ele>11</ele>
        <time>2023-11-22T13:57:23Z</time>
      </trkpt>
      <trkpt lat="49.1321" lon="-0.0676">
        <ele>11</ele>
        <time>2023-11-22T13:57:24Z</time>
      </trkpt>
      <trkpt lat="49.13203" lon="-0.06761">
        <ele>11</ele>
        <time>2023-11-22T13:57:25Z</time>
      </trkpt>
      <trkpt lat="49.13195" lon="-0.06763">
        <ele>11</ele>
        <time>2023-11-22T13:57:26Z</time>
      </trkpt>
      <trkpt lat="49.13187" lon="-0.06764">
        <ele>11.1</ele>
        <time>2023-11-22T13:57:27Z</time>
      </trkpt>
      <trkpt lat="49.13178" lon="-0.06765">
        <ele>11.1</ele>
        <time>2023-11-22T13:57:28Z</time>
      </trkpt>
      <trkpt lat="49.13171" lon="-0.06766">
        <ele>11.1</ele>
        <time>2023-11-22T13:57:29Z</time>
      </trkpt>
      <trkpt lat="49.13163" lon="-0.06768">
        <ele>11.2</ele>
        <time>2023-11-22T13:57:30Z</time>
      </trkpt>
      <trkpt lat="49.13155" lon="-0.0677">
        <ele>11.2</ele>
        <time>2023-11-22T13:57:31Z</time>
      </trkpt>
      <trkpt lat="49.13147" lon="-0.06771">
        <ele>11.2</ele>
        <time>2023-11-22T13:57:32Z</time>
      </trkpt>
      <trkpt lat="49.13139" lon="-0.06773">
        <ele>11.3</ele>
        <time>2023-11-22T13:57:33Z</time>
      </trkpt>
      <trkpt lat="49.13132" lon="-0.06775">
        <ele>11.3</ele>
        <time>2023-11-22T13:57:34Z</time>
      </trkpt>
      <trkpt lat="49.13124" lon="-0.06777">
        <ele>11.3</ele>
        <time>2023-11-22T13:57:35Z</time>
      </trkpt>
      <trkpt lat="49.13116" lon="-0.06778">
        <ele>11.3</ele>
        <time>2023-11-22T13:57:36Z</time>
      </trkpt>
      <trkpt lat="49.13108" lon="-0.06779">
        <ele>11.3</ele>
        <time>2023-11-22T13:57:37Z</time>
      </trkpt>
      <trkpt lat="49.131" lon="-0.06781">
        <ele>11.3</ele>
        <time>2023-11-22T13:57:38Z</time>
      </trkpt>
      <trkpt lat="49.13093" lon="-0.06783">
        <ele>11.4</ele>
        <time>2023-11-22T13:57:39Z</time>
      </trkpt>
      <trkpt lat="49.13085" lon="-0.06784">
        <ele>11.4</ele>
        <time>2023-11-22T13:57:40Z</time>
      </trkpt>
      <trkpt lat="49.13078" lon="-0.06786">
        <ele>11.5</ele>
        <time>2023-11-22T13:57:41Z</time>
      </trkpt>
      <trkpt lat="49.1307" lon="-0.06788">
        <ele>11.5</ele>
        <time>2023-11-22T13:57:42Z</time>
      </trkpt>
      <trkpt lat="49.13063" lon="-0.0679">
        <ele>11.5</ele>
        <time>2023-11-22T13:57:43Z</time>
      </trkpt>
      <trkpt lat="49.13055" lon="-0.06791">
        <ele>11.6</ele>
        <time>2023-11-22T13:57:44Z</time>
      </trkpt>
      <trkpt lat="49.13047" lon="-0.06792">
        <ele>11.6</ele>
        <time>2023-11-22T13:57:45Z</time>
      </trkpt>
      <trkpt lat="49.1304" lon="-0.06794">
        <ele>11.6</ele>
        <time>2023-11-22T13:57:46Z</time>
      </trkpt>
      <trkpt lat="49.13033" lon="-0.06795">
        <ele>11.6</ele>
        <time>2023-11-22T13:57:47Z</time>
      </trkpt>
      <trkpt lat="49.13025" lon="-0.06796">
        <ele>11.6</ele>
        <time>2023-11-22T13:57:48Z</time>
      </trkpt>
      <trkpt lat="49.13018" lon="-0.06798">
        <ele>11.6</ele>
        <time>2023-11-22T13:57:49Z</time>
      </trkpt>
      <trkpt lat="49.13011" lon="-0.06799">
        <ele>11.7</ele>
        <time>2023-11-22T13:57:50Z</time>
      </trkpt>
      <trkpt lat="49.13004" lon="-0.06799">
        <ele>11.7</ele>
        <time>2023-11-22T13:57:51Z</time>
      </trkpt>
      <trkpt lat="49.12996" lon="-0.06798">
        <ele>11.8</ele>
        <time>2023-11-22T13:57:52Z</time>
      </trkpt>
      <trkpt lat="49.12988" lon="-0.06797">
        <ele>11.8</ele>
        <time>2023-11-22T13:57:53Z</time>
      </trkpt>
      <trkpt lat="49.1298" lon="-0.06794">
        <ele>11.9</ele>
        <time>2023-11-22T13:57:54Z</time>
      </trkpt>
      <trkpt lat="49.12972" lon="-0.06791">
        <ele>11.9</ele>
        <time>2023-11-22T13:57:55Z</time>
      </trkpt>
      <trkpt lat="49.12964" lon="-0.06787">
        <ele>12</ele>
        <time>2023-11-22T13:57:56Z</time>
      </trkpt>
      <trkpt lat="49.12955" lon="-0.06783">
        <ele>12</ele>
        <time>2023-11-22T13:57:57Z</time>
      </trkpt>
      <trkpt lat="49.12947" lon="-0.06778">
        <ele>12</ele>
        <time>2023-11-22T13:57:58Z</time>
      </trkpt>
      <trkpt lat="49.1294" lon="-0.06773">
        <ele>12</ele>
        <time>2023-11-22T13:57:59Z</time>
      </trkpt>
      <trkpt lat="49.12932" lon="-0.06767">
        <ele>12</ele>
        <time>2023-11-22T13:58:00Z</time>
      </trkpt>
      <trkpt lat="49.12925" lon="-0.06762">
        <ele>12</ele>
        <time>2023-11-22T13:58:01Z</time>
      </trkpt>
      <trkpt lat="49.12918" lon="-0.06757">
        <ele>12.1</ele>
        <time>2023-11-22T13:58:02Z</time>
      </trkpt>
      <trkpt lat="49.12911" lon="-0.06752">
        <ele>12.1</ele>
        <time>2023-11-22T13:58:03Z</time>
      </trkpt>
      <trkpt lat="49.12904" lon="-0.06748">
        <ele>12.1</ele>
        <time>2023-11-22T13:58:04Z</time>
      </trkpt>
      <trkpt lat="49.12897" lon="-0.06743">
        <ele>12.2</ele>
        <time>2023-11-22T13:58:05Z</time>
      </trkpt>
      <trkpt lat="49.12889" lon="-0.06738">
        <ele>12.2</ele>
        <time>2023-11-22T13:58:06Z</time>
      </trkpt>
      <trkpt lat="49.12881" lon="-0.06734">
        <ele>12.2</ele>
        <time>2023-11-22T13:58:07Z</time>
      </trkpt>
      <trkpt lat="49.12874" lon="-0.06729">
        <ele>12.2</ele>
        <time>2023-11-22T13:58:08Z</time>
      </trkpt>
      <trkpt lat="49.12866" lon="-0.06724">
        <ele>12.3</ele>
        <time>2023-11-22T13:58:09Z</time>
      </trkpt>
      <trkpt lat="49.12858" lon="-0.0672">
        <ele>12.3</ele>
        <time>2023-11-22T13:58:10Z</time>
      </trkpt>
      <trkpt lat="49.12851" lon="-0.06715">
        <ele>12.3</ele>
        <time>2023-11-22T13:58:11Z</time>
      </trkpt>
      <trkpt lat="49.12843" lon="-0.06712">
        <ele>12.3</ele>
        <time>2023-11-22T13:58:12Z</time>
      </trkpt>
      <trkpt lat="49.12835" lon="-0.06709">
        <ele>12.3</ele>
        <time>2023-11-22T13:58:13Z</time>
      </trkpt>
      <trkpt lat="49.12828" lon="-0.06706">
        <ele>12.3</ele>
        <time>2023-11-22T13:58:14Z</time>
      </trkpt>
      <trkpt lat="49.1282" lon="-0.06703">
        <ele>12.4</ele>
        <time>2023-11-22T13:58:15Z</time>
      </trkpt>
      <trkpt lat="49.12812" lon="-0.06701">
        <ele>12.4</ele>
        <time>2023-11-22T13:58:16Z</time>
      </trkpt>
      <trkpt lat="49.12804" lon="-0.06698">
        <ele>12.4</ele>
        <time>2023-11-22T13:58:17Z</time>
      </trkpt>
      <trkpt lat="49.12797" lon="-0.06696">
        <ele>12.4</ele>
        <time>2023-11-22T13:58:18Z</time>
      </trkpt>
      <trkpt lat="49.12789" lon="-0.06693">
        <ele>12.4</ele>
        <time>2023-11-22T13:58:19Z</time>
      </trkpt>
      <trkpt lat="49.12781" lon="-0.06691">
        <ele>12.5</ele>
        <time>2023-11-22T13:58:20Z</time>
      </trkpt>
      <trkpt lat="49.12773" lon="-0.06689">
        <ele>12.5</ele>
        <time>2023-11-22T13:58:21Z</time>
      </trkpt>
      <trkpt lat="49.12765" lon="-0.06689">
        <ele>12.6</ele>
        <time>2023-11-22T13:58:22Z</time>
      </trkpt>
      <trkpt lat="49.12756" lon="-0.06689">
        <ele>12.6</ele>
        <time>2023-11-22T13:58:23Z</time>
      </trkpt>
      <trkpt lat="49.12748" lon="-0.06689">
        <ele>12.6</ele>
        <time>2023-11-22T13:58:24Z</time>
      </trkpt>
      <trkpt lat="49.1274" lon="-0.06688">
        <ele>12.6</ele>
        <time>2023-11-22T13:58:25Z</time>
      </trkpt>
      <trkpt lat="49.12732" lon="-0.06689">
        <ele>12.6</ele>
        <time>2023-11-22T13:58:26Z</time>
      </trkpt>
      <trkpt lat="49.12724" lon="-0.06689">
        <ele>12.6</ele>
        <time>2023-11-22T13:58:27Z</time>
      </trkpt>
      <trkpt lat="49.12716" lon="-0.06689">
        <ele>12.6</ele>
        <time>2023-11-22T13:58:28Z</time>
      </trkpt>
      <trkpt lat="49.12708" lon="-0.0669">
        <ele>12.6</ele>
        <time>2023-11-22T13:58:29Z</time>
      </trkpt>
      <trkpt lat="49.12701" lon="-0.0669">
        <ele>12.6</ele>
        <time>2023-11-22T13:58:30Z</time>
      </trkpt>
      <trkpt lat="49.12694" lon="-0.0669">
        <ele>12.5</ele>
        <time>2023-11-22T13:58:31Z</time>
      </trkpt>
      <trkpt lat="49.12687" lon="-0.0669">
        <ele>12.5</ele>
        <time>2023-11-22T13:58:32Z</time>
      </trkpt>
      <trkpt lat="49.12681" lon="-0.0669">
        <ele>12.5</ele>
        <time>2023-11-22T13:58:33Z</time>
      </trkpt>
      <trkpt lat="49.12674" lon="-0.06691">
        <ele>12.4</ele>
        <time>2023-11-22T13:58:34Z</time>
      </trkpt>
      <trkpt lat="49.12668" lon="-0.06691">
        <ele>12.4</ele>
        <time>2023-11-22T13:58:35Z</time>
      </trkpt>
      <trkpt lat="49.12661" lon="-0.06691">
        <ele>12.4</ele>
        <time>2023-11-22T13:58:36Z</time>
      </trkpt>
      <trkpt lat="49.12654" lon="-0.06691">
        <ele>12.3</ele>
        <time>2023-11-22T13:58:37Z</time>
      </trkpt>
      <trkpt lat="49.12646" lon="-0.06691">
        <ele>12.3</ele>
        <time>2023-11-22T13:58:38Z</time>
      </trkpt>
      <trkpt lat="49.12639" lon="-0.06691">
        <ele>12.3</ele>
        <time>2023-11-22T13:58:39Z</time>
      </trkpt>
      <trkpt lat="49.12631" lon="-0.0669">
        <ele>12.3</ele>
        <time>2023-11-22T13:58:40Z</time>
      </trkpt>
      <trkpt lat="49.12623" lon="-0.0669">
        <ele>12.3</ele>
        <time>2023-11-22T13:58:41Z</time>
      </trkpt>
      <trkpt lat="49.12616" lon="-0.0669">
        <ele>12.2</ele>
        <time>2023-11-22T13:58:42Z</time>
      </trkpt>
      <trkpt lat="49.12608" lon="-0.0669">
        <ele>12.2</ele>
        <time>2023-11-22T13:58:43Z</time>
      </trkpt>
      <trkpt lat="49.126" lon="-0.0669">
        <ele>12.2</ele>
        <time>2023-11-22T13:58:44Z</time>
      </trkpt>
      <trkpt lat="49.12593" lon="-0.0669">
        <ele>12.2</ele>
        <time>2023-11-22T13:58:45Z</time>
      </trkpt>
      <trkpt lat="49.12585" lon="-0.0669">
        <ele>12.2</ele>
        <time>2023-11-22T13:58:46Z</time>
      </trkpt>
      <trkpt lat="49.12577" lon="-0.0669">
        <ele>12.2</ele>
        <time>2023-11-22T13:58:47Z</time>
      </trkpt>
      <trkpt lat="49.1257" lon="-0.0669">
        <ele>12.2</ele>
        <time>2023-11-22T13:58:48Z</time>
      </trkpt>
      <trkpt lat="49.12562" lon="-0.0669">
        <ele>12.2</ele>
        <time>2023-11-22T13:58:49Z</time>
      </trkpt>
      <trkpt lat="49.12554" lon="-0.0669">
        <ele>12.2</ele>
        <time>2023-11-22T13:58:50Z</time>
      </trkpt>
      <trkpt lat="49.12546" lon="-0.0669">
        <ele>12.2</ele>
        <time>2023-11-22T13:58:51Z</time>
      </trkpt>
      <trkpt lat="49.12538" lon="-0.0669">
        <ele>12.1</ele>
        <time>2023-11-22T13:58:52Z</time>
      </trkpt>
      <trkpt lat="49.1253" lon="-0.0669">
        <ele>12.1</ele>
        <time>2023-11-22T13:58:53Z</time>
      </trkpt>
      <trkpt lat="49.12522" lon="-0.0669">
        <ele>12.1</ele>
        <time>2023-11-22T13:58:54Z</time>
      </trkpt>
      <trkpt lat="49.12515" lon="-0.0669">
        <ele>12.1</ele>
        <time>2023-11-22T13:58:55Z</time>
      </trkpt>
      <trkpt lat="49.12507" lon="-0.0669">
        <ele>12.1</ele>
        <time>2023-11-22T13:58:56Z</time>
      </trkpt>
      <trkpt lat="49.12499" lon="-0.06691">
        <ele>12.1</ele>
        <time>2023-11-22T13:58:57Z</time>
      </trkpt>
      <trkpt lat="49.12491" lon="-0.06691">
        <ele>12.1</ele>
        <time>2023-11-22T13:58:58Z</time>
      </trkpt>
      <trkpt lat="49.12483" lon="-0.06691">
        <ele>12.1</ele>
        <time>2023-11-22T13:58:59Z</time>
      </trkpt>
      <trkpt lat="49.12476" lon="-0.06691">
        <ele>12.1</ele>
        <time>2023-11-22T13:59:00Z</time>
      </trkpt>
      <trkpt lat="49.12468" lon="-0.0669">
        <ele>12.1</ele>
        <time>2023-11-22T13:59:01Z</time>
      </trkpt>
      <trkpt lat="49.1246" lon="-0.0669">
        <ele>12.1</ele>
        <time>2023-11-22T13:59:02Z</time>
      </trkpt>
      <trkpt lat="49.12452" lon="-0.06691">
        <ele>12.1</ele>
        <time>2023-11-22T13:59:03Z</time>
      </trkpt>
      <trkpt lat="49.12444" lon="-0.06691">
        <ele>12.1</ele>
        <time>2023-11-22T13:59:04Z</time>
      </trkpt>
      <trkpt lat="49.12436" lon="-0.06691">
        <ele>12.1</ele>
        <time>2023-11-22T13:59:05Z</time>
      </trkpt>
      <trkpt lat="49.12428" lon="-0.06691">
        <ele>12.1</ele>
        <time>2023-11-22T13:59:06Z</time>
      </trkpt>
      <trkpt lat="49.1242" lon="-0.06691">
        <ele>12.1</ele>
        <time>2023-11-22T13:59:07Z</time>
      </trkpt>
      <trkpt lat="49.12412" lon="-0.06692">
        <ele>12.2</ele>
        <time>2023-11-22T13:59:08Z</time>
      </trkpt>
      <trkpt lat="49.12403" lon="-0.06692">
        <ele>12.2</ele>
        <time>2023-11-22T13:59:09Z</time>
      </trkpt>
      <trkpt lat="49.12395" lon="-0.06692">
        <ele>12.2</ele>
        <time>2023-11-22T13:59:10Z</time>
      </trkpt>
      <trkpt lat="49.12386" lon="-0.06692">
        <ele>12.3</ele>
        <time>2023-11-22T13:59:11Z</time>
      </trkpt>
      <trkpt lat="49.12378" lon="-0.06693">
        <ele>12.3</ele>
        <time>2023-11-22T13:59:12Z</time>
      </trkpt>
      <trkpt lat="49.12369" lon="-0.06693">
        <ele>12.3</ele>
        <time>2023-11-22T13:59:13Z</time>
      </trkpt>
      <trkpt lat="49.12361" lon="-0.06693">
        <ele>12.4</ele>
        <time>2023-11-22T13:59:14Z</time>
      </trkpt>
      <trkpt lat="49.12353" lon="-0.06694">
        <ele>12.4</ele>
        <time>2023-11-22T13:59:15Z</time>
      </trkpt>
      <trkpt lat="49.12345" lon="-0.06694">
        <ele>12.5</ele>
        <time>2023-11-22T13:59:16Z</time>
      </trkpt>
      <trkpt lat="49.12338" lon="-0.06694">
        <ele>12.5</ele>
        <time>2023-11-22T13:59:17Z</time>
      </trkpt>
      <trkpt lat="49.1233" lon="-0.06694">
        <ele>12.5</ele>
        <time>2023-11-22T13:59:18Z</time>
      </trkpt>
      <trkpt lat="49.12322" lon="-0.06694">
        <ele>12.6</ele>
        <time>2023-11-22T13:59:19Z</time>
      </trkpt>
      <trkpt lat="49.12314" lon="-0.06693">
        <ele>12.7</ele>
        <time>2023-11-22T13:59:20Z</time>
      </trkpt>
      <trkpt lat="49.12307" lon="-0.06693">
        <ele>12.7</ele>
        <time>2023-11-22T13:59:21Z</time>
      </trkpt>
      <trkpt lat="49.12299" lon="-0.06693">
        <ele>12.7</ele>
        <time>2023-11-22T13:59:22Z</time>
      </trkpt>
      <trkpt lat="49.12291" lon="-0.06692">
        <ele>12.8</ele>
        <time>2023-11-22T13:59:23Z</time>
      </trkpt>
      <trkpt lat="49.12284" lon="-0.06692">
        <ele>12.8</ele>
        <time>2023-11-22T13:59:24Z</time>
      </trkpt>
      <trkpt lat="49.12276" lon="-0.06692">
        <ele>12.9</ele>
        <time>2023-11-22T13:59:25Z</time>
      </trkpt>
      <trkpt lat="49.12268" lon="-0.06692">
        <ele>12.9</ele>
        <time>2023-11-22T13:59:26Z</time>
      </trkpt>
      <trkpt lat="49.1226" lon="-0.06692">
        <ele>12.9</ele>
        <time>2023-11-22T13:59:27Z</time>
      </trkpt>
      <trkpt lat="49.12253" lon="-0.06692">
        <ele>12.9</ele>
        <time>2023-11-22T13:59:28Z</time>
      </trkpt>
      <trkpt lat="49.12245" lon="-0.06692">
        <ele>12.9</ele>
        <time>2023-11-22T13:59:29Z</time>
      </trkpt>
      <trkpt lat="49.12238" lon="-0.06692">
        <ele>12.9</ele>
        <time>2023-11-22T13:59:30Z</time>
      </trkpt>
      <trkpt lat="49.12231" lon="-0.06692">
        <ele>12.9</ele>
        <time>2023-11-22T13:59:31Z</time>
      </trkpt>
      <trkpt lat="49.12224" lon="-0.06692">
        <ele>12.9</ele>
        <time>2023-11-22T13:59:32Z</time>
      </trkpt>
      <trkpt lat="49.12217" lon="-0.06693">
        <ele>12.9</ele>
        <time>2023-11-22T13:59:33Z</time>
      </trkpt>
      <trkpt lat="49.1221" lon="-0.06693">
        <ele>12.9</ele>
        <time>2023-11-22T13:59:34Z</time>
      </trkpt>
      <trkpt lat="49.12203" lon="-0.06693">
        <ele>12.9</ele>
        <time>2023-11-22T13:59:35Z</time>
      </trkpt>
      <trkpt lat="49.12196" lon="-0.06693">
        <ele>12.8</ele>
        <time>2023-11-22T13:59:36Z</time>
      </trkpt>
      <trkpt lat="49.12189" lon="-0.06693">
        <ele>12.8</ele>
        <time>2023-11-22T13:59:37Z</time>
      </trkpt>
      <trkpt lat="49.12182" lon="-0.06694">
        <ele>12.8</ele>
        <time>2023-11-22T13:59:38Z</time>
      </trkpt>
      <trkpt lat="49.12175" lon="-0.06694">
        <ele>12.8</ele>
        <time>2023-11-22T13:59:39Z</time>
      </trkpt>
      <trkpt lat="49.12168" lon="-0.06695">
        <ele>12.8</ele>
        <time>2023-11-22T13:59:40Z</time>
      </trkpt>
      <trkpt lat="49.12161" lon="-0.06696">
        <ele>12.8</ele>
        <time>2023-11-22T13:59:41Z</time>
      </trkpt>
      <trkpt lat="49.12154" lon="-0.06696">
        <ele>12.7</ele>
        <time>2023-11-22T13:59:42Z</time>
      </trkpt>
      <trkpt lat="49.12147" lon="-0.06697">
        <ele>12.7</ele>
        <time>2023-11-22T13:59:43Z</time>
      </trkpt>
      <trkpt lat="49.1214" lon="-0.06698">
        <ele>12.7</ele>
        <time>2023-11-22T13:59:44Z</time>
      </trkpt>
      <trkpt lat="49.12133" lon="-0.067">
        <ele>12.7</ele>
        <time>2023-11-22T13:59:45Z</time>
      </trkpt>
      <trkpt lat="49.12126" lon="-0.06702">
        <ele>12.7</ele>
        <time>2023-11-22T13:59:46Z</time>
      </trkpt>
      <trkpt lat="49.12119" lon="-0.06703">
        <ele>12.7</ele>
        <time>2023-11-22T13:59:47Z</time>
      </trkpt>
      <trkpt lat="49.12113" lon="-0.06705">
        <ele>12.7</ele>
        <time>2023-11-22T13:59:48Z</time>
      </trkpt>
      <trkpt lat="49.12108" lon="-0.06706">
        <ele>12.7</ele>
        <time>2023-11-22T13:59:49Z</time>
      </trkpt>
      <trkpt lat="49.12102" lon="-0.06708">
        <ele>12.8</ele>
        <time>2023-11-22T13:59:50Z</time>
      </trkpt>
      <trkpt lat="49.12097" lon="-0.06709">
        <ele>12.8</ele>
        <time>2023-11-22T13:59:51Z</time>
      </trkpt>
      <trkpt lat="49.12091" lon="-0.06712">
        <ele>12.8</ele>
        <time>2023-11-22T13:59:52Z</time>
      </trkpt>
      <trkpt lat="49.12086" lon="-0.06714">
        <ele>12.8</ele>
        <time>2023-11-22T13:59:53Z</time>
      </trkpt>
      <trkpt lat="49.12081" lon="-0.06716">
        <ele>12.9</ele>
        <time>2023-11-22T13:59:54Z</time>
      </trkpt>
      <trkpt lat="49.12077" lon="-0.06718">
        <ele>12.9</ele>
        <time>2023-11-22T13:59:55Z</time>
      </trkpt>
      <trkpt lat="49.12072" lon="-0.0672">
        <ele>12.9</ele>
        <time>2023-11-22T13:59:56Z</time>
      </trkpt>
      <trkpt lat="49.12068" lon="-0.06722">
        <ele>13</ele>
        <time>2023-11-22T13:59:57Z</time>
      </trkpt>
      <trkpt lat="49.12064" lon="-0.06723">
        <ele>13</ele>
        <time>2023-11-22T13:59:58Z</time>
      </trkpt>
      <trkpt lat="49.1206" lon="-0.06725">
        <ele>13.1</ele>
        <time>2023-11-22T13:59:59Z</time>
      </trkpt>
      <trkpt lat="49.12056" lon="-0.06727">
        <ele>13.1</ele>
        <time>2023-11-22T14:00:00Z</time>
      </trkpt>
      <trkpt lat="49.12053" lon="-0.06729">
        <ele>13.2</ele>
        <time>2023-11-22T14:00:01Z</time>
      </trkpt>
      <trkpt lat="49.12049" lon="-0.0673">
        <ele>13.2</ele>
        <time>2023-11-22T14:00:02Z</time>
      </trkpt>
      <trkpt lat="49.12046" lon="-0.06731">
        <ele>13.3</ele>
        <time>2023-11-22T14:00:03Z</time>
      </trkpt>
      <trkpt lat="49.12042" lon="-0.06732">
        <ele>13.3</ele>
        <time>2023-11-22T14:00:04Z</time>
      </trkpt>
      <trkpt lat="49.12039" lon="-0.06733">
        <ele>13.4</ele>
        <time>2023-11-22T14:00:05Z</time>
      </trkpt>
      <trkpt lat="49.12035" lon="-0.06734">
        <ele>13.4</ele>
        <time>2023-11-22T14:00:06Z</time>
      </trkpt>
      <trkpt lat="49.12032" lon="-0.06735">
        <ele>13.5</ele>
        <time>2023-11-22T14:00:07Z</time>
      </trkpt>
      <trkpt lat="49.12029" lon="-0.06736">
        <ele>13.5</ele>
        <time>2023-11-22T14:00:08Z</time>
      </trkpt>
      <trkpt lat="49.12026" lon="-0.06737">
        <ele>13.6</ele>
        <time>2023-11-22T14:00:09Z</time>
      </trkpt>
      <trkpt lat="49.12023" lon="-0.06739">
        <ele>13.7</ele>
        <time>2023-11-22T14:00:10Z</time>
      </trkpt>
      <trkpt lat="49.12022" lon="-0.06739">
        <ele>13.7</ele>
        <time>2023-11-22T14:00:11Z</time>
      </trkpt>
      <trkpt lat="49.1202" lon="-0.0674">
        <ele>13.7</ele>
        <time>2023-11-22T14:00:12Z</time>
      </trkpt>
      <trkpt lat="49.12019" lon="-0.06741">
        <ele>13.7</ele>
        <time>2023-11-22T14:00:13Z</time>
      </trkpt>
      <trkpt lat="49.12017" lon="-0.06742">
        <ele>13.8</ele>
        <time>2023-11-22T14:00:14Z</time>
      </trkpt>
      <trkpt lat="49.12017" lon="-0.06742">
        <ele>13.8</ele>
        <time>2023-11-22T14:00:15Z</time>
      </trkpt>
      <trkpt lat="49.12017" lon="-0.06742">
        <ele>13.8</ele>
        <time>2023-11-22T14:00:16Z</time>
      </trkpt>
      <trkpt lat="49.12016" lon="-0.06742">
        <ele>13.8</ele>
        <time>2023-11-22T14:00:17Z</time>
      </trkpt>
      <trkpt lat="49.12016" lon="-0.06742">
        <ele>13.8</ele>
        <time>2023-11-22T14:00:18Z</time>
      </trkpt>
      <trkpt lat="49.12016" lon="-0.06743">
        <ele>13.8</ele>
        <time>2023-11-22T14:00:19Z</time>
      </trkpt>
      <trkpt lat="49.12015" lon="-0.06743">
        <ele>13.8</ele>
        <time>2023-11-22T14:00:20Z</time>
      </trkpt>
      <trkpt lat="49.12015" lon="-0.06743">
        <ele>13.8</ele>
        <time>2023-11-22T14:00:21Z</time>
      </trkpt>
      <trkpt lat="49.12015" lon="-0.06743">
        <ele>13.8</ele>
        <time>2023-11-22T14:00:22Z</time>
      </trkpt>
      <trkpt lat="49.12014" lon="-0.06743">
        <ele>13.8</ele>
        <time>2023-11-22T14:00:23Z</time>
      </trkpt>
      <trkpt lat="49.12014" lon="-0.06743">
        <ele>13.8</ele>
        <time>2023-11-22T14:00:24Z</time>
      </trkpt>
      <trkpt lat="49.12014" lon="-0.06743">
        <ele>13.8</ele>
        <time>2023-11-22T14:00:25Z</time>
      </trkpt>
      <trkpt lat="49.12013" lon="-0.06744">
        <ele>13.8</ele>
        <time>2023-11-22T14:00:26Z</time>
      </trkpt>
      <trkpt lat="49.12013" lon="-0.06744">
        <ele>13.9</ele>
        <time>2023-11-22T14:01:33Z</time>
      </trkpt>
      <trkpt lat="49.12013" lon="-0.06744">
        <ele>13.9</ele>
        <time>2023-11-22T14:01:34Z</time>
      </trkpt>
      <trkpt lat="49.12012" lon="-0.06744">
        <ele>13.9</ele>
        <time>2023-11-22T14:01:35Z</time>
      </trkpt>
      <trkpt lat="49.12012" lon="-0.06744">
        <ele>13.9</ele>
        <time>2023-11-22T14:01:36Z</time>
      </trkpt>
      <trkpt lat="49.12011" lon="-0.06745">
        <ele>13.9</ele>
        <time>2023-11-22T14:01:37Z</time>
      </trkpt>
      <trkpt lat="49.12009" lon="-0.06745">
        <ele>13.9</ele>
        <time>2023-11-22T14:01:38Z</time>
      </trkpt>
      <trkpt lat="49.12006" lon="-0.06746">
        <ele>14</ele>
        <time>2023-11-22T14:01:39Z</time>
      </trkpt>
      <trkpt lat="49.12005" lon="-0.06746">
        <ele>14</ele>
        <time>2023-11-22T14:01:40Z</time>
      </trkpt>
      <trkpt lat="49.12002" lon="-0.06747">
        <ele>14.1</ele>
        <time>2023-11-22T14:01:41Z</time>
      </trkpt>
      <trkpt lat="49.12002" lon="-0.06747">
        <ele>14.1</ele>
        <time>2023-11-22T14:01:42Z</time>
      </trkpt>
      <trkpt lat="49.11998" lon="-0.06749">
        <ele>14.2</ele>
        <time>2023-11-22T14:01:43Z</time>
      </trkpt>
      <trkpt lat="49.11998" lon="-0.06749">
        <ele>14.2</ele>
        <time>2023-11-22T14:01:44Z</time>
      </trkpt>
      <trkpt lat="49.11996" lon="-0.0675">
        <ele>14.2</ele>
        <time>2023-11-22T14:01:45Z</time>
      </trkpt>
      <trkpt lat="49.11995" lon="-0.0675">
        <ele>14.3</ele>
        <time>2023-11-22T14:01:46Z</time>
      </trkpt>
      <trkpt lat="49.11993" lon="-0.06751">
        <ele>14.3</ele>
        <time>2023-11-22T14:01:47Z</time>
      </trkpt>
      <trkpt lat="49.11992" lon="-0.06751">
        <ele>14.3</ele>
        <time>2023-11-22T14:01:48Z</time>
      </trkpt>
      <trkpt lat="49.11992" lon="-0.06752">
        <ele>14.3</ele>
        <time>2023-11-22T14:01:49Z</time>
      </trkpt>
      <trkpt lat="49.11991" lon="-0.06752">
        <ele>14.3</ele>
        <time>2023-11-22T14:01:50Z</time>
      </trkpt>
      <trkpt lat="49.11991" lon="-0.06752">
        <ele>14.3</ele>
        <time>2023-11-22T14:01:51Z</time>
      </trkpt>
      <trkpt lat="49.11991" lon="-0.06752">
        <ele>14.3</ele>
        <time>2023-11-22T14:01:52Z</time>
      </trkpt>
      <trkpt lat="49.11991" lon="-0.06752">
        <ele>14.3</ele>
        <time>2023-11-22T14:01:53Z</time>
      </trkpt>
      <trkpt lat="49.11991" lon="-0.06752">
        <ele>14.3</ele>
        <time>2023-11-22T14:01:54Z</time>
      </trkpt>
      <trkpt lat="49.11991" lon="-0.06752">
        <ele>14.3</ele>
        <time>2023-11-22T14:01:55Z</time>
      </trkpt>
      <trkpt lat="49.11991" lon="-0.06752">
        <ele>14.3</ele>
        <time>2023-11-22T14:01:56Z</time>
      </trkpt>
      <trkpt lat="49.11991" lon="-0.06752">
        <ele>14.3</ele>
        <time>2023-11-22T14:01:57Z</time>
      </trkpt>
      <trkpt lat="49.11991" lon="-0.06752">
        <ele>14.3</ele>
        <time>2023-11-22T14:01:58Z</time>
      </trkpt>
      <trkpt lat="49.11991" lon="-0.06752">
        <ele>14.3</ele>
        <time>2023-11-22T14:01:59Z</time>
      </trkpt>
      <trkpt lat="49.11991" lon="-0.06752">
        <ele>14.3</ele>
        <time>2023-11-22T14:02:00Z</time>
      </trkpt>
      <trkpt lat="49.11989" lon="-0.06754">
        <ele>14.4</ele>
        <time>2023-11-22T14:02:36Z</time>
      </trkpt>
      <trkpt lat="49.11987" lon="-0.06754">
        <ele>14.4</ele>
        <time>2023-11-22T14:02:37Z</time>
      </trkpt>
      <trkpt lat="49.11985" lon="-0.06753">
        <ele>14.5</ele>
        <time>2023-11-22T14:02:38Z</time>
      </trkpt>
      <trkpt lat="49.11983" lon="-0.06751">
        <ele>14.6</ele>
        <time>2023-11-22T14:02:39Z</time>
      </trkpt>
      <trkpt lat="49.11982" lon="-0.0675">
        <ele>14.5</ele>
        <time>2023-11-22T14:02:40Z</time>
      </trkpt>
      <trkpt lat="49.11981" lon="-0.06744">
        <ele>14.5</ele>
        <time>2023-11-22T14:02:41Z</time>
      </trkpt>
      <trkpt lat="49.1198" lon="-0.06742">
        <ele>14.5</ele>
        <time>2023-11-22T14:02:42Z</time>
      </trkpt>
      <trkpt lat="49.1198" lon="-0.06736">
        <ele>14.4</ele>
        <time>2023-11-22T14:02:43Z</time>
      </trkpt>
      <trkpt lat="49.11979" lon="-0.06729">
        <ele>14.4</ele>
        <time>2023-11-22T14:02:44Z</time>
      </trkpt>
      <trkpt lat="49.11979" lon="-0.06721">
        <ele>14.3</ele>
        <time>2023-11-22T14:02:45Z</time>
      </trkpt>
      <trkpt lat="49.11978" lon="-0.06713">
        <ele>14.3</ele>
        <time>2023-11-22T14:02:46Z</time>
      </trkpt>
      <trkpt lat="49.11976" lon="-0.06704">
        <ele>14.2</ele>
        <time>2023-11-22T14:02:47Z</time>
      </trkpt>
      <trkpt lat="49.11976" lon="-0.06696">
        <ele>14.2</ele>
        <time>2023-11-22T14:02:48Z</time>
      </trkpt>
      <trkpt lat="49.11975" lon="-0.06688">
        <ele>14.2</ele>
        <time>2023-11-22T14:02:49Z</time>
      </trkpt>
      <trkpt lat="49.11975" lon="-0.06679">
        <ele>14.1</ele>
        <time>2023-11-22T14:02:50Z</time>
      </trkpt>
      <trkpt lat="49.11974" lon="-0.0667">
        <ele>14.1</ele>
        <time>2023-11-22T14:02:51Z</time>
      </trkpt>
      <trkpt lat="49.11974" lon="-0.0666">
        <ele>14</ele>
        <time>2023-11-22T14:02:52Z</time>
      </trkpt>
      <trkpt lat="49.11974" lon="-0.0665">
        <ele>14</ele>
        <time>2023-11-22T14:02:53Z</time>
      </trkpt>
      <trkpt lat="49.11974" lon="-0.0664">
        <ele>13.9</ele>
        <time>2023-11-22T14:02:54Z</time>
      </trkpt>
      <trkpt lat="49.11973" lon="-0.06629">
        <ele>13.9</ele>
        <time>2023-11-22T14:02:55Z</time>
      </trkpt>
      <trkpt lat="49.11973" lon="-0.06619">
        <ele>13.8</ele>
        <time>2023-11-22T14:02:56Z</time>
      </trkpt>
      <trkpt lat="49.11973" lon="-0.06607">
        <ele>13.8</ele>
        <time>2023-11-22T14:02:57Z</time>
      </trkpt>
      <trkpt lat="49.11973" lon="-0.06595">
        <ele>13.7</ele>
        <time>2023-11-22T14:02:58Z</time>
      </trkpt>
      <trkpt lat="49.11973" lon="-0.06582">
        <ele>13.6</ele>
        <time>2023-11-22T14:02:59Z</time>
      </trkpt>
      <trkpt lat="49.11973" lon="-0.06568">
        <ele>13.5</ele>
        <time>2023-11-22T14:03:00Z</time>
      </trkpt>
      <trkpt lat="49.11974" lon="-0.06554">
        <ele>13.4</ele>
        <time>2023-11-22T14:03:01Z</time>
      </trkpt>
      <trkpt lat="49.11976" lon="-0.06541">
        <ele>13.3</ele>
        <time>2023-11-22T14:03:02Z</time>
      </trkpt>
      <trkpt lat="49.11977" lon="-0.06527">
        <ele>13.2</ele>
        <time>2023-11-22T14:03:03Z</time>
      </trkpt>
      <trkpt lat="49.11979" lon="-0.06513">
        <ele>13.1</ele>
        <time>2023-11-22T14:03:04Z</time>
      </trkpt>
      <trkpt lat="49.1198" lon="-0.06498">
        <ele>12.9</ele>
        <time>2023-11-22T14:03:05Z</time>
      </trkpt>
      <trkpt lat="49.11982" lon="-0.06484">
        <ele>12.8</ele>
        <time>2023-11-22T14:03:06Z</time>
      </trkpt>
      <trkpt lat="49.11984" lon="-0.06469">
        <ele>12.7</ele>
        <time>2023-11-22T14:03:07Z</time>
      </trkpt>
      <trkpt lat="49.11986" lon="-0.06455">
        <ele>12.7</ele>
        <time>2023-11-22T14:03:08Z</time>
      </trkpt>
      <trkpt lat="49.11988" lon="-0.0644">
        <ele>12.6</ele>
        <time>2023-11-22T14:03:09Z</time>
      </trkpt>
      <trkpt lat="49.1199" lon="-0.06426">
        <ele>12.5</ele>
        <time>2023-11-22T14:03:10Z</time>
      </trkpt>
      <trkpt lat="49.11993" lon="-0.06413">
        <ele>12.4</ele>
        <time>2023-11-22T14:03:11Z</time>
      </trkpt>
      <trkpt lat="49.11996" lon="-0.06399">
        <ele>12.3</ele>
        <time>2023-11-22T14:03:12Z</time>
      </trkpt>
      <trkpt lat="49.11999" lon="-0.06385">
        <ele>12.2</ele>
        <time>2023-11-22T14:03:13Z</time>
      </trkpt>
      <trkpt lat="49.12002" lon="-0.06372">
        <ele>12.1</ele>
        <time>2023-11-22T14:03:14Z</time>
      </trkpt>
      <trkpt lat="49.12005" lon="-0.06358">
        <ele>12</ele>
        <time>2023-11-22T14:03:15Z</time>
      </trkpt>
      <trkpt lat="49.12008" lon="-0.06345">
        <ele>11.9</ele>
        <time>2023-11-22T14:03:16Z</time>
      </trkpt>
      <trkpt lat="49.12011" lon="-0.06332">
        <ele>11.7</ele>
        <time>2023-11-22T14:03:17Z</time>
      </trkpt>
      <trkpt lat="49.12014" lon="-0.06319">
        <ele>11.6</ele>
        <time>2023-11-22T14:03:18Z</time>
      </trkpt>
      <trkpt lat="49.12017" lon="-0.06305">
        <ele>11.4</ele>
        <time>2023-11-22T14:03:19Z</time>
      </trkpt>
      <trkpt lat="49.12021" lon="-0.06292">
        <ele>11.3</ele>
        <time>2023-11-22T14:03:20Z</time>
      </trkpt>
      <trkpt lat="49.12024" lon="-0.06278">
        <ele>11.2</ele>
        <time>2023-11-22T14:03:21Z</time>
      </trkpt>
      <trkpt lat="49.12027" lon="-0.06263">
        <ele>11.2</ele>
        <time>2023-11-22T14:03:22Z</time>
      </trkpt>
      <trkpt lat="49.1203" lon="-0.06249">
        <ele>11.1</ele>
        <time>2023-11-22T14:03:23Z</time>
      </trkpt>
      <trkpt lat="49.12033" lon="-0.06234">
        <ele>11</ele>
        <time>2023-11-22T14:03:24Z</time>
      </trkpt>
      <trkpt lat="49.12037" lon="-0.06218">
        <ele>10.9</ele>
        <time>2023-11-22T14:03:25Z</time>
      </trkpt>
      <trkpt lat="49.1204" lon="-0.06203">
        <ele>10.8</ele>
        <time>2023-11-22T14:03:26Z</time>
      </trkpt>
      <trkpt lat="49.12044" lon="-0.06187">
        <ele>10.7</ele>
        <time>2023-11-22T14:03:27Z</time>
      </trkpt>
      <trkpt lat="49.12047" lon="-0.06172">
        <ele>10.6</ele>
        <time>2023-11-22T14:03:28Z</time>
      </trkpt>
      <trkpt lat="49.12051" lon="-0.06156">
        <ele>10.6</ele>
        <time>2023-11-22T14:03:29Z</time>
      </trkpt>
      <trkpt lat="49.12054" lon="-0.06141">
        <ele>10.5</ele>
        <time>2023-11-22T14:03:30Z</time>
      </trkpt>
      <trkpt lat="49.12058" lon="-0.06125">
        <ele>10.5</ele>
        <time>2023-11-22T14:03:31Z</time>
      </trkpt>
      <trkpt lat="49.12062" lon="-0.06108">
        <ele>10.4</ele>
        <time>2023-11-22T14:03:32Z</time>
      </trkpt>
      <trkpt lat="49.12066" lon="-0.06092">
        <ele>10.4</ele>
        <time>2023-11-22T14:03:33Z</time>
      </trkpt>
      <trkpt lat="49.12069" lon="-0.06076">
        <ele>10.3</ele>
        <time>2023-11-22T14:03:34Z</time>
      </trkpt>
      <trkpt lat="49.12073" lon="-0.06059">
        <ele>10.3</ele>
        <time>2023-11-22T14:03:35Z</time>
      </trkpt>
      <trkpt lat="49.12077" lon="-0.06043">
        <ele>10.3</ele>
        <time>2023-11-22T14:03:36Z</time>
      </trkpt>
      <trkpt lat="49.12081" lon="-0.06027">
        <ele>10.3</ele>
        <time>2023-11-22T14:03:37Z</time>
      </trkpt>
      <trkpt lat="49.12085" lon="-0.06011">
        <ele>10.2</ele>
        <time>2023-11-22T14:03:38Z</time>
      </trkpt>
      <trkpt lat="49.12088" lon="-0.05994">
        <ele>10.1</ele>
        <time>2023-11-22T14:03:39Z</time>
      </trkpt>
      <trkpt lat="49.12092" lon="-0.05977">
        <ele>10.1</ele>
        <time>2023-11-22T14:03:40Z</time>
      </trkpt>
      <trkpt lat="49.12096" lon="-0.0596">
        <ele>10</ele>
        <time>2023-11-22T14:03:41Z</time>
      </trkpt>
      <trkpt lat="49.12099" lon="-0.05944">
        <ele>10</ele>
        <time>2023-11-22T14:03:42Z</time>
      </trkpt>
      <trkpt lat="49.12103" lon="-0.05928">
        <ele>9.9</ele>
        <time>2023-11-22T14:03:43Z</time>
      </trkpt>
      <trkpt lat="49.12107" lon="-0.05912">
        <ele>9.9</ele>
        <time>2023-11-22T14:03:44Z</time>
      </trkpt>
      <trkpt lat="49.1211" lon="-0.05895">
        <ele>9.8</ele>
        <time>2023-11-22T14:03:45Z</time>
      </trkpt>
      <trkpt lat="49.12114" lon="-0.05879">
        <ele>9.8</ele>
        <time>2023-11-22T14:03:46Z</time>
      </trkpt>
      <trkpt lat="49.12117" lon="-0.05863">
        <ele>9.7</ele>
        <time>2023-11-22T14:03:47Z</time>
      </trkpt>
      <trkpt lat="49.12121" lon="-0.05846">
        <ele>9.6</ele>
        <time>2023-11-22T14:03:48Z</time>
      </trkpt>
      <trkpt lat="49.12124" lon="-0.0583">
        <ele>9.6</ele>
        <time>2023-11-22T14:03:49Z</time>
      </trkpt>
      <trkpt lat="49.12128" lon="-0.05813">
        <ele>9.6</ele>
        <time>2023-11-22T14:03:50Z</time>
      </trkpt>
      <trkpt lat="49.12132" lon="-0.05797">
        <ele>9.6</ele>
        <time>2023-11-22T14:03:51Z</time>
      </trkpt>
      <trkpt lat="49.12135" lon="-0.05781">
        <ele>9.5</ele>
        <time>2023-11-22T14:03:52Z</time>
      </trkpt>
      <trkpt lat="49.12139" lon="-0.05765">
        <ele>9.5</ele>
        <time>2023-11-22T14:03:53Z</time>
      </trkpt>
      <trkpt lat="49.12143" lon="-0.05749">
        <ele>9.4</ele>
        <time>2023-11-22T14:03:54Z</time>
      </trkpt>
      <trkpt lat="49.12146" lon="-0.05733">
        <ele>9.3</ele>
        <time>2023-11-22T14:03:55Z</time>
      </trkpt>
      <trkpt lat="49.1215" lon="-0.05717">
        <ele>9.2</ele>
        <time>2023-11-22T14:03:56Z</time>
      </trkpt>
      <trkpt lat="49.12153" lon="-0.05701">
        <ele>9.2</ele>
        <time>2023-11-22T14:03:57Z</time>
      </trkpt>
      <trkpt lat="49.12156" lon="-0.05685">
        <ele>9.1</ele>
        <time>2023-11-22T14:03:58Z</time>
      </trkpt>
      <trkpt lat="49.12159" lon="-0.05669">
        <ele>9</ele>
        <time>2023-11-22T14:03:59Z</time>
      </trkpt>
      <trkpt lat="49.12163" lon="-0.05654">
        <ele>8.9</ele>
        <time>2023-11-22T14:04:00Z</time>
      </trkpt>
      <trkpt lat="49.12166" lon="-0.05638">
        <ele>8.9</ele>
        <time>2023-11-22T14:04:01Z</time>
      </trkpt>
      <trkpt lat="49.12169" lon="-0.05623">
        <ele>8.8</ele>
        <time>2023-11-22T14:04:02Z</time>
      </trkpt>
      <trkpt lat="49.12173" lon="-0.05608">
        <ele>8.7</ele>
        <time>2023-11-22T14:04:03Z</time>
      </trkpt>
      <trkpt lat="49.12177" lon="-0.05592">
        <ele>8.6</ele>
        <time>2023-11-22T14:04:04Z</time>
      </trkpt>
      <trkpt lat="49.1218" lon="-0.05577">
        <ele>8.6</ele>
        <time>2023-11-22T14:04:05Z</time>
      </trkpt>
      <trkpt lat="49.12183" lon="-0.05562">
        <ele>8.5</ele>
        <time>2023-11-22T14:04:06Z</time>
      </trkpt>
      <trkpt lat="49.12187" lon="-0.05546">
        <ele>8.5</ele>
        <time>2023-11-22T14:04:07Z</time>
      </trkpt>
      <trkpt lat="49.1219" lon="-0.05531">
        <ele>8.4</ele>
        <time>2023-11-22T14:04:08Z</time>
      </trkpt>
      <trkpt lat="49.12194" lon="-0.05516">
        <ele>8.3</ele>
        <time>2023-11-22T14:04:09Z</time>
      </trkpt>
      <trkpt lat="49.12197" lon="-0.05501">
        <ele>8.3</ele>
        <time>2023-11-22T14:04:10Z</time>
      </trkpt>
      <trkpt lat="49.122" lon="-0.05486">
        <ele>8.3</ele>
        <time>2023-11-22T14:04:11Z</time>
      </trkpt>
      <trkpt lat="49.12203" lon="-0.05472">
        <ele>8.3</ele>
        <time>2023-11-22T14:04:12Z</time>
      </trkpt>
      <trkpt lat="49.12206" lon="-0.05457">
        <ele>8.2</ele>
        <time>2023-11-22T14:04:13Z</time>
      </trkpt>
      <trkpt lat="49.12209" lon="-0.05443">
        <ele>8.2</ele>
        <time>2023-11-22T14:04:14Z</time>
      </trkpt>
      <trkpt lat="49.12213" lon="-0.05428">
        <ele>8.2</ele>
        <time>2023-11-22T14:04:15Z</time>
      </trkpt>
      <trkpt lat="49.12217" lon="-0.05414">
        <ele>8.2</ele>
        <time>2023-11-22T14:04:16Z</time>
      </trkpt>
      <trkpt lat="49.12221" lon="-0.05401">
        <ele>8.2</ele>
        <time>2023-11-22T14:04:17Z</time>
      </trkpt>
      <trkpt lat="49.12225" lon="-0.05388">
        <ele>8.2</ele>
        <time>2023-11-22T14:04:18Z</time>
      </trkpt>
      <trkpt lat="49.12229" lon="-0.05374">
        <ele>8.1</ele>
        <time>2023-11-22T14:04:19Z</time>
      </trkpt>
      <trkpt lat="49.12233" lon="-0.05362">
        <ele>8.1</ele>
        <time>2023-11-22T14:04:20Z</time>
      </trkpt>
      <trkpt lat="49.12238" lon="-0.05349">
        <ele>8.1</ele>
        <time>2023-11-22T14:04:21Z</time>
      </trkpt>
      <trkpt lat="49.12243" lon="-0.05337">
        <ele>8.1</ele>
        <time>2023-11-22T14:04:22Z</time>
      </trkpt>
      <trkpt lat="49.12248" lon="-0.05324">
        <ele>8.1</ele>
        <time>2023-11-22T14:04:23Z</time>
      </trkpt>
      <trkpt lat="49.12253" lon="-0.05312">
        <ele>8.1</ele>
        <time>2023-11-22T14:04:24Z</time>
      </trkpt>
      <trkpt lat="49.12258" lon="-0.053">
        <ele>8.1</ele>
        <time>2023-11-22T14:04:25Z</time>
      </trkpt>
      <trkpt lat="49.12263" lon="-0.05288">
        <ele>8.1</ele>
        <time>2023-11-22T14:04:26Z</time>
      </trkpt>
      <trkpt lat="49.12268" lon="-0.05277">
        <ele>8.2</ele>
        <time>2023-11-22T14:04:27Z</time>
      </trkpt>
      <trkpt lat="49.12273" lon="-0.05266">
        <ele>8.2</ele>
        <time>2023-11-22T14:04:28Z</time>
      </trkpt>
      <trkpt lat="49.12278" lon="-0.05256">
        <ele>8.3</ele>
        <time>2023-11-22T14:04:29Z</time>
      </trkpt>
      <trkpt lat="49.12284" lon="-0.05246">
        <ele>8.4</ele>
        <time>2023-11-22T14:04:30Z</time>
      </trkpt>
      <trkpt lat="49.12289" lon="-0.05236">
        <ele>8.4</ele>
        <time>2023-11-22T14:04:31Z</time>
      </trkpt>
      <trkpt lat="49.12294" lon="-0.05226">
        <ele>8.5</ele>
        <time>2023-11-22T14:04:32Z</time>
      </trkpt>
      <trkpt lat="49.12297" lon="-0.05216">
        <ele>8.7</ele>
        <time>2023-11-22T14:04:33Z</time>
      </trkpt>
      <trkpt lat="49.12298" lon="-0.05206">
        <ele>8.8</ele>
        <time>2023-11-22T14:04:34Z</time>
      </trkpt>
      <trkpt lat="49.12297" lon="-0.05195">
        <ele>8.7</ele>
        <time>2023-11-22T14:04:35Z</time>
      </trkpt>
      <trkpt lat="49.12293" lon="-0.05186">
        <ele>8.6</ele>
        <time>2023-11-22T14:04:36Z</time>
      </trkpt>
      <trkpt lat="49.12288" lon="-0.05179">
        <ele>8.4</ele>
        <time>2023-11-22T14:04:37Z</time>
      </trkpt>
      <trkpt lat="49.12281" lon="-0.05175">
        <ele>8.4</ele>
        <time>2023-11-22T14:04:38Z</time>
      </trkpt>
      <trkpt lat="49.12274" lon="-0.05172">
        <ele>8.2</ele>
        <time>2023-11-22T14:04:39Z</time>
      </trkpt>
      <trkpt lat="49.12266" lon="-0.0517">
        <ele>8.1</ele>
        <time>2023-11-22T14:04:40Z</time>
      </trkpt>
      <trkpt lat="49.12257" lon="-0.05169">
        <ele>8</ele>
        <time>2023-11-22T14:04:41Z</time>
      </trkpt>
      <trkpt lat="49.12249" lon="-0.05168">
        <ele>7.9</ele>
        <time>2023-11-22T14:04:42Z</time>
      </trkpt>
      <trkpt lat="49.1224" lon="-0.05166">
        <ele>7.9</ele>
        <time>2023-11-22T14:04:43Z</time>
      </trkpt>
      <trkpt lat="49.12232" lon="-0.05164">
        <ele>7.9</ele>
        <time>2023-11-22T14:04:44Z</time>
      </trkpt>
      <trkpt lat="49.12224" lon="-0.05162">
        <ele>7.9</ele>
        <time>2023-11-22T14:04:45Z</time>
      </trkpt>
      <trkpt lat="49.12216" lon="-0.05159">
        <ele>7.9</ele>
        <time>2023-11-22T14:04:46Z</time>
      </trkpt>
      <trkpt lat="49.12208" lon="-0.05158">
        <ele>7.9</ele>
        <time>2023-11-22T14:04:47Z</time>
      </trkpt>
      <trkpt lat="49.122" lon="-0.05156">
        <ele>7.9</ele>
        <time>2023-11-22T14:04:48Z</time>
      </trkpt>
      <trkpt lat="49.12193" lon="-0.05154">
        <ele>7.9</ele>
        <time>2023-11-22T14:04:49Z</time>
      </trkpt>
      <trkpt lat="49.12185" lon="-0.05153">
        <ele>7.9</ele>
        <time>2023-11-22T14:04:50Z</time>
      </trkpt>
      <trkpt lat="49.12177" lon="-0.05151">
        <ele>7.9</ele>
        <time>2023-11-22T14:04:51Z</time>
      </trkpt>
      <trkpt lat="49.1217" lon="-0.05149">
        <ele>7.9</ele>
        <time>2023-11-22T14:04:52Z</time>
      </trkpt>
      <trkpt lat="49.12162" lon="-0.05148">
        <ele>7.9</ele>
        <time>2023-11-22T14:04:53Z</time>
      </trkpt>
      <trkpt lat="49.12155" lon="-0.05146">
        <ele>7.9</ele>
        <time>2023-11-22T14:04:54Z</time>
      </trkpt>
      <trkpt lat="49.12148" lon="-0.05145">
        <ele>8</ele>
        <time>2023-11-22T14:04:55Z</time>
      </trkpt>
      <trkpt lat="49.1214" lon="-0.05143">
        <ele>8</ele>
        <time>2023-11-22T14:04:56Z</time>
      </trkpt>
      <trkpt lat="49.12133" lon="-0.05142">
        <ele>8</ele>
        <time>2023-11-22T14:04:57Z</time>
      </trkpt>
      <trkpt lat="49.12126" lon="-0.0514">
        <ele>8</ele>
        <time>2023-11-22T14:04:58Z</time>
      </trkpt>
      <trkpt lat="49.12118" lon="-0.05138">
        <ele>8</ele>
        <time>2023-11-22T14:04:59Z</time>
      </trkpt>
      <trkpt lat="49.12111" lon="-0.05137">
        <ele>8</ele>
        <time>2023-11-22T14:05:00Z</time>
      </trkpt>
      <trkpt lat="49.12104" lon="-0.05136">
        <ele>8</ele>
        <time>2023-11-22T14:05:01Z</time>
      </trkpt>
      <trkpt lat="49.12096" lon="-0.05134">
        <ele>8</ele>
        <time>2023-11-22T14:05:02Z</time>
      </trkpt>
      <trkpt lat="49.12089" lon="-0.05133">
        <ele>8</ele>
        <time>2023-11-22T14:05:03Z</time>
      </trkpt>
      <trkpt lat="49.12082" lon="-0.05131">
        <ele>8.1</ele>
        <time>2023-11-22T14:05:04Z</time>
      </trkpt>
      <trkpt lat="49.12075" lon="-0.05129">
        <ele>8.1</ele>
        <time>2023-11-22T14:05:05Z</time>
      </trkpt>
      <trkpt lat="49.12068" lon="-0.05128">
        <ele>8.1</ele>
        <time>2023-11-22T14:05:06Z</time>
      </trkpt>
      <trkpt lat="49.12061" lon="-0.05126">
        <ele>8.2</ele>
        <time>2023-11-22T14:05:07Z</time>
      </trkpt>
      <trkpt lat="49.12054" lon="-0.05125">
        <ele>8.2</ele>
        <time>2023-11-22T14:05:08Z</time>
      </trkpt>
      <trkpt lat="49.12047" lon="-0.05123">
        <ele>8.2</ele>
        <time>2023-11-22T14:05:09Z</time>
      </trkpt>
      <trkpt lat="49.12039" lon="-0.05121">
        <ele>8.2</ele>
        <time>2023-11-22T14:05:10Z</time>
      </trkpt>
      <trkpt lat="49.12032" lon="-0.05119">
        <ele>8.3</ele>
        <time>2023-11-22T14:05:11Z</time>
      </trkpt>
      <trkpt lat="49.12025" lon="-0.05117">
        <ele>8.3</ele>
        <time>2023-11-22T14:05:12Z</time>
      </trkpt>
      <trkpt lat="49.12017" lon="-0.05115">
        <ele>8.3</ele>
        <time>2023-11-22T14:05:13Z</time>
      </trkpt>
      <trkpt lat="49.1201" lon="-0.05113">
        <ele>8.3</ele>
        <time>2023-11-22T14:05:14Z</time>
      </trkpt>
      <trkpt lat="49.12002" lon="-0.05111">
        <ele>8.3</ele>
        <time>2023-11-22T14:05:15Z</time>
      </trkpt>
      <trkpt lat="49.11995" lon="-0.05109">
        <ele>8.3</ele>
        <time>2023-11-22T14:05:16Z</time>
      </trkpt>
      <trkpt lat="49.11987" lon="-0.05107">
        <ele>8.3</ele>
        <time>2023-11-22T14:05:17Z</time>
      </trkpt>
      <trkpt lat="49.1198" lon="-0.05105">
        <ele>8.3</ele>
        <time>2023-11-22T14:05:18Z</time>
      </trkpt>
      <trkpt lat="49.11972" lon="-0.05102">
        <ele>8.3</ele>
        <time>2023-11-22T14:05:19Z</time>
      </trkpt>
      <trkpt lat="49.11965" lon="-0.051">
        <ele>8.3</ele>
        <time>2023-11-22T14:05:20Z</time>
      </trkpt>
      <trkpt lat="49.11958" lon="-0.05098">
        <ele>8.4</ele>
        <time>2023-11-22T14:05:21Z</time>
      </trkpt>
      <trkpt lat="49.11951" lon="-0.05096">
        <ele>8.4</ele>
        <time>2023-11-22T14:05:22Z</time>
      </trkpt>
      <trkpt lat="49.11945" lon="-0.05095">
        <ele>8.4</ele>
        <time>2023-11-22T14:05:23Z</time>
      </trkpt>
      <trkpt lat="49.11939" lon="-0.05093">
        <ele>8.5</ele>
        <time>2023-11-22T14:05:24Z</time>
      </trkpt>
      <trkpt lat="49.11934" lon="-0.05092">
        <ele>8.5</ele>
        <time>2023-11-22T14:05:25Z</time>
      </trkpt>
      <trkpt lat="49.11928" lon="-0.05091">
        <ele>8.5</ele>
        <time>2023-11-22T14:05:26Z</time>
      </trkpt>
      <trkpt lat="49.11923" lon="-0.0509">
        <ele>8.6</ele>
        <time>2023-11-22T14:05:27Z</time>
      </trkpt>
      <trkpt lat="49.11918" lon="-0.05088">
        <ele>8.6</ele>
        <time>2023-11-22T14:05:28Z</time>
      </trkpt>
      <trkpt lat="49.11913" lon="-0.05086">
        <ele>8.7</ele>
        <time>2023-11-22T14:05:29Z</time>
      </trkpt>
      <trkpt lat="49.11909" lon="-0.05084">
        <ele>8.7</ele>
        <time>2023-11-22T14:05:30Z</time>
      </trkpt>
      <trkpt lat="49.11905" lon="-0.05081">
        <ele>8.8</ele>
        <time>2023-11-22T14:05:31Z</time>
      </trkpt>
      <trkpt lat="49.11902" lon="-0.05076">
        <ele>8.8</ele>
        <time>2023-11-22T14:05:32Z</time>
      </trkpt>
      <trkpt lat="49.11902" lon="-0.05069">
        <ele>8.7</ele>
        <time>2023-11-22T14:05:33Z</time>
      </trkpt>
      <trkpt lat="49.11902" lon="-0.05061">
        <ele>8.5</ele>
        <time>2023-11-22T14:05:34Z</time>
      </trkpt>
      <trkpt lat="49.11903" lon="-0.05051">
        <ele>8.3</ele>
        <time>2023-11-22T14:05:35Z</time>
      </trkpt>
      <trkpt lat="49.11904" lon="-0.05041">
        <ele>8.1</ele>
        <time>2023-11-22T14:05:36Z</time>
      </trkpt>
      <trkpt lat="49.11906" lon="-0.05031">
        <ele>8</ele>
        <time>2023-11-22T14:05:37Z</time>
      </trkpt>
      <trkpt lat="49.11907" lon="-0.0502">
        <ele>7.9</ele>
        <time>2023-11-22T14:05:38Z</time>
      </trkpt>
      <trkpt lat="49.11909" lon="-0.0501">
        <ele>7.8</ele>
        <time>2023-11-22T14:05:39Z</time>
      </trkpt>
      <trkpt lat="49.1191" lon="-0.04999">
        <ele>7.8</ele>
        <time>2023-11-22T14:05:40Z</time>
      </trkpt>
      <trkpt lat="49.11911" lon="-0.04988">
        <ele>7.7</ele>
        <time>2023-11-22T14:05:41Z</time>
      </trkpt>
      <trkpt lat="49.11912" lon="-0.04976">
        <ele>7.7</ele>
        <time>2023-11-22T14:05:42Z</time>
      </trkpt>
      <trkpt lat="49.11913" lon="-0.04965">
        <ele>7.7</ele>
        <time>2023-11-22T14:05:43Z</time>
      </trkpt>
      <trkpt lat="49.11915" lon="-0.04953">
        <ele>7.6</ele>
        <time>2023-11-22T14:05:44Z</time>
      </trkpt>
      <trkpt lat="49.11915" lon="-0.04941">
        <ele>7.6</ele>
        <time>2023-11-22T14:05:45Z</time>
      </trkpt>
      <trkpt lat="49.11916" lon="-0.04929">
        <ele>7.6</ele>
        <time>2023-11-22T14:05:46Z</time>
      </trkpt>
      <trkpt lat="49.11917" lon="-0.04917">
        <ele>7.6</ele>
        <time>2023-11-22T14:05:47Z</time>
      </trkpt>
      <trkpt lat="49.11917" lon="-0.04905">
        <ele>7.6</ele>
        <time>2023-11-22T14:05:48Z</time>
      </trkpt>
      <trkpt lat="49.11918" lon="-0.04893">
        <ele>7.6</ele>
        <time>2023-11-22T14:05:49Z</time>
      </trkpt>
      <trkpt lat="49.11919" lon="-0.04881">
        <ele>7.6</ele>
        <time>2023-11-22T14:05:50Z</time>
      </trkpt>
      <trkpt lat="49.11919" lon="-0.04869">
        <ele>7.6</ele>
        <time>2023-11-22T14:05:51Z</time>
      </trkpt>
      <trkpt lat="49.1192" lon="-0.04857">
        <ele>7.6</ele>
        <time>2023-11-22T14:05:52Z</time>
      </trkpt>
      <trkpt lat="49.1192" lon="-0.04846">
        <ele>7.6</ele>
        <time>2023-11-22T14:05:53Z</time>
      </trkpt>
      <trkpt lat="49.11921" lon="-0.04834">
        <ele>7.6</ele>
        <time>2023-11-22T14:05:54Z</time>
      </trkpt>
      <trkpt lat="49.11921" lon="-0.04823">
        <ele>7.6</ele>
        <time>2023-11-22T14:05:55Z</time>
      </trkpt>
      <trkpt lat="49.11921" lon="-0.04811">
        <ele>7.6</ele>
        <time>2023-11-22T14:05:56Z</time>
      </trkpt>
      <trkpt lat="49.11921" lon="-0.04798">
        <ele>7.7</ele>
        <time>2023-11-22T14:05:57Z</time>
      </trkpt>
      <trkpt lat="49.11922" lon="-0.04786">
        <ele>7.7</ele>
        <time>2023-11-22T14:05:58Z</time>
      </trkpt>
      <trkpt lat="49.11922" lon="-0.04774">
        <ele>7.7</ele>
        <time>2023-11-22T14:05:59Z</time>
      </trkpt>
      <trkpt lat="49.11923" lon="-0.04762">
        <ele>7.7</ele>
        <time>2023-11-22T14:06:00Z</time>
      </trkpt>
      <trkpt lat="49.11923" lon="-0.04749">
        <ele>7.7</ele>
        <time>2023-11-22T14:06:01Z</time>
      </trkpt>
      <trkpt lat="49.11924" lon="-0.04737">
        <ele>7.7</ele>
        <time>2023-11-22T14:06:02Z</time>
      </trkpt>
      <trkpt lat="49.11924" lon="-0.04724">
        <ele>7.7</ele>
        <time>2023-11-22T14:06:03Z</time>
      </trkpt>
      <trkpt lat="49.11925" lon="-0.04712">
        <ele>7.7</ele>
        <time>2023-11-22T14:06:04Z</time>
      </trkpt>
      <trkpt lat="49.11925" lon="-0.047">
        <ele>7.7</ele>
        <time>2023-11-22T14:06:05Z</time>
      </trkpt>
      <trkpt lat="49.11924" lon="-0.04688">
        <ele>7.7</ele>
        <time>2023-11-22T14:06:06Z</time>
      </trkpt>
      <trkpt lat="49.11921" lon="-0.04676">
        <ele>7.7</ele>
        <time>2023-11-22T14:06:07Z</time>
      </trkpt>
      <trkpt lat="49.11918" lon="-0.04664">
        <ele>7.7</ele>
        <time>2023-11-22T14:06:08Z</time>
      </trkpt>
      <trkpt lat="49.11915" lon="-0.04653">
        <ele>7.7</ele>
        <time>2023-11-22T14:06:09Z</time>
      </trkpt>
      <trkpt lat="49.11911" lon="-0.04643">
        <ele>7.8</ele>
        <time>2023-11-22T14:06:10Z</time>
      </trkpt>
      <trkpt lat="49.11907" lon="-0.04632">
        <ele>7.8</ele>
        <time>2023-11-22T14:06:11Z</time>
      </trkpt>
      <trkpt lat="49.11904" lon="-0.04622">
        <ele>7.8</ele>
        <time>2023-11-22T14:06:12Z</time>
      </trkpt>
      <trkpt lat="49.119" lon="-0.04612">
        <ele>7.8</ele>
        <time>2023-11-22T14:06:13Z</time>
      </trkpt>
      <trkpt lat="49.11896" lon="-0.04603">
        <ele>7.8</ele>
        <time>2023-11-22T14:06:14Z</time>
      </trkpt>
      <trkpt lat="49.11891" lon="-0.04593">
        <ele>7.8</ele>
        <time>2023-11-22T14:06:15Z</time>
      </trkpt>
      <trkpt lat="49.11887" lon="-0.04584">
        <ele>7.8</ele>
        <time>2023-11-22T14:06:16Z</time>
      </trkpt>
      <trkpt lat="49.11882" lon="-0.04574">
        <ele>7.9</ele>
        <time>2023-11-22T14:06:17Z</time>
      </trkpt>
      <trkpt lat="49.11878" lon="-0.04565">
        <ele>7.9</ele>
        <time>2023-11-22T14:06:18Z</time>
      </trkpt>
      <trkpt lat="49.11874" lon="-0.04556">
        <ele>7.9</ele>
        <time>2023-11-22T14:06:19Z</time>
      </trkpt>
      <trkpt lat="49.1187" lon="-0.04546">
        <ele>8</ele>
        <time>2023-11-22T14:06:20Z</time>
      </trkpt>
      <trkpt lat="49.11867" lon="-0.04537">
        <ele>8</ele>
        <time>2023-11-22T14:06:21Z</time>
      </trkpt>
      <trkpt lat="49.11863" lon="-0.04528">
        <ele>8</ele>
        <time>2023-11-22T14:06:22Z</time>
      </trkpt>
      <trkpt lat="49.11859" lon="-0.04518">
        <ele>8.1</ele>
        <time>2023-11-22T14:06:23Z</time>
      </trkpt>
      <trkpt lat="49.11855" lon="-0.04508">
        <ele>8.1</ele>
        <time>2023-11-22T14:06:24Z</time>
      </trkpt>
      <trkpt lat="49.11851" lon="-0.04499">
        <ele>8.1</ele>
        <time>2023-11-22T14:06:25Z</time>
      </trkpt>
      <trkpt lat="49.11846" lon="-0.0449">
        <ele>8.1</ele>
        <time>2023-11-22T14:06:26Z</time>
      </trkpt>
      <trkpt lat="49.11842" lon="-0.04482">
        <ele>8.1</ele>
        <time>2023-11-22T14:06:27Z</time>
      </trkpt>
      <trkpt lat="49.11837" lon="-0.04474">
        <ele>8.1</ele>
        <time>2023-11-22T14:06:28Z</time>
      </trkpt>
      <trkpt lat="49.11832" lon="-0.04467">
        <ele>8.1</ele>
        <time>2023-11-22T14:06:29Z</time>
      </trkpt>
      <trkpt lat="49.11827" lon="-0.04459">
        <ele>8.1</ele>
        <time>2023-11-22T14:06:30Z</time>
      </trkpt>
      <trkpt lat="49.11822" lon="-0.04453">
        <ele>8.1</ele>
        <time>2023-11-22T14:06:31Z</time>
      </trkpt>
      <trkpt lat="49.11817" lon="-0.04445">
        <ele>8.1</ele>
        <time>2023-11-22T14:06:32Z</time>
      </trkpt>
      <trkpt lat="49.11812" lon="-0.04438">
        <ele>8.2</ele>
        <time>2023-11-22T14:06:33Z</time>
      </trkpt>
      <trkpt lat="49.11808" lon="-0.0443">
        <ele>8.2</ele>
        <time>2023-11-22T14:06:34Z</time>
      </trkpt>
      <trkpt lat="49.11803" lon="-0.04422">
        <ele>8.2</ele>
        <time>2023-11-22T14:06:35Z</time>
      </trkpt>
      <trkpt lat="49.11798" lon="-0.04415">
        <ele>8.3</ele>
        <time>2023-11-22T14:06:36Z</time>
      </trkpt>
      <trkpt lat="49.11792" lon="-0.04407">
        <ele>8.3</ele>
        <time>2023-11-22T14:06:37Z</time>
      </trkpt>
      <trkpt lat="49.11787" lon="-0.044">
        <ele>8.3</ele>
        <time>2023-11-22T14:06:38Z</time>
      </trkpt>
      <trkpt lat="49.11782" lon="-0.04392">
        <ele>8.3</ele>
        <time>2023-11-22T14:06:39Z</time>
      </trkpt>
      <trkpt lat="49.11777" lon="-0.04385">
        <ele>8.3</ele>
        <time>2023-11-22T14:06:40Z</time>
      </trkpt>
      <trkpt lat="49.11772" lon="-0.04377">
        <ele>8.3</ele>
        <time>2023-11-22T14:06:41Z</time>
      </trkpt>
      <trkpt lat="49.11767" lon="-0.0437">
        <ele>8.3</ele>
        <time>2023-11-22T14:06:42Z</time>
      </trkpt>
      <trkpt lat="49.11762" lon="-0.04361">
        <ele>8.3</ele>
        <time>2023-11-22T14:06:43Z</time>
      </trkpt>
      <trkpt lat="49.11757" lon="-0.04352">
        <ele>8.3</ele>
        <time>2023-11-22T14:06:44Z</time>
      </trkpt>
      <trkpt lat="49.11753" lon="-0.04343">
        <ele>8.3</ele>
        <time>2023-11-22T14:06:45Z</time>
      </trkpt>
      <trkpt lat="49.11748" lon="-0.04333">
        <ele>8.3</ele>
        <time>2023-11-22T14:06:46Z</time>
      </trkpt>
      <trkpt lat="49.11743" lon="-0.04323">
        <ele>8.4</ele>
        <time>2023-11-22T14:06:47Z</time>
      </trkpt>
      <trkpt lat="49.11739" lon="-0.04313">
        <ele>8.4</ele>
        <time>2023-11-22T14:06:48Z</time>
      </trkpt>
      <trkpt lat="49.11734" lon="-0.04304">
        <ele>8.4</ele>
        <time>2023-11-22T14:06:49Z</time>
      </trkpt>
      <trkpt lat="49.1173" lon="-0.04295">
        <ele>8.5</ele>
        <time>2023-11-22T14:06:50Z</time>
      </trkpt>
      <trkpt lat="49.11726" lon="-0.04286">
        <ele>8.5</ele>
        <time>2023-11-22T14:06:51Z</time>
      </trkpt>
      <trkpt lat="49.11722" lon="-0.04277">
        <ele>8.5</ele>
        <time>2023-11-22T14:06:52Z</time>
      </trkpt>
      <trkpt lat="49.11718" lon="-0.04267">
        <ele>8.6</ele>
        <time>2023-11-22T14:06:53Z</time>
      </trkpt>
      <trkpt lat="49.11714" lon="-0.04258">
        <ele>8.6</ele>
        <time>2023-11-22T14:06:54Z</time>
      </trkpt>
      <trkpt lat="49.11709" lon="-0.04248">
        <ele>8.6</ele>
        <time>2023-11-22T14:06:55Z</time>
      </trkpt>
      <trkpt lat="49.11705" lon="-0.04238">
        <ele>8.7</ele>
        <time>2023-11-22T14:06:56Z</time>
      </trkpt>
      <trkpt lat="49.11701" lon="-0.04229">
        <ele>8.7</ele>
        <time>2023-11-22T14:06:57Z</time>
      </trkpt>
      <trkpt lat="49.11697" lon="-0.04219">
        <ele>8.7</ele>
        <time>2023-11-22T14:06:58Z</time>
      </trkpt>
      <trkpt lat="49.11693" lon="-0.0421">
        <ele>8.7</ele>
        <time>2023-11-22T14:06:59Z</time>
      </trkpt>
      <trkpt lat="49.11689" lon="-0.042">
        <ele>8.8</ele>
        <time>2023-11-22T14:07:00Z</time>
      </trkpt>
      <trkpt lat="49.11685" lon="-0.04191">
        <ele>8.8</ele>
        <time>2023-11-22T14:07:01Z</time>
      </trkpt>
      <trkpt lat="49.11681" lon="-0.04182">
        <ele>8.8</ele>
        <time>2023-11-22T14:07:02Z</time>
      </trkpt>
      <trkpt lat="49.11677" lon="-0.04173">
        <ele>8.9</ele>
        <time>2023-11-22T14:07:03Z</time>
      </trkpt>
      <trkpt lat="49.11673" lon="-0.04164">
        <ele>8.9</ele>
        <time>2023-11-22T14:07:04Z</time>
      </trkpt>
      <trkpt lat="49.11669" lon="-0.04154">
        <ele>8.9</ele>
        <time>2023-11-22T14:07:05Z</time>
      </trkpt>
      <trkpt lat="49.11665" lon="-0.04144">
        <ele>8.9</ele>
        <time>2023-11-22T14:07:06Z</time>
      </trkpt>
      <trkpt lat="49.1166" lon="-0.04134">
        <ele>9</ele>
        <time>2023-11-22T14:07:07Z</time>
      </trkpt>
      <trkpt lat="49.11656" lon="-0.04125">
        <ele>9</ele>
        <time>2023-11-22T14:07:08Z</time>
      </trkpt>
      <trkpt lat="49.11652" lon="-0.04115">
        <ele>9</ele>
        <time>2023-11-22T14:07:09Z</time>
      </trkpt>
      <trkpt lat="49.11647" lon="-0.04106">
        <ele>9</ele>
        <time>2023-11-22T14:07:10Z</time>
      </trkpt>
      <trkpt lat="49.11643" lon="-0.04097">
        <ele>9.1</ele>
        <time>2023-11-22T14:07:11Z</time>
      </trkpt>
      <trkpt lat="49.11639" lon="-0.04087">
        <ele>9.1</ele>
        <time>2023-11-22T14:07:12Z</time>
      </trkpt>
      <trkpt lat="49.11634" lon="-0.04078">
        <ele>9.2</ele>
        <time>2023-11-22T14:07:13Z</time>
      </trkpt>
      <trkpt lat="49.1163" lon="-0.04068">
        <ele>9.2</ele>
        <time>2023-11-22T14:07:14Z</time>
      </trkpt>
      <trkpt lat="49.11626" lon="-0.04059">
        <ele>9.3</ele>
        <time>2023-11-22T14:07:15Z</time>
      </trkpt>
      <trkpt lat="49.11622" lon="-0.0405">
        <ele>9.3</ele>
        <time>2023-11-22T14:07:16Z</time>
      </trkpt>
      <trkpt lat="49.11618" lon="-0.04041">
        <ele>9.3</ele>
        <time>2023-11-22T14:07:17Z</time>
      </trkpt>
      <trkpt lat="49.11614" lon="-0.04032">
        <ele>9.4</ele>
        <time>2023-11-22T14:07:18Z</time>
      </trkpt>
      <trkpt lat="49.11609" lon="-0.04024">
        <ele>9.4</ele>
        <time>2023-11-22T14:07:19Z</time>
      </trkpt>
      <trkpt lat="49.11603" lon="-0.04016">
        <ele>9.4</ele>
        <time>2023-11-22T14:07:20Z</time>
      </trkpt>
      <trkpt lat="49.11598" lon="-0.04008">
        <ele>9.4</ele>
        <time>2023-11-22T14:07:21Z</time>
      </trkpt>
      <trkpt lat="49.11592" lon="-0.04001">
        <ele>9.4</ele>
        <time>2023-11-22T14:07:22Z</time>
      </trkpt>
      <trkpt lat="49.11586" lon="-0.03995">
        <ele>9.5</ele>
        <time>2023-11-22T14:07:23Z</time>
      </trkpt>
      <trkpt lat="49.11579" lon="-0.03988">
        <ele>9.5</ele>
        <time>2023-11-22T14:07:24Z</time>
      </trkpt>
      <trkpt lat="49.11573" lon="-0.0398">
        <ele>9.5</ele>
        <time>2023-11-22T14:07:25Z</time>
      </trkpt>
      <trkpt lat="49.11567" lon="-0.03971">
        <ele>9.6</ele>
        <time>2023-11-22T14:07:26Z</time>
      </trkpt>
      <trkpt lat="49.11562" lon="-0.03961">
        <ele>9.6</ele>
        <time>2023-11-22T14:07:27Z</time>
      </trkpt>
      <trkpt lat="49.11557" lon="-0.03952">
        <ele>9.7</ele>
        <time>2023-11-22T14:07:28Z</time>
      </trkpt>
      <trkpt lat="49.11554" lon="-0.0394">
        <ele>9.7</ele>
        <time>2023-11-22T14:07:29Z</time>
      </trkpt>
      <trkpt lat="49.11552" lon="-0.03928">
        <ele>9.7</ele>
        <time>2023-11-22T14:07:30Z</time>
      </trkpt>
      <trkpt lat="49.11551" lon="-0.03917">
        <ele>9.8</ele>
        <time>2023-11-22T14:07:31Z</time>
      </trkpt>
      <trkpt lat="49.1155" lon="-0.03905">
        <ele>9.8</ele>
        <time>2023-11-22T14:07:32Z</time>
      </trkpt>
      <trkpt lat="49.1155" lon="-0.03893">
        <ele>9.8</ele>
        <time>2023-11-22T14:07:33Z</time>
      </trkpt>
      <trkpt lat="49.11549" lon="-0.03881">
        <ele>9.8</ele>
        <time>2023-11-22T14:07:34Z</time>
      </trkpt>
      <trkpt lat="49.11549" lon="-0.0387">
        <ele>9.8</ele>
        <time>2023-11-22T14:07:35Z</time>
      </trkpt>
      <trkpt lat="49.1155" lon="-0.03859">
        <ele>9.8</ele>
        <time>2023-11-22T14:07:36Z</time>
      </trkpt>
      <trkpt lat="49.1155" lon="-0.03847">
        <ele>9.9</ele>
        <time>2023-11-22T14:07:37Z</time>
      </trkpt>
      <trkpt lat="49.1155" lon="-0.03836">
        <ele>9.9</ele>
        <time>2023-11-22T14:07:38Z</time>
      </trkpt>
      <trkpt lat="49.1155" lon="-0.03825">
        <ele>9.9</ele>
        <time>2023-11-22T14:07:39Z</time>
      </trkpt>
      <trkpt lat="49.1155" lon="-0.03814">
        <ele>9.9</ele>
        <time>2023-11-22T14:07:40Z</time>
      </trkpt>
      <trkpt lat="49.1155" lon="-0.03803">
        <ele>9.9</ele>
        <time>2023-11-22T14:07:41Z</time>
      </trkpt>
      <trkpt lat="49.11549" lon="-0.03792">
        <ele>9.9</ele>
        <time>2023-11-22T14:07:42Z</time>
      </trkpt>
      <trkpt lat="49.11548" lon="-0.03781">
        <ele>9.9</ele>
        <time>2023-11-22T14:07:43Z</time>
      </trkpt>
      <trkpt lat="49.11546" lon="-0.0377">
        <ele>9.9</ele>
        <time>2023-11-22T14:07:44Z</time>
      </trkpt>
      <trkpt lat="49.11543" lon="-0.0376">
        <ele>10</ele>
        <time>2023-11-22T14:07:45Z</time>
      </trkpt>
      <trkpt lat="49.11539" lon="-0.0375">
        <ele>10</ele>
        <time>2023-11-22T14:07:46Z</time>
      </trkpt>
      <trkpt lat="49.11534" lon="-0.0374">
        <ele>10</ele>
        <time>2023-11-22T14:07:47Z</time>
      </trkpt>
      <trkpt lat="49.1153" lon="-0.0373">
        <ele>10.1</ele>
        <time>2023-11-22T14:07:48Z</time>
      </trkpt>
      <trkpt lat="49.11526" lon="-0.0372">
        <ele>10.1</ele>
        <time>2023-11-22T14:07:49Z</time>
      </trkpt>
      <trkpt lat="49.11522" lon="-0.03709">
        <ele>10.1</ele>
        <time>2023-11-22T14:07:50Z</time>
      </trkpt>
      <trkpt lat="49.11518" lon="-0.03699">
        <ele>10.1</ele>
        <time>2023-11-22T14:07:51Z</time>
      </trkpt>
      <trkpt lat="49.11516" lon="-0.03687">
        <ele>10.2</ele>
        <time>2023-11-22T14:07:52Z</time>
      </trkpt>
      <trkpt lat="49.11514" lon="-0.03677">
        <ele>10.2</ele>
        <time>2023-11-22T14:07:53Z</time>
      </trkpt>
      <trkpt lat="49.11512" lon="-0.03666">
        <ele>10.2</ele>
        <time>2023-11-22T14:07:54Z</time>
      </trkpt>
      <trkpt lat="49.1151" lon="-0.03654">
        <ele>10.2</ele>
        <time>2023-11-22T14:07:55Z</time>
      </trkpt>
      <trkpt lat="49.11508" lon="-0.03643">
        <ele>10.2</ele>
        <time>2023-11-22T14:07:56Z</time>
      </trkpt>
      <trkpt lat="49.11505" lon="-0.03632">
        <ele>10.1</ele>
        <time>2023-11-22T14:07:57Z</time>
      </trkpt>
      <trkpt lat="49.11502" lon="-0.0362">
        <ele>10.1</ele>
        <time>2023-11-22T14:07:58Z</time>
      </trkpt>
      <trkpt lat="49.11499" lon="-0.03609">
        <ele>10.1</ele>
        <time>2023-11-22T14:07:59Z</time>
      </trkpt>
      <trkpt lat="49.11496" lon="-0.03599">
        <ele>10.1</ele>
        <time>2023-11-22T14:08:00Z</time>
      </trkpt>
      <trkpt lat="49.11492" lon="-0.03588">
        <ele>10.1</ele>
        <time>2023-11-22T14:08:01Z</time>
      </trkpt>
      <trkpt lat="49.11488" lon="-0.03578">
        <ele>10.1</ele>
        <time>2023-11-22T14:08:02Z</time>
      </trkpt>
      <trkpt lat="49.11483" lon="-0.03568">
        <ele>10.1</ele>
        <time>2023-11-22T14:08:03Z</time>
      </trkpt>
      <trkpt lat="49.11479" lon="-0.03558">
        <ele>10.1</ele>
        <time>2023-11-22T14:08:04Z</time>
      </trkpt>
      <trkpt lat="49.11474" lon="-0.03548">
        <ele>10.1</ele>
        <time>2023-11-22T14:08:05Z</time>
      </trkpt>
      <trkpt lat="49.1147" lon="-0.03538">
        <ele>10</ele>
        <time>2023-11-22T14:08:06Z</time>
      </trkpt>
      <trkpt lat="49.11466" lon="-0.03527">
        <ele>10</ele>
        <time>2023-11-22T14:08:07Z</time>
      </trkpt>
      <trkpt lat="49.11463" lon="-0.03516">
        <ele>10</ele>
        <time>2023-11-22T14:08:08Z</time>
      </trkpt>
      <trkpt lat="49.1146" lon="-0.03504">
        <ele>10</ele>
        <time>2023-11-22T14:08:09Z</time>
      </trkpt>
      <trkpt lat="49.11457" lon="-0.03492">
        <ele>9.9</ele>
        <time>2023-11-22T14:08:10Z</time>
      </trkpt>
      <trkpt lat="49.11455" lon="-0.03479">
        <ele>9.9</ele>
        <time>2023-11-22T14:08:11Z</time>
      </trkpt>
      <trkpt lat="49.11453" lon="-0.03466">
        <ele>9.9</ele>
        <time>2023-11-22T14:08:12Z</time>
      </trkpt>
      <trkpt lat="49.11452" lon="-0.03454">
        <ele>9.9</ele>
        <time>2023-11-22T14:08:13Z</time>
      </trkpt>
      <trkpt lat="49.1145" lon="-0.03442">
        <ele>9.8</ele>
        <time>2023-11-22T14:08:14Z</time>
      </trkpt>
      <trkpt lat="49.11449" lon="-0.03429">
        <ele>9.8</ele>
        <time>2023-11-22T14:08:15Z</time>
      </trkpt>
      <trkpt lat="49.11447" lon="-0.03417">
        <ele>9.8</ele>
        <time>2023-11-22T14:08:16Z</time>
      </trkpt>
      <trkpt lat="49.11446" lon="-0.03405">
        <ele>9.8</ele>
        <time>2023-11-22T14:08:17Z</time>
      </trkpt>
      <trkpt lat="49.11444" lon="-0.03394">
        <ele>9.8</ele>
        <time>2023-11-22T14:08:18Z</time>
      </trkpt>
      <trkpt lat="49.11443" lon="-0.03381">
        <ele>9.8</ele>
        <time>2023-11-22T14:08:19Z</time>
      </trkpt>
      <trkpt lat="49.11441" lon="-0.03369">
        <ele>9.7</ele>
        <time>2023-11-22T14:08:20Z</time>
      </trkpt>
      <trkpt lat="49.1144" lon="-0.03357">
        <ele>9.7</ele>
        <time>2023-11-22T14:08:21Z</time>
      </trkpt>
      <trkpt lat="49.11439" lon="-0.03345">
        <ele>9.7</ele>
        <time>2023-11-22T14:08:22Z</time>
      </trkpt>
      <trkpt lat="49.11437" lon="-0.03332">
        <ele>9.6</ele>
        <time>2023-11-22T14:08:23Z</time>
      </trkpt>
      <trkpt lat="49.11436" lon="-0.03319">
        <ele>9.6</ele>
        <time>2023-11-22T14:08:24Z</time>
      </trkpt>
      <trkpt lat="49.11434" lon="-0.03307">
        <ele>9.6</ele>
        <time>2023-11-22T14:08:25Z</time>
      </trkpt>
      <trkpt lat="49.11433" lon="-0.03294">
        <ele>9.6</ele>
        <time>2023-11-22T14:08:26Z</time>
      </trkpt>
      <trkpt lat="49.11431" lon="-0.03281">
        <ele>9.6</ele>
        <time>2023-11-22T14:08:27Z</time>
      </trkpt>
      <trkpt lat="49.11429" lon="-0.03269">
        <ele>9.6</ele>
        <time>2023-11-22T14:08:28Z</time>
      </trkpt>
      <trkpt lat="49.11427" lon="-0.03256">
        <ele>9.6</ele>
        <time>2023-11-22T14:08:29Z</time>
      </trkpt>
      <trkpt lat="49.11424" lon="-0.03244">
        <ele>9.6</ele>
        <time>2023-11-22T14:08:30Z</time>
      </trkpt>
      <trkpt lat="49.11421" lon="-0.03232">
        <ele>9.6</ele>
        <time>2023-11-22T14:08:31Z</time>
      </trkpt>
      <trkpt lat="49.11417" lon="-0.0322">
        <ele>9.6</ele>
        <time>2023-11-22T14:08:32Z</time>
      </trkpt>
      <trkpt lat="49.11414" lon="-0.03209">
        <ele>9.5</ele>
        <time>2023-11-22T14:08:33Z</time>
      </trkpt>
      <trkpt lat="49.1141" lon="-0.03198">
        <ele>9.5</ele>
        <time>2023-11-22T14:08:34Z</time>
      </trkpt>
      <trkpt lat="49.11407" lon="-0.03187">
        <ele>9.4</ele>
        <time>2023-11-22T14:08:35Z</time>
      </trkpt>
      <trkpt lat="49.11404" lon="-0.03176">
        <ele>9.4</ele>
        <time>2023-11-22T14:08:36Z</time>
      </trkpt>
      <trkpt lat="49.11401" lon="-0.03165">
        <ele>9.3</ele>
        <time>2023-11-22T14:08:37Z</time>
      </trkpt>
      <trkpt lat="49.11398" lon="-0.03154">
        <ele>9.3</ele>
        <time>2023-11-22T14:08:38Z</time>
      </trkpt>
      <trkpt lat="49.11395" lon="-0.03143">
        <ele>9.2</ele>
        <time>2023-11-22T14:08:39Z</time>
      </trkpt>
      <trkpt lat="49.11392" lon="-0.03131">
        <ele>9.2</ele>
        <time>2023-11-22T14:08:40Z</time>
      </trkpt>
      <trkpt lat="49.1139" lon="-0.0312">
        <ele>9.2</ele>
        <time>2023-11-22T14:08:41Z</time>
      </trkpt>
      <trkpt lat="49.11388" lon="-0.03108">
        <ele>9.1</ele>
        <time>2023-11-22T14:08:42Z</time>
      </trkpt>
      <trkpt lat="49.11386" lon="-0.03097">
        <ele>9.1</ele>
        <time>2023-11-22T14:08:43Z</time>
      </trkpt>
      <trkpt lat="49.11385" lon="-0.03085">
        <ele>9.1</ele>
        <time>2023-11-22T14:08:44Z</time>
      </trkpt>
      <trkpt lat="49.11383" lon="-0.03075">
        <ele>9.1</ele>
        <time>2023-11-22T14:08:45Z</time>
      </trkpt>
      <trkpt lat="49.11382" lon="-0.03064">
        <ele>9.1</ele>
        <time>2023-11-22T14:08:46Z</time>
      </trkpt>
      <trkpt lat="49.11381" lon="-0.03054">
        <ele>9.1</ele>
        <time>2023-11-22T14:08:47Z</time>
      </trkpt>
      <trkpt lat="49.1138" lon="-0.03044">
        <ele>9</ele>
        <time>2023-11-22T14:08:48Z</time>
      </trkpt>
      <trkpt lat="49.11379" lon="-0.03034">
        <ele>9</ele>
        <time>2023-11-22T14:08:49Z</time>
      </trkpt>
      <trkpt lat="49.11377" lon="-0.03023">
        <ele>8.9</ele>
        <time>2023-11-22T14:08:50Z</time>
      </trkpt>
      <trkpt lat="49.11376" lon="-0.03012">
        <ele>8.9</ele>
        <time>2023-11-22T14:08:51Z</time>
      </trkpt>
      <trkpt lat="49.11374" lon="-0.03001">
        <ele>8.8</ele>
        <time>2023-11-22T14:08:52Z</time>
      </trkpt>
      <trkpt lat="49.11371" lon="-0.02991">
        <ele>8.8</ele>
        <time>2023-11-22T14:08:53Z</time>
      </trkpt>
      <trkpt lat="49.11369" lon="-0.02981">
        <ele>8.8</ele>
        <time>2023-11-22T14:08:54Z</time>
      </trkpt>
      <trkpt lat="49.11366" lon="-0.02971">
        <ele>8.8</ele>
        <time>2023-11-22T14:08:55Z</time>
      </trkpt>
      <trkpt lat="49.11363" lon="-0.02962">
        <ele>8.8</ele>
        <time>2023-11-22T14:08:56Z</time>
      </trkpt>
      <trkpt lat="49.11359" lon="-0.02953">
        <ele>8.8</ele>
        <time>2023-11-22T14:08:57Z</time>
      </trkpt>
      <trkpt lat="49.11356" lon="-0.02944">
        <ele>8.9</ele>
        <time>2023-11-22T14:08:58Z</time>
      </trkpt>
      <trkpt lat="49.11352" lon="-0.02935">
        <ele>8.9</ele>
        <time>2023-11-22T14:08:59Z</time>
      </trkpt>
      <trkpt lat="49.11348" lon="-0.02926">
        <ele>8.9</ele>
        <time>2023-11-22T14:09:00Z</time>
      </trkpt>
      <trkpt lat="49.11344" lon="-0.02916">
        <ele>8.9</ele>
        <time>2023-11-22T14:09:01Z</time>
      </trkpt>
      <trkpt lat="49.1134" lon="-0.02907">
        <ele>8.9</ele>
        <time>2023-11-22T14:09:02Z</time>
      </trkpt>
      <trkpt lat="49.11335" lon="-0.02897">
        <ele>8.9</ele>
        <time>2023-11-22T14:09:03Z</time>
      </trkpt>
      <trkpt lat="49.11331" lon="-0.02887">
        <ele>8.9</ele>
        <time>2023-11-22T14:09:04Z</time>
      </trkpt>
      <trkpt lat="49.11326" lon="-0.02876">
        <ele>8.9</ele>
        <time>2023-11-22T14:09:05Z</time>
      </trkpt>
      <trkpt lat="49.11321" lon="-0.02865">
        <ele>8.8</ele>
        <time>2023-11-22T14:09:06Z</time>
      </trkpt>
      <trkpt lat="49.11316" lon="-0.02855">
        <ele>8.7</ele>
        <time>2023-11-22T14:09:07Z</time>
      </trkpt>
      <trkpt lat="49.1131" lon="-0.02844">
        <ele>8.6</ele>
        <time>2023-11-22T14:09:08Z</time>
      </trkpt>
      <trkpt lat="49.11305" lon="-0.02833">
        <ele>8.6</ele>
        <time>2023-11-22T14:09:09Z</time>
      </trkpt>
      <trkpt lat="49.113" lon="-0.02822">
        <ele>8.5</ele>
        <time>2023-11-22T14:09:10Z</time>
      </trkpt>
      <trkpt lat="49.11295" lon="-0.02811">
        <ele>8.5</ele>
        <time>2023-11-22T14:09:11Z</time>
      </trkpt>
      <trkpt lat="49.1129" lon="-0.028">
        <ele>8.4</ele>
        <time>2023-11-22T14:09:12Z</time>
      </trkpt>
      <trkpt lat="49.11285" lon="-0.02789">
        <ele>8.4</ele>
        <time>2023-11-22T14:09:13Z</time>
      </trkpt>
      <trkpt lat="49.1128" lon="-0.02777">
        <ele>8.4</ele>
        <time>2023-11-22T14:09:14Z</time>
      </trkpt>
      <trkpt lat="49.11274" lon="-0.02766">
        <ele>8.4</ele>
        <time>2023-11-22T14:09:15Z</time>
      </trkpt>
      <trkpt lat="49.11269" lon="-0.02755">
        <ele>8.4</ele>
        <time>2023-11-22T14:09:16Z</time>
      </trkpt>
      <trkpt lat="49.11264" lon="-0.02743">
        <ele>8.3</ele>
        <time>2023-11-22T14:09:17Z</time>
      </trkpt>
      <trkpt lat="49.11258" lon="-0.02732">
        <ele>8.3</ele>
        <time>2023-11-22T14:09:18Z</time>
      </trkpt>
      <trkpt lat="49.11253" lon="-0.02721">
        <ele>8.3</ele>
        <time>2023-11-22T14:09:19Z</time>
      </trkpt>
      <trkpt lat="49.11248" lon="-0.02709">
        <ele>8.3</ele>
        <time>2023-11-22T14:09:20Z</time>
      </trkpt>
      <trkpt lat="49.11243" lon="-0.02697">
        <ele>8.3</ele>
        <time>2023-11-22T14:09:21Z</time>
      </trkpt>
      <trkpt lat="49.11238" lon="-0.02686">
        <ele>8.4</ele>
        <time>2023-11-22T14:09:22Z</time>
      </trkpt>
      <trkpt lat="49.11232" lon="-0.02674">
        <ele>8.4</ele>
        <time>2023-11-22T14:09:23Z</time>
      </trkpt>
      <trkpt lat="49.11227" lon="-0.02663">
        <ele>8.6</ele>
        <time>2023-11-22T14:09:24Z</time>
      </trkpt>
      <trkpt lat="49.11222" lon="-0.02652">
        <ele>8.7</ele>
        <time>2023-11-22T14:09:25Z</time>
      </trkpt>
      <trkpt lat="49.11217" lon="-0.02642">
        <ele>8.8</ele>
        <time>2023-11-22T14:09:26Z</time>
      </trkpt>
      <trkpt lat="49.11212" lon="-0.02632">
        <ele>8.9</ele>
        <time>2023-11-22T14:09:27Z</time>
      </trkpt>
      <trkpt lat="49.11207" lon="-0.02622">
        <ele>9</ele>
        <time>2023-11-22T14:09:28Z</time>
      </trkpt>
      <trkpt lat="49.11203" lon="-0.02612">
        <ele>9.1</ele>
        <time>2023-11-22T14:09:29Z</time>
      </trkpt>
      <trkpt lat="49.11199" lon="-0.02602">
        <ele>9.1</ele>
        <time>2023-11-22T14:09:30Z</time>
      </trkpt>
      <trkpt lat="49.11194" lon="-0.02593">
        <ele>9.1</ele>
        <time>2023-11-22T14:09:31Z</time>
      </trkpt>
      <trkpt lat="49.1119" lon="-0.02584">
        <ele>9.1</ele>
        <time>2023-11-22T14:09:32Z</time>
      </trkpt>
      <trkpt lat="49.11185" lon="-0.02574">
        <ele>9</ele>
        <time>2023-11-22T14:09:33Z</time>
      </trkpt>
      <trkpt lat="49.1118" lon="-0.02564">
        <ele>8.9</ele>
        <time>2023-11-22T14:09:34Z</time>
      </trkpt>
      <trkpt lat="49.11175" lon="-0.02553">
        <ele>8.8</ele>
        <time>2023-11-22T14:09:35Z</time>
      </trkpt>
      <trkpt lat="49.1117" lon="-0.02543">
        <ele>8.7</ele>
        <time>2023-11-22T14:09:36Z</time>
      </trkpt>
      <trkpt lat="49.11165" lon="-0.02532">
        <ele>8.7</ele>
        <time>2023-11-22T14:09:37Z</time>
      </trkpt>
      <trkpt lat="49.1116" lon="-0.02522">
        <ele>8.7</ele>
        <time>2023-11-22T14:09:38Z</time>
      </trkpt>
      <trkpt lat="49.11155" lon="-0.02511">
        <ele>8.7</ele>
        <time>2023-11-22T14:09:39Z</time>
      </trkpt>
      <trkpt lat="49.1115" lon="-0.025">
        <ele>8.7</ele>
        <time>2023-11-22T14:09:40Z</time>
      </trkpt>
      <trkpt lat="49.11146" lon="-0.0249">
        <ele>8.6</ele>
        <time>2023-11-22T14:09:41Z</time>
      </trkpt>
      <trkpt lat="49.11141" lon="-0.02479">
        <ele>8.6</ele>
        <time>2023-11-22T14:09:42Z</time>
      </trkpt>
      <trkpt lat="49.11136" lon="-0.02468">
        <ele>8.6</ele>
        <time>2023-11-22T14:09:43Z</time>
      </trkpt>
      <trkpt lat="49.11131" lon="-0.02457">
        <ele>8.6</ele>
        <time>2023-11-22T14:09:44Z</time>
      </trkpt>
      <trkpt lat="49.11126" lon="-0.02446">
        <ele>8.6</ele>
        <time>2023-11-22T14:09:45Z</time>
      </trkpt>
      <trkpt lat="49.11121" lon="-0.02435">
        <ele>8.7</ele>
        <time>2023-11-22T14:09:46Z</time>
      </trkpt>
      <trkpt lat="49.11116" lon="-0.02425">
        <ele>8.7</ele>
        <time>2023-11-22T14:09:47Z</time>
      </trkpt>
      <trkpt lat="49.11111" lon="-0.02414">
        <ele>8.7</ele>
        <time>2023-11-22T14:09:48Z</time>
      </trkpt>
      <trkpt lat="49.11106" lon="-0.02403">
        <ele>8.7</ele>
        <time>2023-11-22T14:09:49Z</time>
      </trkpt>
      <trkpt lat="49.11101" lon="-0.02393">
        <ele>8.7</ele>
        <time>2023-11-22T14:09:50Z</time>
      </trkpt>
      <trkpt lat="49.11097" lon="-0.02382">
        <ele>8.7</ele>
        <time>2023-11-22T14:09:51Z</time>
      </trkpt>
      <trkpt lat="49.11092" lon="-0.02372">
        <ele>8.8</ele>
        <time>2023-11-22T14:09:52Z</time>
      </trkpt>
      <trkpt lat="49.11087" lon="-0.02362">
        <ele>8.8</ele>
        <time>2023-11-22T14:09:53Z</time>
      </trkpt>
      <trkpt lat="49.11082" lon="-0.02351">
        <ele>8.8</ele>
        <time>2023-11-22T14:09:54Z</time>
      </trkpt>
      <trkpt lat="49.11077" lon="-0.02341">
        <ele>8.8</ele>
        <time>2023-11-22T14:09:55Z</time>
      </trkpt>
      <trkpt lat="49.11073" lon="-0.0233">
        <ele>8.8</ele>
        <time>2023-11-22T14:09:56Z</time>
      </trkpt>
      <trkpt lat="49.11068" lon="-0.0232">
        <ele>8.8</ele>
        <time>2023-11-22T14:09:57Z</time>
      </trkpt>
      <trkpt lat="49.11063" lon="-0.02309">
        <ele>8.8</ele>
        <time>2023-11-22T14:09:58Z</time>
      </trkpt>
      <trkpt lat="49.11058" lon="-0.02299">
        <ele>8.8</ele>
        <time>2023-11-22T14:09:59Z</time>
      </trkpt>
      <trkpt lat="49.11053" lon="-0.02288">
        <ele>8.8</ele>
        <time>2023-11-22T14:10:00Z</time>
      </trkpt>
      <trkpt lat="49.11048" lon="-0.02278">
        <ele>8.8</ele>
        <time>2023-11-22T14:10:01Z</time>
      </trkpt>
      <trkpt lat="49.11043" lon="-0.02268">
        <ele>8.8</ele>
        <time>2023-11-22T14:10:02Z</time>
      </trkpt>
      <trkpt lat="49.11039" lon="-0.02257">
        <ele>8.9</ele>
        <time>2023-11-22T14:10:03Z</time>
      </trkpt>
      <trkpt lat="49.11034" lon="-0.02247">
        <ele>8.9</ele>
        <time>2023-11-22T14:10:04Z</time>
      </trkpt>
      <trkpt lat="49.11029" lon="-0.02236">
        <ele>9</ele>
        <time>2023-11-22T14:10:05Z</time>
      </trkpt>
      <trkpt lat="49.11024" lon="-0.02226">
        <ele>9</ele>
        <time>2023-11-22T14:10:06Z</time>
      </trkpt>
      <trkpt lat="49.11019" lon="-0.02215">
        <ele>9.1</ele>
        <time>2023-11-22T14:10:07Z</time>
      </trkpt>
      <trkpt lat="49.11014" lon="-0.02205">
        <ele>9.1</ele>
        <time>2023-11-22T14:10:08Z</time>
      </trkpt>
      <trkpt lat="49.1101" lon="-0.02195">
        <ele>9.2</ele>
        <time>2023-11-22T14:10:09Z</time>
      </trkpt>
      <trkpt lat="49.11006" lon="-0.02186">
        <ele>9.2</ele>
        <time>2023-11-22T14:10:10Z</time>
      </trkpt>
      <trkpt lat="49.11002" lon="-0.02176">
        <ele>9.2</ele>
        <time>2023-11-22T14:10:11Z</time>
      </trkpt>
      <trkpt lat="49.10998" lon="-0.02167">
        <ele>9.3</ele>
        <time>2023-11-22T14:10:12Z</time>
      </trkpt>
      <trkpt lat="49.10994" lon="-0.02156">
        <ele>9.3</ele>
        <time>2023-11-22T14:10:13Z</time>
      </trkpt>
      <trkpt lat="49.10991" lon="-0.02146">
        <ele>9.3</ele>
        <time>2023-11-22T14:10:14Z</time>
      </trkpt>
      <trkpt lat="49.10988" lon="-0.02135">
        <ele>9.3</ele>
        <time>2023-11-22T14:10:15Z</time>
      </trkpt>
      <trkpt lat="49.10986" lon="-0.02124">
        <ele>9.3</ele>
        <time>2023-11-22T14:10:16Z</time>
      </trkpt>
      <trkpt lat="49.10984" lon="-0.02112">
        <ele>9.3</ele>
        <time>2023-11-22T14:10:17Z</time>
      </trkpt>
      <trkpt lat="49.10981" lon="-0.021">
        <ele>9.3</ele>
        <time>2023-11-22T14:10:18Z</time>
      </trkpt>
      <trkpt lat="49.10979" lon="-0.02088">
        <ele>9.3</ele>
        <time>2023-11-22T14:10:19Z</time>
      </trkpt>
      <trkpt lat="49.10978" lon="-0.02076">
        <ele>9.3</ele>
        <time>2023-11-22T14:10:20Z</time>
      </trkpt>
      <trkpt lat="49.10976" lon="-0.02065">
        <ele>9.3</ele>
        <time>2023-11-22T14:10:21Z</time>
      </trkpt>
      <trkpt lat="49.10975" lon="-0.02054">
        <ele>9.3</ele>
        <time>2023-11-22T14:10:22Z</time>
      </trkpt>
      <trkpt lat="49.10975" lon="-0.02042">
        <ele>9.3</ele>
        <time>2023-11-22T14:10:23Z</time>
      </trkpt>
      <trkpt lat="49.10974" lon="-0.02031">
        <ele>9.3</ele>
        <time>2023-11-22T14:10:24Z</time>
      </trkpt>
      <trkpt lat="49.10974" lon="-0.0202">
        <ele>9.3</ele>
        <time>2023-11-22T14:10:25Z</time>
      </trkpt>
      <trkpt lat="49.10973" lon="-0.02009">
        <ele>9.3</ele>
        <time>2023-11-22T14:10:26Z</time>
      </trkpt>
      <trkpt lat="49.10972" lon="-0.01998">
        <ele>9.4</ele>
        <time>2023-11-22T14:10:27Z</time>
      </trkpt>
      <trkpt lat="49.10972" lon="-0.01989">
        <ele>9.4</ele>
        <time>2023-11-22T14:10:28Z</time>
      </trkpt>
      <trkpt lat="49.10971" lon="-0.0198">
        <ele>9.5</ele>
        <time>2023-11-22T14:10:29Z</time>
      </trkpt>
      <trkpt lat="49.1097" lon="-0.01971">
        <ele>9.5</ele>
        <time>2023-11-22T14:10:30Z</time>
      </trkpt>
      <trkpt lat="49.10969" lon="-0.01961">
        <ele>9.6</ele>
        <time>2023-11-22T14:10:31Z</time>
      </trkpt>
      <trkpt lat="49.10968" lon="-0.01952">
        <ele>9.6</ele>
        <time>2023-11-22T14:10:32Z</time>
      </trkpt>
      <trkpt lat="49.10968" lon="-0.01941">
        <ele>9.6</ele>
        <time>2023-11-22T14:10:33Z</time>
      </trkpt>
      <trkpt lat="49.10967" lon="-0.0193">
        <ele>9.6</ele>
        <time>2023-11-22T14:10:34Z</time>
      </trkpt>
      <trkpt lat="49.10966" lon="-0.01919">
        <ele>9.7</ele>
        <time>2023-11-22T14:10:35Z</time>
      </trkpt>
      <trkpt lat="49.10966" lon="-0.01908">
        <ele>9.7</ele>
        <time>2023-11-22T14:10:36Z</time>
      </trkpt>
      <trkpt lat="49.10965" lon="-0.01897">
        <ele>9.7</ele>
        <time>2023-11-22T14:10:37Z</time>
      </trkpt>
      <trkpt lat="49.10966" lon="-0.01886">
        <ele>9.7</ele>
        <time>2023-11-22T14:10:38Z</time>
      </trkpt>
      <trkpt lat="49.10966" lon="-0.01875">
        <ele>9.7</ele>
        <time>2023-11-22T14:10:39Z</time>
      </trkpt>
      <trkpt lat="49.10967" lon="-0.01863">
        <ele>9.7</ele>
        <time>2023-11-22T14:10:40Z</time>
      </trkpt>
      <trkpt lat="49.10967" lon="-0.01851">
        <ele>9.7</ele>
        <time>2023-11-22T14:10:41Z</time>
      </trkpt>
      <trkpt lat="49.10968" lon="-0.0184">
        <ele>9.7</ele>
        <time>2023-11-22T14:10:42Z</time>
      </trkpt>
      <trkpt lat="49.10968" lon="-0.01828">
        <ele>9.8</ele>
        <time>2023-11-22T14:10:43Z</time>
      </trkpt>
      <trkpt lat="49.10969" lon="-0.01817">
        <ele>9.8</ele>
        <time>2023-11-22T14:10:44Z</time>
      </trkpt>
      <trkpt lat="49.1097" lon="-0.01805">
        <ele>9.8</ele>
        <time>2023-11-22T14:10:45Z</time>
      </trkpt>
      <trkpt lat="49.1097" lon="-0.01793">
        <ele>9.8</ele>
        <time>2023-11-22T14:10:46Z</time>
      </trkpt>
      <trkpt lat="49.10971" lon="-0.01781">
        <ele>9.8</ele>
        <time>2023-11-22T14:10:47Z</time>
      </trkpt>
      <trkpt lat="49.10971" lon="-0.01768">
        <ele>9.9</ele>
        <time>2023-11-22T14:10:48Z</time>
      </trkpt>
      <trkpt lat="49.10972" lon="-0.01755">
        <ele>9.9</ele>
        <time>2023-11-22T14:10:49Z</time>
      </trkpt>
      <trkpt lat="49.10972" lon="-0.01743">
        <ele>9.9</ele>
        <time>2023-11-22T14:10:50Z</time>
      </trkpt>
      <trkpt lat="49.10973" lon="-0.01729">
        <ele>9.9</ele>
        <time>2023-11-22T14:10:51Z</time>
      </trkpt>
      <trkpt lat="49.10973" lon="-0.01715">
        <ele>9.9</ele>
        <time>2023-11-22T14:10:52Z</time>
      </trkpt>
      <trkpt lat="49.10974" lon="-0.01702">
        <ele>9.9</ele>
        <time>2023-11-22T14:10:53Z</time>
      </trkpt>
      <trkpt lat="49.10974" lon="-0.01688">
        <ele>9.9</ele>
        <time>2023-11-22T14:10:54Z</time>
      </trkpt>
      <trkpt lat="49.10975" lon="-0.01674">
        <ele>9.9</ele>
        <time>2023-11-22T14:10:55Z</time>
      </trkpt>
      <trkpt lat="49.10976" lon="-0.01661">
        <ele>9.9</ele>
        <time>2023-11-22T14:10:56Z</time>
      </trkpt>
      <trkpt lat="49.10976" lon="-0.01648">
        <ele>9.9</ele>
        <time>2023-11-22T14:10:57Z</time>
      </trkpt>
      <trkpt lat="49.10977" lon="-0.01635">
        <ele>9.9</ele>
        <time>2023-11-22T14:10:58Z</time>
      </trkpt>
      <trkpt lat="49.10977" lon="-0.01622">
        <ele>10</ele>
        <time>2023-11-22T14:10:59Z</time>
      </trkpt>
      <trkpt lat="49.10978" lon="-0.01609">
        <ele>10</ele>
        <time>2023-11-22T14:11:00Z</time>
      </trkpt>
      <trkpt lat="49.10978" lon="-0.01595">
        <ele>10</ele>
        <time>2023-11-22T14:11:01Z</time>
      </trkpt>
      <trkpt lat="49.10979" lon="-0.01581">
        <ele>10</ele>
        <time>2023-11-22T14:11:02Z</time>
      </trkpt>
      <trkpt lat="49.10979" lon="-0.01567">
        <ele>10</ele>
        <time>2023-11-22T14:11:03Z</time>
      </trkpt>
      <trkpt lat="49.1098" lon="-0.01554">
        <ele>10.1</ele>
        <time>2023-11-22T14:11:04Z</time>
      </trkpt>
      <trkpt lat="49.1098" lon="-0.01541">
        <ele>10.1</ele>
        <time>2023-11-22T14:11:05Z</time>
      </trkpt>
      <trkpt lat="49.10981" lon="-0.01527">
        <ele>10.1</ele>
        <time>2023-11-22T14:11:06Z</time>
      </trkpt>
      <trkpt lat="49.10981" lon="-0.01514">
        <ele>10.1</ele>
        <time>2023-11-22T14:11:07Z</time>
      </trkpt>
      <trkpt lat="49.10982" lon="-0.01501">
        <ele>10.1</ele>
        <time>2023-11-22T14:11:08Z</time>
      </trkpt>
      <trkpt lat="49.10982" lon="-0.01488">
        <ele>10.1</ele>
        <time>2023-11-22T14:11:09Z</time>
      </trkpt>
      <trkpt lat="49.10983" lon="-0.01475">
        <ele>10.1</ele>
        <time>2023-11-22T14:11:10Z</time>
      </trkpt>
      <trkpt lat="49.10983" lon="-0.01462">
        <ele>10.2</ele>
        <time>2023-11-22T14:11:11Z</time>
      </trkpt>
      <trkpt lat="49.10983" lon="-0.01449">
        <ele>10.2</ele>
        <time>2023-11-22T14:11:12Z</time>
      </trkpt>
      <trkpt lat="49.10983" lon="-0.01437">
        <ele>10.2</ele>
        <time>2023-11-22T14:11:13Z</time>
      </trkpt>
      <trkpt lat="49.10984" lon="-0.01426">
        <ele>10.2</ele>
        <time>2023-11-22T14:11:14Z</time>
      </trkpt>
      <trkpt lat="49.10984" lon="-0.01415">
        <ele>10.2</ele>
        <time>2023-11-22T14:11:15Z</time>
      </trkpt>
      <trkpt lat="49.10985" lon="-0.01402">
        <ele>10.3</ele>
        <time>2023-11-22T14:11:16Z</time>
      </trkpt>
      <trkpt lat="49.10985" lon="-0.0139">
        <ele>10.3</ele>
        <time>2023-11-22T14:11:17Z</time>
      </trkpt>
      <trkpt lat="49.10986" lon="-0.01378">
        <ele>10.3</ele>
        <time>2023-11-22T14:11:18Z</time>
      </trkpt>
      <trkpt lat="49.10986" lon="-0.01365">
        <ele>10.3</ele>
        <time>2023-11-22T14:11:19Z</time>
      </trkpt>
      <trkpt lat="49.10986" lon="-0.01353">
        <ele>10.3</ele>
        <time>2023-11-22T14:11:20Z</time>
      </trkpt>
      <trkpt lat="49.10987" lon="-0.01341">
        <ele>10.3</ele>
        <time>2023-11-22T14:11:21Z</time>
      </trkpt>
      <trkpt lat="49.10987" lon="-0.01328">
        <ele>10.3</ele>
        <time>2023-11-22T14:11:22Z</time>
      </trkpt>
      <trkpt lat="49.10988" lon="-0.01315">
        <ele>10.4</ele>
        <time>2023-11-22T14:11:23Z</time>
      </trkpt>
      <trkpt lat="49.10989" lon="-0.01303">
        <ele>10.4</ele>
        <time>2023-11-22T14:11:24Z</time>
      </trkpt>
      <trkpt lat="49.10989" lon="-0.01289">
        <ele>10.4</ele>
        <time>2023-11-22T14:11:25Z</time>
      </trkpt>
      <trkpt lat="49.1099" lon="-0.01276">
        <ele>10.4</ele>
        <time>2023-11-22T14:11:26Z</time>
      </trkpt>
      <trkpt lat="49.1099" lon="-0.01263">
        <ele>10.4</ele>
        <time>2023-11-22T14:11:27Z</time>
      </trkpt>
      <trkpt lat="49.10991" lon="-0.01249">
        <ele>10.4</ele>
        <time>2023-11-22T14:11:28Z</time>
      </trkpt>
      <trkpt lat="49.10991" lon="-0.01234">
        <ele>10.4</ele>
        <time>2023-11-22T14:11:29Z</time>
      </trkpt>
      <trkpt lat="49.10992" lon="-0.01221">
        <ele>10.4</ele>
        <time>2023-11-22T14:11:30Z</time>
      </trkpt>
      <trkpt lat="49.10993" lon="-0.01207">
        <ele>10.4</ele>
        <time>2023-11-22T14:11:31Z</time>
      </trkpt>
      <trkpt lat="49.10993" lon="-0.01194">
        <ele>10.4</ele>
        <time>2023-11-22T14:11:32Z</time>
      </trkpt>
      <trkpt lat="49.10994" lon="-0.01181">
        <ele>10.5</ele>
        <time>2023-11-22T14:11:33Z</time>
      </trkpt>
      <trkpt lat="49.10994" lon="-0.01168">
        <ele>10.5</ele>
        <time>2023-11-22T14:11:34Z</time>
      </trkpt>
      <trkpt lat="49.10995" lon="-0.01155">
        <ele>10.5</ele>
        <time>2023-11-22T14:11:35Z</time>
      </trkpt>
      <trkpt lat="49.10995" lon="-0.01143">
        <ele>10.5</ele>
        <time>2023-11-22T14:11:36Z</time>
      </trkpt>
      <trkpt lat="49.10996" lon="-0.0113">
        <ele>10.5</ele>
        <time>2023-11-22T14:11:37Z</time>
      </trkpt>
      <trkpt lat="49.10996" lon="-0.01116">
        <ele>10.5</ele>
        <time>2023-11-22T14:11:38Z</time>
      </trkpt>
      <trkpt lat="49.10997" lon="-0.01103">
        <ele>10.6</ele>
        <time>2023-11-22T14:11:39Z</time>
      </trkpt>
      <trkpt lat="49.10997" lon="-0.0109">
        <ele>10.6</ele>
        <time>2023-11-22T14:11:40Z</time>
      </trkpt>
      <trkpt lat="49.10998" lon="-0.01077">
        <ele>10.6</ele>
        <time>2023-11-22T14:11:41Z</time>
      </trkpt>
      <trkpt lat="49.10999" lon="-0.01064">
        <ele>10.6</ele>
        <time>2023-11-22T14:11:42Z</time>
      </trkpt>
      <trkpt lat="49.11" lon="-0.01051">
        <ele>10.7</ele>
        <time>2023-11-22T14:11:43Z</time>
      </trkpt>
      <trkpt lat="49.11" lon="-0.01038">
        <ele>10.7</ele>
        <time>2023-11-22T14:11:44Z</time>
      </trkpt>
      <trkpt lat="49.11001" lon="-0.01025">
        <ele>10.7</ele>
        <time>2023-11-22T14:11:45Z</time>
      </trkpt>
      <trkpt lat="49.11002" lon="-0.01012">
        <ele>10.7</ele>
        <time>2023-11-22T14:11:46Z</time>
      </trkpt>
      <trkpt lat="49.11004" lon="-0.00999">
        <ele>10.8</ele>
        <time>2023-11-22T14:11:47Z</time>
      </trkpt>
      <trkpt lat="49.11005" lon="-0.00986">
        <ele>10.8</ele>
        <time>2023-11-22T14:11:48Z</time>
      </trkpt>
      <trkpt lat="49.11007" lon="-0.00973">
        <ele>10.8</ele>
        <time>2023-11-22T14:11:49Z</time>
      </trkpt>
      <trkpt lat="49.11009" lon="-0.0096">
        <ele>10.8</ele>
        <time>2023-11-22T14:11:50Z</time>
      </trkpt>
      <trkpt lat="49.11011" lon="-0.00948">
        <ele>10.8</ele>
        <time>2023-11-22T14:11:51Z</time>
      </trkpt>
      <trkpt lat="49.11012" lon="-0.00936">
        <ele>10.9</ele>
        <time>2023-11-22T14:11:52Z</time>
      </trkpt>
      <trkpt lat="49.11014" lon="-0.00925">
        <ele>10.9</ele>
        <time>2023-11-22T14:11:53Z</time>
      </trkpt>
      <trkpt lat="49.11016" lon="-0.00914">
        <ele>10.9</ele>
        <time>2023-11-22T14:11:54Z</time>
      </trkpt>
      <trkpt lat="49.11019" lon="-0.00902">
        <ele>10.9</ele>
        <time>2023-11-22T14:11:55Z</time>
      </trkpt>
      <trkpt lat="49.11021" lon="-0.0089">
        <ele>10.9</ele>
        <time>2023-11-22T14:11:56Z</time>
      </trkpt>
      <trkpt lat="49.11024" lon="-0.00878">
        <ele>10.9</ele>
        <time>2023-11-22T14:11:57Z</time>
      </trkpt>
      <trkpt lat="49.11027" lon="-0.00866">
        <ele>10.9</ele>
        <time>2023-11-22T14:11:58Z</time>
      </trkpt>
      <trkpt lat="49.1103" lon="-0.00853">
        <ele>10.9</ele>
        <time>2023-11-22T14:11:59Z</time>
      </trkpt>
      <trkpt lat="49.11032" lon="-0.00841">
        <ele>10.9</ele>
        <time>2023-11-22T14:12:00Z</time>
      </trkpt>
      <trkpt lat="49.11034" lon="-0.00828">
        <ele>10.9</ele>
        <time>2023-11-22T14:12:01Z</time>
      </trkpt>
      <trkpt lat="49.11036" lon="-0.00816">
        <ele>11</ele>
        <time>2023-11-22T14:12:02Z</time>
      </trkpt>
      <trkpt lat="49.11038" lon="-0.00804">
        <ele>11</ele>
        <time>2023-11-22T14:12:03Z</time>
      </trkpt>
      <trkpt lat="49.1104" lon="-0.00791">
        <ele>11</ele>
        <time>2023-11-22T14:12:04Z</time>
      </trkpt>
      <trkpt lat="49.11042" lon="-0.00778">
        <ele>11</ele>
        <time>2023-11-22T14:12:05Z</time>
      </trkpt>
      <trkpt lat="49.11043" lon="-0.00766">
        <ele>11</ele>
        <time>2023-11-22T14:12:06Z</time>
      </trkpt>
      <trkpt lat="49.11045" lon="-0.00753">
        <ele>11</ele>
        <time>2023-11-22T14:12:07Z</time>
      </trkpt>
      <trkpt lat="49.11047" lon="-0.00741">
        <ele>11</ele>
        <time>2023-11-22T14:12:08Z</time>
      </trkpt>
      <trkpt lat="49.11048" lon="-0.00729">
        <ele>11</ele>
        <time>2023-11-22T14:12:09Z</time>
      </trkpt>
      <trkpt lat="49.11049" lon="-0.00717">
        <ele>11</ele>
        <time>2023-11-22T14:12:10Z</time>
      </trkpt>
      <trkpt lat="49.11051" lon="-0.00704">
        <ele>11</ele>
        <time>2023-11-22T14:12:11Z</time>
      </trkpt>
      <trkpt lat="49.11052" lon="-0.00692">
        <ele>11</ele>
        <time>2023-11-22T14:12:12Z</time>
      </trkpt>
      <trkpt lat="49.11054" lon="-0.00679">
        <ele>11</ele>
        <time>2023-11-22T14:12:13Z</time>
      </trkpt>
      <trkpt lat="49.11056" lon="-0.00667">
        <ele>11</ele>
        <time>2023-11-22T14:12:14Z</time>
      </trkpt>
      <trkpt lat="49.11057" lon="-0.00655">
        <ele>11</ele>
        <time>2023-11-22T14:12:15Z</time>
      </trkpt>
      <trkpt lat="49.11059" lon="-0.00642">
        <ele>11</ele>
        <time>2023-11-22T14:12:16Z</time>
      </trkpt>
      <trkpt lat="49.1106" lon="-0.0063">
        <ele>11</ele>
        <time>2023-11-22T14:12:17Z</time>
      </trkpt>
      <trkpt lat="49.11062" lon="-0.00617">
        <ele>11</ele>
        <time>2023-11-22T14:12:18Z</time>
      </trkpt>
      <trkpt lat="49.11063" lon="-0.00605">
        <ele>11</ele>
        <time>2023-11-22T14:12:19Z</time>
      </trkpt>
      <trkpt lat="49.11064" lon="-0.00593">
        <ele>11</ele>
        <time>2023-11-22T14:12:20Z</time>
      </trkpt>
      <trkpt lat="49.11066" lon="-0.0058">
        <ele>11</ele>
        <time>2023-11-22T14:12:21Z</time>
      </trkpt>
      <trkpt lat="49.11067" lon="-0.00568">
        <ele>11</ele>
        <time>2023-11-22T14:12:22Z</time>
      </trkpt>
      <trkpt lat="49.11068" lon="-0.00556">
        <ele>11</ele>
        <time>2023-11-22T14:12:23Z</time>
      </trkpt>
      <trkpt lat="49.1107" lon="-0.00543">
        <ele>11</ele>
        <time>2023-11-22T14:12:24Z</time>
      </trkpt>
      <trkpt lat="49.11071" lon="-0.00531">
        <ele>11</ele>
        <time>2023-11-22T14:12:25Z</time>
      </trkpt>
      <trkpt lat="49.11073" lon="-0.00518">
        <ele>11.1</ele>
        <time>2023-11-22T14:12:26Z</time>
      </trkpt>
      <trkpt lat="49.11075" lon="-0.00506">
        <ele>11.2</ele>
        <time>2023-11-22T14:12:27Z</time>
      </trkpt>
      <trkpt lat="49.11076" lon="-0.00494">
        <ele>11.3</ele>
        <time>2023-11-22T14:12:28Z</time>
      </trkpt>
      <trkpt lat="49.11077" lon="-0.00483">
        <ele>11.4</ele>
        <time>2023-11-22T14:12:29Z</time>
      </trkpt>
      <trkpt lat="49.11078" lon="-0.00471">
        <ele>11.6</ele>
        <time>2023-11-22T14:12:30Z</time>
      </trkpt>
      <trkpt lat="49.11079" lon="-0.00459">
        <ele>11.7</ele>
        <time>2023-11-22T14:12:31Z</time>
      </trkpt>
      <trkpt lat="49.1108" lon="-0.00448">
        <ele>11.9</ele>
        <time>2023-11-22T14:12:32Z</time>
      </trkpt>
      <trkpt lat="49.1108" lon="-0.00437">
        <ele>12</ele>
        <time>2023-11-22T14:12:33Z</time>
      </trkpt>
      <trkpt lat="49.1108" lon="-0.00426">
        <ele>12.2</ele>
        <time>2023-11-22T14:12:34Z</time>
      </trkpt>
      <trkpt lat="49.11081" lon="-0.00415">
        <ele>12.4</ele>
        <time>2023-11-22T14:12:35Z</time>
      </trkpt>
      <trkpt lat="49.11081" lon="-0.00403">
        <ele>12.6</ele>
        <time>2023-11-22T14:12:36Z</time>
      </trkpt>
      <trkpt lat="49.11082" lon="-0.00392">
        <ele>12.7</ele>
        <time>2023-11-22T14:12:37Z</time>
      </trkpt>
      <trkpt lat="49.11082" lon="-0.0038">
        <ele>12.8</ele>
        <time>2023-11-22T14:12:38Z</time>
      </trkpt>
      <trkpt lat="49.11082" lon="-0.00368">
        <ele>12.9</ele>
        <time>2023-11-22T14:12:39Z</time>
      </trkpt>
      <trkpt lat="49.11083" lon="-0.00356">
        <ele>12.9</ele>
        <time>2023-11-22T14:12:40Z</time>
      </trkpt>
      <trkpt lat="49.11083" lon="-0.00344">
        <ele>13</ele>
        <time>2023-11-22T14:12:41Z</time>
      </trkpt>
      <trkpt lat="49.11083" lon="-0.00331">
        <ele>13</ele>
        <time>2023-11-22T14:12:42Z</time>
      </trkpt>
      <trkpt lat="49.11083" lon="-0.00319">
        <ele>13</ele>
        <time>2023-11-22T14:12:43Z</time>
      </trkpt>
      <trkpt lat="49.11084" lon="-0.00306">
        <ele>13</ele>
        <time>2023-11-22T14:12:44Z</time>
      </trkpt>
      <trkpt lat="49.11084" lon="-0.00294">
        <ele>13</ele>
        <time>2023-11-22T14:12:45Z</time>
      </trkpt>
      <trkpt lat="49.11084" lon="-0.00282">
        <ele>13.1</ele>
        <time>2023-11-22T14:12:46Z</time>
      </trkpt>
      <trkpt lat="49.11085" lon="-0.0027">
        <ele>13.1</ele>
        <time>2023-11-22T14:12:47Z</time>
      </trkpt>
      <trkpt lat="49.11085" lon="-0.00257">
        <ele>13.1</ele>
        <time>2023-11-22T14:12:48Z</time>
      </trkpt>
      <trkpt lat="49.11086" lon="-0.00244">
        <ele>13.1</ele>
        <time>2023-11-22T14:12:49Z</time>
      </trkpt>
      <trkpt lat="49.11086" lon="-0.00232">
        <ele>13.1</ele>
        <time>2023-11-22T14:12:50Z</time>
      </trkpt>
      <trkpt lat="49.11087" lon="-0.00219">
        <ele>13.2</ele>
        <time>2023-11-22T14:12:51Z</time>
      </trkpt>
      <trkpt lat="49.11087" lon="-0.00206">
        <ele>13.2</ele>
        <time>2023-11-22T14:12:52Z</time>
      </trkpt>
      <trkpt lat="49.11087" lon="-0.00193">
        <ele>13.1</ele>
        <time>2023-11-22T14:12:53Z</time>
      </trkpt>
      <trkpt lat="49.11088" lon="-0.00181">
        <ele>13.1</ele>
        <time>2023-11-22T14:12:54Z</time>
      </trkpt>
      <trkpt lat="49.11088" lon="-0.00168">
        <ele>13</ele>
        <time>2023-11-22T14:12:55Z</time>
      </trkpt>
      <trkpt lat="49.11089" lon="-0.00155">
        <ele>12.9</ele>
        <time>2023-11-22T14:12:56Z</time>
      </trkpt>
      <trkpt lat="49.11089" lon="-0.00143">
        <ele>12.8</ele>
        <time>2023-11-22T14:12:57Z</time>
      </trkpt>
      <trkpt lat="49.11089" lon="-0.0013">
        <ele>12.6</ele>
        <time>2023-11-22T14:12:58Z</time>
      </trkpt>
      <trkpt lat="49.1109" lon="-0.00117">
        <ele>12.5</ele>
        <time>2023-11-22T14:12:59Z</time>
      </trkpt>
      <trkpt lat="49.1109" lon="-0.00104">
        <ele>12.3</ele>
        <time>2023-11-22T14:13:00Z</time>
      </trkpt>
      <trkpt lat="49.1109" lon="-0.0009">
        <ele>12.2</ele>
        <time>2023-11-22T14:13:01Z</time>
      </trkpt>
      <trkpt lat="49.11091" lon="-0.00077">
        <ele>12.1</ele>
        <time>2023-11-22T14:13:02Z</time>
      </trkpt>
      <trkpt lat="49.11091" lon="-0.00064">
        <ele>12.1</ele>
        <time>2023-11-22T14:13:03Z</time>
      </trkpt>
      <trkpt lat="49.11091" lon="-0.00052">
        <ele>12.1</ele>
        <time>2023-11-22T14:13:04Z</time>
      </trkpt>
      <trkpt lat="49.11091" lon="-0.00039">
        <ele>12.1</ele>
        <time>2023-11-22T14:13:05Z</time>
      </trkpt>
      <trkpt lat="49.11091" lon="-0.00027">
        <ele>12.1</ele>
        <time>2023-11-22T14:13:06Z</time>
      </trkpt>
      <trkpt lat="49.1109" lon="-0.00015">
        <ele>12.1</ele>
        <time>2023-11-22T14:13:07Z</time>
      </trkpt>
      <trkpt lat="49.1109" lon="-2.0E-5">
        <ele>12.2</ele>
        <time>2023-11-22T14:13:08Z</time>
      </trkpt>
      <trkpt lat="49.11089" lon="0.0001">
        <ele>12.2</ele>
        <time>2023-11-22T14:13:09Z</time>
      </trkpt>
      <trkpt lat="49.11088" lon="0.00023">
        <ele>12.2</ele>
        <time>2023-11-22T14:13:10Z</time>
      </trkpt>
      <trkpt lat="49.11088" lon="0.00036">
        <ele>12.2</ele>
        <time>2023-11-22T14:13:11Z</time>
      </trkpt>
      <trkpt lat="49.11087" lon="0.00048">
        <ele>12.3</ele>
        <time>2023-11-22T14:13:12Z</time>
      </trkpt>
      <trkpt lat="49.11086" lon="0.00061">
        <ele>12.3</ele>
        <time>2023-11-22T14:13:13Z</time>
      </trkpt>
      <trkpt lat="49.11086" lon="0.00074">
        <ele>12.3</ele>
        <time>2023-11-22T14:13:14Z</time>
      </trkpt>
      <trkpt lat="49.11085" lon="0.00086">
        <ele>12.3</ele>
        <time>2023-11-22T14:13:15Z</time>
      </trkpt>
      <trkpt lat="49.11085" lon="0.00099">
        <ele>12.3</ele>
        <time>2023-11-22T14:13:16Z</time>
      </trkpt>
      <trkpt lat="49.11084" lon="0.00111">
        <ele>12.3</ele>
        <time>2023-11-22T14:13:17Z</time>
      </trkpt>
      <trkpt lat="49.11083" lon="0.00123">
        <ele>12.4</ele>
        <time>2023-11-22T14:13:18Z</time>
      </trkpt>
      <trkpt lat="49.11083" lon="0.00135">
        <ele>12.4</ele>
        <time>2023-11-22T14:13:19Z</time>
      </trkpt>
      <trkpt lat="49.11082" lon="0.00147">
        <ele>12.4</ele>
        <time>2023-11-22T14:13:20Z</time>
      </trkpt>
      <trkpt lat="49.11082" lon="0.00159">
        <ele>12.5</ele>
        <time>2023-11-22T14:13:21Z</time>
      </trkpt>
      <trkpt lat="49.11082" lon="0.00171">
        <ele>12.5</ele>
        <time>2023-11-22T14:13:22Z</time>
      </trkpt>
      <trkpt lat="49.11081" lon="0.00183">
        <ele>12.6</ele>
        <time>2023-11-22T14:13:23Z</time>
      </trkpt>
      <trkpt lat="49.11081" lon="0.00195">
        <ele>12.6</ele>
        <time>2023-11-22T14:13:24Z</time>
      </trkpt>
      <trkpt lat="49.11081" lon="0.00207">
        <ele>12.8</ele>
        <time>2023-11-22T14:13:25Z</time>
      </trkpt>
      <trkpt lat="49.11081" lon="0.0022">
        <ele>12.9</ele>
        <time>2023-11-22T14:13:26Z</time>
      </trkpt>
      <trkpt lat="49.11081" lon="0.00232">
        <ele>13</ele>
        <time>2023-11-22T14:13:27Z</time>
      </trkpt>
      <trkpt lat="49.11082" lon="0.00244">
        <ele>13.1</ele>
        <time>2023-11-22T14:13:28Z</time>
      </trkpt>
      <trkpt lat="49.11082" lon="0.00255">
        <ele>13.3</ele>
        <time>2023-11-22T14:13:29Z</time>
      </trkpt>
      <trkpt lat="49.11082" lon="0.00267">
        <ele>13.4</ele>
        <time>2023-11-22T14:13:30Z</time>
      </trkpt>
      <trkpt lat="49.11082" lon="0.00278">
        <ele>13.6</ele>
        <time>2023-11-22T14:13:31Z</time>
      </trkpt>
      <trkpt lat="49.11082" lon="0.00289">
        <ele>13.7</ele>
        <time>2023-11-22T14:13:32Z</time>
      </trkpt>
      <trkpt lat="49.11082" lon="0.003">
        <ele>13.9</ele>
        <time>2023-11-22T14:13:33Z</time>
      </trkpt>
      <trkpt lat="49.11082" lon="0.00312">
        <ele>14.1</ele>
        <time>2023-11-22T14:13:34Z</time>
      </trkpt>
      <trkpt lat="49.11082" lon="0.00323">
        <ele>14.3</ele>
        <time>2023-11-22T14:13:35Z</time>
      </trkpt>
      <trkpt lat="49.11083" lon="0.00334">
        <ele>14.4</ele>
        <time>2023-11-22T14:13:36Z</time>
      </trkpt>
      <trkpt lat="49.11083" lon="0.00345">
        <ele>14.6</ele>
        <time>2023-11-22T14:13:37Z</time>
      </trkpt>
      <trkpt lat="49.11083" lon="0.00357">
        <ele>14.8</ele>
        <time>2023-11-22T14:13:38Z</time>
      </trkpt>
      <trkpt lat="49.11084" lon="0.00368">
        <ele>14.9</ele>
        <time>2023-11-22T14:13:39Z</time>
      </trkpt>
      <trkpt lat="49.11084" lon="0.00379">
        <ele>15.1</ele>
        <time>2023-11-22T14:13:40Z</time>
      </trkpt>
      <trkpt lat="49.11084" lon="0.0039">
        <ele>15.2</ele>
        <time>2023-11-22T14:13:41Z</time>
      </trkpt>
      <trkpt lat="49.11085" lon="0.00402">
        <ele>15.4</ele>
        <time>2023-11-22T14:13:42Z</time>
      </trkpt>
      <trkpt lat="49.11086" lon="0.00413">
        <ele>15.6</ele>
        <time>2023-11-22T14:13:43Z</time>
      </trkpt>
      <trkpt lat="49.11087" lon="0.00424">
        <ele>15.7</ele>
        <time>2023-11-22T14:13:44Z</time>
      </trkpt>
      <trkpt lat="49.11088" lon="0.00434">
        <ele>15.9</ele>
        <time>2023-11-22T14:13:45Z</time>
      </trkpt>
      <trkpt lat="49.1109" lon="0.00445">
        <ele>16.1</ele>
        <time>2023-11-22T14:13:46Z</time>
      </trkpt>
      <trkpt lat="49.11092" lon="0.00455">
        <ele>16.3</ele>
        <time>2023-11-22T14:13:47Z</time>
      </trkpt>
      <trkpt lat="49.11095" lon="0.00465">
        <ele>16.5</ele>
        <time>2023-11-22T14:13:48Z</time>
      </trkpt>
      <trkpt lat="49.11098" lon="0.00475">
        <ele>16.7</ele>
        <time>2023-11-22T14:13:49Z</time>
      </trkpt>
      <trkpt lat="49.11101" lon="0.00484">
        <ele>16.9</ele>
        <time>2023-11-22T14:13:50Z</time>
      </trkpt>
      <trkpt lat="49.11105" lon="0.00494">
        <ele>17</ele>
        <time>2023-11-22T14:13:51Z</time>
      </trkpt>
      <trkpt lat="49.11109" lon="0.00503">
        <ele>17.2</ele>
        <time>2023-11-22T14:13:52Z</time>
      </trkpt>
      <trkpt lat="49.11113" lon="0.00511">
        <ele>17.3</ele>
        <time>2023-11-22T14:13:53Z</time>
      </trkpt>
      <trkpt lat="49.11117" lon="0.0052">
        <ele>17.5</ele>
        <time>2023-11-22T14:13:54Z</time>
      </trkpt>
      <trkpt lat="49.11122" lon="0.00529">
        <ele>17.6</ele>
        <time>2023-11-22T14:13:55Z</time>
      </trkpt>
      <trkpt lat="49.11126" lon="0.00538">
        <ele>17.7</ele>
        <time>2023-11-22T14:13:56Z</time>
      </trkpt>
      <trkpt lat="49.11131" lon="0.00547">
        <ele>17.8</ele>
        <time>2023-11-22T14:13:57Z</time>
      </trkpt>
      <trkpt lat="49.11135" lon="0.00556">
        <ele>17.9</ele>
        <time>2023-11-22T14:13:58Z</time>
      </trkpt>
      <trkpt lat="49.1114" lon="0.00564">
        <ele>18</ele>
        <time>2023-11-22T14:13:59Z</time>
      </trkpt>
      <trkpt lat="49.11145" lon="0.00573">
        <ele>18.1</ele>
        <time>2023-11-22T14:14:00Z</time>
      </trkpt>
      <trkpt lat="49.1115" lon="0.00581">
        <ele>18.1</ele>
        <time>2023-11-22T14:14:01Z</time>
      </trkpt>
      <trkpt lat="49.11154" lon="0.00589">
        <ele>18.2</ele>
        <time>2023-11-22T14:14:02Z</time>
      </trkpt>
      <trkpt lat="49.11159" lon="0.00596">
        <ele>18.2</ele>
        <time>2023-11-22T14:14:03Z</time>
      </trkpt>
      <trkpt lat="49.11164" lon="0.00603">
        <ele>18.3</ele>
        <time>2023-11-22T14:14:04Z</time>
      </trkpt>
      <trkpt lat="49.11169" lon="0.00611">
        <ele>18.3</ele>
        <time>2023-11-22T14:14:05Z</time>
      </trkpt>
      <trkpt lat="49.11174" lon="0.00617">
        <ele>18.4</ele>
        <time>2023-11-22T14:14:06Z</time>
      </trkpt>
      <trkpt lat="49.11178" lon="0.00623">
        <ele>18.4</ele>
        <time>2023-11-22T14:14:07Z</time>
      </trkpt>
      <trkpt lat="49.11183" lon="0.00629">
        <ele>18.4</ele>
        <time>2023-11-22T14:14:08Z</time>
      </trkpt>
      <trkpt lat="49.11188" lon="0.00635">
        <ele>18.5</ele>
        <time>2023-11-22T14:14:09Z</time>
      </trkpt>
      <trkpt lat="49.11193" lon="0.0064">
        <ele>18.5</ele>
        <time>2023-11-22T14:14:10Z</time>
      </trkpt>
      <trkpt lat="49.11198" lon="0.00645">
        <ele>18.5</ele>
        <time>2023-11-22T14:14:11Z</time>
      </trkpt>
      <trkpt lat="49.11203" lon="0.00651">
        <ele>18.5</ele>
        <time>2023-11-22T14:14:12Z</time>
      </trkpt>
      <trkpt lat="49.11208" lon="0.00656">
        <ele>18.5</ele>
        <time>2023-11-22T14:14:13Z</time>
      </trkpt>
      <trkpt lat="49.11212" lon="0.00662">
        <ele>18.5</ele>
        <time>2023-11-22T14:14:14Z</time>
      </trkpt>
      <trkpt lat="49.11217" lon="0.00667">
        <ele>18.5</ele>
        <time>2023-11-22T14:14:15Z</time>
      </trkpt>
      <trkpt lat="49.11222" lon="0.00672">
        <ele>18.5</ele>
        <time>2023-11-22T14:14:16Z</time>
      </trkpt>
      <trkpt lat="49.11227" lon="0.00677">
        <ele>18.4</ele>
        <time>2023-11-22T14:14:17Z</time>
      </trkpt>
      <trkpt lat="49.11232" lon="0.00682">
        <ele>18.4</ele>
        <time>2023-11-22T14:14:18Z</time>
      </trkpt>
      <trkpt lat="49.11237" lon="0.00687">
        <ele>18.3</ele>
        <time>2023-11-22T14:14:19Z</time>
      </trkpt>
      <trkpt lat="49.11242" lon="0.00692">
        <ele>18.3</ele>
        <time>2023-11-22T14:14:20Z</time>
      </trkpt>
      <trkpt lat="49.11246" lon="0.00698">
        <ele>18.2</ele>
        <time>2023-11-22T14:14:21Z</time>
      </trkpt>
      <trkpt lat="49.1125" lon="0.00704">
        <ele>18.2</ele>
        <time>2023-11-22T14:14:22Z</time>
      </trkpt>
      <trkpt lat="49.11255" lon="0.00709">
        <ele>18.1</ele>
        <time>2023-11-22T14:14:23Z</time>
      </trkpt>
      <trkpt lat="49.11261" lon="0.00715">
        <ele>18.1</ele>
        <time>2023-11-22T14:14:24Z</time>
      </trkpt>
      <trkpt lat="49.11266" lon="0.0072">
        <ele>18</ele>
        <time>2023-11-22T14:14:25Z</time>
      </trkpt>
      <trkpt lat="49.11272" lon="0.00726">
        <ele>18</ele>
        <time>2023-11-22T14:14:26Z</time>
      </trkpt>
      <trkpt lat="49.11277" lon="0.00731">
        <ele>17.9</ele>
        <time>2023-11-22T14:14:27Z</time>
      </trkpt>
      <trkpt lat="49.11282" lon="0.00737">
        <ele>17.9</ele>
        <time>2023-11-22T14:14:28Z</time>
      </trkpt>
      <trkpt lat="49.11287" lon="0.00743">
        <ele>17.8</ele>
        <time>2023-11-22T14:14:29Z</time>
      </trkpt>
      <trkpt lat="49.11291" lon="0.00751">
        <ele>17.8</ele>
        <time>2023-11-22T14:14:30Z</time>
      </trkpt>
      <trkpt lat="49.11294" lon="0.00758">
        <ele>17.7</ele>
        <time>2023-11-22T14:14:31Z</time>
      </trkpt>
      <trkpt lat="49.11298" lon="0.00766">
        <ele>17.6</ele>
        <time>2023-11-22T14:14:32Z</time>
      </trkpt>
      <trkpt lat="49.11302" lon="0.00774">
        <ele>17.5</ele>
        <time>2023-11-22T14:14:33Z</time>
      </trkpt>
      <trkpt lat="49.11306" lon="0.00782">
        <ele>17.4</ele>
        <time>2023-11-22T14:14:34Z</time>
      </trkpt>
      <trkpt lat="49.1131" lon="0.00791">
        <ele>17.3</ele>
        <time>2023-11-22T14:14:35Z</time>
      </trkpt>
      <trkpt lat="49.11315" lon="0.008">
        <ele>17.2</ele>
        <time>2023-11-22T14:14:36Z</time>
      </trkpt>
      <trkpt lat="49.11319" lon="0.00808">
        <ele>17.1</ele>
        <time>2023-11-22T14:14:37Z</time>
      </trkpt>
      <trkpt lat="49.11323" lon="0.00818">
        <ele>16.9</ele>
        <time>2023-11-22T14:14:38Z</time>
      </trkpt>
      <trkpt lat="49.11328" lon="0.00827">
        <ele>16.8</ele>
        <time>2023-11-22T14:14:39Z</time>
      </trkpt>
      <trkpt lat="49.11333" lon="0.00836">
        <ele>16.7</ele>
        <time>2023-11-22T14:14:40Z</time>
      </trkpt>
      <trkpt lat="49.11337" lon="0.00846">
        <ele>16.6</ele>
        <time>2023-11-22T14:14:41Z</time>
      </trkpt>
      <trkpt lat="49.11342" lon="0.00855">
        <ele>16.4</ele>
        <time>2023-11-22T14:14:42Z</time>
      </trkpt>
      <trkpt lat="49.11347" lon="0.00865">
        <ele>16.3</ele>
        <time>2023-11-22T14:14:43Z</time>
      </trkpt>
      <trkpt lat="49.11352" lon="0.00874">
        <ele>16.2</ele>
        <time>2023-11-22T14:14:44Z</time>
      </trkpt>
      <trkpt lat="49.11356" lon="0.00884">
        <ele>16</ele>
        <time>2023-11-22T14:14:45Z</time>
      </trkpt>
      <trkpt lat="49.11361" lon="0.00894">
        <ele>15.9</ele>
        <time>2023-11-22T14:14:46Z</time>
      </trkpt>
      <trkpt lat="49.11366" lon="0.00905">
        <ele>15.8</ele>
        <time>2023-11-22T14:14:47Z</time>
      </trkpt>
      <trkpt lat="49.11371" lon="0.00915">
        <ele>15.7</ele>
        <time>2023-11-22T14:14:48Z</time>
      </trkpt>
      <trkpt lat="49.11375" lon="0.00925">
        <ele>15.6</ele>
        <time>2023-11-22T14:14:49Z</time>
      </trkpt>
      <trkpt lat="49.1138" lon="0.00935">
        <ele>15.6</ele>
        <time>2023-11-22T14:14:50Z</time>
      </trkpt>
      <trkpt lat="49.11385" lon="0.00945">
        <ele>15.6</ele>
        <time>2023-11-22T14:14:51Z</time>
      </trkpt>
      <trkpt lat="49.11389" lon="0.00955">
        <ele>15.6</ele>
        <time>2023-11-22T14:14:52Z</time>
      </trkpt>
      <trkpt lat="49.11394" lon="0.00965">
        <ele>15.6</ele>
        <time>2023-11-22T14:14:53Z</time>
      </trkpt>
      <trkpt lat="49.11398" lon="0.00974">
        <ele>15.6</ele>
        <time>2023-11-22T14:14:54Z</time>
      </trkpt>
      <trkpt lat="49.11403" lon="0.00984">
        <ele>15.6</ele>
        <time>2023-11-22T14:14:55Z</time>
      </trkpt>
      <trkpt lat="49.11407" lon="0.00993">
        <ele>15.6</ele>
        <time>2023-11-22T14:14:56Z</time>
      </trkpt>
      <trkpt lat="49.11411" lon="0.01003">
        <ele>15.6</ele>
        <time>2023-11-22T14:14:57Z</time>
      </trkpt>
      <trkpt lat="49.11415" lon="0.01012">
        <ele>15.5</ele>
        <time>2023-11-22T14:14:58Z</time>
      </trkpt>
      <trkpt lat="49.11419" lon="0.01021">
        <ele>15.5</ele>
        <time>2023-11-22T14:14:59Z</time>
      </trkpt>
      <trkpt lat="49.11423" lon="0.0103">
        <ele>15.5</ele>
        <time>2023-11-22T14:15:00Z</time>
      </trkpt>
      <trkpt lat="49.11427" lon="0.01039">
        <ele>15.5</ele>
        <time>2023-11-22T14:15:01Z</time>
      </trkpt>
      <trkpt lat="49.11431" lon="0.01048">
        <ele>15.5</ele>
        <time>2023-11-22T14:15:02Z</time>
      </trkpt>
      <trkpt lat="49.11435" lon="0.01056">
        <ele>15.5</ele>
        <time>2023-11-22T14:15:03Z</time>
      </trkpt>
      <trkpt lat="49.11439" lon="0.01065">
        <ele>15.5</ele>
        <time>2023-11-22T14:15:04Z</time>
      </trkpt>
      <trkpt lat="49.11443" lon="0.01073">
        <ele>15.6</ele>
        <time>2023-11-22T14:15:05Z</time>
      </trkpt>
      <trkpt lat="49.11447" lon="0.01082">
        <ele>15.6</ele>
        <time>2023-11-22T14:15:06Z</time>
      </trkpt>
      <trkpt lat="49.1145" lon="0.01088">
        <ele>15.7</ele>
        <time>2023-11-22T14:15:07Z</time>
      </trkpt>
      <trkpt lat="49.11453" lon="0.01094">
        <ele>15.7</ele>
        <time>2023-11-22T14:15:08Z</time>
      </trkpt>
      <trkpt lat="49.11455" lon="0.01099">
        <ele>15.8</ele>
        <time>2023-11-22T14:15:09Z</time>
      </trkpt>
      <trkpt lat="49.11458" lon="0.01104">
        <ele>15.8</ele>
        <time>2023-11-22T14:15:10Z</time>
      </trkpt>
      <trkpt lat="49.11459" lon="0.01108">
        <ele>15.8</ele>
        <time>2023-11-22T14:15:11Z</time>
      </trkpt>
      <trkpt lat="49.11462" lon="0.01113">
        <ele>15.9</ele>
        <time>2023-11-22T14:15:12Z</time>
      </trkpt>
      <trkpt lat="49.11462" lon="0.01114">
        <ele>15.9</ele>
        <time>2023-11-22T14:15:13Z</time>
      </trkpt>
      <trkpt lat="49.11464" lon="0.0112">
        <ele>15.9</ele>
        <time>2023-11-22T14:15:14Z</time>
      </trkpt>
      <trkpt lat="49.11464" lon="0.01122">
        <ele>15.9</ele>
        <time>2023-11-22T14:15:15Z</time>
      </trkpt>
      <trkpt lat="49.11464" lon="0.01127">
        <ele>16</ele>
        <time>2023-11-22T14:15:16Z</time>
      </trkpt>
      <trkpt lat="49.11462" lon="0.01131">
        <ele>16</ele>
        <time>2023-11-22T14:15:17Z</time>
      </trkpt>
      <trkpt lat="49.11459" lon="0.01132">
        <ele>16</ele>
        <time>2023-11-22T14:15:18Z</time>
      </trkpt>
      <trkpt lat="49.11455" lon="0.01131">
        <ele>16.1</ele>
        <time>2023-11-22T14:15:19Z</time>
      </trkpt>
      <trkpt lat="49.11451" lon="0.01128">
        <ele>16.1</ele>
        <time>2023-11-22T14:15:20Z</time>
      </trkpt>
      <trkpt lat="49.11447" lon="0.01124">
        <ele>16.1</ele>
        <time>2023-11-22T14:15:21Z</time>
      </trkpt>
      <trkpt lat="49.11443" lon="0.01121">
        <ele>16.1</ele>
        <time>2023-11-22T14:15:22Z</time>
      </trkpt>
      <trkpt lat="49.11438" lon="0.01116">
        <ele>16.1</ele>
        <time>2023-11-22T14:15:23Z</time>
      </trkpt>
      <trkpt lat="49.11433" lon="0.01112">
        <ele>16.2</ele>
        <time>2023-11-22T14:15:24Z</time>
      </trkpt>
      <trkpt lat="49.11427" lon="0.01107">
        <ele>16.2</ele>
        <time>2023-11-22T14:15:25Z</time>
      </trkpt>
      <trkpt lat="49.11421" lon="0.01102">
        <ele>16.2</ele>
        <time>2023-11-22T14:15:26Z</time>
      </trkpt>
      <trkpt lat="49.11416" lon="0.01097">
        <ele>16.2</ele>
        <time>2023-11-22T14:15:27Z</time>
      </trkpt>
      <trkpt lat="49.1141" lon="0.01091">
        <ele>16.2</ele>
        <time>2023-11-22T14:15:28Z</time>
      </trkpt>
      <trkpt lat="49.11404" lon="0.01086">
        <ele>16.3</ele>
        <time>2023-11-22T14:15:29Z</time>
      </trkpt>
      <trkpt lat="49.11397" lon="0.01079">
        <ele>16.3</ele>
        <time>2023-11-22T14:15:30Z</time>
      </trkpt>
      <trkpt lat="49.1139" lon="0.01073">
        <ele>16.4</ele>
        <time>2023-11-22T14:15:31Z</time>
      </trkpt>
      <trkpt lat="49.11383" lon="0.01067">
        <ele>16.4</ele>
        <time>2023-11-22T14:15:32Z</time>
      </trkpt>
      <trkpt lat="49.11376" lon="0.0106">
        <ele>16.5</ele>
        <time>2023-11-22T14:15:33Z</time>
      </trkpt>
      <trkpt lat="49.11369" lon="0.01054">
        <ele>16.5</ele>
        <time>2023-11-22T14:15:34Z</time>
      </trkpt>
      <trkpt lat="49.11362" lon="0.01046">
        <ele>16.6</ele>
        <time>2023-11-22T14:15:35Z</time>
      </trkpt>
      <trkpt lat="49.11355" lon="0.01039">
        <ele>16.7</ele>
        <time>2023-11-22T14:15:36Z</time>
      </trkpt>
      <trkpt lat="49.11347" lon="0.01032">
        <ele>16.7</ele>
        <time>2023-11-22T14:15:37Z</time>
      </trkpt>
      <trkpt lat="49.1134" lon="0.01026">
        <ele>16.8</ele>
        <time>2023-11-22T14:15:38Z</time>
      </trkpt>
      <trkpt lat="49.11332" lon="0.01019">
        <ele>16.9</ele>
        <time>2023-11-22T14:15:39Z</time>
      </trkpt>
      <trkpt lat="49.11325" lon="0.01013">
        <ele>17</ele>
        <time>2023-11-22T14:15:40Z</time>
      </trkpt>
      <trkpt lat="49.11318" lon="0.01006">
        <ele>17.1</ele>
        <time>2023-11-22T14:15:41Z</time>
      </trkpt>
      <trkpt lat="49.11311" lon="0.01">
        <ele>17.2</ele>
        <time>2023-11-22T14:15:42Z</time>
      </trkpt>
      <trkpt lat="49.11304" lon="0.00993">
        <ele>17.3</ele>
        <time>2023-11-22T14:15:43Z</time>
      </trkpt>
      <trkpt lat="49.11296" lon="0.00986">
        <ele>17.4</ele>
        <time>2023-11-22T14:15:44Z</time>
      </trkpt>
      <trkpt lat="49.11289" lon="0.00979">
        <ele>17.5</ele>
        <time>2023-11-22T14:15:45Z</time>
      </trkpt>
      <trkpt lat="49.11281" lon="0.00973">
        <ele>17.6</ele>
        <time>2023-11-22T14:15:46Z</time>
      </trkpt>
      <trkpt lat="49.11274" lon="0.00967">
        <ele>17.7</ele>
        <time>2023-11-22T14:15:47Z</time>
      </trkpt>
      <trkpt lat="49.11266" lon="0.0096">
        <ele>17.8</ele>
        <time>2023-11-22T14:15:48Z</time>
      </trkpt>
      <trkpt lat="49.11259" lon="0.00953">
        <ele>17.9</ele>
        <time>2023-11-22T14:15:49Z</time>
      </trkpt>
      <trkpt lat="49.11252" lon="0.00945">
        <ele>18</ele>
        <time>2023-11-22T14:15:50Z</time>
      </trkpt>
      <trkpt lat="49.11245" lon="0.00938">
        <ele>18.2</ele>
        <time>2023-11-22T14:15:51Z</time>
      </trkpt>
      <trkpt lat="49.11237" lon="0.00932">
        <ele>18.3</ele>
        <time>2023-11-22T14:15:52Z</time>
      </trkpt>
      <trkpt lat="49.1123" lon="0.00925">
        <ele>18.4</ele>
        <time>2023-11-22T14:15:53Z</time>
      </trkpt>
      <trkpt lat="49.11223" lon="0.00919">
        <ele>18.5</ele>
        <time>2023-11-22T14:15:54Z</time>
      </trkpt>
      <trkpt lat="49.11216" lon="0.00912">
        <ele>18.5</ele>
        <time>2023-11-22T14:15:55Z</time>
      </trkpt>
      <trkpt lat="49.11209" lon="0.00906">
        <ele>18.6</ele>
        <time>2023-11-22T14:15:56Z</time>
      </trkpt>
      <trkpt lat="49.11202" lon="0.009">
        <ele>18.8</ele>
        <time>2023-11-22T14:15:57Z</time>
      </trkpt>
      <trkpt lat="49.11196" lon="0.00894">
        <ele>18.9</ele>
        <time>2023-11-22T14:15:58Z</time>
      </trkpt>
      <trkpt lat="49.11189" lon="0.00888">
        <ele>19</ele>
        <time>2023-11-22T14:15:59Z</time>
      </trkpt>
      <trkpt lat="49.11182" lon="0.00881">
        <ele>19.1</ele>
        <time>2023-11-22T14:16:00Z</time>
      </trkpt>
      <trkpt lat="49.11175" lon="0.00875">
        <ele>19.2</ele>
        <time>2023-11-22T14:16:01Z</time>
      </trkpt>
      <trkpt lat="49.11169" lon="0.00869">
        <ele>19.3</ele>
        <time>2023-11-22T14:16:02Z</time>
      </trkpt>
      <trkpt lat="49.11162" lon="0.00863">
        <ele>19.3</ele>
        <time>2023-11-22T14:16:03Z</time>
      </trkpt>
      <trkpt lat="49.11156" lon="0.00857">
        <ele>19.4</ele>
        <time>2023-11-22T14:16:04Z</time>
      </trkpt>
      <trkpt lat="49.11149" lon="0.00851">
        <ele>19.6</ele>
        <time>2023-11-22T14:16:05Z</time>
      </trkpt>
      <trkpt lat="49.11143" lon="0.00846">
        <ele>19.7</ele>
        <time>2023-11-22T14:16:06Z</time>
      </trkpt>
      <trkpt lat="49.11137" lon="0.0084">
        <ele>19.8</ele>
        <time>2023-11-22T14:16:07Z</time>
      </trkpt>
      <trkpt lat="49.11131" lon="0.00835">
        <ele>19.9</ele>
        <time>2023-11-22T14:16:08Z</time>
      </trkpt>
      <trkpt lat="49.11126" lon="0.0083">
        <ele>20</ele>
        <time>2023-11-22T14:16:09Z</time>
      </trkpt>
      <trkpt lat="49.1112" lon="0.00825">
        <ele>20.1</ele>
        <time>2023-11-22T14:16:10Z</time>
      </trkpt>
      <trkpt lat="49.11115" lon="0.00819">
        <ele>20.1</ele>
        <time>2023-11-22T14:16:11Z</time>
      </trkpt>
      <trkpt lat="49.11109" lon="0.00814">
        <ele>20.2</ele>
        <time>2023-11-22T14:16:12Z</time>
      </trkpt>
      <trkpt lat="49.11103" lon="0.00809">
        <ele>20.3</ele>
        <time>2023-11-22T14:16:13Z</time>
      </trkpt>
      <trkpt lat="49.11098" lon="0.00804">
        <ele>20.4</ele>
        <time>2023-11-22T14:16:14Z</time>
      </trkpt>
      <trkpt lat="49.11092" lon="0.00798">
        <ele>20.5</ele>
        <time>2023-11-22T14:16:15Z</time>
      </trkpt>
      <trkpt lat="49.11086" lon="0.00793">
        <ele>20.6</ele>
        <time>2023-11-22T14:16:16Z</time>
      </trkpt>
      <trkpt lat="49.1108" lon="0.00786">
        <ele>20.7</ele>
        <time>2023-11-22T14:16:17Z</time>
      </trkpt>
      <trkpt lat="49.11074" lon="0.00781">
        <ele>20.8</ele>
        <time>2023-11-22T14:16:18Z</time>
      </trkpt>
      <trkpt lat="49.11068" lon="0.00775">
        <ele>20.9</ele>
        <time>2023-11-22T14:16:19Z</time>
      </trkpt>
      <trkpt lat="49.11061" lon="0.00769">
        <ele>21</ele>
        <time>2023-11-22T14:16:20Z</time>
      </trkpt>
      <trkpt lat="49.11054" lon="0.00763">
        <ele>21.1</ele>
        <time>2023-11-22T14:16:21Z</time>
      </trkpt>
      <trkpt lat="49.11047" lon="0.00758">
        <ele>21.2</ele>
        <time>2023-11-22T14:16:22Z</time>
      </trkpt>
      <trkpt lat="49.1104" lon="0.00752">
        <ele>21.3</ele>
        <time>2023-11-22T14:16:23Z</time>
      </trkpt>
      <trkpt lat="49.11033" lon="0.00746">
        <ele>21.4</ele>
        <time>2023-11-22T14:16:24Z</time>
      </trkpt>
      <trkpt lat="49.11026" lon="0.00742">
        <ele>21.5</ele>
        <time>2023-11-22T14:16:25Z</time>
      </trkpt>
      <trkpt lat="49.11019" lon="0.00737">
        <ele>21.6</ele>
        <time>2023-11-22T14:16:26Z</time>
      </trkpt>
      <trkpt lat="49.11012" lon="0.00733">
        <ele>21.7</ele>
        <time>2023-11-22T14:16:27Z</time>
      </trkpt>
      <trkpt lat="49.11005" lon="0.00729">
        <ele>21.8</ele>
        <time>2023-11-22T14:16:28Z</time>
      </trkpt>
      <trkpt lat="49.10999" lon="0.00725">
        <ele>21.9</ele>
        <time>2023-11-22T14:16:29Z</time>
      </trkpt>
      <trkpt lat="49.10992" lon="0.00722">
        <ele>21.9</ele>
        <time>2023-11-22T14:16:30Z</time>
      </trkpt>
      <trkpt lat="49.10985" lon="0.00719">
        <ele>22</ele>
        <time>2023-11-22T14:16:31Z</time>
      </trkpt>
      <trkpt lat="49.10979" lon="0.00716">
        <ele>22.1</ele>
        <time>2023-11-22T14:16:32Z</time>
      </trkpt>
      <trkpt lat="49.10972" lon="0.00714">
        <ele>22.1</ele>
        <time>2023-11-22T14:16:33Z</time>
      </trkpt>
      <trkpt lat="49.10966" lon="0.00712">
        <ele>22.2</ele>
        <time>2023-11-22T14:16:34Z</time>
      </trkpt>
      <trkpt lat="49.1096" lon="0.0071">
        <ele>22.3</ele>
        <time>2023-11-22T14:16:35Z</time>
      </trkpt>
      <trkpt lat="49.10954" lon="0.00707">
        <ele>22.3</ele>
        <time>2023-11-22T14:16:36Z</time>
      </trkpt>
      <trkpt lat="49.10949" lon="0.00704">
        <ele>22.4</ele>
        <time>2023-11-22T14:16:37Z</time>
      </trkpt>
      <trkpt lat="49.10944" lon="0.00701">
        <ele>22.5</ele>
        <time>2023-11-22T14:16:38Z</time>
      </trkpt>
      <trkpt lat="49.10939" lon="0.00698">
        <ele>22.5</ele>
        <time>2023-11-22T14:16:39Z</time>
      </trkpt>
      <trkpt lat="49.10934" lon="0.00696">
        <ele>22.6</ele>
        <time>2023-11-22T14:16:40Z</time>
      </trkpt>
      <trkpt lat="49.10929" lon="0.00693">
        <ele>22.6</ele>
        <time>2023-11-22T14:16:41Z</time>
      </trkpt>
      <trkpt lat="49.10925" lon="0.00691">
        <ele>22.7</ele>
        <time>2023-11-22T14:16:42Z</time>
      </trkpt>
      <trkpt lat="49.1092" lon="0.00689">
        <ele>22.8</ele>
        <time>2023-11-22T14:16:43Z</time>
      </trkpt>
      <trkpt lat="49.10915" lon="0.0069">
        <ele>22.8</ele>
        <time>2023-11-22T14:16:44Z</time>
      </trkpt>
      <trkpt lat="49.1091" lon="0.00692">
        <ele>22.8</ele>
        <time>2023-11-22T14:16:45Z</time>
      </trkpt>
      <trkpt lat="49.10907" lon="0.00698">
        <ele>22.8</ele>
        <time>2023-11-22T14:16:46Z</time>
      </trkpt>
      <trkpt lat="49.10905" lon="0.00705">
        <ele>22.8</ele>
        <time>2023-11-22T14:16:47Z</time>
      </trkpt>
      <trkpt lat="49.10903" lon="0.00713">
        <ele>22.7</ele>
        <time>2023-11-22T14:16:48Z</time>
      </trkpt>
      <trkpt lat="49.10901" lon="0.00719">
        <ele>22.7</ele>
        <time>2023-11-22T14:16:49Z</time>
      </trkpt>
      <trkpt lat="49.10899" lon="0.00726">
        <ele>22.7</ele>
        <time>2023-11-22T14:16:50Z</time>
      </trkpt>
      <trkpt lat="49.10897" lon="0.00732">
        <ele>22.7</ele>
        <time>2023-11-22T14:16:51Z</time>
      </trkpt>
      <trkpt lat="49.10894" lon="0.00737">
        <ele>22.7</ele>
        <time>2023-11-22T14:16:52Z</time>
      </trkpt>
      <trkpt lat="49.10891" lon="0.00743">
        <ele>22.8</ele>
        <time>2023-11-22T14:16:53Z</time>
      </trkpt>
      <trkpt lat="49.10888" lon="0.00749">
        <ele>22.8</ele>
        <time>2023-11-22T14:16:54Z</time>
      </trkpt>
      <trkpt lat="49.10886" lon="0.00754">
        <ele>22.8</ele>
        <time>2023-11-22T14:16:55Z</time>
      </trkpt>
      <trkpt lat="49.10883" lon="0.00759">
        <ele>22.8</ele>
        <time>2023-11-22T14:16:56Z</time>
      </trkpt>
      <trkpt lat="49.10881" lon="0.00764">
        <ele>22.9</ele>
        <time>2023-11-22T14:16:57Z</time>
      </trkpt>
      <trkpt lat="49.10879" lon="0.00769">
        <ele>22.9</ele>
        <time>2023-11-22T14:16:58Z</time>
      </trkpt>
      <trkpt lat="49.10876" lon="0.00774">
        <ele>23</ele>
        <time>2023-11-22T14:16:59Z</time>
      </trkpt>
      <trkpt lat="49.10874" lon="0.0078">
        <ele>23.1</ele>
        <time>2023-11-22T14:17:00Z</time>
      </trkpt>
      <trkpt lat="49.10872" lon="0.00785">
        <ele>23.2</ele>
        <time>2023-11-22T14:17:01Z</time>
      </trkpt>
      <trkpt lat="49.1087" lon="0.0079">
        <ele>23.3</ele>
        <time>2023-11-22T14:17:02Z</time>
      </trkpt>
      <trkpt lat="49.10868" lon="0.00795">
        <ele>23.3</ele>
        <time>2023-11-22T14:17:03Z</time>
      </trkpt>
      <trkpt lat="49.10866" lon="0.00799">
        <ele>23.4</ele>
        <time>2023-11-22T14:17:04Z</time>
      </trkpt>
      <trkpt lat="49.10864" lon="0.00803">
        <ele>23.5</ele>
        <time>2023-11-22T14:17:05Z</time>
      </trkpt>
      <trkpt lat="49.10862" lon="0.00808">
        <ele>23.5</ele>
        <time>2023-11-22T14:17:06Z</time>
      </trkpt>
      <trkpt lat="49.10861" lon="0.00812">
        <ele>23.6</ele>
        <time>2023-11-22T14:17:07Z</time>
      </trkpt>
      <trkpt lat="49.10859" lon="0.00816">
        <ele>23.7</ele>
        <time>2023-11-22T14:17:08Z</time>
      </trkpt>
      <trkpt lat="49.10857" lon="0.0082">
        <ele>23.7</ele>
        <time>2023-11-22T14:17:09Z</time>
      </trkpt>
      <trkpt lat="49.10856" lon="0.00824">
        <ele>23.8</ele>
        <time>2023-11-22T14:17:10Z</time>
      </trkpt>
      <trkpt lat="49.10854" lon="0.00829">
        <ele>23.8</ele>
        <time>2023-11-22T14:17:11Z</time>
      </trkpt>
      <trkpt lat="49.10852" lon="0.00834">
        <ele>23.9</ele>
        <time>2023-11-22T14:17:12Z</time>
      </trkpt>
      <trkpt lat="49.1085" lon="0.0084">
        <ele>23.9</ele>
        <time>2023-11-22T14:17:13Z</time>
      </trkpt>
      <trkpt lat="49.10848" lon="0.00846">
        <ele>23.9</ele>
        <time>2023-11-22T14:17:14Z</time>
      </trkpt>
      <trkpt lat="49.10846" lon="0.00852">
        <ele>24</ele>
        <time>2023-11-22T14:17:15Z</time>
      </trkpt>
      <trkpt lat="49.10843" lon="0.00858">
        <ele>24</ele>
        <time>2023-11-22T14:17:16Z</time>
      </trkpt>
      <trkpt lat="49.10841" lon="0.00863">
        <ele>24.1</ele>
        <time>2023-11-22T14:17:17Z</time>
      </trkpt>
      <trkpt lat="49.10839" lon="0.00869">
        <ele>24.1</ele>
        <time>2023-11-22T14:17:18Z</time>
      </trkpt>
      <trkpt lat="49.10836" lon="0.00875">
        <ele>24.2</ele>
        <time>2023-11-22T14:17:19Z</time>
      </trkpt>
      <trkpt lat="49.10834" lon="0.00881">
        <ele>24.2</ele>
        <time>2023-11-22T14:17:20Z</time>
      </trkpt>
      <trkpt lat="49.10831" lon="0.00886">
        <ele>24.2</ele>
        <time>2023-11-22T14:17:21Z</time>
      </trkpt>
      <trkpt lat="49.10828" lon="0.00893">
        <ele>24.3</ele>
        <time>2023-11-22T14:17:22Z</time>
      </trkpt>
      <trkpt lat="49.10825" lon="0.00899">
        <ele>24.3</ele>
        <time>2023-11-22T14:17:23Z</time>
      </trkpt>
      <trkpt lat="49.10823" lon="0.00906">
        <ele>24.4</ele>
        <time>2023-11-22T14:17:24Z</time>
      </trkpt>
      <trkpt lat="49.1082" lon="0.00912">
        <ele>24.4</ele>
        <time>2023-11-22T14:17:25Z</time>
      </trkpt>
      <trkpt lat="49.10818" lon="0.00917">
        <ele>24.5</ele>
        <time>2023-11-22T14:17:26Z</time>
      </trkpt>
      <trkpt lat="49.10815" lon="0.00923">
        <ele>24.6</ele>
        <time>2023-11-22T14:17:27Z</time>
      </trkpt>
      <trkpt lat="49.10813" lon="0.00928">
        <ele>24.6</ele>
        <time>2023-11-22T14:17:28Z</time>
      </trkpt>
      <trkpt lat="49.10811" lon="0.00934">
        <ele>24.7</ele>
        <time>2023-11-22T14:17:29Z</time>
      </trkpt>
      <trkpt lat="49.10808" lon="0.00939">
        <ele>24.8</ele>
        <time>2023-11-22T14:17:30Z</time>
      </trkpt>
      <trkpt lat="49.10806" lon="0.00944">
        <ele>24.8</ele>
        <time>2023-11-22T14:17:31Z</time>
      </trkpt>
      <trkpt lat="49.10802" lon="0.00949">
        <ele>24.9</ele>
        <time>2023-11-22T14:17:32Z</time>
      </trkpt>
      <trkpt lat="49.10799" lon="0.00954">
        <ele>24.9</ele>
        <time>2023-11-22T14:17:33Z</time>
      </trkpt>
      <trkpt lat="49.10796" lon="0.00959">
        <ele>25</ele>
        <time>2023-11-22T14:17:34Z</time>
      </trkpt>
      <trkpt lat="49.10793" lon="0.00965">
        <ele>25</ele>
        <time>2023-11-22T14:17:35Z</time>
      </trkpt>
      <trkpt lat="49.10789" lon="0.0097">
        <ele>25.1</ele>
        <time>2023-11-22T14:17:36Z</time>
      </trkpt>
      <trkpt lat="49.10785" lon="0.00975">
        <ele>25.1</ele>
        <time>2023-11-22T14:17:37Z</time>
      </trkpt>
      <trkpt lat="49.10781" lon="0.00981">
        <ele>25.1</ele>
        <time>2023-11-22T14:17:38Z</time>
      </trkpt>
      <trkpt lat="49.10778" lon="0.00987">
        <ele>25.2</ele>
        <time>2023-11-22T14:17:39Z</time>
      </trkpt>
      <trkpt lat="49.10774" lon="0.00993">
        <ele>25.2</ele>
        <time>2023-11-22T14:17:40Z</time>
      </trkpt>
      <trkpt lat="49.1077" lon="0.01">
        <ele>25.2</ele>
        <time>2023-11-22T14:17:41Z</time>
      </trkpt>
      <trkpt lat="49.10766" lon="0.01006">
        <ele>25.2</ele>
        <time>2023-11-22T14:17:42Z</time>
      </trkpt>
      <trkpt lat="49.10763" lon="0.01013">
        <ele>25.3</ele>
        <time>2023-11-22T14:17:43Z</time>
      </trkpt>
      <trkpt lat="49.10759" lon="0.0102">
        <ele>25.3</ele>
        <time>2023-11-22T14:17:44Z</time>
      </trkpt>
      <trkpt lat="49.10755" lon="0.01027">
        <ele>25.3</ele>
        <time>2023-11-22T14:17:45Z</time>
      </trkpt>
      <trkpt lat="49.10751" lon="0.01033">
        <ele>25.3</ele>
        <time>2023-11-22T14:17:46Z</time>
      </trkpt>
      <trkpt lat="49.10748" lon="0.01039">
        <ele>25.3</ele>
        <time>2023-11-22T14:17:47Z</time>
      </trkpt>
      <trkpt lat="49.10744" lon="0.01046">
        <ele>25.3</ele>
        <time>2023-11-22T14:17:48Z</time>
      </trkpt>
      <trkpt lat="49.10741" lon="0.01052">
        <ele>25.3</ele>
        <time>2023-11-22T14:17:49Z</time>
      </trkpt>
      <trkpt lat="49.10738" lon="0.01058">
        <ele>25.4</ele>
        <time>2023-11-22T14:17:50Z</time>
      </trkpt>
      <trkpt lat="49.10734" lon="0.01064">
        <ele>25.4</ele>
        <time>2023-11-22T14:17:51Z</time>
      </trkpt>
      <trkpt lat="49.10731" lon="0.0107">
        <ele>25.4</ele>
        <time>2023-11-22T14:17:52Z</time>
      </trkpt>
      <trkpt lat="49.10727" lon="0.01075">
        <ele>25.5</ele>
        <time>2023-11-22T14:17:53Z</time>
      </trkpt>
      <trkpt lat="49.10724" lon="0.01081">
        <ele>25.5</ele>
        <time>2023-11-22T14:17:54Z</time>
      </trkpt>
      <trkpt lat="49.10721" lon="0.01087">
        <ele>25.5</ele>
        <time>2023-11-22T14:17:55Z</time>
      </trkpt>
      <trkpt lat="49.10717" lon="0.01093">
        <ele>25.6</ele>
        <time>2023-11-22T14:17:56Z</time>
      </trkpt>
      <trkpt lat="49.10714" lon="0.011">
        <ele>25.6</ele>
        <time>2023-11-22T14:17:57Z</time>
      </trkpt>
      <trkpt lat="49.10711" lon="0.01107">
        <ele>25.7</ele>
        <time>2023-11-22T14:17:58Z</time>
      </trkpt>
      <trkpt lat="49.10707" lon="0.01114">
        <ele>25.7</ele>
        <time>2023-11-22T14:17:59Z</time>
      </trkpt>
      <trkpt lat="49.10704" lon="0.01122">
        <ele>25.7</ele>
        <time>2023-11-22T14:18:00Z</time>
      </trkpt>
      <trkpt lat="49.10701" lon="0.0113">
        <ele>25.8</ele>
        <time>2023-11-22T14:18:01Z</time>
      </trkpt>
      <trkpt lat="49.10699" lon="0.01138">
        <ele>25.8</ele>
        <time>2023-11-22T14:18:02Z</time>
      </trkpt>
      <trkpt lat="49.10697" lon="0.01146">
        <ele>25.9</ele>
        <time>2023-11-22T14:18:03Z</time>
      </trkpt>
      <trkpt lat="49.10695" lon="0.01154">
        <ele>25.9</ele>
        <time>2023-11-22T14:18:04Z</time>
      </trkpt>
      <trkpt lat="49.10693" lon="0.01162">
        <ele>25.8</ele>
        <time>2023-11-22T14:18:05Z</time>
      </trkpt>
      <trkpt lat="49.10691" lon="0.0117">
        <ele>25.8</ele>
        <time>2023-11-22T14:18:06Z</time>
      </trkpt>
      <trkpt lat="49.1069" lon="0.01178">
        <ele>25.8</ele>
        <time>2023-11-22T14:18:07Z</time>
      </trkpt>
      <trkpt lat="49.10688" lon="0.01186">
        <ele>25.7</ele>
        <time>2023-11-22T14:18:08Z</time>
      </trkpt>
      <trkpt lat="49.10686" lon="0.01194">
        <ele>25.7</ele>
        <time>2023-11-22T14:18:09Z</time>
      </trkpt>
      <trkpt lat="49.10685" lon="0.01202">
        <ele>25.6</ele>
        <time>2023-11-22T14:18:10Z</time>
      </trkpt>
      <trkpt lat="49.10683" lon="0.01209">
        <ele>25.6</ele>
        <time>2023-11-22T14:18:11Z</time>
      </trkpt>
      <trkpt lat="49.10681" lon="0.01216">
        <ele>25.5</ele>
        <time>2023-11-22T14:18:12Z</time>
      </trkpt>
      <trkpt lat="49.1068" lon="0.01224">
        <ele>25.4</ele>
        <time>2023-11-22T14:18:13Z</time>
      </trkpt>
      <trkpt lat="49.10678" lon="0.01232">
        <ele>25.3</ele>
        <time>2023-11-22T14:18:14Z</time>
      </trkpt>
      <trkpt lat="49.10676" lon="0.0124">
        <ele>25.3</ele>
        <time>2023-11-22T14:18:15Z</time>
      </trkpt>
      <trkpt lat="49.10675" lon="0.0125">
        <ele>25.2</ele>
        <time>2023-11-22T14:18:16Z</time>
      </trkpt>
      <trkpt lat="49.10673" lon="0.01259">
        <ele>25.1</ele>
        <time>2023-11-22T14:18:17Z</time>
      </trkpt>
      <trkpt lat="49.10671" lon="0.01268">
        <ele>25.1</ele>
        <time>2023-11-22T14:18:18Z</time>
      </trkpt>
      <trkpt lat="49.10669" lon="0.01278">
        <ele>25.1</ele>
        <time>2023-11-22T14:18:19Z</time>
      </trkpt>
      <trkpt lat="49.10668" lon="0.01287">
        <ele>25</ele>
        <time>2023-11-22T14:18:20Z</time>
      </trkpt>
      <trkpt lat="49.10666" lon="0.01297">
        <ele>25</ele>
        <time>2023-11-22T14:18:21Z</time>
      </trkpt>
      <trkpt lat="49.10664" lon="0.01307">
        <ele>25</ele>
        <time>2023-11-22T14:18:22Z</time>
      </trkpt>
      <trkpt lat="49.10662" lon="0.01318">
        <ele>25</ele>
        <time>2023-11-22T14:18:23Z</time>
      </trkpt>
      <trkpt lat="49.1066" lon="0.01329">
        <ele>25</ele>
        <time>2023-11-22T14:18:24Z</time>
      </trkpt>
      <trkpt lat="49.10658" lon="0.01339">
        <ele>24.9</ele>
        <time>2023-11-22T14:18:25Z</time>
      </trkpt>
      <trkpt lat="49.10656" lon="0.0135">
        <ele>24.9</ele>
        <time>2023-11-22T14:18:26Z</time>
      </trkpt>
      <trkpt lat="49.10654" lon="0.01361">
        <ele>24.9</ele>
        <time>2023-11-22T14:18:27Z</time>
      </trkpt>
      <trkpt lat="49.10652" lon="0.01372">
        <ele>24.9</ele>
        <time>2023-11-22T14:18:28Z</time>
      </trkpt>
      <trkpt lat="49.1065" lon="0.01382">
        <ele>24.8</ele>
        <time>2023-11-22T14:18:29Z</time>
      </trkpt>
      <trkpt lat="49.10648" lon="0.01393">
        <ele>24.8</ele>
        <time>2023-11-22T14:18:30Z</time>
      </trkpt>
      <trkpt lat="49.10645" lon="0.01404">
        <ele>24.8</ele>
        <time>2023-11-22T14:18:31Z</time>
      </trkpt>
      <trkpt lat="49.10643" lon="0.01415">
        <ele>24.8</ele>
        <time>2023-11-22T14:18:32Z</time>
      </trkpt>
      <trkpt lat="49.10641" lon="0.01425">
        <ele>24.8</ele>
        <time>2023-11-22T14:18:33Z</time>
      </trkpt>
      <trkpt lat="49.10639" lon="0.01436">
        <ele>24.8</ele>
        <time>2023-11-22T14:18:34Z</time>
      </trkpt>
      <trkpt lat="49.10638" lon="0.01446">
        <ele>24.8</ele>
        <time>2023-11-22T14:18:35Z</time>
      </trkpt>
      <trkpt lat="49.10636" lon="0.01455">
        <ele>24.8</ele>
        <time>2023-11-22T14:18:36Z</time>
      </trkpt>
      <trkpt lat="49.10634" lon="0.01465">
        <ele>24.8</ele>
        <time>2023-11-22T14:18:37Z</time>
      </trkpt>
      <trkpt lat="49.10632" lon="0.01474">
        <ele>24.8</ele>
        <time>2023-11-22T14:18:38Z</time>
      </trkpt>
      <trkpt lat="49.1063" lon="0.01483">
        <ele>24.8</ele>
        <time>2023-11-22T14:18:39Z</time>
      </trkpt>
      <trkpt lat="49.10628" lon="0.01493">
        <ele>24.8</ele>
        <time>2023-11-22T14:18:40Z</time>
      </trkpt>
      <trkpt lat="49.10626" lon="0.01502">
        <ele>24.8</ele>
        <time>2023-11-22T14:18:41Z</time>
      </trkpt>
      <trkpt lat="49.10624" lon="0.01511">
        <ele>24.8</ele>
        <time>2023-11-22T14:18:42Z</time>
      </trkpt>
      <trkpt lat="49.10623" lon="0.01521">
        <ele>24.8</ele>
        <time>2023-11-22T14:18:43Z</time>
      </trkpt>
      <trkpt lat="49.10621" lon="0.0153">
        <ele>24.8</ele>
        <time>2023-11-22T14:18:44Z</time>
      </trkpt>
      <trkpt lat="49.10619" lon="0.01539">
        <ele>24.8</ele>
        <time>2023-11-22T14:18:45Z</time>
      </trkpt>
      <trkpt lat="49.10617" lon="0.01549">
        <ele>24.8</ele>
        <time>2023-11-22T14:18:46Z</time>
      </trkpt>
      <trkpt lat="49.10615" lon="0.01559">
        <ele>24.8</ele>
        <time>2023-11-22T14:18:47Z</time>
      </trkpt>
      <trkpt lat="49.10612" lon="0.01569">
        <ele>24.7</ele>
        <time>2023-11-22T14:18:48Z</time>
      </trkpt>
      <trkpt lat="49.1061" lon="0.01578">
        <ele>24.7</ele>
        <time>2023-11-22T14:18:49Z</time>
      </trkpt>
      <trkpt lat="49.10607" lon="0.01587">
        <ele>24.7</ele>
        <time>2023-11-22T14:18:50Z</time>
      </trkpt>
      <trkpt lat="49.10604" lon="0.01596">
        <ele>24.7</ele>
        <time>2023-11-22T14:18:51Z</time>
      </trkpt>
      <trkpt lat="49.106" lon="0.01606">
        <ele>24.7</ele>
        <time>2023-11-22T14:18:52Z</time>
      </trkpt>
      <trkpt lat="49.10597" lon="0.01615">
        <ele>24.7</ele>
        <time>2023-11-22T14:18:53Z</time>
      </trkpt>
      <trkpt lat="49.10594" lon="0.01624">
        <ele>24.7</ele>
        <time>2023-11-22T14:18:54Z</time>
      </trkpt>
      <trkpt lat="49.1059" lon="0.01634">
        <ele>24.8</ele>
        <time>2023-11-22T14:18:55Z</time>
      </trkpt>
      <trkpt lat="49.10587" lon="0.01643">
        <ele>24.8</ele>
        <time>2023-11-22T14:18:56Z</time>
      </trkpt>
      <trkpt lat="49.10583" lon="0.01652">
        <ele>24.9</ele>
        <time>2023-11-22T14:18:57Z</time>
      </trkpt>
      <trkpt lat="49.1058" lon="0.01662">
        <ele>24.9</ele>
        <time>2023-11-22T14:18:58Z</time>
      </trkpt>
      <trkpt lat="49.10577" lon="0.01671">
        <ele>25</ele>
        <time>2023-11-22T14:18:59Z</time>
      </trkpt>
      <trkpt lat="49.10574" lon="0.0168">
        <ele>25</ele>
        <time>2023-11-22T14:19:00Z</time>
      </trkpt>
      <trkpt lat="49.10571" lon="0.01689">
        <ele>25.1</ele>
        <time>2023-11-22T14:19:01Z</time>
      </trkpt>
      <trkpt lat="49.10567" lon="0.01698">
        <ele>25.1</ele>
        <time>2023-11-22T14:19:02Z</time>
      </trkpt>
      <trkpt lat="49.10564" lon="0.01706">
        <ele>25.2</ele>
        <time>2023-11-22T14:19:03Z</time>
      </trkpt>
      <trkpt lat="49.10561" lon="0.01716">
        <ele>25.2</ele>
        <time>2023-11-22T14:19:04Z</time>
      </trkpt>
      <trkpt lat="49.10559" lon="0.01725">
        <ele>25.3</ele>
        <time>2023-11-22T14:19:05Z</time>
      </trkpt>
      <trkpt lat="49.10556" lon="0.01734">
        <ele>25.3</ele>
        <time>2023-11-22T14:19:06Z</time>
      </trkpt>
      <trkpt lat="49.10553" lon="0.01743">
        <ele>25.4</ele>
        <time>2023-11-22T14:19:07Z</time>
      </trkpt>
      <trkpt lat="49.1055" lon="0.01752">
        <ele>25.5</ele>
        <time>2023-11-22T14:19:08Z</time>
      </trkpt>
      <trkpt lat="49.10548" lon="0.01761">
        <ele>25.6</ele>
        <time>2023-11-22T14:19:09Z</time>
      </trkpt>
      <trkpt lat="49.10545" lon="0.0177">
        <ele>25.6</ele>
        <time>2023-11-22T14:19:10Z</time>
      </trkpt>
      <trkpt lat="49.10543" lon="0.0178">
        <ele>25.7</ele>
        <time>2023-11-22T14:19:11Z</time>
      </trkpt>
      <trkpt lat="49.10541" lon="0.0179">
        <ele>25.8</ele>
        <time>2023-11-22T14:19:12Z</time>
      </trkpt>
      <trkpt lat="49.10539" lon="0.01799">
        <ele>25.9</ele>
        <time>2023-11-22T14:19:13Z</time>
      </trkpt>
      <trkpt lat="49.10537" lon="0.01809">
        <ele>25.9</ele>
        <time>2023-11-22T14:19:14Z</time>
      </trkpt>
      <trkpt lat="49.10536" lon="0.01818">
        <ele>26</ele>
        <time>2023-11-22T14:19:15Z</time>
      </trkpt>
      <trkpt lat="49.10534" lon="0.01828">
        <ele>26.1</ele>
        <time>2023-11-22T14:19:16Z</time>
      </trkpt>
      <trkpt lat="49.10532" lon="0.01838">
        <ele>26.2</ele>
        <time>2023-11-22T14:19:17Z</time>
      </trkpt>
      <trkpt lat="49.10531" lon="0.01847">
        <ele>26.3</ele>
        <time>2023-11-22T14:19:18Z</time>
      </trkpt>
      <trkpt lat="49.10529" lon="0.01857">
        <ele>26.3</ele>
        <time>2023-11-22T14:19:19Z</time>
      </trkpt>
      <trkpt lat="49.10528" lon="0.01867">
        <ele>26.4</ele>
        <time>2023-11-22T14:19:20Z</time>
      </trkpt>
      <trkpt lat="49.10526" lon="0.01876">
        <ele>26.4</ele>
        <time>2023-11-22T14:19:21Z</time>
      </trkpt>
      <trkpt lat="49.10525" lon="0.01886">
        <ele>26.5</ele>
        <time>2023-11-22T14:19:22Z</time>
      </trkpt>
      <trkpt lat="49.10524" lon="0.01896">
        <ele>26.6</ele>
        <time>2023-11-22T14:19:23Z</time>
      </trkpt>
      <trkpt lat="49.10522" lon="0.01905">
        <ele>26.8</ele>
        <time>2023-11-22T14:19:24Z</time>
      </trkpt>
      <trkpt lat="49.10521" lon="0.01915">
        <ele>26.9</ele>
        <time>2023-11-22T14:19:25Z</time>
      </trkpt>
      <trkpt lat="49.1052" lon="0.01924">
        <ele>27</ele>
        <time>2023-11-22T14:19:26Z</time>
      </trkpt>
      <trkpt lat="49.10519" lon="0.01933">
        <ele>27.2</ele>
        <time>2023-11-22T14:19:27Z</time>
      </trkpt>
      <trkpt lat="49.10518" lon="0.01942">
        <ele>27.3</ele>
        <time>2023-11-22T14:19:28Z</time>
      </trkpt>
      <trkpt lat="49.10516" lon="0.0195">
        <ele>27.4</ele>
        <time>2023-11-22T14:19:29Z</time>
      </trkpt>
      <trkpt lat="49.10515" lon="0.01957">
        <ele>27.5</ele>
        <time>2023-11-22T14:19:30Z</time>
      </trkpt>
      <trkpt lat="49.10514" lon="0.01965">
        <ele>27.6</ele>
        <time>2023-11-22T14:19:31Z</time>
      </trkpt>
      <trkpt lat="49.10512" lon="0.01973">
        <ele>27.7</ele>
        <time>2023-11-22T14:19:32Z</time>
      </trkpt>
      <trkpt lat="49.10511" lon="0.01981">
        <ele>27.8</ele>
        <time>2023-11-22T14:19:33Z</time>
      </trkpt>
      <trkpt lat="49.10509" lon="0.01988">
        <ele>27.9</ele>
        <time>2023-11-22T14:19:34Z</time>
      </trkpt>
      <trkpt lat="49.10508" lon="0.01996">
        <ele>27.9</ele>
        <time>2023-11-22T14:19:35Z</time>
      </trkpt>
      <trkpt lat="49.10506" lon="0.02004">
        <ele>28</ele>
        <time>2023-11-22T14:19:36Z</time>
      </trkpt>
      <trkpt lat="49.10503" lon="0.02011">
        <ele>28</ele>
        <time>2023-11-22T14:19:37Z</time>
      </trkpt>
      <trkpt lat="49.10501" lon="0.02019">
        <ele>28.1</ele>
        <time>2023-11-22T14:19:38Z</time>
      </trkpt>
      <trkpt lat="49.10499" lon="0.02027">
        <ele>28.2</ele>
        <time>2023-11-22T14:19:39Z</time>
      </trkpt>
      <trkpt lat="49.10496" lon="0.02034">
        <ele>28.3</ele>
        <time>2023-11-22T14:19:40Z</time>
      </trkpt>
      <trkpt lat="49.10493" lon="0.02041">
        <ele>28.3</ele>
        <time>2023-11-22T14:19:41Z</time>
      </trkpt>
      <trkpt lat="49.1049" lon="0.02049">
        <ele>28.4</ele>
        <time>2023-11-22T14:19:42Z</time>
      </trkpt>
      <trkpt lat="49.10487" lon="0.02056">
        <ele>28.5</ele>
        <time>2023-11-22T14:19:43Z</time>
      </trkpt>
      <trkpt lat="49.10484" lon="0.02063">
        <ele>28.6</ele>
        <time>2023-11-22T14:19:44Z</time>
      </trkpt>
      <trkpt lat="49.10481" lon="0.02071">
        <ele>28.7</ele>
        <time>2023-11-22T14:19:45Z</time>
      </trkpt>
      <trkpt lat="49.10478" lon="0.02078">
        <ele>28.8</ele>
        <time>2023-11-22T14:19:46Z</time>
      </trkpt>
      <trkpt lat="49.10476" lon="0.02086">
        <ele>28.9</ele>
        <time>2023-11-22T14:19:47Z</time>
      </trkpt>
      <trkpt lat="49.10474" lon="0.02095">
        <ele>28.9</ele>
        <time>2023-11-22T14:19:48Z</time>
      </trkpt>
      <trkpt lat="49.10471" lon="0.02103">
        <ele>29</ele>
        <time>2023-11-22T14:19:49Z</time>
      </trkpt>
      <trkpt lat="49.10469" lon="0.02112">
        <ele>29.1</ele>
        <time>2023-11-22T14:19:50Z</time>
      </trkpt>
      <trkpt lat="49.10467" lon="0.02121">
        <ele>29.3</ele>
        <time>2023-11-22T14:19:51Z</time>
      </trkpt>
      <trkpt lat="49.10466" lon="0.02131">
        <ele>29.4</ele>
        <time>2023-11-22T14:19:52Z</time>
      </trkpt>
      <trkpt lat="49.10465" lon="0.0214">
        <ele>29.5</ele>
        <time>2023-11-22T14:19:53Z</time>
      </trkpt>
      <trkpt lat="49.10465" lon="0.0215">
        <ele>29.6</ele>
        <time>2023-11-22T14:19:54Z</time>
      </trkpt>
      <trkpt lat="49.10465" lon="0.0216">
        <ele>29.7</ele>
        <time>2023-11-22T14:19:55Z</time>
      </trkpt>
      <trkpt lat="49.10465" lon="0.0217">
        <ele>29.8</ele>
        <time>2023-11-22T14:19:56Z</time>
      </trkpt>
      <trkpt lat="49.10466" lon="0.02181">
        <ele>29.8</ele>
        <time>2023-11-22T14:19:57Z</time>
      </trkpt>
      <trkpt lat="49.10467" lon="0.02192">
        <ele>29.9</ele>
        <time>2023-11-22T14:19:58Z</time>
      </trkpt>
      <trkpt lat="49.10469" lon="0.02202">
        <ele>30</ele>
        <time>2023-11-22T14:19:59Z</time>
      </trkpt>
      <trkpt lat="49.10472" lon="0.02212">
        <ele>30.1</ele>
        <time>2023-11-22T14:20:00Z</time>
      </trkpt>
      <trkpt lat="49.10476" lon="0.02222">
        <ele>30.1</ele>
        <time>2023-11-22T14:20:01Z</time>
      </trkpt>
      <trkpt lat="49.10479" lon="0.02231">
        <ele>30.1</ele>
        <time>2023-11-22T14:20:02Z</time>
      </trkpt>
      <trkpt lat="49.10483" lon="0.02239">
        <ele>30.1</ele>
        <time>2023-11-22T14:20:03Z</time>
      </trkpt>
      <trkpt lat="49.10487" lon="0.02248">
        <ele>30.1</ele>
        <time>2023-11-22T14:20:04Z</time>
      </trkpt>
      <trkpt lat="49.10492" lon="0.02256">
        <ele>30</ele>
        <time>2023-11-22T14:20:05Z</time>
      </trkpt>
      <trkpt lat="49.10496" lon="0.02265">
        <ele>30</ele>
        <time>2023-11-22T14:20:06Z</time>
      </trkpt>
      <trkpt lat="49.105" lon="0.02274">
        <ele>29.9</ele>
        <time>2023-11-22T14:20:07Z</time>
      </trkpt>
      <trkpt lat="49.10503" lon="0.02284">
        <ele>29.9</ele>
        <time>2023-11-22T14:20:08Z</time>
      </trkpt>
      <trkpt lat="49.10506" lon="0.02294">
        <ele>29.8</ele>
        <time>2023-11-22T14:20:09Z</time>
      </trkpt>
      <trkpt lat="49.10508" lon="0.02304">
        <ele>29.7</ele>
        <time>2023-11-22T14:20:10Z</time>
      </trkpt>
      <trkpt lat="49.10511" lon="0.02315">
        <ele>29.7</ele>
        <time>2023-11-22T14:20:11Z</time>
      </trkpt>
      <trkpt lat="49.10513" lon="0.02326">
        <ele>29.6</ele>
        <time>2023-11-22T14:20:12Z</time>
      </trkpt>
      <trkpt lat="49.10515" lon="0.02338">
        <ele>29.5</ele>
        <time>2023-11-22T14:20:13Z</time>
      </trkpt>
      <trkpt lat="49.10517" lon="0.0235">
        <ele>29.4</ele>
        <time>2023-11-22T14:20:14Z</time>
      </trkpt>
      <trkpt lat="49.1052" lon="0.02361">
        <ele>29.4</ele>
        <time>2023-11-22T14:20:15Z</time>
      </trkpt>
      <trkpt lat="49.10522" lon="0.02373">
        <ele>29.3</ele>
        <time>2023-11-22T14:20:16Z</time>
      </trkpt>
      <trkpt lat="49.10525" lon="0.02385">
        <ele>29.2</ele>
        <time>2023-11-22T14:20:17Z</time>
      </trkpt>
      <trkpt lat="49.10527" lon="0.02397">
        <ele>29.1</ele>
        <time>2023-11-22T14:20:18Z</time>
      </trkpt>
      <trkpt lat="49.10529" lon="0.02409">
        <ele>29</ele>
        <time>2023-11-22T14:20:19Z</time>
      </trkpt>
      <trkpt lat="49.1053" lon="0.02421">
        <ele>28.9</ele>
        <time>2023-11-22T14:20:20Z</time>
      </trkpt>
      <trkpt lat="49.10532" lon="0.02433">
        <ele>28.8</ele>
        <time>2023-11-22T14:20:21Z</time>
      </trkpt>
      <trkpt lat="49.10534" lon="0.02445">
        <ele>28.8</ele>
        <time>2023-11-22T14:20:22Z</time>
      </trkpt>
      <trkpt lat="49.10535" lon="0.02457">
        <ele>28.7</ele>
        <time>2023-11-22T14:20:23Z</time>
      </trkpt>
      <trkpt lat="49.10537" lon="0.02469">
        <ele>28.7</ele>
        <time>2023-11-22T14:20:24Z</time>
      </trkpt>
      <trkpt lat="49.10539" lon="0.02481">
        <ele>28.6</ele>
        <time>2023-11-22T14:20:25Z</time>
      </trkpt>
      <trkpt lat="49.1054" lon="0.02494">
        <ele>28.6</ele>
        <time>2023-11-22T14:20:26Z</time>
      </trkpt>
      <trkpt lat="49.10541" lon="0.02506">
        <ele>28.5</ele>
        <time>2023-11-22T14:20:27Z</time>
      </trkpt>
      <trkpt lat="49.10542" lon="0.02518">
        <ele>28.5</ele>
        <time>2023-11-22T14:20:28Z</time>
      </trkpt>
      <trkpt lat="49.10543" lon="0.0253">
        <ele>28.4</ele>
        <time>2023-11-22T14:20:29Z</time>
      </trkpt>
      <trkpt lat="49.10544" lon="0.02542">
        <ele>28.4</ele>
        <time>2023-11-22T14:20:30Z</time>
      </trkpt>
      <trkpt lat="49.10546" lon="0.02554">
        <ele>28.3</ele>
        <time>2023-11-22T14:20:31Z</time>
      </trkpt>
      <trkpt lat="49.10547" lon="0.02567">
        <ele>28.2</ele>
        <time>2023-11-22T14:20:32Z</time>
      </trkpt>
      <trkpt lat="49.10549" lon="0.02579">
        <ele>28.1</ele>
        <time>2023-11-22T14:20:33Z</time>
      </trkpt>
      <trkpt lat="49.1055" lon="0.02592">
        <ele>28.1</ele>
        <time>2023-11-22T14:20:34Z</time>
      </trkpt>
      <trkpt lat="49.10551" lon="0.02605">
        <ele>28.1</ele>
        <time>2023-11-22T14:20:35Z</time>
      </trkpt>
      <trkpt lat="49.10552" lon="0.02618">
        <ele>28</ele>
        <time>2023-11-22T14:20:36Z</time>
      </trkpt>
      <trkpt lat="49.10554" lon="0.02631">
        <ele>27.9</ele>
        <time>2023-11-22T14:20:37Z</time>
      </trkpt>
      <trkpt lat="49.10555" lon="0.02644">
        <ele>27.8</ele>
        <time>2023-11-22T14:20:38Z</time>
      </trkpt>
      <trkpt lat="49.10556" lon="0.02657">
        <ele>27.7</ele>
        <time>2023-11-22T14:20:39Z</time>
      </trkpt>
      <trkpt lat="49.10557" lon="0.0267">
        <ele>27.6</ele>
        <time>2023-11-22T14:20:40Z</time>
      </trkpt>
      <trkpt lat="49.10559" lon="0.02683">
        <ele>27.5</ele>
        <time>2023-11-22T14:20:41Z</time>
      </trkpt>
      <trkpt lat="49.1056" lon="0.02696">
        <ele>27.4</ele>
        <time>2023-11-22T14:20:42Z</time>
      </trkpt>
      <trkpt lat="49.10561" lon="0.02709">
        <ele>27.4</ele>
        <time>2023-11-22T14:20:43Z</time>
      </trkpt>
      <trkpt lat="49.10562" lon="0.02722">
        <ele>27.3</ele>
        <time>2023-11-22T14:20:44Z</time>
      </trkpt>
      <trkpt lat="49.10563" lon="0.02734">
        <ele>27.3</ele>
        <time>2023-11-22T14:20:45Z</time>
      </trkpt>
      <trkpt lat="49.10564" lon="0.02747">
        <ele>27.2</ele>
        <time>2023-11-22T14:20:46Z</time>
      </trkpt>
      <trkpt lat="49.10565" lon="0.0276">
        <ele>27.1</ele>
        <time>2023-11-22T14:20:47Z</time>
      </trkpt>
      <trkpt lat="49.10566" lon="0.02773">
        <ele>27.1</ele>
        <time>2023-11-22T14:20:48Z</time>
      </trkpt>
      <trkpt lat="49.10568" lon="0.02786">
        <ele>27</ele>
        <time>2023-11-22T14:20:49Z</time>
      </trkpt>
      <trkpt lat="49.10569" lon="0.02799">
        <ele>27</ele>
        <time>2023-11-22T14:20:50Z</time>
      </trkpt>
      <trkpt lat="49.1057" lon="0.02812">
        <ele>26.9</ele>
        <time>2023-11-22T14:20:51Z</time>
      </trkpt>
      <trkpt lat="49.10572" lon="0.02826">
        <ele>26.9</ele>
        <time>2023-11-22T14:20:52Z</time>
      </trkpt>
      <trkpt lat="49.10574" lon="0.0284">
        <ele>26.9</ele>
        <time>2023-11-22T14:20:53Z</time>
      </trkpt>
      <trkpt lat="49.10576" lon="0.02853">
        <ele>26.9</ele>
        <time>2023-11-22T14:20:54Z</time>
      </trkpt>
      <trkpt lat="49.10578" lon="0.02865">
        <ele>26.9</ele>
        <time>2023-11-22T14:20:55Z</time>
      </trkpt>
      <trkpt lat="49.1058" lon="0.02878">
        <ele>27</ele>
        <time>2023-11-22T14:20:56Z</time>
      </trkpt>
      <trkpt lat="49.10581" lon="0.02891">
        <ele>27</ele>
        <time>2023-11-22T14:20:57Z</time>
      </trkpt>
      <trkpt lat="49.10584" lon="0.02904">
        <ele>27</ele>
        <time>2023-11-22T14:20:58Z</time>
      </trkpt>
      <trkpt lat="49.10586" lon="0.02916">
        <ele>27</ele>
        <time>2023-11-22T14:20:59Z</time>
      </trkpt>
      <trkpt lat="49.10588" lon="0.02928">
        <ele>27</ele>
        <time>2023-11-22T14:21:00Z</time>
      </trkpt>
      <trkpt lat="49.1059" lon="0.02941">
        <ele>27</ele>
        <time>2023-11-22T14:21:01Z</time>
      </trkpt>
      <trkpt lat="49.10592" lon="0.02954">
        <ele>27</ele>
        <time>2023-11-22T14:21:02Z</time>
      </trkpt>
      <trkpt lat="49.10594" lon="0.02967">
        <ele>27</ele>
        <time>2023-11-22T14:21:03Z</time>
      </trkpt>
      <trkpt lat="49.10596" lon="0.0298">
        <ele>27</ele>
        <time>2023-11-22T14:21:04Z</time>
      </trkpt>
      <trkpt lat="49.10599" lon="0.02992">
        <ele>27.1</ele>
        <time>2023-11-22T14:21:05Z</time>
      </trkpt>
      <trkpt lat="49.10601" lon="0.03005">
        <ele>27.2</ele>
        <time>2023-11-22T14:21:06Z</time>
      </trkpt>
      <trkpt lat="49.10603" lon="0.03018">
        <ele>27.2</ele>
        <time>2023-11-22T14:21:07Z</time>
      </trkpt>
      <trkpt lat="49.10606" lon="0.03031">
        <ele>27.3</ele>
        <time>2023-11-22T14:21:08Z</time>
      </trkpt>
      <trkpt lat="49.10608" lon="0.03043">
        <ele>27.3</ele>
        <time>2023-11-22T14:21:09Z</time>
      </trkpt>
      <trkpt lat="49.10611" lon="0.03056">
        <ele>27.3</ele>
        <time>2023-11-22T14:21:10Z</time>
      </trkpt>
      <trkpt lat="49.10614" lon="0.03069">
        <ele>27.4</ele>
        <time>2023-11-22T14:21:11Z</time>
      </trkpt>
      <trkpt lat="49.10617" lon="0.03081">
        <ele>27.5</ele>
        <time>2023-11-22T14:21:12Z</time>
      </trkpt>
      <trkpt lat="49.1062" lon="0.03092">
        <ele>27.6</ele>
        <time>2023-11-22T14:21:13Z</time>
      </trkpt>
      <trkpt lat="49.10623" lon="0.03104">
        <ele>27.7</ele>
        <time>2023-11-22T14:21:14Z</time>
      </trkpt>
      <trkpt lat="49.10626" lon="0.03115">
        <ele>27.8</ele>
        <time>2023-11-22T14:21:15Z</time>
      </trkpt>
      <trkpt lat="49.10629" lon="0.03127">
        <ele>27.8</ele>
        <time>2023-11-22T14:21:16Z</time>
      </trkpt>
      <trkpt lat="49.10631" lon="0.03138">
        <ele>27.8</ele>
        <time>2023-11-22T14:21:17Z</time>
      </trkpt>
      <trkpt lat="49.10632" lon="0.03149">
        <ele>27.7</ele>
        <time>2023-11-22T14:21:18Z</time>
      </trkpt>
      <trkpt lat="49.10633" lon="0.0316">
        <ele>27.7</ele>
        <time>2023-11-22T14:21:19Z</time>
      </trkpt>
      <trkpt lat="49.10633" lon="0.03173">
        <ele>27.7</ele>
        <time>2023-11-22T14:21:20Z</time>
      </trkpt>
      <trkpt lat="49.10632" lon="0.03184">
        <ele>27.7</ele>
        <time>2023-11-22T14:21:21Z</time>
      </trkpt>
      <trkpt lat="49.10631" lon="0.03196">
        <ele>27.6</ele>
        <time>2023-11-22T14:21:22Z</time>
      </trkpt>
      <trkpt lat="49.10629" lon="0.03207">
        <ele>27.6</ele>
        <time>2023-11-22T14:21:23Z</time>
      </trkpt>
      <trkpt lat="49.10627" lon="0.03219">
        <ele>27.6</ele>
        <time>2023-11-22T14:21:24Z</time>
      </trkpt>
      <trkpt lat="49.10625" lon="0.0323">
        <ele>27.5</ele>
        <time>2023-11-22T14:21:25Z</time>
      </trkpt>
      <trkpt lat="49.10623" lon="0.03242">
        <ele>27.5</ele>
        <time>2023-11-22T14:21:26Z</time>
      </trkpt>
      <trkpt lat="49.1062" lon="0.03254">
        <ele>27.4</ele>
        <time>2023-11-22T14:21:27Z</time>
      </trkpt>
      <trkpt lat="49.10618" lon="0.03267">
        <ele>27.4</ele>
        <time>2023-11-22T14:21:28Z</time>
      </trkpt>
      <trkpt lat="49.10616" lon="0.03279">
        <ele>27.3</ele>
        <time>2023-11-22T14:21:29Z</time>
      </trkpt>
      <trkpt lat="49.10614" lon="0.03292">
        <ele>27.3</ele>
        <time>2023-11-22T14:21:30Z</time>
      </trkpt>
      <trkpt lat="49.10613" lon="0.03304">
        <ele>27.3</ele>
        <time>2023-11-22T14:21:31Z</time>
      </trkpt>
      <trkpt lat="49.10612" lon="0.03316">
        <ele>27.3</ele>
        <time>2023-11-22T14:21:32Z</time>
      </trkpt>
      <trkpt lat="49.1061" lon="0.03329">
        <ele>27.3</ele>
        <time>2023-11-22T14:21:33Z</time>
      </trkpt>
      <trkpt lat="49.10609" lon="0.03341">
        <ele>27.3</ele>
        <time>2023-11-22T14:21:34Z</time>
      </trkpt>
      <trkpt lat="49.10607" lon="0.03353">
        <ele>27.2</ele>
        <time>2023-11-22T14:21:35Z</time>
      </trkpt>
      <trkpt lat="49.10606" lon="0.03365">
        <ele>27.1</ele>
        <time>2023-11-22T14:21:36Z</time>
      </trkpt>
      <trkpt lat="49.10605" lon="0.03377">
        <ele>27</ele>
        <time>2023-11-22T14:21:37Z</time>
      </trkpt>
      <trkpt lat="49.10604" lon="0.03388">
        <ele>27</ele>
        <time>2023-11-22T14:21:38Z</time>
      </trkpt>
      <trkpt lat="49.10602" lon="0.034">
        <ele>26.9</ele>
        <time>2023-11-22T14:21:39Z</time>
      </trkpt>
      <trkpt lat="49.10601" lon="0.03411">
        <ele>26.9</ele>
        <time>2023-11-22T14:21:40Z</time>
      </trkpt>
      <trkpt lat="49.10599" lon="0.03422">
        <ele>26.9</ele>
        <time>2023-11-22T14:21:41Z</time>
      </trkpt>
      <trkpt lat="49.10597" lon="0.03433">
        <ele>26.8</ele>
        <time>2023-11-22T14:21:42Z</time>
      </trkpt>
      <trkpt lat="49.10596" lon="0.03445">
        <ele>26.8</ele>
        <time>2023-11-22T14:21:43Z</time>
      </trkpt>
      <trkpt lat="49.10594" lon="0.03457">
        <ele>26.8</ele>
        <time>2023-11-22T14:21:44Z</time>
      </trkpt>
      <trkpt lat="49.10593" lon="0.03468">
        <ele>26.7</ele>
        <time>2023-11-22T14:21:45Z</time>
      </trkpt>
      <trkpt lat="49.10591" lon="0.03481">
        <ele>26.7</ele>
        <time>2023-11-22T14:21:46Z</time>
      </trkpt>
      <trkpt lat="49.10589" lon="0.03492">
        <ele>26.6</ele>
        <time>2023-11-22T14:21:47Z</time>
      </trkpt>
      <trkpt lat="49.10587" lon="0.03504">
        <ele>26.6</ele>
        <time>2023-11-22T14:21:48Z</time>
      </trkpt>
      <trkpt lat="49.10585" lon="0.03516">
        <ele>26.5</ele>
        <time>2023-11-22T14:21:49Z</time>
      </trkpt>
      <trkpt lat="49.10583" lon="0.03528">
        <ele>26.4</ele>
        <time>2023-11-22T14:21:50Z</time>
      </trkpt>
      <trkpt lat="49.1058" lon="0.0354">
        <ele>26.3</ele>
        <time>2023-11-22T14:21:51Z</time>
      </trkpt>
      <trkpt lat="49.10578" lon="0.03552">
        <ele>26.2</ele>
        <time>2023-11-22T14:21:52Z</time>
      </trkpt>
      <trkpt lat="49.10576" lon="0.03564">
        <ele>26</ele>
        <time>2023-11-22T14:21:53Z</time>
      </trkpt>
      <trkpt lat="49.10573" lon="0.03576">
        <ele>25.8</ele>
        <time>2023-11-22T14:21:54Z</time>
      </trkpt>
      <trkpt lat="49.10571" lon="0.03588">
        <ele>25.6</ele>
        <time>2023-11-22T14:21:55Z</time>
      </trkpt>
      <trkpt lat="49.10569" lon="0.03601">
        <ele>25.4</ele>
        <time>2023-11-22T14:21:56Z</time>
      </trkpt>
      <trkpt lat="49.10568" lon="0.03613">
        <ele>25.3</ele>
        <time>2023-11-22T14:21:57Z</time>
      </trkpt>
      <trkpt lat="49.10566" lon="0.03625">
        <ele>25.2</ele>
        <time>2023-11-22T14:21:58Z</time>
      </trkpt>
      <trkpt lat="49.10565" lon="0.03637">
        <ele>25</ele>
        <time>2023-11-22T14:21:59Z</time>
      </trkpt>
      <trkpt lat="49.10564" lon="0.0365">
        <ele>24.9</ele>
        <time>2023-11-22T14:22:00Z</time>
      </trkpt>
      <trkpt lat="49.10563" lon="0.03662">
        <ele>24.7</ele>
        <time>2023-11-22T14:22:01Z</time>
      </trkpt>
      <trkpt lat="49.10562" lon="0.03674">
        <ele>24.4</ele>
        <time>2023-11-22T14:22:02Z</time>
      </trkpt>
      <trkpt lat="49.10561" lon="0.03687">
        <ele>24.2</ele>
        <time>2023-11-22T14:22:03Z</time>
      </trkpt>
      <trkpt lat="49.10561" lon="0.03699">
        <ele>24</ele>
        <time>2023-11-22T14:22:04Z</time>
      </trkpt>
      <trkpt lat="49.1056" lon="0.03712">
        <ele>23.8</ele>
        <time>2023-11-22T14:22:05Z</time>
      </trkpt>
      <trkpt lat="49.1056" lon="0.03724">
        <ele>23.6</ele>
        <time>2023-11-22T14:22:06Z</time>
      </trkpt>
      <trkpt lat="49.10559" lon="0.03737">
        <ele>23.5</ele>
        <time>2023-11-22T14:22:07Z</time>
      </trkpt>
      <trkpt lat="49.10558" lon="0.03749">
        <ele>23.4</ele>
        <time>2023-11-22T14:22:08Z</time>
      </trkpt>
      <trkpt lat="49.10558" lon="0.03762">
        <ele>23.3</ele>
        <time>2023-11-22T14:22:09Z</time>
      </trkpt>
      <trkpt lat="49.10557" lon="0.03774">
        <ele>23.3</ele>
        <time>2023-11-22T14:22:10Z</time>
      </trkpt>
      <trkpt lat="49.10556" lon="0.03786">
        <ele>23.3</ele>
        <time>2023-11-22T14:22:11Z</time>
      </trkpt>
      <trkpt lat="49.10556" lon="0.03798">
        <ele>23.4</ele>
        <time>2023-11-22T14:22:12Z</time>
      </trkpt>
      <trkpt lat="49.10555" lon="0.03809">
        <ele>23.4</ele>
        <time>2023-11-22T14:22:13Z</time>
      </trkpt>
      <trkpt lat="49.10554" lon="0.0382">
        <ele>23.4</ele>
        <time>2023-11-22T14:22:14Z</time>
      </trkpt>
      <trkpt lat="49.10553" lon="0.03832">
        <ele>23.4</ele>
        <time>2023-11-22T14:22:15Z</time>
      </trkpt>
      <trkpt lat="49.10552" lon="0.03843">
        <ele>23.3</ele>
        <time>2023-11-22T14:22:16Z</time>
      </trkpt>
      <trkpt lat="49.10551" lon="0.03855">
        <ele>23.3</ele>
        <time>2023-11-22T14:22:17Z</time>
      </trkpt>
      <trkpt lat="49.10549" lon="0.03867">
        <ele>23.3</ele>
        <time>2023-11-22T14:22:18Z</time>
      </trkpt>
      <trkpt lat="49.10548" lon="0.03879">
        <ele>23.3</ele>
        <time>2023-11-22T14:22:19Z</time>
      </trkpt>
      <trkpt lat="49.10547" lon="0.03891">
        <ele>23.3</ele>
        <time>2023-11-22T14:22:20Z</time>
      </trkpt>
      <trkpt lat="49.10545" lon="0.03904">
        <ele>23.3</ele>
        <time>2023-11-22T14:22:21Z</time>
      </trkpt>
      <trkpt lat="49.10544" lon="0.03916">
        <ele>23.3</ele>
        <time>2023-11-22T14:22:22Z</time>
      </trkpt>
      <trkpt lat="49.10542" lon="0.03928">
        <ele>23.3</ele>
        <time>2023-11-22T14:22:23Z</time>
      </trkpt>
      <trkpt lat="49.10541" lon="0.0394">
        <ele>23.3</ele>
        <time>2023-11-22T14:22:24Z</time>
      </trkpt>
      <trkpt lat="49.1054" lon="0.03952">
        <ele>23.3</ele>
        <time>2023-11-22T14:22:25Z</time>
      </trkpt>
      <trkpt lat="49.10538" lon="0.03963">
        <ele>23.3</ele>
        <time>2023-11-22T14:22:26Z</time>
      </trkpt>
      <trkpt lat="49.10537" lon="0.03975">
        <ele>23.4</ele>
        <time>2023-11-22T14:22:27Z</time>
      </trkpt>
      <trkpt lat="49.10535" lon="0.03986">
        <ele>23.4</ele>
        <time>2023-11-22T14:22:28Z</time>
      </trkpt>
      <trkpt lat="49.10534" lon="0.03998">
        <ele>23.3</ele>
        <time>2023-11-22T14:22:29Z</time>
      </trkpt>
      <trkpt lat="49.10532" lon="0.0401">
        <ele>23.3</ele>
        <time>2023-11-22T14:22:30Z</time>
      </trkpt>
      <trkpt lat="49.1053" lon="0.04022">
        <ele>23.3</ele>
        <time>2023-11-22T14:22:31Z</time>
      </trkpt>
      <trkpt lat="49.10528" lon="0.04034">
        <ele>23.3</ele>
        <time>2023-11-22T14:22:32Z</time>
      </trkpt>
      <trkpt lat="49.10527" lon="0.04047">
        <ele>23.3</ele>
        <time>2023-11-22T14:22:33Z</time>
      </trkpt>
      <trkpt lat="49.10525" lon="0.04059">
        <ele>23.3</ele>
        <time>2023-11-22T14:22:34Z</time>
      </trkpt>
      <trkpt lat="49.10524" lon="0.04071">
        <ele>23.4</ele>
        <time>2023-11-22T14:22:35Z</time>
      </trkpt>
      <trkpt lat="49.10522" lon="0.04084">
        <ele>23.4</ele>
        <time>2023-11-22T14:22:36Z</time>
      </trkpt>
      <trkpt lat="49.10521" lon="0.04095">
        <ele>23.5</ele>
        <time>2023-11-22T14:22:37Z</time>
      </trkpt>
      <trkpt lat="49.1052" lon="0.04107">
        <ele>23.6</ele>
        <time>2023-11-22T14:22:38Z</time>
      </trkpt>
      <trkpt lat="49.10518" lon="0.04118">
        <ele>23.7</ele>
        <time>2023-11-22T14:22:39Z</time>
      </trkpt>
      <trkpt lat="49.10517" lon="0.04129">
        <ele>23.7</ele>
        <time>2023-11-22T14:22:40Z</time>
      </trkpt>
      <trkpt lat="49.10516" lon="0.0414">
        <ele>23.8</ele>
        <time>2023-11-22T14:22:41Z</time>
      </trkpt>
      <trkpt lat="49.10514" lon="0.0415">
        <ele>23.9</ele>
        <time>2023-11-22T14:22:42Z</time>
      </trkpt>
      <trkpt lat="49.10513" lon="0.04161">
        <ele>23.9</ele>
        <time>2023-11-22T14:22:43Z</time>
      </trkpt>
      <trkpt lat="49.10512" lon="0.04172">
        <ele>24</ele>
        <time>2023-11-22T14:22:44Z</time>
      </trkpt>
      <trkpt lat="49.10511" lon="0.04183">
        <ele>24.1</ele>
        <time>2023-11-22T14:22:45Z</time>
      </trkpt>
      <trkpt lat="49.1051" lon="0.04194">
        <ele>24.2</ele>
        <time>2023-11-22T14:22:46Z</time>
      </trkpt>
      <trkpt lat="49.10509" lon="0.04205">
        <ele>24.3</ele>
        <time>2023-11-22T14:22:47Z</time>
      </trkpt>
      <trkpt lat="49.10508" lon="0.04216">
        <ele>24.4</ele>
        <time>2023-11-22T14:22:48Z</time>
      </trkpt>
      <trkpt lat="49.10507" lon="0.04226">
        <ele>24.5</ele>
        <time>2023-11-22T14:22:49Z</time>
      </trkpt>
      <trkpt lat="49.10506" lon="0.04237">
        <ele>24.7</ele>
        <time>2023-11-22T14:22:50Z</time>
      </trkpt>
      <trkpt lat="49.10506" lon="0.04248">
        <ele>24.8</ele>
        <time>2023-11-22T14:22:51Z</time>
      </trkpt>
      <trkpt lat="49.10506" lon="0.04258">
        <ele>25</ele>
        <time>2023-11-22T14:22:52Z</time>
      </trkpt>
      <trkpt lat="49.10507" lon="0.04269">
        <ele>25.2</ele>
        <time>2023-11-22T14:22:53Z</time>
      </trkpt>
      <trkpt lat="49.10507" lon="0.04279">
        <ele>25.3</ele>
        <time>2023-11-22T14:22:54Z</time>
      </trkpt>
      <trkpt lat="49.10508" lon="0.0429">
        <ele>25.5</ele>
        <time>2023-11-22T14:22:55Z</time>
      </trkpt>
      <trkpt lat="49.10509" lon="0.043">
        <ele>25.7</ele>
        <time>2023-11-22T14:22:56Z</time>
      </trkpt>
      <trkpt lat="49.10511" lon="0.0431">
        <ele>25.9</ele>
        <time>2023-11-22T14:22:57Z</time>
      </trkpt>
      <trkpt lat="49.10512" lon="0.0432">
        <ele>26</ele>
        <time>2023-11-22T14:22:58Z</time>
      </trkpt>
      <trkpt lat="49.10515" lon="0.04329">
        <ele>26.2</ele>
        <time>2023-11-22T14:22:59Z</time>
      </trkpt>
      <trkpt lat="49.10517" lon="0.04339">
        <ele>26.4</ele>
        <time>2023-11-22T14:23:00Z</time>
      </trkpt>
      <trkpt lat="49.10519" lon="0.04348">
        <ele>26.6</ele>
        <time>2023-11-22T14:23:01Z</time>
      </trkpt>
      <trkpt lat="49.10521" lon="0.04357">
        <ele>26.8</ele>
        <time>2023-11-22T14:23:02Z</time>
      </trkpt>
      <trkpt lat="49.10523" lon="0.04366">
        <ele>27</ele>
        <time>2023-11-22T14:23:03Z</time>
      </trkpt>
      <trkpt lat="49.10525" lon="0.04375">
        <ele>27.3</ele>
        <time>2023-11-22T14:23:04Z</time>
      </trkpt>
      <trkpt lat="49.10527" lon="0.04384">
        <ele>27.5</ele>
        <time>2023-11-22T14:23:05Z</time>
      </trkpt>
      <trkpt lat="49.10529" lon="0.04392">
        <ele>27.7</ele>
        <time>2023-11-22T14:23:06Z</time>
      </trkpt>
      <trkpt lat="49.10531" lon="0.04401">
        <ele>27.9</ele>
        <time>2023-11-22T14:23:07Z</time>
      </trkpt>
      <trkpt lat="49.10533" lon="0.0441">
        <ele>28.1</ele>
        <time>2023-11-22T14:23:08Z</time>
      </trkpt>
      <trkpt lat="49.10534" lon="0.04419">
        <ele>28.3</ele>
        <time>2023-11-22T14:23:09Z</time>
      </trkpt>
      <trkpt lat="49.10536" lon="0.04428">
        <ele>28.5</ele>
        <time>2023-11-22T14:23:10Z</time>
      </trkpt>
      <trkpt lat="49.10537" lon="0.04437">
        <ele>28.7</ele>
        <time>2023-11-22T14:23:11Z</time>
      </trkpt>
      <trkpt lat="49.10539" lon="0.04446">
        <ele>28.8</ele>
        <time>2023-11-22T14:23:12Z</time>
      </trkpt>
      <trkpt lat="49.10541" lon="0.04455">
        <ele>29</ele>
        <time>2023-11-22T14:23:13Z</time>
      </trkpt>
      <trkpt lat="49.10542" lon="0.04465">
        <ele>29.2</ele>
        <time>2023-11-22T14:23:14Z</time>
      </trkpt>
      <trkpt lat="49.10544" lon="0.04474">
        <ele>29.4</ele>
        <time>2023-11-22T14:23:15Z</time>
      </trkpt>
      <trkpt lat="49.10546" lon="0.04484">
        <ele>29.5</ele>
        <time>2023-11-22T14:23:16Z</time>
      </trkpt>
      <trkpt lat="49.10548" lon="0.04493">
        <ele>29.6</ele>
        <time>2023-11-22T14:23:17Z</time>
      </trkpt>
      <trkpt lat="49.10551" lon="0.04502">
        <ele>29.7</ele>
        <time>2023-11-22T14:23:18Z</time>
      </trkpt>
      <trkpt lat="49.10554" lon="0.04511">
        <ele>29.8</ele>
        <time>2023-11-22T14:23:19Z</time>
      </trkpt>
      <trkpt lat="49.10558" lon="0.0452">
        <ele>29.9</ele>
        <time>2023-11-22T14:23:20Z</time>
      </trkpt>
      <trkpt lat="49.10562" lon="0.04529">
        <ele>29.9</ele>
        <time>2023-11-22T14:23:21Z</time>
      </trkpt>
      <trkpt lat="49.10565" lon="0.04538">
        <ele>29.8</ele>
        <time>2023-11-22T14:23:22Z</time>
      </trkpt>
      <trkpt lat="49.10569" lon="0.04547">
        <ele>29.8</ele>
        <time>2023-11-22T14:23:23Z</time>
      </trkpt>
      <trkpt lat="49.10573" lon="0.04556">
        <ele>29.7</ele>
        <time>2023-11-22T14:23:24Z</time>
      </trkpt>
      <trkpt lat="49.10577" lon="0.04566">
        <ele>29.7</ele>
        <time>2023-11-22T14:23:25Z</time>
      </trkpt>
      <trkpt lat="49.1058" lon="0.04575">
        <ele>29.6</ele>
        <time>2023-11-22T14:23:26Z</time>
      </trkpt>
      <trkpt lat="49.10583" lon="0.04585">
        <ele>29.6</ele>
        <time>2023-11-22T14:23:27Z</time>
      </trkpt>
      <trkpt lat="49.10586" lon="0.04596">
        <ele>29.5</ele>
        <time>2023-11-22T14:23:28Z</time>
      </trkpt>
      <trkpt lat="49.10588" lon="0.04606">
        <ele>29.5</ele>
        <time>2023-11-22T14:23:29Z</time>
      </trkpt>
      <trkpt lat="49.1059" lon="0.04618">
        <ele>29.4</ele>
        <time>2023-11-22T14:23:30Z</time>
      </trkpt>
      <trkpt lat="49.10592" lon="0.04629">
        <ele>29.4</ele>
        <time>2023-11-22T14:23:31Z</time>
      </trkpt>
      <trkpt lat="49.10592" lon="0.0464">
        <ele>29.4</ele>
        <time>2023-11-22T14:23:32Z</time>
      </trkpt>
      <trkpt lat="49.10592" lon="0.04651">
        <ele>29.4</ele>
        <time>2023-11-22T14:23:33Z</time>
      </trkpt>
      <trkpt lat="49.10591" lon="0.04662">
        <ele>29.4</ele>
        <time>2023-11-22T14:23:34Z</time>
      </trkpt>
      <trkpt lat="49.10589" lon="0.04673">
        <ele>29.4</ele>
        <time>2023-11-22T14:23:35Z</time>
      </trkpt>
      <trkpt lat="49.10587" lon="0.04684">
        <ele>29.4</ele>
        <time>2023-11-22T14:23:36Z</time>
      </trkpt>
      <trkpt lat="49.10584" lon="0.04695">
        <ele>29.4</ele>
        <time>2023-11-22T14:23:37Z</time>
      </trkpt>
      <trkpt lat="49.10582" lon="0.04706">
        <ele>29.4</ele>
        <time>2023-11-22T14:23:38Z</time>
      </trkpt>
      <trkpt lat="49.10579" lon="0.04716">
        <ele>29.4</ele>
        <time>2023-11-22T14:23:39Z</time>
      </trkpt>
      <trkpt lat="49.10576" lon="0.04726">
        <ele>29.4</ele>
        <time>2023-11-22T14:23:40Z</time>
      </trkpt>
      <trkpt lat="49.10573" lon="0.04736">
        <ele>29.4</ele>
        <time>2023-11-22T14:23:41Z</time>
      </trkpt>
      <trkpt lat="49.10569" lon="0.04745">
        <ele>29.4</ele>
        <time>2023-11-22T14:23:42Z</time>
      </trkpt>
      <trkpt lat="49.10565" lon="0.04755">
        <ele>29.4</ele>
        <time>2023-11-22T14:23:43Z</time>
      </trkpt>
      <trkpt lat="49.10562" lon="0.04764">
        <ele>29.5</ele>
        <time>2023-11-22T14:23:44Z</time>
      </trkpt>
      <trkpt lat="49.10559" lon="0.04772">
        <ele>29.5</ele>
        <time>2023-11-22T14:23:45Z</time>
      </trkpt>
      <trkpt lat="49.10555" lon="0.04781">
        <ele>29.5</ele>
        <time>2023-11-22T14:23:46Z</time>
      </trkpt>
      <trkpt lat="49.10552" lon="0.04789">
        <ele>29.6</ele>
        <time>2023-11-22T14:23:47Z</time>
      </trkpt>
      <trkpt lat="49.10549" lon="0.04797">
        <ele>29.6</ele>
        <time>2023-11-22T14:23:48Z</time>
      </trkpt>
      <trkpt lat="49.10546" lon="0.04804">
        <ele>29.6</ele>
        <time>2023-11-22T14:23:49Z</time>
      </trkpt>
      <trkpt lat="49.10543" lon="0.04811">
        <ele>29.6</ele>
        <time>2023-11-22T14:23:50Z</time>
      </trkpt>
      <trkpt lat="49.1054" lon="0.04819">
        <ele>29.7</ele>
        <time>2023-11-22T14:23:51Z</time>
      </trkpt>
      <trkpt lat="49.10538" lon="0.04829">
        <ele>29.7</ele>
        <time>2023-11-22T14:23:52Z</time>
      </trkpt>
      <trkpt lat="49.10536" lon="0.04839">
        <ele>29.7</ele>
        <time>2023-11-22T14:23:53Z</time>
      </trkpt>
      <trkpt lat="49.10536" lon="0.04849">
        <ele>29.7</ele>
        <time>2023-11-22T14:23:54Z</time>
      </trkpt>
      <trkpt lat="49.10536" lon="0.0486">
        <ele>29.7</ele>
        <time>2023-11-22T14:23:55Z</time>
      </trkpt>
      <trkpt lat="49.10536" lon="0.04871">
        <ele>29.7</ele>
        <time>2023-11-22T14:23:56Z</time>
      </trkpt>
      <trkpt lat="49.10536" lon="0.04883">
        <ele>29.7</ele>
        <time>2023-11-22T14:23:57Z</time>
      </trkpt>
      <trkpt lat="49.10537" lon="0.04894">
        <ele>29.7</ele>
        <time>2023-11-22T14:23:58Z</time>
      </trkpt>
      <trkpt lat="49.10537" lon="0.04905">
        <ele>29.7</ele>
        <time>2023-11-22T14:23:59Z</time>
      </trkpt>
      <trkpt lat="49.10538" lon="0.04916">
        <ele>29.8</ele>
        <time>2023-11-22T14:24:00Z</time>
      </trkpt>
      <trkpt lat="49.10539" lon="0.04927">
        <ele>29.8</ele>
        <time>2023-11-22T14:24:01Z</time>
      </trkpt>
      <trkpt lat="49.10541" lon="0.04939">
        <ele>29.9</ele>
        <time>2023-11-22T14:24:02Z</time>
      </trkpt>
      <trkpt lat="49.10542" lon="0.0495">
        <ele>29.9</ele>
        <time>2023-11-22T14:24:03Z</time>
      </trkpt>
      <trkpt lat="49.10544" lon="0.04962">
        <ele>30</ele>
        <time>2023-11-22T14:24:04Z</time>
      </trkpt>
      <trkpt lat="49.10545" lon="0.04973">
        <ele>30</ele>
        <time>2023-11-22T14:24:05Z</time>
      </trkpt>
      <trkpt lat="49.10547" lon="0.04986">
        <ele>30.1</ele>
        <time>2023-11-22T14:24:06Z</time>
      </trkpt>
      <trkpt lat="49.10549" lon="0.04998">
        <ele>30.1</ele>
        <time>2023-11-22T14:24:07Z</time>
      </trkpt>
      <trkpt lat="49.1055" lon="0.05009">
        <ele>30.2</ele>
        <time>2023-11-22T14:24:08Z</time>
      </trkpt>
      <trkpt lat="49.10552" lon="0.05022">
        <ele>30.3</ele>
        <time>2023-11-22T14:24:09Z</time>
      </trkpt>
      <trkpt lat="49.10554" lon="0.05034">
        <ele>30.4</ele>
        <time>2023-11-22T14:24:10Z</time>
      </trkpt>
      <trkpt lat="49.10556" lon="0.05046">
        <ele>30.5</ele>
        <time>2023-11-22T14:24:11Z</time>
      </trkpt>
      <trkpt lat="49.10557" lon="0.05058">
        <ele>30.6</ele>
        <time>2023-11-22T14:24:12Z</time>
      </trkpt>
      <trkpt lat="49.10559" lon="0.0507">
        <ele>30.7</ele>
        <time>2023-11-22T14:24:13Z</time>
      </trkpt>
      <trkpt lat="49.1056" lon="0.05082">
        <ele>30.8</ele>
        <time>2023-11-22T14:24:14Z</time>
      </trkpt>
      <trkpt lat="49.10562" lon="0.05094">
        <ele>31</ele>
        <time>2023-11-22T14:24:15Z</time>
      </trkpt>
      <trkpt lat="49.10564" lon="0.05105">
        <ele>31.2</ele>
        <time>2023-11-22T14:24:16Z</time>
      </trkpt>
      <trkpt lat="49.10565" lon="0.05117">
        <ele>31.5</ele>
        <time>2023-11-22T14:24:17Z</time>
      </trkpt>
      <trkpt lat="49.10567" lon="0.05127">
        <ele>31.8</ele>
        <time>2023-11-22T14:24:18Z</time>
      </trkpt>
      <trkpt lat="49.10568" lon="0.05137">
        <ele>32.1</ele>
        <time>2023-11-22T14:24:19Z</time>
      </trkpt>
      <trkpt lat="49.1057" lon="0.05146">
        <ele>32.4</ele>
        <time>2023-11-22T14:24:20Z</time>
      </trkpt>
      <trkpt lat="49.10571" lon="0.05155">
        <ele>32.6</ele>
        <time>2023-11-22T14:24:21Z</time>
      </trkpt>
      <trkpt lat="49.10572" lon="0.05163">
        <ele>32.9</ele>
        <time>2023-11-22T14:24:22Z</time>
      </trkpt>
      <trkpt lat="49.10572" lon="0.05171">
        <ele>33.1</ele>
        <time>2023-11-22T14:24:23Z</time>
      </trkpt>
      <trkpt lat="49.1057" lon="0.05177">
        <ele>33.4</ele>
        <time>2023-11-22T14:24:24Z</time>
      </trkpt>
      <trkpt lat="49.10568" lon="0.05183">
        <ele>33.6</ele>
        <time>2023-11-22T14:24:25Z</time>
      </trkpt>
      <trkpt lat="49.10564" lon="0.05188">
        <ele>33.8</ele>
        <time>2023-11-22T14:24:26Z</time>
      </trkpt>
      <trkpt lat="49.1056" lon="0.05192">
        <ele>33.9</ele>
        <time>2023-11-22T14:24:27Z</time>
      </trkpt>
      <trkpt lat="49.10555" lon="0.05197">
        <ele>34.1</ele>
        <time>2023-11-22T14:24:28Z</time>
      </trkpt>
      <trkpt lat="49.1055" lon="0.05201">
        <ele>34.3</ele>
        <time>2023-11-22T14:24:29Z</time>
      </trkpt>
      <trkpt lat="49.10545" lon="0.05206">
        <ele>34.4</ele>
        <time>2023-11-22T14:24:30Z</time>
      </trkpt>
      <trkpt lat="49.1054" lon="0.05211">
        <ele>34.5</ele>
        <time>2023-11-22T14:24:31Z</time>
      </trkpt>
      <trkpt lat="49.10535" lon="0.05216">
        <ele>34.6</ele>
        <time>2023-11-22T14:24:32Z</time>
      </trkpt>
      <trkpt lat="49.1053" lon="0.05221">
        <ele>34.7</ele>
        <time>2023-11-22T14:24:33Z</time>
      </trkpt>
      <trkpt lat="49.10525" lon="0.05227">
        <ele>34.8</ele>
        <time>2023-11-22T14:24:34Z</time>
      </trkpt>
      <trkpt lat="49.10521" lon="0.05232">
        <ele>34.8</ele>
        <time>2023-11-22T14:24:35Z</time>
      </trkpt>
      <trkpt lat="49.10516" lon="0.05238">
        <ele>34.9</ele>
        <time>2023-11-22T14:24:36Z</time>
      </trkpt>
      <trkpt lat="49.1051" lon="0.05244">
        <ele>34.9</ele>
        <time>2023-11-22T14:24:37Z</time>
      </trkpt>
      <trkpt lat="49.10503" lon="0.05252">
        <ele>35</ele>
        <time>2023-11-22T14:24:38Z</time>
      </trkpt>
      <trkpt lat="49.10497" lon="0.0526">
        <ele>35</ele>
        <time>2023-11-22T14:24:39Z</time>
      </trkpt>
      <trkpt lat="49.10491" lon="0.05268">
        <ele>35.2</ele>
        <time>2023-11-22T14:24:40Z</time>
      </trkpt>
      <trkpt lat="49.10486" lon="0.05275">
        <ele>35.3</ele>
        <time>2023-11-22T14:24:41Z</time>
      </trkpt>
      <trkpt lat="49.1048" lon="0.05283">
        <ele>35.4</ele>
        <time>2023-11-22T14:24:42Z</time>
      </trkpt>
      <trkpt lat="49.10474" lon="0.05291">
        <ele>35.6</ele>
        <time>2023-11-22T14:24:43Z</time>
      </trkpt>
      <trkpt lat="49.10469" lon="0.053">
        <ele>35.7</ele>
        <time>2023-11-22T14:24:44Z</time>
      </trkpt>
      <trkpt lat="49.10464" lon="0.05308">
        <ele>35.8</ele>
        <time>2023-11-22T14:24:45Z</time>
      </trkpt>
      <trkpt lat="49.10459" lon="0.05317">
        <ele>36</ele>
        <time>2023-11-22T14:24:46Z</time>
      </trkpt>
      <trkpt lat="49.10453" lon="0.05325">
        <ele>36.1</ele>
        <time>2023-11-22T14:24:47Z</time>
      </trkpt>
      <trkpt lat="49.10448" lon="0.05334">
        <ele>36.3</ele>
        <time>2023-11-22T14:24:48Z</time>
      </trkpt>
      <trkpt lat="49.10443" lon="0.05343">
        <ele>36.5</ele>
        <time>2023-11-22T14:24:49Z</time>
      </trkpt>
      <trkpt lat="49.10437" lon="0.05352">
        <ele>36.6</ele>
        <time>2023-11-22T14:24:50Z</time>
      </trkpt>
      <trkpt lat="49.10432" lon="0.0536">
        <ele>36.9</ele>
        <time>2023-11-22T14:24:51Z</time>
      </trkpt>
      <trkpt lat="49.10427" lon="0.05369">
        <ele>37.1</ele>
        <time>2023-11-22T14:24:52Z</time>
      </trkpt>
      <trkpt lat="49.10422" lon="0.05377">
        <ele>37.3</ele>
        <time>2023-11-22T14:24:53Z</time>
      </trkpt>
      <trkpt lat="49.10416" lon="0.05385">
        <ele>37.6</ele>
        <time>2023-11-22T14:24:54Z</time>
      </trkpt>
      <trkpt lat="49.10411" lon="0.05393">
        <ele>37.8</ele>
        <time>2023-11-22T14:24:55Z</time>
      </trkpt>
      <trkpt lat="49.10406" lon="0.05401">
        <ele>38</ele>
        <time>2023-11-22T14:24:56Z</time>
      </trkpt>
      <trkpt lat="49.10402" lon="0.0541">
        <ele>38.2</ele>
        <time>2023-11-22T14:24:57Z</time>
      </trkpt>
      <trkpt lat="49.10397" lon="0.05418">
        <ele>38.4</ele>
        <time>2023-11-22T14:24:58Z</time>
      </trkpt>
      <trkpt lat="49.10393" lon="0.05426">
        <ele>38.6</ele>
        <time>2023-11-22T14:24:59Z</time>
      </trkpt>
      <trkpt lat="49.10389" lon="0.05433">
        <ele>38.8</ele>
        <time>2023-11-22T14:25:00Z</time>
      </trkpt>
      <trkpt lat="49.10385" lon="0.05441">
        <ele>38.9</ele>
        <time>2023-11-22T14:25:01Z</time>
      </trkpt>
      <trkpt lat="49.1038" lon="0.05449">
        <ele>39</ele>
        <time>2023-11-22T14:25:02Z</time>
      </trkpt>
      <trkpt lat="49.10376" lon="0.05457">
        <ele>39.1</ele>
        <time>2023-11-22T14:25:03Z</time>
      </trkpt>
      <trkpt lat="49.10372" lon="0.05465">
        <ele>39.1</ele>
        <time>2023-11-22T14:25:04Z</time>
      </trkpt>
      <trkpt lat="49.10367" lon="0.05473">
        <ele>39.2</ele>
        <time>2023-11-22T14:25:05Z</time>
      </trkpt>
      <trkpt lat="49.10362" lon="0.05481">
        <ele>39.3</ele>
        <time>2023-11-22T14:25:06Z</time>
      </trkpt>
      <trkpt lat="49.10358" lon="0.0549">
        <ele>39.3</ele>
        <time>2023-11-22T14:25:07Z</time>
      </trkpt>
      <trkpt lat="49.10353" lon="0.05498">
        <ele>39.4</ele>
        <time>2023-11-22T14:25:08Z</time>
      </trkpt>
      <trkpt lat="49.10348" lon="0.05507">
        <ele>39.5</ele>
        <time>2023-11-22T14:25:09Z</time>
      </trkpt>
      <trkpt lat="49.10342" lon="0.05515">
        <ele>39.7</ele>
        <time>2023-11-22T14:25:10Z</time>
      </trkpt>
      <trkpt lat="49.10337" lon="0.05522">
        <ele>39.9</ele>
        <time>2023-11-22T14:25:11Z</time>
      </trkpt>
      <trkpt lat="49.10332" lon="0.05529">
        <ele>40.1</ele>
        <time>2023-11-22T14:25:12Z</time>
      </trkpt>
      <trkpt lat="49.10326" lon="0.05536">
        <ele>40.3</ele>
        <time>2023-11-22T14:25:13Z</time>
      </trkpt>
      <trkpt lat="49.10321" lon="0.05542">
        <ele>40.5</ele>
        <time>2023-11-22T14:25:14Z</time>
      </trkpt>
      <trkpt lat="49.10315" lon="0.05548">
        <ele>40.7</ele>
        <time>2023-11-22T14:25:15Z</time>
      </trkpt>
      <trkpt lat="49.1031" lon="0.05553">
        <ele>40.9</ele>
        <time>2023-11-22T14:25:16Z</time>
      </trkpt>
      <trkpt lat="49.10304" lon="0.05559">
        <ele>41.2</ele>
        <time>2023-11-22T14:25:17Z</time>
      </trkpt>
      <trkpt lat="49.10299" lon="0.05564">
        <ele>41.4</ele>
        <time>2023-11-22T14:25:18Z</time>
      </trkpt>
      <trkpt lat="49.10293" lon="0.0557">
        <ele>41.7</ele>
        <time>2023-11-22T14:25:19Z</time>
      </trkpt>
      <trkpt lat="49.10288" lon="0.05576">
        <ele>41.8</ele>
        <time>2023-11-22T14:25:20Z</time>
      </trkpt>
      <trkpt lat="49.10283" lon="0.05581">
        <ele>42</ele>
        <time>2023-11-22T14:25:21Z</time>
      </trkpt>
      <trkpt lat="49.10278" lon="0.05586">
        <ele>42.2</ele>
        <time>2023-11-22T14:25:22Z</time>
      </trkpt>
      <trkpt lat="49.10273" lon="0.05591">
        <ele>42.3</ele>
        <time>2023-11-22T14:25:23Z</time>
      </trkpt>
      <trkpt lat="49.10267" lon="0.05596">
        <ele>42.5</ele>
        <time>2023-11-22T14:25:24Z</time>
      </trkpt>
      <trkpt lat="49.10262" lon="0.05602">
        <ele>42.7</ele>
        <time>2023-11-22T14:25:25Z</time>
      </trkpt>
      <trkpt lat="49.10256" lon="0.05608">
        <ele>42.9</ele>
        <time>2023-11-22T14:25:26Z</time>
      </trkpt>
      <trkpt lat="49.1025" lon="0.05614">
        <ele>43.1</ele>
        <time>2023-11-22T14:25:27Z</time>
      </trkpt>
      <trkpt lat="49.10244" lon="0.05619">
        <ele>43.3</ele>
        <time>2023-11-22T14:25:28Z</time>
      </trkpt>
      <trkpt lat="49.10238" lon="0.05625">
        <ele>43.4</ele>
        <time>2023-11-22T14:25:29Z</time>
      </trkpt>
      <trkpt lat="49.10232" lon="0.0563">
        <ele>43.5</ele>
        <time>2023-11-22T14:25:30Z</time>
      </trkpt>
      <trkpt lat="49.10227" lon="0.05635">
        <ele>43.6</ele>
        <time>2023-11-22T14:25:31Z</time>
      </trkpt>
      <trkpt lat="49.10221" lon="0.0564">
        <ele>43.7</ele>
        <time>2023-11-22T14:25:32Z</time>
      </trkpt>
      <trkpt lat="49.10215" lon="0.05644">
        <ele>43.9</ele>
        <time>2023-11-22T14:25:33Z</time>
      </trkpt>
      <trkpt lat="49.10209" lon="0.05649">
        <ele>44</ele>
        <time>2023-11-22T14:25:34Z</time>
      </trkpt>
      <trkpt lat="49.10203" lon="0.05653">
        <ele>44.1</ele>
        <time>2023-11-22T14:25:35Z</time>
      </trkpt>
      <trkpt lat="49.10197" lon="0.05658">
        <ele>44.3</ele>
        <time>2023-11-22T14:25:36Z</time>
      </trkpt>
      <trkpt lat="49.10191" lon="0.05662">
        <ele>44.5</ele>
        <time>2023-11-22T14:25:37Z</time>
      </trkpt>
      <trkpt lat="49.10185" lon="0.05667">
        <ele>44.7</ele>
        <time>2023-11-22T14:25:38Z</time>
      </trkpt>
      <trkpt lat="49.10179" lon="0.05672">
        <ele>44.8</ele>
        <time>2023-11-22T14:25:39Z</time>
      </trkpt>
      <trkpt lat="49.10174" lon="0.05677">
        <ele>45</ele>
        <time>2023-11-22T14:25:40Z</time>
      </trkpt>
      <trkpt lat="49.10168" lon="0.05683">
        <ele>45.2</ele>
        <time>2023-11-22T14:25:41Z</time>
      </trkpt>
      <trkpt lat="49.10163" lon="0.05688">
        <ele>45.4</ele>
        <time>2023-11-22T14:25:42Z</time>
      </trkpt>
      <trkpt lat="49.10159" lon="0.05694">
        <ele>45.5</ele>
        <time>2023-11-22T14:25:43Z</time>
      </trkpt>
      <trkpt lat="49.10155" lon="0.05701">
        <ele>45.7</ele>
        <time>2023-11-22T14:25:44Z</time>
      </trkpt>
      <trkpt lat="49.10151" lon="0.05708">
        <ele>45.9</ele>
        <time>2023-11-22T14:25:45Z</time>
      </trkpt>
      <trkpt lat="49.10148" lon="0.05716">
        <ele>46.1</ele>
        <time>2023-11-22T14:25:46Z</time>
      </trkpt>
      <trkpt lat="49.10146" lon="0.05725">
        <ele>46.2</ele>
        <time>2023-11-22T14:25:47Z</time>
      </trkpt>
      <trkpt lat="49.10144" lon="0.05734">
        <ele>46.4</ele>
        <time>2023-11-22T14:25:48Z</time>
      </trkpt>
      <trkpt lat="49.10144" lon="0.05744">
        <ele>46.5</ele>
        <time>2023-11-22T14:25:49Z</time>
      </trkpt>
      <trkpt lat="49.10146" lon="0.05754">
        <ele>46.6</ele>
        <time>2023-11-22T14:25:50Z</time>
      </trkpt>
      <trkpt lat="49.10148" lon="0.05764">
        <ele>46.7</ele>
        <time>2023-11-22T14:25:51Z</time>
      </trkpt>
      <trkpt lat="49.10151" lon="0.05773">
        <ele>46.8</ele>
        <time>2023-11-22T14:25:52Z</time>
      </trkpt>
      <trkpt lat="49.10154" lon="0.05783">
        <ele>46.9</ele>
        <time>2023-11-22T14:25:53Z</time>
      </trkpt>
      <trkpt lat="49.10157" lon="0.05792">
        <ele>47.1</ele>
        <time>2023-11-22T14:25:54Z</time>
      </trkpt>
      <trkpt lat="49.1016" lon="0.05801">
        <ele>47.2</ele>
        <time>2023-11-22T14:25:55Z</time>
      </trkpt>
      <trkpt lat="49.10162" lon="0.0581">
        <ele>47.3</ele>
        <time>2023-11-22T14:25:56Z</time>
      </trkpt>
      <trkpt lat="49.10165" lon="0.05819">
        <ele>47.4</ele>
        <time>2023-11-22T14:25:57Z</time>
      </trkpt>
      <trkpt lat="49.10168" lon="0.05828">
        <ele>47.5</ele>
        <time>2023-11-22T14:25:58Z</time>
      </trkpt>
      <trkpt lat="49.10171" lon="0.05838">
        <ele>47.6</ele>
        <time>2023-11-22T14:25:59Z</time>
      </trkpt>
      <trkpt lat="49.10174" lon="0.05848">
        <ele>47.7</ele>
        <time>2023-11-22T14:26:00Z</time>
      </trkpt>
      <trkpt lat="49.10176" lon="0.05857">
        <ele>47.8</ele>
        <time>2023-11-22T14:26:01Z</time>
      </trkpt>
      <trkpt lat="49.10179" lon="0.05866">
        <ele>47.8</ele>
        <time>2023-11-22T14:26:02Z</time>
      </trkpt>
      <trkpt lat="49.10182" lon="0.05876">
        <ele>47.9</ele>
        <time>2023-11-22T14:26:03Z</time>
      </trkpt>
      <trkpt lat="49.10185" lon="0.05886">
        <ele>48</ele>
        <time>2023-11-22T14:26:04Z</time>
      </trkpt>
      <trkpt lat="49.10188" lon="0.05895">
        <ele>48.1</ele>
        <time>2023-11-22T14:26:05Z</time>
      </trkpt>
      <trkpt lat="49.1019" lon="0.05905">
        <ele>48.3</ele>
        <time>2023-11-22T14:26:06Z</time>
      </trkpt>
      <trkpt lat="49.10193" lon="0.05914">
        <ele>48.4</ele>
        <time>2023-11-22T14:26:07Z</time>
      </trkpt>
      <trkpt lat="49.10196" lon="0.05923">
        <ele>48.5</ele>
        <time>2023-11-22T14:26:08Z</time>
      </trkpt>
      <trkpt lat="49.10199" lon="0.05932">
        <ele>48.6</ele>
        <time>2023-11-22T14:26:09Z</time>
      </trkpt>
      <trkpt lat="49.10202" lon="0.05941">
        <ele>48.8</ele>
        <time>2023-11-22T14:26:10Z</time>
      </trkpt>
      <trkpt lat="49.10205" lon="0.0595">
        <ele>48.9</ele>
        <time>2023-11-22T14:26:11Z</time>
      </trkpt>
      <trkpt lat="49.10207" lon="0.05959">
        <ele>49.1</ele>
        <time>2023-11-22T14:26:12Z</time>
      </trkpt>
      <trkpt lat="49.1021" lon="0.05968">
        <ele>49.4</ele>
        <time>2023-11-22T14:26:13Z</time>
      </trkpt>
      <trkpt lat="49.10213" lon="0.05977">
        <ele>49.7</ele>
        <time>2023-11-22T14:26:14Z</time>
      </trkpt>
      <trkpt lat="49.10215" lon="0.05986">
        <ele>50</ele>
        <time>2023-11-22T14:26:15Z</time>
      </trkpt>
      <trkpt lat="49.10218" lon="0.05995">
        <ele>50.4</ele>
        <time>2023-11-22T14:26:16Z</time>
      </trkpt>
      <trkpt lat="49.10221" lon="0.06003">
        <ele>50.7</ele>
        <time>2023-11-22T14:26:17Z</time>
      </trkpt>
      <trkpt lat="49.10223" lon="0.06012">
        <ele>51</ele>
        <time>2023-11-22T14:26:18Z</time>
      </trkpt>
      <trkpt lat="49.10226" lon="0.0602">
        <ele>51.4</ele>
        <time>2023-11-22T14:26:19Z</time>
      </trkpt>
      <trkpt lat="49.10229" lon="0.06028">
        <ele>51.7</ele>
        <time>2023-11-22T14:26:20Z</time>
      </trkpt>
      <trkpt lat="49.10232" lon="0.06036">
        <ele>52</ele>
        <time>2023-11-22T14:26:21Z</time>
      </trkpt>
      <trkpt lat="49.10234" lon="0.06043">
        <ele>52.3</ele>
        <time>2023-11-22T14:26:22Z</time>
      </trkpt>
      <trkpt lat="49.10237" lon="0.06051">
        <ele>52.6</ele>
        <time>2023-11-22T14:26:23Z</time>
      </trkpt>
      <trkpt lat="49.10239" lon="0.06059">
        <ele>52.8</ele>
        <time>2023-11-22T14:26:24Z</time>
      </trkpt>
      <trkpt lat="49.10241" lon="0.06067">
        <ele>53.1</ele>
        <time>2023-11-22T14:26:25Z</time>
      </trkpt>
      <trkpt lat="49.10244" lon="0.06075">
        <ele>53.3</ele>
        <time>2023-11-22T14:26:26Z</time>
      </trkpt>
      <trkpt lat="49.10246" lon="0.06083">
        <ele>53.5</ele>
        <time>2023-11-22T14:26:27Z</time>
      </trkpt>
      <trkpt lat="49.10249" lon="0.06091">
        <ele>53.7</ele>
        <time>2023-11-22T14:26:28Z</time>
      </trkpt>
      <trkpt lat="49.10252" lon="0.06099">
        <ele>53.9</ele>
        <time>2023-11-22T14:26:29Z</time>
      </trkpt>
      <trkpt lat="49.10254" lon="0.06108">
        <ele>54.1</ele>
        <time>2023-11-22T14:26:30Z</time>
      </trkpt>
      <trkpt lat="49.10257" lon="0.06116">
        <ele>54.2</ele>
        <time>2023-11-22T14:26:31Z</time>
      </trkpt>
      <trkpt lat="49.10259" lon="0.06125">
        <ele>54.3</ele>
        <time>2023-11-22T14:26:32Z</time>
      </trkpt>
      <trkpt lat="49.10262" lon="0.06133">
        <ele>54.3</ele>
        <time>2023-11-22T14:26:33Z</time>
      </trkpt>
      <trkpt lat="49.10264" lon="0.06142">
        <ele>54.4</ele>
        <time>2023-11-22T14:26:34Z</time>
      </trkpt>
      <trkpt lat="49.10267" lon="0.06151">
        <ele>54.4</ele>
        <time>2023-11-22T14:26:35Z</time>
      </trkpt>
      <trkpt lat="49.10269" lon="0.0616">
        <ele>54.4</ele>
        <time>2023-11-22T14:26:36Z</time>
      </trkpt>
      <trkpt lat="49.10272" lon="0.06169">
        <ele>54.3</ele>
        <time>2023-11-22T14:26:37Z</time>
      </trkpt>
      <trkpt lat="49.10274" lon="0.06178">
        <ele>54.2</ele>
        <time>2023-11-22T14:26:38Z</time>
      </trkpt>
      <trkpt lat="49.10276" lon="0.06187">
        <ele>54.1</ele>
        <time>2023-11-22T14:26:39Z</time>
      </trkpt>
      <trkpt lat="49.10279" lon="0.06196">
        <ele>53.8</ele>
        <time>2023-11-22T14:26:40Z</time>
      </trkpt>
      <trkpt lat="49.10281" lon="0.06205">
        <ele>53.6</ele>
        <time>2023-11-22T14:26:41Z</time>
      </trkpt>
      <trkpt lat="49.10284" lon="0.06215">
        <ele>53.3</ele>
        <time>2023-11-22T14:26:42Z</time>
      </trkpt>
      <trkpt lat="49.10286" lon="0.06225">
        <ele>52.9</ele>
        <time>2023-11-22T14:26:43Z</time>
      </trkpt>
      <trkpt lat="49.10288" lon="0.06235">
        <ele>52.5</ele>
        <time>2023-11-22T14:26:44Z</time>
      </trkpt>
      <trkpt lat="49.10291" lon="0.06245">
        <ele>52.2</ele>
        <time>2023-11-22T14:26:45Z</time>
      </trkpt>
      <trkpt lat="49.10294" lon="0.06254">
        <ele>51.8</ele>
        <time>2023-11-22T14:26:46Z</time>
      </trkpt>
      <trkpt lat="49.10297" lon="0.06264">
        <ele>51.4</ele>
        <time>2023-11-22T14:26:47Z</time>
      </trkpt>
      <trkpt lat="49.103" lon="0.06274">
        <ele>50.9</ele>
        <time>2023-11-22T14:26:48Z</time>
      </trkpt>
      <trkpt lat="49.10304" lon="0.06283">
        <ele>50.6</ele>
        <time>2023-11-22T14:26:49Z</time>
      </trkpt>
      <trkpt lat="49.10307" lon="0.0629">
        <ele>50.3</ele>
        <time>2023-11-22T14:26:50Z</time>
      </trkpt>
      <trkpt lat="49.10311" lon="0.06296">
        <ele>50.2</ele>
        <time>2023-11-22T14:26:51Z</time>
      </trkpt>
      <trkpt lat="49.10315" lon="0.06301">
        <ele>50</ele>
        <time>2023-11-22T14:26:52Z</time>
      </trkpt>
      <trkpt lat="49.10319" lon="0.06306">
        <ele>49.9</ele>
        <time>2023-11-22T14:26:53Z</time>
      </trkpt>
      <trkpt lat="49.10323" lon="0.06311">
        <ele>49.7</ele>
        <time>2023-11-22T14:26:54Z</time>
      </trkpt>
      <trkpt lat="49.10326" lon="0.06317">
        <ele>49.6</ele>
        <time>2023-11-22T14:26:55Z</time>
      </trkpt>
      <trkpt lat="49.10328" lon="0.06324">
        <ele>49.5</ele>
        <time>2023-11-22T14:26:56Z</time>
      </trkpt>
      <trkpt lat="49.10329" lon="0.06331">
        <ele>49.4</ele>
        <time>2023-11-22T14:26:57Z</time>
      </trkpt>
      <trkpt lat="49.10329" lon="0.06336">
        <ele>49.3</ele>
        <time>2023-11-22T14:26:58Z</time>
      </trkpt>
      <trkpt lat="49.10328" lon="0.06341">
        <ele>49.2</ele>
        <time>2023-11-22T14:26:59Z</time>
      </trkpt>
      <trkpt lat="49.10326" lon="0.06346">
        <ele>49.1</ele>
        <time>2023-11-22T14:27:00Z</time>
      </trkpt>
      <trkpt lat="49.10323" lon="0.0635">
        <ele>49</ele>
        <time>2023-11-22T14:27:01Z</time>
      </trkpt>
      <trkpt lat="49.10319" lon="0.06354">
        <ele>48.9</ele>
        <time>2023-11-22T14:27:02Z</time>
      </trkpt>
      <trkpt lat="49.10316" lon="0.06357">
        <ele>48.9</ele>
        <time>2023-11-22T14:27:03Z</time>
      </trkpt>
      <trkpt lat="49.10313" lon="0.0636">
        <ele>48.8</ele>
        <time>2023-11-22T14:27:04Z</time>
      </trkpt>
      <trkpt lat="49.10309" lon="0.06362">
        <ele>48.8</ele>
        <time>2023-11-22T14:27:05Z</time>
      </trkpt>
      <trkpt lat="49.10305" lon="0.06364">
        <ele>48.7</ele>
        <time>2023-11-22T14:27:06Z</time>
      </trkpt>
      <trkpt lat="49.10301" lon="0.06368">
        <ele>48.7</ele>
        <time>2023-11-22T14:27:07Z</time>
      </trkpt>
      <trkpt lat="49.10298" lon="0.06373">
        <ele>48.6</ele>
        <time>2023-11-22T14:27:08Z</time>
      </trkpt>
      <trkpt lat="49.10297" lon="0.06381">
        <ele>48.5</ele>
        <time>2023-11-22T14:27:09Z</time>
      </trkpt>
      <trkpt lat="49.10297" lon="0.06389">
        <ele>48.4</ele>
        <time>2023-11-22T14:27:10Z</time>
      </trkpt>
      <trkpt lat="49.10299" lon="0.06396">
        <ele>48.3</ele>
        <time>2023-11-22T14:27:11Z</time>
      </trkpt>
      <trkpt lat="49.10303" lon="0.06403">
        <ele>48.1</ele>
        <time>2023-11-22T14:27:12Z</time>
      </trkpt>
      <trkpt lat="49.10306" lon="0.06411">
        <ele>48</ele>
        <time>2023-11-22T14:27:13Z</time>
      </trkpt>
      <trkpt lat="49.10308" lon="0.06419">
        <ele>47.9</ele>
        <time>2023-11-22T14:27:14Z</time>
      </trkpt>
      <trkpt lat="49.10311" lon="0.06428">
        <ele>47.9</ele>
        <time>2023-11-22T14:27:15Z</time>
      </trkpt>
      <trkpt lat="49.10315" lon="0.06436">
        <ele>47.9</ele>
        <time>2023-11-22T14:27:16Z</time>
      </trkpt>
      <trkpt lat="49.10318" lon="0.06445">
        <ele>47.8</ele>
        <time>2023-11-22T14:27:17Z</time>
      </trkpt>
      <trkpt lat="49.10322" lon="0.06453">
        <ele>47.8</ele>
        <time>2023-11-22T14:27:18Z</time>
      </trkpt>
      <trkpt lat="49.10325" lon="0.06462">
        <ele>47.8</ele>
        <time>2023-11-22T14:27:19Z</time>
      </trkpt>
      <trkpt lat="49.10328" lon="0.06471">
        <ele>47.9</ele>
        <time>2023-11-22T14:27:20Z</time>
      </trkpt>
      <trkpt lat="49.10331" lon="0.06479">
        <ele>47.9</ele>
        <time>2023-11-22T14:27:21Z</time>
      </trkpt>
      <trkpt lat="49.10333" lon="0.06488">
        <ele>48</ele>
        <time>2023-11-22T14:27:22Z</time>
      </trkpt>
      <trkpt lat="49.10336" lon="0.06496">
        <ele>48.1</ele>
        <time>2023-11-22T14:27:23Z</time>
      </trkpt>
      <trkpt lat="49.10338" lon="0.06504">
        <ele>48.2</ele>
        <time>2023-11-22T14:27:24Z</time>
      </trkpt>
      <trkpt lat="49.10341" lon="0.06513">
        <ele>48.3</ele>
        <time>2023-11-22T14:27:25Z</time>
      </trkpt>
      <trkpt lat="49.10343" lon="0.06521">
        <ele>48.4</ele>
        <time>2023-11-22T14:27:26Z</time>
      </trkpt>
      <trkpt lat="49.10346" lon="0.06529">
        <ele>48.5</ele>
        <time>2023-11-22T14:27:27Z</time>
      </trkpt>
      <trkpt lat="49.10348" lon="0.06538">
        <ele>48.7</ele>
        <time>2023-11-22T14:27:28Z</time>
      </trkpt>
      <trkpt lat="49.10351" lon="0.06547">
        <ele>48.9</ele>
        <time>2023-11-22T14:27:29Z</time>
      </trkpt>
      <trkpt lat="49.10354" lon="0.06555">
        <ele>49.1</ele>
        <time>2023-11-22T14:27:30Z</time>
      </trkpt>
      <trkpt lat="49.10356" lon="0.06563">
        <ele>49.3</ele>
        <time>2023-11-22T14:27:31Z</time>
      </trkpt>
      <trkpt lat="49.10359" lon="0.06571">
        <ele>49.6</ele>
        <time>2023-11-22T14:27:32Z</time>
      </trkpt>
      <trkpt lat="49.10362" lon="0.06579">
        <ele>49.8</ele>
        <time>2023-11-22T14:27:33Z</time>
      </trkpt>
      <trkpt lat="49.10364" lon="0.06587">
        <ele>50.1</ele>
        <time>2023-11-22T14:27:34Z</time>
      </trkpt>
      <trkpt lat="49.10367" lon="0.06595">
        <ele>50.4</ele>
        <time>2023-11-22T14:27:35Z</time>
      </trkpt>
      <trkpt lat="49.10369" lon="0.06603">
        <ele>50.6</ele>
        <time>2023-11-22T14:27:36Z</time>
      </trkpt>
      <trkpt lat="49.10371" lon="0.06611">
        <ele>50.9</ele>
        <time>2023-11-22T14:27:37Z</time>
      </trkpt>
      <trkpt lat="49.10373" lon="0.06619">
        <ele>51.1</ele>
        <time>2023-11-22T14:27:38Z</time>
      </trkpt>
      <trkpt lat="49.10375" lon="0.06626">
        <ele>51.4</ele>
        <time>2023-11-22T14:27:39Z</time>
      </trkpt>
      <trkpt lat="49.10377" lon="0.06633">
        <ele>51.7</ele>
        <time>2023-11-22T14:27:40Z</time>
      </trkpt>
      <trkpt lat="49.10379" lon="0.06641">
        <ele>52</ele>
        <time>2023-11-22T14:27:41Z</time>
      </trkpt>
      <trkpt lat="49.10381" lon="0.06648">
        <ele>52.2</ele>
        <time>2023-11-22T14:27:42Z</time>
      </trkpt>
      <trkpt lat="49.10383" lon="0.06656">
        <ele>52.5</ele>
        <time>2023-11-22T14:27:43Z</time>
      </trkpt>
      <trkpt lat="49.10384" lon="0.06662">
        <ele>52.8</ele>
        <time>2023-11-22T14:27:44Z</time>
      </trkpt>
      <trkpt lat="49.10386" lon="0.06669">
        <ele>53.1</ele>
        <time>2023-11-22T14:27:45Z</time>
      </trkpt>
      <trkpt lat="49.10387" lon="0.06675">
        <ele>53.4</ele>
        <time>2023-11-22T14:27:46Z</time>
      </trkpt>
      <trkpt lat="49.10389" lon="0.06682">
        <ele>53.7</ele>
        <time>2023-11-22T14:27:47Z</time>
      </trkpt>
      <trkpt lat="49.1039" lon="0.06689">
        <ele>54</ele>
        <time>2023-11-22T14:27:48Z</time>
      </trkpt>
      <trkpt lat="49.10391" lon="0.06696">
        <ele>54.3</ele>
        <time>2023-11-22T14:27:49Z</time>
      </trkpt>
      <trkpt lat="49.10393" lon="0.06703">
        <ele>54.6</ele>
        <time>2023-11-22T14:27:50Z</time>
      </trkpt>
      <trkpt lat="49.10394" lon="0.06711">
        <ele>54.9</ele>
        <time>2023-11-22T14:27:51Z</time>
      </trkpt>
      <trkpt lat="49.10395" lon="0.06718">
        <ele>55.3</ele>
        <time>2023-11-22T14:27:52Z</time>
      </trkpt>
      <trkpt lat="49.10396" lon="0.06726">
        <ele>55.6</ele>
        <time>2023-11-22T14:27:53Z</time>
      </trkpt>
      <trkpt lat="49.10397" lon="0.06733">
        <ele>56</ele>
        <time>2023-11-22T14:27:54Z</time>
      </trkpt>
      <trkpt lat="49.10397" lon="0.06741">
        <ele>56.3</ele>
        <time>2023-11-22T14:27:55Z</time>
      </trkpt>
      <trkpt lat="49.10397" lon="0.06748">
        <ele>56.6</ele>
        <time>2023-11-22T14:27:56Z</time>
      </trkpt>
      <trkpt lat="49.10398" lon="0.06756">
        <ele>56.9</ele>
        <time>2023-11-22T14:27:57Z</time>
      </trkpt>
      <trkpt lat="49.10398" lon="0.06763">
        <ele>57.2</ele>
        <time>2023-11-22T14:27:58Z</time>
      </trkpt>
      <trkpt lat="49.10398" lon="0.0677">
        <ele>57.5</ele>
        <time>2023-11-22T14:27:59Z</time>
      </trkpt>
      <trkpt lat="49.10398" lon="0.06777">
        <ele>57.9</ele>
        <time>2023-11-22T14:28:00Z</time>
      </trkpt>
      <trkpt lat="49.10398" lon="0.06785">
        <ele>58.2</ele>
        <time>2023-11-22T14:28:01Z</time>
      </trkpt>
      <trkpt lat="49.10398" lon="0.06792">
        <ele>58.5</ele>
        <time>2023-11-22T14:28:02Z</time>
      </trkpt>
      <trkpt lat="49.10397" lon="0.06799">
        <ele>58.7</ele>
        <time>2023-11-22T14:28:03Z</time>
      </trkpt>
      <trkpt lat="49.10397" lon="0.06806">
        <ele>59</ele>
        <time>2023-11-22T14:28:04Z</time>
      </trkpt>
      <trkpt lat="49.10396" lon="0.06813">
        <ele>59.3</ele>
        <time>2023-11-22T14:28:05Z</time>
      </trkpt>
      <trkpt lat="49.10395" lon="0.06821">
        <ele>59.6</ele>
        <time>2023-11-22T14:28:06Z</time>
      </trkpt>
      <trkpt lat="49.10393" lon="0.06827">
        <ele>59.9</ele>
        <time>2023-11-22T14:28:07Z</time>
      </trkpt>
      <trkpt lat="49.10392" lon="0.06834">
        <ele>60.2</ele>
        <time>2023-11-22T14:28:08Z</time>
      </trkpt>
      <trkpt lat="49.10391" lon="0.06841">
        <ele>60.5</ele>
        <time>2023-11-22T14:28:09Z</time>
      </trkpt>
      <trkpt lat="49.1039" lon="0.06848">
        <ele>60.8</ele>
        <time>2023-11-22T14:28:10Z</time>
      </trkpt>
      <trkpt lat="49.10389" lon="0.06855">
        <ele>61.1</ele>
        <time>2023-11-22T14:28:11Z</time>
      </trkpt>
      <trkpt lat="49.10388" lon="0.06862">
        <ele>61.4</ele>
        <time>2023-11-22T14:28:12Z</time>
      </trkpt>
      <trkpt lat="49.10386" lon="0.06869">
        <ele>61.7</ele>
        <time>2023-11-22T14:28:13Z</time>
      </trkpt>
      <trkpt lat="49.10385" lon="0.06876">
        <ele>62</ele>
        <time>2023-11-22T14:28:14Z</time>
      </trkpt>
      <trkpt lat="49.10384" lon="0.06883">
        <ele>62.2</ele>
        <time>2023-11-22T14:28:15Z</time>
      </trkpt>
      <trkpt lat="49.10382" lon="0.0689">
        <ele>62.5</ele>
        <time>2023-11-22T14:28:16Z</time>
      </trkpt>
      <trkpt lat="49.10381" lon="0.06897">
        <ele>62.8</ele>
        <time>2023-11-22T14:28:17Z</time>
      </trkpt>
      <trkpt lat="49.10379" lon="0.06905">
        <ele>63</ele>
        <time>2023-11-22T14:28:18Z</time>
      </trkpt>
      <trkpt lat="49.10377" lon="0.06912">
        <ele>63.3</ele>
        <time>2023-11-22T14:28:19Z</time>
      </trkpt>
      <trkpt lat="49.10376" lon="0.06919">
        <ele>63.5</ele>
        <time>2023-11-22T14:28:20Z</time>
      </trkpt>
      <trkpt lat="49.10374" lon="0.06927">
        <ele>63.7</ele>
        <time>2023-11-22T14:28:21Z</time>
      </trkpt>
      <trkpt lat="49.10372" lon="0.06934">
        <ele>63.9</ele>
        <time>2023-11-22T14:28:22Z</time>
      </trkpt>
      <trkpt lat="49.1037" lon="0.06941">
        <ele>64.1</ele>
        <time>2023-11-22T14:28:23Z</time>
      </trkpt>
      <trkpt lat="49.10368" lon="0.06949">
        <ele>64.2</ele>
        <time>2023-11-22T14:28:24Z</time>
      </trkpt>
      <trkpt lat="49.10366" lon="0.06956">
        <ele>64.4</ele>
        <time>2023-11-22T14:28:25Z</time>
      </trkpt>
      <trkpt lat="49.10364" lon="0.06963">
        <ele>64.5</ele>
        <time>2023-11-22T14:28:26Z</time>
      </trkpt>
      <trkpt lat="49.10363" lon="0.06971">
        <ele>64.6</ele>
        <time>2023-11-22T14:28:27Z</time>
      </trkpt>
      <trkpt lat="49.10361" lon="0.06978">
        <ele>64.8</ele>
        <time>2023-11-22T14:28:28Z</time>
      </trkpt>
      <trkpt lat="49.10359" lon="0.06985">
        <ele>64.9</ele>
        <time>2023-11-22T14:28:29Z</time>
      </trkpt>
      <trkpt lat="49.10358" lon="0.06993">
        <ele>65</ele>
        <time>2023-11-22T14:28:30Z</time>
      </trkpt>
      <trkpt lat="49.10356" lon="0.07001">
        <ele>65.1</ele>
        <time>2023-11-22T14:28:31Z</time>
      </trkpt>
      <trkpt lat="49.10354" lon="0.07009">
        <ele>65.2</ele>
        <time>2023-11-22T14:28:32Z</time>
      </trkpt>
      <trkpt lat="49.10352" lon="0.07017">
        <ele>65.2</ele>
        <time>2023-11-22T14:28:33Z</time>
      </trkpt>
      <trkpt lat="49.10351" lon="0.07025">
        <ele>65.3</ele>
        <time>2023-11-22T14:28:34Z</time>
      </trkpt>
      <trkpt lat="49.1035" lon="0.07033">
        <ele>65.4</ele>
        <time>2023-11-22T14:28:35Z</time>
      </trkpt>
      <trkpt lat="49.10348" lon="0.07041">
        <ele>65.5</ele>
        <time>2023-11-22T14:28:36Z</time>
      </trkpt>
      <trkpt lat="49.10347" lon="0.07049">
        <ele>65.6</ele>
        <time>2023-11-22T14:28:37Z</time>
      </trkpt>
      <trkpt lat="49.10345" lon="0.07058">
        <ele>65.7</ele>
        <time>2023-11-22T14:28:38Z</time>
      </trkpt>
      <trkpt lat="49.10344" lon="0.07066">
        <ele>65.8</ele>
        <time>2023-11-22T14:28:39Z</time>
      </trkpt>
      <trkpt lat="49.10342" lon="0.07074">
        <ele>65.9</ele>
        <time>2023-11-22T14:28:40Z</time>
      </trkpt>
      <trkpt lat="49.10341" lon="0.07082">
        <ele>66</ele>
        <time>2023-11-22T14:28:41Z</time>
      </trkpt>
      <trkpt lat="49.10339" lon="0.0709">
        <ele>66.1</ele>
        <time>2023-11-22T14:28:42Z</time>
      </trkpt>
      <trkpt lat="49.10337" lon="0.07098">
        <ele>66.2</ele>
        <time>2023-11-22T14:28:43Z</time>
      </trkpt>
      <trkpt lat="49.10335" lon="0.07105">
        <ele>66.3</ele>
        <time>2023-11-22T14:28:44Z</time>
      </trkpt>
      <trkpt lat="49.10333" lon="0.07113">
        <ele>66.4</ele>
        <time>2023-11-22T14:28:45Z</time>
      </trkpt>
      <trkpt lat="49.10331" lon="0.07121">
        <ele>66.5</ele>
        <time>2023-11-22T14:28:46Z</time>
      </trkpt>
      <trkpt lat="49.10329" lon="0.07128">
        <ele>66.6</ele>
        <time>2023-11-22T14:28:47Z</time>
      </trkpt>
      <trkpt lat="49.10327" lon="0.07136">
        <ele>66.7</ele>
        <time>2023-11-22T14:28:48Z</time>
      </trkpt>
      <trkpt lat="49.10326" lon="0.07143">
        <ele>66.8</ele>
        <time>2023-11-22T14:28:49Z</time>
      </trkpt>
      <trkpt lat="49.10324" lon="0.07151">
        <ele>66.9</ele>
        <time>2023-11-22T14:28:50Z</time>
      </trkpt>
      <trkpt lat="49.10322" lon="0.07158">
        <ele>67.1</ele>
        <time>2023-11-22T14:28:51Z</time>
      </trkpt>
      <trkpt lat="49.1032" lon="0.07165">
        <ele>67.2</ele>
        <time>2023-11-22T14:28:52Z</time>
      </trkpt>
      <trkpt lat="49.10317" lon="0.07172">
        <ele>67.3</ele>
        <time>2023-11-22T14:28:53Z</time>
      </trkpt>
      <trkpt lat="49.10315" lon="0.07179">
        <ele>67.5</ele>
        <time>2023-11-22T14:28:54Z</time>
      </trkpt>
      <trkpt lat="49.10313" lon="0.07186">
        <ele>67.6</ele>
        <time>2023-11-22T14:28:55Z</time>
      </trkpt>
      <trkpt lat="49.10311" lon="0.07193">
        <ele>67.7</ele>
        <time>2023-11-22T14:28:56Z</time>
      </trkpt>
      <trkpt lat="49.10309" lon="0.072">
        <ele>67.9</ele>
        <time>2023-11-22T14:28:57Z</time>
      </trkpt>
      <trkpt lat="49.10307" lon="0.07207">
        <ele>68</ele>
        <time>2023-11-22T14:28:58Z</time>
      </trkpt>
      <trkpt lat="49.10305" lon="0.07214">
        <ele>68.2</ele>
        <time>2023-11-22T14:28:59Z</time>
      </trkpt>
      <trkpt lat="49.10303" lon="0.07221">
        <ele>68.3</ele>
        <time>2023-11-22T14:29:00Z</time>
      </trkpt>
      <trkpt lat="49.10302" lon="0.07229">
        <ele>68.5</ele>
        <time>2023-11-22T14:29:01Z</time>
      </trkpt>
      <trkpt lat="49.10301" lon="0.07237">
        <ele>68.7</ele>
        <time>2023-11-22T14:29:02Z</time>
      </trkpt>
      <trkpt lat="49.103" lon="0.07245">
        <ele>68.8</ele>
        <time>2023-11-22T14:29:03Z</time>
      </trkpt>
      <trkpt lat="49.103" lon="0.07253">
        <ele>69</ele>
        <time>2023-11-22T14:29:04Z</time>
      </trkpt>
      <trkpt lat="49.10301" lon="0.0726">
        <ele>69.2</ele>
        <time>2023-11-22T14:29:05Z</time>
      </trkpt>
      <trkpt lat="49.10302" lon="0.07268">
        <ele>69.3</ele>
        <time>2023-11-22T14:29:06Z</time>
      </trkpt>
      <trkpt lat="49.10304" lon="0.07275">
        <ele>69.5</ele>
        <time>2023-11-22T14:29:07Z</time>
      </trkpt>
      <trkpt lat="49.10306" lon="0.07282">
        <ele>69.7</ele>
        <time>2023-11-22T14:29:08Z</time>
      </trkpt>
      <trkpt lat="49.10309" lon="0.07289">
        <ele>69.9</ele>
        <time>2023-11-22T14:29:09Z</time>
      </trkpt>
      <trkpt lat="49.10312" lon="0.07295">
        <ele>70</ele>
        <time>2023-11-22T14:29:10Z</time>
      </trkpt>
      <trkpt lat="49.10315" lon="0.07302">
        <ele>70.2</ele>
        <time>2023-11-22T14:29:11Z</time>
      </trkpt>
      <trkpt lat="49.10318" lon="0.07308">
        <ele>70.4</ele>
        <time>2023-11-22T14:29:12Z</time>
      </trkpt>
      <trkpt lat="49.10321" lon="0.07313">
        <ele>70.6</ele>
        <time>2023-11-22T14:29:13Z</time>
      </trkpt>
      <trkpt lat="49.10324" lon="0.07319">
        <ele>70.8</ele>
        <time>2023-11-22T14:29:14Z</time>
      </trkpt>
      <trkpt lat="49.10328" lon="0.07325">
        <ele>70.9</ele>
        <time>2023-11-22T14:29:15Z</time>
      </trkpt>
      <trkpt lat="49.10331" lon="0.0733">
        <ele>71.1</ele>
        <time>2023-11-22T14:29:16Z</time>
      </trkpt>
      <trkpt lat="49.10335" lon="0.07335">
        <ele>71.3</ele>
        <time>2023-11-22T14:29:17Z</time>
      </trkpt>
      <trkpt lat="49.10338" lon="0.07341">
        <ele>71.5</ele>
        <time>2023-11-22T14:29:18Z</time>
      </trkpt>
      <trkpt lat="49.10342" lon="0.07346">
        <ele>71.7</ele>
        <time>2023-11-22T14:29:19Z</time>
      </trkpt>
      <trkpt lat="49.10345" lon="0.07352">
        <ele>72</ele>
        <time>2023-11-22T14:29:20Z</time>
      </trkpt>
      <trkpt lat="49.10348" lon="0.07357">
        <ele>72.2</ele>
        <time>2023-11-22T14:29:21Z</time>
      </trkpt>
      <trkpt lat="49.10351" lon="0.07362">
        <ele>72.4</ele>
        <time>2023-11-22T14:29:22Z</time>
      </trkpt>
      <trkpt lat="49.10355" lon="0.07368">
        <ele>72.7</ele>
        <time>2023-11-22T14:29:23Z</time>
      </trkpt>
      <trkpt lat="49.10358" lon="0.07373">
        <ele>72.9</ele>
        <time>2023-11-22T14:29:24Z</time>
      </trkpt>
      <trkpt lat="49.10361" lon="0.07379">
        <ele>73.1</ele>
        <time>2023-11-22T14:29:25Z</time>
      </trkpt>
      <trkpt lat="49.10364" lon="0.07384">
        <ele>73.4</ele>
        <time>2023-11-22T14:29:26Z</time>
      </trkpt>
      <trkpt lat="49.10366" lon="0.0739">
        <ele>73.6</ele>
        <time>2023-11-22T14:29:27Z</time>
      </trkpt>
      <trkpt lat="49.10368" lon="0.07395">
        <ele>73.9</ele>
        <time>2023-11-22T14:29:28Z</time>
      </trkpt>
      <trkpt lat="49.10371" lon="0.074">
        <ele>74.2</ele>
        <time>2023-11-22T14:29:29Z</time>
      </trkpt>
      <trkpt lat="49.10373" lon="0.07406">
        <ele>74.4</ele>
        <time>2023-11-22T14:29:30Z</time>
      </trkpt>
      <trkpt lat="49.10376" lon="0.07411">
        <ele>74.7</ele>
        <time>2023-11-22T14:29:31Z</time>
      </trkpt>
      <trkpt lat="49.10378" lon="0.07416">
        <ele>75</ele>
        <time>2023-11-22T14:29:32Z</time>
      </trkpt>
      <trkpt lat="49.10379" lon="0.07421">
        <ele>75.2</ele>
        <time>2023-11-22T14:29:33Z</time>
      </trkpt>
      <trkpt lat="49.10381" lon="0.07427">
        <ele>75.4</ele>
        <time>2023-11-22T14:29:34Z</time>
      </trkpt>
      <trkpt lat="49.10382" lon="0.07432">
        <ele>75.7</ele>
        <time>2023-11-22T14:29:35Z</time>
      </trkpt>
      <trkpt lat="49.10383" lon="0.07437">
        <ele>75.9</ele>
        <time>2023-11-22T14:29:36Z</time>
      </trkpt>
      <trkpt lat="49.10384" lon="0.07442">
        <ele>76.1</ele>
        <time>2023-11-22T14:29:37Z</time>
      </trkpt>
      <trkpt lat="49.10385" lon="0.07447">
        <ele>76.3</ele>
        <time>2023-11-22T14:29:38Z</time>
      </trkpt>
      <trkpt lat="49.10386" lon="0.07452">
        <ele>76.6</ele>
        <time>2023-11-22T14:29:39Z</time>
      </trkpt>
      <trkpt lat="49.10387" lon="0.07457">
        <ele>76.7</ele>
        <time>2023-11-22T14:29:40Z</time>
      </trkpt>
      <trkpt lat="49.10388" lon="0.07463">
        <ele>76.9</ele>
        <time>2023-11-22T14:29:41Z</time>
      </trkpt>
      <trkpt lat="49.10388" lon="0.07468">
        <ele>77</ele>
        <time>2023-11-22T14:29:42Z</time>
      </trkpt>
      <trkpt lat="49.10388" lon="0.07473">
        <ele>77.1</ele>
        <time>2023-11-22T14:29:43Z</time>
      </trkpt>
      <trkpt lat="49.10387" lon="0.07479">
        <ele>77.4</ele>
        <time>2023-11-22T14:29:44Z</time>
      </trkpt>
      <trkpt lat="49.10387" lon="0.07484">
        <ele>77.7</ele>
        <time>2023-11-22T14:29:45Z</time>
      </trkpt>
      <trkpt lat="49.10388" lon="0.07489">
        <ele>78</ele>
        <time>2023-11-22T14:29:46Z</time>
      </trkpt>
      <trkpt lat="49.10388" lon="0.07494">
        <ele>78.3</ele>
        <time>2023-11-22T14:29:47Z</time>
      </trkpt>
      <trkpt lat="49.10387" lon="0.075">
        <ele>78.5</ele>
        <time>2023-11-22T14:29:48Z</time>
      </trkpt>
      <trkpt lat="49.10387" lon="0.07505">
        <ele>78.8</ele>
        <time>2023-11-22T14:29:49Z</time>
      </trkpt>
      <trkpt lat="49.10387" lon="0.0751">
        <ele>79</ele>
        <time>2023-11-22T14:29:50Z</time>
      </trkpt>
      <trkpt lat="49.10387" lon="0.07515">
        <ele>79.2</ele>
        <time>2023-11-22T14:29:51Z</time>
      </trkpt>
      <trkpt lat="49.10386" lon="0.07521">
        <ele>79.5</ele>
        <time>2023-11-22T14:29:52Z</time>
      </trkpt>
      <trkpt lat="49.10386" lon="0.07526">
        <ele>79.7</ele>
        <time>2023-11-22T14:29:53Z</time>
      </trkpt>
      <trkpt lat="49.10385" lon="0.07531">
        <ele>79.9</ele>
        <time>2023-11-22T14:29:54Z</time>
      </trkpt>
      <trkpt lat="49.10384" lon="0.07536">
        <ele>80.1</ele>
        <time>2023-11-22T14:29:55Z</time>
      </trkpt>
      <trkpt lat="49.10384" lon="0.0754">
        <ele>80.3</ele>
        <time>2023-11-22T14:29:56Z</time>
      </trkpt>
      <trkpt lat="49.10382" lon="0.07545">
        <ele>80.6</ele>
        <time>2023-11-22T14:29:57Z</time>
      </trkpt>
      <trkpt lat="49.10381" lon="0.0755">
        <ele>80.8</ele>
        <time>2023-11-22T14:29:58Z</time>
      </trkpt>
      <trkpt lat="49.1038" lon="0.07554">
        <ele>81</ele>
        <time>2023-11-22T14:29:59Z</time>
      </trkpt>
      <trkpt lat="49.10379" lon="0.07559">
        <ele>81.2</ele>
        <time>2023-11-22T14:30:00Z</time>
      </trkpt>
      <trkpt lat="49.10378" lon="0.07563">
        <ele>81.4</ele>
        <time>2023-11-22T14:30:01Z</time>
      </trkpt>
      <trkpt lat="49.10377" lon="0.07567">
        <ele>81.6</ele>
        <time>2023-11-22T14:30:02Z</time>
      </trkpt>
      <trkpt lat="49.10376" lon="0.07572">
        <ele>81.7</ele>
        <time>2023-11-22T14:30:03Z</time>
      </trkpt>
      <trkpt lat="49.10375" lon="0.07576">
        <ele>81.9</ele>
        <time>2023-11-22T14:30:04Z</time>
      </trkpt>
      <trkpt lat="49.10374" lon="0.0758">
        <ele>82.1</ele>
        <time>2023-11-22T14:30:05Z</time>
      </trkpt>
      <trkpt lat="49.10373" lon="0.07584">
        <ele>82.3</ele>
        <time>2023-11-22T14:30:06Z</time>
      </trkpt>
      <trkpt lat="49.10372" lon="0.07588">
        <ele>82.5</ele>
        <time>2023-11-22T14:30:07Z</time>
      </trkpt>
      <trkpt lat="49.1037" lon="0.07592">
        <ele>82.7</ele>
        <time>2023-11-22T14:30:08Z</time>
      </trkpt>
      <trkpt lat="49.10369" lon="0.07596">
        <ele>82.9</ele>
        <time>2023-11-22T14:30:09Z</time>
      </trkpt>
      <trkpt lat="49.10368" lon="0.076">
        <ele>83.1</ele>
        <time>2023-11-22T14:30:10Z</time>
      </trkpt>
      <trkpt lat="49.10367" lon="0.07604">
        <ele>83.2</ele>
        <time>2023-11-22T14:30:11Z</time>
      </trkpt>
      <trkpt lat="49.10366" lon="0.07609">
        <ele>83.4</ele>
        <time>2023-11-22T14:30:12Z</time>
      </trkpt>
      <trkpt lat="49.10365" lon="0.07613">
        <ele>83.6</ele>
        <time>2023-11-22T14:30:13Z</time>
      </trkpt>
      <trkpt lat="49.10363" lon="0.07618">
        <ele>83.8</ele>
        <time>2023-11-22T14:30:14Z</time>
      </trkpt>
      <trkpt lat="49.10362" lon="0.07622">
        <ele>84</ele>
        <time>2023-11-22T14:30:15Z</time>
      </trkpt>
      <trkpt lat="49.10361" lon="0.07627">
        <ele>84.2</ele>
        <time>2023-11-22T14:30:16Z</time>
      </trkpt>
      <trkpt lat="49.1036" lon="0.07632">
        <ele>84.4</ele>
        <time>2023-11-22T14:30:17Z</time>
      </trkpt>
      <trkpt lat="49.10359" lon="0.07636">
        <ele>84.6</ele>
        <time>2023-11-22T14:30:18Z</time>
      </trkpt>
      <trkpt lat="49.10358" lon="0.07641">
        <ele>84.8</ele>
        <time>2023-11-22T14:30:19Z</time>
      </trkpt>
      <trkpt lat="49.10357" lon="0.07645">
        <ele>85</ele>
        <time>2023-11-22T14:30:20Z</time>
      </trkpt>
      <trkpt lat="49.10356" lon="0.0765">
        <ele>85.1</ele>
        <time>2023-11-22T14:30:21Z</time>
      </trkpt>
      <trkpt lat="49.10355" lon="0.07654">
        <ele>85.3</ele>
        <time>2023-11-22T14:30:22Z</time>
      </trkpt>
      <trkpt lat="49.10354" lon="0.07658">
        <ele>85.5</ele>
        <time>2023-11-22T14:30:23Z</time>
      </trkpt>
      <trkpt lat="49.10353" lon="0.07663">
        <ele>85.7</ele>
        <time>2023-11-22T14:30:24Z</time>
      </trkpt>
      <trkpt lat="49.10352" lon="0.07667">
        <ele>85.8</ele>
        <time>2023-11-22T14:30:25Z</time>
      </trkpt>
      <trkpt lat="49.10351" lon="0.07671">
        <ele>86</ele>
        <time>2023-11-22T14:30:26Z</time>
      </trkpt>
      <trkpt lat="49.1035" lon="0.07675">
        <ele>86.2</ele>
        <time>2023-11-22T14:30:27Z</time>
      </trkpt>
      <trkpt lat="49.10349" lon="0.0768">
        <ele>86.3</ele>
        <time>2023-11-22T14:30:28Z</time>
      </trkpt>
      <trkpt lat="49.10347" lon="0.07684">
        <ele>86.5</ele>
        <time>2023-11-22T14:30:29Z</time>
      </trkpt>
      <trkpt lat="49.10346" lon="0.07688">
        <ele>86.7</ele>
        <time>2023-11-22T14:30:30Z</time>
      </trkpt>
      <trkpt lat="49.10345" lon="0.07692">
        <ele>86.9</ele>
        <time>2023-11-22T14:30:31Z</time>
      </trkpt>
      <trkpt lat="49.10344" lon="0.07696">
        <ele>87.1</ele>
        <time>2023-11-22T14:30:32Z</time>
      </trkpt>
      <trkpt lat="49.10342" lon="0.077">
        <ele>87.2</ele>
        <time>2023-11-22T14:30:33Z</time>
      </trkpt>
      <trkpt lat="49.10341" lon="0.07704">
        <ele>87.4</ele>
        <time>2023-11-22T14:30:34Z</time>
      </trkpt>
      <trkpt lat="49.1034" lon="0.07709">
        <ele>87.6</ele>
        <time>2023-11-22T14:30:35Z</time>
      </trkpt>
      <trkpt lat="49.10339" lon="0.07713">
        <ele>87.8</ele>
        <time>2023-11-22T14:30:36Z</time>
      </trkpt>
      <trkpt lat="49.10338" lon="0.07718">
        <ele>88</ele>
        <time>2023-11-22T14:30:37Z</time>
      </trkpt>
      <trkpt lat="49.10336" lon="0.07722">
        <ele>88.2</ele>
        <time>2023-11-22T14:30:38Z</time>
      </trkpt>
      <trkpt lat="49.10335" lon="0.07727">
        <ele>88.4</ele>
        <time>2023-11-22T14:30:39Z</time>
      </trkpt>
      <trkpt lat="49.10334" lon="0.07731">
        <ele>88.6</ele>
        <time>2023-11-22T14:30:40Z</time>
      </trkpt>
      <trkpt lat="49.10332" lon="0.07736">
        <ele>88.8</ele>
        <time>2023-11-22T14:30:41Z</time>
      </trkpt>
      <trkpt lat="49.10331" lon="0.07741">
        <ele>89</ele>
        <time>2023-11-22T14:30:42Z</time>
      </trkpt>
      <trkpt lat="49.1033" lon="0.07745">
        <ele>89.2</ele>
        <time>2023-11-22T14:30:43Z</time>
      </trkpt>
      <trkpt lat="49.10328" lon="0.0775">
        <ele>89.4</ele>
        <time>2023-11-22T14:30:44Z</time>
      </trkpt>
      <trkpt lat="49.10327" lon="0.07755">
        <ele>89.6</ele>
        <time>2023-11-22T14:30:45Z</time>
      </trkpt>
      <trkpt lat="49.10326" lon="0.07759">
        <ele>89.8</ele>
        <time>2023-11-22T14:30:46Z</time>
      </trkpt>
      <trkpt lat="49.10325" lon="0.07763">
        <ele>90</ele>
        <time>2023-11-22T14:30:47Z</time>
      </trkpt>
      <trkpt lat="49.10324" lon="0.07768">
        <ele>90.2</ele>
        <time>2023-11-22T14:30:48Z</time>
      </trkpt>
      <trkpt lat="49.10323" lon="0.07772">
        <ele>90.4</ele>
        <time>2023-11-22T14:30:49Z</time>
      </trkpt>
      <trkpt lat="49.10322" lon="0.07777">
        <ele>90.6</ele>
        <time>2023-11-22T14:30:50Z</time>
      </trkpt>
      <trkpt lat="49.10321" lon="0.07781">
        <ele>90.8</ele>
        <time>2023-11-22T14:30:51Z</time>
      </trkpt>
      <trkpt lat="49.1032" lon="0.07785">
        <ele>90.9</ele>
        <time>2023-11-22T14:30:52Z</time>
      </trkpt>
      <trkpt lat="49.10318" lon="0.07789">
        <ele>91.1</ele>
        <time>2023-11-22T14:30:53Z</time>
      </trkpt>
      <trkpt lat="49.10317" lon="0.07793">
        <ele>91.3</ele>
        <time>2023-11-22T14:30:54Z</time>
      </trkpt>
      <trkpt lat="49.10316" lon="0.07797">
        <ele>91.5</ele>
        <time>2023-11-22T14:30:55Z</time>
      </trkpt>
      <trkpt lat="49.10314" lon="0.07801">
        <ele>91.7</ele>
        <time>2023-11-22T14:30:56Z</time>
      </trkpt>
      <trkpt lat="49.10313" lon="0.07805">
        <ele>91.9</ele>
        <time>2023-11-22T14:30:57Z</time>
      </trkpt>
      <trkpt lat="49.10312" lon="0.07809">
        <ele>92.1</ele>
        <time>2023-11-22T14:30:58Z</time>
      </trkpt>
      <trkpt lat="49.10311" lon="0.07813">
        <ele>92.3</ele>
        <time>2023-11-22T14:30:59Z</time>
      </trkpt>
      <trkpt lat="49.1031" lon="0.07818">
        <ele>92.5</ele>
        <time>2023-11-22T14:31:00Z</time>
      </trkpt>
      <trkpt lat="49.10309" lon="0.07823">
        <ele>92.7</ele>
        <time>2023-11-22T14:31:01Z</time>
      </trkpt>
      <trkpt lat="49.10308" lon="0.07828">
        <ele>93</ele>
        <time>2023-11-22T14:31:02Z</time>
      </trkpt>
      <trkpt lat="49.10307" lon="0.07833">
        <ele>93.2</ele>
        <time>2023-11-22T14:31:03Z</time>
      </trkpt>
      <trkpt lat="49.10305" lon="0.07838">
        <ele>93.4</ele>
        <time>2023-11-22T14:31:04Z</time>
      </trkpt>
      <trkpt lat="49.10304" lon="0.07843">
        <ele>93.6</ele>
        <time>2023-11-22T14:31:05Z</time>
      </trkpt>
      <trkpt lat="49.10303" lon="0.07847">
        <ele>93.9</ele>
        <time>2023-11-22T14:31:06Z</time>
      </trkpt>
      <trkpt lat="49.10302" lon="0.07852">
        <ele>94.1</ele>
        <time>2023-11-22T14:31:07Z</time>
      </trkpt>
      <trkpt lat="49.10302" lon="0.07857">
        <ele>94.3</ele>
        <time>2023-11-22T14:31:08Z</time>
      </trkpt>
      <trkpt lat="49.10301" lon="0.07862">
        <ele>94.6</ele>
        <time>2023-11-22T14:31:09Z</time>
      </trkpt>
      <trkpt lat="49.10301" lon="0.07868">
        <ele>94.8</ele>
        <time>2023-11-22T14:31:10Z</time>
      </trkpt>
      <trkpt lat="49.103" lon="0.07873">
        <ele>95</ele>
        <time>2023-11-22T14:31:11Z</time>
      </trkpt>
      <trkpt lat="49.103" lon="0.07878">
        <ele>95.3</ele>
        <time>2023-11-22T14:31:12Z</time>
      </trkpt>
      <trkpt lat="49.10299" lon="0.07883">
        <ele>95.5</ele>
        <time>2023-11-22T14:31:13Z</time>
      </trkpt>
      <trkpt lat="49.10298" lon="0.07887">
        <ele>95.7</ele>
        <time>2023-11-22T14:31:14Z</time>
      </trkpt>
      <trkpt lat="49.10298" lon="0.07892">
        <ele>95.9</ele>
        <time>2023-11-22T14:31:15Z</time>
      </trkpt>
      <trkpt lat="49.10297" lon="0.07896">
        <ele>96.1</ele>
        <time>2023-11-22T14:31:16Z</time>
      </trkpt>
      <trkpt lat="49.10296" lon="0.07901">
        <ele>96.3</ele>
        <time>2023-11-22T14:31:17Z</time>
      </trkpt>
      <trkpt lat="49.10295" lon="0.07906">
        <ele>96.5</ele>
        <time>2023-11-22T14:31:18Z</time>
      </trkpt>
      <trkpt lat="49.10294" lon="0.0791">
        <ele>96.7</ele>
        <time>2023-11-22T14:31:19Z</time>
      </trkpt>
      <trkpt lat="49.10293" lon="0.07915">
        <ele>96.9</ele>
        <time>2023-11-22T14:31:20Z</time>
      </trkpt>
      <trkpt lat="49.10292" lon="0.07919">
        <ele>97.2</ele>
        <time>2023-11-22T14:31:21Z</time>
      </trkpt>
      <trkpt lat="49.1029" lon="0.07924">
        <ele>97.4</ele>
        <time>2023-11-22T14:31:22Z</time>
      </trkpt>
      <trkpt lat="49.10289" lon="0.07928">
        <ele>97.6</ele>
        <time>2023-11-22T14:31:23Z</time>
      </trkpt>
      <trkpt lat="49.10288" lon="0.07932">
        <ele>97.8</ele>
        <time>2023-11-22T14:31:24Z</time>
      </trkpt>
      <trkpt lat="49.10286" lon="0.07936">
        <ele>98</ele>
        <time>2023-11-22T14:31:25Z</time>
      </trkpt>
      <trkpt lat="49.10284" lon="0.0794">
        <ele>98.2</ele>
        <time>2023-11-22T14:31:26Z</time>
      </trkpt>
      <trkpt lat="49.10283" lon="0.07943">
        <ele>98.4</ele>
        <time>2023-11-22T14:31:27Z</time>
      </trkpt>
      <trkpt lat="49.10281" lon="0.07947">
        <ele>98.6</ele>
        <time>2023-11-22T14:31:28Z</time>
      </trkpt>
      <trkpt lat="49.10279" lon="0.07951">
        <ele>98.8</ele>
        <time>2023-11-22T14:31:29Z</time>
      </trkpt>
      <trkpt lat="49.10278" lon="0.07955">
        <ele>99</ele>
        <time>2023-11-22T14:31:30Z</time>
      </trkpt>
      <trkpt lat="49.10276" lon="0.07959">
        <ele>99.2</ele>
        <time>2023-11-22T14:31:31Z</time>
      </trkpt>
      <trkpt lat="49.10275" lon="0.07964">
        <ele>99.4</ele>
        <time>2023-11-22T14:31:32Z</time>
      </trkpt>
      <trkpt lat="49.10273" lon="0.07968">
        <ele>99.6</ele>
        <time>2023-11-22T14:31:33Z</time>
      </trkpt>
      <trkpt lat="49.10272" lon="0.07972">
        <ele>99.9</ele>
        <time>2023-11-22T14:31:34Z</time>
      </trkpt>
      <trkpt lat="49.1027" lon="0.07976">
        <ele>100.1</ele>
        <time>2023-11-22T14:31:35Z</time>
      </trkpt>
      <trkpt lat="49.10269" lon="0.0798">
        <ele>100.3</ele>
        <time>2023-11-22T14:31:36Z</time>
      </trkpt>
      <trkpt lat="49.10267" lon="0.07984">
        <ele>100.5</ele>
        <time>2023-11-22T14:31:37Z</time>
      </trkpt>
      <trkpt lat="49.10266" lon="0.07988">
        <ele>100.7</ele>
        <time>2023-11-22T14:31:38Z</time>
      </trkpt>
      <trkpt lat="49.10265" lon="0.07993">
        <ele>100.9</ele>
        <time>2023-11-22T14:31:39Z</time>
      </trkpt>
      <trkpt lat="49.10264" lon="0.07997">
        <ele>101.1</ele>
        <time>2023-11-22T14:31:40Z</time>
      </trkpt>
      <trkpt lat="49.10263" lon="0.08001">
        <ele>101.3</ele>
        <time>2023-11-22T14:31:41Z</time>
      </trkpt>
      <trkpt lat="49.10261" lon="0.08005">
        <ele>101.5</ele>
        <time>2023-11-22T14:31:42Z</time>
      </trkpt>
      <trkpt lat="49.1026" lon="0.0801">
        <ele>101.8</ele>
        <time>2023-11-22T14:31:43Z</time>
      </trkpt>
      <trkpt lat="49.10259" lon="0.08014">
        <ele>102</ele>
        <time>2023-11-22T14:31:44Z</time>
      </trkpt>
      <trkpt lat="49.10258" lon="0.08018">
        <ele>102.2</ele>
        <time>2023-11-22T14:31:45Z</time>
      </trkpt>
      <trkpt lat="49.10256" lon="0.08023">
        <ele>102.5</ele>
        <time>2023-11-22T14:31:46Z</time>
      </trkpt>
      <trkpt lat="49.10255" lon="0.08027">
        <ele>102.7</ele>
        <time>2023-11-22T14:31:47Z</time>
      </trkpt>
      <trkpt lat="49.10254" lon="0.08031">
        <ele>102.9</ele>
        <time>2023-11-22T14:31:48Z</time>
      </trkpt>
      <trkpt lat="49.10253" lon="0.08035">
        <ele>103.2</ele>
        <time>2023-11-22T14:31:49Z</time>
      </trkpt>
      <trkpt lat="49.10252" lon="0.08039">
        <ele>103.4</ele>
        <time>2023-11-22T14:31:50Z</time>
      </trkpt>
      <trkpt lat="49.10251" lon="0.08044">
        <ele>103.6</ele>
        <time>2023-11-22T14:31:51Z</time>
      </trkpt>
      <trkpt lat="49.1025" lon="0.08047">
        <ele>103.9</ele>
        <time>2023-11-22T14:31:52Z</time>
      </trkpt>
      <trkpt lat="49.10249" lon="0.08052">
        <ele>104.1</ele>
        <time>2023-11-22T14:31:53Z</time>
      </trkpt>
      <trkpt lat="49.10248" lon="0.08056">
        <ele>104.3</ele>
        <time>2023-11-22T14:31:54Z</time>
      </trkpt>
      <trkpt lat="49.10247" lon="0.0806">
        <ele>104.6</ele>
        <time>2023-11-22T14:31:55Z</time>
      </trkpt>
      <trkpt lat="49.10246" lon="0.08065">
        <ele>104.8</ele>
        <time>2023-11-22T14:31:56Z</time>
      </trkpt>
      <trkpt lat="49.10245" lon="0.08069">
        <ele>105</ele>
        <time>2023-11-22T14:31:57Z</time>
      </trkpt>
      <trkpt lat="49.10244" lon="0.08073">
        <ele>105.2</ele>
        <time>2023-11-22T14:31:58Z</time>
      </trkpt>
      <trkpt lat="49.10243" lon="0.08078">
        <ele>105.5</ele>
        <time>2023-11-22T14:31:59Z</time>
      </trkpt>
      <trkpt lat="49.10242" lon="0.08082">
        <ele>105.7</ele>
        <time>2023-11-22T14:32:00Z</time>
      </trkpt>
      <trkpt lat="49.10241" lon="0.08086">
        <ele>106</ele>
        <time>2023-11-22T14:32:01Z</time>
      </trkpt>
      <trkpt lat="49.1024" lon="0.08091">
        <ele>106.2</ele>
        <time>2023-11-22T14:32:02Z</time>
      </trkpt>
      <trkpt lat="49.10238" lon="0.08095">
        <ele>106.5</ele>
        <time>2023-11-22T14:32:03Z</time>
      </trkpt>
      <trkpt lat="49.10237" lon="0.08099">
        <ele>106.7</ele>
        <time>2023-11-22T14:32:04Z</time>
      </trkpt>
      <trkpt lat="49.10236" lon="0.08103">
        <ele>107</ele>
        <time>2023-11-22T14:32:05Z</time>
      </trkpt>
      <trkpt lat="49.10234" lon="0.08107">
        <ele>107.2</ele>
        <time>2023-11-22T14:32:06Z</time>
      </trkpt>
      <trkpt lat="49.10233" lon="0.08112">
        <ele>107.4</ele>
        <time>2023-11-22T14:32:07Z</time>
      </trkpt>
      <trkpt lat="49.10232" lon="0.08116">
        <ele>107.7</ele>
        <time>2023-11-22T14:32:08Z</time>
      </trkpt>
      <trkpt lat="49.10231" lon="0.0812">
        <ele>107.9</ele>
        <time>2023-11-22T14:32:09Z</time>
      </trkpt>
      <trkpt lat="49.10231" lon="0.08124">
        <ele>108.1</ele>
        <time>2023-11-22T14:32:10Z</time>
      </trkpt>
      <trkpt lat="49.1023" lon="0.08128">
        <ele>108.4</ele>
        <time>2023-11-22T14:32:11Z</time>
      </trkpt>
      <trkpt lat="49.10229" lon="0.08132">
        <ele>108.6</ele>
        <time>2023-11-22T14:32:12Z</time>
      </trkpt>
      <trkpt lat="49.10228" lon="0.08136">
        <ele>108.8</ele>
        <time>2023-11-22T14:32:13Z</time>
      </trkpt>
      <trkpt lat="49.10227" lon="0.0814">
        <ele>109</ele>
        <time>2023-11-22T14:32:14Z</time>
      </trkpt>
      <trkpt lat="49.10226" lon="0.08146">
        <ele>109.3</ele>
        <time>2023-11-22T14:32:15Z</time>
      </trkpt>
      <trkpt lat="49.10225" lon="0.08148">
        <ele>109.4</ele>
        <time>2023-11-22T14:32:16Z</time>
      </trkpt>
      <trkpt lat="49.10225" lon="0.08152">
        <ele>109.7</ele>
        <time>2023-11-22T14:32:17Z</time>
      </trkpt>
      <trkpt lat="49.10224" lon="0.08157">
        <ele>109.9</ele>
        <time>2023-11-22T14:32:18Z</time>
      </trkpt>
      <trkpt lat="49.10223" lon="0.08161">
        <ele>110.1</ele>
        <time>2023-11-22T14:32:19Z</time>
      </trkpt>
      <trkpt lat="49.10222" lon="0.08166">
        <ele>110.3</ele>
        <time>2023-11-22T14:32:20Z</time>
      </trkpt>
      <trkpt lat="49.10222" lon="0.0817">
        <ele>110.5</ele>
        <time>2023-11-22T14:32:21Z</time>
      </trkpt>
      <trkpt lat="49.10221" lon="0.08174">
        <ele>110.7</ele>
        <time>2023-11-22T14:32:22Z</time>
      </trkpt>
      <trkpt lat="49.1022" lon="0.0818">
        <ele>111</ele>
        <time>2023-11-22T14:32:23Z</time>
      </trkpt>
      <trkpt lat="49.1022" lon="0.08182">
        <ele>111.1</ele>
        <time>2023-11-22T14:32:24Z</time>
      </trkpt>
      <trkpt lat="49.10219" lon="0.08186">
        <ele>111.4</ele>
        <time>2023-11-22T14:32:25Z</time>
      </trkpt>
      <trkpt lat="49.10219" lon="0.08191">
        <ele>111.6</ele>
        <time>2023-11-22T14:32:26Z</time>
      </trkpt>
      <trkpt lat="49.10218" lon="0.08195">
        <ele>111.8</ele>
        <time>2023-11-22T14:32:27Z</time>
      </trkpt>
      <trkpt lat="49.10218" lon="0.08199">
        <ele>112.1</ele>
        <time>2023-11-22T14:32:28Z</time>
      </trkpt>
      <trkpt lat="49.10217" lon="0.08204">
        <ele>112.3</ele>
        <time>2023-11-22T14:32:29Z</time>
      </trkpt>
      <trkpt lat="49.10217" lon="0.08208">
        <ele>112.5</ele>
        <time>2023-11-22T14:32:30Z</time>
      </trkpt>
      <trkpt lat="49.10217" lon="0.08212">
        <ele>112.7</ele>
        <time>2023-11-22T14:32:31Z</time>
      </trkpt>
      <trkpt lat="49.10217" lon="0.08216">
        <ele>113</ele>
        <time>2023-11-22T14:32:32Z</time>
      </trkpt>
      <trkpt lat="49.10216" lon="0.08222">
        <ele>113.3</ele>
        <time>2023-11-22T14:32:33Z</time>
      </trkpt>
      <trkpt lat="49.10216" lon="0.08224">
        <ele>113.4</ele>
        <time>2023-11-22T14:32:34Z</time>
      </trkpt>
      <trkpt lat="49.10215" lon="0.08229">
        <ele>113.6</ele>
        <time>2023-11-22T14:32:35Z</time>
      </trkpt>
      <trkpt lat="49.10215" lon="0.08233">
        <ele>113.9</ele>
        <time>2023-11-22T14:32:36Z</time>
      </trkpt>
      <trkpt lat="49.10215" lon="0.08237">
        <ele>114.1</ele>
        <time>2023-11-22T14:32:37Z</time>
      </trkpt>
      <trkpt lat="49.10215" lon="0.08241">
        <ele>114.3</ele>
        <time>2023-11-22T14:32:38Z</time>
      </trkpt>
      <trkpt lat="49.10214" lon="0.08246">
        <ele>114.6</ele>
        <time>2023-11-22T14:32:39Z</time>
      </trkpt>
      <trkpt lat="49.10214" lon="0.0825">
        <ele>114.8</ele>
        <time>2023-11-22T14:32:40Z</time>
      </trkpt>
      <trkpt lat="49.10214" lon="0.08254">
        <ele>115</ele>
        <time>2023-11-22T14:32:41Z</time>
      </trkpt>
      <trkpt lat="49.10214" lon="0.0826">
        <ele>115.3</ele>
        <time>2023-11-22T14:32:42Z</time>
      </trkpt>
      <trkpt lat="49.10214" lon="0.08262">
        <ele>115.4</ele>
        <time>2023-11-22T14:32:43Z</time>
      </trkpt>
      <trkpt lat="49.10214" lon="0.08266">
        <ele>115.7</ele>
        <time>2023-11-22T14:32:44Z</time>
      </trkpt>
      <trkpt lat="49.10213" lon="0.08272">
        <ele>116</ele>
        <time>2023-11-22T14:32:45Z</time>
      </trkpt>
      <trkpt lat="49.10213" lon="0.08275">
        <ele>116.1</ele>
        <time>2023-11-22T14:32:46Z</time>
      </trkpt>
      <trkpt lat="49.10213" lon="0.08279">
        <ele>116.3</ele>
        <time>2023-11-22T14:32:47Z</time>
      </trkpt>
      <trkpt lat="49.10213" lon="0.08283">
        <ele>116.6</ele>
        <time>2023-11-22T14:32:48Z</time>
      </trkpt>
      <trkpt lat="49.10213" lon="0.08287">
        <ele>116.8</ele>
        <time>2023-11-22T14:32:49Z</time>
      </trkpt>
      <trkpt lat="49.10213" lon="0.08293">
        <ele>117.1</ele>
        <time>2023-11-22T14:32:50Z</time>
      </trkpt>
      <trkpt lat="49.10212" lon="0.08295">
        <ele>117.3</ele>
        <time>2023-11-22T14:32:51Z</time>
      </trkpt>
      <trkpt lat="49.10212" lon="0.08301">
        <ele>117.6</ele>
        <time>2023-11-22T14:32:52Z</time>
      </trkpt>
      <trkpt lat="49.10212" lon="0.08303">
        <ele>117.7</ele>
        <time>2023-11-22T14:32:53Z</time>
      </trkpt>
      <trkpt lat="49.10213" lon="0.08308">
        <ele>117.9</ele>
        <time>2023-11-22T14:32:54Z</time>
      </trkpt>
      <trkpt lat="49.10213" lon="0.08312">
        <ele>118.2</ele>
        <time>2023-11-22T14:32:55Z</time>
      </trkpt>
      <trkpt lat="49.10213" lon="0.08318">
        <ele>118.5</ele>
        <time>2023-11-22T14:32:56Z</time>
      </trkpt>
      <trkpt lat="49.10213" lon="0.0832">
        <ele>118.7</ele>
        <time>2023-11-22T14:32:57Z</time>
      </trkpt>
      <trkpt lat="49.10213" lon="0.08325">
        <ele>118.9</ele>
        <time>2023-11-22T14:32:58Z</time>
      </trkpt>
      <trkpt lat="49.10213" lon="0.08329">
        <ele>119.2</ele>
        <time>2023-11-22T14:32:59Z</time>
      </trkpt>
      <trkpt lat="49.10213" lon="0.08333">
        <ele>119.4</ele>
        <time>2023-11-22T14:33:00Z</time>
      </trkpt>
      <trkpt lat="49.10214" lon="0.08339">
        <ele>119.7</ele>
        <time>2023-11-22T14:33:01Z</time>
      </trkpt>
      <trkpt lat="49.10214" lon="0.08341">
        <ele>119.9</ele>
        <time>2023-11-22T14:33:02Z</time>
      </trkpt>
      <trkpt lat="49.10214" lon="0.08347">
        <ele>120.2</ele>
        <time>2023-11-22T14:33:03Z</time>
      </trkpt>
      <trkpt lat="49.10214" lon="0.08349">
        <ele>120.3</ele>
        <time>2023-11-22T14:33:04Z</time>
      </trkpt>
      <trkpt lat="49.10215" lon="0.08355">
        <ele>120.7</ele>
        <time>2023-11-22T14:33:05Z</time>
      </trkpt>
      <trkpt lat="49.10215" lon="0.08357">
        <ele>120.8</ele>
        <time>2023-11-22T14:33:06Z</time>
      </trkpt>
      <trkpt lat="49.10216" lon="0.08363">
        <ele>121.1</ele>
        <time>2023-11-22T14:33:07Z</time>
      </trkpt>
      <trkpt lat="49.10216" lon="0.08365">
        <ele>121.3</ele>
        <time>2023-11-22T14:33:08Z</time>
      </trkpt>
      <trkpt lat="49.10216" lon="0.0837">
        <ele>121.6</ele>
        <time>2023-11-22T14:33:09Z</time>
      </trkpt>
      <trkpt lat="49.10217" lon="0.08372">
        <ele>121.7</ele>
        <time>2023-11-22T14:33:10Z</time>
      </trkpt>
      <trkpt lat="49.10217" lon="0.08378">
        <ele>122</ele>
        <time>2023-11-22T14:33:11Z</time>
      </trkpt>
      <trkpt lat="49.10218" lon="0.08379">
        <ele>122.1</ele>
        <time>2023-11-22T14:33:12Z</time>
      </trkpt>
      <trkpt lat="49.10218" lon="0.08384">
        <ele>122.4</ele>
        <time>2023-11-22T14:33:13Z</time>
      </trkpt>
      <trkpt lat="49.10219" lon="0.08386">
        <ele>122.5</ele>
        <time>2023-11-22T14:33:14Z</time>
      </trkpt>
      <trkpt lat="49.1022" lon="0.08391">
        <ele>122.8</ele>
        <time>2023-11-22T14:33:15Z</time>
      </trkpt>
      <trkpt lat="49.1022" lon="0.08392">
        <ele>122.9</ele>
        <time>2023-11-22T14:33:16Z</time>
      </trkpt>
      <trkpt lat="49.10221" lon="0.08397">
        <ele>123.2</ele>
        <time>2023-11-22T14:33:17Z</time>
      </trkpt>
      <trkpt lat="49.10221" lon="0.08398">
        <ele>123.2</ele>
        <time>2023-11-22T14:33:18Z</time>
      </trkpt>
      <trkpt lat="49.10221" lon="0.08402">
        <ele>123.5</ele>
        <time>2023-11-22T14:33:19Z</time>
      </trkpt>
      <trkpt lat="49.10221" lon="0.08404">
        <ele>123.6</ele>
        <time>2023-11-22T14:33:20Z</time>
      </trkpt>
      <trkpt lat="49.10221" lon="0.0841">
        <ele>123.9</ele>
        <time>2023-11-22T14:33:21Z</time>
      </trkpt>
      <trkpt lat="49.10221" lon="0.08412">
        <ele>124</ele>
        <time>2023-11-22T14:33:22Z</time>
      </trkpt>
      <trkpt lat="49.10221" lon="0.08417">
        <ele>124.3</ele>
        <time>2023-11-22T14:33:23Z</time>
      </trkpt>
      <trkpt lat="49.10222" lon="0.08419">
        <ele>124.4</ele>
        <time>2023-11-22T14:33:24Z</time>
      </trkpt>
      <trkpt lat="49.10223" lon="0.08424">
        <ele>124.7</ele>
        <time>2023-11-22T14:33:25Z</time>
      </trkpt>
      <trkpt lat="49.10223" lon="0.08426">
        <ele>124.8</ele>
        <time>2023-11-22T14:33:26Z</time>
      </trkpt>
      <trkpt lat="49.10224" lon="0.08431">
        <ele>125.1</ele>
        <time>2023-11-22T14:33:27Z</time>
      </trkpt>
      <trkpt lat="49.10225" lon="0.08433">
        <ele>125.2</ele>
        <time>2023-11-22T14:33:28Z</time>
      </trkpt>
      <trkpt lat="49.10225" lon="0.08438">
        <ele>125.4</ele>
        <time>2023-11-22T14:33:29Z</time>
      </trkpt>
      <trkpt lat="49.10226" lon="0.08439">
        <ele>125.5</ele>
        <time>2023-11-22T14:33:30Z</time>
      </trkpt>
      <trkpt lat="49.10226" lon="0.08445">
        <ele>125.9</ele>
        <time>2023-11-22T14:33:31Z</time>
      </trkpt>
      <trkpt lat="49.10226" lon="0.08447">
        <ele>126</ele>
        <time>2023-11-22T14:33:32Z</time>
      </trkpt>
      <trkpt lat="49.10226" lon="0.08453">
        <ele>126.3</ele>
        <time>2023-11-22T14:33:33Z</time>
      </trkpt>
      <trkpt lat="49.10226" lon="0.08454">
        <ele>126.4</ele>
        <time>2023-11-22T14:33:34Z</time>
      </trkpt>
      <trkpt lat="49.10227" lon="0.08459">
        <ele>126.6</ele>
        <time>2023-11-22T14:33:35Z</time>
      </trkpt>
      <trkpt lat="49.10227" lon="0.08461">
        <ele>126.7</ele>
        <time>2023-11-22T14:33:36Z</time>
      </trkpt>
      <trkpt lat="49.10229" lon="0.08467">
        <ele>127.1</ele>
        <time>2023-11-22T14:33:37Z</time>
      </trkpt>
      <trkpt lat="49.10229" lon="0.08469">
        <ele>127.2</ele>
        <time>2023-11-22T14:33:38Z</time>
      </trkpt>
      <trkpt lat="49.10229" lon="0.08474">
        <ele>127.4</ele>
        <time>2023-11-22T14:33:39Z</time>
      </trkpt>
      <trkpt lat="49.10229" lon="0.08476">
        <ele>127.5</ele>
        <time>2023-11-22T14:33:40Z</time>
      </trkpt>
      <trkpt lat="49.1023" lon="0.08481">
        <ele>127.9</ele>
        <time>2023-11-22T14:33:41Z</time>
      </trkpt>
      <trkpt lat="49.1023" lon="0.08483">
        <ele>128</ele>
        <time>2023-11-22T14:33:42Z</time>
      </trkpt>
      <trkpt lat="49.10232" lon="0.08489">
        <ele>128.3</ele>
        <time>2023-11-22T14:33:43Z</time>
      </trkpt>
      <trkpt lat="49.10232" lon="0.08491">
        <ele>128.4</ele>
        <time>2023-11-22T14:33:44Z</time>
      </trkpt>
      <trkpt lat="49.10233" lon="0.08497">
        <ele>128.7</ele>
        <time>2023-11-22T14:33:45Z</time>
      </trkpt>
      <trkpt lat="49.10234" lon="0.08499">
        <ele>128.9</ele>
        <time>2023-11-22T14:33:46Z</time>
      </trkpt>
      <trkpt lat="49.10236" lon="0.08504">
        <ele>129.2</ele>
        <time>2023-11-22T14:33:47Z</time>
      </trkpt>
      <trkpt lat="49.10236" lon="0.08506">
        <ele>129.3</ele>
        <time>2023-11-22T14:33:48Z</time>
      </trkpt>
      <trkpt lat="49.10237" lon="0.08511">
        <ele>129.6</ele>
        <time>2023-11-22T14:33:49Z</time>
      </trkpt>
      <trkpt lat="49.10237" lon="0.08513">
        <ele>129.7</ele>
        <time>2023-11-22T14:33:50Z</time>
      </trkpt>
      <trkpt lat="49.10237" lon="0.08519">
        <ele>130.1</ele>
        <time>2023-11-22T14:33:51Z</time>
      </trkpt>
      <trkpt lat="49.10237" lon="0.08521">
        <ele>130.2</ele>
        <time>2023-11-22T14:33:52Z</time>
      </trkpt>
      <trkpt lat="49.10238" lon="0.08527">
        <ele>130.5</ele>
        <time>2023-11-22T14:33:53Z</time>
      </trkpt>
      <trkpt lat="49.10238" lon="0.08528">
        <ele>130.6</ele>
        <time>2023-11-22T14:33:54Z</time>
      </trkpt>
      <trkpt lat="49.10239" lon="0.08534">
        <ele>131</ele>
        <time>2023-11-22T14:33:55Z</time>
      </trkpt>
      <trkpt lat="49.1024" lon="0.08536">
        <ele>131.1</ele>
        <time>2023-11-22T14:33:56Z</time>
      </trkpt>
      <trkpt lat="49.10241" lon="0.08541">
        <ele>131.4</ele>
        <time>2023-11-22T14:33:57Z</time>
      </trkpt>
      <trkpt lat="49.10241" lon="0.08543">
        <ele>131.5</ele>
        <time>2023-11-22T14:33:58Z</time>
      </trkpt>
      <trkpt lat="49.10242" lon="0.08548">
        <ele>131.8</ele>
        <time>2023-11-22T14:33:59Z</time>
      </trkpt>
      <trkpt lat="49.10243" lon="0.0855">
        <ele>131.9</ele>
        <time>2023-11-22T14:34:00Z</time>
      </trkpt>
      <trkpt lat="49.10243" lon="0.08554">
        <ele>132.2</ele>
        <time>2023-11-22T14:34:01Z</time>
      </trkpt>
      <trkpt lat="49.10244" lon="0.0856">
        <ele>132.5</ele>
        <time>2023-11-22T14:34:02Z</time>
      </trkpt>
      <trkpt lat="49.10245" lon="0.08562">
        <ele>132.6</ele>
        <time>2023-11-22T14:34:03Z</time>
      </trkpt>
      <trkpt lat="49.10246" lon="0.08566">
        <ele>132.9</ele>
        <time>2023-11-22T14:34:04Z</time>
      </trkpt>
      <trkpt lat="49.10246" lon="0.0857">
        <ele>133.2</ele>
        <time>2023-11-22T14:34:05Z</time>
      </trkpt>
      <trkpt lat="49.10247" lon="0.08576">
        <ele>133.5</ele>
        <time>2023-11-22T14:34:06Z</time>
      </trkpt>
      <trkpt lat="49.10248" lon="0.08578">
        <ele>133.6</ele>
        <time>2023-11-22T14:34:07Z</time>
      </trkpt>
      <trkpt lat="49.10248" lon="0.08582">
        <ele>133.9</ele>
        <time>2023-11-22T14:34:08Z</time>
      </trkpt>
      <trkpt lat="49.10249" lon="0.08588">
        <ele>134.2</ele>
        <time>2023-11-22T14:34:09Z</time>
      </trkpt>
      <trkpt lat="49.1025" lon="0.0859">
        <ele>134.3</ele>
        <time>2023-11-22T14:34:10Z</time>
      </trkpt>
      <trkpt lat="49.10251" lon="0.08596">
        <ele>134.6</ele>
        <time>2023-11-22T14:34:11Z</time>
      </trkpt>
      <trkpt lat="49.10251" lon="0.08598">
        <ele>134.8</ele>
        <time>2023-11-22T14:34:12Z</time>
      </trkpt>
      <trkpt lat="49.10252" lon="0.08603">
        <ele>135.1</ele>
        <time>2023-11-22T14:34:13Z</time>
      </trkpt>
      <trkpt lat="49.10253" lon="0.08605">
        <ele>135.2</ele>
        <time>2023-11-22T14:34:14Z</time>
      </trkpt>
      <trkpt lat="49.10254" lon="0.0861">
        <ele>135.5</ele>
        <time>2023-11-22T14:34:15Z</time>
      </trkpt>
      <trkpt lat="49.10254" lon="0.08612">
        <ele>135.6</ele>
        <time>2023-11-22T14:34:16Z</time>
      </trkpt>
      <trkpt lat="49.10255" lon="0.08617">
        <ele>135.9</ele>
        <time>2023-11-22T14:34:17Z</time>
      </trkpt>
      <trkpt lat="49.10256" lon="0.08618">
        <ele>136</ele>
        <time>2023-11-22T14:34:18Z</time>
      </trkpt>
      <trkpt lat="49.10257" lon="0.08623">
        <ele>136.2</ele>
        <time>2023-11-22T14:34:19Z</time>
      </trkpt>
      <trkpt lat="49.10258" lon="0.08624">
        <ele>136.3</ele>
        <time>2023-11-22T14:34:20Z</time>
      </trkpt>
      <trkpt lat="49.10259" lon="0.08629">
        <ele>136.6</ele>
        <time>2023-11-22T14:34:21Z</time>
      </trkpt>
      <trkpt lat="49.1026" lon="0.0863">
        <ele>136.7</ele>
        <time>2023-11-22T14:34:22Z</time>
      </trkpt>
      <trkpt lat="49.10261" lon="0.08635">
        <ele>137</ele>
        <time>2023-11-22T14:34:23Z</time>
      </trkpt>
      <trkpt lat="49.10262" lon="0.08637">
        <ele>137.1</ele>
        <time>2023-11-22T14:34:24Z</time>
      </trkpt>
      <trkpt lat="49.10262" lon="0.08641">
        <ele>137.4</ele>
        <time>2023-11-22T14:34:25Z</time>
      </trkpt>
      <trkpt lat="49.10263" lon="0.08643">
        <ele>137.5</ele>
        <time>2023-11-22T14:34:26Z</time>
      </trkpt>
      <trkpt lat="49.10263" lon="0.08647">
        <ele>137.7</ele>
        <time>2023-11-22T14:34:27Z</time>
      </trkpt>
      <trkpt lat="49.10264" lon="0.08649">
        <ele>137.8</ele>
        <time>2023-11-22T14:34:28Z</time>
      </trkpt>
      <trkpt lat="49.10265" lon="0.08653">
        <ele>138.1</ele>
        <time>2023-11-22T14:34:29Z</time>
      </trkpt>
      <trkpt lat="49.10265" lon="0.08654">
        <ele>138.1</ele>
        <time>2023-11-22T14:34:30Z</time>
      </trkpt>
      <trkpt lat="49.10267" lon="0.08658">
        <ele>138.4</ele>
        <time>2023-11-22T14:34:31Z</time>
      </trkpt>
      <trkpt lat="49.10267" lon="0.08659">
        <ele>138.5</ele>
        <time>2023-11-22T14:34:32Z</time>
      </trkpt>
      <trkpt lat="49.10269" lon="0.08664">
        <ele>138.8</ele>
        <time>2023-11-22T14:34:33Z</time>
      </trkpt>
      <trkpt lat="49.10269" lon="0.08665">
        <ele>138.8</ele>
        <time>2023-11-22T14:34:34Z</time>
      </trkpt>
      <trkpt lat="49.1027" lon="0.0867">
        <ele>139.1</ele>
        <time>2023-11-22T14:34:35Z</time>
      </trkpt>
      <trkpt lat="49.10271" lon="0.08672">
        <ele>139.2</ele>
        <time>2023-11-22T14:34:36Z</time>
      </trkpt>
      <trkpt lat="49.10273" lon="0.08676">
        <ele>139.5</ele>
        <time>2023-11-22T14:34:37Z</time>
      </trkpt>
      <trkpt lat="49.10273" lon="0.08677">
        <ele>139.5</ele>
        <time>2023-11-22T14:34:38Z</time>
      </trkpt>
      <trkpt lat="49.10275" lon="0.08682">
        <ele>139.8</ele>
        <time>2023-11-22T14:34:39Z</time>
      </trkpt>
      <trkpt lat="49.10275" lon="0.08683">
        <ele>139.9</ele>
        <time>2023-11-22T14:34:40Z</time>
      </trkpt>
      <trkpt lat="49.10277" lon="0.08688">
        <ele>140.2</ele>
        <time>2023-11-22T14:34:41Z</time>
      </trkpt>
      <trkpt lat="49.10278" lon="0.0869">
        <ele>140.3</ele>
        <time>2023-11-22T14:34:42Z</time>
      </trkpt>
      <trkpt lat="49.1028" lon="0.08695">
        <ele>140.6</ele>
        <time>2023-11-22T14:34:43Z</time>
      </trkpt>
      <trkpt lat="49.10281" lon="0.08696">
        <ele>140.6</ele>
        <time>2023-11-22T14:34:44Z</time>
      </trkpt>
      <trkpt lat="49.10283" lon="0.08701">
        <ele>140.9</ele>
        <time>2023-11-22T14:34:45Z</time>
      </trkpt>
      <trkpt lat="49.10284" lon="0.08703">
        <ele>141</ele>
        <time>2023-11-22T14:34:46Z</time>
      </trkpt>
      <trkpt lat="49.10285" lon="0.08707">
        <ele>141.2</ele>
        <time>2023-11-22T14:34:47Z</time>
      </trkpt>
      <trkpt lat="49.10287" lon="0.08711">
        <ele>141.5</ele>
        <time>2023-11-22T14:34:48Z</time>
      </trkpt>
      <trkpt lat="49.10288" lon="0.08713">
        <ele>141.5</ele>
        <time>2023-11-22T14:34:49Z</time>
      </trkpt>
      <trkpt lat="49.1029" lon="0.08717">
        <ele>141.8</ele>
        <time>2023-11-22T14:34:50Z</time>
      </trkpt>
      <trkpt lat="49.10291" lon="0.08719">
        <ele>141.9</ele>
        <time>2023-11-22T14:34:51Z</time>
      </trkpt>
      <trkpt lat="49.10293" lon="0.08724">
        <ele>142.1</ele>
        <time>2023-11-22T14:34:52Z</time>
      </trkpt>
      <trkpt lat="49.10294" lon="0.08725">
        <ele>142.2</ele>
        <time>2023-11-22T14:34:53Z</time>
      </trkpt>
      <trkpt lat="49.10296" lon="0.08729">
        <ele>142.4</ele>
        <time>2023-11-22T14:34:54Z</time>
      </trkpt>
      <trkpt lat="49.10297" lon="0.08732">
        <ele>142.6</ele>
        <time>2023-11-22T14:34:55Z</time>
      </trkpt>
      <trkpt lat="49.10299" lon="0.08735">
        <ele>142.8</ele>
        <time>2023-11-22T14:34:56Z</time>
      </trkpt>
      <trkpt lat="49.10301" lon="0.08739">
        <ele>143</ele>
        <time>2023-11-22T14:34:57Z</time>
      </trkpt>
      <trkpt lat="49.10303" lon="0.08743">
        <ele>143.1</ele>
        <time>2023-11-22T14:34:58Z</time>
      </trkpt>
      <trkpt lat="49.10305" lon="0.08747">
        <ele>143.3</ele>
        <time>2023-11-22T14:34:59Z</time>
      </trkpt>
      <trkpt lat="49.10307" lon="0.0875">
        <ele>143.5</ele>
        <time>2023-11-22T14:35:00Z</time>
      </trkpt>
      <trkpt lat="49.10309" lon="0.08753">
        <ele>143.7</ele>
        <time>2023-11-22T14:35:01Z</time>
      </trkpt>
      <trkpt lat="49.10311" lon="0.08757">
        <ele>143.8</ele>
        <time>2023-11-22T14:35:02Z</time>
      </trkpt>
      <trkpt lat="49.10313" lon="0.0876">
        <ele>144</ele>
        <time>2023-11-22T14:35:03Z</time>
      </trkpt>
      <trkpt lat="49.10315" lon="0.08764">
        <ele>144.2</ele>
        <time>2023-11-22T14:35:04Z</time>
      </trkpt>
      <trkpt lat="49.10317" lon="0.08768">
        <ele>144.3</ele>
        <time>2023-11-22T14:35:05Z</time>
      </trkpt>
      <trkpt lat="49.10319" lon="0.08772">
        <ele>144.4</ele>
        <time>2023-11-22T14:35:06Z</time>
      </trkpt>
      <trkpt lat="49.10321" lon="0.08776">
        <ele>144.6</ele>
        <time>2023-11-22T14:35:07Z</time>
      </trkpt>
      <trkpt lat="49.10323" lon="0.08779">
        <ele>144.7</ele>
        <time>2023-11-22T14:35:08Z</time>
      </trkpt>
      <trkpt lat="49.10325" lon="0.08783">
        <ele>144.8</ele>
        <time>2023-11-22T14:35:09Z</time>
      </trkpt>
      <trkpt lat="49.10327" lon="0.08786">
        <ele>144.9</ele>
        <time>2023-11-22T14:35:10Z</time>
      </trkpt>
      <trkpt lat="49.1033" lon="0.0879">
        <ele>145</ele>
        <time>2023-11-22T14:35:11Z</time>
      </trkpt>
      <trkpt lat="49.10332" lon="0.08794">
        <ele>145.1</ele>
        <time>2023-11-22T14:35:12Z</time>
      </trkpt>
      <trkpt lat="49.10334" lon="0.08798">
        <ele>145.2</ele>
        <time>2023-11-22T14:35:13Z</time>
      </trkpt>
      <trkpt lat="49.10337" lon="0.08802">
        <ele>145.3</ele>
        <time>2023-11-22T14:35:14Z</time>
      </trkpt>
      <trkpt lat="49.10339" lon="0.08806">
        <ele>145.4</ele>
        <time>2023-11-22T14:35:15Z</time>
      </trkpt>
      <trkpt lat="49.10342" lon="0.08809">
        <ele>145.5</ele>
        <time>2023-11-22T14:35:16Z</time>
      </trkpt>
      <trkpt lat="49.10344" lon="0.08813">
        <ele>145.6</ele>
        <time>2023-11-22T14:35:17Z</time>
      </trkpt>
      <trkpt lat="49.10346" lon="0.08818">
        <ele>145.6</ele>
        <time>2023-11-22T14:35:18Z</time>
      </trkpt>
      <trkpt lat="49.10348" lon="0.08822">
        <ele>145.7</ele>
        <time>2023-11-22T14:35:19Z</time>
      </trkpt>
      <trkpt lat="49.1035" lon="0.08826">
        <ele>145.8</ele>
        <time>2023-11-22T14:35:20Z</time>
      </trkpt>
      <trkpt lat="49.10353" lon="0.08831">
        <ele>145.9</ele>
        <time>2023-11-22T14:35:21Z</time>
      </trkpt>
      <trkpt lat="49.10355" lon="0.08835">
        <ele>145.9</ele>
        <time>2023-11-22T14:35:22Z</time>
      </trkpt>
      <trkpt lat="49.10358" lon="0.0884">
        <ele>146</ele>
        <time>2023-11-22T14:35:23Z</time>
      </trkpt>
      <trkpt lat="49.10361" lon="0.08844">
        <ele>146.1</ele>
        <time>2023-11-22T14:35:24Z</time>
      </trkpt>
      <trkpt lat="49.10363" lon="0.08848">
        <ele>146.1</ele>
        <time>2023-11-22T14:35:25Z</time>
      </trkpt>
      <trkpt lat="49.10366" lon="0.08853">
        <ele>146.2</ele>
        <time>2023-11-22T14:35:26Z</time>
      </trkpt>
      <trkpt lat="49.10369" lon="0.08858">
        <ele>146.3</ele>
        <time>2023-11-22T14:35:27Z</time>
      </trkpt>
      <trkpt lat="49.10372" lon="0.08863">
        <ele>146.3</ele>
        <time>2023-11-22T14:35:28Z</time>
      </trkpt>
      <trkpt lat="49.10375" lon="0.08868">
        <ele>146.4</ele>
        <time>2023-11-22T14:35:29Z</time>
      </trkpt>
      <trkpt lat="49.10377" lon="0.08873">
        <ele>146.5</ele>
        <time>2023-11-22T14:35:30Z</time>
      </trkpt>
      <trkpt lat="49.1038" lon="0.08878">
        <ele>146.5</ele>
        <time>2023-11-22T14:35:31Z</time>
      </trkpt>
      <trkpt lat="49.10383" lon="0.08884">
        <ele>146.6</ele>
        <time>2023-11-22T14:35:32Z</time>
      </trkpt>
      <trkpt lat="49.10386" lon="0.08889">
        <ele>146.6</ele>
        <time>2023-11-22T14:35:33Z</time>
      </trkpt>
      <trkpt lat="49.10389" lon="0.08894">
        <ele>146.7</ele>
        <time>2023-11-22T14:35:34Z</time>
      </trkpt>
      <trkpt lat="49.10392" lon="0.08899">
        <ele>146.7</ele>
        <time>2023-11-22T14:35:35Z</time>
      </trkpt>
      <trkpt lat="49.10395" lon="0.08904">
        <ele>146.8</ele>
        <time>2023-11-22T14:35:36Z</time>
      </trkpt>
      <trkpt lat="49.10397" lon="0.0891">
        <ele>146.8</ele>
        <time>2023-11-22T14:35:37Z</time>
      </trkpt>
      <trkpt lat="49.104" lon="0.08915">
        <ele>146.9</ele>
        <time>2023-11-22T14:35:38Z</time>
      </trkpt>
      <trkpt lat="49.10403" lon="0.08921">
        <ele>146.9</ele>
        <time>2023-11-22T14:35:39Z</time>
      </trkpt>
      <trkpt lat="49.10407" lon="0.08927">
        <ele>147</ele>
        <time>2023-11-22T14:35:40Z</time>
      </trkpt>
      <trkpt lat="49.1041" lon="0.08933">
        <ele>147</ele>
        <time>2023-11-22T14:35:41Z</time>
      </trkpt>
      <trkpt lat="49.10413" lon="0.08939">
        <ele>147</ele>
        <time>2023-11-22T14:35:42Z</time>
      </trkpt>
      <trkpt lat="49.10416" lon="0.08944">
        <ele>147</ele>
        <time>2023-11-22T14:35:43Z</time>
      </trkpt>
      <trkpt lat="49.1042" lon="0.0895">
        <ele>147</ele>
        <time>2023-11-22T14:35:44Z</time>
      </trkpt>
      <trkpt lat="49.10423" lon="0.08955">
        <ele>147</ele>
        <time>2023-11-22T14:35:45Z</time>
      </trkpt>
      <trkpt lat="49.10426" lon="0.0896">
        <ele>147</ele>
        <time>2023-11-22T14:35:46Z</time>
      </trkpt>
      <trkpt lat="49.10429" lon="0.08966">
        <ele>147</ele>
        <time>2023-11-22T14:35:47Z</time>
      </trkpt>
      <trkpt lat="49.10432" lon="0.08971">
        <ele>147</ele>
        <time>2023-11-22T14:35:48Z</time>
      </trkpt>
      <trkpt lat="49.10435" lon="0.08977">
        <ele>147</ele>
        <time>2023-11-22T14:35:49Z</time>
      </trkpt>
      <trkpt lat="49.10439" lon="0.08983">
        <ele>147</ele>
        <time>2023-11-22T14:35:50Z</time>
      </trkpt>
      <trkpt lat="49.10442" lon="0.08989">
        <ele>147</ele>
        <time>2023-11-22T14:35:51Z</time>
      </trkpt>
      <trkpt lat="49.10446" lon="0.08995">
        <ele>147</ele>
        <time>2023-11-22T14:35:52Z</time>
      </trkpt>
      <trkpt lat="49.10449" lon="0.09001">
        <ele>146.9</ele>
        <time>2023-11-22T14:35:53Z</time>
      </trkpt>
      <trkpt lat="49.10453" lon="0.09007">
        <ele>146.9</ele>
        <time>2023-11-22T14:35:54Z</time>
      </trkpt>
      <trkpt lat="49.10457" lon="0.09014">
        <ele>146.9</ele>
        <time>2023-11-22T14:35:55Z</time>
      </trkpt>
      <trkpt lat="49.10461" lon="0.09022">
        <ele>146.9</ele>
        <time>2023-11-22T14:35:56Z</time>
      </trkpt>
      <trkpt lat="49.10465" lon="0.09029">
        <ele>146.8</ele>
        <time>2023-11-22T14:35:57Z</time>
      </trkpt>
      <trkpt lat="49.1047" lon="0.09036">
        <ele>146.8</ele>
        <time>2023-11-22T14:35:58Z</time>
      </trkpt>
      <trkpt lat="49.10474" lon="0.09044">
        <ele>146.8</ele>
        <time>2023-11-22T14:35:59Z</time>
      </trkpt>
      <trkpt lat="49.10478" lon="0.09051">
        <ele>146.8</ele>
        <time>2023-11-22T14:36:00Z</time>
      </trkpt>
      <trkpt lat="49.10482" lon="0.09059">
        <ele>146.8</ele>
        <time>2023-11-22T14:36:01Z</time>
      </trkpt>
      <trkpt lat="49.10486" lon="0.09066">
        <ele>146.8</ele>
        <time>2023-11-22T14:36:02Z</time>
      </trkpt>
      <trkpt lat="49.1049" lon="0.09074">
        <ele>146.8</ele>
        <time>2023-11-22T14:36:03Z</time>
      </trkpt>
      <trkpt lat="49.10494" lon="0.09082">
        <ele>146.8</ele>
        <time>2023-11-22T14:36:04Z</time>
      </trkpt>
      <trkpt lat="49.10498" lon="0.09089">
        <ele>146.8</ele>
        <time>2023-11-22T14:36:05Z</time>
      </trkpt>
      <trkpt lat="49.10502" lon="0.09096">
        <ele>146.9</ele>
        <time>2023-11-22T14:36:06Z</time>
      </trkpt>
      <trkpt lat="49.10506" lon="0.09104">
        <ele>146.9</ele>
        <time>2023-11-22T14:36:07Z</time>
      </trkpt>
      <trkpt lat="49.10509" lon="0.09111">
        <ele>147</ele>
        <time>2023-11-22T14:36:08Z</time>
      </trkpt>
      <trkpt lat="49.10512" lon="0.09119">
        <ele>147</ele>
        <time>2023-11-22T14:36:09Z</time>
      </trkpt>
      <trkpt lat="49.10515" lon="0.09128">
        <ele>147</ele>
        <time>2023-11-22T14:36:10Z</time>
      </trkpt>
      <trkpt lat="49.10519" lon="0.09136">
        <ele>147.1</ele>
        <time>2023-11-22T14:36:11Z</time>
      </trkpt>
      <trkpt lat="49.10522" lon="0.09144">
        <ele>147.2</ele>
        <time>2023-11-22T14:36:12Z</time>
      </trkpt>
      <trkpt lat="49.10524" lon="0.09152">
        <ele>147.2</ele>
        <time>2023-11-22T14:36:13Z</time>
      </trkpt>
      <trkpt lat="49.10528" lon="0.09161">
        <ele>147.3</ele>
        <time>2023-11-22T14:36:14Z</time>
      </trkpt>
      <trkpt lat="49.1053" lon="0.0917">
        <ele>147.4</ele>
        <time>2023-11-22T14:36:15Z</time>
      </trkpt>
      <trkpt lat="49.10532" lon="0.09178">
        <ele>147.4</ele>
        <time>2023-11-22T14:36:16Z</time>
      </trkpt>
      <trkpt lat="49.10534" lon="0.09185">
        <ele>147.5</ele>
        <time>2023-11-22T14:36:17Z</time>
      </trkpt>
      <trkpt lat="49.10536" lon="0.09192">
        <ele>147.6</ele>
        <time>2023-11-22T14:36:18Z</time>
      </trkpt>
      <trkpt lat="49.10538" lon="0.092">
        <ele>147.7</ele>
        <time>2023-11-22T14:36:19Z</time>
      </trkpt>
      <trkpt lat="49.1054" lon="0.09207">
        <ele>147.8</ele>
        <time>2023-11-22T14:36:20Z</time>
      </trkpt>
      <trkpt lat="49.10542" lon="0.09214">
        <ele>147.9</ele>
        <time>2023-11-22T14:36:21Z</time>
      </trkpt>
      <trkpt lat="49.10543" lon="0.09221">
        <ele>147.9</ele>
        <time>2023-11-22T14:36:22Z</time>
      </trkpt>
      <trkpt lat="49.10544" lon="0.09228">
        <ele>148</ele>
        <time>2023-11-22T14:36:23Z</time>
      </trkpt>
      <trkpt lat="49.10545" lon="0.09234">
        <ele>148.1</ele>
        <time>2023-11-22T14:36:24Z</time>
      </trkpt>
      <trkpt lat="49.10546" lon="0.09241">
        <ele>148.2</ele>
        <time>2023-11-22T14:36:25Z</time>
      </trkpt>
      <trkpt lat="49.10546" lon="0.09248">
        <ele>148.3</ele>
        <time>2023-11-22T14:36:26Z</time>
      </trkpt>
      <trkpt lat="49.10545" lon="0.09256">
        <ele>148.5</ele>
        <time>2023-11-22T14:36:27Z</time>
      </trkpt>
      <trkpt lat="49.10545" lon="0.09263">
        <ele>148.6</ele>
        <time>2023-11-22T14:36:28Z</time>
      </trkpt>
      <trkpt lat="49.10545" lon="0.0927">
        <ele>148.8</ele>
        <time>2023-11-22T14:36:29Z</time>
      </trkpt>
      <trkpt lat="49.10545" lon="0.09277">
        <ele>148.9</ele>
        <time>2023-11-22T14:36:30Z</time>
      </trkpt>
      <trkpt lat="49.10545" lon="0.09284">
        <ele>149.1</ele>
        <time>2023-11-22T14:36:31Z</time>
      </trkpt>
      <trkpt lat="49.10545" lon="0.09291">
        <ele>149.2</ele>
        <time>2023-11-22T14:36:32Z</time>
      </trkpt>
      <trkpt lat="49.10545" lon="0.09298">
        <ele>149.4</ele>
        <time>2023-11-22T14:36:33Z</time>
      </trkpt>
      <trkpt lat="49.10545" lon="0.09304">
        <ele>149.5</ele>
        <time>2023-11-22T14:36:34Z</time>
      </trkpt>
      <trkpt lat="49.10546" lon="0.09311">
        <ele>149.7</ele>
        <time>2023-11-22T14:36:35Z</time>
      </trkpt>
      <trkpt lat="49.10546" lon="0.09317">
        <ele>149.8</ele>
        <time>2023-11-22T14:36:36Z</time>
      </trkpt>
      <trkpt lat="49.10545" lon="0.09323">
        <ele>149.9</ele>
        <time>2023-11-22T14:36:37Z</time>
      </trkpt>
      <trkpt lat="49.10546" lon="0.09329">
        <ele>150.1</ele>
        <time>2023-11-22T14:36:38Z</time>
      </trkpt>
      <trkpt lat="49.10546" lon="0.09335">
        <ele>150.2</ele>
        <time>2023-11-22T14:36:39Z</time>
      </trkpt>
      <trkpt lat="49.10545" lon="0.09341">
        <ele>150.3</ele>
        <time>2023-11-22T14:36:40Z</time>
      </trkpt>
      <trkpt lat="49.10545" lon="0.09348">
        <ele>150.5</ele>
        <time>2023-11-22T14:36:41Z</time>
      </trkpt>
      <trkpt lat="49.10545" lon="0.09354">
        <ele>150.6</ele>
        <time>2023-11-22T14:36:42Z</time>
      </trkpt>
      <trkpt lat="49.10545" lon="0.09359">
        <ele>150.7</ele>
        <time>2023-11-22T14:36:43Z</time>
      </trkpt>
      <trkpt lat="49.10546" lon="0.09365">
        <ele>150.8</ele>
        <time>2023-11-22T14:36:44Z</time>
      </trkpt>
      <trkpt lat="49.10546" lon="0.09371">
        <ele>150.9</ele>
        <time>2023-11-22T14:36:45Z</time>
      </trkpt>
      <trkpt lat="49.10546" lon="0.09376">
        <ele>151</ele>
        <time>2023-11-22T14:36:46Z</time>
      </trkpt>
      <trkpt lat="49.10547" lon="0.09382">
        <ele>151.1</ele>
        <time>2023-11-22T14:36:47Z</time>
      </trkpt>
      <trkpt lat="49.10547" lon="0.09388">
        <ele>151.2</ele>
        <time>2023-11-22T14:36:48Z</time>
      </trkpt>
      <trkpt lat="49.10547" lon="0.09393">
        <ele>151.3</ele>
        <time>2023-11-22T14:36:49Z</time>
      </trkpt>
      <trkpt lat="49.10548" lon="0.09399">
        <ele>151.4</ele>
        <time>2023-11-22T14:36:50Z</time>
      </trkpt>
      <trkpt lat="49.10548" lon="0.09406">
        <ele>151.5</ele>
        <time>2023-11-22T14:36:51Z</time>
      </trkpt>
      <trkpt lat="49.10548" lon="0.09413">
        <ele>151.5</ele>
        <time>2023-11-22T14:36:52Z</time>
      </trkpt>
      <trkpt lat="49.10548" lon="0.09421">
        <ele>151.6</ele>
        <time>2023-11-22T14:36:53Z</time>
      </trkpt>
      <trkpt lat="49.10548" lon="0.09428">
        <ele>151.7</ele>
        <time>2023-11-22T14:36:54Z</time>
      </trkpt>
      <trkpt lat="49.10548" lon="0.09435">
        <ele>151.8</ele>
        <time>2023-11-22T14:36:55Z</time>
      </trkpt>
      <trkpt lat="49.10548" lon="0.09442">
        <ele>151.9</ele>
        <time>2023-11-22T14:36:56Z</time>
      </trkpt>
      <trkpt lat="49.10548" lon="0.0945">
        <ele>152</ele>
        <time>2023-11-22T14:36:57Z</time>
      </trkpt>
      <trkpt lat="49.10547" lon="0.09457">
        <ele>152.1</ele>
        <time>2023-11-22T14:36:58Z</time>
      </trkpt>
      <trkpt lat="49.10547" lon="0.09464">
        <ele>152.2</ele>
        <time>2023-11-22T14:36:59Z</time>
      </trkpt>
      <trkpt lat="49.10547" lon="0.09471">
        <ele>152.2</ele>
        <time>2023-11-22T14:37:00Z</time>
      </trkpt>
      <trkpt lat="49.10547" lon="0.09478">
        <ele>152.3</ele>
        <time>2023-11-22T14:37:01Z</time>
      </trkpt>
      <trkpt lat="49.10547" lon="0.09484">
        <ele>152.4</ele>
        <time>2023-11-22T14:37:02Z</time>
      </trkpt>
      <trkpt lat="49.10546" lon="0.0949">
        <ele>152.4</ele>
        <time>2023-11-22T14:37:03Z</time>
      </trkpt>
      <trkpt lat="49.10546" lon="0.09496">
        <ele>152.5</ele>
        <time>2023-11-22T14:37:04Z</time>
      </trkpt>
      <trkpt lat="49.10546" lon="0.09502">
        <ele>152.6</ele>
        <time>2023-11-22T14:37:05Z</time>
      </trkpt>
      <trkpt lat="49.10545" lon="0.09508">
        <ele>152.6</ele>
        <time>2023-11-22T14:37:06Z</time>
      </trkpt>
      <trkpt lat="49.10545" lon="0.09513">
        <ele>152.7</ele>
        <time>2023-11-22T14:37:07Z</time>
      </trkpt>
      <trkpt lat="49.10545" lon="0.09518">
        <ele>152.7</ele>
        <time>2023-11-22T14:37:08Z</time>
      </trkpt>
      <trkpt lat="49.10545" lon="0.09524">
        <ele>152.8</ele>
        <time>2023-11-22T14:37:09Z</time>
      </trkpt>
      <trkpt lat="49.10545" lon="0.09529">
        <ele>152.8</ele>
        <time>2023-11-22T14:37:10Z</time>
      </trkpt>
      <trkpt lat="49.10545" lon="0.09535">
        <ele>152.8</ele>
        <time>2023-11-22T14:37:11Z</time>
      </trkpt>
      <trkpt lat="49.10545" lon="0.09542">
        <ele>152.9</ele>
        <time>2023-11-22T14:37:12Z</time>
      </trkpt>
      <trkpt lat="49.10545" lon="0.09549">
        <ele>153</ele>
        <time>2023-11-22T14:37:13Z</time>
      </trkpt>
      <trkpt lat="49.10544" lon="0.09556">
        <ele>153</ele>
        <time>2023-11-22T14:37:14Z</time>
      </trkpt>
      <trkpt lat="49.10544" lon="0.09563">
        <ele>153.1</ele>
        <time>2023-11-22T14:37:15Z</time>
      </trkpt>
      <trkpt lat="49.10544" lon="0.0957">
        <ele>153.1</ele>
        <time>2023-11-22T14:37:16Z</time>
      </trkpt>
      <trkpt lat="49.10544" lon="0.09578">
        <ele>153.2</ele>
        <time>2023-11-22T14:37:17Z</time>
      </trkpt>
      <trkpt lat="49.10544" lon="0.09584">
        <ele>153.3</ele>
        <time>2023-11-22T14:37:18Z</time>
      </trkpt>
      <trkpt lat="49.10544" lon="0.09591">
        <ele>153.3</ele>
        <time>2023-11-22T14:37:19Z</time>
      </trkpt>
      <trkpt lat="49.10544" lon="0.09597">
        <ele>153.4</ele>
        <time>2023-11-22T14:37:20Z</time>
      </trkpt>
      <trkpt lat="49.10544" lon="0.09603">
        <ele>153.5</ele>
        <time>2023-11-22T14:37:21Z</time>
      </trkpt>
      <trkpt lat="49.10544" lon="0.09609">
        <ele>153.6</ele>
        <time>2023-11-22T14:37:22Z</time>
      </trkpt>
      <trkpt lat="49.10544" lon="0.09616">
        <ele>153.7</ele>
        <time>2023-11-22T14:37:23Z</time>
      </trkpt>
      <trkpt lat="49.10545" lon="0.09623">
        <ele>153.8</ele>
        <time>2023-11-22T14:37:24Z</time>
      </trkpt>
      <trkpt lat="49.10545" lon="0.09629">
        <ele>153.9</ele>
        <time>2023-11-22T14:37:25Z</time>
      </trkpt>
      <trkpt lat="49.10546" lon="0.09636">
        <ele>154</ele>
        <time>2023-11-22T14:37:26Z</time>
      </trkpt>
      <trkpt lat="49.10546" lon="0.09642">
        <ele>154</ele>
        <time>2023-11-22T14:37:27Z</time>
      </trkpt>
      <trkpt lat="49.10547" lon="0.09647">
        <ele>154.1</ele>
        <time>2023-11-22T14:37:28Z</time>
      </trkpt>
      <trkpt lat="49.10548" lon="0.09652">
        <ele>154.2</ele>
        <time>2023-11-22T14:37:29Z</time>
      </trkpt>
      <trkpt lat="49.10549" lon="0.09657">
        <ele>154.3</ele>
        <time>2023-11-22T14:37:30Z</time>
      </trkpt>
      <trkpt lat="49.1055" lon="0.09662">
        <ele>154.3</ele>
        <time>2023-11-22T14:37:31Z</time>
      </trkpt>
      <trkpt lat="49.10551" lon="0.09667">
        <ele>154.4</ele>
        <time>2023-11-22T14:37:32Z</time>
      </trkpt>
      <trkpt lat="49.10552" lon="0.09672">
        <ele>154.5</ele>
        <time>2023-11-22T14:37:33Z</time>
      </trkpt>
      <trkpt lat="49.10553" lon="0.09678">
        <ele>154.6</ele>
        <time>2023-11-22T14:37:34Z</time>
      </trkpt>
      <trkpt lat="49.10554" lon="0.09683">
        <ele>154.6</ele>
        <time>2023-11-22T14:37:35Z</time>
      </trkpt>
      <trkpt lat="49.10556" lon="0.09688">
        <ele>154.7</ele>
        <time>2023-11-22T14:37:36Z</time>
      </trkpt>
      <trkpt lat="49.10557" lon="0.09694">
        <ele>154.8</ele>
        <time>2023-11-22T14:37:37Z</time>
      </trkpt>
      <trkpt lat="49.10558" lon="0.097">
        <ele>154.9</ele>
        <time>2023-11-22T14:37:38Z</time>
      </trkpt>
      <trkpt lat="49.1056" lon="0.09706">
        <ele>155</ele>
        <time>2023-11-22T14:37:39Z</time>
      </trkpt>
      <trkpt lat="49.10562" lon="0.09713">
        <ele>155</ele>
        <time>2023-11-22T14:37:40Z</time>
      </trkpt>
      <trkpt lat="49.10564" lon="0.09719">
        <ele>155.2</ele>
        <time>2023-11-22T14:37:41Z</time>
      </trkpt>
      <trkpt lat="49.10566" lon="0.09725">
        <ele>155.3</ele>
        <time>2023-11-22T14:37:42Z</time>
      </trkpt>
      <trkpt lat="49.10568" lon="0.0973">
        <ele>155.4</ele>
        <time>2023-11-22T14:37:43Z</time>
      </trkpt>
      <trkpt lat="49.1057" lon="0.09735">
        <ele>155.5</ele>
        <time>2023-11-22T14:37:44Z</time>
      </trkpt>
      <trkpt lat="49.10573" lon="0.09741">
        <ele>155.6</ele>
        <time>2023-11-22T14:37:45Z</time>
      </trkpt>
      <trkpt lat="49.10574" lon="0.09746">
        <ele>155.7</ele>
        <time>2023-11-22T14:37:46Z</time>
      </trkpt>
      <trkpt lat="49.10576" lon="0.09754">
        <ele>155.8</ele>
        <time>2023-11-22T14:37:47Z</time>
      </trkpt>
      <trkpt lat="49.10578" lon="0.0976">
        <ele>155.9</ele>
        <time>2023-11-22T14:37:48Z</time>
      </trkpt>
      <trkpt lat="49.10579" lon="0.09767">
        <ele>155.9</ele>
        <time>2023-11-22T14:37:49Z</time>
      </trkpt>
      <trkpt lat="49.10582" lon="0.09774">
        <ele>156</ele>
        <time>2023-11-22T14:37:50Z</time>
      </trkpt>
      <trkpt lat="49.10583" lon="0.09778">
        <ele>156.1</ele>
        <time>2023-11-22T14:37:51Z</time>
      </trkpt>
      <trkpt lat="49.10585" lon="0.09782">
        <ele>156.1</ele>
        <time>2023-11-22T14:37:52Z</time>
      </trkpt>
      <trkpt lat="49.10587" lon="0.09786">
        <ele>156.2</ele>
        <time>2023-11-22T14:37:53Z</time>
      </trkpt>
      <trkpt lat="49.10588" lon="0.0979">
        <ele>156.2</ele>
        <time>2023-11-22T14:37:54Z</time>
      </trkpt>
      <trkpt lat="49.1059" lon="0.09795">
        <ele>156.3</ele>
        <time>2023-11-22T14:37:55Z</time>
      </trkpt>
      <trkpt lat="49.10592" lon="0.098">
        <ele>156.4</ele>
        <time>2023-11-22T14:37:56Z</time>
      </trkpt>
      <trkpt lat="49.10594" lon="0.09805">
        <ele>156.4</ele>
        <time>2023-11-22T14:37:57Z</time>
      </trkpt>
      <trkpt lat="49.10596" lon="0.0981">
        <ele>156.5</ele>
        <time>2023-11-22T14:37:58Z</time>
      </trkpt>
      <trkpt lat="49.10598" lon="0.09816">
        <ele>156.5</ele>
        <time>2023-11-22T14:37:59Z</time>
      </trkpt>
      <trkpt lat="49.106" lon="0.09821">
        <ele>156.6</ele>
        <time>2023-11-22T14:38:00Z</time>
      </trkpt>
      <trkpt lat="49.10602" lon="0.09827">
        <ele>156.7</ele>
        <time>2023-11-22T14:38:01Z</time>
      </trkpt>
      <trkpt lat="49.10604" lon="0.09832">
        <ele>156.7</ele>
        <time>2023-11-22T14:38:02Z</time>
      </trkpt>
      <trkpt lat="49.10606" lon="0.09837">
        <ele>156.8</ele>
        <time>2023-11-22T14:38:03Z</time>
      </trkpt>
      <trkpt lat="49.10608" lon="0.09843">
        <ele>156.9</ele>
        <time>2023-11-22T14:38:04Z</time>
      </trkpt>
      <trkpt lat="49.10609" lon="0.09849">
        <ele>157</ele>
        <time>2023-11-22T14:38:05Z</time>
      </trkpt>
      <trkpt lat="49.10611" lon="0.09853">
        <ele>157</ele>
        <time>2023-11-22T14:38:06Z</time>
      </trkpt>
      <trkpt lat="49.10613" lon="0.09858">
        <ele>157.1</ele>
        <time>2023-11-22T14:38:07Z</time>
      </trkpt>
      <trkpt lat="49.10614" lon="0.09862">
        <ele>157.1</ele>
        <time>2023-11-22T14:38:08Z</time>
      </trkpt>
      <trkpt lat="49.10616" lon="0.09867">
        <ele>157.2</ele>
        <time>2023-11-22T14:38:09Z</time>
      </trkpt>
      <trkpt lat="49.10618" lon="0.0987">
        <ele>157.2</ele>
        <time>2023-11-22T14:38:10Z</time>
      </trkpt>
      <trkpt lat="49.10619" lon="0.09874">
        <ele>157.2</ele>
        <time>2023-11-22T14:38:11Z</time>
      </trkpt>
      <trkpt lat="49.10621" lon="0.09878">
        <ele>157.3</ele>
        <time>2023-11-22T14:38:12Z</time>
      </trkpt>
      <trkpt lat="49.10623" lon="0.09882">
        <ele>157.3</ele>
        <time>2023-11-22T14:38:13Z</time>
      </trkpt>
      <trkpt lat="49.10624" lon="0.09886">
        <ele>157.3</ele>
        <time>2023-11-22T14:38:14Z</time>
      </trkpt>
      <trkpt lat="49.10626" lon="0.0989">
        <ele>157.3</ele>
        <time>2023-11-22T14:38:15Z</time>
      </trkpt>
      <trkpt lat="49.10628" lon="0.09894">
        <ele>157.3</ele>
        <time>2023-11-22T14:38:16Z</time>
      </trkpt>
      <trkpt lat="49.1063" lon="0.09899">
        <ele>157.4</ele>
        <time>2023-11-22T14:38:17Z</time>
      </trkpt>
      <trkpt lat="49.10632" lon="0.09903">
        <ele>157.4</ele>
        <time>2023-11-22T14:38:18Z</time>
      </trkpt>
      <trkpt lat="49.10634" lon="0.09911">
        <ele>157.4</ele>
        <time>2023-11-22T14:38:19Z</time>
      </trkpt>
      <trkpt lat="49.10636" lon="0.09918">
        <ele>157.5</ele>
        <time>2023-11-22T14:38:20Z</time>
      </trkpt>
      <trkpt lat="49.10638" lon="0.09925">
        <ele>157.5</ele>
        <time>2023-11-22T14:38:21Z</time>
      </trkpt>
      <trkpt lat="49.1064" lon="0.0993">
        <ele>157.5</ele>
        <time>2023-11-22T14:38:22Z</time>
      </trkpt>
      <trkpt lat="49.10642" lon="0.09935">
        <ele>157.5</ele>
        <time>2023-11-22T14:38:23Z</time>
      </trkpt>
      <trkpt lat="49.10645" lon="0.09941">
        <ele>157.5</ele>
        <time>2023-11-22T14:38:24Z</time>
      </trkpt>
      <trkpt lat="49.10647" lon="0.09947">
        <ele>157.5</ele>
        <time>2023-11-22T14:38:25Z</time>
      </trkpt>
      <trkpt lat="49.10649" lon="0.09953">
        <ele>157.5</ele>
        <time>2023-11-22T14:38:26Z</time>
      </trkpt>
      <trkpt lat="49.10651" lon="0.09959">
        <ele>157.5</ele>
        <time>2023-11-22T14:38:27Z</time>
      </trkpt>
      <trkpt lat="49.10652" lon="0.09965">
        <ele>157.5</ele>
        <time>2023-11-22T14:38:28Z</time>
      </trkpt>
      <trkpt lat="49.10654" lon="0.0997">
        <ele>157.5</ele>
        <time>2023-11-22T14:38:29Z</time>
      </trkpt>
      <trkpt lat="49.10655" lon="0.09975">
        <ele>157.5</ele>
        <time>2023-11-22T14:38:30Z</time>
      </trkpt>
      <trkpt lat="49.10657" lon="0.0998">
        <ele>157.5</ele>
        <time>2023-11-22T14:38:31Z</time>
      </trkpt>
      <trkpt lat="49.10658" lon="0.09984">
        <ele>157.5</ele>
        <time>2023-11-22T14:38:32Z</time>
      </trkpt>
      <trkpt lat="49.1066" lon="0.09989">
        <ele>157.5</ele>
        <time>2023-11-22T14:38:33Z</time>
      </trkpt>
      <trkpt lat="49.10661" lon="0.09993">
        <ele>157.5</ele>
        <time>2023-11-22T14:38:34Z</time>
      </trkpt>
      <trkpt lat="49.10663" lon="0.09998">
        <ele>157.5</ele>
        <time>2023-11-22T14:38:35Z</time>
      </trkpt>
      <trkpt lat="49.10665" lon="0.10003">
        <ele>157.5</ele>
        <time>2023-11-22T14:38:36Z</time>
      </trkpt>
      <trkpt lat="49.10667" lon="0.10008">
        <ele>157.5</ele>
        <time>2023-11-22T14:38:37Z</time>
      </trkpt>
      <trkpt lat="49.10668" lon="0.10012">
        <ele>157.5</ele>
        <time>2023-11-22T14:38:38Z</time>
      </trkpt>
      <trkpt lat="49.1067" lon="0.10016">
        <ele>157.5</ele>
        <time>2023-11-22T14:38:39Z</time>
      </trkpt>
      <trkpt lat="49.10671" lon="0.1002">
        <ele>157.5</ele>
        <time>2023-11-22T14:38:40Z</time>
      </trkpt>
      <trkpt lat="49.10673" lon="0.10024">
        <ele>157.4</ele>
        <time>2023-11-22T14:38:41Z</time>
      </trkpt>
      <trkpt lat="49.10674" lon="0.10028">
        <ele>157.4</ele>
        <time>2023-11-22T14:38:42Z</time>
      </trkpt>
      <trkpt lat="49.10675" lon="0.10032">
        <ele>157.4</ele>
        <time>2023-11-22T14:38:43Z</time>
      </trkpt>
      <trkpt lat="49.10677" lon="0.10036">
        <ele>157.4</ele>
        <time>2023-11-22T14:38:44Z</time>
      </trkpt>
      <trkpt lat="49.10678" lon="0.10041">
        <ele>157.4</ele>
        <time>2023-11-22T14:38:45Z</time>
      </trkpt>
      <trkpt lat="49.10679" lon="0.10046">
        <ele>157.3</ele>
        <time>2023-11-22T14:38:46Z</time>
      </trkpt>
      <trkpt lat="49.10681" lon="0.10049">
        <ele>157.3</ele>
        <time>2023-11-22T14:38:47Z</time>
      </trkpt>
      <trkpt lat="49.10682" lon="0.10054">
        <ele>157.3</ele>
        <time>2023-11-22T14:38:48Z</time>
      </trkpt>
      <trkpt lat="49.10684" lon="0.10058">
        <ele>157.3</ele>
        <time>2023-11-22T14:38:49Z</time>
      </trkpt>
      <trkpt lat="49.10685" lon="0.10062">
        <ele>157.2</ele>
        <time>2023-11-22T14:38:50Z</time>
      </trkpt>
      <trkpt lat="49.10687" lon="0.10067">
        <ele>157.2</ele>
        <time>2023-11-22T14:38:51Z</time>
      </trkpt>
      <trkpt lat="49.10688" lon="0.10069">
        <ele>157.2</ele>
        <time>2023-11-22T14:38:52Z</time>
      </trkpt>
      <trkpt lat="49.10689" lon="0.10074">
        <ele>157.2</ele>
        <time>2023-11-22T14:38:53Z</time>
      </trkpt>
      <trkpt lat="49.1069" lon="0.10076">
        <ele>157.2</ele>
        <time>2023-11-22T14:38:54Z</time>
      </trkpt>
      <trkpt lat="49.10691" lon="0.10081">
        <ele>157.1</ele>
        <time>2023-11-22T14:38:55Z</time>
      </trkpt>
      <trkpt lat="49.10692" lon="0.10082">
        <ele>157.1</ele>
        <time>2023-11-22T14:38:56Z</time>
      </trkpt>
      <trkpt lat="49.10693" lon="0.10087">
        <ele>157.1</ele>
        <time>2023-11-22T14:38:57Z</time>
      </trkpt>
      <trkpt lat="49.10694" lon="0.10089">
        <ele>157.1</ele>
        <time>2023-11-22T14:38:58Z</time>
      </trkpt>
      <trkpt lat="49.10695" lon="0.10093">
        <ele>157.1</ele>
        <time>2023-11-22T14:38:59Z</time>
      </trkpt>
      <trkpt lat="49.10696" lon="0.10097">
        <ele>157.1</ele>
        <time>2023-11-22T14:39:00Z</time>
      </trkpt>
      <trkpt lat="49.10698" lon="0.10102">
        <ele>157.1</ele>
        <time>2023-11-22T14:39:01Z</time>
      </trkpt>
      <trkpt lat="49.10699" lon="0.10104">
        <ele>157.1</ele>
        <time>2023-11-22T14:39:02Z</time>
      </trkpt>
      <trkpt lat="49.107" lon="0.10107">
        <ele>157</ele>
        <time>2023-11-22T14:39:03Z</time>
      </trkpt>
      <trkpt lat="49.10702" lon="0.10111">
        <ele>157</ele>
        <time>2023-11-22T14:39:04Z</time>
      </trkpt>
      <trkpt lat="49.10703" lon="0.10115">
        <ele>157</ele>
        <time>2023-11-22T14:39:05Z</time>
      </trkpt>
      <trkpt lat="49.10705" lon="0.10119">
        <ele>157</ele>
        <time>2023-11-22T14:39:06Z</time>
      </trkpt>
      <trkpt lat="49.10706" lon="0.10123">
        <ele>156.9</ele>
        <time>2023-11-22T14:39:07Z</time>
      </trkpt>
      <trkpt lat="49.10708" lon="0.10128">
        <ele>156.9</ele>
        <time>2023-11-22T14:39:08Z</time>
      </trkpt>
      <trkpt lat="49.10709" lon="0.10135">
        <ele>156.9</ele>
        <time>2023-11-22T14:39:09Z</time>
      </trkpt>
      <trkpt lat="49.10711" lon="0.10142">
        <ele>156.8</ele>
        <time>2023-11-22T14:39:10Z</time>
      </trkpt>
      <trkpt lat="49.10713" lon="0.10149">
        <ele>156.7</ele>
        <time>2023-11-22T14:39:11Z</time>
      </trkpt>
      <trkpt lat="49.10715" lon="0.10157">
        <ele>156.7</ele>
        <time>2023-11-22T14:39:12Z</time>
      </trkpt>
      <trkpt lat="49.10717" lon="0.10165">
        <ele>156.6</ele>
        <time>2023-11-22T14:39:13Z</time>
      </trkpt>
      <trkpt lat="49.1072" lon="0.10173">
        <ele>156.5</ele>
        <time>2023-11-22T14:39:14Z</time>
      </trkpt>
      <trkpt lat="49.10722" lon="0.10182">
        <ele>156.5</ele>
        <time>2023-11-22T14:39:15Z</time>
      </trkpt>
      <trkpt lat="49.10725" lon="0.10191">
        <ele>156.4</ele>
        <time>2023-11-22T14:39:16Z</time>
      </trkpt>
      <trkpt lat="49.10728" lon="0.102">
        <ele>156.3</ele>
        <time>2023-11-22T14:39:17Z</time>
      </trkpt>
      <trkpt lat="49.10731" lon="0.10209">
        <ele>156.2</ele>
        <time>2023-11-22T14:39:18Z</time>
      </trkpt>
      <trkpt lat="49.10734" lon="0.10219">
        <ele>156.1</ele>
        <time>2023-11-22T14:39:19Z</time>
      </trkpt>
      <trkpt lat="49.10737" lon="0.10228">
        <ele>156</ele>
        <time>2023-11-22T14:39:20Z</time>
      </trkpt>
      <trkpt lat="49.1074" lon="0.10237">
        <ele>156</ele>
        <time>2023-11-22T14:39:21Z</time>
      </trkpt>
      <trkpt lat="49.10743" lon="0.10246">
        <ele>155.9</ele>
        <time>2023-11-22T14:39:22Z</time>
      </trkpt>
      <trkpt lat="49.10747" lon="0.10256">
        <ele>155.8</ele>
        <time>2023-11-22T14:39:23Z</time>
      </trkpt>
      <trkpt lat="49.10751" lon="0.10266">
        <ele>155.8</ele>
        <time>2023-11-22T14:39:24Z</time>
      </trkpt>
      <trkpt lat="49.10755" lon="0.10277">
        <ele>155.8</ele>
        <time>2023-11-22T14:39:25Z</time>
      </trkpt>
      <trkpt lat="49.10759" lon="0.10288">
        <ele>155.7</ele>
        <time>2023-11-22T14:39:26Z</time>
      </trkpt>
      <trkpt lat="49.10763" lon="0.10299">
        <ele>155.7</ele>
        <time>2023-11-22T14:39:27Z</time>
      </trkpt>
      <trkpt lat="49.10767" lon="0.10311">
        <ele>155.6</ele>
        <time>2023-11-22T14:39:28Z</time>
      </trkpt>
      <trkpt lat="49.10772" lon="0.10324">
        <ele>155.6</ele>
        <time>2023-11-22T14:39:29Z</time>
      </trkpt>
      <trkpt lat="49.10776" lon="0.10336">
        <ele>155.5</ele>
        <time>2023-11-22T14:39:30Z</time>
      </trkpt>
      <trkpt lat="49.10781" lon="0.10348">
        <ele>155.4</ele>
        <time>2023-11-22T14:39:31Z</time>
      </trkpt>
      <trkpt lat="49.10785" lon="0.1036">
        <ele>155.3</ele>
        <time>2023-11-22T14:39:32Z</time>
      </trkpt>
      <trkpt lat="49.1079" lon="0.10371">
        <ele>155.3</ele>
        <time>2023-11-22T14:39:33Z</time>
      </trkpt>
      <trkpt lat="49.10794" lon="0.10383">
        <ele>155.3</ele>
        <time>2023-11-22T14:39:34Z</time>
      </trkpt>
      <trkpt lat="49.10799" lon="0.10394">
        <ele>155.3</ele>
        <time>2023-11-22T14:39:35Z</time>
      </trkpt>
      <trkpt lat="49.10803" lon="0.10404">
        <ele>155.4</ele>
        <time>2023-11-22T14:39:36Z</time>
      </trkpt>
      <trkpt lat="49.10808" lon="0.10415">
        <ele>155.4</ele>
        <time>2023-11-22T14:39:37Z</time>
      </trkpt>
      <trkpt lat="49.10812" lon="0.10425">
        <ele>155.5</ele>
        <time>2023-11-22T14:39:38Z</time>
      </trkpt>
      <trkpt lat="49.10817" lon="0.10434">
        <ele>155.5</ele>
        <time>2023-11-22T14:39:39Z</time>
      </trkpt>
      <trkpt lat="49.10822" lon="0.10444">
        <ele>155.5</ele>
        <time>2023-11-22T14:39:40Z</time>
      </trkpt>
      <trkpt lat="49.10827" lon="0.10454">
        <ele>155.5</ele>
        <time>2023-11-22T14:39:41Z</time>
      </trkpt>
      <trkpt lat="49.10832" lon="0.10464">
        <ele>155.6</ele>
        <time>2023-11-22T14:39:42Z</time>
      </trkpt>
      <trkpt lat="49.10837" lon="0.10474">
        <ele>155.6</ele>
        <time>2023-11-22T14:39:43Z</time>
      </trkpt>
      <trkpt lat="49.10842" lon="0.10484">
        <ele>155.6</ele>
        <time>2023-11-22T14:39:44Z</time>
      </trkpt>
      <trkpt lat="49.10846" lon="0.10493">
        <ele>155.7</ele>
        <time>2023-11-22T14:39:45Z</time>
      </trkpt>
      <trkpt lat="49.10851" lon="0.10503">
        <ele>155.8</ele>
        <time>2023-11-22T14:39:46Z</time>
      </trkpt>
      <trkpt lat="49.10856" lon="0.10514">
        <ele>155.9</ele>
        <time>2023-11-22T14:39:47Z</time>
      </trkpt>
      <trkpt lat="49.10861" lon="0.10523">
        <ele>156</ele>
        <time>2023-11-22T14:39:48Z</time>
      </trkpt>
      <trkpt lat="49.10867" lon="0.10533">
        <ele>156.1</ele>
        <time>2023-11-22T14:39:49Z</time>
      </trkpt>
      <trkpt lat="49.10873" lon="0.10542">
        <ele>156.2</ele>
        <time>2023-11-22T14:39:50Z</time>
      </trkpt>
      <trkpt lat="49.10878" lon="0.10551">
        <ele>156.4</ele>
        <time>2023-11-22T14:39:51Z</time>
      </trkpt>
      <trkpt lat="49.10884" lon="0.10559">
        <ele>156.5</ele>
        <time>2023-11-22T14:39:52Z</time>
      </trkpt>
      <trkpt lat="49.10889" lon="0.10567">
        <ele>156.6</ele>
        <time>2023-11-22T14:39:53Z</time>
      </trkpt>
      <trkpt lat="49.10894" lon="0.10576">
        <ele>156.7</ele>
        <time>2023-11-22T14:39:54Z</time>
      </trkpt>
      <trkpt lat="49.10899" lon="0.10584">
        <ele>156.8</ele>
        <time>2023-11-22T14:39:55Z</time>
      </trkpt>
      <trkpt lat="49.10904" lon="0.10592">
        <ele>157</ele>
        <time>2023-11-22T14:39:56Z</time>
      </trkpt>
      <trkpt lat="49.1091" lon="0.10601">
        <ele>157.1</ele>
        <time>2023-11-22T14:39:57Z</time>
      </trkpt>
      <trkpt lat="49.10915" lon="0.10609">
        <ele>157.2</ele>
        <time>2023-11-22T14:39:58Z</time>
      </trkpt>
      <trkpt lat="49.1092" lon="0.10617">
        <ele>157.2</ele>
        <time>2023-11-22T14:39:59Z</time>
      </trkpt>
      <trkpt lat="49.10926" lon="0.10626">
        <ele>157.3</ele>
        <time>2023-11-22T14:40:00Z</time>
      </trkpt>
      <trkpt lat="49.10931" lon="0.10634">
        <ele>157.4</ele>
        <time>2023-11-22T14:40:01Z</time>
      </trkpt>
      <trkpt lat="49.10936" lon="0.10642">
        <ele>157.4</ele>
        <time>2023-11-22T14:40:02Z</time>
      </trkpt>
      <trkpt lat="49.10941" lon="0.10651">
        <ele>157.5</ele>
        <time>2023-11-22T14:40:03Z</time>
      </trkpt>
      <trkpt lat="49.10946" lon="0.10658">
        <ele>157.5</ele>
        <time>2023-11-22T14:40:04Z</time>
      </trkpt>
      <trkpt lat="49.10952" lon="0.10666">
        <ele>157.6</ele>
        <time>2023-11-22T14:40:05Z</time>
      </trkpt>
      <trkpt lat="49.10957" lon="0.10675">
        <ele>157.7</ele>
        <time>2023-11-22T14:40:06Z</time>
      </trkpt>
      <trkpt lat="49.10963" lon="0.10684">
        <ele>157.9</ele>
        <time>2023-11-22T14:40:07Z</time>
      </trkpt>
      <trkpt lat="49.10968" lon="0.10693">
        <ele>158</ele>
        <time>2023-11-22T14:40:08Z</time>
      </trkpt>
      <trkpt lat="49.10974" lon="0.10702">
        <ele>158.2</ele>
        <time>2023-11-22T14:40:09Z</time>
      </trkpt>
      <trkpt lat="49.1098" lon="0.10712">
        <ele>158.3</ele>
        <time>2023-11-22T14:40:10Z</time>
      </trkpt>
      <trkpt lat="49.10985" lon="0.10721">
        <ele>158.4</ele>
        <time>2023-11-22T14:40:11Z</time>
      </trkpt>
      <trkpt lat="49.10991" lon="0.1073">
        <ele>158.5</ele>
        <time>2023-11-22T14:40:12Z</time>
      </trkpt>
      <trkpt lat="49.10997" lon="0.10738">
        <ele>158.6</ele>
        <time>2023-11-22T14:40:13Z</time>
      </trkpt>
      <trkpt lat="49.11003" lon="0.10746">
        <ele>158.7</ele>
        <time>2023-11-22T14:40:14Z</time>
      </trkpt>
      <trkpt lat="49.11008" lon="0.10755">
        <ele>158.7</ele>
        <time>2023-11-22T14:40:15Z</time>
      </trkpt>
      <trkpt lat="49.11014" lon="0.10763">
        <ele>158.8</ele>
        <time>2023-11-22T14:40:16Z</time>
      </trkpt>
      <trkpt lat="49.11019" lon="0.10772">
        <ele>158.9</ele>
        <time>2023-11-22T14:40:17Z</time>
      </trkpt>
      <trkpt lat="49.11025" lon="0.10781">
        <ele>159</ele>
        <time>2023-11-22T14:40:18Z</time>
      </trkpt>
      <trkpt lat="49.1103" lon="0.10789">
        <ele>159</ele>
        <time>2023-11-22T14:40:19Z</time>
      </trkpt>
      <trkpt lat="49.11036" lon="0.10797">
        <ele>159.1</ele>
        <time>2023-11-22T14:40:20Z</time>
      </trkpt>
      <trkpt lat="49.11042" lon="0.10805">
        <ele>159.1</ele>
        <time>2023-11-22T14:40:21Z</time>
      </trkpt>
      <trkpt lat="49.11047" lon="0.10813">
        <ele>159.1</ele>
        <time>2023-11-22T14:40:22Z</time>
      </trkpt>
      <trkpt lat="49.11053" lon="0.10822">
        <ele>159.2</ele>
        <time>2023-11-22T14:40:23Z</time>
      </trkpt>
      <trkpt lat="49.11059" lon="0.10831">
        <ele>159.2</ele>
        <time>2023-11-22T14:40:24Z</time>
      </trkpt>
      <trkpt lat="49.11065" lon="0.10839">
        <ele>159.3</ele>
        <time>2023-11-22T14:40:25Z</time>
      </trkpt>
      <trkpt lat="49.11071" lon="0.10847">
        <ele>159.4</ele>
        <time>2023-11-22T14:40:26Z</time>
      </trkpt>
      <trkpt lat="49.11077" lon="0.10855">
        <ele>159.4</ele>
        <time>2023-11-22T14:40:27Z</time>
      </trkpt>
      <trkpt lat="49.11083" lon="0.10863">
        <ele>159.5</ele>
        <time>2023-11-22T14:40:28Z</time>
      </trkpt>
      <trkpt lat="49.11088" lon="0.10872">
        <ele>159.5</ele>
        <time>2023-11-22T14:40:29Z</time>
      </trkpt>
      <trkpt lat="49.11094" lon="0.10881">
        <ele>159.5</ele>
        <time>2023-11-22T14:40:30Z</time>
      </trkpt>
      <trkpt lat="49.11099" lon="0.1089">
        <ele>159.4</ele>
        <time>2023-11-22T14:40:31Z</time>
      </trkpt>
      <trkpt lat="49.11105" lon="0.10899">
        <ele>159.4</ele>
        <time>2023-11-22T14:40:32Z</time>
      </trkpt>
      <trkpt lat="49.1111" lon="0.10908">
        <ele>159.4</ele>
        <time>2023-11-22T14:40:33Z</time>
      </trkpt>
      <trkpt lat="49.11116" lon="0.10917">
        <ele>159.4</ele>
        <time>2023-11-22T14:40:34Z</time>
      </trkpt>
      <trkpt lat="49.11121" lon="0.10926">
        <ele>159.4</ele>
        <time>2023-11-22T14:40:35Z</time>
      </trkpt>
      <trkpt lat="49.11127" lon="0.10935">
        <ele>159.4</ele>
        <time>2023-11-22T14:40:36Z</time>
      </trkpt>
      <trkpt lat="49.11133" lon="0.10944">
        <ele>159.3</ele>
        <time>2023-11-22T14:40:37Z</time>
      </trkpt>
      <trkpt lat="49.11138" lon="0.10953">
        <ele>159.3</ele>
        <time>2023-11-22T14:40:38Z</time>
      </trkpt>
      <trkpt lat="49.11144" lon="0.10963">
        <ele>159.2</ele>
        <time>2023-11-22T14:40:39Z</time>
      </trkpt>
      <trkpt lat="49.11149" lon="0.10972">
        <ele>159.1</ele>
        <time>2023-11-22T14:40:40Z</time>
      </trkpt>
      <trkpt lat="49.11155" lon="0.10981">
        <ele>159</ele>
        <time>2023-11-22T14:40:41Z</time>
      </trkpt>
      <trkpt lat="49.1116" lon="0.10991">
        <ele>158.9</ele>
        <time>2023-11-22T14:40:42Z</time>
      </trkpt>
      <trkpt lat="49.11165" lon="0.11">
        <ele>158.8</ele>
        <time>2023-11-22T14:40:43Z</time>
      </trkpt>
      <trkpt lat="49.11169" lon="0.1101">
        <ele>158.7</ele>
        <time>2023-11-22T14:40:44Z</time>
      </trkpt>
      <trkpt lat="49.11174" lon="0.11021">
        <ele>158.6</ele>
        <time>2023-11-22T14:40:45Z</time>
      </trkpt>
      <trkpt lat="49.11177" lon="0.11033">
        <ele>158.5</ele>
        <time>2023-11-22T14:40:46Z</time>
      </trkpt>
      <trkpt lat="49.11181" lon="0.11045">
        <ele>158.3</ele>
        <time>2023-11-22T14:40:47Z</time>
      </trkpt>
      <trkpt lat="49.11184" lon="0.11058">
        <ele>158.1</ele>
        <time>2023-11-22T14:40:48Z</time>
      </trkpt>
      <trkpt lat="49.11187" lon="0.11072">
        <ele>157.9</ele>
        <time>2023-11-22T14:40:49Z</time>
      </trkpt>
      <trkpt lat="49.1119" lon="0.11086">
        <ele>157.7</ele>
        <time>2023-11-22T14:40:50Z</time>
      </trkpt>
      <trkpt lat="49.11193" lon="0.111">
        <ele>157.5</ele>
        <time>2023-11-22T14:40:51Z</time>
      </trkpt>
      <trkpt lat="49.11197" lon="0.11114">
        <ele>157.3</ele>
        <time>2023-11-22T14:40:52Z</time>
      </trkpt>
      <trkpt lat="49.112" lon="0.11128">
        <ele>157.1</ele>
        <time>2023-11-22T14:40:53Z</time>
      </trkpt>
      <trkpt lat="49.11204" lon="0.11142">
        <ele>156.9</ele>
        <time>2023-11-22T14:40:54Z</time>
      </trkpt>
      <trkpt lat="49.11207" lon="0.11157">
        <ele>156.7</ele>
        <time>2023-11-22T14:40:55Z</time>
      </trkpt>
      <trkpt lat="49.11211" lon="0.11171">
        <ele>156.5</ele>
        <time>2023-11-22T14:40:56Z</time>
      </trkpt>
      <trkpt lat="49.11214" lon="0.11185">
        <ele>156.4</ele>
        <time>2023-11-22T14:40:57Z</time>
      </trkpt>
      <trkpt lat="49.11217" lon="0.11199">
        <ele>156.3</ele>
        <time>2023-11-22T14:40:58Z</time>
      </trkpt>
      <trkpt lat="49.11222" lon="0.11212">
        <ele>156.1</ele>
        <time>2023-11-22T14:40:59Z</time>
      </trkpt>
      <trkpt lat="49.11225" lon="0.11226">
        <ele>156</ele>
        <time>2023-11-22T14:41:00Z</time>
      </trkpt>
      <trkpt lat="49.11229" lon="0.11239">
        <ele>155.8</ele>
        <time>2023-11-22T14:41:01Z</time>
      </trkpt>
      <trkpt lat="49.11233" lon="0.11253">
        <ele>155.6</ele>
        <time>2023-11-22T14:41:02Z</time>
      </trkpt>
      <trkpt lat="49.11236" lon="0.11267">
        <ele>155.4</ele>
        <time>2023-11-22T14:41:03Z</time>
      </trkpt>
      <trkpt lat="49.11239" lon="0.11281">
        <ele>155.3</ele>
        <time>2023-11-22T14:41:04Z</time>
      </trkpt>
      <trkpt lat="49.11243" lon="0.11295">
        <ele>155.2</ele>
        <time>2023-11-22T14:41:05Z</time>
      </trkpt>
      <trkpt lat="49.11247" lon="0.11309">
        <ele>155.2</ele>
        <time>2023-11-22T14:41:06Z</time>
      </trkpt>
      <trkpt lat="49.11251" lon="0.11322">
        <ele>155.1</ele>
        <time>2023-11-22T14:41:07Z</time>
      </trkpt>
      <trkpt lat="49.11255" lon="0.11335">
        <ele>155</ele>
        <time>2023-11-22T14:41:08Z</time>
      </trkpt>
      <trkpt lat="49.11259" lon="0.11348">
        <ele>154.9</ele>
        <time>2023-11-22T14:41:09Z</time>
      </trkpt>
      <trkpt lat="49.11263" lon="0.1136">
        <ele>154.8</ele>
        <time>2023-11-22T14:41:10Z</time>
      </trkpt>
      <trkpt lat="49.11267" lon="0.11372">
        <ele>154.6</ele>
        <time>2023-11-22T14:41:11Z</time>
      </trkpt>
      <trkpt lat="49.11271" lon="0.11385">
        <ele>154.5</ele>
        <time>2023-11-22T14:41:12Z</time>
      </trkpt>
      <trkpt lat="49.11275" lon="0.11397">
        <ele>154.4</ele>
        <time>2023-11-22T14:41:13Z</time>
      </trkpt>
      <trkpt lat="49.11279" lon="0.11409">
        <ele>154.3</ele>
        <time>2023-11-22T14:41:14Z</time>
      </trkpt>
      <trkpt lat="49.11283" lon="0.11422">
        <ele>154.3</ele>
        <time>2023-11-22T14:41:15Z</time>
      </trkpt>
      <trkpt lat="49.11287" lon="0.11435">
        <ele>154.2</ele>
        <time>2023-11-22T14:41:16Z</time>
      </trkpt>
      <trkpt lat="49.11292" lon="0.11448">
        <ele>154.2</ele>
        <time>2023-11-22T14:41:17Z</time>
      </trkpt>
      <trkpt lat="49.11297" lon="0.11461">
        <ele>154.2</ele>
        <time>2023-11-22T14:41:18Z</time>
      </trkpt>
      <trkpt lat="49.11301" lon="0.11473">
        <ele>154.2</ele>
        <time>2023-11-22T14:41:19Z</time>
      </trkpt>
      <trkpt lat="49.11306" lon="0.11485">
        <ele>154.3</ele>
        <time>2023-11-22T14:41:20Z</time>
      </trkpt>
      <trkpt lat="49.1131" lon="0.11496">
        <ele>154.3</ele>
        <time>2023-11-22T14:41:21Z</time>
      </trkpt>
      <trkpt lat="49.11314" lon="0.11508">
        <ele>154.4</ele>
        <time>2023-11-22T14:41:22Z</time>
      </trkpt>
      <trkpt lat="49.11318" lon="0.11518">
        <ele>154.5</ele>
        <time>2023-11-22T14:41:23Z</time>
      </trkpt>
      <trkpt lat="49.11323" lon="0.11529">
        <ele>154.7</ele>
        <time>2023-11-22T14:41:24Z</time>
      </trkpt>
      <trkpt lat="49.11327" lon="0.1154">
        <ele>154.8</ele>
        <time>2023-11-22T14:41:25Z</time>
      </trkpt>
      <trkpt lat="49.11331" lon="0.1155">
        <ele>154.9</ele>
        <time>2023-11-22T14:41:26Z</time>
      </trkpt>
      <trkpt lat="49.11335" lon="0.11561">
        <ele>155.1</ele>
        <time>2023-11-22T14:41:27Z</time>
      </trkpt>
      <trkpt lat="49.1134" lon="0.11572">
        <ele>155.2</ele>
        <time>2023-11-22T14:41:28Z</time>
      </trkpt>
      <trkpt lat="49.11344" lon="0.11583">
        <ele>155.3</ele>
        <time>2023-11-22T14:41:29Z</time>
      </trkpt>
      <trkpt lat="49.11348" lon="0.11593">
        <ele>155.4</ele>
        <time>2023-11-22T14:41:30Z</time>
      </trkpt>
      <trkpt lat="49.11352" lon="0.11604">
        <ele>155.5</ele>
        <time>2023-11-22T14:41:31Z</time>
      </trkpt>
      <trkpt lat="49.11356" lon="0.11614">
        <ele>155.6</ele>
        <time>2023-11-22T14:41:32Z</time>
      </trkpt>
      <trkpt lat="49.1136" lon="0.11624">
        <ele>155.7</ele>
        <time>2023-11-22T14:41:33Z</time>
      </trkpt>
      <trkpt lat="49.11364" lon="0.11634">
        <ele>155.8</ele>
        <time>2023-11-22T14:41:34Z</time>
      </trkpt>
      <trkpt lat="49.11367" lon="0.11644">
        <ele>155.9</ele>
        <time>2023-11-22T14:41:35Z</time>
      </trkpt>
      <trkpt lat="49.11371" lon="0.11653">
        <ele>156</ele>
        <time>2023-11-22T14:41:36Z</time>
      </trkpt>
      <trkpt lat="49.11374" lon="0.11663">
        <ele>156.1</ele>
        <time>2023-11-22T14:41:37Z</time>
      </trkpt>
      <trkpt lat="49.11377" lon="0.11673">
        <ele>156.3</ele>
        <time>2023-11-22T14:41:38Z</time>
      </trkpt>
      <trkpt lat="49.1138" lon="0.11683">
        <ele>156.4</ele>
        <time>2023-11-22T14:41:39Z</time>
      </trkpt>
      <trkpt lat="49.11384" lon="0.11692">
        <ele>156.6</ele>
        <time>2023-11-22T14:41:40Z</time>
      </trkpt>
      <trkpt lat="49.11387" lon="0.11702">
        <ele>156.7</ele>
        <time>2023-11-22T14:41:41Z</time>
      </trkpt>
      <trkpt lat="49.1139" lon="0.11711">
        <ele>156.9</ele>
        <time>2023-11-22T14:41:42Z</time>
      </trkpt>
      <trkpt lat="49.11393" lon="0.1172">
        <ele>157</ele>
        <time>2023-11-22T14:41:43Z</time>
      </trkpt>
      <trkpt lat="49.11396" lon="0.11729">
        <ele>157.1</ele>
        <time>2023-11-22T14:41:44Z</time>
      </trkpt>
      <trkpt lat="49.11399" lon="0.11737">
        <ele>157.3</ele>
        <time>2023-11-22T14:41:45Z</time>
      </trkpt>
      <trkpt lat="49.11402" lon="0.11746">
        <ele>157.4</ele>
        <time>2023-11-22T14:41:46Z</time>
      </trkpt>
      <trkpt lat="49.11405" lon="0.11755">
        <ele>157.5</ele>
        <time>2023-11-22T14:41:47Z</time>
      </trkpt>
      <trkpt lat="49.11408" lon="0.11764">
        <ele>157.6</ele>
        <time>2023-11-22T14:41:48Z</time>
      </trkpt>
      <trkpt lat="49.11411" lon="0.11773">
        <ele>157.7</ele>
        <time>2023-11-22T14:41:49Z</time>
      </trkpt>
      <trkpt lat="49.11413" lon="0.11782">
        <ele>157.9</ele>
        <time>2023-11-22T14:41:50Z</time>
      </trkpt>
      <trkpt lat="49.11416" lon="0.1179">
        <ele>158</ele>
        <time>2023-11-22T14:41:51Z</time>
      </trkpt>
      <trkpt lat="49.11419" lon="0.118">
        <ele>158.2</ele>
        <time>2023-11-22T14:41:52Z</time>
      </trkpt>
      <trkpt lat="49.11422" lon="0.11809">
        <ele>158.3</ele>
        <time>2023-11-22T14:41:53Z</time>
      </trkpt>
      <trkpt lat="49.11425" lon="0.11818">
        <ele>158.5</ele>
        <time>2023-11-22T14:41:54Z</time>
      </trkpt>
      <trkpt lat="49.11428" lon="0.11827">
        <ele>158.6</ele>
        <time>2023-11-22T14:41:55Z</time>
      </trkpt>
      <trkpt lat="49.11431" lon="0.11837">
        <ele>158.8</ele>
        <time>2023-11-22T14:41:56Z</time>
      </trkpt>
      <trkpt lat="49.11434" lon="0.11847">
        <ele>158.9</ele>
        <time>2023-11-22T14:41:57Z</time>
      </trkpt>
      <trkpt lat="49.11437" lon="0.11856">
        <ele>159</ele>
        <time>2023-11-22T14:41:58Z</time>
      </trkpt>
      <trkpt lat="49.1144" lon="0.11865">
        <ele>159.1</ele>
        <time>2023-11-22T14:41:59Z</time>
      </trkpt>
      <trkpt lat="49.11444" lon="0.11875">
        <ele>159.2</ele>
        <time>2023-11-22T14:42:00Z</time>
      </trkpt>
      <trkpt lat="49.11447" lon="0.11885">
        <ele>159.3</ele>
        <time>2023-11-22T14:42:01Z</time>
      </trkpt>
      <trkpt lat="49.1145" lon="0.11895">
        <ele>159.3</ele>
        <time>2023-11-22T14:42:02Z</time>
      </trkpt>
      <trkpt lat="49.11453" lon="0.11906">
        <ele>159.4</ele>
        <time>2023-11-22T14:42:03Z</time>
      </trkpt>
      <trkpt lat="49.11457" lon="0.11916">
        <ele>159.4</ele>
        <time>2023-11-22T14:42:04Z</time>
      </trkpt>
      <trkpt lat="49.11461" lon="0.11927">
        <ele>159.5</ele>
        <time>2023-11-22T14:42:05Z</time>
      </trkpt>
      <trkpt lat="49.11464" lon="0.11937">
        <ele>159.5</ele>
        <time>2023-11-22T14:42:06Z</time>
      </trkpt>
      <trkpt lat="49.11468" lon="0.11948">
        <ele>159.6</ele>
        <time>2023-11-22T14:42:07Z</time>
      </trkpt>
      <trkpt lat="49.11472" lon="0.11959">
        <ele>159.7</ele>
        <time>2023-11-22T14:42:08Z</time>
      </trkpt>
      <trkpt lat="49.11475" lon="0.1197">
        <ele>159.8</ele>
        <time>2023-11-22T14:42:09Z</time>
      </trkpt>
      <trkpt lat="49.11479" lon="0.11981">
        <ele>159.9</ele>
        <time>2023-11-22T14:42:10Z</time>
      </trkpt>
      <trkpt lat="49.11483" lon="0.11992">
        <ele>159.9</ele>
        <time>2023-11-22T14:42:11Z</time>
      </trkpt>
      <trkpt lat="49.11486" lon="0.12003">
        <ele>160</ele>
        <time>2023-11-22T14:42:12Z</time>
      </trkpt>
      <trkpt lat="49.1149" lon="0.12013">
        <ele>160.1</ele>
        <time>2023-11-22T14:42:13Z</time>
      </trkpt>
      <trkpt lat="49.11494" lon="0.12024">
        <ele>160.2</ele>
        <time>2023-11-22T14:42:14Z</time>
      </trkpt>
      <trkpt lat="49.11497" lon="0.12034">
        <ele>160.3</ele>
        <time>2023-11-22T14:42:15Z</time>
      </trkpt>
      <trkpt lat="49.115" lon="0.12043">
        <ele>160.4</ele>
        <time>2023-11-22T14:42:16Z</time>
      </trkpt>
      <trkpt lat="49.11503" lon="0.12053">
        <ele>160.4</ele>
        <time>2023-11-22T14:42:17Z</time>
      </trkpt>
      <trkpt lat="49.11506" lon="0.12062">
        <ele>160.5</ele>
        <time>2023-11-22T14:42:18Z</time>
      </trkpt>
      <trkpt lat="49.1151" lon="0.12071">
        <ele>160.6</ele>
        <time>2023-11-22T14:42:19Z</time>
      </trkpt>
      <trkpt lat="49.11513" lon="0.12081">
        <ele>160.7</ele>
        <time>2023-11-22T14:42:20Z</time>
      </trkpt>
      <trkpt lat="49.11517" lon="0.12091">
        <ele>160.8</ele>
        <time>2023-11-22T14:42:21Z</time>
      </trkpt>
      <trkpt lat="49.1152" lon="0.12101">
        <ele>160.8</ele>
        <time>2023-11-22T14:42:22Z</time>
      </trkpt>
      <trkpt lat="49.11523" lon="0.12111">
        <ele>160.9</ele>
        <time>2023-11-22T14:42:23Z</time>
      </trkpt>
      <trkpt lat="49.11527" lon="0.12121">
        <ele>161</ele>
        <time>2023-11-22T14:42:24Z</time>
      </trkpt>
      <trkpt lat="49.1153" lon="0.12131">
        <ele>161.1</ele>
        <time>2023-11-22T14:42:25Z</time>
      </trkpt>
      <trkpt lat="49.11534" lon="0.12141">
        <ele>161.1</ele>
        <time>2023-11-22T14:42:26Z</time>
      </trkpt>
      <trkpt lat="49.11537" lon="0.12151">
        <ele>161.2</ele>
        <time>2023-11-22T14:42:27Z</time>
      </trkpt>
      <trkpt lat="49.11541" lon="0.12161">
        <ele>161.2</ele>
        <time>2023-11-22T14:42:28Z</time>
      </trkpt>
      <trkpt lat="49.11544" lon="0.12172">
        <ele>161.3</ele>
        <time>2023-11-22T14:42:29Z</time>
      </trkpt>
      <trkpt lat="49.11548" lon="0.12183">
        <ele>161.3</ele>
        <time>2023-11-22T14:42:30Z</time>
      </trkpt>
      <trkpt lat="49.11552" lon="0.12194">
        <ele>161.4</ele>
        <time>2023-11-22T14:42:31Z</time>
      </trkpt>
      <trkpt lat="49.11556" lon="0.12205">
        <ele>161.4</ele>
        <time>2023-11-22T14:42:32Z</time>
      </trkpt>
      <trkpt lat="49.1156" lon="0.12216">
        <ele>161.5</ele>
        <time>2023-11-22T14:42:33Z</time>
      </trkpt>
      <trkpt lat="49.11563" lon="0.12227">
        <ele>161.5</ele>
        <time>2023-11-22T14:42:34Z</time>
      </trkpt>
      <trkpt lat="49.11567" lon="0.12238">
        <ele>161.6</ele>
        <time>2023-11-22T14:42:35Z</time>
      </trkpt>
      <trkpt lat="49.11571" lon="0.12249">
        <ele>161.7</ele>
        <time>2023-11-22T14:42:36Z</time>
      </trkpt>
      <trkpt lat="49.11575" lon="0.12259">
        <ele>161.7</ele>
        <time>2023-11-22T14:42:37Z</time>
      </trkpt>
      <trkpt lat="49.11578" lon="0.12268">
        <ele>161.8</ele>
        <time>2023-11-22T14:42:38Z</time>
      </trkpt>
      <trkpt lat="49.11581" lon="0.12278">
        <ele>161.9</ele>
        <time>2023-11-22T14:42:39Z</time>
      </trkpt>
      <trkpt lat="49.11585" lon="0.12288">
        <ele>161.9</ele>
        <time>2023-11-22T14:42:40Z</time>
      </trkpt>
      <trkpt lat="49.11588" lon="0.12297">
        <ele>162</ele>
        <time>2023-11-22T14:42:41Z</time>
      </trkpt>
      <trkpt lat="49.11592" lon="0.12306">
        <ele>162.1</ele>
        <time>2023-11-22T14:42:42Z</time>
      </trkpt>
      <trkpt lat="49.11594" lon="0.12316">
        <ele>162.2</ele>
        <time>2023-11-22T14:42:43Z</time>
      </trkpt>
      <trkpt lat="49.11597" lon="0.12327">
        <ele>162.3</ele>
        <time>2023-11-22T14:42:44Z</time>
      </trkpt>
      <trkpt lat="49.116" lon="0.12338">
        <ele>162.3</ele>
        <time>2023-11-22T14:42:45Z</time>
      </trkpt>
      <trkpt lat="49.11604" lon="0.12348">
        <ele>162.4</ele>
        <time>2023-11-22T14:42:46Z</time>
      </trkpt>
      <trkpt lat="49.11607" lon="0.1236">
        <ele>162.4</ele>
        <time>2023-11-22T14:42:47Z</time>
      </trkpt>
      <trkpt lat="49.11611" lon="0.12371">
        <ele>162.5</ele>
        <time>2023-11-22T14:42:48Z</time>
      </trkpt>
      <trkpt lat="49.11614" lon="0.12382">
        <ele>162.6</ele>
        <time>2023-11-22T14:42:49Z</time>
      </trkpt>
      <trkpt lat="49.11618" lon="0.12393">
        <ele>162.6</ele>
        <time>2023-11-22T14:42:50Z</time>
      </trkpt>
      <trkpt lat="49.11622" lon="0.12404">
        <ele>162.7</ele>
        <time>2023-11-22T14:42:51Z</time>
      </trkpt>
      <trkpt lat="49.11626" lon="0.12414">
        <ele>162.8</ele>
        <time>2023-11-22T14:42:52Z</time>
      </trkpt>
      <trkpt lat="49.1163" lon="0.12425">
        <ele>162.9</ele>
        <time>2023-11-22T14:42:53Z</time>
      </trkpt>
      <trkpt lat="49.11635" lon="0.12435">
        <ele>163</ele>
        <time>2023-11-22T14:42:54Z</time>
      </trkpt>
      <trkpt lat="49.1164" lon="0.12444">
        <ele>163</ele>
        <time>2023-11-22T14:42:55Z</time>
      </trkpt>
      <trkpt lat="49.11645" lon="0.12454">
        <ele>163.1</ele>
        <time>2023-11-22T14:42:56Z</time>
      </trkpt>
      <trkpt lat="49.1165" lon="0.12463">
        <ele>163.2</ele>
        <time>2023-11-22T14:42:57Z</time>
      </trkpt>
      <trkpt lat="49.11655" lon="0.12472">
        <ele>163.3</ele>
        <time>2023-11-22T14:42:58Z</time>
      </trkpt>
      <trkpt lat="49.1166" lon="0.1248">
        <ele>163.4</ele>
        <time>2023-11-22T14:42:59Z</time>
      </trkpt>
      <trkpt lat="49.11665" lon="0.12489">
        <ele>163.5</ele>
        <time>2023-11-22T14:43:00Z</time>
      </trkpt>
      <trkpt lat="49.1167" lon="0.12499">
        <ele>163.6</ele>
        <time>2023-11-22T14:43:01Z</time>
      </trkpt>
      <trkpt lat="49.11674" lon="0.12508">
        <ele>163.7</ele>
        <time>2023-11-22T14:43:02Z</time>
      </trkpt>
      <trkpt lat="49.11679" lon="0.12518">
        <ele>163.8</ele>
        <time>2023-11-22T14:43:03Z</time>
      </trkpt>
      <trkpt lat="49.11684" lon="0.12528">
        <ele>163.9</ele>
        <time>2023-11-22T14:43:04Z</time>
      </trkpt>
      <trkpt lat="49.11688" lon="0.12539">
        <ele>163.9</ele>
        <time>2023-11-22T14:43:05Z</time>
      </trkpt>
      <trkpt lat="49.11691" lon="0.12549">
        <ele>164</ele>
        <time>2023-11-22T14:43:06Z</time>
      </trkpt>
      <trkpt lat="49.11694" lon="0.12561">
        <ele>164.1</ele>
        <time>2023-11-22T14:43:07Z</time>
      </trkpt>
      <trkpt lat="49.11697" lon="0.12572">
        <ele>164.2</ele>
        <time>2023-11-22T14:43:08Z</time>
      </trkpt>
      <trkpt lat="49.11701" lon="0.12583">
        <ele>164.3</ele>
        <time>2023-11-22T14:43:09Z</time>
      </trkpt>
      <trkpt lat="49.11704" lon="0.12595">
        <ele>164.4</ele>
        <time>2023-11-22T14:43:10Z</time>
      </trkpt>
      <trkpt lat="49.11708" lon="0.12606">
        <ele>164.4</ele>
        <time>2023-11-22T14:43:11Z</time>
      </trkpt>
      <trkpt lat="49.11712" lon="0.12617">
        <ele>164.5</ele>
        <time>2023-11-22T14:43:12Z</time>
      </trkpt>
      <trkpt lat="49.11715" lon="0.12628">
        <ele>164.6</ele>
        <time>2023-11-22T14:43:13Z</time>
      </trkpt>
      <trkpt lat="49.11719" lon="0.12639">
        <ele>164.7</ele>
        <time>2023-11-22T14:43:14Z</time>
      </trkpt>
      <trkpt lat="49.11723" lon="0.12651">
        <ele>164.8</ele>
        <time>2023-11-22T14:43:15Z</time>
      </trkpt>
      <trkpt lat="49.11727" lon="0.12662">
        <ele>164.9</ele>
        <time>2023-11-22T14:43:16Z</time>
      </trkpt>
      <trkpt lat="49.11731" lon="0.12673">
        <ele>164.9</ele>
        <time>2023-11-22T14:43:17Z</time>
      </trkpt>
      <trkpt lat="49.11735" lon="0.12685">
        <ele>165</ele>
        <time>2023-11-22T14:43:18Z</time>
      </trkpt>
      <trkpt lat="49.11739" lon="0.12696">
        <ele>165.1</ele>
        <time>2023-11-22T14:43:19Z</time>
      </trkpt>
      <trkpt lat="49.11743" lon="0.12707">
        <ele>165.2</ele>
        <time>2023-11-22T14:43:20Z</time>
      </trkpt>
      <trkpt lat="49.11746" lon="0.12717">
        <ele>165.2</ele>
        <time>2023-11-22T14:43:21Z</time>
      </trkpt>
      <trkpt lat="49.11749" lon="0.12727">
        <ele>165.3</ele>
        <time>2023-11-22T14:43:22Z</time>
      </trkpt>
      <trkpt lat="49.11752" lon="0.12737">
        <ele>165.4</ele>
        <time>2023-11-22T14:43:23Z</time>
      </trkpt>
      <trkpt lat="49.11755" lon="0.12747">
        <ele>165.4</ele>
        <time>2023-11-22T14:43:24Z</time>
      </trkpt>
      <trkpt lat="49.11758" lon="0.12756">
        <ele>165.5</ele>
        <time>2023-11-22T14:43:25Z</time>
      </trkpt>
      <trkpt lat="49.1176" lon="0.12766">
        <ele>165.6</ele>
        <time>2023-11-22T14:43:26Z</time>
      </trkpt>
      <trkpt lat="49.11763" lon="0.12776">
        <ele>165.6</ele>
        <time>2023-11-22T14:43:27Z</time>
      </trkpt>
      <trkpt lat="49.11766" lon="0.12786">
        <ele>165.6</ele>
        <time>2023-11-22T14:43:28Z</time>
      </trkpt>
      <trkpt lat="49.11769" lon="0.12797">
        <ele>165.7</ele>
        <time>2023-11-22T14:43:29Z</time>
      </trkpt>
      <trkpt lat="49.11772" lon="0.12807">
        <ele>165.7</ele>
        <time>2023-11-22T14:43:30Z</time>
      </trkpt>
      <trkpt lat="49.11776" lon="0.12816">
        <ele>165.8</ele>
        <time>2023-11-22T14:43:31Z</time>
      </trkpt>
      <trkpt lat="49.11779" lon="0.12826">
        <ele>165.8</ele>
        <time>2023-11-22T14:43:32Z</time>
      </trkpt>
      <trkpt lat="49.11782" lon="0.12836">
        <ele>165.9</ele>
        <time>2023-11-22T14:43:33Z</time>
      </trkpt>
      <trkpt lat="49.11786" lon="0.12845">
        <ele>166</ele>
        <time>2023-11-22T14:43:34Z</time>
      </trkpt>
      <trkpt lat="49.11788" lon="0.12854">
        <ele>166</ele>
        <time>2023-11-22T14:43:35Z</time>
      </trkpt>
      <trkpt lat="49.11791" lon="0.12863">
        <ele>166.1</ele>
        <time>2023-11-22T14:43:36Z</time>
      </trkpt>
      <trkpt lat="49.11794" lon="0.12873">
        <ele>166.1</ele>
        <time>2023-11-22T14:43:37Z</time>
      </trkpt>
      <trkpt lat="49.11797" lon="0.12882">
        <ele>166.1</ele>
        <time>2023-11-22T14:43:38Z</time>
      </trkpt>
      <trkpt lat="49.118" lon="0.12891">
        <ele>166.2</ele>
        <time>2023-11-22T14:43:39Z</time>
      </trkpt>
      <trkpt lat="49.11802" lon="0.12901">
        <ele>166.2</ele>
        <time>2023-11-22T14:43:40Z</time>
      </trkpt>
      <trkpt lat="49.11805" lon="0.1291">
        <ele>166.2</ele>
        <time>2023-11-22T14:43:41Z</time>
      </trkpt>
      <trkpt lat="49.11809" lon="0.12919">
        <ele>166.3</ele>
        <time>2023-11-22T14:43:42Z</time>
      </trkpt>
      <trkpt lat="49.11812" lon="0.12928">
        <ele>166.3</ele>
        <time>2023-11-22T14:43:43Z</time>
      </trkpt>
      <trkpt lat="49.11815" lon="0.12938">
        <ele>166.3</ele>
        <time>2023-11-22T14:43:44Z</time>
      </trkpt>
      <trkpt lat="49.11818" lon="0.12947">
        <ele>166.4</ele>
        <time>2023-11-22T14:43:45Z</time>
      </trkpt>
      <trkpt lat="49.11821" lon="0.12956">
        <ele>166.4</ele>
        <time>2023-11-22T14:43:46Z</time>
      </trkpt>
      <trkpt lat="49.11824" lon="0.12965">
        <ele>166.5</ele>
        <time>2023-11-22T14:43:47Z</time>
      </trkpt>
      <trkpt lat="49.11826" lon="0.12973">
        <ele>166.5</ele>
        <time>2023-11-22T14:43:48Z</time>
      </trkpt>
      <trkpt lat="49.11829" lon="0.12982">
        <ele>166.6</ele>
        <time>2023-11-22T14:43:49Z</time>
      </trkpt>
      <trkpt lat="49.11831" lon="0.1299">
        <ele>166.6</ele>
        <time>2023-11-22T14:43:50Z</time>
      </trkpt>
      <trkpt lat="49.11834" lon="0.12998">
        <ele>166.7</ele>
        <time>2023-11-22T14:43:51Z</time>
      </trkpt>
      <trkpt lat="49.11836" lon="0.13006">
        <ele>166.7</ele>
        <time>2023-11-22T14:43:52Z</time>
      </trkpt>
      <trkpt lat="49.11838" lon="0.13015">
        <ele>166.8</ele>
        <time>2023-11-22T14:43:53Z</time>
      </trkpt>
      <trkpt lat="49.1184" lon="0.13022">
        <ele>166.8</ele>
        <time>2023-11-22T14:43:54Z</time>
      </trkpt>
      <trkpt lat="49.11843" lon="0.1303">
        <ele>166.8</ele>
        <time>2023-11-22T14:43:55Z</time>
      </trkpt>
      <trkpt lat="49.11844" lon="0.13038">
        <ele>166.9</ele>
        <time>2023-11-22T14:43:56Z</time>
      </trkpt>
      <trkpt lat="49.11846" lon="0.13046">
        <ele>167</ele>
        <time>2023-11-22T14:43:57Z</time>
      </trkpt>
      <trkpt lat="49.11847" lon="0.13054">
        <ele>167</ele>
        <time>2023-11-22T14:43:58Z</time>
      </trkpt>
      <trkpt lat="49.11849" lon="0.13062">
        <ele>167.1</ele>
        <time>2023-11-22T14:43:59Z</time>
      </trkpt>
      <trkpt lat="49.1185" lon="0.13069">
        <ele>167.2</ele>
        <time>2023-11-22T14:44:00Z</time>
      </trkpt>
      <trkpt lat="49.11852" lon="0.13077">
        <ele>167.3</ele>
        <time>2023-11-22T14:44:01Z</time>
      </trkpt>
      <trkpt lat="49.11853" lon="0.13085">
        <ele>167.3</ele>
        <time>2023-11-22T14:44:02Z</time>
      </trkpt>
      <trkpt lat="49.11854" lon="0.13094">
        <ele>167.4</ele>
        <time>2023-11-22T14:44:03Z</time>
      </trkpt>
      <trkpt lat="49.11855" lon="0.13102">
        <ele>167.5</ele>
        <time>2023-11-22T14:44:04Z</time>
      </trkpt>
      <trkpt lat="49.11856" lon="0.1311">
        <ele>167.6</ele>
        <time>2023-11-22T14:44:05Z</time>
      </trkpt>
      <trkpt lat="49.11857" lon="0.13119">
        <ele>167.7</ele>
        <time>2023-11-22T14:44:06Z</time>
      </trkpt>
      <trkpt lat="49.11857" lon="0.13128">
        <ele>167.8</ele>
        <time>2023-11-22T14:44:07Z</time>
      </trkpt>
      <trkpt lat="49.11857" lon="0.13137">
        <ele>167.9</ele>
        <time>2023-11-22T14:44:08Z</time>
      </trkpt>
      <trkpt lat="49.11858" lon="0.13146">
        <ele>168</ele>
        <time>2023-11-22T14:44:09Z</time>
      </trkpt>
      <trkpt lat="49.11858" lon="0.13156">
        <ele>168.1</ele>
        <time>2023-11-22T14:44:10Z</time>
      </trkpt>
      <trkpt lat="49.11858" lon="0.13165">
        <ele>168.3</ele>
        <time>2023-11-22T14:44:11Z</time>
      </trkpt>
      <trkpt lat="49.11858" lon="0.13175">
        <ele>168.4</ele>
        <time>2023-11-22T14:44:12Z</time>
      </trkpt>
      <trkpt lat="49.11857" lon="0.13184">
        <ele>168.5</ele>
        <time>2023-11-22T14:44:13Z</time>
      </trkpt>
      <trkpt lat="49.11857" lon="0.13194">
        <ele>168.6</ele>
        <time>2023-11-22T14:44:14Z</time>
      </trkpt>
      <trkpt lat="49.11856" lon="0.13203">
        <ele>168.8</ele>
        <time>2023-11-22T14:44:15Z</time>
      </trkpt>
      <trkpt lat="49.11855" lon="0.13213">
        <ele>168.9</ele>
        <time>2023-11-22T14:44:16Z</time>
      </trkpt>
      <trkpt lat="49.11855" lon="0.13222">
        <ele>169</ele>
        <time>2023-11-22T14:44:17Z</time>
      </trkpt>
      <trkpt lat="49.11854" lon="0.13232">
        <ele>169.1</ele>
        <time>2023-11-22T14:44:18Z</time>
      </trkpt>
      <trkpt lat="49.11853" lon="0.13242">
        <ele>169.2</ele>
        <time>2023-11-22T14:44:19Z</time>
      </trkpt>
      <trkpt lat="49.11853" lon="0.13252">
        <ele>169.4</ele>
        <time>2023-11-22T14:44:20Z</time>
      </trkpt>
      <trkpt lat="49.11853" lon="0.13262">
        <ele>169.5</ele>
        <time>2023-11-22T14:44:21Z</time>
      </trkpt>
      <trkpt lat="49.11853" lon="0.13272">
        <ele>169.6</ele>
        <time>2023-11-22T14:44:22Z</time>
      </trkpt>
      <trkpt lat="49.11853" lon="0.13282">
        <ele>169.7</ele>
        <time>2023-11-22T14:44:23Z</time>
      </trkpt>
      <trkpt lat="49.11855" lon="0.13291">
        <ele>169.7</ele>
        <time>2023-11-22T14:44:24Z</time>
      </trkpt>
      <trkpt lat="49.11856" lon="0.133">
        <ele>169.8</ele>
        <time>2023-11-22T14:44:25Z</time>
      </trkpt>
      <trkpt lat="49.11858" lon="0.1331">
        <ele>169.9</ele>
        <time>2023-11-22T14:44:26Z</time>
      </trkpt>
      <trkpt lat="49.11861" lon="0.13318">
        <ele>169.9</ele>
        <time>2023-11-22T14:44:27Z</time>
      </trkpt>
      <trkpt lat="49.11864" lon="0.13326">
        <ele>170</ele>
        <time>2023-11-22T14:44:28Z</time>
      </trkpt>
      <trkpt lat="49.11867" lon="0.13334">
        <ele>170</ele>
        <time>2023-11-22T14:44:29Z</time>
      </trkpt>
      <trkpt lat="49.11871" lon="0.13343">
        <ele>170.1</ele>
        <time>2023-11-22T14:44:30Z</time>
      </trkpt>
      <trkpt lat="49.11875" lon="0.1335">
        <ele>170.2</ele>
        <time>2023-11-22T14:44:31Z</time>
      </trkpt>
      <trkpt lat="49.11879" lon="0.13357">
        <ele>170.2</ele>
        <time>2023-11-22T14:44:32Z</time>
      </trkpt>
      <trkpt lat="49.11884" lon="0.13365">
        <ele>170.3</ele>
        <time>2023-11-22T14:44:33Z</time>
      </trkpt>
      <trkpt lat="49.11888" lon="0.13371">
        <ele>170.4</ele>
        <time>2023-11-22T14:44:34Z</time>
      </trkpt>
      <trkpt lat="49.11893" lon="0.13378">
        <ele>170.4</ele>
        <time>2023-11-22T14:44:35Z</time>
      </trkpt>
      <trkpt lat="49.11898" lon="0.13385">
        <ele>170.5</ele>
        <time>2023-11-22T14:44:36Z</time>
      </trkpt>
      <trkpt lat="49.11903" lon="0.13392">
        <ele>170.5</ele>
        <time>2023-11-22T14:44:37Z</time>
      </trkpt>
      <trkpt lat="49.11908" lon="0.13398">
        <ele>170.6</ele>
        <time>2023-11-22T14:44:38Z</time>
      </trkpt>
      <trkpt lat="49.11912" lon="0.13405">
        <ele>170.7</ele>
        <time>2023-11-22T14:44:39Z</time>
      </trkpt>
      <trkpt lat="49.11917" lon="0.13411">
        <ele>170.8</ele>
        <time>2023-11-22T14:44:40Z</time>
      </trkpt>
      <trkpt lat="49.11923" lon="0.13417">
        <ele>170.9</ele>
        <time>2023-11-22T14:44:41Z</time>
      </trkpt>
      <trkpt lat="49.11928" lon="0.13423">
        <ele>171</ele>
        <time>2023-11-22T14:44:42Z</time>
      </trkpt>
      <trkpt lat="49.11933" lon="0.13428">
        <ele>171.1</ele>
        <time>2023-11-22T14:44:43Z</time>
      </trkpt>
      <trkpt lat="49.11939" lon="0.13434">
        <ele>171.2</ele>
        <time>2023-11-22T14:44:44Z</time>
      </trkpt>
      <trkpt lat="49.11944" lon="0.1344">
        <ele>171.2</ele>
        <time>2023-11-22T14:44:45Z</time>
      </trkpt>
      <trkpt lat="49.1195" lon="0.13445">
        <ele>171.3</ele>
        <time>2023-11-22T14:44:46Z</time>
      </trkpt>
      <trkpt lat="49.11956" lon="0.1345">
        <ele>171.3</ele>
        <time>2023-11-22T14:44:47Z</time>
      </trkpt>
      <trkpt lat="49.11961" lon="0.13456">
        <ele>171.4</ele>
        <time>2023-11-22T14:44:48Z</time>
      </trkpt>
      <trkpt lat="49.11966" lon="0.13462">
        <ele>171.4</ele>
        <time>2023-11-22T14:44:49Z</time>
      </trkpt>
      <trkpt lat="49.11971" lon="0.13468">
        <ele>171.4</ele>
        <time>2023-11-22T14:44:50Z</time>
      </trkpt>
      <trkpt lat="49.11977" lon="0.13474">
        <ele>171.4</ele>
        <time>2023-11-22T14:44:51Z</time>
      </trkpt>
      <trkpt lat="49.11983" lon="0.13481">
        <ele>171.4</ele>
        <time>2023-11-22T14:44:52Z</time>
      </trkpt>
      <trkpt lat="49.11988" lon="0.13487">
        <ele>171.4</ele>
        <time>2023-11-22T14:44:53Z</time>
      </trkpt>
      <trkpt lat="49.11993" lon="0.13494">
        <ele>171.4</ele>
        <time>2023-11-22T14:44:54Z</time>
      </trkpt>
      <trkpt lat="49.11999" lon="0.135">
        <ele>171.4</ele>
        <time>2023-11-22T14:44:55Z</time>
      </trkpt>
      <trkpt lat="49.12005" lon="0.13507">
        <ele>171.4</ele>
        <time>2023-11-22T14:44:56Z</time>
      </trkpt>
      <trkpt lat="49.12011" lon="0.13513">
        <ele>171.4</ele>
        <time>2023-11-22T14:44:57Z</time>
      </trkpt>
      <trkpt lat="49.12017" lon="0.1352">
        <ele>171.4</ele>
        <time>2023-11-22T14:44:58Z</time>
      </trkpt>
      <trkpt lat="49.12022" lon="0.13527">
        <ele>171.4</ele>
        <time>2023-11-22T14:44:59Z</time>
      </trkpt>
      <trkpt lat="49.12028" lon="0.13534">
        <ele>171.3</ele>
        <time>2023-11-22T14:45:00Z</time>
      </trkpt>
      <trkpt lat="49.12034" lon="0.13542">
        <ele>171.3</ele>
        <time>2023-11-22T14:45:01Z</time>
      </trkpt>
      <trkpt lat="49.1204" lon="0.13549">
        <ele>171.3</ele>
        <time>2023-11-22T14:45:02Z</time>
      </trkpt>
      <trkpt lat="49.12045" lon="0.13556">
        <ele>171.3</ele>
        <time>2023-11-22T14:45:03Z</time>
      </trkpt>
      <trkpt lat="49.12051" lon="0.13564">
        <ele>171.2</ele>
        <time>2023-11-22T14:45:04Z</time>
      </trkpt>
      <trkpt lat="49.12056" lon="0.13572">
        <ele>171.2</ele>
        <time>2023-11-22T14:45:05Z</time>
      </trkpt>
      <trkpt lat="49.12061" lon="0.13581">
        <ele>171.2</ele>
        <time>2023-11-22T14:45:06Z</time>
      </trkpt>
      <trkpt lat="49.12066" lon="0.13589">
        <ele>171.2</ele>
        <time>2023-11-22T14:45:07Z</time>
      </trkpt>
      <trkpt lat="49.12071" lon="0.13598">
        <ele>171.2</ele>
        <time>2023-11-22T14:45:08Z</time>
      </trkpt>
      <trkpt lat="49.12076" lon="0.13606">
        <ele>171.2</ele>
        <time>2023-11-22T14:45:09Z</time>
      </trkpt>
      <trkpt lat="49.12081" lon="0.13615">
        <ele>171.2</ele>
        <time>2023-11-22T14:45:10Z</time>
      </trkpt>
      <trkpt lat="49.12086" lon="0.13623">
        <ele>171.1</ele>
        <time>2023-11-22T14:45:11Z</time>
      </trkpt>
      <trkpt lat="49.12092" lon="0.1363">
        <ele>171.1</ele>
        <time>2023-11-22T14:45:12Z</time>
      </trkpt>
      <trkpt lat="49.12098" lon="0.13637">
        <ele>171.1</ele>
        <time>2023-11-22T14:45:13Z</time>
      </trkpt>
      <trkpt lat="49.12105" lon="0.13643">
        <ele>171.1</ele>
        <time>2023-11-22T14:45:14Z</time>
      </trkpt>
      <trkpt lat="49.12111" lon="0.13648">
        <ele>171.1</ele>
        <time>2023-11-22T14:45:15Z</time>
      </trkpt>
      <trkpt lat="49.12118" lon="0.13652">
        <ele>171.1</ele>
        <time>2023-11-22T14:45:16Z</time>
      </trkpt>
      <trkpt lat="49.12124" lon="0.13656">
        <ele>171.1</ele>
        <time>2023-11-22T14:45:17Z</time>
      </trkpt>
      <trkpt lat="49.12131" lon="0.1366">
        <ele>171.1</ele>
        <time>2023-11-22T14:45:18Z</time>
      </trkpt>
      <trkpt lat="49.12138" lon="0.13664">
        <ele>171.1</ele>
        <time>2023-11-22T14:45:19Z</time>
      </trkpt>
      <trkpt lat="49.12144" lon="0.13668">
        <ele>171.1</ele>
        <time>2023-11-22T14:45:20Z</time>
      </trkpt>
      <trkpt lat="49.12151" lon="0.13672">
        <ele>171.1</ele>
        <time>2023-11-22T14:45:21Z</time>
      </trkpt>
      <trkpt lat="49.12158" lon="0.13676">
        <ele>171.1</ele>
        <time>2023-11-22T14:45:22Z</time>
      </trkpt>
      <trkpt lat="49.12164" lon="0.1368">
        <ele>171.1</ele>
        <time>2023-11-22T14:45:23Z</time>
      </trkpt>
      <trkpt lat="49.12171" lon="0.13684">
        <ele>171.1</ele>
        <time>2023-11-22T14:45:24Z</time>
      </trkpt>
      <trkpt lat="49.12177" lon="0.13689">
        <ele>171.1</ele>
        <time>2023-11-22T14:45:25Z</time>
      </trkpt>
      <trkpt lat="49.12184" lon="0.13695">
        <ele>171.1</ele>
        <time>2023-11-22T14:45:26Z</time>
      </trkpt>
      <trkpt lat="49.12189" lon="0.13701">
        <ele>171.2</ele>
        <time>2023-11-22T14:45:27Z</time>
      </trkpt>
      <trkpt lat="49.12195" lon="0.13707">
        <ele>171.2</ele>
        <time>2023-11-22T14:45:28Z</time>
      </trkpt>
      <trkpt lat="49.122" lon="0.13713">
        <ele>171.3</ele>
        <time>2023-11-22T14:45:29Z</time>
      </trkpt>
      <trkpt lat="49.12205" lon="0.13719">
        <ele>171.3</ele>
        <time>2023-11-22T14:45:30Z</time>
      </trkpt>
      <trkpt lat="49.1221" lon="0.13726">
        <ele>171.4</ele>
        <time>2023-11-22T14:45:31Z</time>
      </trkpt>
      <trkpt lat="49.12215" lon="0.13733">
        <ele>171.4</ele>
        <time>2023-11-22T14:45:32Z</time>
      </trkpt>
      <trkpt lat="49.12219" lon="0.1374">
        <ele>171.5</ele>
        <time>2023-11-22T14:45:33Z</time>
      </trkpt>
      <trkpt lat="49.12223" lon="0.13747">
        <ele>171.6</ele>
        <time>2023-11-22T14:45:34Z</time>
      </trkpt>
      <trkpt lat="49.12227" lon="0.13754">
        <ele>171.7</ele>
        <time>2023-11-22T14:45:35Z</time>
      </trkpt>
      <trkpt lat="49.12231" lon="0.1376">
        <ele>171.7</ele>
        <time>2023-11-22T14:45:36Z</time>
      </trkpt>
      <trkpt lat="49.12234" lon="0.13764">
        <ele>171.8</ele>
        <time>2023-11-22T14:45:37Z</time>
      </trkpt>
      <trkpt lat="49.12236" lon="0.13768">
        <ele>171.8</ele>
        <time>2023-11-22T14:45:38Z</time>
      </trkpt>
      <trkpt lat="49.12237" lon="0.13771">
        <ele>171.9</ele>
        <time>2023-11-22T14:45:39Z</time>
      </trkpt>
      <trkpt lat="49.12237" lon="0.13773">
        <ele>171.9</ele>
        <time>2023-11-22T14:45:40Z</time>
      </trkpt>
      <trkpt lat="49.12238" lon="0.13774">
        <ele>171.9</ele>
        <time>2023-11-22T14:45:41Z</time>
      </trkpt>
      <trkpt lat="49.12238" lon="0.13773">
        <ele>171.9</ele>
        <time>2023-11-22T14:45:42Z</time>
      </trkpt>
      <trkpt lat="49.12239" lon="0.13774">
        <ele>171.9</ele>
        <time>2023-11-22T14:45:43Z</time>
      </trkpt>
      <trkpt lat="49.1224" lon="0.13777">
        <ele>171.9</ele>
        <time>2023-11-22T14:45:44Z</time>
      </trkpt>
      <trkpt lat="49.12242" lon="0.1378">
        <ele>171.9</ele>
        <time>2023-11-22T14:45:45Z</time>
      </trkpt>
      <trkpt lat="49.12243" lon="0.13781">
        <ele>171.9</ele>
        <time>2023-11-22T14:45:46Z</time>
      </trkpt>
      <trkpt lat="49.12247" lon="0.13782">
        <ele>171.9</ele>
        <time>2023-11-22T14:45:47Z</time>
      </trkpt>
      <trkpt lat="49.12248" lon="0.13783">
        <ele>171.9</ele>
        <time>2023-11-22T14:45:48Z</time>
      </trkpt>
      <trkpt lat="49.12251" lon="0.13784">
        <ele>171.9</ele>
        <time>2023-11-22T14:45:49Z</time>
      </trkpt>
      <trkpt lat="49.12254" lon="0.13786">
        <ele>171.9</ele>
        <time>2023-11-22T14:45:50Z</time>
      </trkpt>
      <trkpt lat="49.12257" lon="0.13787">
        <ele>171.9</ele>
        <time>2023-11-22T14:45:51Z</time>
      </trkpt>
      <trkpt lat="49.12261" lon="0.1379">
        <ele>171.9</ele>
        <time>2023-11-22T14:45:52Z</time>
      </trkpt>
      <trkpt lat="49.12265" lon="0.13794">
        <ele>171.9</ele>
        <time>2023-11-22T14:45:53Z</time>
      </trkpt>
      <trkpt lat="49.12269" lon="0.13798">
        <ele>171.9</ele>
        <time>2023-11-22T14:45:54Z</time>
      </trkpt>
      <trkpt lat="49.12273" lon="0.13802">
        <ele>171.9</ele>
        <time>2023-11-22T14:45:55Z</time>
      </trkpt>
      <trkpt lat="49.12277" lon="0.13807">
        <ele>172</ele>
        <time>2023-11-22T14:45:56Z</time>
      </trkpt>
      <trkpt lat="49.12281" lon="0.13812">
        <ele>172</ele>
        <time>2023-11-22T14:45:57Z</time>
      </trkpt>
      <trkpt lat="49.12284" lon="0.13818">
        <ele>172</ele>
        <time>2023-11-22T14:45:58Z</time>
      </trkpt>
      <trkpt lat="49.12288" lon="0.13824">
        <ele>172</ele>
        <time>2023-11-22T14:45:59Z</time>
      </trkpt>
      <trkpt lat="49.12292" lon="0.13831">
        <ele>172</ele>
        <time>2023-11-22T14:46:00Z</time>
      </trkpt>
      <trkpt lat="49.12295" lon="0.13838">
        <ele>172.1</ele>
        <time>2023-11-22T14:46:01Z</time>
      </trkpt>
      <trkpt lat="49.12298" lon="0.13845">
        <ele>172.1</ele>
        <time>2023-11-22T14:46:02Z</time>
      </trkpt>
      <trkpt lat="49.12302" lon="0.13853">
        <ele>172.2</ele>
        <time>2023-11-22T14:46:03Z</time>
      </trkpt>
      <trkpt lat="49.12306" lon="0.1386">
        <ele>172.2</ele>
        <time>2023-11-22T14:46:04Z</time>
      </trkpt>
      <trkpt lat="49.1231" lon="0.13868">
        <ele>172.3</ele>
        <time>2023-11-22T14:46:05Z</time>
      </trkpt>
      <trkpt lat="49.12314" lon="0.13875">
        <ele>172.4</ele>
        <time>2023-11-22T14:46:06Z</time>
      </trkpt>
      <trkpt lat="49.12318" lon="0.13883">
        <ele>172.4</ele>
        <time>2023-11-22T14:46:07Z</time>
      </trkpt>
      <trkpt lat="49.12322" lon="0.1389">
        <ele>172.5</ele>
        <time>2023-11-22T14:46:08Z</time>
      </trkpt>
      <trkpt lat="49.12326" lon="0.13898">
        <ele>172.5</ele>
        <time>2023-11-22T14:46:09Z</time>
      </trkpt>
      <trkpt lat="49.12331" lon="0.13906">
        <ele>172.6</ele>
        <time>2023-11-22T14:46:10Z</time>
      </trkpt>
      <trkpt lat="49.12335" lon="0.13913">
        <ele>172.7</ele>
        <time>2023-11-22T14:46:11Z</time>
      </trkpt>
      <trkpt lat="49.1234" lon="0.1392">
        <ele>172.7</ele>
        <time>2023-11-22T14:46:12Z</time>
      </trkpt>
      <trkpt lat="49.12345" lon="0.13927">
        <ele>172.8</ele>
        <time>2023-11-22T14:46:13Z</time>
      </trkpt>
      <trkpt lat="49.1235" lon="0.13934">
        <ele>172.9</ele>
        <time>2023-11-22T14:46:14Z</time>
      </trkpt>
      <trkpt lat="49.12355" lon="0.13941">
        <ele>173</ele>
        <time>2023-11-22T14:46:15Z</time>
      </trkpt>
      <trkpt lat="49.12361" lon="0.13948">
        <ele>173.1</ele>
        <time>2023-11-22T14:46:16Z</time>
      </trkpt>
      <trkpt lat="49.12366" lon="0.13954">
        <ele>173.2</ele>
        <time>2023-11-22T14:46:17Z</time>
      </trkpt>
      <trkpt lat="49.12372" lon="0.1396">
        <ele>173.3</ele>
        <time>2023-11-22T14:46:18Z</time>
      </trkpt>
      <trkpt lat="49.12377" lon="0.13966">
        <ele>173.4</ele>
        <time>2023-11-22T14:46:19Z</time>
      </trkpt>
      <trkpt lat="49.12382" lon="0.13973">
        <ele>173.6</ele>
        <time>2023-11-22T14:46:20Z</time>
      </trkpt>
      <trkpt lat="49.12388" lon="0.13979">
        <ele>173.7</ele>
        <time>2023-11-22T14:46:21Z</time>
      </trkpt>
      <trkpt lat="49.12393" lon="0.13985">
        <ele>173.8</ele>
        <time>2023-11-22T14:46:22Z</time>
      </trkpt>
      <trkpt lat="49.12399" lon="0.13991">
        <ele>174</ele>
        <time>2023-11-22T14:46:23Z</time>
      </trkpt>
      <trkpt lat="49.12404" lon="0.13997">
        <ele>174.1</ele>
        <time>2023-11-22T14:46:24Z</time>
      </trkpt>
      <trkpt lat="49.12409" lon="0.14004">
        <ele>174.2</ele>
        <time>2023-11-22T14:46:25Z</time>
      </trkpt>
      <trkpt lat="49.12414" lon="0.1401">
        <ele>174.4</ele>
        <time>2023-11-22T14:46:26Z</time>
      </trkpt>
      <trkpt lat="49.12419" lon="0.14017">
        <ele>174.4</ele>
        <time>2023-11-22T14:46:27Z</time>
      </trkpt>
      <trkpt lat="49.12424" lon="0.14023">
        <ele>174.5</ele>
        <time>2023-11-22T14:46:28Z</time>
      </trkpt>
      <trkpt lat="49.12429" lon="0.1403">
        <ele>174.6</ele>
        <time>2023-11-22T14:46:29Z</time>
      </trkpt>
      <trkpt lat="49.12433" lon="0.14036">
        <ele>174.7</ele>
        <time>2023-11-22T14:46:30Z</time>
      </trkpt>
      <trkpt lat="49.12438" lon="0.14043">
        <ele>174.8</ele>
        <time>2023-11-22T14:46:31Z</time>
      </trkpt>
      <trkpt lat="49.12443" lon="0.14049">
        <ele>174.9</ele>
        <time>2023-11-22T14:46:32Z</time>
      </trkpt>
      <trkpt lat="49.12448" lon="0.14057">
        <ele>174.9</ele>
        <time>2023-11-22T14:46:33Z</time>
      </trkpt>
      <trkpt lat="49.12453" lon="0.14064">
        <ele>175</ele>
        <time>2023-11-22T14:46:34Z</time>
      </trkpt>
      <trkpt lat="49.12458" lon="0.1407">
        <ele>175</ele>
        <time>2023-11-22T14:46:35Z</time>
      </trkpt>
      <trkpt lat="49.12463" lon="0.14078">
        <ele>175.1</ele>
        <time>2023-11-22T14:46:36Z</time>
      </trkpt>
      <trkpt lat="49.12469" lon="0.14084">
        <ele>175.1</ele>
        <time>2023-11-22T14:46:37Z</time>
      </trkpt>
      <trkpt lat="49.12474" lon="0.14091">
        <ele>175.2</ele>
        <time>2023-11-22T14:46:38Z</time>
      </trkpt>
      <trkpt lat="49.12479" lon="0.14098">
        <ele>175.2</ele>
        <time>2023-11-22T14:46:39Z</time>
      </trkpt>
      <trkpt lat="49.12485" lon="0.14105">
        <ele>175.3</ele>
        <time>2023-11-22T14:46:40Z</time>
      </trkpt>
      <trkpt lat="49.12491" lon="0.14111">
        <ele>175.3</ele>
        <time>2023-11-22T14:46:41Z</time>
      </trkpt>
      <trkpt lat="49.12496" lon="0.14118">
        <ele>175.3</ele>
        <time>2023-11-22T14:46:42Z</time>
      </trkpt>
      <trkpt lat="49.12501" lon="0.14126">
        <ele>175.3</ele>
        <time>2023-11-22T14:46:43Z</time>
      </trkpt>
      <trkpt lat="49.12507" lon="0.14133">
        <ele>175.3</ele>
        <time>2023-11-22T14:46:44Z</time>
      </trkpt>
      <trkpt lat="49.12512" lon="0.1414">
        <ele>175.3</ele>
        <time>2023-11-22T14:46:45Z</time>
      </trkpt>
      <trkpt lat="49.12518" lon="0.14147">
        <ele>175.4</ele>
        <time>2023-11-22T14:46:46Z</time>
      </trkpt>
      <trkpt lat="49.12524" lon="0.14154">
        <ele>175.4</ele>
        <time>2023-11-22T14:46:47Z</time>
      </trkpt>
      <trkpt lat="49.1253" lon="0.1416">
        <ele>175.4</ele>
        <time>2023-11-22T14:46:48Z</time>
      </trkpt>
      <trkpt lat="49.12536" lon="0.14166">
        <ele>175.4</ele>
        <time>2023-11-22T14:46:49Z</time>
      </trkpt>
      <trkpt lat="49.12541" lon="0.14173">
        <ele>175.4</ele>
        <time>2023-11-22T14:46:50Z</time>
      </trkpt>
      <trkpt lat="49.12547" lon="0.14179">
        <ele>175.4</ele>
        <time>2023-11-22T14:46:51Z</time>
      </trkpt>
      <trkpt lat="49.12553" lon="0.14186">
        <ele>175.4</ele>
        <time>2023-11-22T14:46:52Z</time>
      </trkpt>
      <trkpt lat="49.12558" lon="0.14192">
        <ele>175.5</ele>
        <time>2023-11-22T14:46:53Z</time>
      </trkpt>
      <trkpt lat="49.12564" lon="0.14199">
        <ele>175.5</ele>
        <time>2023-11-22T14:46:54Z</time>
      </trkpt>
      <trkpt lat="49.12569" lon="0.14205">
        <ele>175.5</ele>
        <time>2023-11-22T14:46:55Z</time>
      </trkpt>
      <trkpt lat="49.12575" lon="0.14211">
        <ele>175.5</ele>
        <time>2023-11-22T14:46:56Z</time>
      </trkpt>
      <trkpt lat="49.1258" lon="0.14218">
        <ele>175.5</ele>
        <time>2023-11-22T14:46:57Z</time>
      </trkpt>
      <trkpt lat="49.12585" lon="0.14224">
        <ele>175.5</ele>
        <time>2023-11-22T14:46:58Z</time>
      </trkpt>
      <trkpt lat="49.1259" lon="0.14229">
        <ele>175.5</ele>
        <time>2023-11-22T14:46:59Z</time>
      </trkpt>
      <trkpt lat="49.12595" lon="0.14234">
        <ele>175.5</ele>
        <time>2023-11-22T14:47:00Z</time>
      </trkpt>
      <trkpt lat="49.12599" lon="0.14241">
        <ele>175.5</ele>
        <time>2023-11-22T14:47:01Z</time>
      </trkpt>
      <trkpt lat="49.12604" lon="0.14249">
        <ele>175.5</ele>
        <time>2023-11-22T14:47:02Z</time>
      </trkpt>
      <trkpt lat="49.1261" lon="0.14256">
        <ele>175.5</ele>
        <time>2023-11-22T14:47:03Z</time>
      </trkpt>
      <trkpt lat="49.12616" lon="0.14263">
        <ele>175.5</ele>
        <time>2023-11-22T14:47:04Z</time>
      </trkpt>
      <trkpt lat="49.12622" lon="0.1427">
        <ele>175.5</ele>
        <time>2023-11-22T14:47:05Z</time>
      </trkpt>
      <trkpt lat="49.12628" lon="0.14277">
        <ele>175.5</ele>
        <time>2023-11-22T14:47:06Z</time>
      </trkpt>
      <trkpt lat="49.12635" lon="0.14284">
        <ele>175.5</ele>
        <time>2023-11-22T14:47:07Z</time>
      </trkpt>
      <trkpt lat="49.12641" lon="0.14291">
        <ele>175.5</ele>
        <time>2023-11-22T14:47:08Z</time>
      </trkpt>
      <trkpt lat="49.12647" lon="0.14298">
        <ele>175.6</ele>
        <time>2023-11-22T14:47:09Z</time>
      </trkpt>
      <trkpt lat="49.12652" lon="0.14305">
        <ele>175.6</ele>
        <time>2023-11-22T14:47:10Z</time>
      </trkpt>
      <trkpt lat="49.12659" lon="0.14313">
        <ele>175.6</ele>
        <time>2023-11-22T14:47:11Z</time>
      </trkpt>
      <trkpt lat="49.12665" lon="0.14321">
        <ele>175.6</ele>
        <time>2023-11-22T14:47:12Z</time>
      </trkpt>
      <trkpt lat="49.12671" lon="0.14328">
        <ele>175.6</ele>
        <time>2023-11-22T14:47:13Z</time>
      </trkpt>
      <trkpt lat="49.12677" lon="0.14336">
        <ele>175.7</ele>
        <time>2023-11-22T14:47:14Z</time>
      </trkpt>
      <trkpt lat="49.12684" lon="0.14343">
        <ele>175.7</ele>
        <time>2023-11-22T14:47:15Z</time>
      </trkpt>
      <trkpt lat="49.1269" lon="0.1435">
        <ele>175.7</ele>
        <time>2023-11-22T14:47:16Z</time>
      </trkpt>
      <trkpt lat="49.12695" lon="0.14357">
        <ele>175.7</ele>
        <time>2023-11-22T14:47:17Z</time>
      </trkpt>
      <trkpt lat="49.12701" lon="0.14365">
        <ele>175.7</ele>
        <time>2023-11-22T14:47:18Z</time>
      </trkpt>
      <trkpt lat="49.12706" lon="0.14373">
        <ele>175.7</ele>
        <time>2023-11-22T14:47:19Z</time>
      </trkpt>
      <trkpt lat="49.12711" lon="0.14382">
        <ele>175.7</ele>
        <time>2023-11-22T14:47:20Z</time>
      </trkpt>
      <trkpt lat="49.12716" lon="0.1439">
        <ele>175.7</ele>
        <time>2023-11-22T14:47:21Z</time>
      </trkpt>
      <trkpt lat="49.12722" lon="0.14398">
        <ele>175.7</ele>
        <time>2023-11-22T14:47:22Z</time>
      </trkpt>
      <trkpt lat="49.12728" lon="0.14405">
        <ele>175.7</ele>
        <time>2023-11-22T14:47:23Z</time>
      </trkpt>
      <trkpt lat="49.12733" lon="0.14411">
        <ele>175.7</ele>
        <time>2023-11-22T14:47:24Z</time>
      </trkpt>
      <trkpt lat="49.12739" lon="0.14418">
        <ele>175.7</ele>
        <time>2023-11-22T14:47:25Z</time>
      </trkpt>
      <trkpt lat="49.12745" lon="0.14425">
        <ele>175.8</ele>
        <time>2023-11-22T14:47:26Z</time>
      </trkpt>
      <trkpt lat="49.1275" lon="0.14431">
        <ele>175.8</ele>
        <time>2023-11-22T14:47:27Z</time>
      </trkpt>
      <trkpt lat="49.12757" lon="0.14438">
        <ele>175.8</ele>
        <time>2023-11-22T14:47:28Z</time>
      </trkpt>
      <trkpt lat="49.12763" lon="0.14444">
        <ele>175.8</ele>
        <time>2023-11-22T14:47:29Z</time>
      </trkpt>
      <trkpt lat="49.1277" lon="0.1445">
        <ele>175.8</ele>
        <time>2023-11-22T14:47:30Z</time>
      </trkpt>
      <trkpt lat="49.12776" lon="0.14456">
        <ele>175.9</ele>
        <time>2023-11-22T14:47:31Z</time>
      </trkpt>
      <trkpt lat="49.12783" lon="0.14461">
        <ele>175.9</ele>
        <time>2023-11-22T14:47:32Z</time>
      </trkpt>
      <trkpt lat="49.1279" lon="0.14466">
        <ele>175.9</ele>
        <time>2023-11-22T14:47:33Z</time>
      </trkpt>
      <trkpt lat="49.12797" lon="0.14471">
        <ele>175.9</ele>
        <time>2023-11-22T14:47:34Z</time>
      </trkpt>
      <trkpt lat="49.12804" lon="0.14475">
        <ele>176</ele>
        <time>2023-11-22T14:47:35Z</time>
      </trkpt>
      <trkpt lat="49.12811" lon="0.1448">
        <ele>176</ele>
        <time>2023-11-22T14:47:36Z</time>
      </trkpt>
      <trkpt lat="49.12818" lon="0.14484">
        <ele>176</ele>
        <time>2023-11-22T14:47:37Z</time>
      </trkpt>
      <trkpt lat="49.12825" lon="0.14488">
        <ele>176</ele>
        <time>2023-11-22T14:47:38Z</time>
      </trkpt>
      <trkpt lat="49.12833" lon="0.14492">
        <ele>176</ele>
        <time>2023-11-22T14:47:39Z</time>
      </trkpt>
      <trkpt lat="49.1284" lon="0.14496">
        <ele>176</ele>
        <time>2023-11-22T14:47:40Z</time>
      </trkpt>
      <trkpt lat="49.12846" lon="0.14501">
        <ele>176</ele>
        <time>2023-11-22T14:47:41Z</time>
      </trkpt>
      <trkpt lat="49.12853" lon="0.14506">
        <ele>176</ele>
        <time>2023-11-22T14:47:42Z</time>
      </trkpt>
      <trkpt lat="49.12859" lon="0.14511">
        <ele>176</ele>
        <time>2023-11-22T14:47:43Z</time>
      </trkpt>
      <trkpt lat="49.12865" lon="0.14516">
        <ele>176</ele>
        <time>2023-11-22T14:47:44Z</time>
      </trkpt>
      <trkpt lat="49.12871" lon="0.14523">
        <ele>176</ele>
        <time>2023-11-22T14:47:45Z</time>
      </trkpt>
      <trkpt lat="49.12876" lon="0.1453">
        <ele>176</ele>
        <time>2023-11-22T14:47:46Z</time>
      </trkpt>
      <trkpt lat="49.12882" lon="0.14537">
        <ele>176</ele>
        <time>2023-11-22T14:47:47Z</time>
      </trkpt>
      <trkpt lat="49.12887" lon="0.14544">
        <ele>176</ele>
        <time>2023-11-22T14:47:48Z</time>
      </trkpt>
      <trkpt lat="49.12892" lon="0.14552">
        <ele>176.1</ele>
        <time>2023-11-22T14:47:49Z</time>
      </trkpt>
      <trkpt lat="49.12896" lon="0.1456">
        <ele>176.1</ele>
        <time>2023-11-22T14:47:50Z</time>
      </trkpt>
      <trkpt lat="49.129" lon="0.14568">
        <ele>176.1</ele>
        <time>2023-11-22T14:47:51Z</time>
      </trkpt>
      <trkpt lat="49.12905" lon="0.14577">
        <ele>176.1</ele>
        <time>2023-11-22T14:47:52Z</time>
      </trkpt>
      <trkpt lat="49.12909" lon="0.14585">
        <ele>176.1</ele>
        <time>2023-11-22T14:47:53Z</time>
      </trkpt>
      <trkpt lat="49.12914" lon="0.14594">
        <ele>176</ele>
        <time>2023-11-22T14:47:54Z</time>
      </trkpt>
      <trkpt lat="49.12918" lon="0.14602">
        <ele>176</ele>
        <time>2023-11-22T14:47:55Z</time>
      </trkpt>
      <trkpt lat="49.12923" lon="0.14611">
        <ele>176</ele>
        <time>2023-11-22T14:47:56Z</time>
      </trkpt>
      <trkpt lat="49.12927" lon="0.14619">
        <ele>176</ele>
        <time>2023-11-22T14:47:57Z</time>
      </trkpt>
      <trkpt lat="49.12933" lon="0.14628">
        <ele>175.9</ele>
        <time>2023-11-22T14:47:58Z</time>
      </trkpt>
      <trkpt lat="49.12937" lon="0.14636">
        <ele>175.9</ele>
        <time>2023-11-22T14:47:59Z</time>
      </trkpt>
      <trkpt lat="49.12941" lon="0.14645">
        <ele>175.9</ele>
        <time>2023-11-22T14:48:00Z</time>
      </trkpt>
      <trkpt lat="49.12945" lon="0.14654">
        <ele>175.8</ele>
        <time>2023-11-22T14:48:01Z</time>
      </trkpt>
      <trkpt lat="49.1295" lon="0.14664">
        <ele>175.8</ele>
        <time>2023-11-22T14:48:02Z</time>
      </trkpt>
      <trkpt lat="49.12955" lon="0.14673">
        <ele>175.8</ele>
        <time>2023-11-22T14:48:03Z</time>
      </trkpt>
      <trkpt lat="49.12961" lon="0.14682">
        <ele>175.8</ele>
        <time>2023-11-22T14:48:04Z</time>
      </trkpt>
      <trkpt lat="49.12966" lon="0.14691">
        <ele>175.7</ele>
        <time>2023-11-22T14:48:05Z</time>
      </trkpt>
      <trkpt lat="49.12971" lon="0.147">
        <ele>175.7</ele>
        <time>2023-11-22T14:48:06Z</time>
      </trkpt>
      <trkpt lat="49.12976" lon="0.14709">
        <ele>175.6</ele>
        <time>2023-11-22T14:48:07Z</time>
      </trkpt>
      <trkpt lat="49.12982" lon="0.14718">
        <ele>175.6</ele>
        <time>2023-11-22T14:48:08Z</time>
      </trkpt>
      <trkpt lat="49.12987" lon="0.14727">
        <ele>175.5</ele>
        <time>2023-11-22T14:48:09Z</time>
      </trkpt>
      <trkpt lat="49.12992" lon="0.14735">
        <ele>175.5</ele>
        <time>2023-11-22T14:48:10Z</time>
      </trkpt>
      <trkpt lat="49.12997" lon="0.14744">
        <ele>175.5</ele>
        <time>2023-11-22T14:48:11Z</time>
      </trkpt>
      <trkpt lat="49.13002" lon="0.14753">
        <ele>175.5</ele>
        <time>2023-11-22T14:48:12Z</time>
      </trkpt>
      <trkpt lat="49.13006" lon="0.14762">
        <ele>175.5</ele>
        <time>2023-11-22T14:48:13Z</time>
      </trkpt>
      <trkpt lat="49.1301" lon="0.14772">
        <ele>175.5</ele>
        <time>2023-11-22T14:48:14Z</time>
      </trkpt>
      <trkpt lat="49.13015" lon="0.14781">
        <ele>175.5</ele>
        <time>2023-11-22T14:48:15Z</time>
      </trkpt>
      <trkpt lat="49.13021" lon="0.14791">
        <ele>175.5</ele>
        <time>2023-11-22T14:48:16Z</time>
      </trkpt>
      <trkpt lat="49.13028" lon="0.148">
        <ele>175.5</ele>
        <time>2023-11-22T14:48:17Z</time>
      </trkpt>
      <trkpt lat="49.13035" lon="0.14809">
        <ele>175.6</ele>
        <time>2023-11-22T14:48:18Z</time>
      </trkpt>
      <trkpt lat="49.13042" lon="0.14816">
        <ele>175.6</ele>
        <time>2023-11-22T14:48:19Z</time>
      </trkpt>
      <trkpt lat="49.13049" lon="0.1482">
        <ele>175.6</ele>
        <time>2023-11-22T14:48:20Z</time>
      </trkpt>
      <trkpt lat="49.13057" lon="0.14824">
        <ele>175.7</ele>
        <time>2023-11-22T14:48:21Z</time>
      </trkpt>
      <trkpt lat="49.13065" lon="0.14825">
        <ele>175.8</ele>
        <time>2023-11-22T14:48:22Z</time>
      </trkpt>
      <trkpt lat="49.13073" lon="0.14827">
        <ele>175.9</ele>
        <time>2023-11-22T14:48:23Z</time>
      </trkpt>
      <trkpt lat="49.13081" lon="0.14828">
        <ele>175.9</ele>
        <time>2023-11-22T14:48:24Z</time>
      </trkpt>
      <trkpt lat="49.13089" lon="0.14828">
        <ele>176</ele>
        <time>2023-11-22T14:48:25Z</time>
      </trkpt>
      <trkpt lat="49.13097" lon="0.14829">
        <ele>176.1</ele>
        <time>2023-11-22T14:48:26Z</time>
      </trkpt>
      <trkpt lat="49.13105" lon="0.14829">
        <ele>176.1</ele>
        <time>2023-11-22T14:48:27Z</time>
      </trkpt>
      <trkpt lat="49.13113" lon="0.1483">
        <ele>176.2</ele>
        <time>2023-11-22T14:48:28Z</time>
      </trkpt>
      <trkpt lat="49.1312" lon="0.1483">
        <ele>176.3</ele>
        <time>2023-11-22T14:48:29Z</time>
      </trkpt>
      <trkpt lat="49.13128" lon="0.1483">
        <ele>176.3</ele>
        <time>2023-11-22T14:48:30Z</time>
      </trkpt>
      <trkpt lat="49.13136" lon="0.14831">
        <ele>176.4</ele>
        <time>2023-11-22T14:48:31Z</time>
      </trkpt>
      <trkpt lat="49.13143" lon="0.14831">
        <ele>176.5</ele>
        <time>2023-11-22T14:48:32Z</time>
      </trkpt>
      <trkpt lat="49.13151" lon="0.14831">
        <ele>176.5</ele>
        <time>2023-11-22T14:48:33Z</time>
      </trkpt>
      <trkpt lat="49.13158" lon="0.14832">
        <ele>176.5</ele>
        <time>2023-11-22T14:48:34Z</time>
      </trkpt>
      <trkpt lat="49.13165" lon="0.14832">
        <ele>176.6</ele>
        <time>2023-11-22T14:48:35Z</time>
      </trkpt>
      <trkpt lat="49.13173" lon="0.14832">
        <ele>176.6</ele>
        <time>2023-11-22T14:48:36Z</time>
      </trkpt>
      <trkpt lat="49.1318" lon="0.14833">
        <ele>176.6</ele>
        <time>2023-11-22T14:48:37Z</time>
      </trkpt>
      <trkpt lat="49.13188" lon="0.14833">
        <ele>176.7</ele>
        <time>2023-11-22T14:48:38Z</time>
      </trkpt>
      <trkpt lat="49.13195" lon="0.14834">
        <ele>176.7</ele>
        <time>2023-11-22T14:48:39Z</time>
      </trkpt>
      <trkpt lat="49.13203" lon="0.14834">
        <ele>176.8</ele>
        <time>2023-11-22T14:48:40Z</time>
      </trkpt>
      <trkpt lat="49.13211" lon="0.14834">
        <ele>176.8</ele>
        <time>2023-11-22T14:48:41Z</time>
      </trkpt>
      <trkpt lat="49.13218" lon="0.14834">
        <ele>176.8</ele>
        <time>2023-11-22T14:48:42Z</time>
      </trkpt>
      <trkpt lat="49.13226" lon="0.14835">
        <ele>176.8</ele>
        <time>2023-11-22T14:48:43Z</time>
      </trkpt>
      <trkpt lat="49.13233" lon="0.14836">
        <ele>176.8</ele>
        <time>2023-11-22T14:48:44Z</time>
      </trkpt>
      <trkpt lat="49.1324" lon="0.14836">
        <ele>176.8</ele>
        <time>2023-11-22T14:48:45Z</time>
      </trkpt>
      <trkpt lat="49.13247" lon="0.14837">
        <ele>176.7</ele>
        <time>2023-11-22T14:48:46Z</time>
      </trkpt>
      <trkpt lat="49.13255" lon="0.14837">
        <ele>176.7</ele>
        <time>2023-11-22T14:48:47Z</time>
      </trkpt>
      <trkpt lat="49.13262" lon="0.14837">
        <ele>176.7</ele>
        <time>2023-11-22T14:48:48Z</time>
      </trkpt>
      <trkpt lat="49.13269" lon="0.14838">
        <ele>176.6</ele>
        <time>2023-11-22T14:48:49Z</time>
      </trkpt>
      <trkpt lat="49.13276" lon="0.14838">
        <ele>176.6</ele>
        <time>2023-11-22T14:48:50Z</time>
      </trkpt>
      <trkpt lat="49.13283" lon="0.14839">
        <ele>176.6</ele>
        <time>2023-11-22T14:48:51Z</time>
      </trkpt>
      <trkpt lat="49.13289" lon="0.14839">
        <ele>176.6</ele>
        <time>2023-11-22T14:48:52Z</time>
      </trkpt>
      <trkpt lat="49.13296" lon="0.1484">
        <ele>176.6</ele>
        <time>2023-11-22T14:48:53Z</time>
      </trkpt>
      <trkpt lat="49.13302" lon="0.1484">
        <ele>176.6</ele>
        <time>2023-11-22T14:48:54Z</time>
      </trkpt>
      <trkpt lat="49.13308" lon="0.1484">
        <ele>176.6</ele>
        <time>2023-11-22T14:48:55Z</time>
      </trkpt>
      <trkpt lat="49.13314" lon="0.1484">
        <ele>176.5</ele>
        <time>2023-11-22T14:48:56Z</time>
      </trkpt>
      <trkpt lat="49.1332" lon="0.14841">
        <ele>176.5</ele>
        <time>2023-11-22T14:48:57Z</time>
      </trkpt>
      <trkpt lat="49.13326" lon="0.14841">
        <ele>176.5</ele>
        <time>2023-11-22T14:48:58Z</time>
      </trkpt>
      <trkpt lat="49.13332" lon="0.14841">
        <ele>176.5</ele>
        <time>2023-11-22T14:48:59Z</time>
      </trkpt>
      <trkpt lat="49.13338" lon="0.14842">
        <ele>176.4</ele>
        <time>2023-11-22T14:49:00Z</time>
      </trkpt>
      <trkpt lat="49.13344" lon="0.14842">
        <ele>176.4</ele>
        <time>2023-11-22T14:49:01Z</time>
      </trkpt>
      <trkpt lat="49.13351" lon="0.14843">
        <ele>176.4</ele>
        <time>2023-11-22T14:49:02Z</time>
      </trkpt>
      <trkpt lat="49.13357" lon="0.14843">
        <ele>176.4</ele>
        <time>2023-11-22T14:49:03Z</time>
      </trkpt>
      <trkpt lat="49.13363" lon="0.14844">
        <ele>176.4</ele>
        <time>2023-11-22T14:49:04Z</time>
      </trkpt>
      <trkpt lat="49.13369" lon="0.14844">
        <ele>176.3</ele>
        <time>2023-11-22T14:49:05Z</time>
      </trkpt>
      <trkpt lat="49.13375" lon="0.14845">
        <ele>176.3</ele>
        <time>2023-11-22T14:49:06Z</time>
      </trkpt>
      <trkpt lat="49.13381" lon="0.14845">
        <ele>176.3</ele>
        <time>2023-11-22T14:49:07Z</time>
      </trkpt>
      <trkpt lat="49.13387" lon="0.14846">
        <ele>176.2</ele>
        <time>2023-11-22T14:49:08Z</time>
      </trkpt>
      <trkpt lat="49.13393" lon="0.14846">
        <ele>176.2</ele>
        <time>2023-11-22T14:49:09Z</time>
      </trkpt>
      <trkpt lat="49.13399" lon="0.14847">
        <ele>176.2</ele>
        <time>2023-11-22T14:49:10Z</time>
      </trkpt>
      <trkpt lat="49.13405" lon="0.14847">
        <ele>176.2</ele>
        <time>2023-11-22T14:49:11Z</time>
      </trkpt>
      <trkpt lat="49.13411" lon="0.14847">
        <ele>176.2</ele>
        <time>2023-11-22T14:49:12Z</time>
      </trkpt>
      <trkpt lat="49.13417" lon="0.14847">
        <ele>176.2</ele>
        <time>2023-11-22T14:49:13Z</time>
      </trkpt>
      <trkpt lat="49.13423" lon="0.14847">
        <ele>176.2</ele>
        <time>2023-11-22T14:49:14Z</time>
      </trkpt>
      <trkpt lat="49.13429" lon="0.14847">
        <ele>176.2</ele>
        <time>2023-11-22T14:49:15Z</time>
      </trkpt>
      <trkpt lat="49.13434" lon="0.14848">
        <ele>176.2</ele>
        <time>2023-11-22T14:49:16Z</time>
      </trkpt>
      <trkpt lat="49.13439" lon="0.14848">
        <ele>176.3</ele>
        <time>2023-11-22T14:49:17Z</time>
      </trkpt>
      <trkpt lat="49.13444" lon="0.14847">
        <ele>176.3</ele>
        <time>2023-11-22T14:49:18Z</time>
      </trkpt>
      <trkpt lat="49.13449" lon="0.14847">
        <ele>176.3</ele>
        <time>2023-11-22T14:49:19Z</time>
      </trkpt>
      <trkpt lat="49.13453" lon="0.14847">
        <ele>176.4</ele>
        <time>2023-11-22T14:49:20Z</time>
      </trkpt>
      <trkpt lat="49.13457" lon="0.14848">
        <ele>176.5</ele>
        <time>2023-11-22T14:49:21Z</time>
      </trkpt>
      <trkpt lat="49.13461" lon="0.1485">
        <ele>176.6</ele>
        <time>2023-11-22T14:49:22Z</time>
      </trkpt>
      <trkpt lat="49.13465" lon="0.14851">
        <ele>176.7</ele>
        <time>2023-11-22T14:49:23Z</time>
      </trkpt>
      <trkpt lat="49.13468" lon="0.14851">
        <ele>176.8</ele>
        <time>2023-11-22T14:49:24Z</time>
      </trkpt>
      <trkpt lat="49.13471" lon="0.14851">
        <ele>176.9</ele>
        <time>2023-11-22T14:49:25Z</time>
      </trkpt>
      <trkpt lat="49.13474" lon="0.14851">
        <ele>177</ele>
        <time>2023-11-22T14:49:26Z</time>
      </trkpt>
      <trkpt lat="49.13478" lon="0.14851">
        <ele>177.2</ele>
        <time>2023-11-22T14:49:27Z</time>
      </trkpt>
      <trkpt lat="49.13479" lon="0.14851">
        <ele>177.3</ele>
        <time>2023-11-22T14:49:28Z</time>
      </trkpt>
      <trkpt lat="49.13481" lon="0.14851">
        <ele>177.4</ele>
        <time>2023-11-22T14:49:29Z</time>
      </trkpt>
      <trkpt lat="49.13482" lon="0.14851">
        <ele>177.5</ele>
        <time>2023-11-22T14:49:30Z</time>
      </trkpt>
      <trkpt lat="49.13484" lon="0.14851">
        <ele>177.5</ele>
        <time>2023-11-22T14:49:31Z</time>
      </trkpt>
      <trkpt lat="49.13485" lon="0.14852">
        <ele>177.6</ele>
        <time>2023-11-22T14:49:32Z</time>
      </trkpt>
      <trkpt lat="49.13485" lon="0.14852">
        <ele>177.6</ele>
        <time>2023-11-22T14:49:33Z</time>
      </trkpt>
      <trkpt lat="49.13486" lon="0.14852">
        <ele>177.7</ele>
        <time>2023-11-22T14:49:34Z</time>
      </trkpt>
      <trkpt lat="49.13487" lon="0.14852">
        <ele>177.7</ele>
        <time>2023-11-22T14:49:35Z</time>
      </trkpt>
      <trkpt lat="49.13487" lon="0.14851">
        <ele>177.7</ele>
        <time>2023-11-22T14:49:36Z</time>
      </trkpt>
      <trkpt lat="49.13488" lon="0.14851">
        <ele>177.8</ele>
        <time>2023-11-22T14:49:37Z</time>
      </trkpt>
      <trkpt lat="49.13489" lon="0.14851">
        <ele>177.8</ele>
        <time>2023-11-22T14:49:38Z</time>
      </trkpt>
      <trkpt lat="49.13489" lon="0.14851">
        <ele>177.8</ele>
        <time>2023-11-22T14:49:39Z</time>
      </trkpt>
      <trkpt lat="49.1349" lon="0.14851">
        <ele>177.9</ele>
        <time>2023-11-22T14:49:40Z</time>
      </trkpt>
      <trkpt lat="49.1349" lon="0.14851">
        <ele>177.9</ele>
        <time>2023-11-22T14:49:41Z</time>
      </trkpt>
      <trkpt lat="49.13491" lon="0.1485">
        <ele>177.9</ele>
        <time>2023-11-22T14:49:42Z</time>
      </trkpt>
      <trkpt lat="49.13492" lon="0.1485">
        <ele>177.9</ele>
        <time>2023-11-22T14:49:43Z</time>
      </trkpt>
      <trkpt lat="49.13492" lon="0.1485">
        <ele>178</ele>
        <time>2023-11-22T14:49:44Z</time>
      </trkpt>
      <trkpt lat="49.13493" lon="0.1485">
        <ele>178</ele>
        <time>2023-11-22T14:50:05Z</time>
      </trkpt>
      <trkpt lat="49.13493" lon="0.1485">
        <ele>178</ele>
        <time>2023-11-22T14:50:06Z</time>
      </trkpt>
      <trkpt lat="49.13494" lon="0.1485">
        <ele>178.1</ele>
        <time>2023-11-22T14:50:07Z</time>
      </trkpt>
      <trkpt lat="49.13496" lon="0.14846">
        <ele>178</ele>
        <time>2023-11-22T14:50:08Z</time>
      </trkpt>
      <trkpt lat="49.13499" lon="0.1484">
        <ele>178</ele>
        <time>2023-11-22T14:50:09Z</time>
      </trkpt>
      <trkpt lat="49.13499" lon="0.14834">
        <ele>177.9</ele>
        <time>2023-11-22T14:50:10Z</time>
      </trkpt>
      <trkpt lat="49.135" lon="0.14827">
        <ele>177.8</ele>
        <time>2023-11-22T14:50:11Z</time>
      </trkpt>
      <trkpt lat="49.13501" lon="0.1482">
        <ele>177.8</ele>
        <time>2023-11-22T14:50:12Z</time>
      </trkpt>
      <trkpt lat="49.13501" lon="0.14812">
        <ele>177.7</ele>
        <time>2023-11-22T14:50:13Z</time>
      </trkpt>
      <trkpt lat="49.13501" lon="0.14804">
        <ele>177.6</ele>
        <time>2023-11-22T14:50:14Z</time>
      </trkpt>
      <trkpt lat="49.13502" lon="0.14795">
        <ele>177.6</ele>
        <time>2023-11-22T14:50:15Z</time>
      </trkpt>
      <trkpt lat="49.13502" lon="0.14786">
        <ele>177.5</ele>
        <time>2023-11-22T14:50:16Z</time>
      </trkpt>
      <trkpt lat="49.13502" lon="0.14778">
        <ele>177.5</ele>
        <time>2023-11-22T14:50:17Z</time>
      </trkpt>
      <trkpt lat="49.13503" lon="0.14769">
        <ele>177.4</ele>
        <time>2023-11-22T14:50:18Z</time>
      </trkpt>
      <trkpt lat="49.13503" lon="0.1476">
        <ele>177.4</ele>
        <time>2023-11-22T14:50:19Z</time>
      </trkpt>
      <trkpt lat="49.13504" lon="0.14751">
        <ele>177.4</ele>
        <time>2023-11-22T14:50:20Z</time>
      </trkpt>
      <trkpt lat="49.13504" lon="0.14741">
        <ele>177.4</ele>
        <time>2023-11-22T14:50:21Z</time>
      </trkpt>
      <trkpt lat="49.13505" lon="0.14731">
        <ele>177.4</ele>
        <time>2023-11-22T14:50:22Z</time>
      </trkpt>
      <trkpt lat="49.13505" lon="0.1472">
        <ele>177.4</ele>
        <time>2023-11-22T14:50:23Z</time>
      </trkpt>
      <trkpt lat="49.13506" lon="0.14709">
        <ele>177.4</ele>
        <time>2023-11-22T14:50:24Z</time>
      </trkpt>
      <trkpt lat="49.13507" lon="0.14696">
        <ele>177.4</ele>
        <time>2023-11-22T14:50:25Z</time>
      </trkpt>
      <trkpt lat="49.13507" lon="0.14684">
        <ele>177.4</ele>
        <time>2023-11-22T14:50:26Z</time>
      </trkpt>
      <trkpt lat="49.13508" lon="0.14672">
        <ele>177.4</ele>
        <time>2023-11-22T14:50:27Z</time>
      </trkpt>
      <trkpt lat="49.13508" lon="0.1466">
        <ele>177.5</ele>
        <time>2023-11-22T14:50:28Z</time>
      </trkpt>
      <trkpt lat="49.13509" lon="0.14647">
        <ele>177.6</ele>
        <time>2023-11-22T14:50:29Z</time>
      </trkpt>
      <trkpt lat="49.13509" lon="0.14635">
        <ele>177.7</ele>
        <time>2023-11-22T14:50:30Z</time>
      </trkpt>
      <trkpt lat="49.1351" lon="0.14622">
        <ele>177.7</ele>
        <time>2023-11-22T14:50:31Z</time>
      </trkpt>
      <trkpt lat="49.13511" lon="0.14609">
        <ele>177.7</ele>
        <time>2023-11-22T14:50:32Z</time>
      </trkpt>
      <trkpt lat="49.13512" lon="0.14597">
        <ele>177.6</ele>
        <time>2023-11-22T14:50:33Z</time>
      </trkpt>
      <trkpt lat="49.13512" lon="0.14584">
        <ele>177.6</ele>
        <time>2023-11-22T14:50:34Z</time>
      </trkpt>
      <trkpt lat="49.13513" lon="0.14571">
        <ele>177.5</ele>
        <time>2023-11-22T14:50:35Z</time>
      </trkpt>
      <trkpt lat="49.13514" lon="0.14558">
        <ele>177.4</ele>
        <time>2023-11-22T14:50:36Z</time>
      </trkpt>
      <trkpt lat="49.13514" lon="0.14546">
        <ele>177.3</ele>
        <time>2023-11-22T14:50:37Z</time>
      </trkpt>
      <trkpt lat="49.13515" lon="0.14533">
        <ele>177.2</ele>
        <time>2023-11-22T14:50:38Z</time>
      </trkpt>
      <trkpt lat="49.13516" lon="0.1452">
        <ele>177.1</ele>
        <time>2023-11-22T14:50:39Z</time>
      </trkpt>
      <trkpt lat="49.13516" lon="0.14506">
        <ele>177</ele>
        <time>2023-11-22T14:50:40Z</time>
      </trkpt>
      <trkpt lat="49.13517" lon="0.14493">
        <ele>176.9</ele>
        <time>2023-11-22T14:50:41Z</time>
      </trkpt>
      <trkpt lat="49.13518" lon="0.14479">
        <ele>176.8</ele>
        <time>2023-11-22T14:50:42Z</time>
      </trkpt>
      <trkpt lat="49.13518" lon="0.14465">
        <ele>176.8</ele>
        <time>2023-11-22T14:50:43Z</time>
      </trkpt>
      <trkpt lat="49.13519" lon="0.14452">
        <ele>176.7</ele>
        <time>2023-11-22T14:50:44Z</time>
      </trkpt>
      <trkpt lat="49.13519" lon="0.14438">
        <ele>176.6</ele>
        <time>2023-11-22T14:50:45Z</time>
      </trkpt>
      <trkpt lat="49.1352" lon="0.14424">
        <ele>176.5</ele>
        <time>2023-11-22T14:50:46Z</time>
      </trkpt>
      <trkpt lat="49.1352" lon="0.14411">
        <ele>176.4</ele>
        <time>2023-11-22T14:50:47Z</time>
      </trkpt>
      <trkpt lat="49.13521" lon="0.14398">
        <ele>176.3</ele>
        <time>2023-11-22T14:50:48Z</time>
      </trkpt>
      <trkpt lat="49.13521" lon="0.14385">
        <ele>176.2</ele>
        <time>2023-11-22T14:50:49Z</time>
      </trkpt>
      <trkpt lat="49.13522" lon="0.14372">
        <ele>176.1</ele>
        <time>2023-11-22T14:50:50Z</time>
      </trkpt>
      <trkpt lat="49.13522" lon="0.1436">
        <ele>176</ele>
        <time>2023-11-22T14:50:51Z</time>
      </trkpt>
      <trkpt lat="49.13523" lon="0.14348">
        <ele>175.9</ele>
        <time>2023-11-22T14:50:52Z</time>
      </trkpt>
      <trkpt lat="49.13524" lon="0.14337">
        <ele>175.8</ele>
        <time>2023-11-22T14:50:53Z</time>
      </trkpt>
      <trkpt lat="49.13525" lon="0.14325">
        <ele>175.8</ele>
        <time>2023-11-22T14:50:54Z</time>
      </trkpt>
      <trkpt lat="49.13526" lon="0.14314">
        <ele>175.7</ele>
        <time>2023-11-22T14:50:55Z</time>
      </trkpt>
      <trkpt lat="49.13526" lon="0.14302">
        <ele>175.6</ele>
        <time>2023-11-22T14:50:56Z</time>
      </trkpt>
      <trkpt lat="49.13527" lon="0.14291">
        <ele>175.6</ele>
        <time>2023-11-22T14:50:57Z</time>
      </trkpt>
      <trkpt lat="49.13527" lon="0.14279">
        <ele>175.5</ele>
        <time>2023-11-22T14:50:58Z</time>
      </trkpt>
      <trkpt lat="49.13528" lon="0.14267">
        <ele>175.4</ele>
        <time>2023-11-22T14:50:59Z</time>
      </trkpt>
      <trkpt lat="49.13528" lon="0.14254">
        <ele>175.3</ele>
        <time>2023-11-22T14:51:00Z</time>
      </trkpt>
      <trkpt lat="49.13528" lon="0.14241">
        <ele>175.1</ele>
        <time>2023-11-22T14:51:01Z</time>
      </trkpt>
      <trkpt lat="49.13529" lon="0.14228">
        <ele>175</ele>
        <time>2023-11-22T14:51:02Z</time>
      </trkpt>
      <trkpt lat="49.1353" lon="0.14215">
        <ele>174.8</ele>
        <time>2023-11-22T14:51:03Z</time>
      </trkpt>
      <trkpt lat="49.1353" lon="0.14201">
        <ele>174.6</ele>
        <time>2023-11-22T14:51:04Z</time>
      </trkpt>
      <trkpt lat="49.13531" lon="0.14187">
        <ele>174.4</ele>
        <time>2023-11-22T14:51:05Z</time>
      </trkpt>
      <trkpt lat="49.13532" lon="0.14173">
        <ele>174.2</ele>
        <time>2023-11-22T14:51:06Z</time>
      </trkpt>
      <trkpt lat="49.13532" lon="0.14159">
        <ele>173.9</ele>
        <time>2023-11-22T14:51:07Z</time>
      </trkpt>
      <trkpt lat="49.13533" lon="0.14145">
        <ele>173.7</ele>
        <time>2023-11-22T14:51:08Z</time>
      </trkpt>
      <trkpt lat="49.13534" lon="0.1413">
        <ele>173.4</ele>
        <time>2023-11-22T14:51:09Z</time>
      </trkpt>
      <trkpt lat="49.13534" lon="0.14116">
        <ele>173.1</ele>
        <time>2023-11-22T14:51:10Z</time>
      </trkpt>
      <trkpt lat="49.13535" lon="0.14101">
        <ele>172.8</ele>
        <time>2023-11-22T14:51:11Z</time>
      </trkpt>
      <trkpt lat="49.13536" lon="0.14087">
        <ele>172.5</ele>
        <time>2023-11-22T14:51:12Z</time>
      </trkpt>
      <trkpt lat="49.13536" lon="0.14072">
        <ele>172.2</ele>
        <time>2023-11-22T14:51:13Z</time>
      </trkpt>
      <trkpt lat="49.13537" lon="0.14057">
        <ele>171.8</ele>
        <time>2023-11-22T14:51:14Z</time>
      </trkpt>
      <trkpt lat="49.13538" lon="0.14042">
        <ele>171.5</ele>
        <time>2023-11-22T14:51:15Z</time>
      </trkpt>
      <trkpt lat="49.13538" lon="0.14027">
        <ele>171.1</ele>
        <time>2023-11-22T14:51:16Z</time>
      </trkpt>
      <trkpt lat="49.13539" lon="0.14011">
        <ele>170.8</ele>
        <time>2023-11-22T14:51:17Z</time>
      </trkpt>
      <trkpt lat="49.13539" lon="0.13995">
        <ele>170.5</ele>
        <time>2023-11-22T14:51:18Z</time>
      </trkpt>
      <trkpt lat="49.1354" lon="0.1398">
        <ele>170.2</ele>
        <time>2023-11-22T14:51:19Z</time>
      </trkpt>
      <trkpt lat="49.13541" lon="0.13964">
        <ele>169.9</ele>
        <time>2023-11-22T14:51:20Z</time>
      </trkpt>
      <trkpt lat="49.13541" lon="0.13948">
        <ele>169.8</ele>
        <time>2023-11-22T14:51:21Z</time>
      </trkpt>
      <trkpt lat="49.13542" lon="0.13933">
        <ele>169.6</ele>
        <time>2023-11-22T14:51:22Z</time>
      </trkpt>
      <trkpt lat="49.13543" lon="0.13918">
        <ele>169.5</ele>
        <time>2023-11-22T14:51:23Z</time>
      </trkpt>
      <trkpt lat="49.13544" lon="0.13903">
        <ele>169.4</ele>
        <time>2023-11-22T14:51:24Z</time>
      </trkpt>
      <trkpt lat="49.13545" lon="0.13889">
        <ele>169.4</ele>
        <time>2023-11-22T14:51:25Z</time>
      </trkpt>
      <trkpt lat="49.13545" lon="0.13875">
        <ele>169.3</ele>
        <time>2023-11-22T14:51:26Z</time>
      </trkpt>
      <trkpt lat="49.13546" lon="0.13861">
        <ele>169.4</ele>
        <time>2023-11-22T14:51:27Z</time>
      </trkpt>
      <trkpt lat="49.13547" lon="0.13847">
        <ele>169.4</ele>
        <time>2023-11-22T14:51:28Z</time>
      </trkpt>
      <trkpt lat="49.13548" lon="0.13834">
        <ele>169.5</ele>
        <time>2023-11-22T14:51:29Z</time>
      </trkpt>
      <trkpt lat="49.13548" lon="0.13821">
        <ele>169.5</ele>
        <time>2023-11-22T14:51:30Z</time>
      </trkpt>
      <trkpt lat="49.13549" lon="0.13807">
        <ele>169.6</ele>
        <time>2023-11-22T14:51:31Z</time>
      </trkpt>
      <trkpt lat="49.13549" lon="0.13794">
        <ele>169.7</ele>
        <time>2023-11-22T14:51:32Z</time>
      </trkpt>
      <trkpt lat="49.1355" lon="0.13781">
        <ele>169.8</ele>
        <time>2023-11-22T14:51:33Z</time>
      </trkpt>
      <trkpt lat="49.13551" lon="0.13768">
        <ele>169.9</ele>
        <time>2023-11-22T14:51:34Z</time>
      </trkpt>
      <trkpt lat="49.13551" lon="0.13755">
        <ele>170</ele>
        <time>2023-11-22T14:51:35Z</time>
      </trkpt>
      <trkpt lat="49.13552" lon="0.13743">
        <ele>170</ele>
        <time>2023-11-22T14:51:36Z</time>
      </trkpt>
      <trkpt lat="49.13552" lon="0.13731">
        <ele>170.1</ele>
        <time>2023-11-22T14:51:37Z</time>
      </trkpt>
      <trkpt lat="49.13553" lon="0.13718">
        <ele>170.2</ele>
        <time>2023-11-22T14:51:38Z</time>
      </trkpt>
      <trkpt lat="49.13553" lon="0.13707">
        <ele>170.3</ele>
        <time>2023-11-22T14:51:39Z</time>
      </trkpt>
      <trkpt lat="49.13554" lon="0.13695">
        <ele>170.4</ele>
        <time>2023-11-22T14:51:40Z</time>
      </trkpt>
      <trkpt lat="49.13554" lon="0.13683">
        <ele>170.5</ele>
        <time>2023-11-22T14:51:41Z</time>
      </trkpt>
      <trkpt lat="49.13555" lon="0.13672">
        <ele>170.7</ele>
        <time>2023-11-22T14:51:42Z</time>
      </trkpt>
      <trkpt lat="49.13556" lon="0.1366">
        <ele>170.8</ele>
        <time>2023-11-22T14:51:43Z</time>
      </trkpt>
      <trkpt lat="49.13556" lon="0.13649">
        <ele>170.8</ele>
        <time>2023-11-22T14:51:44Z</time>
      </trkpt>
      <trkpt lat="49.13557" lon="0.13638">
        <ele>170.9</ele>
        <time>2023-11-22T14:51:45Z</time>
      </trkpt>
      <trkpt lat="49.13557" lon="0.13626">
        <ele>171</ele>
        <time>2023-11-22T14:51:46Z</time>
      </trkpt>
      <trkpt lat="49.13558" lon="0.13615">
        <ele>171.1</ele>
        <time>2023-11-22T14:51:47Z</time>
      </trkpt>
      <trkpt lat="49.13558" lon="0.13603">
        <ele>171.1</ele>
        <time>2023-11-22T14:51:48Z</time>
      </trkpt>
      <trkpt lat="49.13559" lon="0.13592">
        <ele>171.1</ele>
        <time>2023-11-22T14:51:49Z</time>
      </trkpt>
      <trkpt lat="49.1356" lon="0.1358">
        <ele>171.2</ele>
        <time>2023-11-22T14:51:50Z</time>
      </trkpt>
      <trkpt lat="49.1356" lon="0.13569">
        <ele>171.2</ele>
        <time>2023-11-22T14:51:51Z</time>
      </trkpt>
      <trkpt lat="49.13561" lon="0.13557">
        <ele>171.2</ele>
        <time>2023-11-22T14:51:52Z</time>
      </trkpt>
      <trkpt lat="49.13562" lon="0.13544">
        <ele>171.1</ele>
        <time>2023-11-22T14:51:53Z</time>
      </trkpt>
      <trkpt lat="49.13562" lon="0.13532">
        <ele>171.1</ele>
        <time>2023-11-22T14:51:54Z</time>
      </trkpt>
      <trkpt lat="49.13563" lon="0.1352">
        <ele>171.1</ele>
        <time>2023-11-22T14:51:55Z</time>
      </trkpt>
      <trkpt lat="49.13564" lon="0.13508">
        <ele>171</ele>
        <time>2023-11-22T14:51:56Z</time>
      </trkpt>
      <trkpt lat="49.13565" lon="0.13496">
        <ele>170.9</ele>
        <time>2023-11-22T14:51:57Z</time>
      </trkpt>
      <trkpt lat="49.13566" lon="0.13483">
        <ele>170.8</ele>
        <time>2023-11-22T14:51:58Z</time>
      </trkpt>
      <trkpt lat="49.13568" lon="0.1347">
        <ele>170.7</ele>
        <time>2023-11-22T14:51:59Z</time>
      </trkpt>
      <trkpt lat="49.13569" lon="0.13458">
        <ele>170.5</ele>
        <time>2023-11-22T14:52:00Z</time>
      </trkpt>
      <trkpt lat="49.13571" lon="0.13444">
        <ele>170.4</ele>
        <time>2023-11-22T14:52:01Z</time>
      </trkpt>
      <trkpt lat="49.13572" lon="0.13431">
        <ele>170.2</ele>
        <time>2023-11-22T14:52:02Z</time>
      </trkpt>
      <trkpt lat="49.13573" lon="0.13418">
        <ele>170.1</ele>
        <time>2023-11-22T14:52:03Z</time>
      </trkpt>
      <trkpt lat="49.13575" lon="0.13405">
        <ele>169.9</ele>
        <time>2023-11-22T14:52:04Z</time>
      </trkpt>
      <trkpt lat="49.13577" lon="0.13392">
        <ele>169.7</ele>
        <time>2023-11-22T14:52:05Z</time>
      </trkpt>
      <trkpt lat="49.13579" lon="0.13378">
        <ele>169.5</ele>
        <time>2023-11-22T14:52:06Z</time>
      </trkpt>
      <trkpt lat="49.13581" lon="0.13365">
        <ele>169.4</ele>
        <time>2023-11-22T14:52:07Z</time>
      </trkpt>
      <trkpt lat="49.13583" lon="0.13351">
        <ele>169.2</ele>
        <time>2023-11-22T14:52:08Z</time>
      </trkpt>
      <trkpt lat="49.13586" lon="0.13337">
        <ele>169.1</ele>
        <time>2023-11-22T14:52:09Z</time>
      </trkpt>
      <trkpt lat="49.13588" lon="0.13323">
        <ele>169</ele>
        <time>2023-11-22T14:52:10Z</time>
      </trkpt>
      <trkpt lat="49.13591" lon="0.13308">
        <ele>169</ele>
        <time>2023-11-22T14:52:11Z</time>
      </trkpt>
      <trkpt lat="49.13593" lon="0.13295">
        <ele>168.9</ele>
        <time>2023-11-22T14:52:12Z</time>
      </trkpt>
      <trkpt lat="49.13596" lon="0.13281">
        <ele>168.9</ele>
        <time>2023-11-22T14:52:13Z</time>
      </trkpt>
      <trkpt lat="49.13599" lon="0.13267">
        <ele>168.9</ele>
        <time>2023-11-22T14:52:14Z</time>
      </trkpt>
      <trkpt lat="49.13602" lon="0.13253">
        <ele>169</ele>
        <time>2023-11-22T14:52:15Z</time>
      </trkpt>
      <trkpt lat="49.13606" lon="0.13239">
        <ele>169</ele>
        <time>2023-11-22T14:52:16Z</time>
      </trkpt>
      <trkpt lat="49.13609" lon="0.13226">
        <ele>169.1</ele>
        <time>2023-11-22T14:52:17Z</time>
      </trkpt>
      <trkpt lat="49.13612" lon="0.13212">
        <ele>169.1</ele>
        <time>2023-11-22T14:52:18Z</time>
      </trkpt>
      <trkpt lat="49.13615" lon="0.13199">
        <ele>169.1</ele>
        <time>2023-11-22T14:52:19Z</time>
      </trkpt>
      <trkpt lat="49.13618" lon="0.13186">
        <ele>169.1</ele>
        <time>2023-11-22T14:52:20Z</time>
      </trkpt>
      <trkpt lat="49.13621" lon="0.13173">
        <ele>169.1</ele>
        <time>2023-11-22T14:52:21Z</time>
      </trkpt>
      <trkpt lat="49.13624" lon="0.13161">
        <ele>169.2</ele>
        <time>2023-11-22T14:52:22Z</time>
      </trkpt>
      <trkpt lat="49.13628" lon="0.13148">
        <ele>169.2</ele>
        <time>2023-11-22T14:52:23Z</time>
      </trkpt>
      <trkpt lat="49.13632" lon="0.13137">
        <ele>169.2</ele>
        <time>2023-11-22T14:52:24Z</time>
      </trkpt>
      <trkpt lat="49.13635" lon="0.13125">
        <ele>169.2</ele>
        <time>2023-11-22T14:52:25Z</time>
      </trkpt>
      <trkpt lat="49.13638" lon="0.13114">
        <ele>169.2</ele>
        <time>2023-11-22T14:52:26Z</time>
      </trkpt>
      <trkpt lat="49.13641" lon="0.13102">
        <ele>169.2</ele>
        <time>2023-11-22T14:52:27Z</time>
      </trkpt>
      <trkpt lat="49.13644" lon="0.13091">
        <ele>169.2</ele>
        <time>2023-11-22T14:52:28Z</time>
      </trkpt>
      <trkpt lat="49.13646" lon="0.1308">
        <ele>169.2</ele>
        <time>2023-11-22T14:52:29Z</time>
      </trkpt>
      <trkpt lat="49.13649" lon="0.13069">
        <ele>169.1</ele>
        <time>2023-11-22T14:52:30Z</time>
      </trkpt>
      <trkpt lat="49.13651" lon="0.13058">
        <ele>169.1</ele>
        <time>2023-11-22T14:52:31Z</time>
      </trkpt>
      <trkpt lat="49.13653" lon="0.13047">
        <ele>169.1</ele>
        <time>2023-11-22T14:52:32Z</time>
      </trkpt>
      <trkpt lat="49.13656" lon="0.13037">
        <ele>169</ele>
        <time>2023-11-22T14:52:33Z</time>
      </trkpt>
      <trkpt lat="49.13658" lon="0.13026">
        <ele>169</ele>
        <time>2023-11-22T14:52:34Z</time>
      </trkpt>
      <trkpt lat="49.13659" lon="0.13016">
        <ele>168.9</ele>
        <time>2023-11-22T14:52:35Z</time>
      </trkpt>
      <trkpt lat="49.13661" lon="0.13005">
        <ele>168.8</ele>
        <time>2023-11-22T14:52:36Z</time>
      </trkpt>
      <trkpt lat="49.13662" lon="0.12993">
        <ele>168.7</ele>
        <time>2023-11-22T14:52:37Z</time>
      </trkpt>
      <trkpt lat="49.13663" lon="0.12982">
        <ele>168.7</ele>
        <time>2023-11-22T14:52:38Z</time>
      </trkpt>
      <trkpt lat="49.13665" lon="0.12971">
        <ele>168.5</ele>
        <time>2023-11-22T14:52:39Z</time>
      </trkpt>
      <trkpt lat="49.13666" lon="0.1296">
        <ele>168.4</ele>
        <time>2023-11-22T14:52:40Z</time>
      </trkpt>
      <trkpt lat="49.13668" lon="0.12948">
        <ele>168.2</ele>
        <time>2023-11-22T14:52:41Z</time>
      </trkpt>
      <trkpt lat="49.13669" lon="0.12937">
        <ele>168</ele>
        <time>2023-11-22T14:52:42Z</time>
      </trkpt>
      <trkpt lat="49.1367" lon="0.12926">
        <ele>167.8</ele>
        <time>2023-11-22T14:52:43Z</time>
      </trkpt>
      <trkpt lat="49.13671" lon="0.12915">
        <ele>167.7</ele>
        <time>2023-11-22T14:52:44Z</time>
      </trkpt>
      <trkpt lat="49.13672" lon="0.12905">
        <ele>167.5</ele>
        <time>2023-11-22T14:52:45Z</time>
      </trkpt>
      <trkpt lat="49.13673" lon="0.12894">
        <ele>167.3</ele>
        <time>2023-11-22T14:52:46Z</time>
      </trkpt>
      <trkpt lat="49.13674" lon="0.12884">
        <ele>167.3</ele>
        <time>2023-11-22T14:52:47Z</time>
      </trkpt>
      <trkpt lat="49.13676" lon="0.12874">
        <ele>167.2</ele>
        <time>2023-11-22T14:52:48Z</time>
      </trkpt>
      <trkpt lat="49.13677" lon="0.12864">
        <ele>167.2</ele>
        <time>2023-11-22T14:52:49Z</time>
      </trkpt>
      <trkpt lat="49.1368" lon="0.12855">
        <ele>167.1</ele>
        <time>2023-11-22T14:52:50Z</time>
      </trkpt>
      <trkpt lat="49.13685" lon="0.12847">
        <ele>167</ele>
        <time>2023-11-22T14:52:51Z</time>
      </trkpt>
      <trkpt lat="49.13692" lon="0.12842">
        <ele>166.9</ele>
        <time>2023-11-22T14:52:52Z</time>
      </trkpt>
      <trkpt lat="49.13699" lon="0.12838">
        <ele>166.6</ele>
        <time>2023-11-22T14:52:53Z</time>
      </trkpt>
      <trkpt lat="49.13707" lon="0.12834">
        <ele>166.4</ele>
        <time>2023-11-22T14:52:54Z</time>
      </trkpt>
      <trkpt lat="49.13715" lon="0.12831">
        <ele>166.3</ele>
        <time>2023-11-22T14:52:55Z</time>
      </trkpt>
      <trkpt lat="49.13723" lon="0.12827">
        <ele>166.2</ele>
        <time>2023-11-22T14:52:56Z</time>
      </trkpt>
      <trkpt lat="49.1373" lon="0.12822">
        <ele>166.2</ele>
        <time>2023-11-22T14:52:57Z</time>
      </trkpt>
      <trkpt lat="49.13738" lon="0.12818">
        <ele>166.2</ele>
        <time>2023-11-22T14:52:58Z</time>
      </trkpt>
      <trkpt lat="49.13746" lon="0.12814">
        <ele>166.3</ele>
        <time>2023-11-22T14:52:59Z</time>
      </trkpt>
      <trkpt lat="49.13753" lon="0.1281">
        <ele>166.4</ele>
        <time>2023-11-22T14:53:00Z</time>
      </trkpt>
      <trkpt lat="49.13761" lon="0.12805">
        <ele>166.6</ele>
        <time>2023-11-22T14:53:01Z</time>
      </trkpt>
      <trkpt lat="49.13769" lon="0.12801">
        <ele>166.7</ele>
        <time>2023-11-22T14:53:02Z</time>
      </trkpt>
      <trkpt lat="49.13777" lon="0.12797">
        <ele>166.9</ele>
        <time>2023-11-22T14:53:03Z</time>
      </trkpt>
      <trkpt lat="49.13785" lon="0.12792">
        <ele>167.1</ele>
        <time>2023-11-22T14:53:04Z</time>
      </trkpt>
      <trkpt lat="49.13793" lon="0.12787">
        <ele>167.4</ele>
        <time>2023-11-22T14:53:05Z</time>
      </trkpt>
      <trkpt lat="49.13801" lon="0.12782">
        <ele>167.7</ele>
        <time>2023-11-22T14:53:06Z</time>
      </trkpt>
      <trkpt lat="49.1381" lon="0.12777">
        <ele>168</ele>
        <time>2023-11-22T14:53:07Z</time>
      </trkpt>
      <trkpt lat="49.13819" lon="0.12772">
        <ele>168.2</ele>
        <time>2023-11-22T14:53:08Z</time>
      </trkpt>
      <trkpt lat="49.13827" lon="0.12767">
        <ele>168.4</ele>
        <time>2023-11-22T14:53:09Z</time>
      </trkpt>
      <trkpt lat="49.13835" lon="0.12761">
        <ele>168.6</ele>
        <time>2023-11-22T14:53:10Z</time>
      </trkpt>
      <trkpt lat="49.13844" lon="0.12757">
        <ele>168.8</ele>
        <time>2023-11-22T14:53:11Z</time>
      </trkpt>
      <trkpt lat="49.13852" lon="0.12752">
        <ele>169</ele>
        <time>2023-11-22T14:53:12Z</time>
      </trkpt>
      <trkpt lat="49.1386" lon="0.12747">
        <ele>169.3</ele>
        <time>2023-11-22T14:53:13Z</time>
      </trkpt>
      <trkpt lat="49.13868" lon="0.12742">
        <ele>169.5</ele>
        <time>2023-11-22T14:53:14Z</time>
      </trkpt>
      <trkpt lat="49.13877" lon="0.12738">
        <ele>169.7</ele>
        <time>2023-11-22T14:53:15Z</time>
      </trkpt>
      <trkpt lat="49.13885" lon="0.12733">
        <ele>169.9</ele>
        <time>2023-11-22T14:53:16Z</time>
      </trkpt>
      <trkpt lat="49.13892" lon="0.12728">
        <ele>170.1</ele>
        <time>2023-11-22T14:53:17Z</time>
      </trkpt>
      <trkpt lat="49.139" lon="0.12724">
        <ele>170.3</ele>
        <time>2023-11-22T14:53:18Z</time>
      </trkpt>
      <trkpt lat="49.13907" lon="0.1272">
        <ele>170.4</ele>
        <time>2023-11-22T14:53:19Z</time>
      </trkpt>
      <trkpt lat="49.13914" lon="0.12715">
        <ele>170.6</ele>
        <time>2023-11-22T14:53:20Z</time>
      </trkpt>
      <trkpt lat="49.13921" lon="0.12711">
        <ele>170.7</ele>
        <time>2023-11-22T14:53:21Z</time>
      </trkpt>
      <trkpt lat="49.13928" lon="0.12707">
        <ele>170.8</ele>
        <time>2023-11-22T14:53:22Z</time>
      </trkpt>
      <trkpt lat="49.13934" lon="0.12703">
        <ele>171</ele>
        <time>2023-11-22T14:53:23Z</time>
      </trkpt>
      <trkpt lat="49.13941" lon="0.12699">
        <ele>171.1</ele>
        <time>2023-11-22T14:53:24Z</time>
      </trkpt>
      <trkpt lat="49.13948" lon="0.12695">
        <ele>171.2</ele>
        <time>2023-11-22T14:53:25Z</time>
      </trkpt>
      <trkpt lat="49.13955" lon="0.12691">
        <ele>171.3</ele>
        <time>2023-11-22T14:53:26Z</time>
      </trkpt>
      <trkpt lat="49.13963" lon="0.12687">
        <ele>171.3</ele>
        <time>2023-11-22T14:53:27Z</time>
      </trkpt>
      <trkpt lat="49.1397" lon="0.12683">
        <ele>171.4</ele>
        <time>2023-11-22T14:53:28Z</time>
      </trkpt>
      <trkpt lat="49.13977" lon="0.12679">
        <ele>171.4</ele>
        <time>2023-11-22T14:53:29Z</time>
      </trkpt>
      <trkpt lat="49.13984" lon="0.12674">
        <ele>171.5</ele>
        <time>2023-11-22T14:53:30Z</time>
      </trkpt>
      <trkpt lat="49.13991" lon="0.1267">
        <ele>171.6</ele>
        <time>2023-11-22T14:53:31Z</time>
      </trkpt>
      <trkpt lat="49.13998" lon="0.12665">
        <ele>171.6</ele>
        <time>2023-11-22T14:53:32Z</time>
      </trkpt>
      <trkpt lat="49.14006" lon="0.12662">
        <ele>171.6</ele>
        <time>2023-11-22T14:53:33Z</time>
      </trkpt>
      <trkpt lat="49.14012" lon="0.12658">
        <ele>171.7</ele>
        <time>2023-11-22T14:53:34Z</time>
      </trkpt>
      <trkpt lat="49.14019" lon="0.12654">
        <ele>171.7</ele>
        <time>2023-11-22T14:53:35Z</time>
      </trkpt>
      <trkpt lat="49.14026" lon="0.1265">
        <ele>171.7</ele>
        <time>2023-11-22T14:53:36Z</time>
      </trkpt>
      <trkpt lat="49.14034" lon="0.12646">
        <ele>171.6</ele>
        <time>2023-11-22T14:53:37Z</time>
      </trkpt>
      <trkpt lat="49.14041" lon="0.12642">
        <ele>171.6</ele>
        <time>2023-11-22T14:53:38Z</time>
      </trkpt>
      <trkpt lat="49.14049" lon="0.12638">
        <ele>171.5</ele>
        <time>2023-11-22T14:53:39Z</time>
      </trkpt>
      <trkpt lat="49.14056" lon="0.12633">
        <ele>171.5</ele>
        <time>2023-11-22T14:53:40Z</time>
      </trkpt>
      <trkpt lat="49.14064" lon="0.12629">
        <ele>171.4</ele>
        <time>2023-11-22T14:53:41Z</time>
      </trkpt>
      <trkpt lat="49.14072" lon="0.12624">
        <ele>171.3</ele>
        <time>2023-11-22T14:53:42Z</time>
      </trkpt>
      <trkpt lat="49.1408" lon="0.1262">
        <ele>171.2</ele>
        <time>2023-11-22T14:53:43Z</time>
      </trkpt>
      <trkpt lat="49.14088" lon="0.12615">
        <ele>171.1</ele>
        <time>2023-11-22T14:53:44Z</time>
      </trkpt>
      <trkpt lat="49.14097" lon="0.12611">
        <ele>170.9</ele>
        <time>2023-11-22T14:53:45Z</time>
      </trkpt>
      <trkpt lat="49.14105" lon="0.12606">
        <ele>170.8</ele>
        <time>2023-11-22T14:53:46Z</time>
      </trkpt>
      <trkpt lat="49.14113" lon="0.12601">
        <ele>170.6</ele>
        <time>2023-11-22T14:53:47Z</time>
      </trkpt>
      <trkpt lat="49.14121" lon="0.12596">
        <ele>170.3</ele>
        <time>2023-11-22T14:53:48Z</time>
      </trkpt>
      <trkpt lat="49.14128" lon="0.12591">
        <ele>170.1</ele>
        <time>2023-11-22T14:53:49Z</time>
      </trkpt>
      <trkpt lat="49.14136" lon="0.12587">
        <ele>169.9</ele>
        <time>2023-11-22T14:53:50Z</time>
      </trkpt>
      <trkpt lat="49.14145" lon="0.12582">
        <ele>169.7</ele>
        <time>2023-11-22T14:53:51Z</time>
      </trkpt>
      <trkpt lat="49.14153" lon="0.12578">
        <ele>169.5</ele>
        <time>2023-11-22T14:53:52Z</time>
      </trkpt>
      <trkpt lat="49.14161" lon="0.12574">
        <ele>169.3</ele>
        <time>2023-11-22T14:53:53Z</time>
      </trkpt>
      <trkpt lat="49.1417" lon="0.12569">
        <ele>169</ele>
        <time>2023-11-22T14:53:54Z</time>
      </trkpt>
      <trkpt lat="49.14178" lon="0.12564">
        <ele>168.8</ele>
        <time>2023-11-22T14:53:55Z</time>
      </trkpt>
      <trkpt lat="49.14187" lon="0.12559">
        <ele>168.5</ele>
        <time>2023-11-22T14:53:56Z</time>
      </trkpt>
      <trkpt lat="49.14196" lon="0.12554">
        <ele>168.3</ele>
        <time>2023-11-22T14:53:57Z</time>
      </trkpt>
      <trkpt lat="49.14204" lon="0.12549">
        <ele>168.1</ele>
        <time>2023-11-22T14:53:58Z</time>
      </trkpt>
      <trkpt lat="49.14213" lon="0.12544">
        <ele>167.9</ele>
        <time>2023-11-22T14:53:59Z</time>
      </trkpt>
      <trkpt lat="49.14221" lon="0.12539">
        <ele>167.6</ele>
        <time>2023-11-22T14:54:00Z</time>
      </trkpt>
      <trkpt lat="49.1423" lon="0.12535">
        <ele>167.4</ele>
        <time>2023-11-22T14:54:01Z</time>
      </trkpt>
      <trkpt lat="49.14238" lon="0.12529">
        <ele>167.2</ele>
        <time>2023-11-22T14:54:02Z</time>
      </trkpt>
      <trkpt lat="49.14247" lon="0.12524">
        <ele>167</ele>
        <time>2023-11-22T14:54:03Z</time>
      </trkpt>
      <trkpt lat="49.14255" lon="0.12519">
        <ele>166.7</ele>
        <time>2023-11-22T14:54:04Z</time>
      </trkpt>
      <trkpt lat="49.14264" lon="0.12514">
        <ele>166.5</ele>
        <time>2023-11-22T14:54:05Z</time>
      </trkpt>
      <trkpt lat="49.14272" lon="0.12509">
        <ele>166.2</ele>
        <time>2023-11-22T14:54:06Z</time>
      </trkpt>
      <trkpt lat="49.14281" lon="0.12504">
        <ele>166</ele>
        <time>2023-11-22T14:54:07Z</time>
      </trkpt>
      <trkpt lat="49.1429" lon="0.12499">
        <ele>165.7</ele>
        <time>2023-11-22T14:54:08Z</time>
      </trkpt>
      <trkpt lat="49.14299" lon="0.12494">
        <ele>165.5</ele>
        <time>2023-11-22T14:54:09Z</time>
      </trkpt>
      <trkpt lat="49.14309" lon="0.12489">
        <ele>165.2</ele>
        <time>2023-11-22T14:54:10Z</time>
      </trkpt>
      <trkpt lat="49.14318" lon="0.12483">
        <ele>165</ele>
        <time>2023-11-22T14:54:11Z</time>
      </trkpt>
      <trkpt lat="49.14328" lon="0.12478">
        <ele>164.8</ele>
        <time>2023-11-22T14:54:12Z</time>
      </trkpt>
      <trkpt lat="49.14338" lon="0.12472">
        <ele>164.7</ele>
        <time>2023-11-22T14:54:13Z</time>
      </trkpt>
      <trkpt lat="49.14348" lon="0.12467">
        <ele>164.5</ele>
        <time>2023-11-22T14:54:14Z</time>
      </trkpt>
      <trkpt lat="49.14358" lon="0.12461">
        <ele>164.4</ele>
        <time>2023-11-22T14:54:15Z</time>
      </trkpt>
      <trkpt lat="49.14368" lon="0.12455">
        <ele>164.2</ele>
        <time>2023-11-22T14:54:16Z</time>
      </trkpt>
      <trkpt lat="49.14378" lon="0.1245">
        <ele>164.1</ele>
        <time>2023-11-22T14:54:17Z</time>
      </trkpt>
      <trkpt lat="49.14388" lon="0.12444">
        <ele>164</ele>
        <time>2023-11-22T14:54:18Z</time>
      </trkpt>
      <trkpt lat="49.14398" lon="0.12438">
        <ele>164</ele>
        <time>2023-11-22T14:54:19Z</time>
      </trkpt>
      <trkpt lat="49.14407" lon="0.12432">
        <ele>163.9</ele>
        <time>2023-11-22T14:54:20Z</time>
      </trkpt>
      <trkpt lat="49.14416" lon="0.12427">
        <ele>163.9</ele>
        <time>2023-11-22T14:54:21Z</time>
      </trkpt>
      <trkpt lat="49.14425" lon="0.12421">
        <ele>163.9</ele>
        <time>2023-11-22T14:54:22Z</time>
      </trkpt>
      <trkpt lat="49.14433" lon="0.12417">
        <ele>164</ele>
        <time>2023-11-22T14:54:23Z</time>
      </trkpt>
      <trkpt lat="49.14442" lon="0.12412">
        <ele>164</ele>
        <time>2023-11-22T14:54:24Z</time>
      </trkpt>
      <trkpt lat="49.1445" lon="0.12408">
        <ele>164.1</ele>
        <time>2023-11-22T14:54:25Z</time>
      </trkpt>
      <trkpt lat="49.14459" lon="0.12403">
        <ele>164.2</ele>
        <time>2023-11-22T14:54:26Z</time>
      </trkpt>
      <trkpt lat="49.14468" lon="0.12399">
        <ele>164.1</ele>
        <time>2023-11-22T14:54:27Z</time>
      </trkpt>
      <trkpt lat="49.14477" lon="0.12394">
        <ele>164</ele>
        <time>2023-11-22T14:54:28Z</time>
      </trkpt>
      <trkpt lat="49.14486" lon="0.1239">
        <ele>163.9</ele>
        <time>2023-11-22T14:54:29Z</time>
      </trkpt>
      <trkpt lat="49.14494" lon="0.12385">
        <ele>163.9</ele>
        <time>2023-11-22T14:54:30Z</time>
      </trkpt>
      <trkpt lat="49.14503" lon="0.1238">
        <ele>163.8</ele>
        <time>2023-11-22T14:54:31Z</time>
      </trkpt>
      <trkpt lat="49.14511" lon="0.12375">
        <ele>163.8</ele>
        <time>2023-11-22T14:54:32Z</time>
      </trkpt>
      <trkpt lat="49.14519" lon="0.1237">
        <ele>163.8</ele>
        <time>2023-11-22T14:54:33Z</time>
      </trkpt>
      <trkpt lat="49.14527" lon="0.12366">
        <ele>163.9</ele>
        <time>2023-11-22T14:54:34Z</time>
      </trkpt>
      <trkpt lat="49.14535" lon="0.12361">
        <ele>163.8</ele>
        <time>2023-11-22T14:54:35Z</time>
      </trkpt>
      <trkpt lat="49.14543" lon="0.12357">
        <ele>163.7</ele>
        <time>2023-11-22T14:54:36Z</time>
      </trkpt>
      <trkpt lat="49.1455" lon="0.12352">
        <ele>163.6</ele>
        <time>2023-11-22T14:54:37Z</time>
      </trkpt>
      <trkpt lat="49.14557" lon="0.12348">
        <ele>163.5</ele>
        <time>2023-11-22T14:54:38Z</time>
      </trkpt>
      <trkpt lat="49.14564" lon="0.12344">
        <ele>163.5</ele>
        <time>2023-11-22T14:54:39Z</time>
      </trkpt>
      <trkpt lat="49.14572" lon="0.12339">
        <ele>163.4</ele>
        <time>2023-11-22T14:54:40Z</time>
      </trkpt>
      <trkpt lat="49.1458" lon="0.12335">
        <ele>163.3</ele>
        <time>2023-11-22T14:54:41Z</time>
      </trkpt>
      <trkpt lat="49.14588" lon="0.1233">
        <ele>163.2</ele>
        <time>2023-11-22T14:54:42Z</time>
      </trkpt>
      <trkpt lat="49.14596" lon="0.12325">
        <ele>163.2</ele>
        <time>2023-11-22T14:54:43Z</time>
      </trkpt>
      <trkpt lat="49.14605" lon="0.1232">
        <ele>163.1</ele>
        <time>2023-11-22T14:54:44Z</time>
      </trkpt>
      <trkpt lat="49.14613" lon="0.12315">
        <ele>163</ele>
        <time>2023-11-22T14:54:45Z</time>
      </trkpt>
      <trkpt lat="49.14622" lon="0.1231">
        <ele>162.9</ele>
        <time>2023-11-22T14:54:46Z</time>
      </trkpt>
      <trkpt lat="49.1463" lon="0.12306">
        <ele>162.8</ele>
        <time>2023-11-22T14:54:47Z</time>
      </trkpt>
      <trkpt lat="49.14638" lon="0.12301">
        <ele>162.7</ele>
        <time>2023-11-22T14:54:48Z</time>
      </trkpt>
      <trkpt lat="49.14647" lon="0.12297">
        <ele>162.6</ele>
        <time>2023-11-22T14:54:49Z</time>
      </trkpt>
      <trkpt lat="49.14655" lon="0.12292">
        <ele>162.5</ele>
        <time>2023-11-22T14:54:50Z</time>
      </trkpt>
      <trkpt lat="49.14663" lon="0.12288">
        <ele>162.3</ele>
        <time>2023-11-22T14:54:51Z</time>
      </trkpt>
      <trkpt lat="49.14672" lon="0.12284">
        <ele>162.1</ele>
        <time>2023-11-22T14:54:52Z</time>
      </trkpt>
      <trkpt lat="49.1468" lon="0.12279">
        <ele>161.9</ele>
        <time>2023-11-22T14:54:53Z</time>
      </trkpt>
      <trkpt lat="49.14688" lon="0.12275">
        <ele>161.7</ele>
        <time>2023-11-22T14:54:54Z</time>
      </trkpt>
      <trkpt lat="49.14696" lon="0.12269">
        <ele>161.4</ele>
        <time>2023-11-22T14:54:55Z</time>
      </trkpt>
      <trkpt lat="49.14704" lon="0.12264">
        <ele>161.1</ele>
        <time>2023-11-22T14:54:56Z</time>
      </trkpt>
      <trkpt lat="49.14713" lon="0.12259">
        <ele>160.8</ele>
        <time>2023-11-22T14:54:57Z</time>
      </trkpt>
      <trkpt lat="49.14722" lon="0.12254">
        <ele>160.4</ele>
        <time>2023-11-22T14:54:58Z</time>
      </trkpt>
      <trkpt lat="49.14731" lon="0.12249">
        <ele>160</ele>
        <time>2023-11-22T14:54:59Z</time>
      </trkpt>
      <trkpt lat="49.1474" lon="0.12244">
        <ele>159.6</ele>
        <time>2023-11-22T14:55:00Z</time>
      </trkpt>
      <trkpt lat="49.14749" lon="0.12238">
        <ele>159.2</ele>
        <time>2023-11-22T14:55:01Z</time>
      </trkpt>
      <trkpt lat="49.14758" lon="0.12233">
        <ele>158.8</ele>
        <time>2023-11-22T14:55:02Z</time>
      </trkpt>
      <trkpt lat="49.14767" lon="0.12227">
        <ele>158.4</ele>
        <time>2023-11-22T14:55:03Z</time>
      </trkpt>
      <trkpt lat="49.14776" lon="0.12222">
        <ele>158</ele>
        <time>2023-11-22T14:55:04Z</time>
      </trkpt>
      <trkpt lat="49.14786" lon="0.12216">
        <ele>157.5</ele>
        <time>2023-11-22T14:55:05Z</time>
      </trkpt>
      <trkpt lat="49.14795" lon="0.12209">
        <ele>157.1</ele>
        <time>2023-11-22T14:55:06Z</time>
      </trkpt>
      <trkpt lat="49.14803" lon="0.12202">
        <ele>156.7</ele>
        <time>2023-11-22T14:55:07Z</time>
      </trkpt>
      <trkpt lat="49.14811" lon="0.12193">
        <ele>156.3</ele>
        <time>2023-11-22T14:55:08Z</time>
      </trkpt>
      <trkpt lat="49.14818" lon="0.12183">
        <ele>156</ele>
        <time>2023-11-22T14:55:09Z</time>
      </trkpt>
      <trkpt lat="49.14825" lon="0.12173">
        <ele>155.9</ele>
        <time>2023-11-22T14:55:10Z</time>
      </trkpt>
      <trkpt lat="49.14831" lon="0.12161">
        <ele>155.4</ele>
        <time>2023-11-22T14:55:11Z</time>
      </trkpt>
      <trkpt lat="49.14837" lon="0.12149">
        <ele>154.9</ele>
        <time>2023-11-22T14:55:12Z</time>
      </trkpt>
      <trkpt lat="49.14842" lon="0.12137">
        <ele>154.4</ele>
        <time>2023-11-22T14:55:13Z</time>
      </trkpt>
      <trkpt lat="49.14848" lon="0.12124">
        <ele>153.9</ele>
        <time>2023-11-22T14:55:14Z</time>
      </trkpt>
      <trkpt lat="49.14853" lon="0.1211">
        <ele>153.3</ele>
        <time>2023-11-22T14:55:15Z</time>
      </trkpt>
      <trkpt lat="49.14857" lon="0.12095">
        <ele>152.7</ele>
        <time>2023-11-22T14:55:16Z</time>
      </trkpt>
      <trkpt lat="49.14861" lon="0.12079">
        <ele>152</ele>
        <time>2023-11-22T14:55:17Z</time>
      </trkpt>
      <trkpt lat="49.14864" lon="0.12063">
        <ele>151.4</ele>
        <time>2023-11-22T14:55:18Z</time>
      </trkpt>
      <trkpt lat="49.14868" lon="0.12047">
        <ele>150.7</ele>
        <time>2023-11-22T14:55:19Z</time>
      </trkpt>
      <trkpt lat="49.14871" lon="0.12031">
        <ele>150.1</ele>
        <time>2023-11-22T14:55:20Z</time>
      </trkpt>
      <trkpt lat="49.14875" lon="0.12014">
        <ele>149.5</ele>
        <time>2023-11-22T14:55:21Z</time>
      </trkpt>
      <trkpt lat="49.14879" lon="0.11998">
        <ele>148.8</ele>
        <time>2023-11-22T14:55:22Z</time>
      </trkpt>
      <trkpt lat="49.14882" lon="0.1198">
        <ele>148.1</ele>
        <time>2023-11-22T14:55:23Z</time>
      </trkpt>
      <trkpt lat="49.14886" lon="0.11963">
        <ele>147.5</ele>
        <time>2023-11-22T14:55:24Z</time>
      </trkpt>
      <trkpt lat="49.1489" lon="0.11945">
        <ele>146.8</ele>
        <time>2023-11-22T14:55:25Z</time>
      </trkpt>
      <trkpt lat="49.14894" lon="0.11928">
        <ele>146.1</ele>
        <time>2023-11-22T14:55:26Z</time>
      </trkpt>
      <trkpt lat="49.14898" lon="0.1191">
        <ele>145.4</ele>
        <time>2023-11-22T14:55:27Z</time>
      </trkpt>
      <trkpt lat="49.14902" lon="0.11892">
        <ele>144.8</ele>
        <time>2023-11-22T14:55:28Z</time>
      </trkpt>
      <trkpt lat="49.14906" lon="0.11875">
        <ele>144.2</ele>
        <time>2023-11-22T14:55:29Z</time>
      </trkpt>
      <trkpt lat="49.14909" lon="0.11859">
        <ele>143.6</ele>
        <time>2023-11-22T14:55:30Z</time>
      </trkpt>
      <trkpt lat="49.14913" lon="0.11843">
        <ele>143</ele>
        <time>2023-11-22T14:55:31Z</time>
      </trkpt>
      <trkpt lat="49.14918" lon="0.11828">
        <ele>142.4</ele>
        <time>2023-11-22T14:55:32Z</time>
      </trkpt>
      <trkpt lat="49.14923" lon="0.11813">
        <ele>141.7</ele>
        <time>2023-11-22T14:55:33Z</time>
      </trkpt>
      <trkpt lat="49.14929" lon="0.11798">
        <ele>141</ele>
        <time>2023-11-22T14:55:34Z</time>
      </trkpt>
      <trkpt lat="49.14937" lon="0.11784">
        <ele>140.3</ele>
        <time>2023-11-22T14:55:35Z</time>
      </trkpt>
      <trkpt lat="49.14945" lon="0.11772">
        <ele>139.6</ele>
        <time>2023-11-22T14:55:36Z</time>
      </trkpt>
      <trkpt lat="49.14955" lon="0.11762">
        <ele>139</ele>
        <time>2023-11-22T14:55:37Z</time>
      </trkpt>
      <trkpt lat="49.14966" lon="0.11753">
        <ele>138.4</ele>
        <time>2023-11-22T14:55:38Z</time>
      </trkpt>
      <trkpt lat="49.14977" lon="0.11745">
        <ele>137.9</ele>
        <time>2023-11-22T14:55:39Z</time>
      </trkpt>
      <trkpt lat="49.14987" lon="0.11737">
        <ele>138.8</ele>
        <time>2023-11-22T14:55:40Z</time>
      </trkpt>
      <trkpt lat="49.14997" lon="0.11727">
        <ele>138.6</ele>
        <time>2023-11-22T14:55:41Z</time>
      </trkpt>
      <trkpt lat="49.15007" lon="0.11714">
        <ele>138.4</ele>
        <time>2023-11-22T14:55:42Z</time>
      </trkpt>
      <trkpt lat="49.15016" lon="0.117">
        <ele>138.2</ele>
        <time>2023-11-22T14:55:43Z</time>
      </trkpt>
      <trkpt lat="49.15024" lon="0.11686">
        <ele>138.1</ele>
        <time>2023-11-22T14:55:44Z</time>
      </trkpt>
      <trkpt lat="49.15031" lon="0.11671">
        <ele>137.9</ele>
        <time>2023-11-22T14:55:45Z</time>
      </trkpt>
      <trkpt lat="49.15038" lon="0.11656">
        <ele>137.7</ele>
        <time>2023-11-22T14:55:46Z</time>
      </trkpt>
      <trkpt lat="49.15044" lon="0.1164">
        <ele>137.5</ele>
        <time>2023-11-22T14:55:47Z</time>
      </trkpt>
      <trkpt lat="49.1505" lon="0.11625">
        <ele>137.3</ele>
        <time>2023-11-22T14:55:48Z</time>
      </trkpt>
      <trkpt lat="49.15056" lon="0.11609">
        <ele>137.2</ele>
        <time>2023-11-22T14:55:49Z</time>
      </trkpt>
      <trkpt lat="49.15061" lon="0.11593">
        <ele>137</ele>
        <time>2023-11-22T14:55:50Z</time>
      </trkpt>
      <trkpt lat="49.15067" lon="0.11578">
        <ele>136.9</ele>
        <time>2023-11-22T14:55:51Z</time>
      </trkpt>
      <trkpt lat="49.15073" lon="0.11563">
        <ele>136.7</ele>
        <time>2023-11-22T14:55:52Z</time>
      </trkpt>
      <trkpt lat="49.15078" lon="0.11549">
        <ele>136.6</ele>
        <time>2023-11-22T14:55:53Z</time>
      </trkpt>
      <trkpt lat="49.15084" lon="0.11535">
        <ele>136.5</ele>
        <time>2023-11-22T14:55:54Z</time>
      </trkpt>
      <trkpt lat="49.1509" lon="0.11521">
        <ele>136.3</ele>
        <time>2023-11-22T14:55:55Z</time>
      </trkpt>
      <trkpt lat="49.15097" lon="0.11507">
        <ele>136.2</ele>
        <time>2023-11-22T14:55:56Z</time>
      </trkpt>
      <trkpt lat="49.15104" lon="0.11493">
        <ele>136.1</ele>
        <time>2023-11-22T14:55:57Z</time>
      </trkpt>
      <trkpt lat="49.15112" lon="0.11479">
        <ele>136</ele>
        <time>2023-11-22T14:55:58Z</time>
      </trkpt>
      <trkpt lat="49.1512" lon="0.11466">
        <ele>135.8</ele>
        <time>2023-11-22T14:55:59Z</time>
      </trkpt>
      <trkpt lat="49.15128" lon="0.11453">
        <ele>135.7</ele>
        <time>2023-11-22T14:56:00Z</time>
      </trkpt>
      <trkpt lat="49.15136" lon="0.11441">
        <ele>135.6</ele>
        <time>2023-11-22T14:56:01Z</time>
      </trkpt>
      <trkpt lat="49.15143" lon="0.11429">
        <ele>135.5</ele>
        <time>2023-11-22T14:56:02Z</time>
      </trkpt>
      <trkpt lat="49.1515" lon="0.11417">
        <ele>135.3</ele>
        <time>2023-11-22T14:56:03Z</time>
      </trkpt>
      <trkpt lat="49.15158" lon="0.11406">
        <ele>135</ele>
        <time>2023-11-22T14:56:04Z</time>
      </trkpt>
      <trkpt lat="49.15165" lon="0.11394">
        <ele>134.8</ele>
        <time>2023-11-22T14:56:05Z</time>
      </trkpt>
      <trkpt lat="49.15173" lon="0.11382">
        <ele>134.4</ele>
        <time>2023-11-22T14:56:06Z</time>
      </trkpt>
      <trkpt lat="49.15181" lon="0.1137">
        <ele>134</ele>
        <time>2023-11-22T14:56:07Z</time>
      </trkpt>
      <trkpt lat="49.15189" lon="0.11358">
        <ele>133.6</ele>
        <time>2023-11-22T14:56:08Z</time>
      </trkpt>
      <trkpt lat="49.15197" lon="0.11348">
        <ele>133.1</ele>
        <time>2023-11-22T14:56:09Z</time>
      </trkpt>
      <trkpt lat="49.15206" lon="0.11336">
        <ele>132.7</ele>
        <time>2023-11-22T14:56:10Z</time>
      </trkpt>
      <trkpt lat="49.15215" lon="0.11326">
        <ele>132.3</ele>
        <time>2023-11-22T14:56:11Z</time>
      </trkpt>
      <trkpt lat="49.15224" lon="0.11316">
        <ele>131.9</ele>
        <time>2023-11-22T14:56:12Z</time>
      </trkpt>
      <trkpt lat="49.15234" lon="0.11307">
        <ele>131.5</ele>
        <time>2023-11-22T14:56:13Z</time>
      </trkpt>
      <trkpt lat="49.15244" lon="0.11297">
        <ele>131</ele>
        <time>2023-11-22T14:56:14Z</time>
      </trkpt>
      <trkpt lat="49.15254" lon="0.11288">
        <ele>130.5</ele>
        <time>2023-11-22T14:56:15Z</time>
      </trkpt>
      <trkpt lat="49.15264" lon="0.11279">
        <ele>130</ele>
        <time>2023-11-22T14:56:16Z</time>
      </trkpt>
      <trkpt lat="49.15273" lon="0.11271">
        <ele>129.5</ele>
        <time>2023-11-22T14:56:17Z</time>
      </trkpt>
      <trkpt lat="49.15283" lon="0.11262">
        <ele>129</ele>
        <time>2023-11-22T14:56:18Z</time>
      </trkpt>
      <trkpt lat="49.15292" lon="0.11253">
        <ele>128.4</ele>
        <time>2023-11-22T14:56:19Z</time>
      </trkpt>
      <trkpt lat="49.15302" lon="0.11244">
        <ele>127.8</ele>
        <time>2023-11-22T14:56:20Z</time>
      </trkpt>
      <trkpt lat="49.15311" lon="0.11233">
        <ele>127.2</ele>
        <time>2023-11-22T14:56:21Z</time>
      </trkpt>
      <trkpt lat="49.15321" lon="0.11223">
        <ele>126.6</ele>
        <time>2023-11-22T14:56:22Z</time>
      </trkpt>
      <trkpt lat="49.1533" lon="0.11212">
        <ele>125.9</ele>
        <time>2023-11-22T14:56:23Z</time>
      </trkpt>
      <trkpt lat="49.15338" lon="0.11199">
        <ele>125.3</ele>
        <time>2023-11-22T14:56:24Z</time>
      </trkpt>
      <trkpt lat="49.15347" lon="0.11187">
        <ele>124.8</ele>
        <time>2023-11-22T14:56:25Z</time>
      </trkpt>
      <trkpt lat="49.15356" lon="0.11174">
        <ele>124.4</ele>
        <time>2023-11-22T14:56:26Z</time>
      </trkpt>
      <trkpt lat="49.15364" lon="0.1116">
        <ele>124.2</ele>
        <time>2023-11-22T14:56:27Z</time>
      </trkpt>
      <trkpt lat="49.15373" lon="0.11145">
        <ele>124.1</ele>
        <time>2023-11-22T14:56:28Z</time>
      </trkpt>
      <trkpt lat="49.15382" lon="0.1113">
        <ele>124.2</ele>
        <time>2023-11-22T14:56:29Z</time>
      </trkpt>
      <trkpt lat="49.1539" lon="0.11115">
        <ele>124.3</ele>
        <time>2023-11-22T14:56:30Z</time>
      </trkpt>
      <trkpt lat="49.15398" lon="0.11101">
        <ele>124.5</ele>
        <time>2023-11-22T14:56:31Z</time>
      </trkpt>
      <trkpt lat="49.15406" lon="0.11087">
        <ele>124.6</ele>
        <time>2023-11-22T14:56:32Z</time>
      </trkpt>
      <trkpt lat="49.15414" lon="0.11075">
        <ele>124.8</ele>
        <time>2023-11-22T14:56:33Z</time>
      </trkpt>
      <trkpt lat="49.15421" lon="0.11063">
        <ele>124.9</ele>
        <time>2023-11-22T14:56:34Z</time>
      </trkpt>
      <trkpt lat="49.15429" lon="0.1105">
        <ele>125</ele>
        <time>2023-11-22T14:56:35Z</time>
      </trkpt>
      <trkpt lat="49.15437" lon="0.11038">
        <ele>125.1</ele>
        <time>2023-11-22T14:56:36Z</time>
      </trkpt>
      <trkpt lat="49.15445" lon="0.11026">
        <ele>125.1</ele>
        <time>2023-11-22T14:56:37Z</time>
      </trkpt>
      <trkpt lat="49.15453" lon="0.11013">
        <ele>125</ele>
        <time>2023-11-22T14:56:38Z</time>
      </trkpt>
      <trkpt lat="49.1546" lon="0.11001">
        <ele>124.8</ele>
        <time>2023-11-22T14:56:39Z</time>
      </trkpt>
      <trkpt lat="49.15467" lon="0.10988">
        <ele>124.7</ele>
        <time>2023-11-22T14:56:40Z</time>
      </trkpt>
      <trkpt lat="49.15474" lon="0.10976">
        <ele>124.4</ele>
        <time>2023-11-22T14:56:41Z</time>
      </trkpt>
      <trkpt lat="49.15481" lon="0.10964">
        <ele>124.2</ele>
        <time>2023-11-22T14:56:42Z</time>
      </trkpt>
      <trkpt lat="49.15489" lon="0.10952">
        <ele>124</ele>
        <time>2023-11-22T14:56:43Z</time>
      </trkpt>
      <trkpt lat="49.15496" lon="0.1094">
        <ele>123.8</ele>
        <time>2023-11-22T14:56:44Z</time>
      </trkpt>
      <trkpt lat="49.15504" lon="0.10928">
        <ele>123.8</ele>
        <time>2023-11-22T14:56:45Z</time>
      </trkpt>
      <trkpt lat="49.15512" lon="0.10917">
        <ele>123.6</ele>
        <time>2023-11-22T14:56:46Z</time>
      </trkpt>
      <trkpt lat="49.15519" lon="0.10905">
        <ele>123.4</ele>
        <time>2023-11-22T14:56:47Z</time>
      </trkpt>
      <trkpt lat="49.15527" lon="0.10893">
        <ele>123.2</ele>
        <time>2023-11-22T14:56:48Z</time>
      </trkpt>
      <trkpt lat="49.15535" lon="0.10881">
        <ele>123</ele>
        <time>2023-11-22T14:56:49Z</time>
      </trkpt>
      <trkpt lat="49.15543" lon="0.10869">
        <ele>122.8</ele>
        <time>2023-11-22T14:56:50Z</time>
      </trkpt>
      <trkpt lat="49.1555" lon="0.10857">
        <ele>122.6</ele>
        <time>2023-11-22T14:56:51Z</time>
      </trkpt>
      <trkpt lat="49.15558" lon="0.10845">
        <ele>122.5</ele>
        <time>2023-11-22T14:56:52Z</time>
      </trkpt>
      <trkpt lat="49.15565" lon="0.10832">
        <ele>122.3</ele>
        <time>2023-11-22T14:56:53Z</time>
      </trkpt>
      <trkpt lat="49.15573" lon="0.1082">
        <ele>122.2</ele>
        <time>2023-11-22T14:56:54Z</time>
      </trkpt>
      <trkpt lat="49.1558" lon="0.10808">
        <ele>122.2</ele>
        <time>2023-11-22T14:56:55Z</time>
      </trkpt>
      <trkpt lat="49.15587" lon="0.10797">
        <ele>122.1</ele>
        <time>2023-11-22T14:56:56Z</time>
      </trkpt>
      <trkpt lat="49.15594" lon="0.10785">
        <ele>122.1</ele>
        <time>2023-11-22T14:56:57Z</time>
      </trkpt>
      <trkpt lat="49.15601" lon="0.10774">
        <ele>122.1</ele>
        <time>2023-11-22T14:56:58Z</time>
      </trkpt>
      <trkpt lat="49.15607" lon="0.10763">
        <ele>122</ele>
        <time>2023-11-22T14:56:59Z</time>
      </trkpt>
      <trkpt lat="49.15614" lon="0.10753">
        <ele>121.9</ele>
        <time>2023-11-22T14:57:00Z</time>
      </trkpt>
      <trkpt lat="49.15621" lon="0.10743">
        <ele>121.9</ele>
        <time>2023-11-22T14:57:01Z</time>
      </trkpt>
      <trkpt lat="49.15628" lon="0.10732">
        <ele>121.8</ele>
        <time>2023-11-22T14:57:02Z</time>
      </trkpt>
      <trkpt lat="49.15635" lon="0.10721">
        <ele>121.7</ele>
        <time>2023-11-22T14:57:03Z</time>
      </trkpt>
      <trkpt lat="49.15642" lon="0.10709">
        <ele>121.6</ele>
        <time>2023-11-22T14:57:04Z</time>
      </trkpt>
      <trkpt lat="49.15649" lon="0.10697">
        <ele>121.5</ele>
        <time>2023-11-22T14:57:05Z</time>
      </trkpt>
      <trkpt lat="49.15656" lon="0.10686">
        <ele>121.5</ele>
        <time>2023-11-22T14:57:06Z</time>
      </trkpt>
      <trkpt lat="49.15663" lon="0.10675">
        <ele>121.5</ele>
        <time>2023-11-22T14:57:07Z</time>
      </trkpt>
      <trkpt lat="49.1567" lon="0.10664">
        <ele>121.5</ele>
        <time>2023-11-22T14:57:08Z</time>
      </trkpt>
      <trkpt lat="49.15678" lon="0.10653">
        <ele>121.4</ele>
        <time>2023-11-22T14:57:09Z</time>
      </trkpt>
      <trkpt lat="49.15685" lon="0.10643">
        <ele>121.4</ele>
        <time>2023-11-22T14:57:10Z</time>
      </trkpt>
      <trkpt lat="49.15692" lon="0.10632">
        <ele>121.3</ele>
        <time>2023-11-22T14:57:11Z</time>
      </trkpt>
      <trkpt lat="49.15698" lon="0.10622">
        <ele>121.2</ele>
        <time>2023-11-22T14:57:12Z</time>
      </trkpt>
      <trkpt lat="49.15705" lon="0.10612">
        <ele>121.1</ele>
        <time>2023-11-22T14:57:13Z</time>
      </trkpt>
      <trkpt lat="49.15712" lon="0.10602">
        <ele>120.9</ele>
        <time>2023-11-22T14:57:14Z</time>
      </trkpt>
      <trkpt lat="49.15718" lon="0.10591">
        <ele>120.8</ele>
        <time>2023-11-22T14:57:15Z</time>
      </trkpt>
      <trkpt lat="49.15725" lon="0.10581">
        <ele>120.6</ele>
        <time>2023-11-22T14:57:16Z</time>
      </trkpt>
      <trkpt lat="49.15732" lon="0.1057">
        <ele>120.4</ele>
        <time>2023-11-22T14:57:17Z</time>
      </trkpt>
      <trkpt lat="49.15739" lon="0.1056">
        <ele>120.1</ele>
        <time>2023-11-22T14:57:18Z</time>
      </trkpt>
      <trkpt lat="49.15746" lon="0.1055">
        <ele>119.8</ele>
        <time>2023-11-22T14:57:19Z</time>
      </trkpt>
      <trkpt lat="49.15754" lon="0.1054">
        <ele>119.4</ele>
        <time>2023-11-22T14:57:20Z</time>
      </trkpt>
      <trkpt lat="49.15761" lon="0.10529">
        <ele>118.9</ele>
        <time>2023-11-22T14:57:21Z</time>
      </trkpt>
      <trkpt lat="49.1577" lon="0.10519">
        <ele>118.4</ele>
        <time>2023-11-22T14:57:22Z</time>
      </trkpt>
      <trkpt lat="49.15778" lon="0.10509">
        <ele>117.8</ele>
        <time>2023-11-22T14:57:23Z</time>
      </trkpt>
      <trkpt lat="49.15787" lon="0.105">
        <ele>117.2</ele>
        <time>2023-11-22T14:57:24Z</time>
      </trkpt>
      <trkpt lat="49.15796" lon="0.10491">
        <ele>116.7</ele>
        <time>2023-11-22T14:57:25Z</time>
      </trkpt>
      <trkpt lat="49.15806" lon="0.10481">
        <ele>116.1</ele>
        <time>2023-11-22T14:57:26Z</time>
      </trkpt>
      <trkpt lat="49.15815" lon="0.10472">
        <ele>115.6</ele>
        <time>2023-11-22T14:57:27Z</time>
      </trkpt>
      <trkpt lat="49.15825" lon="0.10463">
        <ele>115</ele>
        <time>2023-11-22T14:57:28Z</time>
      </trkpt>
      <trkpt lat="49.15834" lon="0.10453">
        <ele>114.3</ele>
        <time>2023-11-22T14:57:29Z</time>
      </trkpt>
      <trkpt lat="49.15844" lon="0.10444">
        <ele>113.6</ele>
        <time>2023-11-22T14:57:30Z</time>
      </trkpt>
      <trkpt lat="49.15854" lon="0.10434">
        <ele>113</ele>
        <time>2023-11-22T14:57:31Z</time>
      </trkpt>
      <trkpt lat="49.15865" lon="0.10424">
        <ele>112.3</ele>
        <time>2023-11-22T14:57:32Z</time>
      </trkpt>
      <trkpt lat="49.15875" lon="0.10414">
        <ele>111.6</ele>
        <time>2023-11-22T14:57:33Z</time>
      </trkpt>
      <trkpt lat="49.15885" lon="0.10404">
        <ele>110.9</ele>
        <time>2023-11-22T14:57:34Z</time>
      </trkpt>
      <trkpt lat="49.15896" lon="0.10394">
        <ele>110.2</ele>
        <time>2023-11-22T14:57:35Z</time>
      </trkpt>
      <trkpt lat="49.15906" lon="0.10383">
        <ele>109.5</ele>
        <time>2023-11-22T14:57:36Z</time>
      </trkpt>
      <trkpt lat="49.15917" lon="0.10372">
        <ele>108.8</ele>
        <time>2023-11-22T14:57:37Z</time>
      </trkpt>
      <trkpt lat="49.15927" lon="0.10362">
        <ele>108.1</ele>
        <time>2023-11-22T14:57:38Z</time>
      </trkpt>
      <trkpt lat="49.15937" lon="0.10351">
        <ele>107.4</ele>
        <time>2023-11-22T14:57:39Z</time>
      </trkpt>
      <trkpt lat="49.15948" lon="0.1034">
        <ele>106.7</ele>
        <time>2023-11-22T14:57:40Z</time>
      </trkpt>
      <trkpt lat="49.15959" lon="0.10329">
        <ele>106.1</ele>
        <time>2023-11-22T14:57:41Z</time>
      </trkpt>
      <trkpt lat="49.1597" lon="0.10318">
        <ele>105.6</ele>
        <time>2023-11-22T14:57:42Z</time>
      </trkpt>
      <trkpt lat="49.15981" lon="0.10307">
        <ele>105.3</ele>
        <time>2023-11-22T14:57:43Z</time>
      </trkpt>
      <trkpt lat="49.15992" lon="0.10296">
        <ele>105.1</ele>
        <time>2023-11-22T14:57:44Z</time>
      </trkpt>
      <trkpt lat="49.16002" lon="0.10286">
        <ele>105</ele>
        <time>2023-11-22T14:57:45Z</time>
      </trkpt>
      <trkpt lat="49.16012" lon="0.10276">
        <ele>104.9</ele>
        <time>2023-11-22T14:57:46Z</time>
      </trkpt>
      <trkpt lat="49.16022" lon="0.10265">
        <ele>104.8</ele>
        <time>2023-11-22T14:57:47Z</time>
      </trkpt>
      <trkpt lat="49.16032" lon="0.10255">
        <ele>104.9</ele>
        <time>2023-11-22T14:57:48Z</time>
      </trkpt>
      <trkpt lat="49.16041" lon="0.10245">
        <ele>105</ele>
        <time>2023-11-22T14:57:49Z</time>
      </trkpt>
      <trkpt lat="49.16051" lon="0.10235">
        <ele>105.2</ele>
        <time>2023-11-22T14:57:50Z</time>
      </trkpt>
      <trkpt lat="49.1606" lon="0.10224">
        <ele>105.4</ele>
        <time>2023-11-22T14:57:51Z</time>
      </trkpt>
      <trkpt lat="49.16069" lon="0.10213">
        <ele>105.6</ele>
        <time>2023-11-22T14:57:52Z</time>
      </trkpt>
      <trkpt lat="49.16077" lon="0.10201">
        <ele>105.7</ele>
        <time>2023-11-22T14:57:53Z</time>
      </trkpt>
      <trkpt lat="49.16085" lon="0.10188">
        <ele>105.6</ele>
        <time>2023-11-22T14:57:54Z</time>
      </trkpt>
      <trkpt lat="49.16092" lon="0.10175">
        <ele>105.5</ele>
        <time>2023-11-22T14:57:55Z</time>
      </trkpt>
      <trkpt lat="49.16098" lon="0.10161">
        <ele>105.2</ele>
        <time>2023-11-22T14:57:56Z</time>
      </trkpt>
      <trkpt lat="49.16104" lon="0.10146">
        <ele>105</ele>
        <time>2023-11-22T14:57:57Z</time>
      </trkpt>
      <trkpt lat="49.1611" lon="0.10131">
        <ele>104.9</ele>
        <time>2023-11-22T14:57:58Z</time>
      </trkpt>
      <trkpt lat="49.16116" lon="0.10116">
        <ele>104.8</ele>
        <time>2023-11-22T14:57:59Z</time>
      </trkpt>
      <trkpt lat="49.16122" lon="0.101">
        <ele>104.7</ele>
        <time>2023-11-22T14:58:00Z</time>
      </trkpt>
      <trkpt lat="49.16127" lon="0.10085">
        <ele>104.6</ele>
        <time>2023-11-22T14:58:01Z</time>
      </trkpt>
      <trkpt lat="49.16133" lon="0.1007">
        <ele>104.5</ele>
        <time>2023-11-22T14:58:02Z</time>
      </trkpt>
      <trkpt lat="49.16139" lon="0.10055">
        <ele>104.4</ele>
        <time>2023-11-22T14:58:03Z</time>
      </trkpt>
      <trkpt lat="49.16145" lon="0.10039">
        <ele>104.3</ele>
        <time>2023-11-22T14:58:04Z</time>
      </trkpt>
      <trkpt lat="49.16151" lon="0.10024">
        <ele>104.2</ele>
        <time>2023-11-22T14:58:05Z</time>
      </trkpt>
      <trkpt lat="49.16156" lon="0.10009">
        <ele>104</ele>
        <time>2023-11-22T14:58:06Z</time>
      </trkpt>
      <trkpt lat="49.16162" lon="0.09995">
        <ele>103.9</ele>
        <time>2023-11-22T14:58:07Z</time>
      </trkpt>
      <trkpt lat="49.16168" lon="0.09981">
        <ele>103.8</ele>
        <time>2023-11-22T14:58:08Z</time>
      </trkpt>
      <trkpt lat="49.16175" lon="0.09967">
        <ele>103.6</ele>
        <time>2023-11-22T14:58:09Z</time>
      </trkpt>
      <trkpt lat="49.16182" lon="0.09954">
        <ele>103.6</ele>
        <time>2023-11-22T14:58:10Z</time>
      </trkpt>
      <trkpt lat="49.1619" lon="0.09942">
        <ele>103.5</ele>
        <time>2023-11-22T14:58:11Z</time>
      </trkpt>
      <trkpt lat="49.16198" lon="0.0993">
        <ele>103.5</ele>
        <time>2023-11-22T14:58:12Z</time>
      </trkpt>
      <trkpt lat="49.16207" lon="0.09919">
        <ele>103.5</ele>
        <time>2023-11-22T14:58:13Z</time>
      </trkpt>
      <trkpt lat="49.16215" lon="0.09908">
        <ele>103.4</ele>
        <time>2023-11-22T14:58:14Z</time>
      </trkpt>
      <trkpt lat="49.16224" lon="0.09898">
        <ele>103.4</ele>
        <time>2023-11-22T14:58:15Z</time>
      </trkpt>
      <trkpt lat="49.16232" lon="0.09888">
        <ele>103.3</ele>
        <time>2023-11-22T14:58:16Z</time>
      </trkpt>
      <trkpt lat="49.16241" lon="0.09878">
        <ele>103.2</ele>
        <time>2023-11-22T14:58:17Z</time>
      </trkpt>
      <trkpt lat="49.16249" lon="0.09865">
        <ele>103.1</ele>
        <time>2023-11-22T14:58:18Z</time>
      </trkpt>
      <trkpt lat="49.16257" lon="0.09853">
        <ele>102.9</ele>
        <time>2023-11-22T14:58:19Z</time>
      </trkpt>
      <trkpt lat="49.16265" lon="0.09841">
        <ele>102.7</ele>
        <time>2023-11-22T14:58:20Z</time>
      </trkpt>
      <trkpt lat="49.16273" lon="0.09829">
        <ele>102.4</ele>
        <time>2023-11-22T14:58:21Z</time>
      </trkpt>
      <trkpt lat="49.16281" lon="0.09817">
        <ele>102.1</ele>
        <time>2023-11-22T14:58:22Z</time>
      </trkpt>
      <trkpt lat="49.16289" lon="0.09805">
        <ele>101.9</ele>
        <time>2023-11-22T14:58:23Z</time>
      </trkpt>
      <trkpt lat="49.16297" lon="0.09792">
        <ele>101.7</ele>
        <time>2023-11-22T14:58:24Z</time>
      </trkpt>
      <trkpt lat="49.16304" lon="0.0978">
        <ele>101.5</ele>
        <time>2023-11-22T14:58:25Z</time>
      </trkpt>
      <trkpt lat="49.16312" lon="0.09767">
        <ele>101.3</ele>
        <time>2023-11-22T14:58:26Z</time>
      </trkpt>
      <trkpt lat="49.1632" lon="0.09754">
        <ele>101.1</ele>
        <time>2023-11-22T14:58:27Z</time>
      </trkpt>
      <trkpt lat="49.16327" lon="0.09741">
        <ele>100.8</ele>
        <time>2023-11-22T14:58:28Z</time>
      </trkpt>
      <trkpt lat="49.16335" lon="0.09728">
        <ele>100.6</ele>
        <time>2023-11-22T14:58:29Z</time>
      </trkpt>
      <trkpt lat="49.16342" lon="0.09715">
        <ele>100.4</ele>
        <time>2023-11-22T14:58:30Z</time>
      </trkpt>
      <trkpt lat="49.1635" lon="0.09703">
        <ele>100.2</ele>
        <time>2023-11-22T14:58:31Z</time>
      </trkpt>
      <trkpt lat="49.16357" lon="0.09691">
        <ele>100.1</ele>
        <time>2023-11-22T14:58:32Z</time>
      </trkpt>
      <trkpt lat="49.16365" lon="0.09679">
        <ele>100</ele>
        <time>2023-11-22T14:58:33Z</time>
      </trkpt>
      <trkpt lat="49.16373" lon="0.09667">
        <ele>99.9</ele>
        <time>2023-11-22T14:58:34Z</time>
      </trkpt>
      <trkpt lat="49.16381" lon="0.09656">
        <ele>99.8</ele>
        <time>2023-11-22T14:58:35Z</time>
      </trkpt>
      <trkpt lat="49.1639" lon="0.09645">
        <ele>99.8</ele>
        <time>2023-11-22T14:58:36Z</time>
      </trkpt>
      <trkpt lat="49.16399" lon="0.09635">
        <ele>99.9</ele>
        <time>2023-11-22T14:58:37Z</time>
      </trkpt>
      <trkpt lat="49.16408" lon="0.09625">
        <ele>100</ele>
        <time>2023-11-22T14:58:38Z</time>
      </trkpt>
      <trkpt lat="49.16417" lon="0.09617">
        <ele>100.1</ele>
        <time>2023-11-22T14:58:39Z</time>
      </trkpt>
      <trkpt lat="49.16426" lon="0.09609">
        <ele>100.2</ele>
        <time>2023-11-22T14:58:40Z</time>
      </trkpt>
      <trkpt lat="49.16434" lon="0.09601">
        <ele>100.2</ele>
        <time>2023-11-22T14:58:41Z</time>
      </trkpt>
      <trkpt lat="49.16443" lon="0.09594">
        <ele>100.2</ele>
        <time>2023-11-22T14:58:42Z</time>
      </trkpt>
      <trkpt lat="49.16452" lon="0.09588">
        <ele>100.1</ele>
        <time>2023-11-22T14:58:43Z</time>
      </trkpt>
      <trkpt lat="49.1646" lon="0.09582">
        <ele>99.9</ele>
        <time>2023-11-22T14:58:44Z</time>
      </trkpt>
      <trkpt lat="49.16469" lon="0.09577">
        <ele>99.6</ele>
        <time>2023-11-22T14:58:45Z</time>
      </trkpt>
      <trkpt lat="49.16478" lon="0.09572">
        <ele>99.2</ele>
        <time>2023-11-22T14:58:46Z</time>
      </trkpt>
      <trkpt lat="49.16488" lon="0.09566">
        <ele>98.9</ele>
        <time>2023-11-22T14:58:47Z</time>
      </trkpt>
      <trkpt lat="49.16498" lon="0.0956">
        <ele>98.4</ele>
        <time>2023-11-22T14:58:48Z</time>
      </trkpt>
      <trkpt lat="49.16508" lon="0.09555">
        <ele>97.9</ele>
        <time>2023-11-22T14:58:49Z</time>
      </trkpt>
      <trkpt lat="49.16519" lon="0.09551">
        <ele>97.5</ele>
        <time>2023-11-22T14:58:50Z</time>
      </trkpt>
      <trkpt lat="49.16529" lon="0.09546">
        <ele>96.9</ele>
        <time>2023-11-22T14:58:51Z</time>
      </trkpt>
      <trkpt lat="49.1654" lon="0.09541">
        <ele>96.3</ele>
        <time>2023-11-22T14:58:52Z</time>
      </trkpt>
      <trkpt lat="49.1655" lon="0.09535">
        <ele>95.7</ele>
        <time>2023-11-22T14:58:53Z</time>
      </trkpt>
      <trkpt lat="49.16561" lon="0.0953">
        <ele>95</ele>
        <time>2023-11-22T14:58:54Z</time>
      </trkpt>
      <trkpt lat="49.16572" lon="0.09523">
        <ele>94.3</ele>
        <time>2023-11-22T14:58:55Z</time>
      </trkpt>
      <trkpt lat="49.16584" lon="0.09516">
        <ele>93.5</ele>
        <time>2023-11-22T14:58:56Z</time>
      </trkpt>
      <trkpt lat="49.16595" lon="0.09509">
        <ele>92.8</ele>
        <time>2023-11-22T14:58:57Z</time>
      </trkpt>
      <trkpt lat="49.16607" lon="0.09503">
        <ele>92.1</ele>
        <time>2023-11-22T14:58:58Z</time>
      </trkpt>
      <trkpt lat="49.16619" lon="0.09496">
        <ele>91.5</ele>
        <time>2023-11-22T14:58:59Z</time>
      </trkpt>
      <trkpt lat="49.1663" lon="0.0949">
        <ele>91</ele>
        <time>2023-11-22T14:59:00Z</time>
      </trkpt>
      <trkpt lat="49.16642" lon="0.09484">
        <ele>90.5</ele>
        <time>2023-11-22T14:59:01Z</time>
      </trkpt>
      <trkpt lat="49.16653" lon="0.09478">
        <ele>90</ele>
        <time>2023-11-22T14:59:02Z</time>
      </trkpt>
      <trkpt lat="49.16665" lon="0.09472">
        <ele>89.6</ele>
        <time>2023-11-22T14:59:03Z</time>
      </trkpt>
      <trkpt lat="49.16677" lon="0.09468">
        <ele>89.2</ele>
        <time>2023-11-22T14:59:04Z</time>
      </trkpt>
      <trkpt lat="49.16689" lon="0.09465">
        <ele>88.8</ele>
        <time>2023-11-22T14:59:05Z</time>
      </trkpt>
      <trkpt lat="49.16701" lon="0.09463">
        <ele>88.4</ele>
        <time>2023-11-22T14:59:06Z</time>
      </trkpt>
      <trkpt lat="49.16713" lon="0.09462">
        <ele>88</ele>
        <time>2023-11-22T14:59:07Z</time>
      </trkpt>
      <trkpt lat="49.16724" lon="0.09462">
        <ele>87.6</ele>
        <time>2023-11-22T14:59:08Z</time>
      </trkpt>
      <trkpt lat="49.16737" lon="0.09463">
        <ele>87.2</ele>
        <time>2023-11-22T14:59:09Z</time>
      </trkpt>
      <trkpt lat="49.16749" lon="0.09466">
        <ele>86.8</ele>
        <time>2023-11-22T14:59:10Z</time>
      </trkpt>
      <trkpt lat="49.16762" lon="0.09469">
        <ele>86.6</ele>
        <time>2023-11-22T14:59:11Z</time>
      </trkpt>
      <trkpt lat="49.16774" lon="0.09472">
        <ele>86.3</ele>
        <time>2023-11-22T14:59:12Z</time>
      </trkpt>
      <trkpt lat="49.16785" lon="0.09474">
        <ele>86.2</ele>
        <time>2023-11-22T14:59:13Z</time>
      </trkpt>
      <trkpt lat="49.16797" lon="0.09477">
        <ele>86.1</ele>
        <time>2023-11-22T14:59:14Z</time>
      </trkpt>
      <trkpt lat="49.16809" lon="0.09478">
        <ele>86.1</ele>
        <time>2023-11-22T14:59:15Z</time>
      </trkpt>
      <trkpt lat="49.16821" lon="0.09481">
        <ele>86.1</ele>
        <time>2023-11-22T14:59:16Z</time>
      </trkpt>
      <trkpt lat="49.16832" lon="0.09482">
        <ele>86.1</ele>
        <time>2023-11-22T14:59:17Z</time>
      </trkpt>
      <trkpt lat="49.16844" lon="0.0948">
        <ele>86</ele>
        <time>2023-11-22T14:59:18Z</time>
      </trkpt>
      <trkpt lat="49.16854" lon="0.09476">
        <ele>85.9</ele>
        <time>2023-11-22T14:59:19Z</time>
      </trkpt>
      <trkpt lat="49.16864" lon="0.0947">
        <ele>85.8</ele>
        <time>2023-11-22T14:59:20Z</time>
      </trkpt>
      <trkpt lat="49.16874" lon="0.09462">
        <ele>85.6</ele>
        <time>2023-11-22T14:59:21Z</time>
      </trkpt>
      <trkpt lat="49.16883" lon="0.0945">
        <ele>85.3</ele>
        <time>2023-11-22T14:59:22Z</time>
      </trkpt>
      <trkpt lat="49.16893" lon="0.09439">
        <ele>85.1</ele>
        <time>2023-11-22T14:59:23Z</time>
      </trkpt>
      <trkpt lat="49.16902" lon="0.09428">
        <ele>84.8</ele>
        <time>2023-11-22T14:59:24Z</time>
      </trkpt>
      <trkpt lat="49.16912" lon="0.09418">
        <ele>84.6</ele>
        <time>2023-11-22T14:59:25Z</time>
      </trkpt>
      <trkpt lat="49.16922" lon="0.09407">
        <ele>84.5</ele>
        <time>2023-11-22T14:59:26Z</time>
      </trkpt>
      <trkpt lat="49.16932" lon="0.09396">
        <ele>84.4</ele>
        <time>2023-11-22T14:59:27Z</time>
      </trkpt>
      <trkpt lat="49.16941" lon="0.09385">
        <ele>84.3</ele>
        <time>2023-11-22T14:59:28Z</time>
      </trkpt>
      <trkpt lat="49.16951" lon="0.09374">
        <ele>84.2</ele>
        <time>2023-11-22T14:59:29Z</time>
      </trkpt>
      <trkpt lat="49.1696" lon="0.09364">
        <ele>84</ele>
        <time>2023-11-22T14:59:30Z</time>
      </trkpt>
      <trkpt lat="49.16969" lon="0.09353">
        <ele>83.8</ele>
        <time>2023-11-22T14:59:31Z</time>
      </trkpt>
      <trkpt lat="49.16978" lon="0.09343">
        <ele>83.5</ele>
        <time>2023-11-22T14:59:32Z</time>
      </trkpt>
      <trkpt lat="49.16987" lon="0.09332">
        <ele>83.3</ele>
        <time>2023-11-22T14:59:33Z</time>
      </trkpt>
      <trkpt lat="49.16996" lon="0.09321">
        <ele>83.1</ele>
        <time>2023-11-22T14:59:34Z</time>
      </trkpt>
      <trkpt lat="49.17005" lon="0.09311">
        <ele>82.8</ele>
        <time>2023-11-22T14:59:35Z</time>
      </trkpt>
      <trkpt lat="49.17015" lon="0.09301">
        <ele>82.6</ele>
        <time>2023-11-22T14:59:36Z</time>
      </trkpt>
      <trkpt lat="49.17024" lon="0.09292">
        <ele>82.3</ele>
        <time>2023-11-22T14:59:37Z</time>
      </trkpt>
      <trkpt lat="49.17034" lon="0.09282">
        <ele>81.9</ele>
        <time>2023-11-22T14:59:38Z</time>
      </trkpt>
      <trkpt lat="49.17044" lon="0.09273">
        <ele>81.7</ele>
        <time>2023-11-22T14:59:39Z</time>
      </trkpt>
      <trkpt lat="49.17054" lon="0.09264">
        <ele>81.4</ele>
        <time>2023-11-22T14:59:40Z</time>
      </trkpt>
      <trkpt lat="49.17065" lon="0.09255">
        <ele>81.2</ele>
        <time>2023-11-22T14:59:41Z</time>
      </trkpt>
      <trkpt lat="49.17075" lon="0.09246">
        <ele>81</ele>
        <time>2023-11-22T14:59:42Z</time>
      </trkpt>
      <trkpt lat="49.17085" lon="0.09238">
        <ele>80.9</ele>
        <time>2023-11-22T14:59:43Z</time>
      </trkpt>
      <trkpt lat="49.17094" lon="0.09229">
        <ele>80.7</ele>
        <time>2023-11-22T14:59:44Z</time>
      </trkpt>
      <trkpt lat="49.17104" lon="0.0922">
        <ele>80.4</ele>
        <time>2023-11-22T14:59:45Z</time>
      </trkpt>
      <trkpt lat="49.17113" lon="0.09209">
        <ele>80</ele>
        <time>2023-11-22T14:59:46Z</time>
      </trkpt>
      <trkpt lat="49.17122" lon="0.09199">
        <ele>79.7</ele>
        <time>2023-11-22T14:59:47Z</time>
      </trkpt>
      <trkpt lat="49.17131" lon="0.09188">
        <ele>79.3</ele>
        <time>2023-11-22T14:59:48Z</time>
      </trkpt>
      <trkpt lat="49.17141" lon="0.09177">
        <ele>79</ele>
        <time>2023-11-22T14:59:49Z</time>
      </trkpt>
      <trkpt lat="49.1715" lon="0.09165">
        <ele>78.6</ele>
        <time>2023-11-22T14:59:50Z</time>
      </trkpt>
      <trkpt lat="49.17159" lon="0.09155">
        <ele>78.2</ele>
        <time>2023-11-22T14:59:51Z</time>
      </trkpt>
      <trkpt lat="49.17168" lon="0.09143">
        <ele>77.8</ele>
        <time>2023-11-22T14:59:52Z</time>
      </trkpt>
      <trkpt lat="49.17178" lon="0.09132">
        <ele>77.4</ele>
        <time>2023-11-22T14:59:53Z</time>
      </trkpt>
      <trkpt lat="49.17187" lon="0.09121">
        <ele>77</ele>
        <time>2023-11-22T14:59:54Z</time>
      </trkpt>
      <trkpt lat="49.17196" lon="0.0911">
        <ele>76.7</ele>
        <time>2023-11-22T14:59:55Z</time>
      </trkpt>
      <trkpt lat="49.17206" lon="0.091">
        <ele>76.4</ele>
        <time>2023-11-22T14:59:56Z</time>
      </trkpt>
      <trkpt lat="49.17215" lon="0.09089">
        <ele>76.1</ele>
        <time>2023-11-22T14:59:57Z</time>
      </trkpt>
      <trkpt lat="49.17225" lon="0.09079">
        <ele>75.8</ele>
        <time>2023-11-22T14:59:58Z</time>
      </trkpt>
      <trkpt lat="49.17235" lon="0.09069">
        <ele>75.5</ele>
        <time>2023-11-22T14:59:59Z</time>
      </trkpt>
      <trkpt lat="49.17245" lon="0.0906">
        <ele>75.3</ele>
        <time>2023-11-22T15:00:00Z</time>
      </trkpt>
      <trkpt lat="49.17255" lon="0.0905">
        <ele>75.1</ele>
        <time>2023-11-22T15:00:01Z</time>
      </trkpt>
      <trkpt lat="49.17265" lon="0.0904">
        <ele>74.9</ele>
        <time>2023-11-22T15:00:02Z</time>
      </trkpt>
      <trkpt lat="49.17274" lon="0.0903">
        <ele>74.9</ele>
        <time>2023-11-22T15:00:03Z</time>
      </trkpt>
      <trkpt lat="49.17283" lon="0.0902">
        <ele>74.9</ele>
        <time>2023-11-22T15:00:04Z</time>
      </trkpt>
      <trkpt lat="49.17291" lon="0.09009">
        <ele>75.1</ele>
        <time>2023-11-22T15:00:05Z</time>
      </trkpt>
      <trkpt lat="49.173" lon="0.08999">
        <ele>75.3</ele>
        <time>2023-11-22T15:00:06Z</time>
      </trkpt>
      <trkpt lat="49.17308" lon="0.08989">
        <ele>75.7</ele>
        <time>2023-11-22T15:00:07Z</time>
      </trkpt>
      <trkpt lat="49.17315" lon="0.08979">
        <ele>76.2</ele>
        <time>2023-11-22T15:00:08Z</time>
      </trkpt>
      <trkpt lat="49.17321" lon="0.0897">
        <ele>76.7</ele>
        <time>2023-11-22T15:00:09Z</time>
      </trkpt>
      <trkpt lat="49.17327" lon="0.08962">
        <ele>77.2</ele>
        <time>2023-11-22T15:00:10Z</time>
      </trkpt>
      <trkpt lat="49.17332" lon="0.08955">
        <ele>77.8</ele>
        <time>2023-11-22T15:00:11Z</time>
      </trkpt>
      <trkpt lat="49.17337" lon="0.08948">
        <ele>78.3</ele>
        <time>2023-11-22T15:00:12Z</time>
      </trkpt>
      <trkpt lat="49.17342" lon="0.08942">
        <ele>78.8</ele>
        <time>2023-11-22T15:00:13Z</time>
      </trkpt>
      <trkpt lat="49.17346" lon="0.08936">
        <ele>79.2</ele>
        <time>2023-11-22T15:00:14Z</time>
      </trkpt>
      <trkpt lat="49.17351" lon="0.08931">
        <ele>79.7</ele>
        <time>2023-11-22T15:00:15Z</time>
      </trkpt>
      <trkpt lat="49.17354" lon="0.08926">
        <ele>80</ele>
        <time>2023-11-22T15:00:16Z</time>
      </trkpt>
      <trkpt lat="49.17357" lon="0.0892">
        <ele>80</ele>
        <time>2023-11-22T15:00:17Z</time>
      </trkpt>
      <trkpt lat="49.17358" lon="0.08912">
        <ele>79.7</ele>
        <time>2023-11-22T15:00:18Z</time>
      </trkpt>
      <trkpt lat="49.17357" lon="0.08903">
        <ele>79.4</ele>
        <time>2023-11-22T15:00:19Z</time>
      </trkpt>
      <trkpt lat="49.17356" lon="0.08894">
        <ele>79</ele>
        <time>2023-11-22T15:00:20Z</time>
      </trkpt>
      <trkpt lat="49.17354" lon="0.08885">
        <ele>78.7</ele>
        <time>2023-11-22T15:00:21Z</time>
      </trkpt>
      <trkpt lat="49.17351" lon="0.08876">
        <ele>78.4</ele>
        <time>2023-11-22T15:00:22Z</time>
      </trkpt>
      <trkpt lat="49.17348" lon="0.08867">
        <ele>78.2</ele>
        <time>2023-11-22T15:00:23Z</time>
      </trkpt>
      <trkpt lat="49.17345" lon="0.08858">
        <ele>78</ele>
        <time>2023-11-22T15:00:24Z</time>
      </trkpt>
      <trkpt lat="49.17342" lon="0.08848">
        <ele>77.8</ele>
        <time>2023-11-22T15:00:25Z</time>
      </trkpt>
      <trkpt lat="49.17339" lon="0.08839">
        <ele>77.7</ele>
        <time>2023-11-22T15:00:26Z</time>
      </trkpt>
      <trkpt lat="49.17336" lon="0.08829">
        <ele>77.5</ele>
        <time>2023-11-22T15:00:27Z</time>
      </trkpt>
      <trkpt lat="49.17333" lon="0.08819">
        <ele>77.4</ele>
        <time>2023-11-22T15:00:28Z</time>
      </trkpt>
      <trkpt lat="49.1733" lon="0.08809">
        <ele>77.3</ele>
        <time>2023-11-22T15:00:29Z</time>
      </trkpt>
      <trkpt lat="49.17327" lon="0.08799">
        <ele>77.2</ele>
        <time>2023-11-22T15:00:30Z</time>
      </trkpt>
      <trkpt lat="49.17324" lon="0.08789">
        <ele>77.1</ele>
        <time>2023-11-22T15:00:31Z</time>
      </trkpt>
      <trkpt lat="49.17322" lon="0.08779">
        <ele>77</ele>
        <time>2023-11-22T15:00:32Z</time>
      </trkpt>
      <trkpt lat="49.17319" lon="0.08769">
        <ele>76.8</ele>
        <time>2023-11-22T15:00:33Z</time>
      </trkpt>
      <trkpt lat="49.17317" lon="0.08759">
        <ele>76.7</ele>
        <time>2023-11-22T15:00:34Z</time>
      </trkpt>
      <trkpt lat="49.17314" lon="0.08747">
        <ele>76.6</ele>
        <time>2023-11-22T15:00:35Z</time>
      </trkpt>
      <trkpt lat="49.17311" lon="0.08736">
        <ele>76.5</ele>
        <time>2023-11-22T15:00:36Z</time>
      </trkpt>
      <trkpt lat="49.17307" lon="0.08725">
        <ele>76.4</ele>
        <time>2023-11-22T15:00:37Z</time>
      </trkpt>
      <trkpt lat="49.17304" lon="0.08714">
        <ele>76.3</ele>
        <time>2023-11-22T15:00:38Z</time>
      </trkpt>
      <trkpt lat="49.173" lon="0.08703">
        <ele>76.2</ele>
        <time>2023-11-22T15:00:39Z</time>
      </trkpt>
      <trkpt lat="49.17297" lon="0.08691">
        <ele>76.1</ele>
        <time>2023-11-22T15:00:40Z</time>
      </trkpt>
      <trkpt lat="49.17294" lon="0.08679">
        <ele>75.9</ele>
        <time>2023-11-22T15:00:41Z</time>
      </trkpt>
      <trkpt lat="49.1729" lon="0.08667">
        <ele>75.9</ele>
        <time>2023-11-22T15:00:42Z</time>
      </trkpt>
      <trkpt lat="49.17286" lon="0.08655">
        <ele>75.8</ele>
        <time>2023-11-22T15:00:43Z</time>
      </trkpt>
      <trkpt lat="49.17283" lon="0.08643">
        <ele>75.8</ele>
        <time>2023-11-22T15:00:44Z</time>
      </trkpt>
      <trkpt lat="49.17281" lon="0.08631">
        <ele>75.7</ele>
        <time>2023-11-22T15:00:45Z</time>
      </trkpt>
      <trkpt lat="49.17279" lon="0.08619">
        <ele>75.6</ele>
        <time>2023-11-22T15:00:46Z</time>
      </trkpt>
      <trkpt lat="49.17277" lon="0.08609">
        <ele>75.6</ele>
        <time>2023-11-22T15:00:47Z</time>
      </trkpt>
      <trkpt lat="49.17275" lon="0.08598">
        <ele>75.5</ele>
        <time>2023-11-22T15:00:48Z</time>
      </trkpt>
      <trkpt lat="49.17274" lon="0.08588">
        <ele>75.5</ele>
        <time>2023-11-22T15:00:49Z</time>
      </trkpt>
      <trkpt lat="49.17273" lon="0.08578">
        <ele>75.4</ele>
        <time>2023-11-22T15:00:50Z</time>
      </trkpt>
      <trkpt lat="49.17272" lon="0.08568">
        <ele>75.3</ele>
        <time>2023-11-22T15:00:51Z</time>
      </trkpt>
      <trkpt lat="49.1727" lon="0.08557">
        <ele>75.3</ele>
        <time>2023-11-22T15:00:52Z</time>
      </trkpt>
      <trkpt lat="49.17269" lon="0.08546">
        <ele>75.2</ele>
        <time>2023-11-22T15:00:53Z</time>
      </trkpt>
      <trkpt lat="49.17268" lon="0.08535">
        <ele>75.2</ele>
        <time>2023-11-22T15:00:54Z</time>
      </trkpt>
      <trkpt lat="49.17267" lon="0.08524">
        <ele>75.2</ele>
        <time>2023-11-22T15:00:55Z</time>
      </trkpt>
      <trkpt lat="49.17265" lon="0.08514">
        <ele>75.1</ele>
        <time>2023-11-22T15:00:56Z</time>
      </trkpt>
      <trkpt lat="49.17264" lon="0.08504">
        <ele>75.1</ele>
        <time>2023-11-22T15:00:57Z</time>
      </trkpt>
      <trkpt lat="49.17262" lon="0.08493">
        <ele>75.1</ele>
        <time>2023-11-22T15:00:58Z</time>
      </trkpt>
      <trkpt lat="49.17261" lon="0.08483">
        <ele>75</ele>
        <time>2023-11-22T15:00:59Z</time>
      </trkpt>
      <trkpt lat="49.17259" lon="0.08472">
        <ele>75</ele>
        <time>2023-11-22T15:01:00Z</time>
      </trkpt>
      <trkpt lat="49.17257" lon="0.08461">
        <ele>74.9</ele>
        <time>2023-11-22T15:01:01Z</time>
      </trkpt>
      <trkpt lat="49.17254" lon="0.08451">
        <ele>74.8</ele>
        <time>2023-11-22T15:01:02Z</time>
      </trkpt>
      <trkpt lat="49.17252" lon="0.0844">
        <ele>74.7</ele>
        <time>2023-11-22T15:01:03Z</time>
      </trkpt>
      <trkpt lat="49.17249" lon="0.0843">
        <ele>74.6</ele>
        <time>2023-11-22T15:01:04Z</time>
      </trkpt>
      <trkpt lat="49.17246" lon="0.08419">
        <ele>74.4</ele>
        <time>2023-11-22T15:01:05Z</time>
      </trkpt>
      <trkpt lat="49.17243" lon="0.08409">
        <ele>74.3</ele>
        <time>2023-11-22T15:01:06Z</time>
      </trkpt>
      <trkpt lat="49.1724" lon="0.08398">
        <ele>74.1</ele>
        <time>2023-11-22T15:01:07Z</time>
      </trkpt>
      <trkpt lat="49.17236" lon="0.08388">
        <ele>73.9</ele>
        <time>2023-11-22T15:01:08Z</time>
      </trkpt>
      <trkpt lat="49.17232" lon="0.08377">
        <ele>73.8</ele>
        <time>2023-11-22T15:01:09Z</time>
      </trkpt>
      <trkpt lat="49.17228" lon="0.08365">
        <ele>73.6</ele>
        <time>2023-11-22T15:01:10Z</time>
      </trkpt>
      <trkpt lat="49.17224" lon="0.08354">
        <ele>73.5</ele>
        <time>2023-11-22T15:01:11Z</time>
      </trkpt>
      <trkpt lat="49.17219" lon="0.08343">
        <ele>73.3</ele>
        <time>2023-11-22T15:01:12Z</time>
      </trkpt>
      <trkpt lat="49.17215" lon="0.08332">
        <ele>73.2</ele>
        <time>2023-11-22T15:01:13Z</time>
      </trkpt>
      <trkpt lat="49.1721" lon="0.08322">
        <ele>73.1</ele>
        <time>2023-11-22T15:01:14Z</time>
      </trkpt>
      <trkpt lat="49.17205" lon="0.08312">
        <ele>72.9</ele>
        <time>2023-11-22T15:01:15Z</time>
      </trkpt>
      <trkpt lat="49.17201" lon="0.08301">
        <ele>72.8</ele>
        <time>2023-11-22T15:01:16Z</time>
      </trkpt>
      <trkpt lat="49.17196" lon="0.0829">
        <ele>72.6</ele>
        <time>2023-11-22T15:01:17Z</time>
      </trkpt>
      <trkpt lat="49.17192" lon="0.08279">
        <ele>72.5</ele>
        <time>2023-11-22T15:01:18Z</time>
      </trkpt>
      <trkpt lat="49.17187" lon="0.08268">
        <ele>72.4</ele>
        <time>2023-11-22T15:01:19Z</time>
      </trkpt>
      <trkpt lat="49.17183" lon="0.08256">
        <ele>72.3</ele>
        <time>2023-11-22T15:01:20Z</time>
      </trkpt>
      <trkpt lat="49.1718" lon="0.08244">
        <ele>72.2</ele>
        <time>2023-11-22T15:01:21Z</time>
      </trkpt>
      <trkpt lat="49.17176" lon="0.08232">
        <ele>72.2</ele>
        <time>2023-11-22T15:01:22Z</time>
      </trkpt>
      <trkpt lat="49.17173" lon="0.0822">
        <ele>72.3</ele>
        <time>2023-11-22T15:01:23Z</time>
      </trkpt>
      <trkpt lat="49.1717" lon="0.08208">
        <ele>72.3</ele>
        <time>2023-11-22T15:01:24Z</time>
      </trkpt>
      <trkpt lat="49.17166" lon="0.08195">
        <ele>72.2</ele>
        <time>2023-11-22T15:01:25Z</time>
      </trkpt>
      <trkpt lat="49.17163" lon="0.08183">
        <ele>72.2</ele>
        <time>2023-11-22T15:01:26Z</time>
      </trkpt>
      <trkpt lat="49.17159" lon="0.08171">
        <ele>72.1</ele>
        <time>2023-11-22T15:01:27Z</time>
      </trkpt>
      <trkpt lat="49.17156" lon="0.08159">
        <ele>72.1</ele>
        <time>2023-11-22T15:01:28Z</time>
      </trkpt>
      <trkpt lat="49.17153" lon="0.08146">
        <ele>72</ele>
        <time>2023-11-22T15:01:29Z</time>
      </trkpt>
      <trkpt lat="49.1715" lon="0.08133">
        <ele>71.9</ele>
        <time>2023-11-22T15:01:30Z</time>
      </trkpt>
      <trkpt lat="49.17147" lon="0.08121">
        <ele>71.9</ele>
        <time>2023-11-22T15:01:31Z</time>
      </trkpt>
      <trkpt lat="49.17144" lon="0.08108">
        <ele>71.8</ele>
        <time>2023-11-22T15:01:32Z</time>
      </trkpt>
      <trkpt lat="49.1714" lon="0.08096">
        <ele>71.7</ele>
        <time>2023-11-22T15:01:33Z</time>
      </trkpt>
      <trkpt lat="49.17137" lon="0.08083">
        <ele>71.6</ele>
        <time>2023-11-22T15:01:34Z</time>
      </trkpt>
      <trkpt lat="49.17134" lon="0.08071">
        <ele>71.5</ele>
        <time>2023-11-22T15:01:35Z</time>
      </trkpt>
      <trkpt lat="49.17131" lon="0.08058">
        <ele>71.4</ele>
        <time>2023-11-22T15:01:36Z</time>
      </trkpt>
      <trkpt lat="49.17128" lon="0.08045">
        <ele>71.3</ele>
        <time>2023-11-22T15:01:37Z</time>
      </trkpt>
      <trkpt lat="49.17126" lon="0.08032">
        <ele>71.3</ele>
        <time>2023-11-22T15:01:38Z</time>
      </trkpt>
      <trkpt lat="49.17124" lon="0.08018">
        <ele>71.2</ele>
        <time>2023-11-22T15:01:39Z</time>
      </trkpt>
      <trkpt lat="49.17122" lon="0.08005">
        <ele>71.1</ele>
        <time>2023-11-22T15:01:40Z</time>
      </trkpt>
      <trkpt lat="49.1712" lon="0.07991">
        <ele>71</ele>
        <time>2023-11-22T15:01:41Z</time>
      </trkpt>
      <trkpt lat="49.17118" lon="0.07977">
        <ele>71</ele>
        <time>2023-11-22T15:01:42Z</time>
      </trkpt>
      <trkpt lat="49.17117" lon="0.07964">
        <ele>70.8</ele>
        <time>2023-11-22T15:01:43Z</time>
      </trkpt>
      <trkpt lat="49.17115" lon="0.07951">
        <ele>70.7</ele>
        <time>2023-11-22T15:01:44Z</time>
      </trkpt>
      <trkpt lat="49.17114" lon="0.07937">
        <ele>70.7</ele>
        <time>2023-11-22T15:01:45Z</time>
      </trkpt>
      <trkpt lat="49.17113" lon="0.07923">
        <ele>70.6</ele>
        <time>2023-11-22T15:01:46Z</time>
      </trkpt>
      <trkpt lat="49.17112" lon="0.07909">
        <ele>70.5</ele>
        <time>2023-11-22T15:01:47Z</time>
      </trkpt>
      <trkpt lat="49.17111" lon="0.07895">
        <ele>70.5</ele>
        <time>2023-11-22T15:01:48Z</time>
      </trkpt>
      <trkpt lat="49.1711" lon="0.07881">
        <ele>70.5</ele>
        <time>2023-11-22T15:01:49Z</time>
      </trkpt>
      <trkpt lat="49.17109" lon="0.07868">
        <ele>70.4</ele>
        <time>2023-11-22T15:01:50Z</time>
      </trkpt>
      <trkpt lat="49.17108" lon="0.07854">
        <ele>70.4</ele>
        <time>2023-11-22T15:01:51Z</time>
      </trkpt>
      <trkpt lat="49.17106" lon="0.07841">
        <ele>70.4</ele>
        <time>2023-11-22T15:01:52Z</time>
      </trkpt>
      <trkpt lat="49.17104" lon="0.07827">
        <ele>70.4</ele>
        <time>2023-11-22T15:01:53Z</time>
      </trkpt>
      <trkpt lat="49.17102" lon="0.07814">
        <ele>70.5</ele>
        <time>2023-11-22T15:01:54Z</time>
      </trkpt>
      <trkpt lat="49.17099" lon="0.07801">
        <ele>70.5</ele>
        <time>2023-11-22T15:01:55Z</time>
      </trkpt>
      <trkpt lat="49.17097" lon="0.07788">
        <ele>70.6</ele>
        <time>2023-11-22T15:01:56Z</time>
      </trkpt>
      <trkpt lat="49.17094" lon="0.07776">
        <ele>70.7</ele>
        <time>2023-11-22T15:01:57Z</time>
      </trkpt>
      <trkpt lat="49.17091" lon="0.07764">
        <ele>70.8</ele>
        <time>2023-11-22T15:01:58Z</time>
      </trkpt>
      <trkpt lat="49.17087" lon="0.07752">
        <ele>70.9</ele>
        <time>2023-11-22T15:01:59Z</time>
      </trkpt>
      <trkpt lat="49.17084" lon="0.0774">
        <ele>71</ele>
        <time>2023-11-22T15:02:00Z</time>
      </trkpt>
      <trkpt lat="49.17081" lon="0.07728">
        <ele>71.1</ele>
        <time>2023-11-22T15:02:01Z</time>
      </trkpt>
      <trkpt lat="49.17078" lon="0.07715">
        <ele>71.2</ele>
        <time>2023-11-22T15:02:02Z</time>
      </trkpt>
      <trkpt lat="49.17075" lon="0.07703">
        <ele>71.3</ele>
        <time>2023-11-22T15:02:03Z</time>
      </trkpt>
      <trkpt lat="49.17072" lon="0.0769">
        <ele>71.4</ele>
        <time>2023-11-22T15:02:04Z</time>
      </trkpt>
      <trkpt lat="49.1707" lon="0.07678">
        <ele>71.5</ele>
        <time>2023-11-22T15:02:05Z</time>
      </trkpt>
      <trkpt lat="49.17067" lon="0.07666">
        <ele>71.6</ele>
        <time>2023-11-22T15:02:06Z</time>
      </trkpt>
      <trkpt lat="49.17064" lon="0.07653">
        <ele>71.8</ele>
        <time>2023-11-22T15:02:07Z</time>
      </trkpt>
      <trkpt lat="49.17061" lon="0.07641">
        <ele>71.9</ele>
        <time>2023-11-22T15:02:08Z</time>
      </trkpt>
      <trkpt lat="49.17059" lon="0.0763">
        <ele>72</ele>
        <time>2023-11-22T15:02:09Z</time>
      </trkpt>
      <trkpt lat="49.17056" lon="0.07618">
        <ele>72.1</ele>
        <time>2023-11-22T15:02:10Z</time>
      </trkpt>
      <trkpt lat="49.17054" lon="0.07605">
        <ele>72.2</ele>
        <time>2023-11-22T15:02:11Z</time>
      </trkpt>
      <trkpt lat="49.17052" lon="0.07593">
        <ele>72.3</ele>
        <time>2023-11-22T15:02:12Z</time>
      </trkpt>
      <trkpt lat="49.1705" lon="0.07581">
        <ele>72.4</ele>
        <time>2023-11-22T15:02:13Z</time>
      </trkpt>
      <trkpt lat="49.17049" lon="0.07569">
        <ele>72.5</ele>
        <time>2023-11-22T15:02:14Z</time>
      </trkpt>
      <trkpt lat="49.17047" lon="0.07556">
        <ele>72.5</ele>
        <time>2023-11-22T15:02:15Z</time>
      </trkpt>
      <trkpt lat="49.17045" lon="0.07544">
        <ele>72.6</ele>
        <time>2023-11-22T15:02:16Z</time>
      </trkpt>
      <trkpt lat="49.17044" lon="0.07532">
        <ele>72.7</ele>
        <time>2023-11-22T15:02:17Z</time>
      </trkpt>
      <trkpt lat="49.17042" lon="0.07519">
        <ele>72.8</ele>
        <time>2023-11-22T15:02:18Z</time>
      </trkpt>
      <trkpt lat="49.17041" lon="0.07507">
        <ele>72.8</ele>
        <time>2023-11-22T15:02:19Z</time>
      </trkpt>
      <trkpt lat="49.17039" lon="0.07495">
        <ele>72.9</ele>
        <time>2023-11-22T15:02:20Z</time>
      </trkpt>
      <trkpt lat="49.17038" lon="0.07483">
        <ele>73</ele>
        <time>2023-11-22T15:02:21Z</time>
      </trkpt>
      <trkpt lat="49.17036" lon="0.07471">
        <ele>73</ele>
        <time>2023-11-22T15:02:22Z</time>
      </trkpt>
      <trkpt lat="49.17035" lon="0.07459">
        <ele>73.1</ele>
        <time>2023-11-22T15:02:23Z</time>
      </trkpt>
      <trkpt lat="49.17034" lon="0.07446">
        <ele>73.2</ele>
        <time>2023-11-22T15:02:24Z</time>
      </trkpt>
      <trkpt lat="49.17034" lon="0.07434">
        <ele>73.2</ele>
        <time>2023-11-22T15:02:25Z</time>
      </trkpt>
      <trkpt lat="49.17033" lon="0.07421">
        <ele>73.3</ele>
        <time>2023-11-22T15:02:26Z</time>
      </trkpt>
      <trkpt lat="49.17033" lon="0.07409">
        <ele>73.3</ele>
        <time>2023-11-22T15:02:27Z</time>
      </trkpt>
      <trkpt lat="49.17033" lon="0.07397">
        <ele>73.4</ele>
        <time>2023-11-22T15:02:28Z</time>
      </trkpt>
      <trkpt lat="49.17033" lon="0.07385">
        <ele>73.5</ele>
        <time>2023-11-22T15:02:29Z</time>
      </trkpt>
      <trkpt lat="49.17032" lon="0.07373">
        <ele>73.5</ele>
        <time>2023-11-22T15:02:30Z</time>
      </trkpt>
      <trkpt lat="49.17032" lon="0.07361">
        <ele>73.5</ele>
        <time>2023-11-22T15:02:31Z</time>
      </trkpt>
      <trkpt lat="49.17032" lon="0.07348">
        <ele>73.6</ele>
        <time>2023-11-22T15:02:32Z</time>
      </trkpt>
      <trkpt lat="49.17032" lon="0.07336">
        <ele>73.6</ele>
        <time>2023-11-22T15:02:33Z</time>
      </trkpt>
      <trkpt lat="49.17032" lon="0.07324">
        <ele>73.7</ele>
        <time>2023-11-22T15:02:34Z</time>
      </trkpt>
      <trkpt lat="49.17033" lon="0.07311">
        <ele>73.7</ele>
        <time>2023-11-22T15:02:35Z</time>
      </trkpt>
      <trkpt lat="49.17033" lon="0.07299">
        <ele>73.7</ele>
        <time>2023-11-22T15:02:36Z</time>
      </trkpt>
      <trkpt lat="49.17034" lon="0.07286">
        <ele>73.7</ele>
        <time>2023-11-22T15:02:37Z</time>
      </trkpt>
      <trkpt lat="49.17035" lon="0.07273">
        <ele>73.7</ele>
        <time>2023-11-22T15:02:38Z</time>
      </trkpt>
      <trkpt lat="49.17036" lon="0.07261">
        <ele>73.7</ele>
        <time>2023-11-22T15:02:39Z</time>
      </trkpt>
      <trkpt lat="49.17036" lon="0.07247">
        <ele>73.7</ele>
        <time>2023-11-22T15:02:40Z</time>
      </trkpt>
      <trkpt lat="49.17037" lon="0.07233">
        <ele>73.7</ele>
        <time>2023-11-22T15:02:41Z</time>
      </trkpt>
      <trkpt lat="49.17038" lon="0.07219">
        <ele>73.6</ele>
        <time>2023-11-22T15:02:42Z</time>
      </trkpt>
      <trkpt lat="49.17038" lon="0.07206">
        <ele>73.5</ele>
        <time>2023-11-22T15:02:43Z</time>
      </trkpt>
      <trkpt lat="49.17038" lon="0.07193">
        <ele>73.4</ele>
        <time>2023-11-22T15:02:44Z</time>
      </trkpt>
      <trkpt lat="49.17038" lon="0.0718">
        <ele>73.3</ele>
        <time>2023-11-22T15:02:45Z</time>
      </trkpt>
      <trkpt lat="49.17038" lon="0.07167">
        <ele>73.3</ele>
        <time>2023-11-22T15:02:46Z</time>
      </trkpt>
      <trkpt lat="49.17038" lon="0.07153">
        <ele>73.2</ele>
        <time>2023-11-22T15:02:47Z</time>
      </trkpt>
      <trkpt lat="49.17038" lon="0.0714">
        <ele>73.2</ele>
        <time>2023-11-22T15:02:48Z</time>
      </trkpt>
      <trkpt lat="49.17038" lon="0.07126">
        <ele>73.1</ele>
        <time>2023-11-22T15:02:49Z</time>
      </trkpt>
      <trkpt lat="49.17038" lon="0.07112">
        <ele>73</ele>
        <time>2023-11-22T15:02:50Z</time>
      </trkpt>
      <trkpt lat="49.17038" lon="0.07098">
        <ele>73</ele>
        <time>2023-11-22T15:02:51Z</time>
      </trkpt>
      <trkpt lat="49.17038" lon="0.07085">
        <ele>72.9</ele>
        <time>2023-11-22T15:02:52Z</time>
      </trkpt>
      <trkpt lat="49.17037" lon="0.07071">
        <ele>72.9</ele>
        <time>2023-11-22T15:02:53Z</time>
      </trkpt>
      <trkpt lat="49.17037" lon="0.07057">
        <ele>72.8</ele>
        <time>2023-11-22T15:02:54Z</time>
      </trkpt>
      <trkpt lat="49.17037" lon="0.07044">
        <ele>72.7</ele>
        <time>2023-11-22T15:02:55Z</time>
      </trkpt>
      <trkpt lat="49.17037" lon="0.0703">
        <ele>72.6</ele>
        <time>2023-11-22T15:02:56Z</time>
      </trkpt>
      <trkpt lat="49.17037" lon="0.07016">
        <ele>72.6</ele>
        <time>2023-11-22T15:02:57Z</time>
      </trkpt>
      <trkpt lat="49.17037" lon="0.07002">
        <ele>72.4</ele>
        <time>2023-11-22T15:02:58Z</time>
      </trkpt>
      <trkpt lat="49.17037" lon="0.06988">
        <ele>72.2</ele>
        <time>2023-11-22T15:02:59Z</time>
      </trkpt>
      <trkpt lat="49.17037" lon="0.06975">
        <ele>72</ele>
        <time>2023-11-22T15:03:00Z</time>
      </trkpt>
      <trkpt lat="49.17037" lon="0.06961">
        <ele>71.8</ele>
        <time>2023-11-22T15:03:01Z</time>
      </trkpt>
      <trkpt lat="49.17037" lon="0.06947">
        <ele>71.6</ele>
        <time>2023-11-22T15:03:02Z</time>
      </trkpt>
      <trkpt lat="49.17037" lon="0.06933">
        <ele>71.4</ele>
        <time>2023-11-22T15:03:03Z</time>
      </trkpt>
      <trkpt lat="49.17037" lon="0.0692">
        <ele>71.1</ele>
        <time>2023-11-22T15:03:04Z</time>
      </trkpt>
      <trkpt lat="49.17037" lon="0.06906">
        <ele>70.9</ele>
        <time>2023-11-22T15:03:05Z</time>
      </trkpt>
      <trkpt lat="49.17037" lon="0.06893">
        <ele>70.7</ele>
        <time>2023-11-22T15:03:06Z</time>
      </trkpt>
      <trkpt lat="49.17037" lon="0.06879">
        <ele>70.3</ele>
        <time>2023-11-22T15:03:07Z</time>
      </trkpt>
      <trkpt lat="49.17037" lon="0.06866">
        <ele>70</ele>
        <time>2023-11-22T15:03:08Z</time>
      </trkpt>
      <trkpt lat="49.17037" lon="0.06852">
        <ele>69.6</ele>
        <time>2023-11-22T15:03:09Z</time>
      </trkpt>
      <trkpt lat="49.17036" lon="0.06838">
        <ele>69.1</ele>
        <time>2023-11-22T15:03:10Z</time>
      </trkpt>
      <trkpt lat="49.17036" lon="0.06824">
        <ele>68.6</ele>
        <time>2023-11-22T15:03:11Z</time>
      </trkpt>
      <trkpt lat="49.17036" lon="0.06808">
        <ele>68</ele>
        <time>2023-11-22T15:03:12Z</time>
      </trkpt>
      <trkpt lat="49.17037" lon="0.06793">
        <ele>67.3</ele>
        <time>2023-11-22T15:03:13Z</time>
      </trkpt>
      <trkpt lat="49.1704" lon="0.06777">
        <ele>66.6</ele>
        <time>2023-11-22T15:03:14Z</time>
      </trkpt>
      <trkpt lat="49.17044" lon="0.06761">
        <ele>65.8</ele>
        <time>2023-11-22T15:03:15Z</time>
      </trkpt>
      <trkpt lat="49.17048" lon="0.06746">
        <ele>65.1</ele>
        <time>2023-11-22T15:03:16Z</time>
      </trkpt>
      <trkpt lat="49.17053" lon="0.0673">
        <ele>64.3</ele>
        <time>2023-11-22T15:03:17Z</time>
      </trkpt>
      <trkpt lat="49.17057" lon="0.06715">
        <ele>63.6</ele>
        <time>2023-11-22T15:03:18Z</time>
      </trkpt>
      <trkpt lat="49.17061" lon="0.06698">
        <ele>63</ele>
        <time>2023-11-22T15:03:19Z</time>
      </trkpt>
      <trkpt lat="49.17064" lon="0.0668">
        <ele>62.4</ele>
        <time>2023-11-22T15:03:20Z</time>
      </trkpt>
      <trkpt lat="49.17065" lon="0.06661">
        <ele>62.3</ele>
        <time>2023-11-22T15:03:21Z</time>
      </trkpt>
      <trkpt lat="49.17065" lon="0.06642">
        <ele>62.3</ele>
        <time>2023-11-22T15:03:22Z</time>
      </trkpt>
      <trkpt lat="49.17065" lon="0.06624">
        <ele>62.3</ele>
        <time>2023-11-22T15:03:23Z</time>
      </trkpt>
      <trkpt lat="49.17064" lon="0.06607">
        <ele>62.2</ele>
        <time>2023-11-22T15:03:24Z</time>
      </trkpt>
      <trkpt lat="49.17063" lon="0.0659">
        <ele>62.2</ele>
        <time>2023-11-22T15:03:25Z</time>
      </trkpt>
      <trkpt lat="49.17062" lon="0.06572">
        <ele>62.3</ele>
        <time>2023-11-22T15:03:26Z</time>
      </trkpt>
      <trkpt lat="49.17063" lon="0.06555">
        <ele>62.6</ele>
        <time>2023-11-22T15:03:27Z</time>
      </trkpt>
      <trkpt lat="49.17063" lon="0.06539">
        <ele>62.9</ele>
        <time>2023-11-22T15:03:28Z</time>
      </trkpt>
      <trkpt lat="49.17065" lon="0.06523">
        <ele>63.3</ele>
        <time>2023-11-22T15:03:29Z</time>
      </trkpt>
      <trkpt lat="49.17066" lon="0.06507">
        <ele>63.7</ele>
        <time>2023-11-22T15:03:30Z</time>
      </trkpt>
      <trkpt lat="49.17068" lon="0.06491">
        <ele>64.2</ele>
        <time>2023-11-22T15:03:31Z</time>
      </trkpt>
      <trkpt lat="49.1707" lon="0.06476">
        <ele>64.6</ele>
        <time>2023-11-22T15:03:32Z</time>
      </trkpt>
      <trkpt lat="49.17072" lon="0.06461">
        <ele>64.9</ele>
        <time>2023-11-22T15:03:33Z</time>
      </trkpt>
      <trkpt lat="49.17073" lon="0.06446">
        <ele>65.1</ele>
        <time>2023-11-22T15:03:34Z</time>
      </trkpt>
      <trkpt lat="49.17075" lon="0.06431">
        <ele>65.3</ele>
        <time>2023-11-22T15:03:35Z</time>
      </trkpt>
      <trkpt lat="49.17077" lon="0.06417">
        <ele>65.5</ele>
        <time>2023-11-22T15:03:36Z</time>
      </trkpt>
      <trkpt lat="49.17078" lon="0.06401">
        <ele>65.6</ele>
        <time>2023-11-22T15:03:37Z</time>
      </trkpt>
      <trkpt lat="49.1708" lon="0.06385">
        <ele>65.6</ele>
        <time>2023-11-22T15:03:38Z</time>
      </trkpt>
      <trkpt lat="49.17082" lon="0.0637">
        <ele>65.6</ele>
        <time>2023-11-22T15:03:39Z</time>
      </trkpt>
      <trkpt lat="49.17084" lon="0.06354">
        <ele>65.5</ele>
        <time>2023-11-22T15:03:40Z</time>
      </trkpt>
      <trkpt lat="49.17086" lon="0.06338">
        <ele>65.4</ele>
        <time>2023-11-22T15:03:41Z</time>
      </trkpt>
      <trkpt lat="49.17088" lon="0.06322">
        <ele>65.2</ele>
        <time>2023-11-22T15:03:42Z</time>
      </trkpt>
      <trkpt lat="49.1709" lon="0.06307">
        <ele>65</ele>
        <time>2023-11-22T15:03:43Z</time>
      </trkpt>
      <trkpt lat="49.17092" lon="0.06291">
        <ele>64.8</ele>
        <time>2023-11-22T15:03:44Z</time>
      </trkpt>
      <trkpt lat="49.17093" lon="0.06276">
        <ele>64.6</ele>
        <time>2023-11-22T15:03:45Z</time>
      </trkpt>
      <trkpt lat="49.17094" lon="0.0626">
        <ele>64.5</ele>
        <time>2023-11-22T15:03:46Z</time>
      </trkpt>
      <trkpt lat="49.17094" lon="0.06245">
        <ele>64.3</ele>
        <time>2023-11-22T15:03:47Z</time>
      </trkpt>
      <trkpt lat="49.17094" lon="0.0623">
        <ele>64.2</ele>
        <time>2023-11-22T15:03:48Z</time>
      </trkpt>
      <trkpt lat="49.17094" lon="0.06215">
        <ele>64.1</ele>
        <time>2023-11-22T15:03:49Z</time>
      </trkpt>
      <trkpt lat="49.17095" lon="0.06201">
        <ele>64</ele>
        <time>2023-11-22T15:03:50Z</time>
      </trkpt>
      <trkpt lat="49.17096" lon="0.06187">
        <ele>63.9</ele>
        <time>2023-11-22T15:03:51Z</time>
      </trkpt>
      <trkpt lat="49.17099" lon="0.06173">
        <ele>63.8</ele>
        <time>2023-11-22T15:03:52Z</time>
      </trkpt>
      <trkpt lat="49.17102" lon="0.0616">
        <ele>63.8</ele>
        <time>2023-11-22T15:03:53Z</time>
      </trkpt>
      <trkpt lat="49.17106" lon="0.06146">
        <ele>63.9</ele>
        <time>2023-11-22T15:03:54Z</time>
      </trkpt>
      <trkpt lat="49.17111" lon="0.06133">
        <ele>64</ele>
        <time>2023-11-22T15:03:55Z</time>
      </trkpt>
      <trkpt lat="49.17116" lon="0.06121">
        <ele>64.1</ele>
        <time>2023-11-22T15:03:56Z</time>
      </trkpt>
      <trkpt lat="49.17121" lon="0.06108">
        <ele>64.1</ele>
        <time>2023-11-22T15:03:57Z</time>
      </trkpt>
      <trkpt lat="49.17126" lon="0.06096">
        <ele>64.2</ele>
        <time>2023-11-22T15:03:58Z</time>
      </trkpt>
      <trkpt lat="49.1713" lon="0.06084">
        <ele>64.3</ele>
        <time>2023-11-22T15:03:59Z</time>
      </trkpt>
      <trkpt lat="49.17135" lon="0.06072">
        <ele>64.4</ele>
        <time>2023-11-22T15:04:00Z</time>
      </trkpt>
      <trkpt lat="49.17139" lon="0.0606">
        <ele>64.4</ele>
        <time>2023-11-22T15:04:01Z</time>
      </trkpt>
      <trkpt lat="49.17144" lon="0.06048">
        <ele>64.5</ele>
        <time>2023-11-22T15:04:02Z</time>
      </trkpt>
      <trkpt lat="49.17148" lon="0.06036">
        <ele>64.6</ele>
        <time>2023-11-22T15:04:03Z</time>
      </trkpt>
      <trkpt lat="49.17153" lon="0.06024">
        <ele>64.7</ele>
        <time>2023-11-22T15:04:04Z</time>
      </trkpt>
      <trkpt lat="49.17158" lon="0.06012">
        <ele>64.8</ele>
        <time>2023-11-22T15:04:05Z</time>
      </trkpt>
      <trkpt lat="49.17164" lon="0.06001">
        <ele>64.9</ele>
        <time>2023-11-22T15:04:06Z</time>
      </trkpt>
      <trkpt lat="49.1717" lon="0.05991">
        <ele>64.8</ele>
        <time>2023-11-22T15:04:07Z</time>
      </trkpt>
      <trkpt lat="49.17176" lon="0.05981">
        <ele>64.8</ele>
        <time>2023-11-22T15:04:08Z</time>
      </trkpt>
      <trkpt lat="49.17183" lon="0.05972">
        <ele>64.8</ele>
        <time>2023-11-22T15:04:09Z</time>
      </trkpt>
      <trkpt lat="49.1719" lon="0.05964">
        <ele>64.8</ele>
        <time>2023-11-22T15:04:10Z</time>
      </trkpt>
      <trkpt lat="49.17197" lon="0.05956">
        <ele>64.7</ele>
        <time>2023-11-22T15:04:11Z</time>
      </trkpt>
      <trkpt lat="49.17204" lon="0.05947">
        <ele>64.7</ele>
        <time>2023-11-22T15:04:12Z</time>
      </trkpt>
      <trkpt lat="49.17211" lon="0.05939">
        <ele>64.7</ele>
        <time>2023-11-22T15:04:13Z</time>
      </trkpt>
      <trkpt lat="49.17217" lon="0.05929">
        <ele>64.6</ele>
        <time>2023-11-22T15:04:14Z</time>
      </trkpt>
      <trkpt lat="49.17222" lon="0.05916">
        <ele>64.6</ele>
        <time>2023-11-22T15:04:15Z</time>
      </trkpt>
      <trkpt lat="49.17225" lon="0.05902">
        <ele>64.6</ele>
        <time>2023-11-22T15:04:16Z</time>
      </trkpt>
      <trkpt lat="49.17226" lon="0.05888">
        <ele>64.7</ele>
        <time>2023-11-22T15:04:17Z</time>
      </trkpt>
      <trkpt lat="49.17226" lon="0.05874">
        <ele>64.9</ele>
        <time>2023-11-22T15:04:18Z</time>
      </trkpt>
      <trkpt lat="49.17225" lon="0.0586">
        <ele>65.1</ele>
        <time>2023-11-22T15:04:19Z</time>
      </trkpt>
      <trkpt lat="49.17224" lon="0.05846">
        <ele>65.3</ele>
        <time>2023-11-22T15:04:20Z</time>
      </trkpt>
      <trkpt lat="49.17224" lon="0.05833">
        <ele>65.5</ele>
        <time>2023-11-22T15:04:21Z</time>
      </trkpt>
      <trkpt lat="49.17223" lon="0.0582">
        <ele>65.8</ele>
        <time>2023-11-22T15:04:22Z</time>
      </trkpt>
      <trkpt lat="49.17223" lon="0.05808">
        <ele>66.1</ele>
        <time>2023-11-22T15:04:23Z</time>
      </trkpt>
      <trkpt lat="49.17224" lon="0.05796">
        <ele>66.4</ele>
        <time>2023-11-22T15:04:24Z</time>
      </trkpt>
      <trkpt lat="49.17226" lon="0.05784">
        <ele>66.7</ele>
        <time>2023-11-22T15:04:25Z</time>
      </trkpt>
      <trkpt lat="49.17228" lon="0.05773">
        <ele>67</ele>
        <time>2023-11-22T15:04:26Z</time>
      </trkpt>
      <trkpt lat="49.17231" lon="0.05762">
        <ele>67.3</ele>
        <time>2023-11-22T15:04:27Z</time>
      </trkpt>
      <trkpt lat="49.17234" lon="0.05751">
        <ele>67.6</ele>
        <time>2023-11-22T15:04:28Z</time>
      </trkpt>
      <trkpt lat="49.17238" lon="0.05741">
        <ele>67.9</ele>
        <time>2023-11-22T15:04:29Z</time>
      </trkpt>
      <trkpt lat="49.17242" lon="0.05732">
        <ele>68.3</ele>
        <time>2023-11-22T15:04:30Z</time>
      </trkpt>
      <trkpt lat="49.17246" lon="0.05723">
        <ele>68.7</ele>
        <time>2023-11-22T15:04:31Z</time>
      </trkpt>
      <trkpt lat="49.17249" lon="0.05714">
        <ele>68.9</ele>
        <time>2023-11-22T15:04:32Z</time>
      </trkpt>
      <trkpt lat="49.17253" lon="0.05705">
        <ele>69.2</ele>
        <time>2023-11-22T15:04:33Z</time>
      </trkpt>
      <trkpt lat="49.17257" lon="0.05695">
        <ele>69.4</ele>
        <time>2023-11-22T15:04:34Z</time>
      </trkpt>
      <trkpt lat="49.17261" lon="0.05686">
        <ele>69.7</ele>
        <time>2023-11-22T15:04:35Z</time>
      </trkpt>
      <trkpt lat="49.17264" lon="0.05677">
        <ele>69.9</ele>
        <time>2023-11-22T15:04:36Z</time>
      </trkpt>
      <trkpt lat="49.17268" lon="0.05667">
        <ele>70.1</ele>
        <time>2023-11-22T15:04:37Z</time>
      </trkpt>
      <trkpt lat="49.17272" lon="0.05657">
        <ele>70.2</ele>
        <time>2023-11-22T15:04:38Z</time>
      </trkpt>
      <trkpt lat="49.17276" lon="0.05646">
        <ele>70.4</ele>
        <time>2023-11-22T15:04:39Z</time>
      </trkpt>
      <trkpt lat="49.1728" lon="0.05635">
        <ele>70.6</ele>
        <time>2023-11-22T15:04:40Z</time>
      </trkpt>
      <trkpt lat="49.17284" lon="0.05624">
        <ele>70.7</ele>
        <time>2023-11-22T15:04:41Z</time>
      </trkpt>
      <trkpt lat="49.17289" lon="0.05614">
        <ele>70.8</ele>
        <time>2023-11-22T15:04:42Z</time>
      </trkpt>
      <trkpt lat="49.17293" lon="0.05604">
        <ele>71</ele>
        <time>2023-11-22T15:04:43Z</time>
      </trkpt>
      <trkpt lat="49.17298" lon="0.05593">
        <ele>71.1</ele>
        <time>2023-11-22T15:04:44Z</time>
      </trkpt>
      <trkpt lat="49.17303" lon="0.05583">
        <ele>71.2</ele>
        <time>2023-11-22T15:04:45Z</time>
      </trkpt>
      <trkpt lat="49.17307" lon="0.05573">
        <ele>71.2</ele>
        <time>2023-11-22T15:04:46Z</time>
      </trkpt>
      <trkpt lat="49.17312" lon="0.05563">
        <ele>71.3</ele>
        <time>2023-11-22T15:04:47Z</time>
      </trkpt>
      <trkpt lat="49.17317" lon="0.05553">
        <ele>71.4</ele>
        <time>2023-11-22T15:04:48Z</time>
      </trkpt>
      <trkpt lat="49.17322" lon="0.05544">
        <ele>71.5</ele>
        <time>2023-11-22T15:04:49Z</time>
      </trkpt>
      <trkpt lat="49.17326" lon="0.05534">
        <ele>71.6</ele>
        <time>2023-11-22T15:04:50Z</time>
      </trkpt>
      <trkpt lat="49.17331" lon="0.05524">
        <ele>71.7</ele>
        <time>2023-11-22T15:04:51Z</time>
      </trkpt>
      <trkpt lat="49.17337" lon="0.05515">
        <ele>71.8</ele>
        <time>2023-11-22T15:04:52Z</time>
      </trkpt>
      <trkpt lat="49.17341" lon="0.05506">
        <ele>71.9</ele>
        <time>2023-11-22T15:04:53Z</time>
      </trkpt>
      <trkpt lat="49.17346" lon="0.05498">
        <ele>71.9</ele>
        <time>2023-11-22T15:04:54Z</time>
      </trkpt>
      <trkpt lat="49.17352" lon="0.0549">
        <ele>72</ele>
        <time>2023-11-22T15:04:55Z</time>
      </trkpt>
      <trkpt lat="49.17357" lon="0.05483">
        <ele>72.1</ele>
        <time>2023-11-22T15:04:56Z</time>
      </trkpt>
      <trkpt lat="49.17362" lon="0.05475">
        <ele>72.1</ele>
        <time>2023-11-22T15:04:57Z</time>
      </trkpt>
      <trkpt lat="49.17367" lon="0.05467">
        <ele>72.2</ele>
        <time>2023-11-22T15:04:58Z</time>
      </trkpt>
      <trkpt lat="49.17373" lon="0.0546">
        <ele>72.2</ele>
        <time>2023-11-22T15:04:59Z</time>
      </trkpt>
      <trkpt lat="49.17378" lon="0.05454">
        <ele>72.2</ele>
        <time>2023-11-22T15:05:00Z</time>
      </trkpt>
      <trkpt lat="49.17384" lon="0.05447">
        <ele>72.1</ele>
        <time>2023-11-22T15:05:01Z</time>
      </trkpt>
      <trkpt lat="49.17391" lon="0.0544">
        <ele>72</ele>
        <time>2023-11-22T15:05:02Z</time>
      </trkpt>
      <trkpt lat="49.17397" lon="0.05433">
        <ele>71.9</ele>
        <time>2023-11-22T15:05:03Z</time>
      </trkpt>
      <trkpt lat="49.17404" lon="0.05426">
        <ele>71.7</ele>
        <time>2023-11-22T15:05:04Z</time>
      </trkpt>
      <trkpt lat="49.1741" lon="0.05418">
        <ele>71.5</ele>
        <time>2023-11-22T15:05:05Z</time>
      </trkpt>
      <trkpt lat="49.17416" lon="0.0541">
        <ele>71.2</ele>
        <time>2023-11-22T15:05:06Z</time>
      </trkpt>
      <trkpt lat="49.17421" lon="0.054">
        <ele>70.9</ele>
        <time>2023-11-22T15:05:07Z</time>
      </trkpt>
      <trkpt lat="49.17425" lon="0.05388">
        <ele>70.5</ele>
        <time>2023-11-22T15:05:08Z</time>
      </trkpt>
      <trkpt lat="49.17429" lon="0.05376">
        <ele>70.1</ele>
        <time>2023-11-22T15:05:09Z</time>
      </trkpt>
      <trkpt lat="49.17432" lon="0.05363">
        <ele>69.7</ele>
        <time>2023-11-22T15:05:10Z</time>
      </trkpt>
      <trkpt lat="49.17435" lon="0.0535">
        <ele>69.3</ele>
        <time>2023-11-22T15:05:11Z</time>
      </trkpt>
      <trkpt lat="49.17438" lon="0.05335">
        <ele>68.9</ele>
        <time>2023-11-22T15:05:12Z</time>
      </trkpt>
      <trkpt lat="49.1744" lon="0.0532">
        <ele>68.5</ele>
        <time>2023-11-22T15:05:13Z</time>
      </trkpt>
      <trkpt lat="49.1744" lon="0.05304">
        <ele>68.2</ele>
        <time>2023-11-22T15:05:14Z</time>
      </trkpt>
      <trkpt lat="49.17439" lon="0.05289">
        <ele>67.9</ele>
        <time>2023-11-22T15:05:15Z</time>
      </trkpt>
      <trkpt lat="49.17437" lon="0.05274">
        <ele>67.7</ele>
        <time>2023-11-22T15:05:16Z</time>
      </trkpt>
      <trkpt lat="49.17435" lon="0.05259">
        <ele>67.6</ele>
        <time>2023-11-22T15:05:17Z</time>
      </trkpt>
      <trkpt lat="49.17434" lon="0.05245">
        <ele>67.5</ele>
        <time>2023-11-22T15:05:18Z</time>
      </trkpt>
      <trkpt lat="49.17433" lon="0.0523">
        <ele>67.4</ele>
        <time>2023-11-22T15:05:19Z</time>
      </trkpt>
      <trkpt lat="49.17433" lon="0.05215">
        <ele>67.3</ele>
        <time>2023-11-22T15:05:20Z</time>
      </trkpt>
      <trkpt lat="49.17435" lon="0.05201">
        <ele>67.2</ele>
        <time>2023-11-22T15:05:21Z</time>
      </trkpt>
      <trkpt lat="49.17438" lon="0.05188">
        <ele>67.1</ele>
        <time>2023-11-22T15:05:22Z</time>
      </trkpt>
      <trkpt lat="49.17443" lon="0.05176">
        <ele>67</ele>
        <time>2023-11-22T15:05:23Z</time>
      </trkpt>
      <trkpt lat="49.17448" lon="0.05163">
        <ele>67</ele>
        <time>2023-11-22T15:05:24Z</time>
      </trkpt>
      <trkpt lat="49.17453" lon="0.0515">
        <ele>67.1</ele>
        <time>2023-11-22T15:05:25Z</time>
      </trkpt>
      <trkpt lat="49.17458" lon="0.05137">
        <ele>67.2</ele>
        <time>2023-11-22T15:05:26Z</time>
      </trkpt>
      <trkpt lat="49.17463" lon="0.05124">
        <ele>67.4</ele>
        <time>2023-11-22T15:05:27Z</time>
      </trkpt>
      <trkpt lat="49.17467" lon="0.0511">
        <ele>67.4</ele>
        <time>2023-11-22T15:05:28Z</time>
      </trkpt>
      <trkpt lat="49.17472" lon="0.05097">
        <ele>67.4</ele>
        <time>2023-11-22T15:05:29Z</time>
      </trkpt>
      <trkpt lat="49.17476" lon="0.05083">
        <ele>67.4</ele>
        <time>2023-11-22T15:05:30Z</time>
      </trkpt>
      <trkpt lat="49.1748" lon="0.0507">
        <ele>67.4</ele>
        <time>2023-11-22T15:05:31Z</time>
      </trkpt>
      <trkpt lat="49.17485" lon="0.05057">
        <ele>67.5</ele>
        <time>2023-11-22T15:05:32Z</time>
      </trkpt>
      <trkpt lat="49.17489" lon="0.05044">
        <ele>67.5</ele>
        <time>2023-11-22T15:05:33Z</time>
      </trkpt>
      <trkpt lat="49.17495" lon="0.05031">
        <ele>67.5</ele>
        <time>2023-11-22T15:05:34Z</time>
      </trkpt>
      <trkpt lat="49.175" lon="0.05019">
        <ele>67.4</ele>
        <time>2023-11-22T15:05:35Z</time>
      </trkpt>
      <trkpt lat="49.17506" lon="0.05008">
        <ele>67.4</ele>
        <time>2023-11-22T15:05:36Z</time>
      </trkpt>
      <trkpt lat="49.17512" lon="0.04997">
        <ele>67.3</ele>
        <time>2023-11-22T15:05:37Z</time>
      </trkpt>
      <trkpt lat="49.17518" lon="0.04985">
        <ele>67.2</ele>
        <time>2023-11-22T15:05:38Z</time>
      </trkpt>
      <trkpt lat="49.17524" lon="0.04973">
        <ele>67.2</ele>
        <time>2023-11-22T15:05:39Z</time>
      </trkpt>
      <trkpt lat="49.1753" lon="0.04962">
        <ele>67.1</ele>
        <time>2023-11-22T15:05:40Z</time>
      </trkpt>
      <trkpt lat="49.17535" lon="0.0495">
        <ele>67</ele>
        <time>2023-11-22T15:05:41Z</time>
      </trkpt>
      <trkpt lat="49.17541" lon="0.04938">
        <ele>66.9</ele>
        <time>2023-11-22T15:05:42Z</time>
      </trkpt>
      <trkpt lat="49.17548" lon="0.04926">
        <ele>66.7</ele>
        <time>2023-11-22T15:05:43Z</time>
      </trkpt>
      <trkpt lat="49.17554" lon="0.04914">
        <ele>66.6</ele>
        <time>2023-11-22T15:05:44Z</time>
      </trkpt>
      <trkpt lat="49.1756" lon="0.04903">
        <ele>66.5</ele>
        <time>2023-11-22T15:05:45Z</time>
      </trkpt>
      <trkpt lat="49.17566" lon="0.04891">
        <ele>66.3</ele>
        <time>2023-11-22T15:05:46Z</time>
      </trkpt>
      <trkpt lat="49.17572" lon="0.04878">
        <ele>66.2</ele>
        <time>2023-11-22T15:05:47Z</time>
      </trkpt>
      <trkpt lat="49.17578" lon="0.04866">
        <ele>66</ele>
        <time>2023-11-22T15:05:48Z</time>
      </trkpt>
      <trkpt lat="49.17584" lon="0.04854">
        <ele>65.9</ele>
        <time>2023-11-22T15:05:49Z</time>
      </trkpt>
      <trkpt lat="49.1759" lon="0.04842">
        <ele>65.7</ele>
        <time>2023-11-22T15:05:50Z</time>
      </trkpt>
      <trkpt lat="49.17596" lon="0.0483">
        <ele>65.6</ele>
        <time>2023-11-22T15:05:51Z</time>
      </trkpt>
      <trkpt lat="49.17603" lon="0.04818">
        <ele>65.4</ele>
        <time>2023-11-22T15:05:52Z</time>
      </trkpt>
      <trkpt lat="49.17609" lon="0.04806">
        <ele>65.3</ele>
        <time>2023-11-22T15:05:53Z</time>
      </trkpt>
      <trkpt lat="49.17615" lon="0.04794">
        <ele>65.1</ele>
        <time>2023-11-22T15:05:54Z</time>
      </trkpt>
      <trkpt lat="49.17621" lon="0.04782">
        <ele>65</ele>
        <time>2023-11-22T15:05:55Z</time>
      </trkpt>
      <trkpt lat="49.17628" lon="0.0477">
        <ele>64.8</ele>
        <time>2023-11-22T15:05:56Z</time>
      </trkpt>
      <trkpt lat="49.17635" lon="0.04758">
        <ele>64.7</ele>
        <time>2023-11-22T15:05:57Z</time>
      </trkpt>
      <trkpt lat="49.17642" lon="0.04747">
        <ele>64.6</ele>
        <time>2023-11-22T15:05:58Z</time>
      </trkpt>
      <trkpt lat="49.17649" lon="0.04735">
        <ele>64.5</ele>
        <time>2023-11-22T15:05:59Z</time>
      </trkpt>
      <trkpt lat="49.17657" lon="0.04724">
        <ele>64.5</ele>
        <time>2023-11-22T15:06:00Z</time>
      </trkpt>
      <trkpt lat="49.17664" lon="0.04712">
        <ele>64.4</ele>
        <time>2023-11-22T15:06:01Z</time>
      </trkpt>
      <trkpt lat="49.17671" lon="0.04702">
        <ele>64.3</ele>
        <time>2023-11-22T15:06:02Z</time>
      </trkpt>
      <trkpt lat="49.17678" lon="0.04691">
        <ele>64.1</ele>
        <time>2023-11-22T15:06:03Z</time>
      </trkpt>
      <trkpt lat="49.17686" lon="0.04679">
        <ele>64.1</ele>
        <time>2023-11-22T15:06:04Z</time>
      </trkpt>
      <trkpt lat="49.17693" lon="0.04668">
        <ele>64</ele>
        <time>2023-11-22T15:06:05Z</time>
      </trkpt>
      <trkpt lat="49.177" lon="0.04656">
        <ele>63.9</ele>
        <time>2023-11-22T15:06:06Z</time>
      </trkpt>
      <trkpt lat="49.17707" lon="0.04645">
        <ele>63.8</ele>
        <time>2023-11-22T15:06:07Z</time>
      </trkpt>
      <trkpt lat="49.17715" lon="0.04634">
        <ele>63.7</ele>
        <time>2023-11-22T15:06:08Z</time>
      </trkpt>
      <trkpt lat="49.17722" lon="0.04623">
        <ele>63.7</ele>
        <time>2023-11-22T15:06:09Z</time>
      </trkpt>
      <trkpt lat="49.17729" lon="0.04613">
        <ele>63.7</ele>
        <time>2023-11-22T15:06:10Z</time>
      </trkpt>
      <trkpt lat="49.17735" lon="0.04602">
        <ele>63.6</ele>
        <time>2023-11-22T15:06:11Z</time>
      </trkpt>
      <trkpt lat="49.17742" lon="0.04591">
        <ele>63.6</ele>
        <time>2023-11-22T15:06:12Z</time>
      </trkpt>
      <trkpt lat="49.17749" lon="0.04581">
        <ele>63.6</ele>
        <time>2023-11-22T15:06:13Z</time>
      </trkpt>
      <trkpt lat="49.17756" lon="0.04571">
        <ele>63.5</ele>
        <time>2023-11-22T15:06:14Z</time>
      </trkpt>
      <trkpt lat="49.17764" lon="0.0456">
        <ele>63.3</ele>
        <time>2023-11-22T15:06:15Z</time>
      </trkpt>
      <trkpt lat="49.17771" lon="0.0455">
        <ele>63.2</ele>
        <time>2023-11-22T15:06:16Z</time>
      </trkpt>
      <trkpt lat="49.17778" lon="0.0454">
        <ele>63</ele>
        <time>2023-11-22T15:06:17Z</time>
      </trkpt>
      <trkpt lat="49.17785" lon="0.0453">
        <ele>62.8</ele>
        <time>2023-11-22T15:06:18Z</time>
      </trkpt>
      <trkpt lat="49.17793" lon="0.04519">
        <ele>62.6</ele>
        <time>2023-11-22T15:06:19Z</time>
      </trkpt>
      <trkpt lat="49.17801" lon="0.04509">
        <ele>62.2</ele>
        <time>2023-11-22T15:06:20Z</time>
      </trkpt>
      <trkpt lat="49.17809" lon="0.04499">
        <ele>61.7</ele>
        <time>2023-11-22T15:06:21Z</time>
      </trkpt>
      <trkpt lat="49.17817" lon="0.04489">
        <ele>61.2</ele>
        <time>2023-11-22T15:06:22Z</time>
      </trkpt>
      <trkpt lat="49.17825" lon="0.04478">
        <ele>60.6</ele>
        <time>2023-11-22T15:06:23Z</time>
      </trkpt>
      <trkpt lat="49.17834" lon="0.04467">
        <ele>59.9</ele>
        <time>2023-11-22T15:06:24Z</time>
      </trkpt>
      <trkpt lat="49.17843" lon="0.04456">
        <ele>59.1</ele>
        <time>2023-11-22T15:06:25Z</time>
      </trkpt>
      <trkpt lat="49.17852" lon="0.04445">
        <ele>58.4</ele>
        <time>2023-11-22T15:06:26Z</time>
      </trkpt>
      <trkpt lat="49.17861" lon="0.04433">
        <ele>57.6</ele>
        <time>2023-11-22T15:06:27Z</time>
      </trkpt>
      <trkpt lat="49.1787" lon="0.04422">
        <ele>56.8</ele>
        <time>2023-11-22T15:06:28Z</time>
      </trkpt>
      <trkpt lat="49.17879" lon="0.04411">
        <ele>56</ele>
        <time>2023-11-22T15:06:29Z</time>
      </trkpt>
      <trkpt lat="49.17888" lon="0.044">
        <ele>55.2</ele>
        <time>2023-11-22T15:06:30Z</time>
      </trkpt>
      <trkpt lat="49.17897" lon="0.0439">
        <ele>54.4</ele>
        <time>2023-11-22T15:06:31Z</time>
      </trkpt>
      <trkpt lat="49.17905" lon="0.04379">
        <ele>53.7</ele>
        <time>2023-11-22T15:06:32Z</time>
      </trkpt>
      <trkpt lat="49.17914" lon="0.04369">
        <ele>52.9</ele>
        <time>2023-11-22T15:06:33Z</time>
      </trkpt>
      <trkpt lat="49.17923" lon="0.04358">
        <ele>52.1</ele>
        <time>2023-11-22T15:06:34Z</time>
      </trkpt>
      <trkpt lat="49.17932" lon="0.04348">
        <ele>51.2</ele>
        <time>2023-11-22T15:06:35Z</time>
      </trkpt>
      <trkpt lat="49.17941" lon="0.04336">
        <ele>50.3</ele>
        <time>2023-11-22T15:06:36Z</time>
      </trkpt>
      <trkpt lat="49.1795" lon="0.04323">
        <ele>49.4</ele>
        <time>2023-11-22T15:06:37Z</time>
      </trkpt>
      <trkpt lat="49.17958" lon="0.04309">
        <ele>48.4</ele>
        <time>2023-11-22T15:06:38Z</time>
      </trkpt>
      <trkpt lat="49.17966" lon="0.04295">
        <ele>47.5</ele>
        <time>2023-11-22T15:06:39Z</time>
      </trkpt>
      <trkpt lat="49.17972" lon="0.0428">
        <ele>46.6</ele>
        <time>2023-11-22T15:06:40Z</time>
      </trkpt>
      <trkpt lat="49.17979" lon="0.04264">
        <ele>45.6</ele>
        <time>2023-11-22T15:06:41Z</time>
      </trkpt>
      <trkpt lat="49.17986" lon="0.04248">
        <ele>44.5</ele>
        <time>2023-11-22T15:06:42Z</time>
      </trkpt>
      <trkpt lat="49.17992" lon="0.04233">
        <ele>43.6</ele>
        <time>2023-11-22T15:06:43Z</time>
      </trkpt>
      <trkpt lat="49.17999" lon="0.04217">
        <ele>42.7</ele>
        <time>2023-11-22T15:06:44Z</time>
      </trkpt>
      <trkpt lat="49.18005" lon="0.04202">
        <ele>41.9</ele>
        <time>2023-11-22T15:06:45Z</time>
      </trkpt>
      <trkpt lat="49.18011" lon="0.04188">
        <ele>41.2</ele>
        <time>2023-11-22T15:06:46Z</time>
      </trkpt>
      <trkpt lat="49.18016" lon="0.04174">
        <ele>40.7</ele>
        <time>2023-11-22T15:06:47Z</time>
      </trkpt>
      <trkpt lat="49.18021" lon="0.04162">
        <ele>40.2</ele>
        <time>2023-11-22T15:06:48Z</time>
      </trkpt>
      <trkpt lat="49.18026" lon="0.04149">
        <ele>39.7</ele>
        <time>2023-11-22T15:06:49Z</time>
      </trkpt>
      <trkpt lat="49.18032" lon="0.04138">
        <ele>39.3</ele>
        <time>2023-11-22T15:06:50Z</time>
      </trkpt>
      <trkpt lat="49.18038" lon="0.04128">
        <ele>38.9</ele>
        <time>2023-11-22T15:06:51Z</time>
      </trkpt>
      <trkpt lat="49.18046" lon="0.0412">
        <ele>38.5</ele>
        <time>2023-11-22T15:06:52Z</time>
      </trkpt>
      <trkpt lat="49.18054" lon="0.04115">
        <ele>38.2</ele>
        <time>2023-11-22T15:06:53Z</time>
      </trkpt>
      <trkpt lat="49.18063" lon="0.04111">
        <ele>37.9</ele>
        <time>2023-11-22T15:06:54Z</time>
      </trkpt>
      <trkpt lat="49.18072" lon="0.04109">
        <ele>37.7</ele>
        <time>2023-11-22T15:06:55Z</time>
      </trkpt>
      <trkpt lat="49.18081" lon="0.04107">
        <ele>37.6</ele>
        <time>2023-11-22T15:06:56Z</time>
      </trkpt>
      <trkpt lat="49.1809" lon="0.04105">
        <ele>37.5</ele>
        <time>2023-11-22T15:06:57Z</time>
      </trkpt>
      <trkpt lat="49.18099" lon="0.04104">
        <ele>37.3</ele>
        <time>2023-11-22T15:06:58Z</time>
      </trkpt>
      <trkpt lat="49.18109" lon="0.04102">
        <ele>37.2</ele>
        <time>2023-11-22T15:06:59Z</time>
      </trkpt>
      <trkpt lat="49.18118" lon="0.041">
        <ele>37</ele>
        <time>2023-11-22T15:07:00Z</time>
      </trkpt>
      <trkpt lat="49.18127" lon="0.04098">
        <ele>36.8</ele>
        <time>2023-11-22T15:07:01Z</time>
      </trkpt>
      <trkpt lat="49.18136" lon="0.04096">
        <ele>36.6</ele>
        <time>2023-11-22T15:07:02Z</time>
      </trkpt>
      <trkpt lat="49.18146" lon="0.04094">
        <ele>36.5</ele>
        <time>2023-11-22T15:07:03Z</time>
      </trkpt>
      <trkpt lat="49.18156" lon="0.04092">
        <ele>36.3</ele>
        <time>2023-11-22T15:07:04Z</time>
      </trkpt>
      <trkpt lat="49.18165" lon="0.04092">
        <ele>36.2</ele>
        <time>2023-11-22T15:07:05Z</time>
      </trkpt>
      <trkpt lat="49.18175" lon="0.04092">
        <ele>36.1</ele>
        <time>2023-11-22T15:07:06Z</time>
      </trkpt>
      <trkpt lat="49.18184" lon="0.04092">
        <ele>36</ele>
        <time>2023-11-22T15:07:07Z</time>
      </trkpt>
      <trkpt lat="49.18193" lon="0.04093">
        <ele>35.9</ele>
        <time>2023-11-22T15:07:08Z</time>
      </trkpt>
      <trkpt lat="49.18203" lon="0.04093">
        <ele>35.8</ele>
        <time>2023-11-22T15:07:09Z</time>
      </trkpt>
      <trkpt lat="49.18212" lon="0.04093">
        <ele>35.8</ele>
        <time>2023-11-22T15:07:10Z</time>
      </trkpt>
      <trkpt lat="49.18222" lon="0.04093">
        <ele>35.8</ele>
        <time>2023-11-22T15:07:11Z</time>
      </trkpt>
      <trkpt lat="49.18231" lon="0.04093">
        <ele>35.8</ele>
        <time>2023-11-22T15:07:12Z</time>
      </trkpt>
      <trkpt lat="49.1824" lon="0.04093">
        <ele>35.8</ele>
        <time>2023-11-22T15:07:13Z</time>
      </trkpt>
      <trkpt lat="49.18248" lon="0.04094">
        <ele>35.8</ele>
        <time>2023-11-22T15:07:14Z</time>
      </trkpt>
      <trkpt lat="49.18255" lon="0.04094">
        <ele>35.7</ele>
        <time>2023-11-22T15:07:15Z</time>
      </trkpt>
      <trkpt lat="49.18263" lon="0.04094">
        <ele>35.7</ele>
        <time>2023-11-22T15:07:16Z</time>
      </trkpt>
      <trkpt lat="49.1827" lon="0.04094">
        <ele>35.8</ele>
        <time>2023-11-22T15:07:17Z</time>
      </trkpt>
      <trkpt lat="49.18277" lon="0.04096">
        <ele>35.8</ele>
        <time>2023-11-22T15:07:18Z</time>
      </trkpt>
      <trkpt lat="49.18284" lon="0.04097">
        <ele>35.8</ele>
        <time>2023-11-22T15:07:19Z</time>
      </trkpt>
      <trkpt lat="49.1829" lon="0.04098">
        <ele>35.8</ele>
        <time>2023-11-22T15:07:20Z</time>
      </trkpt>
      <trkpt lat="49.18296" lon="0.04099">
        <ele>35.8</ele>
        <time>2023-11-22T15:07:21Z</time>
      </trkpt>
      <trkpt lat="49.18302" lon="0.04099">
        <ele>35.8</ele>
        <time>2023-11-22T15:07:22Z</time>
      </trkpt>
      <trkpt lat="49.18307" lon="0.041">
        <ele>35.8</ele>
        <time>2023-11-22T15:07:23Z</time>
      </trkpt>
      <trkpt lat="49.18313" lon="0.041">
        <ele>35.8</ele>
        <time>2023-11-22T15:07:24Z</time>
      </trkpt>
      <trkpt lat="49.18318" lon="0.04101">
        <ele>35.8</ele>
        <time>2023-11-22T15:07:25Z</time>
      </trkpt>
      <trkpt lat="49.18323" lon="0.04102">
        <ele>35.8</ele>
        <time>2023-11-22T15:07:26Z</time>
      </trkpt>
      <trkpt lat="49.18328" lon="0.04103">
        <ele>35.7</ele>
        <time>2023-11-22T15:07:27Z</time>
      </trkpt>
      <trkpt lat="49.18334" lon="0.04103">
        <ele>35.7</ele>
        <time>2023-11-22T15:07:28Z</time>
      </trkpt>
      <trkpt lat="49.18339" lon="0.04104">
        <ele>35.7</ele>
        <time>2023-11-22T15:07:29Z</time>
      </trkpt>
      <trkpt lat="49.18344" lon="0.04104">
        <ele>35.8</ele>
        <time>2023-11-22T15:07:30Z</time>
      </trkpt>
      <trkpt lat="49.18349" lon="0.04105">
        <ele>35.8</ele>
        <time>2023-11-22T15:07:31Z</time>
      </trkpt>
      <trkpt lat="49.18354" lon="0.04106">
        <ele>35.8</ele>
        <time>2023-11-22T15:07:32Z</time>
      </trkpt>
      <trkpt lat="49.18359" lon="0.04106">
        <ele>35.9</ele>
        <time>2023-11-22T15:07:33Z</time>
      </trkpt>
      <trkpt lat="49.18362" lon="0.04106">
        <ele>35.9</ele>
        <time>2023-11-22T15:07:34Z</time>
      </trkpt>
      <trkpt lat="49.18365" lon="0.04107">
        <ele>36</ele>
        <time>2023-11-22T15:07:35Z</time>
      </trkpt>
      <trkpt lat="49.18366" lon="0.04107">
        <ele>36</ele>
        <time>2023-11-22T15:07:36Z</time>
      </trkpt>
      <trkpt lat="49.18368" lon="0.04107">
        <ele>36</ele>
        <time>2023-11-22T15:07:37Z</time>
      </trkpt>
      <trkpt lat="49.18369" lon="0.04107">
        <ele>36</ele>
        <time>2023-11-22T15:07:38Z</time>
      </trkpt>
      <trkpt lat="49.18371" lon="0.04106">
        <ele>36</ele>
        <time>2023-11-22T15:07:39Z</time>
      </trkpt>
      <trkpt lat="49.18373" lon="0.04105">
        <ele>36.1</ele>
        <time>2023-11-22T15:07:40Z</time>
      </trkpt>
      <trkpt lat="49.18374" lon="0.04105">
        <ele>36.1</ele>
        <time>2023-11-22T15:07:41Z</time>
      </trkpt>
      <trkpt lat="49.18374" lon="0.04104">
        <ele>36.1</ele>
        <time>2023-11-22T15:07:42Z</time>
      </trkpt>
      <trkpt lat="49.18374" lon="0.04103">
        <ele>36.1</ele>
        <time>2023-11-22T15:07:43Z</time>
      </trkpt>
      <trkpt lat="49.18374" lon="0.04103">
        <ele>36.1</ele>
        <time>2023-11-22T15:07:44Z</time>
      </trkpt>
      <trkpt lat="49.18374" lon="0.04103">
        <ele>36.1</ele>
        <time>2023-11-22T15:07:45Z</time>
      </trkpt>
      <trkpt lat="49.18374" lon="0.04103">
        <ele>36.1</ele>
        <time>2023-11-22T15:07:46Z</time>
      </trkpt>
      <trkpt lat="49.18374" lon="0.04103">
        <ele>36.1</ele>
        <time>2023-11-22T15:07:47Z</time>
      </trkpt>
      <trkpt lat="49.18374" lon="0.04103">
        <ele>36.1</ele>
        <time>2023-11-22T15:07:48Z</time>
      </trkpt>
      <trkpt lat="49.18374" lon="0.04103">
        <ele>36.1</ele>
        <time>2023-11-22T15:07:49Z</time>
      </trkpt>
      <trkpt lat="49.18374" lon="0.04103">
        <ele>36.1</ele>
        <time>2023-11-22T15:07:50Z</time>
      </trkpt>
      <trkpt lat="49.18374" lon="0.04103">
        <ele>36.1</ele>
        <time>2023-11-22T15:07:51Z</time>
      </trkpt>
      <trkpt lat="49.18374" lon="0.04103">
        <ele>36.1</ele>
        <time>2023-11-22T15:07:52Z</time>
      </trkpt>
      <trkpt lat="49.18374" lon="0.04104">
        <ele>36.1</ele>
        <time>2023-11-22T15:07:53Z</time>
      </trkpt>
      <trkpt lat="49.18376" lon="0.04102">
        <ele>36.2</ele>
        <time>2023-11-22T15:07:59Z</time>
      </trkpt>
      <trkpt lat="49.18377" lon="0.04101">
        <ele>36.2</ele>
        <time>2023-11-22T15:08:00Z</time>
      </trkpt>
      <trkpt lat="49.18378" lon="0.04099">
        <ele>36.2</ele>
        <time>2023-11-22T15:08:01Z</time>
      </trkpt>
      <trkpt lat="49.1838" lon="0.04095">
        <ele>36.3</ele>
        <time>2023-11-22T15:08:02Z</time>
      </trkpt>
      <trkpt lat="49.18381" lon="0.04093">
        <ele>36.3</ele>
        <time>2023-11-22T15:08:03Z</time>
      </trkpt>
      <trkpt lat="49.18381" lon="0.04089">
        <ele>36.3</ele>
        <time>2023-11-22T15:08:04Z</time>
      </trkpt>
      <trkpt lat="49.18381" lon="0.04083">
        <ele>36.3</ele>
        <time>2023-11-22T15:08:05Z</time>
      </trkpt>
      <trkpt lat="49.1838" lon="0.04078">
        <ele>36.2</ele>
        <time>2023-11-22T15:08:06Z</time>
      </trkpt>
      <trkpt lat="49.18378" lon="0.04072">
        <ele>36.1</ele>
        <time>2023-11-22T15:08:07Z</time>
      </trkpt>
      <trkpt lat="49.18377" lon="0.04067">
        <ele>36</ele>
        <time>2023-11-22T15:08:08Z</time>
      </trkpt>
      <trkpt lat="49.18375" lon="0.04061">
        <ele>35.9</ele>
        <time>2023-11-22T15:08:09Z</time>
      </trkpt>
      <trkpt lat="49.18374" lon="0.04055">
        <ele>35.7</ele>
        <time>2023-11-22T15:08:10Z</time>
      </trkpt>
      <trkpt lat="49.18372" lon="0.04047">
        <ele>35.6</ele>
        <time>2023-11-22T15:08:11Z</time>
      </trkpt>
      <trkpt lat="49.1837" lon="0.04039">
        <ele>35.4</ele>
        <time>2023-11-22T15:08:12Z</time>
      </trkpt>
      <trkpt lat="49.18369" lon="0.0403">
        <ele>35.2</ele>
        <time>2023-11-22T15:08:13Z</time>
      </trkpt>
      <trkpt lat="49.18367" lon="0.0402">
        <ele>35</ele>
        <time>2023-11-22T15:08:14Z</time>
      </trkpt>
      <trkpt lat="49.18365" lon="0.0401">
        <ele>34.9</ele>
        <time>2023-11-22T15:08:15Z</time>
      </trkpt>
      <trkpt lat="49.18362" lon="0.03999">
        <ele>34.8</ele>
        <time>2023-11-22T15:08:16Z</time>
      </trkpt>
      <trkpt lat="49.18359" lon="0.03989">
        <ele>34.6</ele>
        <time>2023-11-22T15:08:17Z</time>
      </trkpt>
      <trkpt lat="49.18357" lon="0.03978">
        <ele>34.5</ele>
        <time>2023-11-22T15:08:18Z</time>
      </trkpt>
      <trkpt lat="49.18354" lon="0.03967">
        <ele>34.3</ele>
        <time>2023-11-22T15:08:19Z</time>
      </trkpt>
      <trkpt lat="49.18352" lon="0.03955">
        <ele>34.2</ele>
        <time>2023-11-22T15:08:20Z</time>
      </trkpt>
      <trkpt lat="49.18349" lon="0.03943">
        <ele>34.1</ele>
        <time>2023-11-22T15:08:21Z</time>
      </trkpt>
      <trkpt lat="49.18346" lon="0.03931">
        <ele>34</ele>
        <time>2023-11-22T15:08:22Z</time>
      </trkpt>
      <trkpt lat="49.18343" lon="0.03919">
        <ele>33.9</ele>
        <time>2023-11-22T15:08:23Z</time>
      </trkpt>
      <trkpt lat="49.1834" lon="0.03906">
        <ele>33.7</ele>
        <time>2023-11-22T15:08:24Z</time>
      </trkpt>
      <trkpt lat="49.18337" lon="0.03894">
        <ele>33.6</ele>
        <time>2023-11-22T15:08:25Z</time>
      </trkpt>
      <trkpt lat="49.18334" lon="0.03881">
        <ele>33.4</ele>
        <time>2023-11-22T15:08:26Z</time>
      </trkpt>
      <trkpt lat="49.18331" lon="0.03868">
        <ele>33.3</ele>
        <time>2023-11-22T15:08:27Z</time>
      </trkpt>
      <trkpt lat="49.18328" lon="0.03855">
        <ele>33.2</ele>
        <time>2023-11-22T15:08:28Z</time>
      </trkpt>
      <trkpt lat="49.18325" lon="0.03841">
        <ele>33</ele>
        <time>2023-11-22T15:08:29Z</time>
      </trkpt>
      <trkpt lat="49.18321" lon="0.03828">
        <ele>33</ele>
        <time>2023-11-22T15:08:30Z</time>
      </trkpt>
      <trkpt lat="49.18318" lon="0.03815">
        <ele>32.9</ele>
        <time>2023-11-22T15:08:31Z</time>
      </trkpt>
      <trkpt lat="49.18314" lon="0.03802">
        <ele>32.8</ele>
        <time>2023-11-22T15:08:32Z</time>
      </trkpt>
      <trkpt lat="49.18311" lon="0.03789">
        <ele>32.7</ele>
        <time>2023-11-22T15:08:33Z</time>
      </trkpt>
      <trkpt lat="49.18307" lon="0.03775">
        <ele>32.7</ele>
        <time>2023-11-22T15:08:34Z</time>
      </trkpt>
      <trkpt lat="49.18303" lon="0.03762">
        <ele>32.7</ele>
        <time>2023-11-22T15:08:35Z</time>
      </trkpt>
      <trkpt lat="49.183" lon="0.03748">
        <ele>32.7</ele>
        <time>2023-11-22T15:08:36Z</time>
      </trkpt>
      <trkpt lat="49.18297" lon="0.03734">
        <ele>32.7</ele>
        <time>2023-11-22T15:08:37Z</time>
      </trkpt>
      <trkpt lat="49.18294" lon="0.03721">
        <ele>32.8</ele>
        <time>2023-11-22T15:08:38Z</time>
      </trkpt>
      <trkpt lat="49.18291" lon="0.03708">
        <ele>32.8</ele>
        <time>2023-11-22T15:08:39Z</time>
      </trkpt>
      <trkpt lat="49.18287" lon="0.03694">
        <ele>32.9</ele>
        <time>2023-11-22T15:08:40Z</time>
      </trkpt>
      <trkpt lat="49.18283" lon="0.03681">
        <ele>32.9</ele>
        <time>2023-11-22T15:08:41Z</time>
      </trkpt>
      <trkpt lat="49.18279" lon="0.03667">
        <ele>33</ele>
        <time>2023-11-22T15:08:42Z</time>
      </trkpt>
      <trkpt lat="49.18276" lon="0.03652">
        <ele>33.1</ele>
        <time>2023-11-22T15:08:43Z</time>
      </trkpt>
      <trkpt lat="49.18273" lon="0.03638">
        <ele>33.3</ele>
        <time>2023-11-22T15:08:44Z</time>
      </trkpt>
      <trkpt lat="49.18269" lon="0.03624">
        <ele>33.4</ele>
        <time>2023-11-22T15:08:45Z</time>
      </trkpt>
      <trkpt lat="49.18266" lon="0.03609">
        <ele>33.5</ele>
        <time>2023-11-22T15:08:46Z</time>
      </trkpt>
      <trkpt lat="49.18262" lon="0.03595">
        <ele>33.7</ele>
        <time>2023-11-22T15:08:47Z</time>
      </trkpt>
      <trkpt lat="49.18258" lon="0.0358">
        <ele>33.8</ele>
        <time>2023-11-22T15:08:48Z</time>
      </trkpt>
      <trkpt lat="49.18254" lon="0.03566">
        <ele>33.9</ele>
        <time>2023-11-22T15:08:49Z</time>
      </trkpt>
      <trkpt lat="49.1825" lon="0.03552">
        <ele>34</ele>
        <time>2023-11-22T15:08:50Z</time>
      </trkpt>
      <trkpt lat="49.18247" lon="0.0354">
        <ele>34.1</ele>
        <time>2023-11-22T15:08:51Z</time>
      </trkpt>
      <trkpt lat="49.18244" lon="0.03528">
        <ele>34.2</ele>
        <time>2023-11-22T15:08:52Z</time>
      </trkpt>
      <trkpt lat="49.18242" lon="0.03517">
        <ele>34.3</ele>
        <time>2023-11-22T15:08:53Z</time>
      </trkpt>
      <trkpt lat="49.18239" lon="0.03506">
        <ele>34.4</ele>
        <time>2023-11-22T15:08:54Z</time>
      </trkpt>
      <trkpt lat="49.18236" lon="0.03496">
        <ele>34.4</ele>
        <time>2023-11-22T15:08:55Z</time>
      </trkpt>
      <trkpt lat="49.18234" lon="0.03485">
        <ele>34.5</ele>
        <time>2023-11-22T15:08:56Z</time>
      </trkpt>
      <trkpt lat="49.18231" lon="0.03475">
        <ele>34.5</ele>
        <time>2023-11-22T15:08:57Z</time>
      </trkpt>
      <trkpt lat="49.18229" lon="0.03465">
        <ele>34.5</ele>
        <time>2023-11-22T15:08:58Z</time>
      </trkpt>
      <trkpt lat="49.18226" lon="0.03455">
        <ele>34.5</ele>
        <time>2023-11-22T15:08:59Z</time>
      </trkpt>
      <trkpt lat="49.18224" lon="0.03445">
        <ele>34.5</ele>
        <time>2023-11-22T15:09:00Z</time>
      </trkpt>
      <trkpt lat="49.18221" lon="0.03435">
        <ele>34.5</ele>
        <time>2023-11-22T15:09:01Z</time>
      </trkpt>
      <trkpt lat="49.18218" lon="0.03424">
        <ele>34.5</ele>
        <time>2023-11-22T15:09:02Z</time>
      </trkpt>
      <trkpt lat="49.18216" lon="0.03414">
        <ele>34.5</ele>
        <time>2023-11-22T15:09:03Z</time>
      </trkpt>
      <trkpt lat="49.18213" lon="0.03403">
        <ele>34.5</ele>
        <time>2023-11-22T15:09:04Z</time>
      </trkpt>
      <trkpt lat="49.18211" lon="0.03392">
        <ele>34.5</ele>
        <time>2023-11-22T15:09:05Z</time>
      </trkpt>
      <trkpt lat="49.18209" lon="0.03382">
        <ele>34.5</ele>
        <time>2023-11-22T15:09:06Z</time>
      </trkpt>
      <trkpt lat="49.18206" lon="0.03371">
        <ele>34.5</ele>
        <time>2023-11-22T15:09:07Z</time>
      </trkpt>
      <trkpt lat="49.18203" lon="0.03361">
        <ele>34.6</ele>
        <time>2023-11-22T15:09:08Z</time>
      </trkpt>
      <trkpt lat="49.18201" lon="0.03351">
        <ele>34.6</ele>
        <time>2023-11-22T15:09:09Z</time>
      </trkpt>
      <trkpt lat="49.18198" lon="0.03341">
        <ele>34.6</ele>
        <time>2023-11-22T15:09:10Z</time>
      </trkpt>
      <trkpt lat="49.18196" lon="0.03331">
        <ele>34.6</ele>
        <time>2023-11-22T15:09:11Z</time>
      </trkpt>
      <trkpt lat="49.18193" lon="0.03321">
        <ele>34.6</ele>
        <time>2023-11-22T15:09:12Z</time>
      </trkpt>
      <trkpt lat="49.18191" lon="0.03312">
        <ele>34.7</ele>
        <time>2023-11-22T15:09:13Z</time>
      </trkpt>
      <trkpt lat="49.18189" lon="0.03303">
        <ele>34.8</ele>
        <time>2023-11-22T15:09:14Z</time>
      </trkpt>
      <trkpt lat="49.18187" lon="0.03295">
        <ele>34.8</ele>
        <time>2023-11-22T15:09:15Z</time>
      </trkpt>
      <trkpt lat="49.18185" lon="0.03287">
        <ele>34.9</ele>
        <time>2023-11-22T15:09:16Z</time>
      </trkpt>
      <trkpt lat="49.18183" lon="0.03279">
        <ele>35</ele>
        <time>2023-11-22T15:09:17Z</time>
      </trkpt>
      <trkpt lat="49.18181" lon="0.03272">
        <ele>35.1</ele>
        <time>2023-11-22T15:09:18Z</time>
      </trkpt>
      <trkpt lat="49.1818" lon="0.03266">
        <ele>35.1</ele>
        <time>2023-11-22T15:09:19Z</time>
      </trkpt>
      <trkpt lat="49.1818" lon="0.0326">
        <ele>35.1</ele>
        <time>2023-11-22T15:09:20Z</time>
      </trkpt>
      <trkpt lat="49.18182" lon="0.03255">
        <ele>34.4</ele>
        <time>2023-11-22T15:09:21Z</time>
      </trkpt>
      <trkpt lat="49.18187" lon="0.03251">
        <ele>34</ele>
        <time>2023-11-22T15:09:22Z</time>
      </trkpt>
      <trkpt lat="49.18192" lon="0.03248">
        <ele>33.6</ele>
        <time>2023-11-22T15:09:23Z</time>
      </trkpt>
      <trkpt lat="49.18198" lon="0.03246">
        <ele>33.2</ele>
        <time>2023-11-22T15:09:24Z</time>
      </trkpt>
      <trkpt lat="49.18204" lon="0.03242">
        <ele>32.9</ele>
        <time>2023-11-22T15:09:25Z</time>
      </trkpt>
      <trkpt lat="49.18209" lon="0.03238">
        <ele>32.6</ele>
        <time>2023-11-22T15:09:26Z</time>
      </trkpt>
      <trkpt lat="49.18215" lon="0.03235">
        <ele>32.4</ele>
        <time>2023-11-22T15:09:27Z</time>
      </trkpt>
      <trkpt lat="49.18221" lon="0.03231">
        <ele>32.2</ele>
        <time>2023-11-22T15:09:28Z</time>
      </trkpt>
      <trkpt lat="49.18227" lon="0.03227">
        <ele>32</ele>
        <time>2023-11-22T15:09:29Z</time>
      </trkpt>
      <trkpt lat="49.18233" lon="0.03224">
        <ele>31.8</ele>
        <time>2023-11-22T15:09:30Z</time>
      </trkpt>
      <trkpt lat="49.18239" lon="0.0322">
        <ele>31.6</ele>
        <time>2023-11-22T15:09:31Z</time>
      </trkpt>
      <trkpt lat="49.18245" lon="0.03216">
        <ele>31.4</ele>
        <time>2023-11-22T15:09:32Z</time>
      </trkpt>
      <trkpt lat="49.18251" lon="0.03211">
        <ele>31.2</ele>
        <time>2023-11-22T15:09:33Z</time>
      </trkpt>
      <trkpt lat="49.18257" lon="0.03207">
        <ele>31.1</ele>
        <time>2023-11-22T15:09:34Z</time>
      </trkpt>
      <trkpt lat="49.18264" lon="0.03202">
        <ele>30.9</ele>
        <time>2023-11-22T15:09:35Z</time>
      </trkpt>
      <trkpt lat="49.1827" lon="0.03198">
        <ele>30.7</ele>
        <time>2023-11-22T15:09:36Z</time>
      </trkpt>
      <trkpt lat="49.18277" lon="0.03193">
        <ele>30.6</ele>
        <time>2023-11-22T15:09:37Z</time>
      </trkpt>
      <trkpt lat="49.18283" lon="0.03188">
        <ele>30.5</ele>
        <time>2023-11-22T15:09:38Z</time>
      </trkpt>
      <trkpt lat="49.1829" lon="0.03184">
        <ele>30.3</ele>
        <time>2023-11-22T15:09:39Z</time>
      </trkpt>
      <trkpt lat="49.18297" lon="0.03178">
        <ele>30.2</ele>
        <time>2023-11-22T15:09:40Z</time>
      </trkpt>
      <trkpt lat="49.18304" lon="0.03174">
        <ele>30</ele>
        <time>2023-11-22T15:09:41Z</time>
      </trkpt>
      <trkpt lat="49.18311" lon="0.03169">
        <ele>29.9</ele>
        <time>2023-11-22T15:09:42Z</time>
      </trkpt>
      <trkpt lat="49.18318" lon="0.03165">
        <ele>29.8</ele>
        <time>2023-11-22T15:09:43Z</time>
      </trkpt>
      <trkpt lat="49.18325" lon="0.0316">
        <ele>29.6</ele>
        <time>2023-11-22T15:09:44Z</time>
      </trkpt>
      <trkpt lat="49.18333" lon="0.03155">
        <ele>29.5</ele>
        <time>2023-11-22T15:09:45Z</time>
      </trkpt>
      <trkpt lat="49.18341" lon="0.03151">
        <ele>29.4</ele>
        <time>2023-11-22T15:09:46Z</time>
      </trkpt>
      <trkpt lat="49.18348" lon="0.03146">
        <ele>29.3</ele>
        <time>2023-11-22T15:09:47Z</time>
      </trkpt>
      <trkpt lat="49.18356" lon="0.03141">
        <ele>29.2</ele>
        <time>2023-11-22T15:09:48Z</time>
      </trkpt>
      <trkpt lat="49.18364" lon="0.03136">
        <ele>29.1</ele>
        <time>2023-11-22T15:09:49Z</time>
      </trkpt>
      <trkpt lat="49.18372" lon="0.0313">
        <ele>29.1</ele>
        <time>2023-11-22T15:09:50Z</time>
      </trkpt>
      <trkpt lat="49.1838" lon="0.03125">
        <ele>29</ele>
        <time>2023-11-22T15:09:51Z</time>
      </trkpt>
      <trkpt lat="49.18388" lon="0.0312">
        <ele>28.9</ele>
        <time>2023-11-22T15:09:52Z</time>
      </trkpt>
      <trkpt lat="49.18396" lon="0.03114">
        <ele>28.8</ele>
        <time>2023-11-22T15:09:53Z</time>
      </trkpt>
      <trkpt lat="49.18403" lon="0.03108">
        <ele>28.8</ele>
        <time>2023-11-22T15:09:54Z</time>
      </trkpt>
      <trkpt lat="49.1841" lon="0.03101">
        <ele>28.8</ele>
        <time>2023-11-22T15:09:55Z</time>
      </trkpt>
      <trkpt lat="49.18417" lon="0.03094">
        <ele>28.7</ele>
        <time>2023-11-22T15:09:56Z</time>
      </trkpt>
      <trkpt lat="49.18423" lon="0.03086">
        <ele>28.8</ele>
        <time>2023-11-22T15:09:57Z</time>
      </trkpt>
      <trkpt lat="49.18429" lon="0.03078">
        <ele>28.8</ele>
        <time>2023-11-22T15:09:58Z</time>
      </trkpt>
      <trkpt lat="49.18435" lon="0.03071">
        <ele>28.9</ele>
        <time>2023-11-22T15:09:59Z</time>
      </trkpt>
      <trkpt lat="49.18441" lon="0.03063">
        <ele>29</ele>
        <time>2023-11-22T15:10:00Z</time>
      </trkpt>
      <trkpt lat="49.18446" lon="0.03056">
        <ele>29</ele>
        <time>2023-11-22T15:10:01Z</time>
      </trkpt>
      <trkpt lat="49.18452" lon="0.03049">
        <ele>29</ele>
        <time>2023-11-22T15:10:02Z</time>
      </trkpt>
      <trkpt lat="49.18458" lon="0.03041">
        <ele>29</ele>
        <time>2023-11-22T15:10:03Z</time>
      </trkpt>
      <trkpt lat="49.18464" lon="0.03034">
        <ele>29</ele>
        <time>2023-11-22T15:10:04Z</time>
      </trkpt>
      <trkpt lat="49.18471" lon="0.03027">
        <ele>28.9</ele>
        <time>2023-11-22T15:10:05Z</time>
      </trkpt>
      <trkpt lat="49.18478" lon="0.0302">
        <ele>28.9</ele>
        <time>2023-11-22T15:10:06Z</time>
      </trkpt>
      <trkpt lat="49.18485" lon="0.03013">
        <ele>28.9</ele>
        <time>2023-11-22T15:10:07Z</time>
      </trkpt>
      <trkpt lat="49.18492" lon="0.03007">
        <ele>28.8</ele>
        <time>2023-11-22T15:10:08Z</time>
      </trkpt>
      <trkpt lat="49.185" lon="0.03002">
        <ele>28.8</ele>
        <time>2023-11-22T15:10:09Z</time>
      </trkpt>
      <trkpt lat="49.18509" lon="0.02998">
        <ele>28.8</ele>
        <time>2023-11-22T15:10:10Z</time>
      </trkpt>
      <trkpt lat="49.18517" lon="0.02995">
        <ele>28.9</ele>
        <time>2023-11-22T15:10:11Z</time>
      </trkpt>
      <trkpt lat="49.18525" lon="0.02991">
        <ele>28.9</ele>
        <time>2023-11-22T15:10:12Z</time>
      </trkpt>
      <trkpt lat="49.18533" lon="0.02988">
        <ele>29</ele>
        <time>2023-11-22T15:10:13Z</time>
      </trkpt>
      <trkpt lat="49.18541" lon="0.02985">
        <ele>29.1</ele>
        <time>2023-11-22T15:10:14Z</time>
      </trkpt>
      <trkpt lat="49.1855" lon="0.02982">
        <ele>29.2</ele>
        <time>2023-11-22T15:10:15Z</time>
      </trkpt>
      <trkpt lat="49.18558" lon="0.02979">
        <ele>29.2</ele>
        <time>2023-11-22T15:10:16Z</time>
      </trkpt>
      <trkpt lat="49.18566" lon="0.02976">
        <ele>29.3</ele>
        <time>2023-11-22T15:10:17Z</time>
      </trkpt>
      <trkpt lat="49.18573" lon="0.02974">
        <ele>29.3</ele>
        <time>2023-11-22T15:10:18Z</time>
      </trkpt>
      <trkpt lat="49.18581" lon="0.02973">
        <ele>29.4</ele>
        <time>2023-11-22T15:10:19Z</time>
      </trkpt>
      <trkpt lat="49.18589" lon="0.02971">
        <ele>29.5</ele>
        <time>2023-11-22T15:10:20Z</time>
      </trkpt>
      <trkpt lat="49.18597" lon="0.0297">
        <ele>29.6</ele>
        <time>2023-11-22T15:10:21Z</time>
      </trkpt>
      <trkpt lat="49.18606" lon="0.02971">
        <ele>29.7</ele>
        <time>2023-11-22T15:10:22Z</time>
      </trkpt>
      <trkpt lat="49.18614" lon="0.02971">
        <ele>29.8</ele>
        <time>2023-11-22T15:10:23Z</time>
      </trkpt>
      <trkpt lat="49.18622" lon="0.02972">
        <ele>29.9</ele>
        <time>2023-11-22T15:10:24Z</time>
      </trkpt>
      <trkpt lat="49.1863" lon="0.02973">
        <ele>30</ele>
        <time>2023-11-22T15:10:25Z</time>
      </trkpt>
      <trkpt lat="49.18638" lon="0.02975">
        <ele>30.2</ele>
        <time>2023-11-22T15:10:26Z</time>
      </trkpt>
      <trkpt lat="49.18645" lon="0.02977">
        <ele>30.3</ele>
        <time>2023-11-22T15:10:27Z</time>
      </trkpt>
      <trkpt lat="49.18653" lon="0.02978">
        <ele>30.5</ele>
        <time>2023-11-22T15:10:28Z</time>
      </trkpt>
      <trkpt lat="49.18661" lon="0.02979">
        <ele>30.6</ele>
        <time>2023-11-22T15:10:29Z</time>
      </trkpt>
      <trkpt lat="49.18668" lon="0.0298">
        <ele>30.8</ele>
        <time>2023-11-22T15:10:30Z</time>
      </trkpt>
      <trkpt lat="49.18676" lon="0.02979">
        <ele>31</ele>
        <time>2023-11-22T15:10:31Z</time>
      </trkpt>
      <trkpt lat="49.18683" lon="0.02976">
        <ele>31.2</ele>
        <time>2023-11-22T15:10:32Z</time>
      </trkpt>
      <trkpt lat="49.18691" lon="0.02972">
        <ele>31.3</ele>
        <time>2023-11-22T15:10:33Z</time>
      </trkpt>
      <trkpt lat="49.18698" lon="0.02967">
        <ele>31.5</ele>
        <time>2023-11-22T15:10:34Z</time>
      </trkpt>
      <trkpt lat="49.18704" lon="0.02962">
        <ele>31.6</ele>
        <time>2023-11-22T15:10:35Z</time>
      </trkpt>
      <trkpt lat="49.18711" lon="0.02955">
        <ele>31.8</ele>
        <time>2023-11-22T15:10:36Z</time>
      </trkpt>
      <trkpt lat="49.18718" lon="0.02949">
        <ele>31.9</ele>
        <time>2023-11-22T15:10:37Z</time>
      </trkpt>
      <trkpt lat="49.18724" lon="0.02943">
        <ele>32.1</ele>
        <time>2023-11-22T15:10:38Z</time>
      </trkpt>
      <trkpt lat="49.18729" lon="0.02936">
        <ele>32.2</ele>
        <time>2023-11-22T15:10:39Z</time>
      </trkpt>
      <trkpt lat="49.18735" lon="0.02928">
        <ele>32.4</ele>
        <time>2023-11-22T15:10:40Z</time>
      </trkpt>
      <trkpt lat="49.1874" lon="0.0292">
        <ele>32.5</ele>
        <time>2023-11-22T15:10:41Z</time>
      </trkpt>
      <trkpt lat="49.18745" lon="0.02911">
        <ele>32.7</ele>
        <time>2023-11-22T15:10:42Z</time>
      </trkpt>
      <trkpt lat="49.18751" lon="0.02902">
        <ele>32.8</ele>
        <time>2023-11-22T15:10:43Z</time>
      </trkpt>
      <trkpt lat="49.18756" lon="0.02893">
        <ele>32.9</ele>
        <time>2023-11-22T15:10:44Z</time>
      </trkpt>
      <trkpt lat="49.18761" lon="0.02883">
        <ele>33</ele>
        <time>2023-11-22T15:10:45Z</time>
      </trkpt>
      <trkpt lat="49.18766" lon="0.02873">
        <ele>33.1</ele>
        <time>2023-11-22T15:10:46Z</time>
      </trkpt>
      <trkpt lat="49.18771" lon="0.02864">
        <ele>33.2</ele>
        <time>2023-11-22T15:10:47Z</time>
      </trkpt>
      <trkpt lat="49.18777" lon="0.02854">
        <ele>33.3</ele>
        <time>2023-11-22T15:10:48Z</time>
      </trkpt>
      <trkpt lat="49.18782" lon="0.02845">
        <ele>33.4</ele>
        <time>2023-11-22T15:10:49Z</time>
      </trkpt>
      <trkpt lat="49.18787" lon="0.02835">
        <ele>33.5</ele>
        <time>2023-11-22T15:10:50Z</time>
      </trkpt>
      <trkpt lat="49.18792" lon="0.02826">
        <ele>33.6</ele>
        <time>2023-11-22T15:10:51Z</time>
      </trkpt>
      <trkpt lat="49.18797" lon="0.02817">
        <ele>33.7</ele>
        <time>2023-11-22T15:10:52Z</time>
      </trkpt>
      <trkpt lat="49.18801" lon="0.02807">
        <ele>33.8</ele>
        <time>2023-11-22T15:10:53Z</time>
      </trkpt>
      <trkpt lat="49.18806" lon="0.02799">
        <ele>33.9</ele>
        <time>2023-11-22T15:10:54Z</time>
      </trkpt>
      <trkpt lat="49.18811" lon="0.02791">
        <ele>34</ele>
        <time>2023-11-22T15:10:55Z</time>
      </trkpt>
      <trkpt lat="49.18815" lon="0.02782">
        <ele>34.1</ele>
        <time>2023-11-22T15:10:56Z</time>
      </trkpt>
      <trkpt lat="49.1882" lon="0.02774">
        <ele>34.2</ele>
        <time>2023-11-22T15:10:57Z</time>
      </trkpt>
      <trkpt lat="49.18824" lon="0.02766">
        <ele>34.2</ele>
        <time>2023-11-22T15:10:58Z</time>
      </trkpt>
      <trkpt lat="49.18828" lon="0.02758">
        <ele>34.3</ele>
        <time>2023-11-22T15:10:59Z</time>
      </trkpt>
      <trkpt lat="49.18832" lon="0.0275">
        <ele>34.4</ele>
        <time>2023-11-22T15:11:00Z</time>
      </trkpt>
      <trkpt lat="49.18837" lon="0.02742">
        <ele>34.4</ele>
        <time>2023-11-22T15:11:01Z</time>
      </trkpt>
      <trkpt lat="49.18841" lon="0.02735">
        <ele>34.4</ele>
        <time>2023-11-22T15:11:02Z</time>
      </trkpt>
      <trkpt lat="49.18845" lon="0.02727">
        <ele>34.5</ele>
        <time>2023-11-22T15:11:03Z</time>
      </trkpt>
      <trkpt lat="49.1885" lon="0.02719">
        <ele>34.5</ele>
        <time>2023-11-22T15:11:04Z</time>
      </trkpt>
      <trkpt lat="49.18854" lon="0.02711">
        <ele>34.5</ele>
        <time>2023-11-22T15:11:05Z</time>
      </trkpt>
      <trkpt lat="49.18859" lon="0.02702">
        <ele>34.5</ele>
        <time>2023-11-22T15:11:06Z</time>
      </trkpt>
      <trkpt lat="49.18864" lon="0.02693">
        <ele>34.5</ele>
        <time>2023-11-22T15:11:07Z</time>
      </trkpt>
      <trkpt lat="49.18868" lon="0.02684">
        <ele>34.5</ele>
        <time>2023-11-22T15:11:08Z</time>
      </trkpt>
      <trkpt lat="49.18873" lon="0.02675">
        <ele>34.5</ele>
        <time>2023-11-22T15:11:09Z</time>
      </trkpt>
      <trkpt lat="49.18877" lon="0.02666">
        <ele>34.4</ele>
        <time>2023-11-22T15:11:10Z</time>
      </trkpt>
      <trkpt lat="49.18882" lon="0.02656">
        <ele>34.4</ele>
        <time>2023-11-22T15:11:11Z</time>
      </trkpt>
      <trkpt lat="49.18887" lon="0.02647">
        <ele>34.2</ele>
        <time>2023-11-22T15:11:12Z</time>
      </trkpt>
      <trkpt lat="49.18892" lon="0.02637">
        <ele>34.1</ele>
        <time>2023-11-22T15:11:13Z</time>
      </trkpt>
      <trkpt lat="49.18896" lon="0.02626">
        <ele>34</ele>
        <time>2023-11-22T15:11:14Z</time>
      </trkpt>
      <trkpt lat="49.18901" lon="0.02616">
        <ele>33.9</ele>
        <time>2023-11-22T15:11:15Z</time>
      </trkpt>
      <trkpt lat="49.18905" lon="0.02605">
        <ele>33.7</ele>
        <time>2023-11-22T15:11:16Z</time>
      </trkpt>
      <trkpt lat="49.1891" lon="0.02595">
        <ele>33.6</ele>
        <time>2023-11-22T15:11:17Z</time>
      </trkpt>
      <trkpt lat="49.18915" lon="0.02585">
        <ele>33.5</ele>
        <time>2023-11-22T15:11:18Z</time>
      </trkpt>
      <trkpt lat="49.1892" lon="0.02574">
        <ele>33.4</ele>
        <time>2023-11-22T15:11:19Z</time>
      </trkpt>
      <trkpt lat="49.18924" lon="0.02564">
        <ele>33.2</ele>
        <time>2023-11-22T15:11:20Z</time>
      </trkpt>
      <trkpt lat="49.18929" lon="0.02554">
        <ele>33.1</ele>
        <time>2023-11-22T15:11:21Z</time>
      </trkpt>
      <trkpt lat="49.18934" lon="0.02543">
        <ele>33</ele>
        <time>2023-11-22T15:11:22Z</time>
      </trkpt>
      <trkpt lat="49.18938" lon="0.02532">
        <ele>32.9</ele>
        <time>2023-11-22T15:11:23Z</time>
      </trkpt>
      <trkpt lat="49.18943" lon="0.02522">
        <ele>32.8</ele>
        <time>2023-11-22T15:11:24Z</time>
      </trkpt>
      <trkpt lat="49.18948" lon="0.02511">
        <ele>32.7</ele>
        <time>2023-11-22T15:11:25Z</time>
      </trkpt>
      <trkpt lat="49.18953" lon="0.025">
        <ele>32.6</ele>
        <time>2023-11-22T15:11:26Z</time>
      </trkpt>
      <trkpt lat="49.18959" lon="0.02489">
        <ele>32.5</ele>
        <time>2023-11-22T15:11:27Z</time>
      </trkpt>
      <trkpt lat="49.18964" lon="0.02479">
        <ele>32.4</ele>
        <time>2023-11-22T15:11:28Z</time>
      </trkpt>
      <trkpt lat="49.18969" lon="0.02469">
        <ele>32.4</ele>
        <time>2023-11-22T15:11:29Z</time>
      </trkpt>
      <trkpt lat="49.18975" lon="0.02458">
        <ele>32.4</ele>
        <time>2023-11-22T15:11:30Z</time>
      </trkpt>
      <trkpt lat="49.1898" lon="0.02449">
        <ele>32.4</ele>
        <time>2023-11-22T15:11:31Z</time>
      </trkpt>
      <trkpt lat="49.18986" lon="0.02439">
        <ele>32.4</ele>
        <time>2023-11-22T15:11:32Z</time>
      </trkpt>
      <trkpt lat="49.18991" lon="0.02429">
        <ele>32.4</ele>
        <time>2023-11-22T15:11:33Z</time>
      </trkpt>
      <trkpt lat="49.18997" lon="0.02419">
        <ele>32.5</ele>
        <time>2023-11-22T15:11:34Z</time>
      </trkpt>
      <trkpt lat="49.19001" lon="0.02408">
        <ele>32.6</ele>
        <time>2023-11-22T15:11:35Z</time>
      </trkpt>
      <trkpt lat="49.19006" lon="0.02397">
        <ele>32.7</ele>
        <time>2023-11-22T15:11:36Z</time>
      </trkpt>
      <trkpt lat="49.19011" lon="0.02387">
        <ele>32.8</ele>
        <time>2023-11-22T15:11:37Z</time>
      </trkpt>
      <trkpt lat="49.19015" lon="0.02377">
        <ele>32.8</ele>
        <time>2023-11-22T15:11:38Z</time>
      </trkpt>
      <trkpt lat="49.19019" lon="0.02366">
        <ele>32.9</ele>
        <time>2023-11-22T15:11:39Z</time>
      </trkpt>
      <trkpt lat="49.19022" lon="0.02355">
        <ele>32.9</ele>
        <time>2023-11-22T15:11:40Z</time>
      </trkpt>
      <trkpt lat="49.19025" lon="0.02344">
        <ele>33</ele>
        <time>2023-11-22T15:11:41Z</time>
      </trkpt>
      <trkpt lat="49.19029" lon="0.02333">
        <ele>33.1</ele>
        <time>2023-11-22T15:11:42Z</time>
      </trkpt>
      <trkpt lat="49.19032" lon="0.02322">
        <ele>33.2</ele>
        <time>2023-11-22T15:11:43Z</time>
      </trkpt>
      <trkpt lat="49.19036" lon="0.02312">
        <ele>33.3</ele>
        <time>2023-11-22T15:11:44Z</time>
      </trkpt>
      <trkpt lat="49.19039" lon="0.02301">
        <ele>33.3</ele>
        <time>2023-11-22T15:11:45Z</time>
      </trkpt>
      <trkpt lat="49.19043" lon="0.0229">
        <ele>33.5</ele>
        <time>2023-11-22T15:11:46Z</time>
      </trkpt>
      <trkpt lat="49.19046" lon="0.02279">
        <ele>33.6</ele>
        <time>2023-11-22T15:11:47Z</time>
      </trkpt>
      <trkpt lat="49.1905" lon="0.02269">
        <ele>33.7</ele>
        <time>2023-11-22T15:11:48Z</time>
      </trkpt>
      <trkpt lat="49.19054" lon="0.0226">
        <ele>33.9</ele>
        <time>2023-11-22T15:11:49Z</time>
      </trkpt>
      <trkpt lat="49.19058" lon="0.02251">
        <ele>34.1</ele>
        <time>2023-11-22T15:11:50Z</time>
      </trkpt>
      <trkpt lat="49.19062" lon="0.02243">
        <ele>34.3</ele>
        <time>2023-11-22T15:11:51Z</time>
      </trkpt>
      <trkpt lat="49.19067" lon="0.02235">
        <ele>34.5</ele>
        <time>2023-11-22T15:11:52Z</time>
      </trkpt>
      <trkpt lat="49.19071" lon="0.02227">
        <ele>34.7</ele>
        <time>2023-11-22T15:11:53Z</time>
      </trkpt>
      <trkpt lat="49.19075" lon="0.0222">
        <ele>34.8</ele>
        <time>2023-11-22T15:11:54Z</time>
      </trkpt>
      <trkpt lat="49.19079" lon="0.02213">
        <ele>35</ele>
        <time>2023-11-22T15:11:55Z</time>
      </trkpt>
      <trkpt lat="49.19082" lon="0.02205">
        <ele>35.2</ele>
        <time>2023-11-22T15:11:56Z</time>
      </trkpt>
      <trkpt lat="49.19086" lon="0.02199">
        <ele>35.4</ele>
        <time>2023-11-22T15:11:57Z</time>
      </trkpt>
      <trkpt lat="49.1909" lon="0.02192">
        <ele>35.6</ele>
        <time>2023-11-22T15:11:58Z</time>
      </trkpt>
      <trkpt lat="49.19094" lon="0.02185">
        <ele>35.7</ele>
        <time>2023-11-22T15:11:59Z</time>
      </trkpt>
      <trkpt lat="49.19098" lon="0.02179">
        <ele>35.9</ele>
        <time>2023-11-22T15:12:00Z</time>
      </trkpt>
      <trkpt lat="49.19102" lon="0.02172">
        <ele>36.1</ele>
        <time>2023-11-22T15:12:01Z</time>
      </trkpt>
      <trkpt lat="49.19106" lon="0.02164">
        <ele>36.3</ele>
        <time>2023-11-22T15:12:02Z</time>
      </trkpt>
      <trkpt lat="49.1911" lon="0.02157">
        <ele>36.5</ele>
        <time>2023-11-22T15:12:03Z</time>
      </trkpt>
      <trkpt lat="49.19114" lon="0.0215">
        <ele>36.7</ele>
        <time>2023-11-22T15:12:04Z</time>
      </trkpt>
      <trkpt lat="49.19118" lon="0.02143">
        <ele>37</ele>
        <time>2023-11-22T15:12:05Z</time>
      </trkpt>
      <trkpt lat="49.19122" lon="0.02136">
        <ele>37.1</ele>
        <time>2023-11-22T15:12:06Z</time>
      </trkpt>
      <trkpt lat="49.19126" lon="0.02129">
        <ele>37.3</ele>
        <time>2023-11-22T15:12:07Z</time>
      </trkpt>
      <trkpt lat="49.1913" lon="0.02122">
        <ele>37.5</ele>
        <time>2023-11-22T15:12:08Z</time>
      </trkpt>
      <trkpt lat="49.19134" lon="0.02115">
        <ele>37.6</ele>
        <time>2023-11-22T15:12:09Z</time>
      </trkpt>
      <trkpt lat="49.19138" lon="0.02108">
        <ele>37.6</ele>
        <time>2023-11-22T15:12:10Z</time>
      </trkpt>
      <trkpt lat="49.19142" lon="0.02101">
        <ele>37.7</ele>
        <time>2023-11-22T15:12:11Z</time>
      </trkpt>
      <trkpt lat="49.19145" lon="0.02093">
        <ele>37.8</ele>
        <time>2023-11-22T15:12:12Z</time>
      </trkpt>
      <trkpt lat="49.19149" lon="0.02085">
        <ele>37.9</ele>
        <time>2023-11-22T15:12:13Z</time>
      </trkpt>
      <trkpt lat="49.19152" lon="0.02077">
        <ele>38</ele>
        <time>2023-11-22T15:12:14Z</time>
      </trkpt>
      <trkpt lat="49.19156" lon="0.02068">
        <ele>38.1</ele>
        <time>2023-11-22T15:12:15Z</time>
      </trkpt>
      <trkpt lat="49.19159" lon="0.02059">
        <ele>38.2</ele>
        <time>2023-11-22T15:12:16Z</time>
      </trkpt>
      <trkpt lat="49.19163" lon="0.0205">
        <ele>38.3</ele>
        <time>2023-11-22T15:12:17Z</time>
      </trkpt>
      <trkpt lat="49.19166" lon="0.02041">
        <ele>38.3</ele>
        <time>2023-11-22T15:12:18Z</time>
      </trkpt>
      <trkpt lat="49.19168" lon="0.02034">
        <ele>38.3</ele>
        <time>2023-11-22T15:12:19Z</time>
      </trkpt>
      <trkpt lat="49.1917" lon="0.02028">
        <ele>38.3</ele>
        <time>2023-11-22T15:12:20Z</time>
      </trkpt>
      <trkpt lat="49.19171" lon="0.02023">
        <ele>38.2</ele>
        <time>2023-11-22T15:12:21Z</time>
      </trkpt>
      <trkpt lat="49.19173" lon="0.02017">
        <ele>38.2</ele>
        <time>2023-11-22T15:12:22Z</time>
      </trkpt>
      <trkpt lat="49.19175" lon="0.02011">
        <ele>38.1</ele>
        <time>2023-11-22T15:12:23Z</time>
      </trkpt>
      <trkpt lat="49.19176" lon="0.02005">
        <ele>38.1</ele>
        <time>2023-11-22T15:12:24Z</time>
      </trkpt>
      <trkpt lat="49.19179" lon="0.01999">
        <ele>38</ele>
        <time>2023-11-22T15:12:25Z</time>
      </trkpt>
      <trkpt lat="49.19183" lon="0.01994">
        <ele>37.9</ele>
        <time>2023-11-22T15:12:26Z</time>
      </trkpt>
      <trkpt lat="49.19188" lon="0.0199">
        <ele>37.8</ele>
        <time>2023-11-22T15:12:27Z</time>
      </trkpt>
      <trkpt lat="49.19193" lon="0.01987">
        <ele>37.9</ele>
        <time>2023-11-22T15:12:28Z</time>
      </trkpt>
      <trkpt lat="49.19198" lon="0.01985">
        <ele>38</ele>
        <time>2023-11-22T15:12:29Z</time>
      </trkpt>
      <trkpt lat="49.19203" lon="0.01984">
        <ele>38.1</ele>
        <time>2023-11-22T15:12:30Z</time>
      </trkpt>
      <trkpt lat="49.19209" lon="0.01983">
        <ele>38.2</ele>
        <time>2023-11-22T15:12:31Z</time>
      </trkpt>
      <trkpt lat="49.19215" lon="0.01982">
        <ele>38.3</ele>
        <time>2023-11-22T15:12:32Z</time>
      </trkpt>
      <trkpt lat="49.1922" lon="0.01982">
        <ele>38.4</ele>
        <time>2023-11-22T15:12:33Z</time>
      </trkpt>
      <trkpt lat="49.19226" lon="0.01982">
        <ele>38.6</ele>
        <time>2023-11-22T15:12:34Z</time>
      </trkpt>
      <trkpt lat="49.19231" lon="0.01982">
        <ele>38.7</ele>
        <time>2023-11-22T15:12:35Z</time>
      </trkpt>
      <trkpt lat="49.19237" lon="0.01982">
        <ele>38.9</ele>
        <time>2023-11-22T15:12:36Z</time>
      </trkpt>
      <trkpt lat="49.19242" lon="0.01982">
        <ele>39</ele>
        <time>2023-11-22T15:12:37Z</time>
      </trkpt>
      <trkpt lat="49.19247" lon="0.01982">
        <ele>39.2</ele>
        <time>2023-11-22T15:12:38Z</time>
      </trkpt>
      <trkpt lat="49.19252" lon="0.01982">
        <ele>39.4</ele>
        <time>2023-11-22T15:12:39Z</time>
      </trkpt>
      <trkpt lat="49.19257" lon="0.01982">
        <ele>39.5</ele>
        <time>2023-11-22T15:12:40Z</time>
      </trkpt>
      <trkpt lat="49.19262" lon="0.01982">
        <ele>39.7</ele>
        <time>2023-11-22T15:12:41Z</time>
      </trkpt>
      <trkpt lat="49.19267" lon="0.01982">
        <ele>39.9</ele>
        <time>2023-11-22T15:12:42Z</time>
      </trkpt>
      <trkpt lat="49.19272" lon="0.01983">
        <ele>40.1</ele>
        <time>2023-11-22T15:12:43Z</time>
      </trkpt>
      <trkpt lat="49.19277" lon="0.01984">
        <ele>40.3</ele>
        <time>2023-11-22T15:12:44Z</time>
      </trkpt>
      <trkpt lat="49.19282" lon="0.01985">
        <ele>40.5</ele>
        <time>2023-11-22T15:12:45Z</time>
      </trkpt>
      <trkpt lat="49.19287" lon="0.01986">
        <ele>40.7</ele>
        <time>2023-11-22T15:12:46Z</time>
      </trkpt>
      <trkpt lat="49.19292" lon="0.01987">
        <ele>40.8</ele>
        <time>2023-11-22T15:12:47Z</time>
      </trkpt>
      <trkpt lat="49.19297" lon="0.01989">
        <ele>41</ele>
        <time>2023-11-22T15:12:48Z</time>
      </trkpt>
      <trkpt lat="49.19302" lon="0.01991">
        <ele>41.2</ele>
        <time>2023-11-22T15:12:49Z</time>
      </trkpt>
      <trkpt lat="49.19307" lon="0.01993">
        <ele>41.3</ele>
        <time>2023-11-22T15:12:50Z</time>
      </trkpt>
      <trkpt lat="49.19312" lon="0.01995">
        <ele>41.5</ele>
        <time>2023-11-22T15:12:51Z</time>
      </trkpt>
      <trkpt lat="49.19316" lon="0.01998">
        <ele>41.7</ele>
        <time>2023-11-22T15:12:52Z</time>
      </trkpt>
      <trkpt lat="49.19322" lon="0.02001">
        <ele>41.9</ele>
        <time>2023-11-22T15:12:53Z</time>
      </trkpt>
      <trkpt lat="49.19326" lon="0.02003">
        <ele>42.1</ele>
        <time>2023-11-22T15:12:54Z</time>
      </trkpt>
      <trkpt lat="49.19331" lon="0.02005">
        <ele>42.3</ele>
        <time>2023-11-22T15:12:55Z</time>
      </trkpt>
      <trkpt lat="49.19336" lon="0.02007">
        <ele>42.5</ele>
        <time>2023-11-22T15:12:56Z</time>
      </trkpt>
      <trkpt lat="49.1934" lon="0.02009">
        <ele>42.7</ele>
        <time>2023-11-22T15:12:57Z</time>
      </trkpt>
      <trkpt lat="49.19345" lon="0.02011">
        <ele>43</ele>
        <time>2023-11-22T15:12:58Z</time>
      </trkpt>
      <trkpt lat="49.1935" lon="0.02012">
        <ele>43.2</ele>
        <time>2023-11-22T15:12:59Z</time>
      </trkpt>
      <trkpt lat="49.19354" lon="0.02013">
        <ele>43.4</ele>
        <time>2023-11-22T15:13:00Z</time>
      </trkpt>
      <trkpt lat="49.19359" lon="0.02014">
        <ele>43.6</ele>
        <time>2023-11-22T15:13:01Z</time>
      </trkpt>
      <trkpt lat="49.19363" lon="0.02015">
        <ele>43.9</ele>
        <time>2023-11-22T15:13:02Z</time>
      </trkpt>
      <trkpt lat="49.19367" lon="0.02015">
        <ele>44.1</ele>
        <time>2023-11-22T15:13:03Z</time>
      </trkpt>
      <trkpt lat="49.19371" lon="0.02016">
        <ele>44.3</ele>
        <time>2023-11-22T15:13:04Z</time>
      </trkpt>
      <trkpt lat="49.19376" lon="0.02016">
        <ele>44.6</ele>
        <time>2023-11-22T15:13:05Z</time>
      </trkpt>
      <trkpt lat="49.1938" lon="0.02017">
        <ele>44.8</ele>
        <time>2023-11-22T15:13:06Z</time>
      </trkpt>
      <trkpt lat="49.19385" lon="0.02018">
        <ele>45</ele>
        <time>2023-11-22T15:13:07Z</time>
      </trkpt>
      <trkpt lat="49.19389" lon="0.02019">
        <ele>45.2</ele>
        <time>2023-11-22T15:13:08Z</time>
      </trkpt>
      <trkpt lat="49.19394" lon="0.02019">
        <ele>45.4</ele>
        <time>2023-11-22T15:13:09Z</time>
      </trkpt>
      <trkpt lat="49.19399" lon="0.02019">
        <ele>45.6</ele>
        <time>2023-11-22T15:13:10Z</time>
      </trkpt>
      <trkpt lat="49.19403" lon="0.02018">
        <ele>45.9</ele>
        <time>2023-11-22T15:13:11Z</time>
      </trkpt>
      <trkpt lat="49.19408" lon="0.02018">
        <ele>46.1</ele>
        <time>2023-11-22T15:13:12Z</time>
      </trkpt>
      <trkpt lat="49.19413" lon="0.02018">
        <ele>46.3</ele>
        <time>2023-11-22T15:13:13Z</time>
      </trkpt>
      <trkpt lat="49.19418" lon="0.02018">
        <ele>46.5</ele>
        <time>2023-11-22T15:13:14Z</time>
      </trkpt>
      <trkpt lat="49.19422" lon="0.02017">
        <ele>46.7</ele>
        <time>2023-11-22T15:13:15Z</time>
      </trkpt>
      <trkpt lat="49.19427" lon="0.02017">
        <ele>46.9</ele>
        <time>2023-11-22T15:13:16Z</time>
      </trkpt>
      <trkpt lat="49.19433" lon="0.02016">
        <ele>47.1</ele>
        <time>2023-11-22T15:13:17Z</time>
      </trkpt>
      <trkpt lat="49.19438" lon="0.02016">
        <ele>47.3</ele>
        <time>2023-11-22T15:13:18Z</time>
      </trkpt>
      <trkpt lat="49.19443" lon="0.02016">
        <ele>47.5</ele>
        <time>2023-11-22T15:13:19Z</time>
      </trkpt>
      <trkpt lat="49.19448" lon="0.02015">
        <ele>47.7</ele>
        <time>2023-11-22T15:13:20Z</time>
      </trkpt>
      <trkpt lat="49.19453" lon="0.02014">
        <ele>47.9</ele>
        <time>2023-11-22T15:13:21Z</time>
      </trkpt>
      <trkpt lat="49.19459" lon="0.02014">
        <ele>48.1</ele>
        <time>2023-11-22T15:13:22Z</time>
      </trkpt>
      <trkpt lat="49.19463" lon="0.02014">
        <ele>48.3</ele>
        <time>2023-11-22T15:13:23Z</time>
      </trkpt>
      <trkpt lat="49.19468" lon="0.02013">
        <ele>48.5</ele>
        <time>2023-11-22T15:13:24Z</time>
      </trkpt>
      <trkpt lat="49.19474" lon="0.02012">
        <ele>48.7</ele>
        <time>2023-11-22T15:13:25Z</time>
      </trkpt>
      <trkpt lat="49.19479" lon="0.02011">
        <ele>48.8</ele>
        <time>2023-11-22T15:13:26Z</time>
      </trkpt>
      <trkpt lat="49.19484" lon="0.0201">
        <ele>49</ele>
        <time>2023-11-22T15:13:27Z</time>
      </trkpt>
      <trkpt lat="49.19489" lon="0.0201">
        <ele>49.2</ele>
        <time>2023-11-22T15:13:28Z</time>
      </trkpt>
      <trkpt lat="49.19494" lon="0.02009">
        <ele>49.4</ele>
        <time>2023-11-22T15:13:29Z</time>
      </trkpt>
      <trkpt lat="49.19499" lon="0.02009">
        <ele>49.5</ele>
        <time>2023-11-22T15:13:30Z</time>
      </trkpt>
      <trkpt lat="49.19504" lon="0.02008">
        <ele>49.7</ele>
        <time>2023-11-22T15:13:31Z</time>
      </trkpt>
      <trkpt lat="49.19509" lon="0.02008">
        <ele>49.9</ele>
        <time>2023-11-22T15:13:32Z</time>
      </trkpt>
      <trkpt lat="49.19514" lon="0.02007">
        <ele>50</ele>
        <time>2023-11-22T15:13:33Z</time>
      </trkpt>
      <trkpt lat="49.19518" lon="0.02007">
        <ele>50.2</ele>
        <time>2023-11-22T15:13:34Z</time>
      </trkpt>
      <trkpt lat="49.19523" lon="0.02006">
        <ele>50.3</ele>
        <time>2023-11-22T15:13:35Z</time>
      </trkpt>
      <trkpt lat="49.19527" lon="0.02006">
        <ele>50.5</ele>
        <time>2023-11-22T15:13:36Z</time>
      </trkpt>
      <trkpt lat="49.19532" lon="0.02005">
        <ele>50.6</ele>
        <time>2023-11-22T15:13:37Z</time>
      </trkpt>
      <trkpt lat="49.19537" lon="0.02004">
        <ele>50.7</ele>
        <time>2023-11-22T15:13:38Z</time>
      </trkpt>
      <trkpt lat="49.19542" lon="0.02003">
        <ele>50.9</ele>
        <time>2023-11-22T15:13:39Z</time>
      </trkpt>
      <trkpt lat="49.19547" lon="0.02003">
        <ele>51</ele>
        <time>2023-11-22T15:13:40Z</time>
      </trkpt>
      <trkpt lat="49.19552" lon="0.02002">
        <ele>51.1</ele>
        <time>2023-11-22T15:13:41Z</time>
      </trkpt>
      <trkpt lat="49.19557" lon="0.02001">
        <ele>51.3</ele>
        <time>2023-11-22T15:13:42Z</time>
      </trkpt>
      <trkpt lat="49.19562" lon="0.02">
        <ele>51.4</ele>
        <time>2023-11-22T15:13:43Z</time>
      </trkpt>
      <trkpt lat="49.19567" lon="0.01998">
        <ele>51.5</ele>
        <time>2023-11-22T15:13:44Z</time>
      </trkpt>
      <trkpt lat="49.19572" lon="0.01997">
        <ele>51.7</ele>
        <time>2023-11-22T15:13:45Z</time>
      </trkpt>
      <trkpt lat="49.19577" lon="0.01995">
        <ele>51.9</ele>
        <time>2023-11-22T15:13:46Z</time>
      </trkpt>
      <trkpt lat="49.19582" lon="0.01994">
        <ele>52</ele>
        <time>2023-11-22T15:13:47Z</time>
      </trkpt>
      <trkpt lat="49.19587" lon="0.01992">
        <ele>52.2</ele>
        <time>2023-11-22T15:13:48Z</time>
      </trkpt>
      <trkpt lat="49.19592" lon="0.01991">
        <ele>52.4</ele>
        <time>2023-11-22T15:13:49Z</time>
      </trkpt>
      <trkpt lat="49.19598" lon="0.0199">
        <ele>52.6</ele>
        <time>2023-11-22T15:13:50Z</time>
      </trkpt>
      <trkpt lat="49.19603" lon="0.01988">
        <ele>52.8</ele>
        <time>2023-11-22T15:13:51Z</time>
      </trkpt>
      <trkpt lat="49.19608" lon="0.01987">
        <ele>53</ele>
        <time>2023-11-22T15:13:52Z</time>
      </trkpt>
      <trkpt lat="49.19612" lon="0.01986">
        <ele>53.1</ele>
        <time>2023-11-22T15:13:53Z</time>
      </trkpt>
      <trkpt lat="49.19617" lon="0.01985">
        <ele>53.3</ele>
        <time>2023-11-22T15:13:54Z</time>
      </trkpt>
      <trkpt lat="49.19622" lon="0.01984">
        <ele>53.5</ele>
        <time>2023-11-22T15:13:55Z</time>
      </trkpt>
      <trkpt lat="49.19627" lon="0.01983">
        <ele>53.7</ele>
        <time>2023-11-22T15:13:56Z</time>
      </trkpt>
      <trkpt lat="49.19632" lon="0.01982">
        <ele>53.9</ele>
        <time>2023-11-22T15:13:57Z</time>
      </trkpt>
      <trkpt lat="49.19637" lon="0.0198">
        <ele>54.1</ele>
        <time>2023-11-22T15:13:58Z</time>
      </trkpt>
      <trkpt lat="49.19641" lon="0.01978">
        <ele>54.3</ele>
        <time>2023-11-22T15:13:59Z</time>
      </trkpt>
      <trkpt lat="49.19646" lon="0.01977">
        <ele>54.5</ele>
        <time>2023-11-22T15:14:00Z</time>
      </trkpt>
      <trkpt lat="49.1965" lon="0.01975">
        <ele>54.7</ele>
        <time>2023-11-22T15:14:01Z</time>
      </trkpt>
      <trkpt lat="49.19654" lon="0.01973">
        <ele>54.9</ele>
        <time>2023-11-22T15:14:02Z</time>
      </trkpt>
      <trkpt lat="49.19659" lon="0.01971">
        <ele>55.1</ele>
        <time>2023-11-22T15:14:03Z</time>
      </trkpt>
      <trkpt lat="49.19663" lon="0.01968">
        <ele>55.3</ele>
        <time>2023-11-22T15:14:04Z</time>
      </trkpt>
      <trkpt lat="49.19668" lon="0.01965">
        <ele>55.5</ele>
        <time>2023-11-22T15:14:05Z</time>
      </trkpt>
      <trkpt lat="49.19672" lon="0.01962">
        <ele>55.7</ele>
        <time>2023-11-22T15:14:06Z</time>
      </trkpt>
      <trkpt lat="49.19676" lon="0.01958">
        <ele>56</ele>
        <time>2023-11-22T15:14:07Z</time>
      </trkpt>
      <trkpt lat="49.1968" lon="0.01955">
        <ele>56.2</ele>
        <time>2023-11-22T15:14:08Z</time>
      </trkpt>
      <trkpt lat="49.19684" lon="0.01951">
        <ele>56.4</ele>
        <time>2023-11-22T15:14:09Z</time>
      </trkpt>
      <trkpt lat="49.19688" lon="0.01947">
        <ele>56.7</ele>
        <time>2023-11-22T15:14:10Z</time>
      </trkpt>
      <trkpt lat="49.19692" lon="0.01943">
        <ele>56.9</ele>
        <time>2023-11-22T15:14:11Z</time>
      </trkpt>
      <trkpt lat="49.19696" lon="0.01939">
        <ele>57.2</ele>
        <time>2023-11-22T15:14:12Z</time>
      </trkpt>
      <trkpt lat="49.197" lon="0.01935">
        <ele>57.5</ele>
        <time>2023-11-22T15:14:13Z</time>
      </trkpt>
      <trkpt lat="49.19705" lon="0.01932">
        <ele>57.7</ele>
        <time>2023-11-22T15:14:14Z</time>
      </trkpt>
      <trkpt lat="49.19709" lon="0.01928">
        <ele>58</ele>
        <time>2023-11-22T15:14:15Z</time>
      </trkpt>
      <trkpt lat="49.19713" lon="0.01924">
        <ele>58.2</ele>
        <time>2023-11-22T15:14:16Z</time>
      </trkpt>
      <trkpt lat="49.19718" lon="0.01919">
        <ele>58.5</ele>
        <time>2023-11-22T15:14:17Z</time>
      </trkpt>
      <trkpt lat="49.19723" lon="0.01916">
        <ele>58.7</ele>
        <time>2023-11-22T15:14:18Z</time>
      </trkpt>
      <trkpt lat="49.19727" lon="0.01912">
        <ele>58.9</ele>
        <time>2023-11-22T15:14:19Z</time>
      </trkpt>
      <trkpt lat="49.19732" lon="0.01908">
        <ele>59</ele>
        <time>2023-11-22T15:14:20Z</time>
      </trkpt>
      <trkpt lat="49.19737" lon="0.01904">
        <ele>59.2</ele>
        <time>2023-11-22T15:14:21Z</time>
      </trkpt>
      <trkpt lat="49.19742" lon="0.019">
        <ele>59.3</ele>
        <time>2023-11-22T15:14:22Z</time>
      </trkpt>
      <trkpt lat="49.19746" lon="0.01895">
        <ele>59.5</ele>
        <time>2023-11-22T15:14:23Z</time>
      </trkpt>
      <trkpt lat="49.19751" lon="0.0189">
        <ele>59.6</ele>
        <time>2023-11-22T15:14:24Z</time>
      </trkpt>
      <trkpt lat="49.19756" lon="0.01885">
        <ele>59.8</ele>
        <time>2023-11-22T15:14:25Z</time>
      </trkpt>
      <trkpt lat="49.19762" lon="0.0188">
        <ele>59.9</ele>
        <time>2023-11-22T15:14:26Z</time>
      </trkpt>
      <trkpt lat="49.19767" lon="0.01875">
        <ele>60</ele>
        <time>2023-11-22T15:14:27Z</time>
      </trkpt>
      <trkpt lat="49.19772" lon="0.0187">
        <ele>60.1</ele>
        <time>2023-11-22T15:14:28Z</time>
      </trkpt>
      <trkpt lat="49.19777" lon="0.01866">
        <ele>60.2</ele>
        <time>2023-11-22T15:14:29Z</time>
      </trkpt>
      <trkpt lat="49.19782" lon="0.01861">
        <ele>60.2</ele>
        <time>2023-11-22T15:14:30Z</time>
      </trkpt>
      <trkpt lat="49.19787" lon="0.01856">
        <ele>60.3</ele>
        <time>2023-11-22T15:14:31Z</time>
      </trkpt>
      <trkpt lat="49.19792" lon="0.01851">
        <ele>60.3</ele>
        <time>2023-11-22T15:14:32Z</time>
      </trkpt>
      <trkpt lat="49.19797" lon="0.01847">
        <ele>60.2</ele>
        <time>2023-11-22T15:14:33Z</time>
      </trkpt>
      <trkpt lat="49.19802" lon="0.01843">
        <ele>60.2</ele>
        <time>2023-11-22T15:14:34Z</time>
      </trkpt>
      <trkpt lat="49.19807" lon="0.01839">
        <ele>60.1</ele>
        <time>2023-11-22T15:14:35Z</time>
      </trkpt>
      <trkpt lat="49.19812" lon="0.01834">
        <ele>60.1</ele>
        <time>2023-11-22T15:14:36Z</time>
      </trkpt>
      <trkpt lat="49.19817" lon="0.01829">
        <ele>60</ele>
        <time>2023-11-22T15:14:37Z</time>
      </trkpt>
      <trkpt lat="49.19822" lon="0.01825">
        <ele>59.9</ele>
        <time>2023-11-22T15:14:38Z</time>
      </trkpt>
      <trkpt lat="49.19826" lon="0.01821">
        <ele>59.8</ele>
        <time>2023-11-22T15:14:39Z</time>
      </trkpt>
      <trkpt lat="49.1983" lon="0.01818">
        <ele>59.7</ele>
        <time>2023-11-22T15:14:40Z</time>
      </trkpt>
      <trkpt lat="49.19833" lon="0.01815">
        <ele>59.6</ele>
        <time>2023-11-22T15:14:41Z</time>
      </trkpt>
      <trkpt lat="49.19836" lon="0.01812">
        <ele>59.6</ele>
        <time>2023-11-22T15:14:42Z</time>
      </trkpt>
      <trkpt lat="49.1984" lon="0.01807">
        <ele>59.4</ele>
        <time>2023-11-22T15:14:43Z</time>
      </trkpt>
      <trkpt lat="49.19843" lon="0.01801">
        <ele>59.3</ele>
        <time>2023-11-22T15:14:44Z</time>
      </trkpt>
      <trkpt lat="49.19846" lon="0.01794">
        <ele>59.2</ele>
        <time>2023-11-22T15:14:45Z</time>
      </trkpt>
      <trkpt lat="49.19849" lon="0.01788">
        <ele>59</ele>
        <time>2023-11-22T15:14:46Z</time>
      </trkpt>
      <trkpt lat="49.19851" lon="0.01781">
        <ele>58.9</ele>
        <time>2023-11-22T15:14:47Z</time>
      </trkpt>
      <trkpt lat="49.19853" lon="0.01774">
        <ele>58.8</ele>
        <time>2023-11-22T15:14:48Z</time>
      </trkpt>
      <trkpt lat="49.19855" lon="0.01767">
        <ele>58.7</ele>
        <time>2023-11-22T15:14:49Z</time>
      </trkpt>
      <trkpt lat="49.19857" lon="0.0176">
        <ele>58.6</ele>
        <time>2023-11-22T15:14:50Z</time>
      </trkpt>
      <trkpt lat="49.19859" lon="0.01753">
        <ele>58.5</ele>
        <time>2023-11-22T15:14:51Z</time>
      </trkpt>
      <trkpt lat="49.19861" lon="0.01747">
        <ele>58.5</ele>
        <time>2023-11-22T15:14:52Z</time>
      </trkpt>
      <trkpt lat="49.19863" lon="0.01741">
        <ele>58.5</ele>
        <time>2023-11-22T15:14:53Z</time>
      </trkpt>
      <trkpt lat="49.19866" lon="0.01734">
        <ele>58.5</ele>
        <time>2023-11-22T15:14:54Z</time>
      </trkpt>
      <trkpt lat="49.19868" lon="0.01728">
        <ele>58.5</ele>
        <time>2023-11-22T15:14:55Z</time>
      </trkpt>
      <trkpt lat="49.1987" lon="0.01721">
        <ele>58.5</ele>
        <time>2023-11-22T15:14:56Z</time>
      </trkpt>
      <trkpt lat="49.19873" lon="0.01715">
        <ele>58.5</ele>
        <time>2023-11-22T15:14:57Z</time>
      </trkpt>
      <trkpt lat="49.19876" lon="0.01709">
        <ele>58.5</ele>
        <time>2023-11-22T15:14:58Z</time>
      </trkpt>
      <trkpt lat="49.19878" lon="0.01703">
        <ele>58.5</ele>
        <time>2023-11-22T15:14:59Z</time>
      </trkpt>
      <trkpt lat="49.19881" lon="0.01697">
        <ele>58.5</ele>
        <time>2023-11-22T15:15:00Z</time>
      </trkpt>
      <trkpt lat="49.19883" lon="0.0169">
        <ele>58.6</ele>
        <time>2023-11-22T15:15:01Z</time>
      </trkpt>
      <trkpt lat="49.19885" lon="0.01682">
        <ele>58.6</ele>
        <time>2023-11-22T15:15:02Z</time>
      </trkpt>
      <trkpt lat="49.19887" lon="0.01674">
        <ele>58.6</ele>
        <time>2023-11-22T15:15:03Z</time>
      </trkpt>
      <trkpt lat="49.19888" lon="0.01666">
        <ele>58.6</ele>
        <time>2023-11-22T15:15:04Z</time>
      </trkpt>
      <trkpt lat="49.19889" lon="0.01657">
        <ele>58.7</ele>
        <time>2023-11-22T15:15:05Z</time>
      </trkpt>
      <trkpt lat="49.19889" lon="0.01648">
        <ele>58.7</ele>
        <time>2023-11-22T15:15:06Z</time>
      </trkpt>
      <trkpt lat="49.19889" lon="0.01639">
        <ele>58.7</ele>
        <time>2023-11-22T15:15:07Z</time>
      </trkpt>
      <trkpt lat="49.19888" lon="0.01629">
        <ele>58.8</ele>
        <time>2023-11-22T15:15:08Z</time>
      </trkpt>
      <trkpt lat="49.19887" lon="0.0162">
        <ele>58.8</ele>
        <time>2023-11-22T15:15:09Z</time>
      </trkpt>
      <trkpt lat="49.19885" lon="0.01611">
        <ele>58.9</ele>
        <time>2023-11-22T15:15:10Z</time>
      </trkpt>
      <trkpt lat="49.19882" lon="0.01603">
        <ele>59</ele>
        <time>2023-11-22T15:15:11Z</time>
      </trkpt>
      <trkpt lat="49.19879" lon="0.01595">
        <ele>59.1</ele>
        <time>2023-11-22T15:15:12Z</time>
      </trkpt>
      <trkpt lat="49.19876" lon="0.01587">
        <ele>59.2</ele>
        <time>2023-11-22T15:15:13Z</time>
      </trkpt>
      <trkpt lat="49.19874" lon="0.01579">
        <ele>59.2</ele>
        <time>2023-11-22T15:15:14Z</time>
      </trkpt>
      <trkpt lat="49.19872" lon="0.01571">
        <ele>59.3</ele>
        <time>2023-11-22T15:15:15Z</time>
      </trkpt>
      <trkpt lat="49.1987" lon="0.01563">
        <ele>59.4</ele>
        <time>2023-11-22T15:15:16Z</time>
      </trkpt>
      <trkpt lat="49.19868" lon="0.01554">
        <ele>59.4</ele>
        <time>2023-11-22T15:15:17Z</time>
      </trkpt>
      <trkpt lat="49.19867" lon="0.01545">
        <ele>59.5</ele>
        <time>2023-11-22T15:15:18Z</time>
      </trkpt>
      <trkpt lat="49.19866" lon="0.01537">
        <ele>59.6</ele>
        <time>2023-11-22T15:15:19Z</time>
      </trkpt>
      <trkpt lat="49.19865" lon="0.01528">
        <ele>59.7</ele>
        <time>2023-11-22T15:15:20Z</time>
      </trkpt>
      <trkpt lat="49.19865" lon="0.01519">
        <ele>59.8</ele>
        <time>2023-11-22T15:15:21Z</time>
      </trkpt>
      <trkpt lat="49.19864" lon="0.0151">
        <ele>60</ele>
        <time>2023-11-22T15:15:22Z</time>
      </trkpt>
      <trkpt lat="49.19864" lon="0.01501">
        <ele>60.1</ele>
        <time>2023-11-22T15:15:23Z</time>
      </trkpt>
      <trkpt lat="49.19864" lon="0.01492">
        <ele>60.2</ele>
        <time>2023-11-22T15:15:24Z</time>
      </trkpt>
      <trkpt lat="49.19864" lon="0.01483">
        <ele>60.4</ele>
        <time>2023-11-22T15:15:25Z</time>
      </trkpt>
      <trkpt lat="49.19863" lon="0.01475">
        <ele>60.5</ele>
        <time>2023-11-22T15:15:26Z</time>
      </trkpt>
      <trkpt lat="49.19863" lon="0.01467">
        <ele>60.6</ele>
        <time>2023-11-22T15:15:27Z</time>
      </trkpt>
      <trkpt lat="49.19863" lon="0.01459">
        <ele>60.7</ele>
        <time>2023-11-22T15:15:28Z</time>
      </trkpt>
      <trkpt lat="49.19862" lon="0.01451">
        <ele>60.8</ele>
        <time>2023-11-22T15:15:29Z</time>
      </trkpt>
      <trkpt lat="49.19861" lon="0.01443">
        <ele>60.9</ele>
        <time>2023-11-22T15:15:30Z</time>
      </trkpt>
      <trkpt lat="49.19861" lon="0.01435">
        <ele>60.9</ele>
        <time>2023-11-22T15:15:31Z</time>
      </trkpt>
      <trkpt lat="49.19861" lon="0.01427">
        <ele>61</ele>
        <time>2023-11-22T15:15:32Z</time>
      </trkpt>
      <trkpt lat="49.19861" lon="0.01419">
        <ele>61.1</ele>
        <time>2023-11-22T15:15:33Z</time>
      </trkpt>
      <trkpt lat="49.19861" lon="0.01411">
        <ele>61.2</ele>
        <time>2023-11-22T15:15:34Z</time>
      </trkpt>
      <trkpt lat="49.19861" lon="0.01402">
        <ele>61.3</ele>
        <time>2023-11-22T15:15:35Z</time>
      </trkpt>
      <trkpt lat="49.19862" lon="0.01394">
        <ele>61.4</ele>
        <time>2023-11-22T15:15:36Z</time>
      </trkpt>
      <trkpt lat="49.19864" lon="0.01386">
        <ele>61.5</ele>
        <time>2023-11-22T15:15:37Z</time>
      </trkpt>
      <trkpt lat="49.19865" lon="0.01378">
        <ele>61.7</ele>
        <time>2023-11-22T15:15:38Z</time>
      </trkpt>
      <trkpt lat="49.19867" lon="0.01371">
        <ele>61.8</ele>
        <time>2023-11-22T15:15:39Z</time>
      </trkpt>
      <trkpt lat="49.19869" lon="0.01363">
        <ele>61.9</ele>
        <time>2023-11-22T15:15:40Z</time>
      </trkpt>
      <trkpt lat="49.19871" lon="0.01356">
        <ele>62</ele>
        <time>2023-11-22T15:15:41Z</time>
      </trkpt>
      <trkpt lat="49.19874" lon="0.01349">
        <ele>62.2</ele>
        <time>2023-11-22T15:15:42Z</time>
      </trkpt>
      <trkpt lat="49.19877" lon="0.01342">
        <ele>62.3</ele>
        <time>2023-11-22T15:15:43Z</time>
      </trkpt>
      <trkpt lat="49.1988" lon="0.01335">
        <ele>62.5</ele>
        <time>2023-11-22T15:15:44Z</time>
      </trkpt>
      <trkpt lat="49.19883" lon="0.01329">
        <ele>62.7</ele>
        <time>2023-11-22T15:15:45Z</time>
      </trkpt>
      <trkpt lat="49.19886" lon="0.01323">
        <ele>62.9</ele>
        <time>2023-11-22T15:15:46Z</time>
      </trkpt>
      <trkpt lat="49.19889" lon="0.01318">
        <ele>63.1</ele>
        <time>2023-11-22T15:15:47Z</time>
      </trkpt>
      <trkpt lat="49.19891" lon="0.01314">
        <ele>63.2</ele>
        <time>2023-11-22T15:15:48Z</time>
      </trkpt>
      <trkpt lat="49.19893" lon="0.0131">
        <ele>63.3</ele>
        <time>2023-11-22T15:15:49Z</time>
      </trkpt>
      <trkpt lat="49.19894" lon="0.01307">
        <ele>63.5</ele>
        <time>2023-11-22T15:15:50Z</time>
      </trkpt>
      <trkpt lat="49.19895" lon="0.01303">
        <ele>63.6</ele>
        <time>2023-11-22T15:15:51Z</time>
      </trkpt>
      <trkpt lat="49.19897" lon="0.01298">
        <ele>63.7</ele>
        <time>2023-11-22T15:15:52Z</time>
      </trkpt>
      <trkpt lat="49.19898" lon="0.01294">
        <ele>63.9</ele>
        <time>2023-11-22T15:15:53Z</time>
      </trkpt>
      <trkpt lat="49.199" lon="0.0129">
        <ele>64.1</ele>
        <time>2023-11-22T15:15:54Z</time>
      </trkpt>
      <trkpt lat="49.19902" lon="0.01287">
        <ele>64.2</ele>
        <time>2023-11-22T15:15:55Z</time>
      </trkpt>
      <trkpt lat="49.19904" lon="0.01281">
        <ele>64.5</ele>
        <time>2023-11-22T15:15:56Z</time>
      </trkpt>
      <trkpt lat="49.19904" lon="0.0128">
        <ele>64.6</ele>
        <time>2023-11-22T15:15:57Z</time>
      </trkpt>
      <trkpt lat="49.19906" lon="0.01276">
        <ele>64.8</ele>
        <time>2023-11-22T15:15:58Z</time>
      </trkpt>
      <trkpt lat="49.19907" lon="0.01271">
        <ele>65</ele>
        <time>2023-11-22T15:15:59Z</time>
      </trkpt>
      <trkpt lat="49.19909" lon="0.01266">
        <ele>65.3</ele>
        <time>2023-11-22T15:16:00Z</time>
      </trkpt>
      <trkpt lat="49.1991" lon="0.01261">
        <ele>65.5</ele>
        <time>2023-11-22T15:16:01Z</time>
      </trkpt>
      <trkpt lat="49.19911" lon="0.01256">
        <ele>65.7</ele>
        <time>2023-11-22T15:16:02Z</time>
      </trkpt>
      <trkpt lat="49.19912" lon="0.01251">
        <ele>66</ele>
        <time>2023-11-22T15:16:03Z</time>
      </trkpt>
      <trkpt lat="49.19913" lon="0.01245">
        <ele>66.3</ele>
        <time>2023-11-22T15:16:04Z</time>
      </trkpt>
      <trkpt lat="49.19914" lon="0.01239">
        <ele>66.6</ele>
        <time>2023-11-22T15:16:05Z</time>
      </trkpt>
      <trkpt lat="49.19916" lon="0.01234">
        <ele>66.9</ele>
        <time>2023-11-22T15:16:06Z</time>
      </trkpt>
      <trkpt lat="49.19917" lon="0.0123">
        <ele>67.2</ele>
        <time>2023-11-22T15:16:07Z</time>
      </trkpt>
      <trkpt lat="49.19918" lon="0.01225">
        <ele>67.4</ele>
        <time>2023-11-22T15:16:08Z</time>
      </trkpt>
      <trkpt lat="49.1992" lon="0.01221">
        <ele>67.7</ele>
        <time>2023-11-22T15:16:09Z</time>
      </trkpt>
      <trkpt lat="49.19921" lon="0.01217">
        <ele>68</ele>
        <time>2023-11-22T15:16:10Z</time>
      </trkpt>
      <trkpt lat="49.19923" lon="0.01212">
        <ele>68.3</ele>
        <time>2023-11-22T15:16:11Z</time>
      </trkpt>
      <trkpt lat="49.19923" lon="0.01208">
        <ele>68.6</ele>
        <time>2023-11-22T15:16:12Z</time>
      </trkpt>
      <trkpt lat="49.19925" lon="0.01203">
        <ele>69</ele>
        <time>2023-11-22T15:16:13Z</time>
      </trkpt>
      <trkpt lat="49.19926" lon="0.01198">
        <ele>69.3</ele>
        <time>2023-11-22T15:16:14Z</time>
      </trkpt>
      <trkpt lat="49.19927" lon="0.01194">
        <ele>69.6</ele>
        <time>2023-11-22T15:16:15Z</time>
      </trkpt>
      <trkpt lat="49.19929" lon="0.01189">
        <ele>70</ele>
        <time>2023-11-22T15:16:16Z</time>
      </trkpt>
      <trkpt lat="49.1993" lon="0.01184">
        <ele>70.3</ele>
        <time>2023-11-22T15:16:17Z</time>
      </trkpt>
      <trkpt lat="49.19931" lon="0.01179">
        <ele>70.6</ele>
        <time>2023-11-22T15:16:18Z</time>
      </trkpt>
      <trkpt lat="49.19932" lon="0.01175">
        <ele>70.9</ele>
        <time>2023-11-22T15:16:19Z</time>
      </trkpt>
      <trkpt lat="49.19934" lon="0.01171">
        <ele>71.2</ele>
        <time>2023-11-22T15:16:20Z</time>
      </trkpt>
      <trkpt lat="49.19935" lon="0.01166">
        <ele>71.5</ele>
        <time>2023-11-22T15:16:21Z</time>
      </trkpt>
      <trkpt lat="49.19936" lon="0.01162">
        <ele>71.8</ele>
        <time>2023-11-22T15:16:22Z</time>
      </trkpt>
      <trkpt lat="49.19937" lon="0.01157">
        <ele>72.1</ele>
        <time>2023-11-22T15:16:23Z</time>
      </trkpt>
      <trkpt lat="49.19938" lon="0.01152">
        <ele>72.5</ele>
        <time>2023-11-22T15:16:24Z</time>
      </trkpt>
      <trkpt lat="49.19939" lon="0.01147">
        <ele>72.8</ele>
        <time>2023-11-22T15:16:25Z</time>
      </trkpt>
      <trkpt lat="49.1994" lon="0.01141">
        <ele>73.1</ele>
        <time>2023-11-22T15:16:26Z</time>
      </trkpt>
      <trkpt lat="49.19941" lon="0.01136">
        <ele>73.5</ele>
        <time>2023-11-22T15:16:27Z</time>
      </trkpt>
      <trkpt lat="49.19942" lon="0.01131">
        <ele>73.8</ele>
        <time>2023-11-22T15:16:28Z</time>
      </trkpt>
      <trkpt lat="49.19944" lon="0.01126">
        <ele>74.2</ele>
        <time>2023-11-22T15:16:29Z</time>
      </trkpt>
      <trkpt lat="49.19946" lon="0.01122">
        <ele>74.5</ele>
        <time>2023-11-22T15:16:30Z</time>
      </trkpt>
      <trkpt lat="49.19947" lon="0.01117">
        <ele>74.9</ele>
        <time>2023-11-22T15:16:31Z</time>
      </trkpt>
      <trkpt lat="49.19949" lon="0.01113">
        <ele>75.2</ele>
        <time>2023-11-22T15:16:32Z</time>
      </trkpt>
      <trkpt lat="49.1995" lon="0.01108">
        <ele>75.5</ele>
        <time>2023-11-22T15:16:33Z</time>
      </trkpt>
      <trkpt lat="49.19952" lon="0.01104">
        <ele>75.9</ele>
        <time>2023-11-22T15:16:34Z</time>
      </trkpt>
      <trkpt lat="49.19954" lon="0.011">
        <ele>76.2</ele>
        <time>2023-11-22T15:16:35Z</time>
      </trkpt>
      <trkpt lat="49.19955" lon="0.01096">
        <ele>76.5</ele>
        <time>2023-11-22T15:16:36Z</time>
      </trkpt>
      <trkpt lat="49.19957" lon="0.01092">
        <ele>76.8</ele>
        <time>2023-11-22T15:16:37Z</time>
      </trkpt>
      <trkpt lat="49.19958" lon="0.01087">
        <ele>77.2</ele>
        <time>2023-11-22T15:16:38Z</time>
      </trkpt>
      <trkpt lat="49.1996" lon="0.01083">
        <ele>77.5</ele>
        <time>2023-11-22T15:16:39Z</time>
      </trkpt>
      <trkpt lat="49.19962" lon="0.01079">
        <ele>77.8</ele>
        <time>2023-11-22T15:16:40Z</time>
      </trkpt>
      <trkpt lat="49.19963" lon="0.01076">
        <ele>78.1</ele>
        <time>2023-11-22T15:16:41Z</time>
      </trkpt>
      <trkpt lat="49.19965" lon="0.01072">
        <ele>78.4</ele>
        <time>2023-11-22T15:16:42Z</time>
      </trkpt>
      <trkpt lat="49.19967" lon="0.01068">
        <ele>78.7</ele>
        <time>2023-11-22T15:16:43Z</time>
      </trkpt>
      <trkpt lat="49.19968" lon="0.01064">
        <ele>79</ele>
        <time>2023-11-22T15:16:44Z</time>
      </trkpt>
      <trkpt lat="49.19969" lon="0.0106">
        <ele>79.3</ele>
        <time>2023-11-22T15:16:45Z</time>
      </trkpt>
      <trkpt lat="49.19971" lon="0.01056">
        <ele>79.5</ele>
        <time>2023-11-22T15:16:46Z</time>
      </trkpt>
      <trkpt lat="49.19972" lon="0.01052">
        <ele>79.8</ele>
        <time>2023-11-22T15:16:47Z</time>
      </trkpt>
      <trkpt lat="49.19973" lon="0.01048">
        <ele>80.1</ele>
        <time>2023-11-22T15:16:48Z</time>
      </trkpt>
      <trkpt lat="49.19974" lon="0.01043">
        <ele>80.4</ele>
        <time>2023-11-22T15:16:49Z</time>
      </trkpt>
      <trkpt lat="49.19976" lon="0.01039">
        <ele>80.7</ele>
        <time>2023-11-22T15:16:50Z</time>
      </trkpt>
      <trkpt lat="49.19977" lon="0.01035">
        <ele>81</ele>
        <time>2023-11-22T15:16:51Z</time>
      </trkpt>
      <trkpt lat="49.19979" lon="0.0103">
        <ele>81.3</ele>
        <time>2023-11-22T15:16:52Z</time>
      </trkpt>
      <trkpt lat="49.1998" lon="0.01026">
        <ele>81.6</ele>
        <time>2023-11-22T15:16:53Z</time>
      </trkpt>
      <trkpt lat="49.19982" lon="0.01022">
        <ele>81.8</ele>
        <time>2023-11-22T15:16:54Z</time>
      </trkpt>
      <trkpt lat="49.19983" lon="0.01018">
        <ele>82.1</ele>
        <time>2023-11-22T15:16:55Z</time>
      </trkpt>
      <trkpt lat="49.19985" lon="0.01014">
        <ele>82.4</ele>
        <time>2023-11-22T15:16:56Z</time>
      </trkpt>
      <trkpt lat="49.19986" lon="0.01009">
        <ele>82.7</ele>
        <time>2023-11-22T15:16:57Z</time>
      </trkpt>
      <trkpt lat="49.19987" lon="0.01006">
        <ele>82.9</ele>
        <time>2023-11-22T15:16:58Z</time>
      </trkpt>
      <trkpt lat="49.19989" lon="0.01001">
        <ele>83.2</ele>
        <time>2023-11-22T15:16:59Z</time>
      </trkpt>
      <trkpt lat="49.19991" lon="0.00998">
        <ele>83.5</ele>
        <time>2023-11-22T15:17:00Z</time>
      </trkpt>
      <trkpt lat="49.19993" lon="0.00994">
        <ele>83.8</ele>
        <time>2023-11-22T15:17:01Z</time>
      </trkpt>
      <trkpt lat="49.19995" lon="0.0099">
        <ele>84.1</ele>
        <time>2023-11-22T15:17:02Z</time>
      </trkpt>
      <trkpt lat="49.19997" lon="0.00986">
        <ele>84.4</ele>
        <time>2023-11-22T15:17:03Z</time>
      </trkpt>
      <trkpt lat="49.19999" lon="0.00982">
        <ele>84.7</ele>
        <time>2023-11-22T15:17:04Z</time>
      </trkpt>
      <trkpt lat="49.20001" lon="0.00978">
        <ele>85</ele>
        <time>2023-11-22T15:17:05Z</time>
      </trkpt>
      <trkpt lat="49.20003" lon="0.00974">
        <ele>85.3</ele>
        <time>2023-11-22T15:17:06Z</time>
      </trkpt>
      <trkpt lat="49.20005" lon="0.00971">
        <ele>85.6</ele>
        <time>2023-11-22T15:17:07Z</time>
      </trkpt>
      <trkpt lat="49.20007" lon="0.00968">
        <ele>85.9</ele>
        <time>2023-11-22T15:17:08Z</time>
      </trkpt>
      <trkpt lat="49.2001" lon="0.00965">
        <ele>86.2</ele>
        <time>2023-11-22T15:17:09Z</time>
      </trkpt>
      <trkpt lat="49.20012" lon="0.00961">
        <ele>86.5</ele>
        <time>2023-11-22T15:17:10Z</time>
      </trkpt>
      <trkpt lat="49.20015" lon="0.00957">
        <ele>86.9</ele>
        <time>2023-11-22T15:17:11Z</time>
      </trkpt>
      <trkpt lat="49.20016" lon="0.00956">
        <ele>87</ele>
        <time>2023-11-22T15:17:12Z</time>
      </trkpt>
      <trkpt lat="49.20018" lon="0.00953">
        <ele>87.3</ele>
        <time>2023-11-22T15:17:13Z</time>
      </trkpt>
      <trkpt lat="49.2002" lon="0.0095">
        <ele>87.6</ele>
        <time>2023-11-22T15:17:14Z</time>
      </trkpt>
      <trkpt lat="49.20023" lon="0.00946">
        <ele>88</ele>
        <time>2023-11-22T15:17:15Z</time>
      </trkpt>
      <trkpt lat="49.20024" lon="0.00945">
        <ele>88.1</ele>
        <time>2023-11-22T15:17:16Z</time>
      </trkpt>
      <trkpt lat="49.20026" lon="0.00941">
        <ele>88.5</ele>
        <time>2023-11-22T15:17:17Z</time>
      </trkpt>
      <trkpt lat="49.20027" lon="0.00939">
        <ele>88.6</ele>
        <time>2023-11-22T15:17:18Z</time>
      </trkpt>
      <trkpt lat="49.20029" lon="0.00936">
        <ele>88.9</ele>
        <time>2023-11-22T15:17:19Z</time>
      </trkpt>
      <trkpt lat="49.20031" lon="0.00933">
        <ele>89.2</ele>
        <time>2023-11-22T15:17:20Z</time>
      </trkpt>
      <trkpt lat="49.20034" lon="0.0093">
        <ele>89.5</ele>
        <time>2023-11-22T15:17:21Z</time>
      </trkpt>
      <trkpt lat="49.20036" lon="0.00927">
        <ele>89.7</ele>
        <time>2023-11-22T15:17:22Z</time>
      </trkpt>
      <trkpt lat="49.20038" lon="0.00923">
        <ele>90.1</ele>
        <time>2023-11-22T15:17:23Z</time>
      </trkpt>
      <trkpt lat="49.20039" lon="0.00922">
        <ele>90.2</ele>
        <time>2023-11-22T15:17:24Z</time>
      </trkpt>
      <trkpt lat="49.2004" lon="0.00918">
        <ele>90.4</ele>
        <time>2023-11-22T15:17:25Z</time>
      </trkpt>
      <trkpt lat="49.20041" lon="0.00917">
        <ele>90.5</ele>
        <time>2023-11-22T15:17:26Z</time>
      </trkpt>
      <trkpt lat="49.20043" lon="0.00913">
        <ele>90.8</ele>
        <time>2023-11-22T15:17:27Z</time>
      </trkpt>
      <trkpt lat="49.20044" lon="0.00911">
        <ele>90.9</ele>
        <time>2023-11-22T15:17:28Z</time>
      </trkpt>
      <trkpt lat="49.20045" lon="0.00908">
        <ele>91.1</ele>
        <time>2023-11-22T15:17:29Z</time>
      </trkpt>
      <trkpt lat="49.20047" lon="0.00903">
        <ele>91.4</ele>
        <time>2023-11-22T15:17:30Z</time>
      </trkpt>
      <trkpt lat="49.2005" lon="0.00899">
        <ele>91.7</ele>
        <time>2023-11-22T15:17:31Z</time>
      </trkpt>
      <trkpt lat="49.20052" lon="0.00894">
        <ele>92</ele>
        <time>2023-11-22T15:17:32Z</time>
      </trkpt>
      <trkpt lat="49.20054" lon="0.0089">
        <ele>92.3</ele>
        <time>2023-11-22T15:17:33Z</time>
      </trkpt>
      <trkpt lat="49.20056" lon="0.00886">
        <ele>92.5</ele>
        <time>2023-11-22T15:17:34Z</time>
      </trkpt>
      <trkpt lat="49.20059" lon="0.00882">
        <ele>92.8</ele>
        <time>2023-11-22T15:17:35Z</time>
      </trkpt>
      <trkpt lat="49.20061" lon="0.00879">
        <ele>93</ele>
        <time>2023-11-22T15:17:36Z</time>
      </trkpt>
      <trkpt lat="49.20064" lon="0.00875">
        <ele>93.3</ele>
        <time>2023-11-22T15:17:37Z</time>
      </trkpt>
      <trkpt lat="49.20067" lon="0.00871">
        <ele>93.6</ele>
        <time>2023-11-22T15:17:38Z</time>
      </trkpt>
      <trkpt lat="49.20069" lon="0.00866">
        <ele>94</ele>
        <time>2023-11-22T15:17:39Z</time>
      </trkpt>
      <trkpt lat="49.20072" lon="0.00861">
        <ele>94.3</ele>
        <time>2023-11-22T15:17:40Z</time>
      </trkpt>
      <trkpt lat="49.20074" lon="0.00856">
        <ele>94.7</ele>
        <time>2023-11-22T15:17:41Z</time>
      </trkpt>
      <trkpt lat="49.20077" lon="0.00851">
        <ele>95</ele>
        <time>2023-11-22T15:17:42Z</time>
      </trkpt>
      <trkpt lat="49.2008" lon="0.00846">
        <ele>95.3</ele>
        <time>2023-11-22T15:17:43Z</time>
      </trkpt>
      <trkpt lat="49.20082" lon="0.00842">
        <ele>95.6</ele>
        <time>2023-11-22T15:17:44Z</time>
      </trkpt>
      <trkpt lat="49.20085" lon="0.00839">
        <ele>95.8</ele>
        <time>2023-11-22T15:17:45Z</time>
      </trkpt>
      <trkpt lat="49.20087" lon="0.00835">
        <ele>96.1</ele>
        <time>2023-11-22T15:17:46Z</time>
      </trkpt>
      <trkpt lat="49.2009" lon="0.00831">
        <ele>96.4</ele>
        <time>2023-11-22T15:17:47Z</time>
      </trkpt>
      <trkpt lat="49.20092" lon="0.00827">
        <ele>96.7</ele>
        <time>2023-11-22T15:17:48Z</time>
      </trkpt>
      <trkpt lat="49.20095" lon="0.00824">
        <ele>97</ele>
        <time>2023-11-22T15:17:49Z</time>
      </trkpt>
      <trkpt lat="49.20097" lon="0.00821">
        <ele>97.3</ele>
        <time>2023-11-22T15:17:50Z</time>
      </trkpt>
      <trkpt lat="49.201" lon="0.00818">
        <ele>97.6</ele>
        <time>2023-11-22T15:17:51Z</time>
      </trkpt>
      <trkpt lat="49.20103" lon="0.00815">
        <ele>97.9</ele>
        <time>2023-11-22T15:17:52Z</time>
      </trkpt>
      <trkpt lat="49.20105" lon="0.00812">
        <ele>98.1</ele>
        <time>2023-11-22T15:17:53Z</time>
      </trkpt>
      <trkpt lat="49.20108" lon="0.00809">
        <ele>98.4</ele>
        <time>2023-11-22T15:17:54Z</time>
      </trkpt>
      <trkpt lat="49.20111" lon="0.00806">
        <ele>98.6</ele>
        <time>2023-11-22T15:17:55Z</time>
      </trkpt>
      <trkpt lat="49.20113" lon="0.00804">
        <ele>98.9</ele>
        <time>2023-11-22T15:17:56Z</time>
      </trkpt>
      <trkpt lat="49.20116" lon="0.00801">
        <ele>99.1</ele>
        <time>2023-11-22T15:17:57Z</time>
      </trkpt>
      <trkpt lat="49.20119" lon="0.00798">
        <ele>99.4</ele>
        <time>2023-11-22T15:17:58Z</time>
      </trkpt>
      <trkpt lat="49.20122" lon="0.00796">
        <ele>99.6</ele>
        <time>2023-11-22T15:17:59Z</time>
      </trkpt>
      <trkpt lat="49.20124" lon="0.00793">
        <ele>99.9</ele>
        <time>2023-11-22T15:18:00Z</time>
      </trkpt>
      <trkpt lat="49.20127" lon="0.0079">
        <ele>100.1</ele>
        <time>2023-11-22T15:18:01Z</time>
      </trkpt>
      <trkpt lat="49.2013" lon="0.00788">
        <ele>100.3</ele>
        <time>2023-11-22T15:18:02Z</time>
      </trkpt>
      <trkpt lat="49.20133" lon="0.00785">
        <ele>100.6</ele>
        <time>2023-11-22T15:18:03Z</time>
      </trkpt>
      <trkpt lat="49.20136" lon="0.00783">
        <ele>100.8</ele>
        <time>2023-11-22T15:18:04Z</time>
      </trkpt>
      <trkpt lat="49.20138" lon="0.0078">
        <ele>101</ele>
        <time>2023-11-22T15:18:05Z</time>
      </trkpt>
      <trkpt lat="49.20141" lon="0.00777">
        <ele>101.2</ele>
        <time>2023-11-22T15:18:06Z</time>
      </trkpt>
      <trkpt lat="49.20144" lon="0.00775">
        <ele>101.4</ele>
        <time>2023-11-22T15:18:07Z</time>
      </trkpt>
      <trkpt lat="49.20147" lon="0.00772">
        <ele>101.6</ele>
        <time>2023-11-22T15:18:08Z</time>
      </trkpt>
      <trkpt lat="49.2015" lon="0.00769">
        <ele>101.8</ele>
        <time>2023-11-22T15:18:09Z</time>
      </trkpt>
      <trkpt lat="49.20153" lon="0.00767">
        <ele>102</ele>
        <time>2023-11-22T15:18:10Z</time>
      </trkpt>
      <trkpt lat="49.20156" lon="0.00764">
        <ele>102.3</ele>
        <time>2023-11-22T15:18:11Z</time>
      </trkpt>
      <trkpt lat="49.20159" lon="0.00761">
        <ele>102.5</ele>
        <time>2023-11-22T15:18:12Z</time>
      </trkpt>
      <trkpt lat="49.20161" lon="0.00758">
        <ele>102.7</ele>
        <time>2023-11-22T15:18:13Z</time>
      </trkpt>
      <trkpt lat="49.20164" lon="0.00755">
        <ele>102.9</ele>
        <time>2023-11-22T15:18:14Z</time>
      </trkpt>
      <trkpt lat="49.20167" lon="0.00752">
        <ele>103.1</ele>
        <time>2023-11-22T15:18:15Z</time>
      </trkpt>
      <trkpt lat="49.2017" lon="0.00749">
        <ele>103.4</ele>
        <time>2023-11-22T15:18:16Z</time>
      </trkpt>
      <trkpt lat="49.20173" lon="0.00746">
        <ele>103.6</ele>
        <time>2023-11-22T15:18:17Z</time>
      </trkpt>
      <trkpt lat="49.20176" lon="0.00743">
        <ele>103.8</ele>
        <time>2023-11-22T15:18:18Z</time>
      </trkpt>
      <trkpt lat="49.20179" lon="0.00741">
        <ele>104</ele>
        <time>2023-11-22T15:18:19Z</time>
      </trkpt>
      <trkpt lat="49.20181" lon="0.00739">
        <ele>104.2</ele>
        <time>2023-11-22T15:18:20Z</time>
      </trkpt>
      <trkpt lat="49.20184" lon="0.00737">
        <ele>104.4</ele>
        <time>2023-11-22T15:18:21Z</time>
      </trkpt>
      <trkpt lat="49.20187" lon="0.00736">
        <ele>104.6</ele>
        <time>2023-11-22T15:18:22Z</time>
      </trkpt>
      <trkpt lat="49.20189" lon="0.00733">
        <ele>104.9</ele>
        <time>2023-11-22T15:18:23Z</time>
      </trkpt>
      <trkpt lat="49.20192" lon="0.00731">
        <ele>105.1</ele>
        <time>2023-11-22T15:18:24Z</time>
      </trkpt>
      <trkpt lat="49.20195" lon="0.00728">
        <ele>105.4</ele>
        <time>2023-11-22T15:18:25Z</time>
      </trkpt>
      <trkpt lat="49.20197" lon="0.00725">
        <ele>105.6</ele>
        <time>2023-11-22T15:18:26Z</time>
      </trkpt>
      <trkpt lat="49.202" lon="0.00722">
        <ele>105.9</ele>
        <time>2023-11-22T15:18:27Z</time>
      </trkpt>
      <trkpt lat="49.20203" lon="0.00719">
        <ele>106.2</ele>
        <time>2023-11-22T15:18:28Z</time>
      </trkpt>
      <trkpt lat="49.20205" lon="0.00716">
        <ele>106.5</ele>
        <time>2023-11-22T15:18:29Z</time>
      </trkpt>
      <trkpt lat="49.20208" lon="0.00713">
        <ele>106.8</ele>
        <time>2023-11-22T15:18:30Z</time>
      </trkpt>
      <trkpt lat="49.2021" lon="0.0071">
        <ele>107.1</ele>
        <time>2023-11-22T15:18:31Z</time>
      </trkpt>
      <trkpt lat="49.20213" lon="0.00707">
        <ele>107.3</ele>
        <time>2023-11-22T15:18:32Z</time>
      </trkpt>
      <trkpt lat="49.20215" lon="0.00704">
        <ele>107.6</ele>
        <time>2023-11-22T15:18:33Z</time>
      </trkpt>
      <trkpt lat="49.20218" lon="0.00701">
        <ele>107.9</ele>
        <time>2023-11-22T15:18:34Z</time>
      </trkpt>
      <trkpt lat="49.2022" lon="0.00698">
        <ele>108.2</ele>
        <time>2023-11-22T15:18:35Z</time>
      </trkpt>
      <trkpt lat="49.20223" lon="0.00695">
        <ele>108.5</ele>
        <time>2023-11-22T15:18:36Z</time>
      </trkpt>
      <trkpt lat="49.20225" lon="0.00692">
        <ele>108.8</ele>
        <time>2023-11-22T15:18:37Z</time>
      </trkpt>
      <trkpt lat="49.20228" lon="0.0069">
        <ele>109.1</ele>
        <time>2023-11-22T15:18:38Z</time>
      </trkpt>
      <trkpt lat="49.2023" lon="0.00687">
        <ele>109.4</ele>
        <time>2023-11-22T15:18:39Z</time>
      </trkpt>
      <trkpt lat="49.20232" lon="0.00684">
        <ele>109.7</ele>
        <time>2023-11-22T15:18:40Z</time>
      </trkpt>
      <trkpt lat="49.20235" lon="0.00681">
        <ele>110</ele>
        <time>2023-11-22T15:18:41Z</time>
      </trkpt>
      <trkpt lat="49.20237" lon="0.00679">
        <ele>110.2</ele>
        <time>2023-11-22T15:18:42Z</time>
      </trkpt>
      <trkpt lat="49.20239" lon="0.00676">
        <ele>110.5</ele>
        <time>2023-11-22T15:18:43Z</time>
      </trkpt>
      <trkpt lat="49.20242" lon="0.00673">
        <ele>110.8</ele>
        <time>2023-11-22T15:18:44Z</time>
      </trkpt>
      <trkpt lat="49.20244" lon="0.0067">
        <ele>111.1</ele>
        <time>2023-11-22T15:18:45Z</time>
      </trkpt>
      <trkpt lat="49.20246" lon="0.00667">
        <ele>111.4</ele>
        <time>2023-11-22T15:18:46Z</time>
      </trkpt>
      <trkpt lat="49.20248" lon="0.00664">
        <ele>111.7</ele>
        <time>2023-11-22T15:18:47Z</time>
      </trkpt>
      <trkpt lat="49.2025" lon="0.00661">
        <ele>111.9</ele>
        <time>2023-11-22T15:18:48Z</time>
      </trkpt>
      <trkpt lat="49.20253" lon="0.00658">
        <ele>112.2</ele>
        <time>2023-11-22T15:18:49Z</time>
      </trkpt>
      <trkpt lat="49.20255" lon="0.00655">
        <ele>112.5</ele>
        <time>2023-11-22T15:18:50Z</time>
      </trkpt>
      <trkpt lat="49.20257" lon="0.00653">
        <ele>112.7</ele>
        <time>2023-11-22T15:18:51Z</time>
      </trkpt>
      <trkpt lat="49.20259" lon="0.0065">
        <ele>113</ele>
        <time>2023-11-22T15:18:52Z</time>
      </trkpt>
      <trkpt lat="49.20261" lon="0.00647">
        <ele>113.3</ele>
        <time>2023-11-22T15:18:53Z</time>
      </trkpt>
      <trkpt lat="49.20263" lon="0.00644">
        <ele>113.6</ele>
        <time>2023-11-22T15:18:54Z</time>
      </trkpt>
      <trkpt lat="49.20266" lon="0.00641">
        <ele>113.9</ele>
        <time>2023-11-22T15:18:55Z</time>
      </trkpt>
      <trkpt lat="49.20268" lon="0.00638">
        <ele>114.2</ele>
        <time>2023-11-22T15:18:56Z</time>
      </trkpt>
      <trkpt lat="49.2027" lon="0.00635">
        <ele>114.5</ele>
        <time>2023-11-22T15:18:57Z</time>
      </trkpt>
      <trkpt lat="49.20272" lon="0.00632">
        <ele>114.8</ele>
        <time>2023-11-22T15:18:58Z</time>
      </trkpt>
      <trkpt lat="49.20274" lon="0.00629">
        <ele>115.1</ele>
        <time>2023-11-22T15:18:59Z</time>
      </trkpt>
      <trkpt lat="49.20276" lon="0.00626">
        <ele>115.4</ele>
        <time>2023-11-22T15:19:00Z</time>
      </trkpt>
      <trkpt lat="49.20278" lon="0.00622">
        <ele>115.7</ele>
        <time>2023-11-22T15:19:01Z</time>
      </trkpt>
      <trkpt lat="49.20281" lon="0.00618">
        <ele>116.1</ele>
        <time>2023-11-22T15:19:02Z</time>
      </trkpt>
      <trkpt lat="49.20281" lon="0.00617">
        <ele>116.3</ele>
        <time>2023-11-22T15:19:03Z</time>
      </trkpt>
      <trkpt lat="49.20284" lon="0.00613">
        <ele>116.7</ele>
        <time>2023-11-22T15:19:04Z</time>
      </trkpt>
      <trkpt lat="49.20285" lon="0.00612">
        <ele>116.8</ele>
        <time>2023-11-22T15:19:05Z</time>
      </trkpt>
      <trkpt lat="49.20288" lon="0.00608">
        <ele>117.3</ele>
        <time>2023-11-22T15:19:06Z</time>
      </trkpt>
      <trkpt lat="49.20289" lon="0.00606">
        <ele>117.5</ele>
        <time>2023-11-22T15:19:07Z</time>
      </trkpt>
      <trkpt lat="49.20291" lon="0.00603">
        <ele>117.8</ele>
        <time>2023-11-22T15:19:08Z</time>
      </trkpt>
      <trkpt lat="49.20294" lon="0.00599">
        <ele>118.2</ele>
        <time>2023-11-22T15:19:09Z</time>
      </trkpt>
      <trkpt lat="49.20295" lon="0.00598">
        <ele>118.4</ele>
        <time>2023-11-22T15:19:10Z</time>
      </trkpt>
      <trkpt lat="49.20297" lon="0.00594">
        <ele>118.8</ele>
        <time>2023-11-22T15:19:11Z</time>
      </trkpt>
      <trkpt lat="49.20298" lon="0.00593">
        <ele>118.9</ele>
        <time>2023-11-22T15:19:12Z</time>
      </trkpt>
      <trkpt lat="49.203" lon="0.00589">
        <ele>119.3</ele>
        <time>2023-11-22T15:19:13Z</time>
      </trkpt>
      <trkpt lat="49.20301" lon="0.00588">
        <ele>119.4</ele>
        <time>2023-11-22T15:19:14Z</time>
      </trkpt>
      <trkpt lat="49.20304" lon="0.00583">
        <ele>119.9</ele>
        <time>2023-11-22T15:19:15Z</time>
      </trkpt>
      <trkpt lat="49.20305" lon="0.00582">
        <ele>120</ele>
        <time>2023-11-22T15:19:16Z</time>
      </trkpt>
      <trkpt lat="49.20307" lon="0.00578">
        <ele>120.4</ele>
        <time>2023-11-22T15:19:17Z</time>
      </trkpt>
      <trkpt lat="49.20307" lon="0.00577">
        <ele>120.5</ele>
        <time>2023-11-22T15:19:18Z</time>
      </trkpt>
      <trkpt lat="49.2031" lon="0.00573">
        <ele>120.9</ele>
        <time>2023-11-22T15:19:19Z</time>
      </trkpt>
      <trkpt lat="49.2031" lon="0.00573">
        <ele>121</ele>
        <time>2023-11-22T15:19:20Z</time>
      </trkpt>
      <trkpt lat="49.20313" lon="0.0057">
        <ele>121.3</ele>
        <time>2023-11-22T15:19:21Z</time>
      </trkpt>
      <trkpt lat="49.20314" lon="0.00569">
        <ele>121.4</ele>
        <time>2023-11-22T15:19:22Z</time>
      </trkpt>
      <trkpt lat="49.20317" lon="0.00565">
        <ele>121.8</ele>
        <time>2023-11-22T15:19:23Z</time>
      </trkpt>
      <trkpt lat="49.20318" lon="0.00564">
        <ele>122</ele>
        <time>2023-11-22T15:19:24Z</time>
      </trkpt>
      <trkpt lat="49.20321" lon="0.00561">
        <ele>122.4</ele>
        <time>2023-11-22T15:19:25Z</time>
      </trkpt>
      <trkpt lat="49.20322" lon="0.0056">
        <ele>122.5</ele>
        <time>2023-11-22T15:19:26Z</time>
      </trkpt>
      <trkpt lat="49.20325" lon="0.00557">
        <ele>122.9</ele>
        <time>2023-11-22T15:19:27Z</time>
      </trkpt>
      <trkpt lat="49.20328" lon="0.00555">
        <ele>123.2</ele>
        <time>2023-11-22T15:19:28Z</time>
      </trkpt>
      <trkpt lat="49.20331" lon="0.00553">
        <ele>123.5</ele>
        <time>2023-11-22T15:19:29Z</time>
      </trkpt>
      <trkpt lat="49.20333" lon="0.0055">
        <ele>123.8</ele>
        <time>2023-11-22T15:19:30Z</time>
      </trkpt>
      <trkpt lat="49.20336" lon="0.00548">
        <ele>124.1</ele>
        <time>2023-11-22T15:19:31Z</time>
      </trkpt>
      <trkpt lat="49.20339" lon="0.00546">
        <ele>124.3</ele>
        <time>2023-11-22T15:19:32Z</time>
      </trkpt>
      <trkpt lat="49.20341" lon="0.00544">
        <ele>124.5</ele>
        <time>2023-11-22T15:19:33Z</time>
      </trkpt>
      <trkpt lat="49.20344" lon="0.00543">
        <ele>124.8</ele>
        <time>2023-11-22T15:19:34Z</time>
      </trkpt>
      <trkpt lat="49.20347" lon="0.00541">
        <ele>125</ele>
        <time>2023-11-22T15:19:35Z</time>
      </trkpt>
      <trkpt lat="49.2035" lon="0.0054">
        <ele>125.2</ele>
        <time>2023-11-22T15:19:36Z</time>
      </trkpt>
      <trkpt lat="49.20353" lon="0.00538">
        <ele>125.4</ele>
        <time>2023-11-22T15:19:37Z</time>
      </trkpt>
      <trkpt lat="49.20356" lon="0.00536">
        <ele>125.5</ele>
        <time>2023-11-22T15:19:38Z</time>
      </trkpt>
      <trkpt lat="49.20359" lon="0.00535">
        <ele>125.7</ele>
        <time>2023-11-22T15:19:39Z</time>
      </trkpt>
      <trkpt lat="49.20362" lon="0.00533">
        <ele>125.8</ele>
        <time>2023-11-22T15:19:40Z</time>
      </trkpt>
      <trkpt lat="49.20365" lon="0.00532">
        <ele>125.9</ele>
        <time>2023-11-22T15:19:41Z</time>
      </trkpt>
      <trkpt lat="49.20369" lon="0.0053">
        <ele>126.1</ele>
        <time>2023-11-22T15:19:42Z</time>
      </trkpt>
      <trkpt lat="49.20372" lon="0.00529">
        <ele>126.1</ele>
        <time>2023-11-22T15:19:43Z</time>
      </trkpt>
      <trkpt lat="49.20375" lon="0.00527">
        <ele>126.2</ele>
        <time>2023-11-22T15:19:44Z</time>
      </trkpt>
      <trkpt lat="49.20378" lon="0.00525">
        <ele>126.2</ele>
        <time>2023-11-22T15:19:45Z</time>
      </trkpt>
      <trkpt lat="49.20382" lon="0.00523">
        <ele>126.2</ele>
        <time>2023-11-22T15:19:46Z</time>
      </trkpt>
      <trkpt lat="49.20385" lon="0.00521">
        <ele>126.3</ele>
        <time>2023-11-22T15:19:47Z</time>
      </trkpt>
      <trkpt lat="49.20389" lon="0.00519">
        <ele>126.3</ele>
        <time>2023-11-22T15:19:48Z</time>
      </trkpt>
      <trkpt lat="49.20392" lon="0.00518">
        <ele>126.3</ele>
        <time>2023-11-22T15:19:49Z</time>
      </trkpt>
      <trkpt lat="49.20396" lon="0.00517">
        <ele>126.3</ele>
        <time>2023-11-22T15:19:50Z</time>
      </trkpt>
      <trkpt lat="49.204" lon="0.00515">
        <ele>126.4</ele>
        <time>2023-11-22T15:19:51Z</time>
      </trkpt>
      <trkpt lat="49.20404" lon="0.00513">
        <ele>126.4</ele>
        <time>2023-11-22T15:19:52Z</time>
      </trkpt>
      <trkpt lat="49.20408" lon="0.00511">
        <ele>126.4</ele>
        <time>2023-11-22T15:19:53Z</time>
      </trkpt>
      <trkpt lat="49.20412" lon="0.00509">
        <ele>126.5</ele>
        <time>2023-11-22T15:19:54Z</time>
      </trkpt>
      <trkpt lat="49.20415" lon="0.00507">
        <ele>126.5</ele>
        <time>2023-11-22T15:19:55Z</time>
      </trkpt>
      <trkpt lat="49.20419" lon="0.00505">
        <ele>126.5</ele>
        <time>2023-11-22T15:19:56Z</time>
      </trkpt>
      <trkpt lat="49.20423" lon="0.00503">
        <ele>126.5</ele>
        <time>2023-11-22T15:19:57Z</time>
      </trkpt>
      <trkpt lat="49.20427" lon="0.005">
        <ele>126.6</ele>
        <time>2023-11-22T15:19:58Z</time>
      </trkpt>
      <trkpt lat="49.20431" lon="0.00498">
        <ele>126.6</ele>
        <time>2023-11-22T15:19:59Z</time>
      </trkpt>
      <trkpt lat="49.20435" lon="0.00494">
        <ele>126.7</ele>
        <time>2023-11-22T15:20:00Z</time>
      </trkpt>
      <trkpt lat="49.20438" lon="0.00491">
        <ele>126.8</ele>
        <time>2023-11-22T15:20:01Z</time>
      </trkpt>
      <trkpt lat="49.20442" lon="0.00489">
        <ele>126.8</ele>
        <time>2023-11-22T15:20:02Z</time>
      </trkpt>
      <trkpt lat="49.20445" lon="0.00486">
        <ele>126.9</ele>
        <time>2023-11-22T15:20:03Z</time>
      </trkpt>
      <trkpt lat="49.20449" lon="0.00482">
        <ele>127</ele>
        <time>2023-11-22T15:20:04Z</time>
      </trkpt>
      <trkpt lat="49.20453" lon="0.0048">
        <ele>127.2</ele>
        <time>2023-11-22T15:20:05Z</time>
      </trkpt>
      <trkpt lat="49.20457" lon="0.00477">
        <ele>127.3</ele>
        <time>2023-11-22T15:20:06Z</time>
      </trkpt>
      <trkpt lat="49.2046" lon="0.00474">
        <ele>127.4</ele>
        <time>2023-11-22T15:20:07Z</time>
      </trkpt>
      <trkpt lat="49.20463" lon="0.00472">
        <ele>127.5</ele>
        <time>2023-11-22T15:20:08Z</time>
      </trkpt>
      <trkpt lat="49.20466" lon="0.00469">
        <ele>127.6</ele>
        <time>2023-11-22T15:20:09Z</time>
      </trkpt>
      <trkpt lat="49.20469" lon="0.00466">
        <ele>127.7</ele>
        <time>2023-11-22T15:20:10Z</time>
      </trkpt>
      <trkpt lat="49.20472" lon="0.00463">
        <ele>127.7</ele>
        <time>2023-11-22T15:20:11Z</time>
      </trkpt>
      <trkpt lat="49.20474" lon="0.00461">
        <ele>127.8</ele>
        <time>2023-11-22T15:20:12Z</time>
      </trkpt>
      <trkpt lat="49.20477" lon="0.00457">
        <ele>127.9</ele>
        <time>2023-11-22T15:20:13Z</time>
      </trkpt>
      <trkpt lat="49.20478" lon="0.00456">
        <ele>127.9</ele>
        <time>2023-11-22T15:20:14Z</time>
      </trkpt>
      <trkpt lat="49.2048" lon="0.00453">
        <ele>128</ele>
        <time>2023-11-22T15:20:15Z</time>
      </trkpt>
      <trkpt lat="49.20481" lon="0.00452">
        <ele>128</ele>
        <time>2023-11-22T15:20:16Z</time>
      </trkpt>
      <trkpt lat="49.20483" lon="0.00448">
        <ele>128.1</ele>
        <time>2023-11-22T15:20:17Z</time>
      </trkpt>
      <trkpt lat="49.20484" lon="0.00447">
        <ele>128.1</ele>
        <time>2023-11-22T15:20:18Z</time>
      </trkpt>
      <trkpt lat="49.20485" lon="0.00445">
        <ele>128.1</ele>
        <time>2023-11-22T15:20:19Z</time>
      </trkpt>
      <trkpt lat="49.20486" lon="0.00443">
        <ele>128.1</ele>
        <time>2023-11-22T15:20:20Z</time>
      </trkpt>
      <trkpt lat="49.20486" lon="0.00442">
        <ele>128.1</ele>
        <time>2023-11-22T15:20:21Z</time>
      </trkpt>
      <trkpt lat="49.20486" lon="0.00441">
        <ele>128.1</ele>
        <time>2023-11-22T15:20:22Z</time>
      </trkpt>
      <trkpt lat="49.20485" lon="0.00441">
        <ele>128.2</ele>
        <time>2023-11-22T15:20:23Z</time>
      </trkpt>
      <trkpt lat="49.20485" lon="0.00442">
        <ele>128.2</ele>
        <time>2023-11-22T15:20:24Z</time>
      </trkpt>
      <trkpt lat="49.20485" lon="0.00442">
        <ele>128.2</ele>
        <time>2023-11-22T15:20:25Z</time>
      </trkpt>
      <trkpt lat="49.20485" lon="0.00442">
        <ele>128.2</ele>
        <time>2023-11-22T15:20:26Z</time>
      </trkpt>
      <trkpt lat="49.20485" lon="0.00442">
        <ele>128.2</ele>
        <time>2023-11-22T15:20:27Z</time>
      </trkpt>
      <trkpt lat="49.20485" lon="0.00442">
        <ele>128.2</ele>
        <time>2023-11-22T15:20:28Z</time>
      </trkpt>
      <trkpt lat="49.20485" lon="0.00442">
        <ele>128.2</ele>
        <time>2023-11-22T15:20:29Z</time>
      </trkpt>
      <trkpt lat="49.20485" lon="0.00442">
        <ele>128.2</ele>
        <time>2023-11-22T15:20:30Z</time>
      </trkpt>
      <trkpt lat="49.20485" lon="0.00442">
        <ele>128.2</ele>
        <time>2023-11-22T15:20:31Z</time>
      </trkpt>
      <trkpt lat="49.20485" lon="0.00442">
        <ele>128.2</ele>
        <time>2023-11-22T15:20:32Z</time>
      </trkpt>
      <trkpt lat="49.20488" lon="0.00439">
        <ele>128.2</ele>
        <time>2023-11-22T15:20:49Z</time>
      </trkpt>
      <trkpt lat="49.20489" lon="0.00438">
        <ele>128.2</ele>
        <time>2023-11-22T15:20:50Z</time>
      </trkpt>
      <trkpt lat="49.20489" lon="0.00437">
        <ele>128.2</ele>
        <time>2023-11-22T15:20:51Z</time>
      </trkpt>
      <trkpt lat="49.20489" lon="0.00436">
        <ele>128.2</ele>
        <time>2023-11-22T15:20:52Z</time>
      </trkpt>
      <trkpt lat="49.2049" lon="0.00436">
        <ele>128.2</ele>
        <time>2023-11-22T15:20:53Z</time>
      </trkpt>
      <trkpt lat="49.2049" lon="0.00436">
        <ele>128.2</ele>
        <time>2023-11-22T15:20:54Z</time>
      </trkpt>
      <trkpt lat="49.20491" lon="0.00435">
        <ele>128.2</ele>
        <time>2023-11-22T15:20:55Z</time>
      </trkpt>
      <trkpt lat="49.20491" lon="0.00435">
        <ele>128.2</ele>
        <time>2023-11-22T15:20:56Z</time>
      </trkpt>
      <trkpt lat="49.20492" lon="0.00435">
        <ele>128.2</ele>
        <time>2023-11-22T15:20:57Z</time>
      </trkpt>
      <trkpt lat="49.20492" lon="0.00434">
        <ele>128.2</ele>
        <time>2023-11-22T15:20:58Z</time>
      </trkpt>
      <trkpt lat="49.20493" lon="0.00434">
        <ele>128.2</ele>
        <time>2023-11-22T15:20:59Z</time>
      </trkpt>
      <trkpt lat="49.20493" lon="0.00434">
        <ele>128.2</ele>
        <time>2023-11-22T15:21:00Z</time>
      </trkpt>
      <trkpt lat="49.20494" lon="0.00434">
        <ele>128.2</ele>
        <time>2023-11-22T15:21:01Z</time>
      </trkpt>
      <trkpt lat="49.20494" lon="0.00433">
        <ele>128.2</ele>
        <time>2023-11-22T15:21:02Z</time>
      </trkpt>
      <trkpt lat="49.20495" lon="0.00433">
        <ele>128.2</ele>
        <time>2023-11-22T15:21:03Z</time>
      </trkpt>
      <trkpt lat="49.20496" lon="0.00433">
        <ele>128.2</ele>
        <time>2023-11-22T15:21:23Z</time>
      </trkpt>
      <trkpt lat="49.20496" lon="0.00432">
        <ele>128.2</ele>
        <time>2023-11-22T15:21:24Z</time>
      </trkpt>
      <trkpt lat="49.20497" lon="0.00432">
        <ele>128.2</ele>
        <time>2023-11-22T15:21:25Z</time>
      </trkpt>
      <trkpt lat="49.205" lon="0.00429">
        <ele>128.2</ele>
        <time>2023-11-22T15:21:26Z</time>
      </trkpt>
      <trkpt lat="49.20502" lon="0.00427">
        <ele>128.2</ele>
        <time>2023-11-22T15:21:27Z</time>
      </trkpt>
      <trkpt lat="49.20505" lon="0.00424">
        <ele>128.2</ele>
        <time>2023-11-22T15:21:28Z</time>
      </trkpt>
      <trkpt lat="49.20508" lon="0.0042">
        <ele>128.3</ele>
        <time>2023-11-22T15:21:29Z</time>
      </trkpt>
      <trkpt lat="49.20512" lon="0.00416">
        <ele>128.3</ele>
        <time>2023-11-22T15:21:30Z</time>
      </trkpt>
      <trkpt lat="49.20516" lon="0.00412">
        <ele>128.3</ele>
        <time>2023-11-22T15:21:31Z</time>
      </trkpt>
      <trkpt lat="49.2052" lon="0.00408">
        <ele>128.3</ele>
        <time>2023-11-22T15:21:32Z</time>
      </trkpt>
      <trkpt lat="49.20525" lon="0.00403">
        <ele>128.4</ele>
        <time>2023-11-22T15:21:33Z</time>
      </trkpt>
      <trkpt lat="49.2053" lon="0.00399">
        <ele>128.4</ele>
        <time>2023-11-22T15:21:34Z</time>
      </trkpt>
      <trkpt lat="49.20535" lon="0.00396">
        <ele>128.5</ele>
        <time>2023-11-22T15:21:35Z</time>
      </trkpt>
      <trkpt lat="49.2054" lon="0.00392">
        <ele>128.6</ele>
        <time>2023-11-22T15:21:36Z</time>
      </trkpt>
      <trkpt lat="49.20546" lon="0.00389">
        <ele>128.6</ele>
        <time>2023-11-22T15:21:37Z</time>
      </trkpt>
      <trkpt lat="49.20552" lon="0.00386">
        <ele>128.7</ele>
        <time>2023-11-22T15:21:38Z</time>
      </trkpt>
      <trkpt lat="49.20557" lon="0.00383">
        <ele>128.7</ele>
        <time>2023-11-22T15:21:39Z</time>
      </trkpt>
      <trkpt lat="49.20563" lon="0.0038">
        <ele>128.8</ele>
        <time>2023-11-22T15:21:40Z</time>
      </trkpt>
      <trkpt lat="49.20569" lon="0.00377">
        <ele>128.8</ele>
        <time>2023-11-22T15:21:41Z</time>
      </trkpt>
      <trkpt lat="49.20575" lon="0.00374">
        <ele>128.9</ele>
        <time>2023-11-22T15:21:42Z</time>
      </trkpt>
      <trkpt lat="49.20581" lon="0.00371">
        <ele>128.9</ele>
        <time>2023-11-22T15:21:43Z</time>
      </trkpt>
      <trkpt lat="49.20587" lon="0.00367">
        <ele>129</ele>
        <time>2023-11-22T15:21:44Z</time>
      </trkpt>
      <trkpt lat="49.20593" lon="0.00364">
        <ele>129.1</ele>
        <time>2023-11-22T15:21:45Z</time>
      </trkpt>
      <trkpt lat="49.20598" lon="0.00359">
        <ele>129.1</ele>
        <time>2023-11-22T15:21:46Z</time>
      </trkpt>
      <trkpt lat="49.20604" lon="0.00355">
        <ele>129.2</ele>
        <time>2023-11-22T15:21:47Z</time>
      </trkpt>
      <trkpt lat="49.2061" lon="0.00351">
        <ele>129.3</ele>
        <time>2023-11-22T15:21:48Z</time>
      </trkpt>
      <trkpt lat="49.20615" lon="0.00347">
        <ele>129.4</ele>
        <time>2023-11-22T15:21:49Z</time>
      </trkpt>
      <trkpt lat="49.2062" lon="0.00343">
        <ele>129.5</ele>
        <time>2023-11-22T15:21:50Z</time>
      </trkpt>
      <trkpt lat="49.20625" lon="0.00338">
        <ele>129.6</ele>
        <time>2023-11-22T15:21:51Z</time>
      </trkpt>
      <trkpt lat="49.2063" lon="0.00332">
        <ele>129.7</ele>
        <time>2023-11-22T15:21:52Z</time>
      </trkpt>
      <trkpt lat="49.20635" lon="0.00327">
        <ele>129.8</ele>
        <time>2023-11-22T15:21:53Z</time>
      </trkpt>
      <trkpt lat="49.2064" lon="0.00322">
        <ele>129.9</ele>
        <time>2023-11-22T15:21:54Z</time>
      </trkpt>
      <trkpt lat="49.20645" lon="0.00316">
        <ele>130</ele>
        <time>2023-11-22T15:21:55Z</time>
      </trkpt>
      <trkpt lat="49.20649" lon="0.00312">
        <ele>130.1</ele>
        <time>2023-11-22T15:21:56Z</time>
      </trkpt>
      <trkpt lat="49.20653" lon="0.00306">
        <ele>130.2</ele>
        <time>2023-11-22T15:21:57Z</time>
      </trkpt>
      <trkpt lat="49.20658" lon="0.00301">
        <ele>130.3</ele>
        <time>2023-11-22T15:21:58Z</time>
      </trkpt>
      <trkpt lat="49.20662" lon="0.00296">
        <ele>130.3</ele>
        <time>2023-11-22T15:21:59Z</time>
      </trkpt>
      <trkpt lat="49.20666" lon="0.00291">
        <ele>130.4</ele>
        <time>2023-11-22T15:22:00Z</time>
      </trkpt>
      <trkpt lat="49.2067" lon="0.00286">
        <ele>130.5</ele>
        <time>2023-11-22T15:22:01Z</time>
      </trkpt>
      <trkpt lat="49.20673" lon="0.00281">
        <ele>130.5</ele>
        <time>2023-11-22T15:22:02Z</time>
      </trkpt>
      <trkpt lat="49.20677" lon="0.00276">
        <ele>130.6</ele>
        <time>2023-11-22T15:22:03Z</time>
      </trkpt>
      <trkpt lat="49.20681" lon="0.0027">
        <ele>130.7</ele>
        <time>2023-11-22T15:22:04Z</time>
      </trkpt>
      <trkpt lat="49.20686" lon="0.00265">
        <ele>130.8</ele>
        <time>2023-11-22T15:22:05Z</time>
      </trkpt>
      <trkpt lat="49.2069" lon="0.0026">
        <ele>130.8</ele>
        <time>2023-11-22T15:22:06Z</time>
      </trkpt>
      <trkpt lat="49.20694" lon="0.00255">
        <ele>130.9</ele>
        <time>2023-11-22T15:22:07Z</time>
      </trkpt>
      <trkpt lat="49.20698" lon="0.0025">
        <ele>131</ele>
        <time>2023-11-22T15:22:08Z</time>
      </trkpt>
      <trkpt lat="49.20702" lon="0.00245">
        <ele>131</ele>
        <time>2023-11-22T15:22:09Z</time>
      </trkpt>
      <trkpt lat="49.20706" lon="0.0024">
        <ele>131.1</ele>
        <time>2023-11-22T15:22:10Z</time>
      </trkpt>
      <trkpt lat="49.2071" lon="0.00236">
        <ele>131.1</ele>
        <time>2023-11-22T15:22:11Z</time>
      </trkpt>
      <trkpt lat="49.20714" lon="0.00231">
        <ele>131.1</ele>
        <time>2023-11-22T15:22:12Z</time>
      </trkpt>
      <trkpt lat="49.20717" lon="0.00226">
        <ele>131.2</ele>
        <time>2023-11-22T15:22:13Z</time>
      </trkpt>
      <trkpt lat="49.20721" lon="0.00222">
        <ele>131.2</ele>
        <time>2023-11-22T15:22:14Z</time>
      </trkpt>
      <trkpt lat="49.20724" lon="0.00218">
        <ele>131.2</ele>
        <time>2023-11-22T15:22:15Z</time>
      </trkpt>
      <trkpt lat="49.20726" lon="0.00215">
        <ele>131.2</ele>
        <time>2023-11-22T15:22:16Z</time>
      </trkpt>
      <trkpt lat="49.20728" lon="0.00212">
        <ele>131.2</ele>
        <time>2023-11-22T15:22:17Z</time>
      </trkpt>
      <trkpt lat="49.2073" lon="0.00209">
        <ele>131.2</ele>
        <time>2023-11-22T15:22:18Z</time>
      </trkpt>
      <trkpt lat="49.20731" lon="0.00208">
        <ele>131.2</ele>
        <time>2023-11-22T15:22:19Z</time>
      </trkpt>
      <trkpt lat="49.20732" lon="0.00207">
        <ele>131.2</ele>
        <time>2023-11-22T15:22:20Z</time>
      </trkpt>
      <trkpt lat="49.20734" lon="0.00206">
        <ele>131.2</ele>
        <time>2023-11-22T15:22:21Z</time>
      </trkpt>
      <trkpt lat="49.20735" lon="0.00204">
        <ele>131.2</ele>
        <time>2023-11-22T15:22:22Z</time>
      </trkpt>
      <trkpt lat="49.20735" lon="0.00203">
        <ele>131.2</ele>
        <time>2023-11-22T15:22:23Z</time>
      </trkpt>
      <trkpt lat="49.20735" lon="0.00203">
        <ele>131.2</ele>
        <time>2023-11-22T15:22:24Z</time>
      </trkpt>
      <trkpt lat="49.20735" lon="0.00202">
        <ele>131.2</ele>
        <time>2023-11-22T15:22:25Z</time>
      </trkpt>
      <trkpt lat="49.20734" lon="0.00201">
        <ele>131.2</ele>
        <time>2023-11-22T15:22:26Z</time>
      </trkpt>
      <trkpt lat="49.20734" lon="0.002">
        <ele>131.2</ele>
        <time>2023-11-22T15:22:27Z</time>
      </trkpt>
      <trkpt lat="49.20734" lon="0.002">
        <ele>131.2</ele>
        <time>2023-11-22T15:22:28Z</time>
      </trkpt>
      <trkpt lat="49.20734" lon="0.00199">
        <ele>131.3</ele>
        <time>2023-11-22T15:22:29Z</time>
      </trkpt>
      <trkpt lat="49.20734" lon="0.00198">
        <ele>131.3</ele>
        <time>2023-11-22T15:22:30Z</time>
      </trkpt>
      <trkpt lat="49.20734" lon="0.00197">
        <ele>131.3</ele>
        <time>2023-11-22T15:22:31Z</time>
      </trkpt>
      <trkpt lat="49.20734" lon="0.00197">
        <ele>131.3</ele>
        <time>2023-11-22T15:22:32Z</time>
      </trkpt>
      <trkpt lat="49.20734" lon="0.00196">
        <ele>131.3</ele>
        <time>2023-11-22T15:22:33Z</time>
      </trkpt>
      <trkpt lat="49.20734" lon="0.00195">
        <ele>131.3</ele>
        <time>2023-11-22T15:22:50Z</time>
      </trkpt>
      <trkpt lat="49.20734" lon="0.00194">
        <ele>131.3</ele>
        <time>2023-11-22T15:22:51Z</time>
      </trkpt>
      <trkpt lat="49.20734" lon="0.00194">
        <ele>131.3</ele>
        <time>2023-11-22T15:22:52Z</time>
      </trkpt>
      <trkpt lat="49.20734" lon="0.00189">
        <ele>131.4</ele>
        <time>2023-11-22T15:22:53Z</time>
      </trkpt>
      <trkpt lat="49.20733" lon="0.00188">
        <ele>131.4</ele>
        <time>2023-11-22T15:22:54Z</time>
      </trkpt>
      <trkpt lat="49.20732" lon="0.00183">
        <ele>131.5</ele>
        <time>2023-11-22T15:22:55Z</time>
      </trkpt>
      <trkpt lat="49.20732" lon="0.00182">
        <ele>131.5</ele>
        <time>2023-11-22T15:22:56Z</time>
      </trkpt>
      <trkpt lat="49.2073" lon="0.00176">
        <ele>131.6</ele>
        <time>2023-11-22T15:22:57Z</time>
      </trkpt>
      <trkpt lat="49.20729" lon="0.00175">
        <ele>131.6</ele>
        <time>2023-11-22T15:22:58Z</time>
      </trkpt>
      <trkpt lat="49.20727" lon="0.00169">
        <ele>131.7</ele>
        <time>2023-11-22T15:22:59Z</time>
      </trkpt>
      <trkpt lat="49.20726" lon="0.00167">
        <ele>131.8</ele>
        <time>2023-11-22T15:23:00Z</time>
      </trkpt>
      <trkpt lat="49.20725" lon="0.00163">
        <ele>131.9</ele>
        <time>2023-11-22T15:23:01Z</time>
      </trkpt>
      <trkpt lat="49.20723" lon="0.00158">
        <ele>132</ele>
        <time>2023-11-22T15:23:02Z</time>
      </trkpt>
      <trkpt lat="49.20721" lon="0.00152">
        <ele>132.1</ele>
        <time>2023-11-22T15:23:03Z</time>
      </trkpt>
      <trkpt lat="49.20719" lon="0.00147">
        <ele>132.1</ele>
        <time>2023-11-22T15:23:04Z</time>
      </trkpt>
      <trkpt lat="49.20717" lon="0.0014">
        <ele>132.2</ele>
        <time>2023-11-22T15:23:05Z</time>
      </trkpt>
      <trkpt lat="49.20716" lon="0.00134">
        <ele>132.3</ele>
        <time>2023-11-22T15:23:06Z</time>
      </trkpt>
      <trkpt lat="49.20714" lon="0.00128">
        <ele>132.3</ele>
        <time>2023-11-22T15:23:07Z</time>
      </trkpt>
      <trkpt lat="49.20711" lon="0.00121">
        <ele>132.4</ele>
        <time>2023-11-22T15:23:08Z</time>
      </trkpt>
      <trkpt lat="49.20708" lon="0.00114">
        <ele>132.4</ele>
        <time>2023-11-22T15:23:09Z</time>
      </trkpt>
      <trkpt lat="49.20706" lon="0.00108">
        <ele>132.4</ele>
        <time>2023-11-22T15:23:10Z</time>
      </trkpt>
      <trkpt lat="49.20703" lon="0.00101">
        <ele>132.4</ele>
        <time>2023-11-22T15:23:11Z</time>
      </trkpt>
      <trkpt lat="49.20701" lon="0.00094">
        <ele>132.3</ele>
        <time>2023-11-22T15:23:12Z</time>
      </trkpt>
      <trkpt lat="49.20698" lon="0.00088">
        <ele>132.3</ele>
        <time>2023-11-22T15:23:13Z</time>
      </trkpt>
      <trkpt lat="49.20696" lon="0.00082">
        <ele>132.2</ele>
        <time>2023-11-22T15:23:14Z</time>
      </trkpt>
      <trkpt lat="49.20694" lon="0.00075">
        <ele>132.2</ele>
        <time>2023-11-22T15:23:15Z</time>
      </trkpt>
      <trkpt lat="49.20691" lon="0.00069">
        <ele>132.1</ele>
        <time>2023-11-22T15:23:16Z</time>
      </trkpt>
      <trkpt lat="49.20689" lon="0.00062">
        <ele>132</ele>
        <time>2023-11-22T15:23:17Z</time>
      </trkpt>
      <trkpt lat="49.20687" lon="0.00055">
        <ele>131.8</ele>
        <time>2023-11-22T15:23:18Z</time>
      </trkpt>
      <trkpt lat="49.20684" lon="0.00049">
        <ele>131.7</ele>
        <time>2023-11-22T15:23:19Z</time>
      </trkpt>
      <trkpt lat="49.20682" lon="0.00042">
        <ele>131.6</ele>
        <time>2023-11-22T15:23:20Z</time>
      </trkpt>
      <trkpt lat="49.20679" lon="0.00034">
        <ele>131.4</ele>
        <time>2023-11-22T15:23:21Z</time>
      </trkpt>
      <trkpt lat="49.20677" lon="0.00027">
        <ele>131.3</ele>
        <time>2023-11-22T15:23:22Z</time>
      </trkpt>
      <trkpt lat="49.20674" lon="0.0002">
        <ele>131.1</ele>
        <time>2023-11-22T15:23:23Z</time>
      </trkpt>
      <trkpt lat="49.20671" lon="0.00012">
        <ele>130.9</ele>
        <time>2023-11-22T15:23:24Z</time>
      </trkpt>
      <trkpt lat="49.20669" lon="5.0E-5">
        <ele>130.6</ele>
        <time>2023-11-22T15:23:25Z</time>
      </trkpt>
      <trkpt lat="49.20668" lon="-4.0E-5">
        <ele>130.4</ele>
        <time>2023-11-22T15:23:26Z</time>
      </trkpt>
      <trkpt lat="49.20667" lon="-0.00013">
        <ele>130.1</ele>
        <time>2023-11-22T15:23:27Z</time>
      </trkpt>
      <trkpt lat="49.20668" lon="-0.00023">
        <ele>129.8</ele>
        <time>2023-11-22T15:23:28Z</time>
      </trkpt>
      <trkpt lat="49.20669" lon="-0.00033">
        <ele>129.5</ele>
        <time>2023-11-22T15:23:29Z</time>
      </trkpt>
      <trkpt lat="49.20672" lon="-0.00042">
        <ele>129.2</ele>
        <time>2023-11-22T15:23:30Z</time>
      </trkpt>
      <trkpt lat="49.20675" lon="-0.00051">
        <ele>128.9</ele>
        <time>2023-11-22T15:23:31Z</time>
      </trkpt>
      <trkpt lat="49.20679" lon="-0.0006">
        <ele>128.6</ele>
        <time>2023-11-22T15:23:32Z</time>
      </trkpt>
      <trkpt lat="49.20683" lon="-0.00069">
        <ele>128.2</ele>
        <time>2023-11-22T15:23:33Z</time>
      </trkpt>
      <trkpt lat="49.20688" lon="-0.00077">
        <ele>127.9</ele>
        <time>2023-11-22T15:23:34Z</time>
      </trkpt>
      <trkpt lat="49.20694" lon="-0.00085">
        <ele>127.5</ele>
        <time>2023-11-22T15:23:35Z</time>
      </trkpt>
      <trkpt lat="49.20699" lon="-0.00092">
        <ele>127.2</ele>
        <time>2023-11-22T15:23:36Z</time>
      </trkpt>
      <trkpt lat="49.20705" lon="-0.001">
        <ele>126.9</ele>
        <time>2023-11-22T15:23:37Z</time>
      </trkpt>
      <trkpt lat="49.20711" lon="-0.00107">
        <ele>126.6</ele>
        <time>2023-11-22T15:23:38Z</time>
      </trkpt>
      <trkpt lat="49.20717" lon="-0.00115">
        <ele>126.3</ele>
        <time>2023-11-22T15:23:39Z</time>
      </trkpt>
      <trkpt lat="49.20722" lon="-0.00123">
        <ele>126.2</ele>
        <time>2023-11-22T15:23:40Z</time>
      </trkpt>
      <trkpt lat="49.20727" lon="-0.00131">
        <ele>126</ele>
        <time>2023-11-22T15:23:41Z</time>
      </trkpt>
      <trkpt lat="49.20731" lon="-0.0014">
        <ele>125.9</ele>
        <time>2023-11-22T15:23:42Z</time>
      </trkpt>
      <trkpt lat="49.20735" lon="-0.00149">
        <ele>125.8</ele>
        <time>2023-11-22T15:23:43Z</time>
      </trkpt>
      <trkpt lat="49.20737" lon="-0.00159">
        <ele>125.8</ele>
        <time>2023-11-22T15:23:44Z</time>
      </trkpt>
      <trkpt lat="49.20739" lon="-0.0017">
        <ele>125.8</ele>
        <time>2023-11-22T15:23:45Z</time>
      </trkpt>
      <trkpt lat="49.2074" lon="-0.00181">
        <ele>125.8</ele>
        <time>2023-11-22T15:23:46Z</time>
      </trkpt>
      <trkpt lat="49.2074" lon="-0.00191">
        <ele>125.9</ele>
        <time>2023-11-22T15:23:47Z</time>
      </trkpt>
      <trkpt lat="49.2074" lon="-0.00201">
        <ele>125.9</ele>
        <time>2023-11-22T15:23:48Z</time>
      </trkpt>
      <trkpt lat="49.20739" lon="-0.00211">
        <ele>126</ele>
        <time>2023-11-22T15:23:49Z</time>
      </trkpt>
      <trkpt lat="49.20737" lon="-0.00221">
        <ele>126.1</ele>
        <time>2023-11-22T15:23:50Z</time>
      </trkpt>
      <trkpt lat="49.20735" lon="-0.00231">
        <ele>126.1</ele>
        <time>2023-11-22T15:23:51Z</time>
      </trkpt>
      <trkpt lat="49.20734" lon="-0.0024">
        <ele>126.1</ele>
        <time>2023-11-22T15:23:52Z</time>
      </trkpt>
      <trkpt lat="49.20731" lon="-0.0025">
        <ele>126.1</ele>
        <time>2023-11-22T15:23:53Z</time>
      </trkpt>
      <trkpt lat="49.20729" lon="-0.00259">
        <ele>126.1</ele>
        <time>2023-11-22T15:23:54Z</time>
      </trkpt>
      <trkpt lat="49.20727" lon="-0.00268">
        <ele>126.1</ele>
        <time>2023-11-22T15:23:55Z</time>
      </trkpt>
      <trkpt lat="49.20726" lon="-0.00278">
        <ele>126.2</ele>
        <time>2023-11-22T15:23:56Z</time>
      </trkpt>
      <trkpt lat="49.20725" lon="-0.00288">
        <ele>126.2</ele>
        <time>2023-11-22T15:23:57Z</time>
      </trkpt>
      <trkpt lat="49.20723" lon="-0.00297">
        <ele>126.2</ele>
        <time>2023-11-22T15:23:58Z</time>
      </trkpt>
      <trkpt lat="49.20722" lon="-0.00306">
        <ele>126.3</ele>
        <time>2023-11-22T15:23:59Z</time>
      </trkpt>
      <trkpt lat="49.2072" lon="-0.00316">
        <ele>126.4</ele>
        <time>2023-11-22T15:24:00Z</time>
      </trkpt>
      <trkpt lat="49.20719" lon="-0.00325">
        <ele>126.4</ele>
        <time>2023-11-22T15:24:01Z</time>
      </trkpt>
      <trkpt lat="49.20718" lon="-0.00335">
        <ele>126.5</ele>
        <time>2023-11-22T15:24:02Z</time>
      </trkpt>
      <trkpt lat="49.20716" lon="-0.00345">
        <ele>126.5</ele>
        <time>2023-11-22T15:24:03Z</time>
      </trkpt>
      <trkpt lat="49.20715" lon="-0.00355">
        <ele>126.5</ele>
        <time>2023-11-22T15:24:04Z</time>
      </trkpt>
      <trkpt lat="49.20714" lon="-0.00365">
        <ele>126.5</ele>
        <time>2023-11-22T15:24:05Z</time>
      </trkpt>
      <trkpt lat="49.20713" lon="-0.00375">
        <ele>126.6</ele>
        <time>2023-11-22T15:24:06Z</time>
      </trkpt>
      <trkpt lat="49.20712" lon="-0.00384">
        <ele>126.6</ele>
        <time>2023-11-22T15:24:07Z</time>
      </trkpt>
      <trkpt lat="49.20711" lon="-0.00394">
        <ele>126.6</ele>
        <time>2023-11-22T15:24:08Z</time>
      </trkpt>
      <trkpt lat="49.2071" lon="-0.00404">
        <ele>126.6</ele>
        <time>2023-11-22T15:24:09Z</time>
      </trkpt>
      <trkpt lat="49.2071" lon="-0.00414">
        <ele>126.6</ele>
        <time>2023-11-22T15:24:10Z</time>
      </trkpt>
      <trkpt lat="49.20709" lon="-0.00424">
        <ele>126.6</ele>
        <time>2023-11-22T15:24:11Z</time>
      </trkpt>
      <trkpt lat="49.20708" lon="-0.00435">
        <ele>126.6</ele>
        <time>2023-11-22T15:24:12Z</time>
      </trkpt>
      <trkpt lat="49.20706" lon="-0.00444">
        <ele>126.5</ele>
        <time>2023-11-22T15:24:13Z</time>
      </trkpt>
      <trkpt lat="49.20705" lon="-0.00453">
        <ele>126.4</ele>
        <time>2023-11-22T15:24:14Z</time>
      </trkpt>
      <trkpt lat="49.20703" lon="-0.00462">
        <ele>126.3</ele>
        <time>2023-11-22T15:24:15Z</time>
      </trkpt>
      <trkpt lat="49.207" lon="-0.00471">
        <ele>126.2</ele>
        <time>2023-11-22T15:24:16Z</time>
      </trkpt>
      <trkpt lat="49.20698" lon="-0.00481">
        <ele>126.2</ele>
        <time>2023-11-22T15:24:17Z</time>
      </trkpt>
      <trkpt lat="49.20695" lon="-0.00491">
        <ele>126.1</ele>
        <time>2023-11-22T15:24:18Z</time>
      </trkpt>
      <trkpt lat="49.20692" lon="-0.00501">
        <ele>126.1</ele>
        <time>2023-11-22T15:24:19Z</time>
      </trkpt>
      <trkpt lat="49.20689" lon="-0.00511">
        <ele>126</ele>
        <time>2023-11-22T15:24:20Z</time>
      </trkpt>
      <trkpt lat="49.20686" lon="-0.0052">
        <ele>126</ele>
        <time>2023-11-22T15:24:21Z</time>
      </trkpt>
      <trkpt lat="49.20684" lon="-0.00529">
        <ele>125.9</ele>
        <time>2023-11-22T15:24:22Z</time>
      </trkpt>
      <trkpt lat="49.20681" lon="-0.00537">
        <ele>125.9</ele>
        <time>2023-11-22T15:24:23Z</time>
      </trkpt>
      <trkpt lat="49.20678" lon="-0.00546">
        <ele>125.9</ele>
        <time>2023-11-22T15:24:24Z</time>
      </trkpt>
      <trkpt lat="49.20676" lon="-0.00554">
        <ele>125.9</ele>
        <time>2023-11-22T15:24:25Z</time>
      </trkpt>
      <trkpt lat="49.20673" lon="-0.00562">
        <ele>125.9</ele>
        <time>2023-11-22T15:24:26Z</time>
      </trkpt>
      <trkpt lat="49.20671" lon="-0.00571">
        <ele>125.9</ele>
        <time>2023-11-22T15:24:27Z</time>
      </trkpt>
      <trkpt lat="49.20669" lon="-0.00579">
        <ele>125.9</ele>
        <time>2023-11-22T15:24:28Z</time>
      </trkpt>
      <trkpt lat="49.20666" lon="-0.00588">
        <ele>125.9</ele>
        <time>2023-11-22T15:24:29Z</time>
      </trkpt>
      <trkpt lat="49.20663" lon="-0.00596">
        <ele>125.9</ele>
        <time>2023-11-22T15:24:30Z</time>
      </trkpt>
      <trkpt lat="49.2066" lon="-0.00605">
        <ele>125.9</ele>
        <time>2023-11-22T15:24:31Z</time>
      </trkpt>
      <trkpt lat="49.20657" lon="-0.00614">
        <ele>125.9</ele>
        <time>2023-11-22T15:24:32Z</time>
      </trkpt>
      <trkpt lat="49.20654" lon="-0.00624">
        <ele>125.9</ele>
        <time>2023-11-22T15:24:33Z</time>
      </trkpt>
      <trkpt lat="49.20651" lon="-0.00635">
        <ele>126</ele>
        <time>2023-11-22T15:24:34Z</time>
      </trkpt>
      <trkpt lat="49.20648" lon="-0.00646">
        <ele>126.2</ele>
        <time>2023-11-22T15:24:35Z</time>
      </trkpt>
      <trkpt lat="49.20645" lon="-0.00657">
        <ele>126.3</ele>
        <time>2023-11-22T15:24:36Z</time>
      </trkpt>
      <trkpt lat="49.20641" lon="-0.00669">
        <ele>126.4</ele>
        <time>2023-11-22T15:24:37Z</time>
      </trkpt>
      <trkpt lat="49.20638" lon="-0.0068">
        <ele>126.5</ele>
        <time>2023-11-22T15:24:38Z</time>
      </trkpt>
      <trkpt lat="49.20635" lon="-0.00691">
        <ele>126.7</ele>
        <time>2023-11-22T15:24:39Z</time>
      </trkpt>
      <trkpt lat="49.20633" lon="-0.00702">
        <ele>126.9</ele>
        <time>2023-11-22T15:24:40Z</time>
      </trkpt>
      <trkpt lat="49.2063" lon="-0.00712">
        <ele>127.2</ele>
        <time>2023-11-22T15:24:41Z</time>
      </trkpt>
      <trkpt lat="49.20628" lon="-0.00723">
        <ele>127.5</ele>
        <time>2023-11-22T15:24:42Z</time>
      </trkpt>
      <trkpt lat="49.20625" lon="-0.00733">
        <ele>127.8</ele>
        <time>2023-11-22T15:24:43Z</time>
      </trkpt>
      <trkpt lat="49.20623" lon="-0.00744">
        <ele>128.1</ele>
        <time>2023-11-22T15:24:44Z</time>
      </trkpt>
      <trkpt lat="49.20621" lon="-0.00754">
        <ele>128.4</ele>
        <time>2023-11-22T15:24:45Z</time>
      </trkpt>
      <trkpt lat="49.20619" lon="-0.00765">
        <ele>128.7</ele>
        <time>2023-11-22T15:24:46Z</time>
      </trkpt>
      <trkpt lat="49.20616" lon="-0.00776">
        <ele>129</ele>
        <time>2023-11-22T15:24:47Z</time>
      </trkpt>
      <trkpt lat="49.20615" lon="-0.00787">
        <ele>129.3</ele>
        <time>2023-11-22T15:24:48Z</time>
      </trkpt>
      <trkpt lat="49.20613" lon="-0.00797">
        <ele>129.6</ele>
        <time>2023-11-22T15:24:49Z</time>
      </trkpt>
      <trkpt lat="49.20611" lon="-0.00808">
        <ele>129.9</ele>
        <time>2023-11-22T15:24:50Z</time>
      </trkpt>
      <trkpt lat="49.20609" lon="-0.00818">
        <ele>130.2</ele>
        <time>2023-11-22T15:24:51Z</time>
      </trkpt>
      <trkpt lat="49.20608" lon="-0.0083">
        <ele>130.5</ele>
        <time>2023-11-22T15:24:52Z</time>
      </trkpt>
      <trkpt lat="49.20606" lon="-0.00841">
        <ele>130.8</ele>
        <time>2023-11-22T15:24:53Z</time>
      </trkpt>
      <trkpt lat="49.20605" lon="-0.00852">
        <ele>131.1</ele>
        <time>2023-11-22T15:24:54Z</time>
      </trkpt>
      <trkpt lat="49.20604" lon="-0.00864">
        <ele>131.4</ele>
        <time>2023-11-22T15:24:55Z</time>
      </trkpt>
      <trkpt lat="49.20604" lon="-0.00876">
        <ele>131.7</ele>
        <time>2023-11-22T15:24:56Z</time>
      </trkpt>
      <trkpt lat="49.20603" lon="-0.00887">
        <ele>132</ele>
        <time>2023-11-22T15:24:57Z</time>
      </trkpt>
      <trkpt lat="49.20603" lon="-0.00898">
        <ele>132.3</ele>
        <time>2023-11-22T15:24:58Z</time>
      </trkpt>
      <trkpt lat="49.20602" lon="-0.00909">
        <ele>132.5</ele>
        <time>2023-11-22T15:24:59Z</time>
      </trkpt>
      <trkpt lat="49.20602" lon="-0.0092">
        <ele>132.8</ele>
        <time>2023-11-22T15:25:00Z</time>
      </trkpt>
      <trkpt lat="49.20602" lon="-0.00931">
        <ele>133.1</ele>
        <time>2023-11-22T15:25:01Z</time>
      </trkpt>
      <trkpt lat="49.20602" lon="-0.00942">
        <ele>133.3</ele>
        <time>2023-11-22T15:25:02Z</time>
      </trkpt>
      <trkpt lat="49.20603" lon="-0.00953">
        <ele>133.6</ele>
        <time>2023-11-22T15:25:03Z</time>
      </trkpt>
      <trkpt lat="49.20603" lon="-0.00963">
        <ele>133.8</ele>
        <time>2023-11-22T15:25:04Z</time>
      </trkpt>
      <trkpt lat="49.20603" lon="-0.00974">
        <ele>134</ele>
        <time>2023-11-22T15:25:05Z</time>
      </trkpt>
      <trkpt lat="49.20602" lon="-0.00984">
        <ele>134.2</ele>
        <time>2023-11-22T15:25:06Z</time>
      </trkpt>
      <trkpt lat="49.20602" lon="-0.00995">
        <ele>134.3</ele>
        <time>2023-11-22T15:25:07Z</time>
      </trkpt>
      <trkpt lat="49.20601" lon="-0.01005">
        <ele>134.5</ele>
        <time>2023-11-22T15:25:08Z</time>
      </trkpt>
      <trkpt lat="49.20601" lon="-0.01015">
        <ele>134.5</ele>
        <time>2023-11-22T15:25:09Z</time>
      </trkpt>
      <trkpt lat="49.206" lon="-0.01025">
        <ele>134.6</ele>
        <time>2023-11-22T15:25:10Z</time>
      </trkpt>
      <trkpt lat="49.20599" lon="-0.01035">
        <ele>134.7</ele>
        <time>2023-11-22T15:25:11Z</time>
      </trkpt>
      <trkpt lat="49.20598" lon="-0.01045">
        <ele>134.7</ele>
        <time>2023-11-22T15:25:12Z</time>
      </trkpt>
      <trkpt lat="49.20597" lon="-0.01055">
        <ele>134.8</ele>
        <time>2023-11-22T15:25:13Z</time>
      </trkpt>
      <trkpt lat="49.20596" lon="-0.01065">
        <ele>134.8</ele>
        <time>2023-11-22T15:25:14Z</time>
      </trkpt>
      <trkpt lat="49.20594" lon="-0.01076">
        <ele>134.9</ele>
        <time>2023-11-22T15:25:15Z</time>
      </trkpt>
      <trkpt lat="49.20593" lon="-0.01086">
        <ele>134.9</ele>
        <time>2023-11-22T15:25:16Z</time>
      </trkpt>
      <trkpt lat="49.20591" lon="-0.01097">
        <ele>135</ele>
        <time>2023-11-22T15:25:17Z</time>
      </trkpt>
      <trkpt lat="49.2059" lon="-0.01108">
        <ele>135</ele>
        <time>2023-11-22T15:25:18Z</time>
      </trkpt>
      <trkpt lat="49.20589" lon="-0.01118">
        <ele>135.1</ele>
        <time>2023-11-22T15:25:19Z</time>
      </trkpt>
      <trkpt lat="49.20587" lon="-0.01129">
        <ele>135.2</ele>
        <time>2023-11-22T15:25:20Z</time>
      </trkpt>
      <trkpt lat="49.20586" lon="-0.0114">
        <ele>135.2</ele>
        <time>2023-11-22T15:25:21Z</time>
      </trkpt>
      <trkpt lat="49.20585" lon="-0.01151">
        <ele>135.3</ele>
        <time>2023-11-22T15:25:22Z</time>
      </trkpt>
      <trkpt lat="49.20583" lon="-0.01161">
        <ele>135.3</ele>
        <time>2023-11-22T15:25:23Z</time>
      </trkpt>
      <trkpt lat="49.20582" lon="-0.01172">
        <ele>135.4</ele>
        <time>2023-11-22T15:25:24Z</time>
      </trkpt>
      <trkpt lat="49.2058" lon="-0.01182">
        <ele>135.5</ele>
        <time>2023-11-22T15:25:25Z</time>
      </trkpt>
      <trkpt lat="49.20579" lon="-0.01193">
        <ele>135.5</ele>
        <time>2023-11-22T15:25:26Z</time>
      </trkpt>
      <trkpt lat="49.20578" lon="-0.01204">
        <ele>135.6</ele>
        <time>2023-11-22T15:25:27Z</time>
      </trkpt>
      <trkpt lat="49.20577" lon="-0.01215">
        <ele>135.7</ele>
        <time>2023-11-22T15:25:28Z</time>
      </trkpt>
      <trkpt lat="49.20576" lon="-0.01226">
        <ele>135.7</ele>
        <time>2023-11-22T15:25:29Z</time>
      </trkpt>
      <trkpt lat="49.20574" lon="-0.01236">
        <ele>135.8</ele>
        <time>2023-11-22T15:25:30Z</time>
      </trkpt>
      <trkpt lat="49.20573" lon="-0.01247">
        <ele>135.9</ele>
        <time>2023-11-22T15:25:31Z</time>
      </trkpt>
      <trkpt lat="49.20572" lon="-0.01257">
        <ele>136</ele>
        <time>2023-11-22T15:25:32Z</time>
      </trkpt>
      <trkpt lat="49.20571" lon="-0.01267">
        <ele>136</ele>
        <time>2023-11-22T15:25:33Z</time>
      </trkpt>
      <trkpt lat="49.20569" lon="-0.01276">
        <ele>136.1</ele>
        <time>2023-11-22T15:25:34Z</time>
      </trkpt>
      <trkpt lat="49.20568" lon="-0.01286">
        <ele>136.2</ele>
        <time>2023-11-22T15:25:35Z</time>
      </trkpt>
      <trkpt lat="49.20566" lon="-0.01295">
        <ele>136.3</ele>
        <time>2023-11-22T15:25:36Z</time>
      </trkpt>
      <trkpt lat="49.20565" lon="-0.01306">
        <ele>136.4</ele>
        <time>2023-11-22T15:25:37Z</time>
      </trkpt>
      <trkpt lat="49.20563" lon="-0.01316">
        <ele>136.5</ele>
        <time>2023-11-22T15:25:38Z</time>
      </trkpt>
      <trkpt lat="49.20561" lon="-0.01325">
        <ele>136.6</ele>
        <time>2023-11-22T15:25:39Z</time>
      </trkpt>
      <trkpt lat="49.20559" lon="-0.01334">
        <ele>136.7</ele>
        <time>2023-11-22T15:25:40Z</time>
      </trkpt>
      <trkpt lat="49.20557" lon="-0.01343">
        <ele>136.8</ele>
        <time>2023-11-22T15:25:41Z</time>
      </trkpt>
      <trkpt lat="49.20555" lon="-0.01352">
        <ele>136.9</ele>
        <time>2023-11-22T15:25:42Z</time>
      </trkpt>
      <trkpt lat="49.20553" lon="-0.0136">
        <ele>137</ele>
        <time>2023-11-22T15:25:43Z</time>
      </trkpt>
      <trkpt lat="49.20551" lon="-0.01369">
        <ele>137.1</ele>
        <time>2023-11-22T15:25:44Z</time>
      </trkpt>
      <trkpt lat="49.20549" lon="-0.01379">
        <ele>137.2</ele>
        <time>2023-11-22T15:25:45Z</time>
      </trkpt>
      <trkpt lat="49.20547" lon="-0.01388">
        <ele>137.3</ele>
        <time>2023-11-22T15:25:46Z</time>
      </trkpt>
      <trkpt lat="49.20545" lon="-0.01397">
        <ele>137.3</ele>
        <time>2023-11-22T15:25:47Z</time>
      </trkpt>
      <trkpt lat="49.20542" lon="-0.01407">
        <ele>137.4</ele>
        <time>2023-11-22T15:25:48Z</time>
      </trkpt>
      <trkpt lat="49.2054" lon="-0.01416">
        <ele>137.5</ele>
        <time>2023-11-22T15:25:49Z</time>
      </trkpt>
      <trkpt lat="49.20537" lon="-0.01426">
        <ele>137.6</ele>
        <time>2023-11-22T15:25:50Z</time>
      </trkpt>
      <trkpt lat="49.20535" lon="-0.01434">
        <ele>137.6</ele>
        <time>2023-11-22T15:25:51Z</time>
      </trkpt>
      <trkpt lat="49.20532" lon="-0.01443">
        <ele>137.7</ele>
        <time>2023-11-22T15:25:52Z</time>
      </trkpt>
      <trkpt lat="49.20529" lon="-0.01452">
        <ele>137.8</ele>
        <time>2023-11-22T15:25:53Z</time>
      </trkpt>
      <trkpt lat="49.20525" lon="-0.0146">
        <ele>137.8</ele>
        <time>2023-11-22T15:25:54Z</time>
      </trkpt>
      <trkpt lat="49.20522" lon="-0.01469">
        <ele>137.9</ele>
        <time>2023-11-22T15:25:55Z</time>
      </trkpt>
      <trkpt lat="49.20518" lon="-0.01478">
        <ele>138</ele>
        <time>2023-11-22T15:25:56Z</time>
      </trkpt>
      <trkpt lat="49.20515" lon="-0.01488">
        <ele>138.1</ele>
        <time>2023-11-22T15:25:57Z</time>
      </trkpt>
      <trkpt lat="49.20511" lon="-0.01497">
        <ele>138.2</ele>
        <time>2023-11-22T15:25:58Z</time>
      </trkpt>
      <trkpt lat="49.20508" lon="-0.01506">
        <ele>138.4</ele>
        <time>2023-11-22T15:25:59Z</time>
      </trkpt>
      <trkpt lat="49.20505" lon="-0.01515">
        <ele>138.5</ele>
        <time>2023-11-22T15:26:00Z</time>
      </trkpt>
      <trkpt lat="49.20502" lon="-0.01524">
        <ele>138.6</ele>
        <time>2023-11-22T15:26:01Z</time>
      </trkpt>
      <trkpt lat="49.20498" lon="-0.01533">
        <ele>138.7</ele>
        <time>2023-11-22T15:26:02Z</time>
      </trkpt>
      <trkpt lat="49.20495" lon="-0.01542">
        <ele>138.8</ele>
        <time>2023-11-22T15:26:03Z</time>
      </trkpt>
      <trkpt lat="49.20491" lon="-0.01551">
        <ele>139</ele>
        <time>2023-11-22T15:26:04Z</time>
      </trkpt>
      <trkpt lat="49.20488" lon="-0.0156">
        <ele>139.1</ele>
        <time>2023-11-22T15:26:05Z</time>
      </trkpt>
      <trkpt lat="49.20484" lon="-0.01569">
        <ele>139.2</ele>
        <time>2023-11-22T15:26:06Z</time>
      </trkpt>
      <trkpt lat="49.20481" lon="-0.01578">
        <ele>139.3</ele>
        <time>2023-11-22T15:26:07Z</time>
      </trkpt>
      <trkpt lat="49.20477" lon="-0.01588">
        <ele>139.4</ele>
        <time>2023-11-22T15:26:08Z</time>
      </trkpt>
      <trkpt lat="49.20474" lon="-0.01597">
        <ele>139.5</ele>
        <time>2023-11-22T15:26:09Z</time>
      </trkpt>
      <trkpt lat="49.20471" lon="-0.01607">
        <ele>139.6</ele>
        <time>2023-11-22T15:26:10Z</time>
      </trkpt>
      <trkpt lat="49.20468" lon="-0.01616">
        <ele>139.7</ele>
        <time>2023-11-22T15:26:11Z</time>
      </trkpt>
      <trkpt lat="49.20464" lon="-0.01625">
        <ele>139.7</ele>
        <time>2023-11-22T15:26:12Z</time>
      </trkpt>
      <trkpt lat="49.20461" lon="-0.01635">
        <ele>139.8</ele>
        <time>2023-11-22T15:26:13Z</time>
      </trkpt>
      <trkpt lat="49.20458" lon="-0.01644">
        <ele>139.9</ele>
        <time>2023-11-22T15:26:14Z</time>
      </trkpt>
      <trkpt lat="49.20455" lon="-0.01652">
        <ele>140</ele>
        <time>2023-11-22T15:26:15Z</time>
      </trkpt>
      <trkpt lat="49.20452" lon="-0.01661">
        <ele>140.1</ele>
        <time>2023-11-22T15:26:16Z</time>
      </trkpt>
      <trkpt lat="49.20449" lon="-0.01671">
        <ele>140.2</ele>
        <time>2023-11-22T15:26:17Z</time>
      </trkpt>
      <trkpt lat="49.20446" lon="-0.0168">
        <ele>140.3</ele>
        <time>2023-11-22T15:26:18Z</time>
      </trkpt>
      <trkpt lat="49.20443" lon="-0.01689">
        <ele>140.4</ele>
        <time>2023-11-22T15:26:19Z</time>
      </trkpt>
      <trkpt lat="49.2044" lon="-0.01698">
        <ele>140.5</ele>
        <time>2023-11-22T15:26:20Z</time>
      </trkpt>
      <trkpt lat="49.20437" lon="-0.01707">
        <ele>140.5</ele>
        <time>2023-11-22T15:26:21Z</time>
      </trkpt>
      <trkpt lat="49.20434" lon="-0.01716">
        <ele>140.6</ele>
        <time>2023-11-22T15:26:22Z</time>
      </trkpt>
      <trkpt lat="49.20431" lon="-0.01725">
        <ele>140.7</ele>
        <time>2023-11-22T15:26:23Z</time>
      </trkpt>
      <trkpt lat="49.20428" lon="-0.01733">
        <ele>140.7</ele>
        <time>2023-11-22T15:26:24Z</time>
      </trkpt>
      <trkpt lat="49.20425" lon="-0.01742">
        <ele>140.8</ele>
        <time>2023-11-22T15:26:25Z</time>
      </trkpt>
      <trkpt lat="49.20422" lon="-0.01751">
        <ele>140.9</ele>
        <time>2023-11-22T15:26:26Z</time>
      </trkpt>
      <trkpt lat="49.20419" lon="-0.0176">
        <ele>141</ele>
        <time>2023-11-22T15:26:27Z</time>
      </trkpt>
      <trkpt lat="49.20416" lon="-0.01768">
        <ele>141.1</ele>
        <time>2023-11-22T15:26:28Z</time>
      </trkpt>
      <trkpt lat="49.20413" lon="-0.01777">
        <ele>141.1</ele>
        <time>2023-11-22T15:26:29Z</time>
      </trkpt>
      <trkpt lat="49.2041" lon="-0.01786">
        <ele>141.2</ele>
        <time>2023-11-22T15:26:30Z</time>
      </trkpt>
      <trkpt lat="49.20407" lon="-0.01795">
        <ele>141.2</ele>
        <time>2023-11-22T15:26:31Z</time>
      </trkpt>
      <trkpt lat="49.20404" lon="-0.01803">
        <ele>141.2</ele>
        <time>2023-11-22T15:26:32Z</time>
      </trkpt>
      <trkpt lat="49.20401" lon="-0.01812">
        <ele>141.2</ele>
        <time>2023-11-22T15:26:33Z</time>
      </trkpt>
      <trkpt lat="49.20398" lon="-0.01821">
        <ele>141.3</ele>
        <time>2023-11-22T15:26:34Z</time>
      </trkpt>
      <trkpt lat="49.20395" lon="-0.01831">
        <ele>141.3</ele>
        <time>2023-11-22T15:26:35Z</time>
      </trkpt>
      <trkpt lat="49.20393" lon="-0.0184">
        <ele>141.3</ele>
        <time>2023-11-22T15:26:36Z</time>
      </trkpt>
      <trkpt lat="49.2039" lon="-0.01849">
        <ele>141.3</ele>
        <time>2023-11-22T15:26:37Z</time>
      </trkpt>
      <trkpt lat="49.20388" lon="-0.01858">
        <ele>141.3</ele>
        <time>2023-11-22T15:26:38Z</time>
      </trkpt>
      <trkpt lat="49.20385" lon="-0.01868">
        <ele>141.3</ele>
        <time>2023-11-22T15:26:39Z</time>
      </trkpt>
      <trkpt lat="49.20383" lon="-0.01877">
        <ele>141.3</ele>
        <time>2023-11-22T15:26:40Z</time>
      </trkpt>
      <trkpt lat="49.20381" lon="-0.01887">
        <ele>141.3</ele>
        <time>2023-11-22T15:26:41Z</time>
      </trkpt>
      <trkpt lat="49.20379" lon="-0.01897">
        <ele>141.3</ele>
        <time>2023-11-22T15:26:42Z</time>
      </trkpt>
      <trkpt lat="49.20377" lon="-0.01906">
        <ele>141.2</ele>
        <time>2023-11-22T15:26:43Z</time>
      </trkpt>
      <trkpt lat="49.20375" lon="-0.01916">
        <ele>141.2</ele>
        <time>2023-11-22T15:26:44Z</time>
      </trkpt>
      <trkpt lat="49.20372" lon="-0.01925">
        <ele>141.2</ele>
        <time>2023-11-22T15:26:45Z</time>
      </trkpt>
      <trkpt lat="49.2037" lon="-0.01934">
        <ele>141.2</ele>
        <time>2023-11-22T15:26:46Z</time>
      </trkpt>
      <trkpt lat="49.20368" lon="-0.01943">
        <ele>141.2</ele>
        <time>2023-11-22T15:26:47Z</time>
      </trkpt>
      <trkpt lat="49.20366" lon="-0.01952">
        <ele>141.1</ele>
        <time>2023-11-22T15:26:48Z</time>
      </trkpt>
      <trkpt lat="49.20363" lon="-0.01961">
        <ele>141.1</ele>
        <time>2023-11-22T15:26:49Z</time>
      </trkpt>
      <trkpt lat="49.20361" lon="-0.01969">
        <ele>141.1</ele>
        <time>2023-11-22T15:26:50Z</time>
      </trkpt>
      <trkpt lat="49.20359" lon="-0.01977">
        <ele>141</ele>
        <time>2023-11-22T15:26:51Z</time>
      </trkpt>
      <trkpt lat="49.20358" lon="-0.01985">
        <ele>141</ele>
        <time>2023-11-22T15:26:52Z</time>
      </trkpt>
      <trkpt lat="49.20356" lon="-0.01991">
        <ele>141</ele>
        <time>2023-11-22T15:26:53Z</time>
      </trkpt>
      <trkpt lat="49.20356" lon="-0.01997">
        <ele>141</ele>
        <time>2023-11-22T15:26:54Z</time>
      </trkpt>
      <trkpt lat="49.20354" lon="-0.02002">
        <ele>141</ele>
        <time>2023-11-22T15:26:55Z</time>
      </trkpt>
      <trkpt lat="49.20354" lon="-0.02004">
        <ele>141</ele>
        <time>2023-11-22T15:26:56Z</time>
      </trkpt>
      <trkpt lat="49.20354" lon="-0.02006">
        <ele>141</ele>
        <time>2023-11-22T15:26:57Z</time>
      </trkpt>
      <trkpt lat="49.20353" lon="-0.02008">
        <ele>141</ele>
        <time>2023-11-22T15:26:58Z</time>
      </trkpt>
      <trkpt lat="49.20353" lon="-0.02009">
        <ele>141</ele>
        <time>2023-11-22T15:26:59Z</time>
      </trkpt>
      <trkpt lat="49.20353" lon="-0.0201">
        <ele>141</ele>
        <time>2023-11-22T15:27:00Z</time>
      </trkpt>
      <trkpt lat="49.20353" lon="-0.02011">
        <ele>141</ele>
        <time>2023-11-22T15:27:01Z</time>
      </trkpt>
      <trkpt lat="49.20353" lon="-0.02012">
        <ele>141</ele>
        <time>2023-11-22T15:27:02Z</time>
      </trkpt>
      <trkpt lat="49.20353" lon="-0.02014">
        <ele>141</ele>
        <time>2023-11-22T15:27:03Z</time>
      </trkpt>
      <trkpt lat="49.20353" lon="-0.02015">
        <ele>141</ele>
        <time>2023-11-22T15:27:04Z</time>
      </trkpt>
      <trkpt lat="49.20354" lon="-0.0202">
        <ele>140.9</ele>
        <time>2023-11-22T15:27:05Z</time>
      </trkpt>
      <trkpt lat="49.20354" lon="-0.02022">
        <ele>140.9</ele>
        <time>2023-11-22T15:27:06Z</time>
      </trkpt>
      <trkpt lat="49.20355" lon="-0.02026">
        <ele>140.9</ele>
        <time>2023-11-22T15:27:07Z</time>
      </trkpt>
      <trkpt lat="49.20356" lon="-0.02032">
        <ele>140.8</ele>
        <time>2023-11-22T15:27:08Z</time>
      </trkpt>
      <trkpt lat="49.20357" lon="-0.02038">
        <ele>140.8</ele>
        <time>2023-11-22T15:27:09Z</time>
      </trkpt>
      <trkpt lat="49.20359" lon="-0.02045">
        <ele>140.8</ele>
        <time>2023-11-22T15:27:10Z</time>
      </trkpt>
      <trkpt lat="49.20361" lon="-0.02052">
        <ele>140.7</ele>
        <time>2023-11-22T15:27:11Z</time>
      </trkpt>
      <trkpt lat="49.20363" lon="-0.02059">
        <ele>140.7</ele>
        <time>2023-11-22T15:27:12Z</time>
      </trkpt>
      <trkpt lat="49.20365" lon="-0.02066">
        <ele>140.7</ele>
        <time>2023-11-22T15:27:13Z</time>
      </trkpt>
      <trkpt lat="49.20367" lon="-0.02073">
        <ele>140.6</ele>
        <time>2023-11-22T15:27:14Z</time>
      </trkpt>
      <trkpt lat="49.20369" lon="-0.0208">
        <ele>140.6</ele>
        <time>2023-11-22T15:27:15Z</time>
      </trkpt>
      <trkpt lat="49.20371" lon="-0.02087">
        <ele>140.5</ele>
        <time>2023-11-22T15:27:16Z</time>
      </trkpt>
      <trkpt lat="49.20373" lon="-0.02094">
        <ele>140.5</ele>
        <time>2023-11-22T15:27:17Z</time>
      </trkpt>
      <trkpt lat="49.20376" lon="-0.02101">
        <ele>140.5</ele>
        <time>2023-11-22T15:27:18Z</time>
      </trkpt>
      <trkpt lat="49.20379" lon="-0.02108">
        <ele>140.4</ele>
        <time>2023-11-22T15:27:19Z</time>
      </trkpt>
      <trkpt lat="49.20382" lon="-0.02116">
        <ele>140.4</ele>
        <time>2023-11-22T15:27:20Z</time>
      </trkpt>
      <trkpt lat="49.20386" lon="-0.02123">
        <ele>140.3</ele>
        <time>2023-11-22T15:27:21Z</time>
      </trkpt>
      <trkpt lat="49.2039" lon="-0.02131">
        <ele>140.3</ele>
        <time>2023-11-22T15:27:22Z</time>
      </trkpt>
      <trkpt lat="49.20396" lon="-0.02138">
        <ele>140.3</ele>
        <time>2023-11-22T15:27:23Z</time>
      </trkpt>
      <trkpt lat="49.20402" lon="-0.02145">
        <ele>140.3</ele>
        <time>2023-11-22T15:27:24Z</time>
      </trkpt>
      <trkpt lat="49.20408" lon="-0.02151">
        <ele>140.2</ele>
        <time>2023-11-22T15:27:25Z</time>
      </trkpt>
      <trkpt lat="49.20415" lon="-0.02156">
        <ele>140.2</ele>
        <time>2023-11-22T15:27:26Z</time>
      </trkpt>
      <trkpt lat="49.20422" lon="-0.02159">
        <ele>140.3</ele>
        <time>2023-11-22T15:27:27Z</time>
      </trkpt>
      <trkpt lat="49.20429" lon="-0.02161">
        <ele>140.3</ele>
        <time>2023-11-22T15:27:28Z</time>
      </trkpt>
      <trkpt lat="49.20436" lon="-0.02162">
        <ele>140.3</ele>
        <time>2023-11-22T15:27:29Z</time>
      </trkpt>
      <trkpt lat="49.20444" lon="-0.02162">
        <ele>140.3</ele>
        <time>2023-11-22T15:27:30Z</time>
      </trkpt>
      <trkpt lat="49.20452" lon="-0.02162">
        <ele>140.3</ele>
        <time>2023-11-22T15:27:31Z</time>
      </trkpt>
      <trkpt lat="49.20459" lon="-0.02161">
        <ele>140.2</ele>
        <time>2023-11-22T15:27:32Z</time>
      </trkpt>
      <trkpt lat="49.20467" lon="-0.0216">
        <ele>140.2</ele>
        <time>2023-11-22T15:27:33Z</time>
      </trkpt>
      <trkpt lat="49.20474" lon="-0.02159">
        <ele>140.2</ele>
        <time>2023-11-22T15:27:34Z</time>
      </trkpt>
      <trkpt lat="49.20481" lon="-0.02159">
        <ele>140.2</ele>
        <time>2023-11-22T15:27:35Z</time>
      </trkpt>
      <trkpt lat="49.20488" lon="-0.02158">
        <ele>140.2</ele>
        <time>2023-11-22T15:27:36Z</time>
      </trkpt>
      <trkpt lat="49.20496" lon="-0.02158">
        <ele>140.2</ele>
        <time>2023-11-22T15:27:37Z</time>
      </trkpt>
      <trkpt lat="49.20503" lon="-0.02157">
        <ele>140.2</ele>
        <time>2023-11-22T15:27:38Z</time>
      </trkpt>
      <trkpt lat="49.20511" lon="-0.02156">
        <ele>140.2</ele>
        <time>2023-11-22T15:27:39Z</time>
      </trkpt>
      <trkpt lat="49.20519" lon="-0.02155">
        <ele>140.2</ele>
        <time>2023-11-22T15:27:40Z</time>
      </trkpt>
      <trkpt lat="49.20526" lon="-0.02154">
        <ele>140.3</ele>
        <time>2023-11-22T15:27:41Z</time>
      </trkpt>
      <trkpt lat="49.20534" lon="-0.02153">
        <ele>140.3</ele>
        <time>2023-11-22T15:27:42Z</time>
      </trkpt>
      <trkpt lat="49.20541" lon="-0.02152">
        <ele>140.3</ele>
        <time>2023-11-22T15:27:43Z</time>
      </trkpt>
      <trkpt lat="49.20549" lon="-0.02151">
        <ele>140.4</ele>
        <time>2023-11-22T15:27:44Z</time>
      </trkpt>
      <trkpt lat="49.20557" lon="-0.0215">
        <ele>140.4</ele>
        <time>2023-11-22T15:27:45Z</time>
      </trkpt>
      <trkpt lat="49.20565" lon="-0.02149">
        <ele>140.4</ele>
        <time>2023-11-22T15:27:46Z</time>
      </trkpt>
      <trkpt lat="49.20573" lon="-0.02148">
        <ele>140.4</ele>
        <time>2023-11-22T15:27:47Z</time>
      </trkpt>
      <trkpt lat="49.20581" lon="-0.02147">
        <ele>140.5</ele>
        <time>2023-11-22T15:27:48Z</time>
      </trkpt>
      <trkpt lat="49.20589" lon="-0.02147">
        <ele>140.5</ele>
        <time>2023-11-22T15:27:49Z</time>
      </trkpt>
      <trkpt lat="49.20597" lon="-0.02146">
        <ele>140.6</ele>
        <time>2023-11-22T15:27:50Z</time>
      </trkpt>
      <trkpt lat="49.20605" lon="-0.02146">
        <ele>140.6</ele>
        <time>2023-11-22T15:27:51Z</time>
      </trkpt>
      <trkpt lat="49.20613" lon="-0.02145">
        <ele>140.6</ele>
        <time>2023-11-22T15:27:52Z</time>
      </trkpt>
      <trkpt lat="49.20622" lon="-0.02144">
        <ele>140.6</ele>
        <time>2023-11-22T15:27:53Z</time>
      </trkpt>
      <trkpt lat="49.2063" lon="-0.02143">
        <ele>140.6</ele>
        <time>2023-11-22T15:27:54Z</time>
      </trkpt>
      <trkpt lat="49.20638" lon="-0.02143">
        <ele>140.6</ele>
        <time>2023-11-22T15:27:55Z</time>
      </trkpt>
      <trkpt lat="49.20647" lon="-0.02142">
        <ele>140.5</ele>
        <time>2023-11-22T15:27:56Z</time>
      </trkpt>
      <trkpt lat="49.20656" lon="-0.02141">
        <ele>140.5</ele>
        <time>2023-11-22T15:27:57Z</time>
      </trkpt>
      <trkpt lat="49.20664" lon="-0.02141">
        <ele>140.4</ele>
        <time>2023-11-22T15:27:58Z</time>
      </trkpt>
      <trkpt lat="49.20672" lon="-0.0214">
        <ele>140.2</ele>
        <time>2023-11-22T15:27:59Z</time>
      </trkpt>
      <trkpt lat="49.20681" lon="-0.0214">
        <ele>140.1</ele>
        <time>2023-11-22T15:28:00Z</time>
      </trkpt>
      <trkpt lat="49.20689" lon="-0.02139">
        <ele>140</ele>
        <time>2023-11-22T15:28:01Z</time>
      </trkpt>
      <trkpt lat="49.20697" lon="-0.02138">
        <ele>139.8</ele>
        <time>2023-11-22T15:28:02Z</time>
      </trkpt>
      <trkpt lat="49.20705" lon="-0.02138">
        <ele>139.7</ele>
        <time>2023-11-22T15:28:03Z</time>
      </trkpt>
      <trkpt lat="49.20714" lon="-0.02138">
        <ele>139.5</ele>
        <time>2023-11-22T15:28:04Z</time>
      </trkpt>
      <trkpt lat="49.20722" lon="-0.02137">
        <ele>139.4</ele>
        <time>2023-11-22T15:28:05Z</time>
      </trkpt>
      <trkpt lat="49.2073" lon="-0.02136">
        <ele>139.2</ele>
        <time>2023-11-22T15:28:06Z</time>
      </trkpt>
      <trkpt lat="49.20738" lon="-0.02135">
        <ele>139.1</ele>
        <time>2023-11-22T15:28:07Z</time>
      </trkpt>
      <trkpt lat="49.20747" lon="-0.02134">
        <ele>139</ele>
        <time>2023-11-22T15:28:08Z</time>
      </trkpt>
      <trkpt lat="49.20755" lon="-0.02133">
        <ele>138.8</ele>
        <time>2023-11-22T15:28:09Z</time>
      </trkpt>
      <trkpt lat="49.20764" lon="-0.02133">
        <ele>138.7</ele>
        <time>2023-11-22T15:28:10Z</time>
      </trkpt>
      <trkpt lat="49.20773" lon="-0.02132">
        <ele>138.5</ele>
        <time>2023-11-22T15:28:11Z</time>
      </trkpt>
      <trkpt lat="49.20781" lon="-0.02132">
        <ele>138.3</ele>
        <time>2023-11-22T15:28:12Z</time>
      </trkpt>
      <trkpt lat="49.2079" lon="-0.02131">
        <ele>138.1</ele>
        <time>2023-11-22T15:28:13Z</time>
      </trkpt>
      <trkpt lat="49.20799" lon="-0.02131">
        <ele>138</ele>
        <time>2023-11-22T15:28:14Z</time>
      </trkpt>
      <trkpt lat="49.20807" lon="-0.0213">
        <ele>137.9</ele>
        <time>2023-11-22T15:28:15Z</time>
      </trkpt>
      <trkpt lat="49.20816" lon="-0.0213">
        <ele>137.8</ele>
        <time>2023-11-22T15:28:16Z</time>
      </trkpt>
      <trkpt lat="49.20825" lon="-0.0213">
        <ele>137.7</ele>
        <time>2023-11-22T15:28:17Z</time>
      </trkpt>
      <trkpt lat="49.20834" lon="-0.0213">
        <ele>137.5</ele>
        <time>2023-11-22T15:28:18Z</time>
      </trkpt>
      <trkpt lat="49.20843" lon="-0.0213">
        <ele>137.4</ele>
        <time>2023-11-22T15:28:19Z</time>
      </trkpt>
      <trkpt lat="49.20852" lon="-0.0213">
        <ele>137.2</ele>
        <time>2023-11-22T15:28:20Z</time>
      </trkpt>
      <trkpt lat="49.20862" lon="-0.0213">
        <ele>137</ele>
        <time>2023-11-22T15:28:21Z</time>
      </trkpt>
      <trkpt lat="49.20871" lon="-0.0213">
        <ele>136.8</ele>
        <time>2023-11-22T15:28:22Z</time>
      </trkpt>
      <trkpt lat="49.20881" lon="-0.02129">
        <ele>136.6</ele>
        <time>2023-11-22T15:28:23Z</time>
      </trkpt>
      <trkpt lat="49.2089" lon="-0.02129">
        <ele>136.3</ele>
        <time>2023-11-22T15:28:24Z</time>
      </trkpt>
      <trkpt lat="49.209" lon="-0.02129">
        <ele>136.1</ele>
        <time>2023-11-22T15:28:25Z</time>
      </trkpt>
      <trkpt lat="49.2091" lon="-0.02129">
        <ele>135.9</ele>
        <time>2023-11-22T15:28:26Z</time>
      </trkpt>
      <trkpt lat="49.2092" lon="-0.02129">
        <ele>135.6</ele>
        <time>2023-11-22T15:28:27Z</time>
      </trkpt>
      <trkpt lat="49.20929" lon="-0.02129">
        <ele>135.3</ele>
        <time>2023-11-22T15:28:28Z</time>
      </trkpt>
      <trkpt lat="49.20939" lon="-0.02129">
        <ele>135</ele>
        <time>2023-11-22T15:28:29Z</time>
      </trkpt>
      <trkpt lat="49.20949" lon="-0.0213">
        <ele>134.7</ele>
        <time>2023-11-22T15:28:30Z</time>
      </trkpt>
      <trkpt lat="49.20959" lon="-0.0213">
        <ele>134.3</ele>
        <time>2023-11-22T15:28:31Z</time>
      </trkpt>
      <trkpt lat="49.20969" lon="-0.02131">
        <ele>134</ele>
        <time>2023-11-22T15:28:32Z</time>
      </trkpt>
      <trkpt lat="49.20979" lon="-0.02133">
        <ele>133.7</ele>
        <time>2023-11-22T15:28:33Z</time>
      </trkpt>
      <trkpt lat="49.2099" lon="-0.02137">
        <ele>133.4</ele>
        <time>2023-11-22T15:28:34Z</time>
      </trkpt>
      <trkpt lat="49.21" lon="-0.02144">
        <ele>133.1</ele>
        <time>2023-11-22T15:28:35Z</time>
      </trkpt>
      <trkpt lat="49.21008" lon="-0.02152">
        <ele>132.8</ele>
        <time>2023-11-22T15:28:36Z</time>
      </trkpt>
      <trkpt lat="49.21016" lon="-0.02163">
        <ele>132.5</ele>
        <time>2023-11-22T15:28:37Z</time>
      </trkpt>
      <trkpt lat="49.21023" lon="-0.02175">
        <ele>132.2</ele>
        <time>2023-11-22T15:28:38Z</time>
      </trkpt>
      <trkpt lat="49.2103" lon="-0.02187">
        <ele>131.8</ele>
        <time>2023-11-22T15:28:39Z</time>
      </trkpt>
      <trkpt lat="49.21035" lon="-0.02201">
        <ele>131.4</ele>
        <time>2023-11-22T15:28:40Z</time>
      </trkpt>
      <trkpt lat="49.21041" lon="-0.02215">
        <ele>130.9</ele>
        <time>2023-11-22T15:28:41Z</time>
      </trkpt>
      <trkpt lat="49.21047" lon="-0.02228">
        <ele>130.5</ele>
        <time>2023-11-22T15:28:42Z</time>
      </trkpt>
      <trkpt lat="49.21053" lon="-0.02242">
        <ele>130.1</ele>
        <time>2023-11-22T15:28:43Z</time>
      </trkpt>
      <trkpt lat="49.21059" lon="-0.02255">
        <ele>129.7</ele>
        <time>2023-11-22T15:28:44Z</time>
      </trkpt>
      <trkpt lat="49.21065" lon="-0.02268">
        <ele>129.3</ele>
        <time>2023-11-22T15:28:45Z</time>
      </trkpt>
      <trkpt lat="49.21072" lon="-0.0228">
        <ele>128.8</ele>
        <time>2023-11-22T15:28:46Z</time>
      </trkpt>
      <trkpt lat="49.2108" lon="-0.02292">
        <ele>128.3</ele>
        <time>2023-11-22T15:28:47Z</time>
      </trkpt>
      <trkpt lat="49.21087" lon="-0.02304">
        <ele>127.8</ele>
        <time>2023-11-22T15:28:48Z</time>
      </trkpt>
      <trkpt lat="49.21094" lon="-0.02316">
        <ele>127.4</ele>
        <time>2023-11-22T15:28:49Z</time>
      </trkpt>
      <trkpt lat="49.21101" lon="-0.02329">
        <ele>127</ele>
        <time>2023-11-22T15:28:50Z</time>
      </trkpt>
      <trkpt lat="49.21108" lon="-0.02342">
        <ele>126.6</ele>
        <time>2023-11-22T15:28:51Z</time>
      </trkpt>
      <trkpt lat="49.21115" lon="-0.02355">
        <ele>126.1</ele>
        <time>2023-11-22T15:28:52Z</time>
      </trkpt>
      <trkpt lat="49.21121" lon="-0.02369">
        <ele>125.8</ele>
        <time>2023-11-22T15:28:53Z</time>
      </trkpt>
      <trkpt lat="49.21126" lon="-0.02384">
        <ele>125.5</ele>
        <time>2023-11-22T15:28:54Z</time>
      </trkpt>
      <trkpt lat="49.21132" lon="-0.02399">
        <ele>125.3</ele>
        <time>2023-11-22T15:28:55Z</time>
      </trkpt>
      <trkpt lat="49.21139" lon="-0.02413">
        <ele>125.2</ele>
        <time>2023-11-22T15:28:56Z</time>
      </trkpt>
      <trkpt lat="49.21146" lon="-0.02427">
        <ele>125.3</ele>
        <time>2023-11-22T15:28:57Z</time>
      </trkpt>
      <trkpt lat="49.21153" lon="-0.02439">
        <ele>125.4</ele>
        <time>2023-11-22T15:28:58Z</time>
      </trkpt>
      <trkpt lat="49.21161" lon="-0.02451">
        <ele>125.6</ele>
        <time>2023-11-22T15:28:59Z</time>
      </trkpt>
      <trkpt lat="49.21168" lon="-0.02461">
        <ele>125.8</ele>
        <time>2023-11-22T15:29:00Z</time>
      </trkpt>
      <trkpt lat="49.21175" lon="-0.0247">
        <ele>126</ele>
        <time>2023-11-22T15:29:01Z</time>
      </trkpt>
      <trkpt lat="49.21183" lon="-0.02479">
        <ele>126.3</ele>
        <time>2023-11-22T15:29:02Z</time>
      </trkpt>
      <trkpt lat="49.21191" lon="-0.02487">
        <ele>126.4</ele>
        <time>2023-11-22T15:29:03Z</time>
      </trkpt>
      <trkpt lat="49.21198" lon="-0.02495">
        <ele>126.6</ele>
        <time>2023-11-22T15:29:04Z</time>
      </trkpt>
      <trkpt lat="49.21206" lon="-0.02502">
        <ele>126.6</ele>
        <time>2023-11-22T15:29:05Z</time>
      </trkpt>
      <trkpt lat="49.21213" lon="-0.02508">
        <ele>126.7</ele>
        <time>2023-11-22T15:29:06Z</time>
      </trkpt>
      <trkpt lat="49.21221" lon="-0.02514">
        <ele>126.8</ele>
        <time>2023-11-22T15:29:07Z</time>
      </trkpt>
      <trkpt lat="49.21229" lon="-0.0252">
        <ele>126.8</ele>
        <time>2023-11-22T15:29:08Z</time>
      </trkpt>
      <trkpt lat="49.21238" lon="-0.02525">
        <ele>126.8</ele>
        <time>2023-11-22T15:29:09Z</time>
      </trkpt>
      <trkpt lat="49.21246" lon="-0.0253">
        <ele>126.7</ele>
        <time>2023-11-22T15:29:10Z</time>
      </trkpt>
      <trkpt lat="49.21254" lon="-0.02535">
        <ele>126.7</ele>
        <time>2023-11-22T15:29:11Z</time>
      </trkpt>
      <trkpt lat="49.21263" lon="-0.0254">
        <ele>126.6</ele>
        <time>2023-11-22T15:29:12Z</time>
      </trkpt>
      <trkpt lat="49.21272" lon="-0.02544">
        <ele>126.6</ele>
        <time>2023-11-22T15:29:13Z</time>
      </trkpt>
      <trkpt lat="49.21281" lon="-0.02549">
        <ele>126.5</ele>
        <time>2023-11-22T15:29:14Z</time>
      </trkpt>
      <trkpt lat="49.21291" lon="-0.02553">
        <ele>126.4</ele>
        <time>2023-11-22T15:29:15Z</time>
      </trkpt>
      <trkpt lat="49.213" lon="-0.02557">
        <ele>126.3</ele>
        <time>2023-11-22T15:29:16Z</time>
      </trkpt>
      <trkpt lat="49.21309" lon="-0.02561">
        <ele>126.3</ele>
        <time>2023-11-22T15:29:17Z</time>
      </trkpt>
      <trkpt lat="49.21318" lon="-0.02565">
        <ele>126.2</ele>
        <time>2023-11-22T15:29:18Z</time>
      </trkpt>
      <trkpt lat="49.21327" lon="-0.0257">
        <ele>126.2</ele>
        <time>2023-11-22T15:29:19Z</time>
      </trkpt>
      <trkpt lat="49.21337" lon="-0.02574">
        <ele>126.1</ele>
        <time>2023-11-22T15:29:20Z</time>
      </trkpt>
      <trkpt lat="49.21346" lon="-0.02579">
        <ele>126</ele>
        <time>2023-11-22T15:29:21Z</time>
      </trkpt>
      <trkpt lat="49.21354" lon="-0.02584">
        <ele>126</ele>
        <time>2023-11-22T15:29:22Z</time>
      </trkpt>
      <trkpt lat="49.21364" lon="-0.02589">
        <ele>125.9</ele>
        <time>2023-11-22T15:29:23Z</time>
      </trkpt>
      <trkpt lat="49.21372" lon="-0.02595">
        <ele>125.7</ele>
        <time>2023-11-22T15:29:24Z</time>
      </trkpt>
      <trkpt lat="49.21381" lon="-0.02601">
        <ele>125.6</ele>
        <time>2023-11-22T15:29:25Z</time>
      </trkpt>
      <trkpt lat="49.2139" lon="-0.02607">
        <ele>125.5</ele>
        <time>2023-11-22T15:29:26Z</time>
      </trkpt>
      <trkpt lat="49.21399" lon="-0.02614">
        <ele>125.4</ele>
        <time>2023-11-22T15:29:27Z</time>
      </trkpt>
      <trkpt lat="49.21407" lon="-0.02621">
        <ele>125.2</ele>
        <time>2023-11-22T15:29:28Z</time>
      </trkpt>
      <trkpt lat="49.21416" lon="-0.02629">
        <ele>125</ele>
        <time>2023-11-22T15:29:29Z</time>
      </trkpt>
      <trkpt lat="49.21425" lon="-0.02636">
        <ele>124.8</ele>
        <time>2023-11-22T15:29:30Z</time>
      </trkpt>
      <trkpt lat="49.21434" lon="-0.02643">
        <ele>124.6</ele>
        <time>2023-11-22T15:29:31Z</time>
      </trkpt>
      <trkpt lat="49.21443" lon="-0.0265">
        <ele>124.4</ele>
        <time>2023-11-22T15:29:32Z</time>
      </trkpt>
      <trkpt lat="49.21452" lon="-0.02658">
        <ele>124.1</ele>
        <time>2023-11-22T15:29:33Z</time>
      </trkpt>
      <trkpt lat="49.21462" lon="-0.02665">
        <ele>123.9</ele>
        <time>2023-11-22T15:29:34Z</time>
      </trkpt>
      <trkpt lat="49.21471" lon="-0.02672">
        <ele>123.7</ele>
        <time>2023-11-22T15:29:35Z</time>
      </trkpt>
      <trkpt lat="49.2148" lon="-0.0268">
        <ele>123.7</ele>
        <time>2023-11-22T15:29:36Z</time>
      </trkpt>
      <trkpt lat="49.21489" lon="-0.02687">
        <ele>123.4</ele>
        <time>2023-11-22T15:29:37Z</time>
      </trkpt>
      <trkpt lat="49.21498" lon="-0.02694">
        <ele>123.1</ele>
        <time>2023-11-22T15:29:38Z</time>
      </trkpt>
      <trkpt lat="49.21508" lon="-0.02702">
        <ele>122.7</ele>
        <time>2023-11-22T15:29:39Z</time>
      </trkpt>
      <trkpt lat="49.21517" lon="-0.02709">
        <ele>122.3</ele>
        <time>2023-11-22T15:29:40Z</time>
      </trkpt>
      <trkpt lat="49.21526" lon="-0.02717">
        <ele>121.9</ele>
        <time>2023-11-22T15:29:41Z</time>
      </trkpt>
      <trkpt lat="49.21535" lon="-0.02724">
        <ele>121.4</ele>
        <time>2023-11-22T15:29:42Z</time>
      </trkpt>
      <trkpt lat="49.21544" lon="-0.02731">
        <ele>120.9</ele>
        <time>2023-11-22T15:29:43Z</time>
      </trkpt>
      <trkpt lat="49.21553" lon="-0.02738">
        <ele>120.2</ele>
        <time>2023-11-22T15:29:44Z</time>
      </trkpt>
      <trkpt lat="49.21563" lon="-0.02746">
        <ele>119.5</ele>
        <time>2023-11-22T15:29:45Z</time>
      </trkpt>
      <trkpt lat="49.21573" lon="-0.02753">
        <ele>118.6</ele>
        <time>2023-11-22T15:29:46Z</time>
      </trkpt>
      <trkpt lat="49.21583" lon="-0.0276">
        <ele>117.5</ele>
        <time>2023-11-22T15:29:47Z</time>
      </trkpt>
      <trkpt lat="49.21594" lon="-0.02767">
        <ele>116.3</ele>
        <time>2023-11-22T15:29:48Z</time>
      </trkpt>
      <trkpt lat="49.21604" lon="-0.02772">
        <ele>115.1</ele>
        <time>2023-11-22T15:29:49Z</time>
      </trkpt>
      <trkpt lat="49.21616" lon="-0.02776">
        <ele>113.9</ele>
        <time>2023-11-22T15:29:50Z</time>
      </trkpt>
      <trkpt lat="49.21628" lon="-0.0278">
        <ele>112.7</ele>
        <time>2023-11-22T15:29:51Z</time>
      </trkpt>
      <trkpt lat="49.21641" lon="-0.02782">
        <ele>111.3</ele>
        <time>2023-11-22T15:29:52Z</time>
      </trkpt>
      <trkpt lat="49.21654" lon="-0.02785">
        <ele>109.8</ele>
        <time>2023-11-22T15:29:53Z</time>
      </trkpt>
      <trkpt lat="49.21668" lon="-0.02785">
        <ele>108.3</ele>
        <time>2023-11-22T15:29:54Z</time>
      </trkpt>
      <trkpt lat="49.21682" lon="-0.02783">
        <ele>106.7</ele>
        <time>2023-11-22T15:29:55Z</time>
      </trkpt>
      <trkpt lat="49.21696" lon="-0.02779">
        <ele>105.2</ele>
        <time>2023-11-22T15:29:56Z</time>
      </trkpt>
      <trkpt lat="49.2171" lon="-0.02774">
        <ele>103.6</ele>
        <time>2023-11-22T15:29:57Z</time>
      </trkpt>
      <trkpt lat="49.21724" lon="-0.02768">
        <ele>102</ele>
        <time>2023-11-22T15:29:58Z</time>
      </trkpt>
      <trkpt lat="49.21738" lon="-0.02761">
        <ele>100.4</ele>
        <time>2023-11-22T15:29:59Z</time>
      </trkpt>
      <trkpt lat="49.21753" lon="-0.02754">
        <ele>98.8</ele>
        <time>2023-11-22T15:30:00Z</time>
      </trkpt>
      <trkpt lat="49.21767" lon="-0.02748">
        <ele>97.1</ele>
        <time>2023-11-22T15:30:01Z</time>
      </trkpt>
      <trkpt lat="49.21782" lon="-0.02743">
        <ele>95.4</ele>
        <time>2023-11-22T15:30:02Z</time>
      </trkpt>
      <trkpt lat="49.21796" lon="-0.02739">
        <ele>93.8</ele>
        <time>2023-11-22T15:30:03Z</time>
      </trkpt>
      <trkpt lat="49.21811" lon="-0.02735">
        <ele>92.2</ele>
        <time>2023-11-22T15:30:04Z</time>
      </trkpt>
      <trkpt lat="49.21826" lon="-0.02731">
        <ele>90.5</ele>
        <time>2023-11-22T15:30:05Z</time>
      </trkpt>
      <trkpt lat="49.2184" lon="-0.02727">
        <ele>88.7</ele>
        <time>2023-11-22T15:30:06Z</time>
      </trkpt>
      <trkpt lat="49.21855" lon="-0.02723">
        <ele>86.9</ele>
        <time>2023-11-22T15:30:07Z</time>
      </trkpt>
      <trkpt lat="49.21869" lon="-0.02719">
        <ele>85.1</ele>
        <time>2023-11-22T15:30:08Z</time>
      </trkpt>
      <trkpt lat="49.21884" lon="-0.02715">
        <ele>83.3</ele>
        <time>2023-11-22T15:30:09Z</time>
      </trkpt>
      <trkpt lat="49.21899" lon="-0.02711">
        <ele>81.6</ele>
        <time>2023-11-22T15:30:10Z</time>
      </trkpt>
      <trkpt lat="49.21914" lon="-0.02706">
        <ele>79.9</ele>
        <time>2023-11-22T15:30:11Z</time>
      </trkpt>
      <trkpt lat="49.21929" lon="-0.02703">
        <ele>78.3</ele>
        <time>2023-11-22T15:30:12Z</time>
      </trkpt>
      <trkpt lat="49.21945" lon="-0.02698">
        <ele>76.7</ele>
        <time>2023-11-22T15:30:13Z</time>
      </trkpt>
      <trkpt lat="49.2196" lon="-0.02693">
        <ele>75.1</ele>
        <time>2023-11-22T15:30:14Z</time>
      </trkpt>
      <trkpt lat="49.21975" lon="-0.02688">
        <ele>73.7</ele>
        <time>2023-11-22T15:30:15Z</time>
      </trkpt>
      <trkpt lat="49.2199" lon="-0.02686">
        <ele>72.3</ele>
        <time>2023-11-22T15:30:16Z</time>
      </trkpt>
      <trkpt lat="49.22004" lon="-0.02683">
        <ele>70.9</ele>
        <time>2023-11-22T15:30:17Z</time>
      </trkpt>
      <trkpt lat="49.22018" lon="-0.02681">
        <ele>69.4</ele>
        <time>2023-11-22T15:30:18Z</time>
      </trkpt>
      <trkpt lat="49.22033" lon="-0.02679">
        <ele>68.1</ele>
        <time>2023-11-22T15:30:19Z</time>
      </trkpt>
      <trkpt lat="49.22046" lon="-0.0268">
        <ele>66.9</ele>
        <time>2023-11-22T15:30:20Z</time>
      </trkpt>
      <trkpt lat="49.2206" lon="-0.02682">
        <ele>65.8</ele>
        <time>2023-11-22T15:30:21Z</time>
      </trkpt>
      <trkpt lat="49.22074" lon="-0.02686">
        <ele>64.9</ele>
        <time>2023-11-22T15:30:22Z</time>
      </trkpt>
      <trkpt lat="49.22087" lon="-0.02691">
        <ele>64.1</ele>
        <time>2023-11-22T15:30:23Z</time>
      </trkpt>
      <trkpt lat="49.22098" lon="-0.02699">
        <ele>63.3</ele>
        <time>2023-11-22T15:30:24Z</time>
      </trkpt>
      <trkpt lat="49.22109" lon="-0.02711">
        <ele>62.5</ele>
        <time>2023-11-22T15:30:25Z</time>
      </trkpt>
      <trkpt lat="49.22119" lon="-0.02722">
        <ele>61.7</ele>
        <time>2023-11-22T15:30:26Z</time>
      </trkpt>
      <trkpt lat="49.22129" lon="-0.02733">
        <ele>60.9</ele>
        <time>2023-11-22T15:30:27Z</time>
      </trkpt>
      <trkpt lat="49.2214" lon="-0.02742">
        <ele>60</ele>
        <time>2023-11-22T15:30:28Z</time>
      </trkpt>
      <trkpt lat="49.22151" lon="-0.0275">
        <ele>59</ele>
        <time>2023-11-22T15:30:29Z</time>
      </trkpt>
      <trkpt lat="49.22163" lon="-0.02757">
        <ele>57.9</ele>
        <time>2023-11-22T15:30:30Z</time>
      </trkpt>
      <trkpt lat="49.22174" lon="-0.02765">
        <ele>56.9</ele>
        <time>2023-11-22T15:30:31Z</time>
      </trkpt>
      <trkpt lat="49.22187" lon="-0.02772">
        <ele>55.8</ele>
        <time>2023-11-22T15:30:32Z</time>
      </trkpt>
      <trkpt lat="49.22199" lon="-0.02778">
        <ele>54.7</ele>
        <time>2023-11-22T15:30:33Z</time>
      </trkpt>
      <trkpt lat="49.22212" lon="-0.02784">
        <ele>53.5</ele>
        <time>2023-11-22T15:30:34Z</time>
      </trkpt>
      <trkpt lat="49.22225" lon="-0.02791">
        <ele>52.3</ele>
        <time>2023-11-22T15:30:35Z</time>
      </trkpt>
      <trkpt lat="49.22238" lon="-0.02797">
        <ele>51.1</ele>
        <time>2023-11-22T15:30:36Z</time>
      </trkpt>
      <trkpt lat="49.22252" lon="-0.02802">
        <ele>50</ele>
        <time>2023-11-22T15:30:37Z</time>
      </trkpt>
      <trkpt lat="49.22266" lon="-0.02808">
        <ele>49</ele>
        <time>2023-11-22T15:30:38Z</time>
      </trkpt>
      <trkpt lat="49.2228" lon="-0.02813">
        <ele>48</ele>
        <time>2023-11-22T15:30:39Z</time>
      </trkpt>
      <trkpt lat="49.22294" lon="-0.02818">
        <ele>47.1</ele>
        <time>2023-11-22T15:30:40Z</time>
      </trkpt>
      <trkpt lat="49.22308" lon="-0.02823">
        <ele>46.3</ele>
        <time>2023-11-22T15:30:41Z</time>
      </trkpt>
      <trkpt lat="49.22321" lon="-0.02829">
        <ele>45.5</ele>
        <time>2023-11-22T15:30:42Z</time>
      </trkpt>
      <trkpt lat="49.22335" lon="-0.02833">
        <ele>44.9</ele>
        <time>2023-11-22T15:30:43Z</time>
      </trkpt>
      <trkpt lat="49.22349" lon="-0.02838">
        <ele>44.3</ele>
        <time>2023-11-22T15:30:44Z</time>
      </trkpt>
      <trkpt lat="49.22362" lon="-0.02843">
        <ele>43.7</ele>
        <time>2023-11-22T15:30:45Z</time>
      </trkpt>
      <trkpt lat="49.22375" lon="-0.02848">
        <ele>43.1</ele>
        <time>2023-11-22T15:30:46Z</time>
      </trkpt>
      <trkpt lat="49.22387" lon="-0.02854">
        <ele>42.4</ele>
        <time>2023-11-22T15:30:47Z</time>
      </trkpt>
      <trkpt lat="49.22399" lon="-0.02862">
        <ele>41.7</ele>
        <time>2023-11-22T15:30:48Z</time>
      </trkpt>
      <trkpt lat="49.2241" lon="-0.02871">
        <ele>40.9</ele>
        <time>2023-11-22T15:30:49Z</time>
      </trkpt>
      <trkpt lat="49.22422" lon="-0.0288">
        <ele>40.1</ele>
        <time>2023-11-22T15:30:50Z</time>
      </trkpt>
      <trkpt lat="49.22433" lon="-0.02889">
        <ele>39.3</ele>
        <time>2023-11-22T15:30:51Z</time>
      </trkpt>
      <trkpt lat="49.22445" lon="-0.02899">
        <ele>38.5</ele>
        <time>2023-11-22T15:30:52Z</time>
      </trkpt>
      <trkpt lat="49.22456" lon="-0.02909">
        <ele>37.7</ele>
        <time>2023-11-22T15:30:53Z</time>
      </trkpt>
      <trkpt lat="49.22467" lon="-0.02919">
        <ele>37</ele>
        <time>2023-11-22T15:30:54Z</time>
      </trkpt>
      <trkpt lat="49.22478" lon="-0.02931">
        <ele>36.4</ele>
        <time>2023-11-22T15:30:55Z</time>
      </trkpt>
      <trkpt lat="49.22489" lon="-0.02943">
        <ele>35.8</ele>
        <time>2023-11-22T15:30:56Z</time>
      </trkpt>
      <trkpt lat="49.22499" lon="-0.02955">
        <ele>35.2</ele>
        <time>2023-11-22T15:30:57Z</time>
      </trkpt>
      <trkpt lat="49.22509" lon="-0.02967">
        <ele>34.7</ele>
        <time>2023-11-22T15:30:58Z</time>
      </trkpt>
      <trkpt lat="49.22519" lon="-0.0298">
        <ele>34.2</ele>
        <time>2023-11-22T15:30:59Z</time>
      </trkpt>
      <trkpt lat="49.22529" lon="-0.02992">
        <ele>33.8</ele>
        <time>2023-11-22T15:31:00Z</time>
      </trkpt>
      <trkpt lat="49.22539" lon="-0.03004">
        <ele>33.4</ele>
        <time>2023-11-22T15:31:01Z</time>
      </trkpt>
      <trkpt lat="49.22549" lon="-0.03017">
        <ele>33.1</ele>
        <time>2023-11-22T15:31:02Z</time>
      </trkpt>
      <trkpt lat="49.22558" lon="-0.0303">
        <ele>32.9</ele>
        <time>2023-11-22T15:31:03Z</time>
      </trkpt>
      <trkpt lat="49.22567" lon="-0.03044">
        <ele>32.6</ele>
        <time>2023-11-22T15:31:04Z</time>
      </trkpt>
      <trkpt lat="49.22575" lon="-0.03059">
        <ele>32.4</ele>
        <time>2023-11-22T15:31:05Z</time>
      </trkpt>
      <trkpt lat="49.22582" lon="-0.03075">
        <ele>32.2</ele>
        <time>2023-11-22T15:31:06Z</time>
      </trkpt>
      <trkpt lat="49.22586" lon="-0.03093">
        <ele>32.1</ele>
        <time>2023-11-22T15:31:07Z</time>
      </trkpt>
      <trkpt lat="49.22589" lon="-0.03111">
        <ele>32</ele>
        <time>2023-11-22T15:31:08Z</time>
      </trkpt>
      <trkpt lat="49.22592" lon="-0.03128">
        <ele>32</ele>
        <time>2023-11-22T15:31:09Z</time>
      </trkpt>
      <trkpt lat="49.22595" lon="-0.03144">
        <ele>32</ele>
        <time>2023-11-22T15:31:10Z</time>
      </trkpt>
      <trkpt lat="49.22599" lon="-0.03161">
        <ele>31.8</ele>
        <time>2023-11-22T15:31:11Z</time>
      </trkpt>
      <trkpt lat="49.22604" lon="-0.03177">
        <ele>31.6</ele>
        <time>2023-11-22T15:31:12Z</time>
      </trkpt>
      <trkpt lat="49.2261" lon="-0.03192">
        <ele>31.4</ele>
        <time>2023-11-22T15:31:13Z</time>
      </trkpt>
      <trkpt lat="49.22616" lon="-0.03206">
        <ele>31.3</ele>
        <time>2023-11-22T15:31:14Z</time>
      </trkpt>
      <trkpt lat="49.22623" lon="-0.0322">
        <ele>31.3</ele>
        <time>2023-11-22T15:31:15Z</time>
      </trkpt>
      <trkpt lat="49.2263" lon="-0.03234">
        <ele>31.2</ele>
        <time>2023-11-22T15:31:16Z</time>
      </trkpt>
      <trkpt lat="49.22636" lon="-0.03248">
        <ele>31.3</ele>
        <time>2023-11-22T15:31:17Z</time>
      </trkpt>
      <trkpt lat="49.22643" lon="-0.03261">
        <ele>31.4</ele>
        <time>2023-11-22T15:31:18Z</time>
      </trkpt>
      <trkpt lat="49.22649" lon="-0.03274">
        <ele>31.7</ele>
        <time>2023-11-22T15:31:19Z</time>
      </trkpt>
      <trkpt lat="49.22655" lon="-0.03287">
        <ele>31.9</ele>
        <time>2023-11-22T15:31:20Z</time>
      </trkpt>
      <trkpt lat="49.22661" lon="-0.033">
        <ele>32.2</ele>
        <time>2023-11-22T15:31:21Z</time>
      </trkpt>
      <trkpt lat="49.22668" lon="-0.03313">
        <ele>32.4</ele>
        <time>2023-11-22T15:31:22Z</time>
      </trkpt>
      <trkpt lat="49.22673" lon="-0.03325">
        <ele>32.7</ele>
        <time>2023-11-22T15:31:23Z</time>
      </trkpt>
      <trkpt lat="49.22678" lon="-0.03337">
        <ele>32.9</ele>
        <time>2023-11-22T15:31:24Z</time>
      </trkpt>
      <trkpt lat="49.22684" lon="-0.03349">
        <ele>33.1</ele>
        <time>2023-11-22T15:31:25Z</time>
      </trkpt>
      <trkpt lat="49.22689" lon="-0.03361">
        <ele>33.3</ele>
        <time>2023-11-22T15:31:26Z</time>
      </trkpt>
      <trkpt lat="49.22694" lon="-0.03373">
        <ele>33.5</ele>
        <time>2023-11-22T15:31:27Z</time>
      </trkpt>
      <trkpt lat="49.227" lon="-0.03384">
        <ele>33.7</ele>
        <time>2023-11-22T15:31:28Z</time>
      </trkpt>
      <trkpt lat="49.22705" lon="-0.03395">
        <ele>33.9</ele>
        <time>2023-11-22T15:31:29Z</time>
      </trkpt>
      <trkpt lat="49.2271" lon="-0.03406">
        <ele>34.1</ele>
        <time>2023-11-22T15:31:30Z</time>
      </trkpt>
      <trkpt lat="49.22715" lon="-0.03418">
        <ele>34.2</ele>
        <time>2023-11-22T15:31:31Z</time>
      </trkpt>
      <trkpt lat="49.22721" lon="-0.03428">
        <ele>34.4</ele>
        <time>2023-11-22T15:31:32Z</time>
      </trkpt>
      <trkpt lat="49.22726" lon="-0.03439">
        <ele>34.5</ele>
        <time>2023-11-22T15:31:33Z</time>
      </trkpt>
      <trkpt lat="49.22732" lon="-0.0345">
        <ele>34.6</ele>
        <time>2023-11-22T15:31:34Z</time>
      </trkpt>
      <trkpt lat="49.22737" lon="-0.03461">
        <ele>34.8</ele>
        <time>2023-11-22T15:31:35Z</time>
      </trkpt>
      <trkpt lat="49.22742" lon="-0.03473">
        <ele>34.9</ele>
        <time>2023-11-22T15:31:36Z</time>
      </trkpt>
      <trkpt lat="49.22747" lon="-0.03484">
        <ele>35</ele>
        <time>2023-11-22T15:31:37Z</time>
      </trkpt>
      <trkpt lat="49.22752" lon="-0.03494">
        <ele>35</ele>
        <time>2023-11-22T15:31:38Z</time>
      </trkpt>
      <trkpt lat="49.22757" lon="-0.03505">
        <ele>35.1</ele>
        <time>2023-11-22T15:31:39Z</time>
      </trkpt>
      <trkpt lat="49.22762" lon="-0.03516">
        <ele>35.2</ele>
        <time>2023-11-22T15:31:40Z</time>
      </trkpt>
      <trkpt lat="49.22768" lon="-0.03527">
        <ele>35.2</ele>
        <time>2023-11-22T15:31:41Z</time>
      </trkpt>
      <trkpt lat="49.22773" lon="-0.03539">
        <ele>35.3</ele>
        <time>2023-11-22T15:31:42Z</time>
      </trkpt>
      <trkpt lat="49.22778" lon="-0.0355">
        <ele>35.4</ele>
        <time>2023-11-22T15:31:43Z</time>
      </trkpt>
      <trkpt lat="49.22783" lon="-0.03561">
        <ele>35.4</ele>
        <time>2023-11-22T15:31:44Z</time>
      </trkpt>
      <trkpt lat="49.22788" lon="-0.03572">
        <ele>35.4</ele>
        <time>2023-11-22T15:31:45Z</time>
      </trkpt>
      <trkpt lat="49.22793" lon="-0.03583">
        <ele>35.4</ele>
        <time>2023-11-22T15:31:46Z</time>
      </trkpt>
      <trkpt lat="49.22798" lon="-0.03594">
        <ele>35.4</ele>
        <time>2023-11-22T15:31:47Z</time>
      </trkpt>
      <trkpt lat="49.22802" lon="-0.03604">
        <ele>35.4</ele>
        <time>2023-11-22T15:31:48Z</time>
      </trkpt>
      <trkpt lat="49.22807" lon="-0.03614">
        <ele>35.4</ele>
        <time>2023-11-22T15:31:49Z</time>
      </trkpt>
      <trkpt lat="49.22811" lon="-0.03624">
        <ele>35.4</ele>
        <time>2023-11-22T15:31:50Z</time>
      </trkpt>
      <trkpt lat="49.22815" lon="-0.03635">
        <ele>35.5</ele>
        <time>2023-11-22T15:31:51Z</time>
      </trkpt>
      <trkpt lat="49.2282" lon="-0.03644">
        <ele>35.5</ele>
        <time>2023-11-22T15:31:52Z</time>
      </trkpt>
      <trkpt lat="49.22825" lon="-0.03654">
        <ele>35.5</ele>
        <time>2023-11-22T15:31:53Z</time>
      </trkpt>
      <trkpt lat="49.22829" lon="-0.03663">
        <ele>35.4</ele>
        <time>2023-11-22T15:31:54Z</time>
      </trkpt>
      <trkpt lat="49.22834" lon="-0.03672">
        <ele>35.4</ele>
        <time>2023-11-22T15:31:55Z</time>
      </trkpt>
      <trkpt lat="49.22839" lon="-0.03682">
        <ele>35.3</ele>
        <time>2023-11-22T15:31:56Z</time>
      </trkpt>
      <trkpt lat="49.22844" lon="-0.03692">
        <ele>35.2</ele>
        <time>2023-11-22T15:31:57Z</time>
      </trkpt>
      <trkpt lat="49.22849" lon="-0.03703">
        <ele>35</ele>
        <time>2023-11-22T15:31:58Z</time>
      </trkpt>
      <trkpt lat="49.22854" lon="-0.03713">
        <ele>34.9</ele>
        <time>2023-11-22T15:31:59Z</time>
      </trkpt>
      <trkpt lat="49.22858" lon="-0.03724">
        <ele>34.7</ele>
        <time>2023-11-22T15:32:00Z</time>
      </trkpt>
      <trkpt lat="49.22863" lon="-0.03734">
        <ele>34.6</ele>
        <time>2023-11-22T15:32:01Z</time>
      </trkpt>
      <trkpt lat="49.22867" lon="-0.03743">
        <ele>34.4</ele>
        <time>2023-11-22T15:32:02Z</time>
      </trkpt>
      <trkpt lat="49.22872" lon="-0.03753">
        <ele>34.3</ele>
        <time>2023-11-22T15:32:03Z</time>
      </trkpt>
      <trkpt lat="49.22876" lon="-0.03763">
        <ele>34.1</ele>
        <time>2023-11-22T15:32:04Z</time>
      </trkpt>
      <trkpt lat="49.22881" lon="-0.03772">
        <ele>33.9</ele>
        <time>2023-11-22T15:32:05Z</time>
      </trkpt>
      <trkpt lat="49.22885" lon="-0.03782">
        <ele>33.8</ele>
        <time>2023-11-22T15:32:06Z</time>
      </trkpt>
      <trkpt lat="49.2289" lon="-0.03793">
        <ele>33.6</ele>
        <time>2023-11-22T15:32:07Z</time>
      </trkpt>
      <trkpt lat="49.22895" lon="-0.03803">
        <ele>33.5</ele>
        <time>2023-11-22T15:32:08Z</time>
      </trkpt>
      <trkpt lat="49.229" lon="-0.03813">
        <ele>33.3</ele>
        <time>2023-11-22T15:32:09Z</time>
      </trkpt>
      <trkpt lat="49.22905" lon="-0.03823">
        <ele>33.2</ele>
        <time>2023-11-22T15:32:10Z</time>
      </trkpt>
      <trkpt lat="49.2291" lon="-0.03833">
        <ele>33</ele>
        <time>2023-11-22T15:32:11Z</time>
      </trkpt>
      <trkpt lat="49.22914" lon="-0.03844">
        <ele>32.9</ele>
        <time>2023-11-22T15:32:12Z</time>
      </trkpt>
      <trkpt lat="49.22919" lon="-0.03854">
        <ele>32.8</ele>
        <time>2023-11-22T15:32:13Z</time>
      </trkpt>
      <trkpt lat="49.22923" lon="-0.03863">
        <ele>32.8</ele>
        <time>2023-11-22T15:32:14Z</time>
      </trkpt>
      <trkpt lat="49.22928" lon="-0.03873">
        <ele>32.7</ele>
        <time>2023-11-22T15:32:15Z</time>
      </trkpt>
      <trkpt lat="49.22933" lon="-0.03884">
        <ele>32.6</ele>
        <time>2023-11-22T15:32:16Z</time>
      </trkpt>
      <trkpt lat="49.22937" lon="-0.03894">
        <ele>32.4</ele>
        <time>2023-11-22T15:32:17Z</time>
      </trkpt>
      <trkpt lat="49.22942" lon="-0.03903">
        <ele>32.3</ele>
        <time>2023-11-22T15:32:18Z</time>
      </trkpt>
      <trkpt lat="49.22946" lon="-0.03913">
        <ele>32.2</ele>
        <time>2023-11-22T15:32:19Z</time>
      </trkpt>
      <trkpt lat="49.2295" lon="-0.03923">
        <ele>32.1</ele>
        <time>2023-11-22T15:32:20Z</time>
      </trkpt>
      <trkpt lat="49.22954" lon="-0.03932">
        <ele>32</ele>
        <time>2023-11-22T15:32:21Z</time>
      </trkpt>
      <trkpt lat="49.22958" lon="-0.03941">
        <ele>31.9</ele>
        <time>2023-11-22T15:32:22Z</time>
      </trkpt>
      <trkpt lat="49.22962" lon="-0.0395">
        <ele>31.9</ele>
        <time>2023-11-22T15:32:23Z</time>
      </trkpt>
      <trkpt lat="49.22964" lon="-0.03958">
        <ele>31.8</ele>
        <time>2023-11-22T15:32:24Z</time>
      </trkpt>
      <trkpt lat="49.22965" lon="-0.03966">
        <ele>31.7</ele>
        <time>2023-11-22T15:32:25Z</time>
      </trkpt>
      <trkpt lat="49.22967" lon="-0.03973">
        <ele>31.7</ele>
        <time>2023-11-22T15:32:26Z</time>
      </trkpt>
      <trkpt lat="49.22969" lon="-0.0398">
        <ele>31.6</ele>
        <time>2023-11-22T15:32:27Z</time>
      </trkpt>
      <trkpt lat="49.22972" lon="-0.03988">
        <ele>31.6</ele>
        <time>2023-11-22T15:32:28Z</time>
      </trkpt>
      <trkpt lat="49.22975" lon="-0.03995">
        <ele>31.5</ele>
        <time>2023-11-22T15:32:29Z</time>
      </trkpt>
      <trkpt lat="49.22979" lon="-0.04003">
        <ele>31.3</ele>
        <time>2023-11-22T15:32:30Z</time>
      </trkpt>
      <trkpt lat="49.22983" lon="-0.0401">
        <ele>31.1</ele>
        <time>2023-11-22T15:32:31Z</time>
      </trkpt>
      <trkpt lat="49.22988" lon="-0.04017">
        <ele>30.9</ele>
        <time>2023-11-22T15:32:32Z</time>
      </trkpt>
      <trkpt lat="49.22993" lon="-0.04023">
        <ele>30.8</ele>
        <time>2023-11-22T15:32:33Z</time>
      </trkpt>
      <trkpt lat="49.22999" lon="-0.04029">
        <ele>30.7</ele>
        <time>2023-11-22T15:32:34Z</time>
      </trkpt>
      <trkpt lat="49.23004" lon="-0.04036">
        <ele>30.6</ele>
        <time>2023-11-22T15:32:35Z</time>
      </trkpt>
      <trkpt lat="49.23008" lon="-0.04045">
        <ele>30.5</ele>
        <time>2023-11-22T15:32:36Z</time>
      </trkpt>
      <trkpt lat="49.23012" lon="-0.04054">
        <ele>30.4</ele>
        <time>2023-11-22T15:32:37Z</time>
      </trkpt>
      <trkpt lat="49.23016" lon="-0.04063">
        <ele>30.3</ele>
        <time>2023-11-22T15:32:38Z</time>
      </trkpt>
      <trkpt lat="49.2302" lon="-0.04072">
        <ele>30.2</ele>
        <time>2023-11-22T15:32:39Z</time>
      </trkpt>
      <trkpt lat="49.23024" lon="-0.04081">
        <ele>30.2</ele>
        <time>2023-11-22T15:32:40Z</time>
      </trkpt>
      <trkpt lat="49.23027" lon="-0.0409">
        <ele>30.1</ele>
        <time>2023-11-22T15:32:41Z</time>
      </trkpt>
      <trkpt lat="49.23031" lon="-0.04099">
        <ele>30.1</ele>
        <time>2023-11-22T15:32:42Z</time>
      </trkpt>
      <trkpt lat="49.23035" lon="-0.04108">
        <ele>30</ele>
        <time>2023-11-22T15:32:43Z</time>
      </trkpt>
      <trkpt lat="49.2304" lon="-0.04117">
        <ele>30</ele>
        <time>2023-11-22T15:32:44Z</time>
      </trkpt>
      <trkpt lat="49.23044" lon="-0.04126">
        <ele>30</ele>
        <time>2023-11-22T15:32:45Z</time>
      </trkpt>
      <trkpt lat="49.23048" lon="-0.04134">
        <ele>30</ele>
        <time>2023-11-22T15:32:46Z</time>
      </trkpt>
      <trkpt lat="49.23052" lon="-0.04142">
        <ele>29.9</ele>
        <time>2023-11-22T15:32:47Z</time>
      </trkpt>
      <trkpt lat="49.23055" lon="-0.04151">
        <ele>29.9</ele>
        <time>2023-11-22T15:32:48Z</time>
      </trkpt>
      <trkpt lat="49.23059" lon="-0.04158">
        <ele>29.9</ele>
        <time>2023-11-22T15:32:49Z</time>
      </trkpt>
      <trkpt lat="49.23061" lon="-0.04166">
        <ele>29.9</ele>
        <time>2023-11-22T15:32:50Z</time>
      </trkpt>
      <trkpt lat="49.23064" lon="-0.04173">
        <ele>29.9</ele>
        <time>2023-11-22T15:32:51Z</time>
      </trkpt>
      <trkpt lat="49.23065" lon="-0.04179">
        <ele>29.9</ele>
        <time>2023-11-22T15:32:52Z</time>
      </trkpt>
      <trkpt lat="49.23066" lon="-0.04186">
        <ele>29.9</ele>
        <time>2023-11-22T15:32:53Z</time>
      </trkpt>
      <trkpt lat="49.23067" lon="-0.04193">
        <ele>29.9</ele>
        <time>2023-11-22T15:32:54Z</time>
      </trkpt>
      <trkpt lat="49.23067" lon="-0.04201">
        <ele>29.9</ele>
        <time>2023-11-22T15:32:55Z</time>
      </trkpt>
      <trkpt lat="49.23069" lon="-0.04208">
        <ele>29.9</ele>
        <time>2023-11-22T15:32:56Z</time>
      </trkpt>
      <trkpt lat="49.23072" lon="-0.04216">
        <ele>29.9</ele>
        <time>2023-11-22T15:32:57Z</time>
      </trkpt>
      <trkpt lat="49.23076" lon="-0.04223">
        <ele>30</ele>
        <time>2023-11-22T15:32:58Z</time>
      </trkpt>
      <trkpt lat="49.2308" lon="-0.04231">
        <ele>30</ele>
        <time>2023-11-22T15:32:59Z</time>
      </trkpt>
      <trkpt lat="49.23083" lon="-0.04239">
        <ele>30</ele>
        <time>2023-11-22T15:33:00Z</time>
      </trkpt>
      <trkpt lat="49.23086" lon="-0.04247">
        <ele>30</ele>
        <time>2023-11-22T15:33:01Z</time>
      </trkpt>
      <trkpt lat="49.23089" lon="-0.04255">
        <ele>30</ele>
        <time>2023-11-22T15:33:02Z</time>
      </trkpt>
      <trkpt lat="49.23092" lon="-0.04262">
        <ele>30.1</ele>
        <time>2023-11-22T15:33:03Z</time>
      </trkpt>
      <trkpt lat="49.23096" lon="-0.04266">
        <ele>30.1</ele>
        <time>2023-11-22T15:33:04Z</time>
      </trkpt>
      <trkpt lat="49.23102" lon="-0.04268">
        <ele>30.1</ele>
        <time>2023-11-22T15:33:05Z</time>
      </trkpt>
      <trkpt lat="49.23107" lon="-0.0427">
        <ele>30.1</ele>
        <time>2023-11-22T15:33:06Z</time>
      </trkpt>
      <trkpt lat="49.23111" lon="-0.04273">
        <ele>30.1</ele>
        <time>2023-11-22T15:33:07Z</time>
      </trkpt>
      <trkpt lat="49.23116" lon="-0.04278">
        <ele>30.2</ele>
        <time>2023-11-22T15:33:08Z</time>
      </trkpt>
      <trkpt lat="49.23119" lon="-0.04284">
        <ele>30.2</ele>
        <time>2023-11-22T15:33:09Z</time>
      </trkpt>
      <trkpt lat="49.23122" lon="-0.0429">
        <ele>30.3</ele>
        <time>2023-11-22T15:33:10Z</time>
      </trkpt>
      <trkpt lat="49.23125" lon="-0.04296">
        <ele>30.4</ele>
        <time>2023-11-22T15:33:11Z</time>
      </trkpt>
      <trkpt lat="49.23127" lon="-0.043">
        <ele>30.5</ele>
        <time>2023-11-22T15:33:12Z</time>
      </trkpt>
      <trkpt lat="49.2313" lon="-0.04305">
        <ele>30.5</ele>
        <time>2023-11-22T15:33:13Z</time>
      </trkpt>
      <trkpt lat="49.23132" lon="-0.04309">
        <ele>30.6</ele>
        <time>2023-11-22T15:33:14Z</time>
      </trkpt>
      <trkpt lat="49.23134" lon="-0.04312">
        <ele>30.6</ele>
        <time>2023-11-22T15:33:15Z</time>
      </trkpt>
      <trkpt lat="49.23137" lon="-0.04315">
        <ele>30.7</ele>
        <time>2023-11-22T15:33:16Z</time>
      </trkpt>
      <trkpt lat="49.23138" lon="-0.04317">
        <ele>30.7</ele>
        <time>2023-11-22T15:33:17Z</time>
      </trkpt>
      <trkpt lat="49.2314" lon="-0.04322">
        <ele>30.8</ele>
        <time>2023-11-22T15:33:18Z</time>
      </trkpt>
      <trkpt lat="49.23141" lon="-0.04328">
        <ele>30.8</ele>
        <time>2023-11-22T15:33:19Z</time>
      </trkpt>
      <trkpt lat="49.23141" lon="-0.04334">
        <ele>30.8</ele>
        <time>2023-11-22T15:33:20Z</time>
      </trkpt>
      <trkpt lat="49.2314" lon="-0.04341">
        <ele>30.8</ele>
        <time>2023-11-22T15:33:21Z</time>
      </trkpt>
      <trkpt lat="49.23139" lon="-0.04347">
        <ele>30.8</ele>
        <time>2023-11-22T15:33:22Z</time>
      </trkpt>
      <trkpt lat="49.23138" lon="-0.04354">
        <ele>30.8</ele>
        <time>2023-11-22T15:33:23Z</time>
      </trkpt>
      <trkpt lat="49.23136" lon="-0.0436">
        <ele>30.9</ele>
        <time>2023-11-22T15:33:24Z</time>
      </trkpt>
      <trkpt lat="49.23135" lon="-0.04367">
        <ele>30.9</ele>
        <time>2023-11-22T15:33:25Z</time>
      </trkpt>
      <trkpt lat="49.23133" lon="-0.04373">
        <ele>30.9</ele>
        <time>2023-11-22T15:33:26Z</time>
      </trkpt>
      <trkpt lat="49.23132" lon="-0.04379">
        <ele>31</ele>
        <time>2023-11-22T15:33:27Z</time>
      </trkpt>
      <trkpt lat="49.2313" lon="-0.04384">
        <ele>31</ele>
        <time>2023-11-22T15:33:28Z</time>
      </trkpt>
      <trkpt lat="49.23129" lon="-0.04389">
        <ele>31</ele>
        <time>2023-11-22T15:33:29Z</time>
      </trkpt>
      <trkpt lat="49.23128" lon="-0.04394">
        <ele>31.1</ele>
        <time>2023-11-22T15:33:30Z</time>
      </trkpt>
      <trkpt lat="49.23127" lon="-0.044">
        <ele>31.1</ele>
        <time>2023-11-22T15:33:31Z</time>
      </trkpt>
      <trkpt lat="49.23126" lon="-0.04405">
        <ele>31.2</ele>
        <time>2023-11-22T15:33:32Z</time>
      </trkpt>
      <trkpt lat="49.23125" lon="-0.04411">
        <ele>31.2</ele>
        <time>2023-11-22T15:33:33Z</time>
      </trkpt>
      <trkpt lat="49.23124" lon="-0.04416">
        <ele>31.3</ele>
        <time>2023-11-22T15:33:34Z</time>
      </trkpt>
      <trkpt lat="49.23123" lon="-0.04422">
        <ele>31.3</ele>
        <time>2023-11-22T15:33:35Z</time>
      </trkpt>
      <trkpt lat="49.23123" lon="-0.04427">
        <ele>31.4</ele>
        <time>2023-11-22T15:33:36Z</time>
      </trkpt>
      <trkpt lat="49.23122" lon="-0.04433">
        <ele>31.5</ele>
        <time>2023-11-22T15:33:37Z</time>
      </trkpt>
      <trkpt lat="49.23121" lon="-0.04439">
        <ele>31.5</ele>
        <time>2023-11-22T15:33:38Z</time>
      </trkpt>
      <trkpt lat="49.23119" lon="-0.04445">
        <ele>31.6</ele>
        <time>2023-11-22T15:33:39Z</time>
      </trkpt>
      <trkpt lat="49.23118" lon="-0.04451">
        <ele>31.7</ele>
        <time>2023-11-22T15:33:40Z</time>
      </trkpt>
      <trkpt lat="49.23117" lon="-0.04457">
        <ele>31.8</ele>
        <time>2023-11-22T15:33:41Z</time>
      </trkpt>
      <trkpt lat="49.23116" lon="-0.04463">
        <ele>31.9</ele>
        <time>2023-11-22T15:33:42Z</time>
      </trkpt>
      <trkpt lat="49.23115" lon="-0.04469">
        <ele>32.1</ele>
        <time>2023-11-22T15:33:43Z</time>
      </trkpt>
      <trkpt lat="49.23114" lon="-0.04475">
        <ele>32.2</ele>
        <time>2023-11-22T15:33:44Z</time>
      </trkpt>
      <trkpt lat="49.23113" lon="-0.04482">
        <ele>32.3</ele>
        <time>2023-11-22T15:33:45Z</time>
      </trkpt>
      <trkpt lat="49.23111" lon="-0.04488">
        <ele>32.4</ele>
        <time>2023-11-22T15:33:46Z</time>
      </trkpt>
      <trkpt lat="49.2311" lon="-0.04494">
        <ele>32.5</ele>
        <time>2023-11-22T15:33:47Z</time>
      </trkpt>
      <trkpt lat="49.23109" lon="-0.045">
        <ele>32.7</ele>
        <time>2023-11-22T15:33:48Z</time>
      </trkpt>
      <trkpt lat="49.23107" lon="-0.04506">
        <ele>32.8</ele>
        <time>2023-11-22T15:33:49Z</time>
      </trkpt>
      <trkpt lat="49.23106" lon="-0.04511">
        <ele>32.9</ele>
        <time>2023-11-22T15:33:50Z</time>
      </trkpt>
      <trkpt lat="49.23104" lon="-0.04517">
        <ele>33</ele>
        <time>2023-11-22T15:33:51Z</time>
      </trkpt>
      <trkpt lat="49.23103" lon="-0.04524">
        <ele>33.1</ele>
        <time>2023-11-22T15:33:52Z</time>
      </trkpt>
      <trkpt lat="49.23102" lon="-0.0453">
        <ele>33.2</ele>
        <time>2023-11-22T15:33:53Z</time>
      </trkpt>
      <trkpt lat="49.23101" lon="-0.04535">
        <ele>33.2</ele>
        <time>2023-11-22T15:33:54Z</time>
      </trkpt>
      <trkpt lat="49.231" lon="-0.04541">
        <ele>33.3</ele>
        <time>2023-11-22T15:33:55Z</time>
      </trkpt>
      <trkpt lat="49.23099" lon="-0.04548">
        <ele>33.3</ele>
        <time>2023-11-22T15:33:56Z</time>
      </trkpt>
      <trkpt lat="49.23098" lon="-0.04554">
        <ele>33.4</ele>
        <time>2023-11-22T15:33:57Z</time>
      </trkpt>
      <trkpt lat="49.23097" lon="-0.0456">
        <ele>33.4</ele>
        <time>2023-11-22T15:33:58Z</time>
      </trkpt>
      <trkpt lat="49.23095" lon="-0.04566">
        <ele>33.5</ele>
        <time>2023-11-22T15:33:59Z</time>
      </trkpt>
      <trkpt lat="49.23094" lon="-0.04572">
        <ele>33.6</ele>
        <time>2023-11-22T15:34:00Z</time>
      </trkpt>
      <trkpt lat="49.23094" lon="-0.04577">
        <ele>33.7</ele>
        <time>2023-11-22T15:34:01Z</time>
      </trkpt>
      <trkpt lat="49.23094" lon="-0.04582">
        <ele>33.7</ele>
        <time>2023-11-22T15:34:02Z</time>
      </trkpt>
      <trkpt lat="49.23096" lon="-0.04587">
        <ele>33.8</ele>
        <time>2023-11-22T15:34:03Z</time>
      </trkpt>
      <trkpt lat="49.23099" lon="-0.04591">
        <ele>33.7</ele>
        <time>2023-11-22T15:34:04Z</time>
      </trkpt>
      <trkpt lat="49.23102" lon="-0.04598">
        <ele>33.7</ele>
        <time>2023-11-22T15:34:05Z</time>
      </trkpt>
      <trkpt lat="49.23102" lon="-0.04606">
        <ele>33.7</ele>
        <time>2023-11-22T15:34:06Z</time>
      </trkpt>
      <trkpt lat="49.231" lon="-0.04613">
        <ele>33.6</ele>
        <time>2023-11-22T15:34:07Z</time>
      </trkpt>
      <trkpt lat="49.23098" lon="-0.04621">
        <ele>33.5</ele>
        <time>2023-11-22T15:34:08Z</time>
      </trkpt>
      <trkpt lat="49.23096" lon="-0.0463">
        <ele>33.5</ele>
        <time>2023-11-22T15:34:09Z</time>
      </trkpt>
      <trkpt lat="49.23095" lon="-0.04639">
        <ele>33.4</ele>
        <time>2023-11-22T15:34:10Z</time>
      </trkpt>
      <trkpt lat="49.23093" lon="-0.04648">
        <ele>33.3</ele>
        <time>2023-11-22T15:34:11Z</time>
      </trkpt>
      <trkpt lat="49.23091" lon="-0.04657">
        <ele>33.2</ele>
        <time>2023-11-22T15:34:12Z</time>
      </trkpt>
      <trkpt lat="49.2309" lon="-0.04666">
        <ele>33.1</ele>
        <time>2023-11-22T15:34:13Z</time>
      </trkpt>
      <trkpt lat="49.23087" lon="-0.04674">
        <ele>33</ele>
        <time>2023-11-22T15:34:14Z</time>
      </trkpt>
      <trkpt lat="49.23086" lon="-0.04683">
        <ele>32.9</ele>
        <time>2023-11-22T15:34:15Z</time>
      </trkpt>
      <trkpt lat="49.23085" lon="-0.04692">
        <ele>32.8</ele>
        <time>2023-11-22T15:34:16Z</time>
      </trkpt>
      <trkpt lat="49.23085" lon="-0.04701">
        <ele>32.6</ele>
        <time>2023-11-22T15:34:17Z</time>
      </trkpt>
      <trkpt lat="49.23087" lon="-0.04709">
        <ele>32.5</ele>
        <time>2023-11-22T15:34:18Z</time>
      </trkpt>
      <trkpt lat="49.2309" lon="-0.04717">
        <ele>32.4</ele>
        <time>2023-11-22T15:34:19Z</time>
      </trkpt>
      <trkpt lat="49.23094" lon="-0.04723">
        <ele>32.2</ele>
        <time>2023-11-22T15:34:20Z</time>
      </trkpt>
      <trkpt lat="49.23099" lon="-0.04729">
        <ele>32.1</ele>
        <time>2023-11-22T15:34:21Z</time>
      </trkpt>
      <trkpt lat="49.23105" lon="-0.04733">
        <ele>32</ele>
        <time>2023-11-22T15:34:22Z</time>
      </trkpt>
      <trkpt lat="49.23111" lon="-0.04735">
        <ele>31.9</ele>
        <time>2023-11-22T15:34:23Z</time>
      </trkpt>
      <trkpt lat="49.23116" lon="-0.04737">
        <ele>31.7</ele>
        <time>2023-11-22T15:34:24Z</time>
      </trkpt>
      <trkpt lat="49.23122" lon="-0.04739">
        <ele>31.6</ele>
        <time>2023-11-22T15:34:25Z</time>
      </trkpt>
      <trkpt lat="49.23128" lon="-0.04741">
        <ele>31.5</ele>
        <time>2023-11-22T15:34:26Z</time>
      </trkpt>
      <trkpt lat="49.23133" lon="-0.04743">
        <ele>31.4</ele>
        <time>2023-11-22T15:34:27Z</time>
      </trkpt>
      <trkpt lat="49.23138" lon="-0.04745">
        <ele>31.4</ele>
        <time>2023-11-22T15:34:28Z</time>
      </trkpt>
      <trkpt lat="49.23142" lon="-0.04745">
        <ele>31.3</ele>
        <time>2023-11-22T15:34:29Z</time>
      </trkpt>
      <trkpt lat="49.23145" lon="-0.04744">
        <ele>31.3</ele>
        <time>2023-11-22T15:34:30Z</time>
      </trkpt>
      <trkpt lat="49.23148" lon="-0.04744">
        <ele>31.3</ele>
        <time>2023-11-22T15:34:31Z</time>
      </trkpt>
      <trkpt lat="49.2315" lon="-0.04747">
        <ele>31.3</ele>
        <time>2023-11-22T15:34:32Z</time>
      </trkpt>
      <trkpt lat="49.23152" lon="-0.04753">
        <ele>31.4</ele>
        <time>2023-11-22T15:34:33Z</time>
      </trkpt>
      <trkpt lat="49.23151" lon="-0.0476">
        <ele>31.4</ele>
        <time>2023-11-22T15:34:34Z</time>
      </trkpt>
      <trkpt lat="49.23149" lon="-0.04766">
        <ele>31.5</ele>
        <time>2023-11-22T15:34:35Z</time>
      </trkpt>
      <trkpt lat="49.23148" lon="-0.04773">
        <ele>31.6</ele>
        <time>2023-11-22T15:34:36Z</time>
      </trkpt>
      <trkpt lat="49.23148" lon="-0.0478">
        <ele>31.8</ele>
        <time>2023-11-22T15:34:37Z</time>
      </trkpt>
      <trkpt lat="49.23148" lon="-0.04787">
        <ele>31.9</ele>
        <time>2023-11-22T15:34:38Z</time>
      </trkpt>
      <trkpt lat="49.23148" lon="-0.04794">
        <ele>32.1</ele>
        <time>2023-11-22T15:34:39Z</time>
      </trkpt>
      <trkpt lat="49.23148" lon="-0.04801">
        <ele>32.2</ele>
        <time>2023-11-22T15:34:40Z</time>
      </trkpt>
      <trkpt lat="49.23148" lon="-0.04807">
        <ele>32.4</ele>
        <time>2023-11-22T15:34:41Z</time>
      </trkpt>
      <trkpt lat="49.23147" lon="-0.04814">
        <ele>32.5</ele>
        <time>2023-11-22T15:34:42Z</time>
      </trkpt>
      <trkpt lat="49.23147" lon="-0.04821">
        <ele>32.7</ele>
        <time>2023-11-22T15:34:43Z</time>
      </trkpt>
      <trkpt lat="49.23148" lon="-0.04828">
        <ele>32.8</ele>
        <time>2023-11-22T15:34:44Z</time>
      </trkpt>
      <trkpt lat="49.23148" lon="-0.04835">
        <ele>32.9</ele>
        <time>2023-11-22T15:34:45Z</time>
      </trkpt>
      <trkpt lat="49.23147" lon="-0.04841">
        <ele>33</ele>
        <time>2023-11-22T15:34:46Z</time>
      </trkpt>
      <trkpt lat="49.23146" lon="-0.04848">
        <ele>33.2</ele>
        <time>2023-11-22T15:34:47Z</time>
      </trkpt>
      <trkpt lat="49.23146" lon="-0.04856">
        <ele>33.5</ele>
        <time>2023-11-22T15:34:48Z</time>
      </trkpt>
      <trkpt lat="49.23147" lon="-0.04863">
        <ele>33.7</ele>
        <time>2023-11-22T15:34:49Z</time>
      </trkpt>
      <trkpt lat="49.23148" lon="-0.04871">
        <ele>33.9</ele>
        <time>2023-11-22T15:34:50Z</time>
      </trkpt>
      <trkpt lat="49.23148" lon="-0.04879">
        <ele>34.1</ele>
        <time>2023-11-22T15:34:51Z</time>
      </trkpt>
      <trkpt lat="49.2315" lon="-0.04886">
        <ele>34.3</ele>
        <time>2023-11-22T15:34:52Z</time>
      </trkpt>
      <trkpt lat="49.23152" lon="-0.04894">
        <ele>34.5</ele>
        <time>2023-11-22T15:34:53Z</time>
      </trkpt>
      <trkpt lat="49.23154" lon="-0.04902">
        <ele>34.7</ele>
        <time>2023-11-22T15:34:54Z</time>
      </trkpt>
      <trkpt lat="49.23155" lon="-0.0491">
        <ele>34.8</ele>
        <time>2023-11-22T15:34:55Z</time>
      </trkpt>
      <trkpt lat="49.23157" lon="-0.04919">
        <ele>35</ele>
        <time>2023-11-22T15:34:56Z</time>
      </trkpt>
      <trkpt lat="49.23158" lon="-0.04927">
        <ele>35.1</ele>
        <time>2023-11-22T15:34:57Z</time>
      </trkpt>
      <trkpt lat="49.2316" lon="-0.04936">
        <ele>35.2</ele>
        <time>2023-11-22T15:34:58Z</time>
      </trkpt>
      <trkpt lat="49.23161" lon="-0.04945">
        <ele>35.4</ele>
        <time>2023-11-22T15:34:59Z</time>
      </trkpt>
      <trkpt lat="49.23162" lon="-0.04953">
        <ele>35.5</ele>
        <time>2023-11-22T15:35:00Z</time>
      </trkpt>
      <trkpt lat="49.23163" lon="-0.04962">
        <ele>35.6</ele>
        <time>2023-11-22T15:35:01Z</time>
      </trkpt>
      <trkpt lat="49.23165" lon="-0.0497">
        <ele>35.7</ele>
        <time>2023-11-22T15:35:02Z</time>
      </trkpt>
      <trkpt lat="49.23166" lon="-0.04979">
        <ele>35.7</ele>
        <time>2023-11-22T15:35:03Z</time>
      </trkpt>
      <trkpt lat="49.23168" lon="-0.04988">
        <ele>35.8</ele>
        <time>2023-11-22T15:35:04Z</time>
      </trkpt>
      <trkpt lat="49.2317" lon="-0.04996">
        <ele>35.9</ele>
        <time>2023-11-22T15:35:05Z</time>
      </trkpt>
      <trkpt lat="49.23172" lon="-0.05004">
        <ele>36</ele>
        <time>2023-11-22T15:35:06Z</time>
      </trkpt>
      <trkpt lat="49.23174" lon="-0.05012">
        <ele>36.1</ele>
        <time>2023-11-22T15:35:07Z</time>
      </trkpt>
      <trkpt lat="49.23176" lon="-0.05021">
        <ele>36.2</ele>
        <time>2023-11-22T15:35:08Z</time>
      </trkpt>
      <trkpt lat="49.23178" lon="-0.05029">
        <ele>36.3</ele>
        <time>2023-11-22T15:35:09Z</time>
      </trkpt>
      <trkpt lat="49.23179" lon="-0.05037">
        <ele>36.4</ele>
        <time>2023-11-22T15:35:10Z</time>
      </trkpt>
      <trkpt lat="49.23181" lon="-0.05045">
        <ele>36.4</ele>
        <time>2023-11-22T15:35:11Z</time>
      </trkpt>
      <trkpt lat="49.23182" lon="-0.05054">
        <ele>36.5</ele>
        <time>2023-11-22T15:35:12Z</time>
      </trkpt>
      <trkpt lat="49.23183" lon="-0.05062">
        <ele>36.6</ele>
        <time>2023-11-22T15:35:13Z</time>
      </trkpt>
      <trkpt lat="49.23185" lon="-0.0507">
        <ele>36.7</ele>
        <time>2023-11-22T15:35:14Z</time>
      </trkpt>
      <trkpt lat="49.23186" lon="-0.05078">
        <ele>36.8</ele>
        <time>2023-11-22T15:35:15Z</time>
      </trkpt>
      <trkpt lat="49.23188" lon="-0.05086">
        <ele>36.9</ele>
        <time>2023-11-22T15:35:16Z</time>
      </trkpt>
      <trkpt lat="49.23189" lon="-0.05094">
        <ele>36.9</ele>
        <time>2023-11-22T15:35:17Z</time>
      </trkpt>
      <trkpt lat="49.23191" lon="-0.05103">
        <ele>36.9</ele>
        <time>2023-11-22T15:35:18Z</time>
      </trkpt>
      <trkpt lat="49.23193" lon="-0.05111">
        <ele>37</ele>
        <time>2023-11-22T15:35:19Z</time>
      </trkpt>
      <trkpt lat="49.23194" lon="-0.05119">
        <ele>36.9</ele>
        <time>2023-11-22T15:35:20Z</time>
      </trkpt>
      <trkpt lat="49.23196" lon="-0.05127">
        <ele>36.9</ele>
        <time>2023-11-22T15:35:21Z</time>
      </trkpt>
      <trkpt lat="49.23198" lon="-0.05135">
        <ele>36.9</ele>
        <time>2023-11-22T15:35:22Z</time>
      </trkpt>
      <trkpt lat="49.23199" lon="-0.05144">
        <ele>36.8</ele>
        <time>2023-11-22T15:35:23Z</time>
      </trkpt>
      <trkpt lat="49.23199" lon="-0.05152">
        <ele>36.7</ele>
        <time>2023-11-22T15:35:24Z</time>
      </trkpt>
      <trkpt lat="49.23199" lon="-0.05161">
        <ele>36.6</ele>
        <time>2023-11-22T15:35:25Z</time>
      </trkpt>
      <trkpt lat="49.232" lon="-0.05169">
        <ele>36.4</ele>
        <time>2023-11-22T15:35:26Z</time>
      </trkpt>
      <trkpt lat="49.23202" lon="-0.05178">
        <ele>36.1</ele>
        <time>2023-11-22T15:35:27Z</time>
      </trkpt>
      <trkpt lat="49.23205" lon="-0.05185">
        <ele>35.8</ele>
        <time>2023-11-22T15:35:28Z</time>
      </trkpt>
      <trkpt lat="49.23209" lon="-0.05192">
        <ele>35.5</ele>
        <time>2023-11-22T15:35:29Z</time>
      </trkpt>
      <trkpt lat="49.23214" lon="-0.052">
        <ele>35.2</ele>
        <time>2023-11-22T15:35:30Z</time>
      </trkpt>
      <trkpt lat="49.23219" lon="-0.05207">
        <ele>34.8</ele>
        <time>2023-11-22T15:35:31Z</time>
      </trkpt>
      <trkpt lat="49.23224" lon="-0.05216">
        <ele>34.4</ele>
        <time>2023-11-22T15:35:32Z</time>
      </trkpt>
      <trkpt lat="49.23228" lon="-0.05226">
        <ele>34</ele>
        <time>2023-11-22T15:35:33Z</time>
      </trkpt>
      <trkpt lat="49.23232" lon="-0.05237">
        <ele>33.6</ele>
        <time>2023-11-22T15:35:34Z</time>
      </trkpt>
      <trkpt lat="49.23236" lon="-0.05247">
        <ele>33.2</ele>
        <time>2023-11-22T15:35:35Z</time>
      </trkpt>
      <trkpt lat="49.2324" lon="-0.05259">
        <ele>32.8</ele>
        <time>2023-11-22T15:35:36Z</time>
      </trkpt>
      <trkpt lat="49.23242" lon="-0.05271">
        <ele>32.5</ele>
        <time>2023-11-22T15:35:37Z</time>
      </trkpt>
      <trkpt lat="49.23243" lon="-0.05284">
        <ele>32.1</ele>
        <time>2023-11-22T15:35:38Z</time>
      </trkpt>
      <trkpt lat="49.23244" lon="-0.05298">
        <ele>31.6</ele>
        <time>2023-11-22T15:35:39Z</time>
      </trkpt>
      <trkpt lat="49.23244" lon="-0.05311">
        <ele>31.2</ele>
        <time>2023-11-22T15:35:40Z</time>
      </trkpt>
      <trkpt lat="49.23245" lon="-0.05325">
        <ele>30.8</ele>
        <time>2023-11-22T15:35:41Z</time>
      </trkpt>
      <trkpt lat="49.23245" lon="-0.05339">
        <ele>30.4</ele>
        <time>2023-11-22T15:35:42Z</time>
      </trkpt>
      <trkpt lat="49.23246" lon="-0.05353">
        <ele>30</ele>
        <time>2023-11-22T15:35:43Z</time>
      </trkpt>
      <trkpt lat="49.23247" lon="-0.05368">
        <ele>29.5</ele>
        <time>2023-11-22T15:35:44Z</time>
      </trkpt>
      <trkpt lat="49.23247" lon="-0.05383">
        <ele>29.1</ele>
        <time>2023-11-22T15:35:45Z</time>
      </trkpt>
      <trkpt lat="49.23248" lon="-0.05398">
        <ele>28.6</ele>
        <time>2023-11-22T15:35:46Z</time>
      </trkpt>
      <trkpt lat="49.23249" lon="-0.05412">
        <ele>28.1</ele>
        <time>2023-11-22T15:35:47Z</time>
      </trkpt>
      <trkpt lat="49.2325" lon="-0.05427">
        <ele>27.6</ele>
        <time>2023-11-22T15:35:48Z</time>
      </trkpt>
      <trkpt lat="49.23252" lon="-0.05441">
        <ele>27</ele>
        <time>2023-11-22T15:35:49Z</time>
      </trkpt>
      <trkpt lat="49.23254" lon="-0.05455">
        <ele>26.4</ele>
        <time>2023-11-22T15:35:50Z</time>
      </trkpt>
      <trkpt lat="49.23257" lon="-0.05469">
        <ele>25.8</ele>
        <time>2023-11-22T15:35:51Z</time>
      </trkpt>
      <trkpt lat="49.23259" lon="-0.05484">
        <ele>25</ele>
        <time>2023-11-22T15:35:52Z</time>
      </trkpt>
      <trkpt lat="49.23261" lon="-0.05499">
        <ele>24.2</ele>
        <time>2023-11-22T15:35:53Z</time>
      </trkpt>
      <trkpt lat="49.23264" lon="-0.05514">
        <ele>23.4</ele>
        <time>2023-11-22T15:35:54Z</time>
      </trkpt>
      <trkpt lat="49.23266" lon="-0.05529">
        <ele>22.4</ele>
        <time>2023-11-22T15:35:55Z</time>
      </trkpt>
      <trkpt lat="49.23269" lon="-0.05544">
        <ele>21.4</ele>
        <time>2023-11-22T15:35:56Z</time>
      </trkpt>
      <trkpt lat="49.23271" lon="-0.05559">
        <ele>20.3</ele>
        <time>2023-11-22T15:35:57Z</time>
      </trkpt>
      <trkpt lat="49.23274" lon="-0.05575">
        <ele>19.2</ele>
        <time>2023-11-22T15:35:58Z</time>
      </trkpt>
      <trkpt lat="49.23279" lon="-0.0559">
        <ele>18.2</ele>
        <time>2023-11-22T15:35:59Z</time>
      </trkpt>
      <trkpt lat="49.23285" lon="-0.05604">
        <ele>17.1</ele>
        <time>2023-11-22T15:36:00Z</time>
      </trkpt>
      <trkpt lat="49.23293" lon="-0.05617">
        <ele>16.2</ele>
        <time>2023-11-22T15:36:01Z</time>
      </trkpt>
      <trkpt lat="49.23302" lon="-0.05628">
        <ele>15.3</ele>
        <time>2023-11-22T15:36:02Z</time>
      </trkpt>
      <trkpt lat="49.23313" lon="-0.05637">
        <ele>14.5</ele>
        <time>2023-11-22T15:36:03Z</time>
      </trkpt>
      <trkpt lat="49.23324" lon="-0.05643">
        <ele>13.8</ele>
        <time>2023-11-22T15:36:04Z</time>
      </trkpt>
      <trkpt lat="49.23335" lon="-0.05649">
        <ele>13.3</ele>
        <time>2023-11-22T15:36:05Z</time>
      </trkpt>
      <trkpt lat="49.23347" lon="-0.05653">
        <ele>12.8</ele>
        <time>2023-11-22T15:36:06Z</time>
      </trkpt>
      <trkpt lat="49.23359" lon="-0.05658">
        <ele>12.5</ele>
        <time>2023-11-22T15:36:07Z</time>
      </trkpt>
      <trkpt lat="49.23371" lon="-0.05662">
        <ele>12.2</ele>
        <time>2023-11-22T15:36:08Z</time>
      </trkpt>
      <trkpt lat="49.23384" lon="-0.05667">
        <ele>12.2</ele>
        <time>2023-11-22T15:36:09Z</time>
      </trkpt>
      <trkpt lat="49.23395" lon="-0.05672">
        <ele>12.2</ele>
        <time>2023-11-22T15:36:10Z</time>
      </trkpt>
      <trkpt lat="49.23406" lon="-0.05677">
        <ele>12.2</ele>
        <time>2023-11-22T15:36:11Z</time>
      </trkpt>
      <trkpt lat="49.23417" lon="-0.05683">
        <ele>12.2</ele>
        <time>2023-11-22T15:36:12Z</time>
      </trkpt>
      <trkpt lat="49.23427" lon="-0.0569">
        <ele>12.3</ele>
        <time>2023-11-22T15:36:13Z</time>
      </trkpt>
      <trkpt lat="49.23436" lon="-0.05699">
        <ele>12.4</ele>
        <time>2023-11-22T15:36:14Z</time>
      </trkpt>
      <trkpt lat="49.23443" lon="-0.05709">
        <ele>12.4</ele>
        <time>2023-11-22T15:36:15Z</time>
      </trkpt>
      <trkpt lat="49.2345" lon="-0.05721">
        <ele>12.5</ele>
        <time>2023-11-22T15:36:16Z</time>
      </trkpt>
      <trkpt lat="49.23457" lon="-0.05735">
        <ele>12.6</ele>
        <time>2023-11-22T15:36:17Z</time>
      </trkpt>
      <trkpt lat="49.23462" lon="-0.05748">
        <ele>12.7</ele>
        <time>2023-11-22T15:36:18Z</time>
      </trkpt>
      <trkpt lat="49.23466" lon="-0.05763">
        <ele>12.8</ele>
        <time>2023-11-22T15:36:19Z</time>
      </trkpt>
      <trkpt lat="49.23469" lon="-0.05778">
        <ele>12.9</ele>
        <time>2023-11-22T15:36:20Z</time>
      </trkpt>
      <trkpt lat="49.2347" lon="-0.05794">
        <ele>13.1</ele>
        <time>2023-11-22T15:36:21Z</time>
      </trkpt>
      <trkpt lat="49.2347" lon="-0.05809">
        <ele>13.2</ele>
        <time>2023-11-22T15:36:22Z</time>
      </trkpt>
      <trkpt lat="49.2347" lon="-0.05824">
        <ele>13.3</ele>
        <time>2023-11-22T15:36:23Z</time>
      </trkpt>
      <trkpt lat="49.2347" lon="-0.0584">
        <ele>13.4</ele>
        <time>2023-11-22T15:36:24Z</time>
      </trkpt>
      <trkpt lat="49.23469" lon="-0.05855">
        <ele>13.4</ele>
        <time>2023-11-22T15:36:25Z</time>
      </trkpt>
      <trkpt lat="49.23468" lon="-0.0587">
        <ele>13.5</ele>
        <time>2023-11-22T15:36:26Z</time>
      </trkpt>
      <trkpt lat="49.23467" lon="-0.05885">
        <ele>13.6</ele>
        <time>2023-11-22T15:36:27Z</time>
      </trkpt>
      <trkpt lat="49.23466" lon="-0.059">
        <ele>13.7</ele>
        <time>2023-11-22T15:36:28Z</time>
      </trkpt>
      <trkpt lat="49.23465" lon="-0.05914">
        <ele>13.8</ele>
        <time>2023-11-22T15:36:29Z</time>
      </trkpt>
      <trkpt lat="49.23463" lon="-0.05929">
        <ele>13.8</ele>
        <time>2023-11-22T15:36:30Z</time>
      </trkpt>
      <trkpt lat="49.23462" lon="-0.05944">
        <ele>13.9</ele>
        <time>2023-11-22T15:36:31Z</time>
      </trkpt>
      <trkpt lat="49.2346" lon="-0.05959">
        <ele>13.9</ele>
        <time>2023-11-22T15:36:32Z</time>
      </trkpt>
      <trkpt lat="49.23459" lon="-0.05974">
        <ele>13.8</ele>
        <time>2023-11-22T15:36:33Z</time>
      </trkpt>
      <trkpt lat="49.23457" lon="-0.05989">
        <ele>13.8</ele>
        <time>2023-11-22T15:36:34Z</time>
      </trkpt>
      <trkpt lat="49.23455" lon="-0.06004">
        <ele>13.8</ele>
        <time>2023-11-22T15:36:35Z</time>
      </trkpt>
      <trkpt lat="49.23453" lon="-0.06018">
        <ele>13.7</ele>
        <time>2023-11-22T15:36:36Z</time>
      </trkpt>
      <trkpt lat="49.23451" lon="-0.06032">
        <ele>13.7</ele>
        <time>2023-11-22T15:36:37Z</time>
      </trkpt>
      <trkpt lat="49.23449" lon="-0.06047">
        <ele>13.6</ele>
        <time>2023-11-22T15:36:38Z</time>
      </trkpt>
      <trkpt lat="49.23448" lon="-0.06062">
        <ele>13.5</ele>
        <time>2023-11-22T15:36:39Z</time>
      </trkpt>
      <trkpt lat="49.23447" lon="-0.06076">
        <ele>13.4</ele>
        <time>2023-11-22T15:36:40Z</time>
      </trkpt>
      <trkpt lat="49.23446" lon="-0.06091">
        <ele>13.2</ele>
        <time>2023-11-22T15:36:41Z</time>
      </trkpt>
      <trkpt lat="49.23445" lon="-0.06105">
        <ele>13.1</ele>
        <time>2023-11-22T15:36:42Z</time>
      </trkpt>
      <trkpt lat="49.23444" lon="-0.06119">
        <ele>12.9</ele>
        <time>2023-11-22T15:36:43Z</time>
      </trkpt>
      <trkpt lat="49.23444" lon="-0.06133">
        <ele>12.8</ele>
        <time>2023-11-22T15:36:44Z</time>
      </trkpt>
      <trkpt lat="49.23444" lon="-0.06147">
        <ele>12.6</ele>
        <time>2023-11-22T15:36:45Z</time>
      </trkpt>
      <trkpt lat="49.23444" lon="-0.06161">
        <ele>12.5</ele>
        <time>2023-11-22T15:36:46Z</time>
      </trkpt>
      <trkpt lat="49.23444" lon="-0.06176">
        <ele>12.4</ele>
        <time>2023-11-22T15:36:47Z</time>
      </trkpt>
      <trkpt lat="49.23444" lon="-0.06191">
        <ele>12.4</ele>
        <time>2023-11-22T15:36:48Z</time>
      </trkpt>
      <trkpt lat="49.23443" lon="-0.06206">
        <ele>12.4</ele>
        <time>2023-11-22T15:36:49Z</time>
      </trkpt>
      <trkpt lat="49.23442" lon="-0.06221">
        <ele>12.4</ele>
        <time>2023-11-22T15:36:50Z</time>
      </trkpt>
      <trkpt lat="49.2344" lon="-0.06235">
        <ele>12.5</ele>
        <time>2023-11-22T15:36:51Z</time>
      </trkpt>
      <trkpt lat="49.23438" lon="-0.06249">
        <ele>12.6</ele>
        <time>2023-11-22T15:36:52Z</time>
      </trkpt>
      <trkpt lat="49.23437" lon="-0.06262">
        <ele>12.7</ele>
        <time>2023-11-22T15:36:53Z</time>
      </trkpt>
      <trkpt lat="49.23435" lon="-0.06274">
        <ele>12.8</ele>
        <time>2023-11-22T15:36:54Z</time>
      </trkpt>
      <trkpt lat="49.23433" lon="-0.06286">
        <ele>12.9</ele>
        <time>2023-11-22T15:36:55Z</time>
      </trkpt>
      <trkpt lat="49.23431" lon="-0.06297">
        <ele>12.9</ele>
        <time>2023-11-22T15:36:56Z</time>
      </trkpt>
      <trkpt lat="49.23428" lon="-0.06308">
        <ele>13</ele>
        <time>2023-11-22T15:36:57Z</time>
      </trkpt>
      <trkpt lat="49.23425" lon="-0.06318">
        <ele>13</ele>
        <time>2023-11-22T15:36:58Z</time>
      </trkpt>
      <trkpt lat="49.23422" lon="-0.06328">
        <ele>13</ele>
        <time>2023-11-22T15:36:59Z</time>
      </trkpt>
      <trkpt lat="49.23419" lon="-0.06338">
        <ele>13</ele>
        <time>2023-11-22T15:37:00Z</time>
      </trkpt>
      <trkpt lat="49.23416" lon="-0.06347">
        <ele>13</ele>
        <time>2023-11-22T15:37:01Z</time>
      </trkpt>
      <trkpt lat="49.23413" lon="-0.06357">
        <ele>13</ele>
        <time>2023-11-22T15:37:02Z</time>
      </trkpt>
      <trkpt lat="49.2341" lon="-0.06367">
        <ele>13</ele>
        <time>2023-11-22T15:37:03Z</time>
      </trkpt>
      <trkpt lat="49.23407" lon="-0.06376">
        <ele>12.9</ele>
        <time>2023-11-22T15:37:04Z</time>
      </trkpt>
      <trkpt lat="49.23404" lon="-0.06386">
        <ele>12.9</ele>
        <time>2023-11-22T15:37:05Z</time>
      </trkpt>
      <trkpt lat="49.23402" lon="-0.06396">
        <ele>12.8</ele>
        <time>2023-11-22T15:37:06Z</time>
      </trkpt>
      <trkpt lat="49.23399" lon="-0.06406">
        <ele>12.8</ele>
        <time>2023-11-22T15:37:07Z</time>
      </trkpt>
      <trkpt lat="49.23396" lon="-0.06417">
        <ele>12.7</ele>
        <time>2023-11-22T15:37:08Z</time>
      </trkpt>
      <trkpt lat="49.23393" lon="-0.06427">
        <ele>12.7</ele>
        <time>2023-11-22T15:37:09Z</time>
      </trkpt>
      <trkpt lat="49.23391" lon="-0.06438">
        <ele>12.7</ele>
        <time>2023-11-22T15:37:10Z</time>
      </trkpt>
      <trkpt lat="49.23388" lon="-0.06449">
        <ele>12.6</ele>
        <time>2023-11-22T15:37:11Z</time>
      </trkpt>
      <trkpt lat="49.23385" lon="-0.06459">
        <ele>12.6</ele>
        <time>2023-11-22T15:37:12Z</time>
      </trkpt>
      <trkpt lat="49.23382" lon="-0.0647">
        <ele>12.6</ele>
        <time>2023-11-22T15:37:13Z</time>
      </trkpt>
      <trkpt lat="49.23379" lon="-0.0648">
        <ele>12.5</ele>
        <time>2023-11-22T15:37:14Z</time>
      </trkpt>
      <trkpt lat="49.23375" lon="-0.06489">
        <ele>12.4</ele>
        <time>2023-11-22T15:37:15Z</time>
      </trkpt>
      <trkpt lat="49.23371" lon="-0.06499">
        <ele>12.3</ele>
        <time>2023-11-22T15:37:16Z</time>
      </trkpt>
      <trkpt lat="49.23367" lon="-0.06509">
        <ele>12.2</ele>
        <time>2023-11-22T15:37:17Z</time>
      </trkpt>
      <trkpt lat="49.23363" lon="-0.06519">
        <ele>12.1</ele>
        <time>2023-11-22T15:37:18Z</time>
      </trkpt>
      <trkpt lat="49.23359" lon="-0.0653">
        <ele>12</ele>
        <time>2023-11-22T15:37:19Z</time>
      </trkpt>
      <trkpt lat="49.23356" lon="-0.06542">
        <ele>11.8</ele>
        <time>2023-11-22T15:37:20Z</time>
      </trkpt>
      <trkpt lat="49.23354" lon="-0.06554">
        <ele>11.6</ele>
        <time>2023-11-22T15:37:21Z</time>
      </trkpt>
      <trkpt lat="49.23352" lon="-0.06567">
        <ele>11.3</ele>
        <time>2023-11-22T15:37:22Z</time>
      </trkpt>
      <trkpt lat="49.23352" lon="-0.06581">
        <ele>11.1</ele>
        <time>2023-11-22T15:37:23Z</time>
      </trkpt>
      <trkpt lat="49.23353" lon="-0.06594">
        <ele>10.8</ele>
        <time>2023-11-22T15:37:24Z</time>
      </trkpt>
      <trkpt lat="49.23355" lon="-0.06607">
        <ele>10.6</ele>
        <time>2023-11-22T15:37:25Z</time>
      </trkpt>
      <trkpt lat="49.23357" lon="-0.0662">
        <ele>10.3</ele>
        <time>2023-11-22T15:37:26Z</time>
      </trkpt>
      <trkpt lat="49.2336" lon="-0.06633">
        <ele>10.1</ele>
        <time>2023-11-22T15:37:27Z</time>
      </trkpt>
      <trkpt lat="49.23363" lon="-0.06646">
        <ele>9.9</ele>
        <time>2023-11-22T15:37:28Z</time>
      </trkpt>
      <trkpt lat="49.23366" lon="-0.06658">
        <ele>9.8</ele>
        <time>2023-11-22T15:37:29Z</time>
      </trkpt>
      <trkpt lat="49.2337" lon="-0.06671">
        <ele>9.6</ele>
        <time>2023-11-22T15:37:30Z</time>
      </trkpt>
      <trkpt lat="49.23373" lon="-0.06683">
        <ele>9.5</ele>
        <time>2023-11-22T15:37:31Z</time>
      </trkpt>
      <trkpt lat="49.23377" lon="-0.06696">
        <ele>9.4</ele>
        <time>2023-11-22T15:37:32Z</time>
      </trkpt>
      <trkpt lat="49.2338" lon="-0.06708">
        <ele>9.2</ele>
        <time>2023-11-22T15:37:33Z</time>
      </trkpt>
      <trkpt lat="49.23384" lon="-0.06719">
        <ele>9.1</ele>
        <time>2023-11-22T15:37:34Z</time>
      </trkpt>
      <trkpt lat="49.23388" lon="-0.06731">
        <ele>9</ele>
        <time>2023-11-22T15:37:35Z</time>
      </trkpt>
      <trkpt lat="49.23392" lon="-0.06743">
        <ele>8.9</ele>
        <time>2023-11-22T15:37:36Z</time>
      </trkpt>
      <trkpt lat="49.23396" lon="-0.06755">
        <ele>8.8</ele>
        <time>2023-11-22T15:37:37Z</time>
      </trkpt>
      <trkpt lat="49.234" lon="-0.06767">
        <ele>8.7</ele>
        <time>2023-11-22T15:37:38Z</time>
      </trkpt>
      <trkpt lat="49.23403" lon="-0.0678">
        <ele>8.6</ele>
        <time>2023-11-22T15:37:39Z</time>
      </trkpt>
      <trkpt lat="49.23407" lon="-0.06792">
        <ele>8.5</ele>
        <time>2023-11-22T15:37:40Z</time>
      </trkpt>
      <trkpt lat="49.23411" lon="-0.06804">
        <ele>8.4</ele>
        <time>2023-11-22T15:37:41Z</time>
      </trkpt>
      <trkpt lat="49.23414" lon="-0.06816">
        <ele>8.4</ele>
        <time>2023-11-22T15:37:42Z</time>
      </trkpt>
      <trkpt lat="49.23418" lon="-0.06828">
        <ele>8.3</ele>
        <time>2023-11-22T15:37:43Z</time>
      </trkpt>
      <trkpt lat="49.23421" lon="-0.0684">
        <ele>8.2</ele>
        <time>2023-11-22T15:37:44Z</time>
      </trkpt>
      <trkpt lat="49.23422" lon="-0.06852">
        <ele>8.1</ele>
        <time>2023-11-22T15:37:45Z</time>
      </trkpt>
      <trkpt lat="49.23424" lon="-0.06864">
        <ele>8.1</ele>
        <time>2023-11-22T15:37:46Z</time>
      </trkpt>
      <trkpt lat="49.23425" lon="-0.06876">
        <ele>8</ele>
        <time>2023-11-22T15:37:47Z</time>
      </trkpt>
      <trkpt lat="49.23426" lon="-0.06888">
        <ele>8</ele>
        <time>2023-11-22T15:37:48Z</time>
      </trkpt>
      <trkpt lat="49.23426" lon="-0.06899">
        <ele>8</ele>
        <time>2023-11-22T15:37:49Z</time>
      </trkpt>
      <trkpt lat="49.23427" lon="-0.0691">
        <ele>8</ele>
        <time>2023-11-22T15:37:50Z</time>
      </trkpt>
      <trkpt lat="49.23427" lon="-0.0692">
        <ele>8.1</ele>
        <time>2023-11-22T15:37:51Z</time>
      </trkpt>
      <trkpt lat="49.23427" lon="-0.06929">
        <ele>8.2</ele>
        <time>2023-11-22T15:37:52Z</time>
      </trkpt>
      <trkpt lat="49.23427" lon="-0.06938">
        <ele>8.3</ele>
        <time>2023-11-22T15:37:53Z</time>
      </trkpt>
      <trkpt lat="49.2343" lon="-0.06945">
        <ele>8.4</ele>
        <time>2023-11-22T15:37:54Z</time>
      </trkpt>
      <trkpt lat="49.23434" lon="-0.06951">
        <ele>8.3</ele>
        <time>2023-11-22T15:37:55Z</time>
      </trkpt>
      <trkpt lat="49.2344" lon="-0.06955">
        <ele>8.2</ele>
        <time>2023-11-22T15:37:56Z</time>
      </trkpt>
      <trkpt lat="49.23447" lon="-0.06959">
        <ele>8.1</ele>
        <time>2023-11-22T15:37:57Z</time>
      </trkpt>
      <trkpt lat="49.23454" lon="-0.06962">
        <ele>7.9</ele>
        <time>2023-11-22T15:37:58Z</time>
      </trkpt>
      <trkpt lat="49.23461" lon="-0.06966">
        <ele>7.8</ele>
        <time>2023-11-22T15:37:59Z</time>
      </trkpt>
      <trkpt lat="49.23468" lon="-0.0697">
        <ele>7.7</ele>
        <time>2023-11-22T15:38:00Z</time>
      </trkpt>
      <trkpt lat="49.23475" lon="-0.06974">
        <ele>7.7</ele>
        <time>2023-11-22T15:38:01Z</time>
      </trkpt>
      <trkpt lat="49.23482" lon="-0.06978">
        <ele>7.6</ele>
        <time>2023-11-22T15:38:02Z</time>
      </trkpt>
      <trkpt lat="49.23489" lon="-0.06982">
        <ele>7.6</ele>
        <time>2023-11-22T15:38:03Z</time>
      </trkpt>
      <trkpt lat="49.23496" lon="-0.06987">
        <ele>7.5</ele>
        <time>2023-11-22T15:38:04Z</time>
      </trkpt>
      <trkpt lat="49.23503" lon="-0.06992">
        <ele>7.5</ele>
        <time>2023-11-22T15:38:05Z</time>
      </trkpt>
      <trkpt lat="49.23509" lon="-0.06997">
        <ele>7.4</ele>
        <time>2023-11-22T15:38:06Z</time>
      </trkpt>
      <trkpt lat="49.23516" lon="-0.07001">
        <ele>7.4</ele>
        <time>2023-11-22T15:38:07Z</time>
      </trkpt>
      <trkpt lat="49.23523" lon="-0.07006">
        <ele>7.4</ele>
        <time>2023-11-22T15:38:08Z</time>
      </trkpt>
      <trkpt lat="49.2353" lon="-0.0701">
        <ele>7.4</ele>
        <time>2023-11-22T15:38:09Z</time>
      </trkpt>
      <trkpt lat="49.23537" lon="-0.07015">
        <ele>7.4</ele>
        <time>2023-11-22T15:38:10Z</time>
      </trkpt>
      <trkpt lat="49.23544" lon="-0.07019">
        <ele>7.4</ele>
        <time>2023-11-22T15:38:11Z</time>
      </trkpt>
      <trkpt lat="49.23552" lon="-0.07024">
        <ele>7.4</ele>
        <time>2023-11-22T15:38:12Z</time>
      </trkpt>
      <trkpt lat="49.23559" lon="-0.07029">
        <ele>7.4</ele>
        <time>2023-11-22T15:38:13Z</time>
      </trkpt>
      <trkpt lat="49.23567" lon="-0.07034">
        <ele>7.4</ele>
        <time>2023-11-22T15:38:14Z</time>
      </trkpt>
      <trkpt lat="49.23575" lon="-0.07039">
        <ele>7.5</ele>
        <time>2023-11-22T15:38:15Z</time>
      </trkpt>
      <trkpt lat="49.23583" lon="-0.07043">
        <ele>7.5</ele>
        <time>2023-11-22T15:38:16Z</time>
      </trkpt>
      <trkpt lat="49.2359" lon="-0.07048">
        <ele>7.5</ele>
        <time>2023-11-22T15:38:17Z</time>
      </trkpt>
      <trkpt lat="49.23597" lon="-0.07054">
        <ele>7.5</ele>
        <time>2023-11-22T15:38:18Z</time>
      </trkpt>
      <trkpt lat="49.23604" lon="-0.07059">
        <ele>7.5</ele>
        <time>2023-11-22T15:38:19Z</time>
      </trkpt>
      <trkpt lat="49.23611" lon="-0.07064">
        <ele>7.5</ele>
        <time>2023-11-22T15:38:20Z</time>
      </trkpt>
      <trkpt lat="49.23618" lon="-0.07069">
        <ele>7.5</ele>
        <time>2023-11-22T15:38:21Z</time>
      </trkpt>
      <trkpt lat="49.23625" lon="-0.07075">
        <ele>7.5</ele>
        <time>2023-11-22T15:38:22Z</time>
      </trkpt>
      <trkpt lat="49.23631" lon="-0.07081">
        <ele>7.5</ele>
        <time>2023-11-22T15:38:23Z</time>
      </trkpt>
      <trkpt lat="49.23638" lon="-0.07087">
        <ele>7.5</ele>
        <time>2023-11-22T15:38:24Z</time>
      </trkpt>
      <trkpt lat="49.23643" lon="-0.07093">
        <ele>7.5</ele>
        <time>2023-11-22T15:38:25Z</time>
      </trkpt>
      <trkpt lat="49.23649" lon="-0.07099">
        <ele>7.5</ele>
        <time>2023-11-22T15:38:26Z</time>
      </trkpt>
      <trkpt lat="49.23654" lon="-0.07105">
        <ele>7.5</ele>
        <time>2023-11-22T15:38:27Z</time>
      </trkpt>
      <trkpt lat="49.23659" lon="-0.07112">
        <ele>7.5</ele>
        <time>2023-11-22T15:38:28Z</time>
      </trkpt>
      <trkpt lat="49.23664" lon="-0.07118">
        <ele>7.5</ele>
        <time>2023-11-22T15:38:29Z</time>
      </trkpt>
      <trkpt lat="49.23668" lon="-0.07125">
        <ele>7.5</ele>
        <time>2023-11-22T15:38:30Z</time>
      </trkpt>
      <trkpt lat="49.23673" lon="-0.07132">
        <ele>7.5</ele>
        <time>2023-11-22T15:38:31Z</time>
      </trkpt>
      <trkpt lat="49.23677" lon="-0.07139">
        <ele>7.6</ele>
        <time>2023-11-22T15:38:32Z</time>
      </trkpt>
      <trkpt lat="49.2368" lon="-0.07146">
        <ele>7.6</ele>
        <time>2023-11-22T15:38:33Z</time>
      </trkpt>
      <trkpt lat="49.23684" lon="-0.07154">
        <ele>7.6</ele>
        <time>2023-11-22T15:38:34Z</time>
      </trkpt>
      <trkpt lat="49.23687" lon="-0.07162">
        <ele>7.6</ele>
        <time>2023-11-22T15:38:35Z</time>
      </trkpt>
      <trkpt lat="49.2369" lon="-0.07171">
        <ele>7.6</ele>
        <time>2023-11-22T15:38:36Z</time>
      </trkpt>
      <trkpt lat="49.23693" lon="-0.07181">
        <ele>7.6</ele>
        <time>2023-11-22T15:38:37Z</time>
      </trkpt>
      <trkpt lat="49.23695" lon="-0.0719">
        <ele>7.6</ele>
        <time>2023-11-22T15:38:38Z</time>
      </trkpt>
      <trkpt lat="49.23696" lon="-0.07201">
        <ele>7.6</ele>
        <time>2023-11-22T15:38:39Z</time>
      </trkpt>
      <trkpt lat="49.23698" lon="-0.07211">
        <ele>7.6</ele>
        <time>2023-11-22T15:38:40Z</time>
      </trkpt>
      <trkpt lat="49.23699" lon="-0.07222">
        <ele>7.6</ele>
        <time>2023-11-22T15:38:41Z</time>
      </trkpt>
      <trkpt lat="49.23701" lon="-0.07232">
        <ele>7.6</ele>
        <time>2023-11-22T15:38:42Z</time>
      </trkpt>
      <trkpt lat="49.23702" lon="-0.07243">
        <ele>7.6</ele>
        <time>2023-11-22T15:38:43Z</time>
      </trkpt>
      <trkpt lat="49.23703" lon="-0.07254">
        <ele>7.6</ele>
        <time>2023-11-22T15:38:44Z</time>
      </trkpt>
      <trkpt lat="49.23704" lon="-0.07265">
        <ele>7.6</ele>
        <time>2023-11-22T15:38:45Z</time>
      </trkpt>
      <trkpt lat="49.23705" lon="-0.07277">
        <ele>7.5</ele>
        <time>2023-11-22T15:38:46Z</time>
      </trkpt>
      <trkpt lat="49.23707" lon="-0.07289">
        <ele>7.5</ele>
        <time>2023-11-22T15:38:47Z</time>
      </trkpt>
      <trkpt lat="49.23708" lon="-0.07301">
        <ele>7.5</ele>
        <time>2023-11-22T15:38:48Z</time>
      </trkpt>
      <trkpt lat="49.23711" lon="-0.07313">
        <ele>7.5</ele>
        <time>2023-11-22T15:38:49Z</time>
      </trkpt>
      <trkpt lat="49.23713" lon="-0.07325">
        <ele>7.5</ele>
        <time>2023-11-22T15:38:50Z</time>
      </trkpt>
      <trkpt lat="49.23715" lon="-0.07337">
        <ele>7.5</ele>
        <time>2023-11-22T15:38:51Z</time>
      </trkpt>
      <trkpt lat="49.23718" lon="-0.07349">
        <ele>7.5</ele>
        <time>2023-11-22T15:38:52Z</time>
      </trkpt>
      <trkpt lat="49.2372" lon="-0.07361">
        <ele>7.5</ele>
        <time>2023-11-22T15:38:53Z</time>
      </trkpt>
      <trkpt lat="49.23722" lon="-0.07373">
        <ele>7.5</ele>
        <time>2023-11-22T15:38:54Z</time>
      </trkpt>
      <trkpt lat="49.23723" lon="-0.07386">
        <ele>7.5</ele>
        <time>2023-11-22T15:38:55Z</time>
      </trkpt>
      <trkpt lat="49.23723" lon="-0.07399">
        <ele>7.6</ele>
        <time>2023-11-22T15:38:56Z</time>
      </trkpt>
      <trkpt lat="49.23724" lon="-0.07412">
        <ele>7.6</ele>
        <time>2023-11-22T15:38:57Z</time>
      </trkpt>
      <trkpt lat="49.23725" lon="-0.07425">
        <ele>7.6</ele>
        <time>2023-11-22T15:38:58Z</time>
      </trkpt>
      <trkpt lat="49.23726" lon="-0.07438">
        <ele>7.6</ele>
        <time>2023-11-22T15:38:59Z</time>
      </trkpt>
      <trkpt lat="49.23727" lon="-0.07451">
        <ele>7.6</ele>
        <time>2023-11-22T15:39:00Z</time>
      </trkpt>
      <trkpt lat="49.23726" lon="-0.07464">
        <ele>7.6</ele>
        <time>2023-11-22T15:39:01Z</time>
      </trkpt>
      <trkpt lat="49.23726" lon="-0.07477">
        <ele>7.5</ele>
        <time>2023-11-22T15:39:02Z</time>
      </trkpt>
      <trkpt lat="49.23725" lon="-0.0749">
        <ele>7.5</ele>
        <time>2023-11-22T15:39:03Z</time>
      </trkpt>
      <trkpt lat="49.23723" lon="-0.07502">
        <ele>7.5</ele>
        <time>2023-11-22T15:39:04Z</time>
      </trkpt>
      <trkpt lat="49.23721" lon="-0.07515">
        <ele>7.5</ele>
        <time>2023-11-22T15:39:05Z</time>
      </trkpt>
      <trkpt lat="49.2372" lon="-0.07527">
        <ele>7.5</ele>
        <time>2023-11-22T15:39:06Z</time>
      </trkpt>
      <trkpt lat="49.2372" lon="-0.0754">
        <ele>7.5</ele>
        <time>2023-11-22T15:39:07Z</time>
      </trkpt>
      <trkpt lat="49.2372" lon="-0.07553">
        <ele>7.5</ele>
        <time>2023-11-22T15:39:08Z</time>
      </trkpt>
      <trkpt lat="49.2372" lon="-0.07566">
        <ele>7.5</ele>
        <time>2023-11-22T15:39:09Z</time>
      </trkpt>
      <trkpt lat="49.2372" lon="-0.07579">
        <ele>7.5</ele>
        <time>2023-11-22T15:39:10Z</time>
      </trkpt>
      <trkpt lat="49.23721" lon="-0.07592">
        <ele>7.5</ele>
        <time>2023-11-22T15:39:11Z</time>
      </trkpt>
      <trkpt lat="49.23721" lon="-0.07604">
        <ele>7.4</ele>
        <time>2023-11-22T15:39:12Z</time>
      </trkpt>
      <trkpt lat="49.23721" lon="-0.07617">
        <ele>7.4</ele>
        <time>2023-11-22T15:39:13Z</time>
      </trkpt>
      <trkpt lat="49.2372" lon="-0.0763">
        <ele>7.4</ele>
        <time>2023-11-22T15:39:14Z</time>
      </trkpt>
      <trkpt lat="49.23719" lon="-0.07642">
        <ele>7.4</ele>
        <time>2023-11-22T15:39:15Z</time>
      </trkpt>
      <trkpt lat="49.23718" lon="-0.07655">
        <ele>7.3</ele>
        <time>2023-11-22T15:39:16Z</time>
      </trkpt>
      <trkpt lat="49.23717" lon="-0.07667">
        <ele>7.3</ele>
        <time>2023-11-22T15:39:17Z</time>
      </trkpt>
      <trkpt lat="49.23717" lon="-0.0768">
        <ele>7.3</ele>
        <time>2023-11-22T15:39:18Z</time>
      </trkpt>
      <trkpt lat="49.23716" lon="-0.07692">
        <ele>7.3</ele>
        <time>2023-11-22T15:39:19Z</time>
      </trkpt>
      <trkpt lat="49.23716" lon="-0.07705">
        <ele>7.3</ele>
        <time>2023-11-22T15:39:20Z</time>
      </trkpt>
      <trkpt lat="49.23717" lon="-0.07717">
        <ele>7.3</ele>
        <time>2023-11-22T15:39:21Z</time>
      </trkpt>
      <trkpt lat="49.23718" lon="-0.07728">
        <ele>7.3</ele>
        <time>2023-11-22T15:39:22Z</time>
      </trkpt>
      <trkpt lat="49.2372" lon="-0.0774">
        <ele>7.2</ele>
        <time>2023-11-22T15:39:23Z</time>
      </trkpt>
      <trkpt lat="49.23722" lon="-0.07751">
        <ele>7.2</ele>
        <time>2023-11-22T15:39:24Z</time>
      </trkpt>
      <trkpt lat="49.23726" lon="-0.07762">
        <ele>7.2</ele>
        <time>2023-11-22T15:39:25Z</time>
      </trkpt>
      <trkpt lat="49.23729" lon="-0.07773">
        <ele>7.2</ele>
        <time>2023-11-22T15:39:26Z</time>
      </trkpt>
      <trkpt lat="49.23733" lon="-0.07784">
        <ele>7.1</ele>
        <time>2023-11-22T15:39:27Z</time>
      </trkpt>
      <trkpt lat="49.23736" lon="-0.07795">
        <ele>7.1</ele>
        <time>2023-11-22T15:39:28Z</time>
      </trkpt>
      <trkpt lat="49.23739" lon="-0.07806">
        <ele>7.1</ele>
        <time>2023-11-22T15:39:29Z</time>
      </trkpt>
      <trkpt lat="49.23741" lon="-0.07817">
        <ele>7</ele>
        <time>2023-11-22T15:39:30Z</time>
      </trkpt>
      <trkpt lat="49.23743" lon="-0.07829">
        <ele>7</ele>
        <time>2023-11-22T15:39:31Z</time>
      </trkpt>
      <trkpt lat="49.23743" lon="-0.07841">
        <ele>6.9</ele>
        <time>2023-11-22T15:39:32Z</time>
      </trkpt>
      <trkpt lat="49.23742" lon="-0.07853">
        <ele>6.9</ele>
        <time>2023-11-22T15:39:33Z</time>
      </trkpt>
      <trkpt lat="49.23741" lon="-0.07865">
        <ele>6.9</ele>
        <time>2023-11-22T15:39:34Z</time>
      </trkpt>
      <trkpt lat="49.23739" lon="-0.07877">
        <ele>6.8</ele>
        <time>2023-11-22T15:39:35Z</time>
      </trkpt>
      <trkpt lat="49.23738" lon="-0.07889">
        <ele>6.7</ele>
        <time>2023-11-22T15:39:36Z</time>
      </trkpt>
      <trkpt lat="49.23736" lon="-0.07902">
        <ele>6.7</ele>
        <time>2023-11-22T15:39:37Z</time>
      </trkpt>
      <trkpt lat="49.23734" lon="-0.07915">
        <ele>6.6</ele>
        <time>2023-11-22T15:39:38Z</time>
      </trkpt>
      <trkpt lat="49.23732" lon="-0.07927">
        <ele>6.6</ele>
        <time>2023-11-22T15:39:39Z</time>
      </trkpt>
      <trkpt lat="49.2373" lon="-0.07939">
        <ele>6.6</ele>
        <time>2023-11-22T15:39:40Z</time>
      </trkpt>
      <trkpt lat="49.23729" lon="-0.07951">
        <ele>6.6</ele>
        <time>2023-11-22T15:39:41Z</time>
      </trkpt>
      <trkpt lat="49.23727" lon="-0.07963">
        <ele>6.5</ele>
        <time>2023-11-22T15:39:42Z</time>
      </trkpt>
      <trkpt lat="49.23726" lon="-0.07975">
        <ele>6.5</ele>
        <time>2023-11-22T15:39:43Z</time>
      </trkpt>
      <trkpt lat="49.23724" lon="-0.07987">
        <ele>6.5</ele>
        <time>2023-11-22T15:39:44Z</time>
      </trkpt>
      <trkpt lat="49.23723" lon="-0.07999">
        <ele>6.4</ele>
        <time>2023-11-22T15:39:45Z</time>
      </trkpt>
      <trkpt lat="49.23722" lon="-0.08011">
        <ele>6.4</ele>
        <time>2023-11-22T15:39:46Z</time>
      </trkpt>
      <trkpt lat="49.2372" lon="-0.08023">
        <ele>6.4</ele>
        <time>2023-11-22T15:39:47Z</time>
      </trkpt>
      <trkpt lat="49.2372" lon="-0.08036">
        <ele>6.4</ele>
        <time>2023-11-22T15:39:48Z</time>
      </trkpt>
      <trkpt lat="49.23721" lon="-0.08048">
        <ele>6.4</ele>
        <time>2023-11-22T15:39:49Z</time>
      </trkpt>
      <trkpt lat="49.23723" lon="-0.0806">
        <ele>6.3</ele>
        <time>2023-11-22T15:39:50Z</time>
      </trkpt>
      <trkpt lat="49.23727" lon="-0.0807">
        <ele>6.2</ele>
        <time>2023-11-22T15:39:51Z</time>
      </trkpt>
      <trkpt lat="49.23732" lon="-0.08078">
        <ele>6.2</ele>
        <time>2023-11-22T15:39:52Z</time>
      </trkpt>
      <trkpt lat="49.23737" lon="-0.08085">
        <ele>6.2</ele>
        <time>2023-11-22T15:39:53Z</time>
      </trkpt>
      <trkpt lat="49.23743" lon="-0.08091">
        <ele>6.1</ele>
        <time>2023-11-22T15:39:54Z</time>
      </trkpt>
      <trkpt lat="49.23748" lon="-0.08097">
        <ele>6.2</ele>
        <time>2023-11-22T15:39:55Z</time>
      </trkpt>
      <trkpt lat="49.23754" lon="-0.08104">
        <ele>6.2</ele>
        <time>2023-11-22T15:39:56Z</time>
      </trkpt>
      <trkpt lat="49.23759" lon="-0.08109">
        <ele>6.2</ele>
        <time>2023-11-22T15:39:57Z</time>
      </trkpt>
      <trkpt lat="49.23765" lon="-0.08115">
        <ele>6.2</ele>
        <time>2023-11-22T15:39:58Z</time>
      </trkpt>
      <trkpt lat="49.2377" lon="-0.08122">
        <ele>6.3</ele>
        <time>2023-11-22T15:39:59Z</time>
      </trkpt>
      <trkpt lat="49.23776" lon="-0.08127">
        <ele>6.3</ele>
        <time>2023-11-22T15:40:00Z</time>
      </trkpt>
      <trkpt lat="49.23781" lon="-0.08134">
        <ele>6.4</ele>
        <time>2023-11-22T15:40:01Z</time>
      </trkpt>
      <trkpt lat="49.23787" lon="-0.0814">
        <ele>6.4</ele>
        <time>2023-11-22T15:40:02Z</time>
      </trkpt>
      <trkpt lat="49.23793" lon="-0.08145">
        <ele>6.5</ele>
        <time>2023-11-22T15:40:03Z</time>
      </trkpt>
      <trkpt lat="49.23798" lon="-0.08152">
        <ele>6.6</ele>
        <time>2023-11-22T15:40:04Z</time>
      </trkpt>
      <trkpt lat="49.23804" lon="-0.08158">
        <ele>6.7</ele>
        <time>2023-11-22T15:40:05Z</time>
      </trkpt>
      <trkpt lat="49.23809" lon="-0.08165">
        <ele>6.7</ele>
        <time>2023-11-22T15:40:06Z</time>
      </trkpt>
      <trkpt lat="49.23815" lon="-0.08172">
        <ele>6.9</ele>
        <time>2023-11-22T15:40:07Z</time>
      </trkpt>
      <trkpt lat="49.2382" lon="-0.08178">
        <ele>7</ele>
        <time>2023-11-22T15:40:08Z</time>
      </trkpt>
      <trkpt lat="49.23825" lon="-0.08185">
        <ele>7.1</ele>
        <time>2023-11-22T15:40:09Z</time>
      </trkpt>
      <trkpt lat="49.2383" lon="-0.08192">
        <ele>7.2</ele>
        <time>2023-11-22T15:40:10Z</time>
      </trkpt>
      <trkpt lat="49.23835" lon="-0.08198">
        <ele>7.3</ele>
        <time>2023-11-22T15:40:11Z</time>
      </trkpt>
      <trkpt lat="49.2384" lon="-0.08205">
        <ele>7.4</ele>
        <time>2023-11-22T15:40:12Z</time>
      </trkpt>
      <trkpt lat="49.23844" lon="-0.08212">
        <ele>7.6</ele>
        <time>2023-11-22T15:40:13Z</time>
      </trkpt>
      <trkpt lat="49.23849" lon="-0.08219">
        <ele>7.7</ele>
        <time>2023-11-22T15:40:14Z</time>
      </trkpt>
      <trkpt lat="49.23854" lon="-0.08226">
        <ele>7.9</ele>
        <time>2023-11-22T15:40:15Z</time>
      </trkpt>
      <trkpt lat="49.23858" lon="-0.08233">
        <ele>8</ele>
        <time>2023-11-22T15:40:16Z</time>
      </trkpt>
      <trkpt lat="49.23863" lon="-0.08241">
        <ele>8.2</ele>
        <time>2023-11-22T15:40:17Z</time>
      </trkpt>
      <trkpt lat="49.23869" lon="-0.08249">
        <ele>8.2</ele>
        <time>2023-11-22T15:40:18Z</time>
      </trkpt>
      <trkpt lat="49.23874" lon="-0.08257">
        <ele>8.2</ele>
        <time>2023-11-22T15:40:19Z</time>
      </trkpt>
      <trkpt lat="49.23878" lon="-0.08266">
        <ele>8.2</ele>
        <time>2023-11-22T15:40:20Z</time>
      </trkpt>
      <trkpt lat="49.23883" lon="-0.08277">
        <ele>8.2</ele>
        <time>2023-11-22T15:40:21Z</time>
      </trkpt>
      <trkpt lat="49.23885" lon="-0.0829">
        <ele>8.1</ele>
        <time>2023-11-22T15:40:22Z</time>
      </trkpt>
      <trkpt lat="49.23887" lon="-0.08303">
        <ele>8</ele>
        <time>2023-11-22T15:40:23Z</time>
      </trkpt>
      <trkpt lat="49.23888" lon="-0.08317">
        <ele>7.9</ele>
        <time>2023-11-22T15:40:24Z</time>
      </trkpt>
      <trkpt lat="49.23888" lon="-0.08332">
        <ele>7.8</ele>
        <time>2023-11-22T15:40:25Z</time>
      </trkpt>
      <trkpt lat="49.23888" lon="-0.08347">
        <ele>7.8</ele>
        <time>2023-11-22T15:40:26Z</time>
      </trkpt>
      <trkpt lat="49.23887" lon="-0.08362">
        <ele>7.7</ele>
        <time>2023-11-22T15:40:27Z</time>
      </trkpt>
      <trkpt lat="49.23886" lon="-0.08377">
        <ele>7.7</ele>
        <time>2023-11-22T15:40:28Z</time>
      </trkpt>
      <trkpt lat="49.23885" lon="-0.08391">
        <ele>7.7</ele>
        <time>2023-11-22T15:40:29Z</time>
      </trkpt>
      <trkpt lat="49.23884" lon="-0.08406">
        <ele>7.7</ele>
        <time>2023-11-22T15:40:30Z</time>
      </trkpt>
      <trkpt lat="49.23884" lon="-0.08421">
        <ele>7.7</ele>
        <time>2023-11-22T15:40:31Z</time>
      </trkpt>
      <trkpt lat="49.23885" lon="-0.08435">
        <ele>7.6</ele>
        <time>2023-11-22T15:40:32Z</time>
      </trkpt>
      <trkpt lat="49.23886" lon="-0.0845">
        <ele>7.6</ele>
        <time>2023-11-22T15:40:33Z</time>
      </trkpt>
      <trkpt lat="49.23888" lon="-0.08464">
        <ele>7.6</ele>
        <time>2023-11-22T15:40:34Z</time>
      </trkpt>
      <trkpt lat="49.23891" lon="-0.08477">
        <ele>7.6</ele>
        <time>2023-11-22T15:40:35Z</time>
      </trkpt>
      <trkpt lat="49.23894" lon="-0.08489">
        <ele>7.6</ele>
        <time>2023-11-22T15:40:36Z</time>
      </trkpt>
      <trkpt lat="49.23897" lon="-0.08501">
        <ele>7.6</ele>
        <time>2023-11-22T15:40:37Z</time>
      </trkpt>
      <trkpt lat="49.23901" lon="-0.08513">
        <ele>7.6</ele>
        <time>2023-11-22T15:40:38Z</time>
      </trkpt>
      <trkpt lat="49.23904" lon="-0.08524">
        <ele>7.6</ele>
        <time>2023-11-22T15:40:39Z</time>
      </trkpt>
      <trkpt lat="49.23908" lon="-0.08534">
        <ele>7.6</ele>
        <time>2023-11-22T15:40:40Z</time>
      </trkpt>
      <trkpt lat="49.23911" lon="-0.08545">
        <ele>7.6</ele>
        <time>2023-11-22T15:40:41Z</time>
      </trkpt>
      <trkpt lat="49.23915" lon="-0.08555">
        <ele>7.7</ele>
        <time>2023-11-22T15:40:42Z</time>
      </trkpt>
      <trkpt lat="49.23918" lon="-0.08566">
        <ele>7.6</ele>
        <time>2023-11-22T15:40:43Z</time>
      </trkpt>
      <trkpt lat="49.2392" lon="-0.08577">
        <ele>7.6</ele>
        <time>2023-11-22T15:40:44Z</time>
      </trkpt>
      <trkpt lat="49.23923" lon="-0.08588">
        <ele>7.6</ele>
        <time>2023-11-22T15:40:45Z</time>
      </trkpt>
      <trkpt lat="49.23924" lon="-0.086">
        <ele>7.6</ele>
        <time>2023-11-22T15:40:46Z</time>
      </trkpt>
      <trkpt lat="49.23925" lon="-0.08613">
        <ele>7.6</ele>
        <time>2023-11-22T15:40:47Z</time>
      </trkpt>
      <trkpt lat="49.23926" lon="-0.08625">
        <ele>7.6</ele>
        <time>2023-11-22T15:40:48Z</time>
      </trkpt>
      <trkpt lat="49.23927" lon="-0.08637">
        <ele>7.6</ele>
        <time>2023-11-22T15:40:49Z</time>
      </trkpt>
      <trkpt lat="49.23928" lon="-0.08649">
        <ele>7.6</ele>
        <time>2023-11-22T15:40:50Z</time>
      </trkpt>
      <trkpt lat="49.23929" lon="-0.08661">
        <ele>7.6</ele>
        <time>2023-11-22T15:40:51Z</time>
      </trkpt>
      <trkpt lat="49.23931" lon="-0.08672">
        <ele>7.5</ele>
        <time>2023-11-22T15:40:52Z</time>
      </trkpt>
      <trkpt lat="49.23933" lon="-0.08684">
        <ele>7.5</ele>
        <time>2023-11-22T15:40:53Z</time>
      </trkpt>
      <trkpt lat="49.23935" lon="-0.08696">
        <ele>7.5</ele>
        <time>2023-11-22T15:40:54Z</time>
      </trkpt>
      <trkpt lat="49.23937" lon="-0.08708">
        <ele>7.5</ele>
        <time>2023-11-22T15:40:55Z</time>
      </trkpt>
      <trkpt lat="49.2394" lon="-0.08721">
        <ele>7.5</ele>
        <time>2023-11-22T15:40:56Z</time>
      </trkpt>
      <trkpt lat="49.23942" lon="-0.08733">
        <ele>7.5</ele>
        <time>2023-11-22T15:40:57Z</time>
      </trkpt>
      <trkpt lat="49.23945" lon="-0.08745">
        <ele>7.5</ele>
        <time>2023-11-22T15:40:58Z</time>
      </trkpt>
      <trkpt lat="49.23948" lon="-0.08757">
        <ele>7.5</ele>
        <time>2023-11-22T15:40:59Z</time>
      </trkpt>
      <trkpt lat="49.23951" lon="-0.08768">
        <ele>7.5</ele>
        <time>2023-11-22T15:41:00Z</time>
      </trkpt>
      <trkpt lat="49.23953" lon="-0.08779">
        <ele>7.5</ele>
        <time>2023-11-22T15:41:01Z</time>
      </trkpt>
      <trkpt lat="49.23956" lon="-0.08791">
        <ele>7.5</ele>
        <time>2023-11-22T15:41:02Z</time>
      </trkpt>
      <trkpt lat="49.23959" lon="-0.08802">
        <ele>7.5</ele>
        <time>2023-11-22T15:41:03Z</time>
      </trkpt>
      <trkpt lat="49.23962" lon="-0.08814">
        <ele>7.5</ele>
        <time>2023-11-22T15:41:04Z</time>
      </trkpt>
      <trkpt lat="49.23964" lon="-0.08826">
        <ele>7.4</ele>
        <time>2023-11-22T15:41:05Z</time>
      </trkpt>
      <trkpt lat="49.23966" lon="-0.08838">
        <ele>7.4</ele>
        <time>2023-11-22T15:41:06Z</time>
      </trkpt>
      <trkpt lat="49.23967" lon="-0.0885">
        <ele>7.4</ele>
        <time>2023-11-22T15:41:07Z</time>
      </trkpt>
      <trkpt lat="49.23969" lon="-0.08863">
        <ele>7.3</ele>
        <time>2023-11-22T15:41:08Z</time>
      </trkpt>
      <trkpt lat="49.2397" lon="-0.08875">
        <ele>7.3</ele>
        <time>2023-11-22T15:41:09Z</time>
      </trkpt>
      <trkpt lat="49.23971" lon="-0.08887">
        <ele>7.3</ele>
        <time>2023-11-22T15:41:10Z</time>
      </trkpt>
      <trkpt lat="49.23972" lon="-0.08899">
        <ele>7.3</ele>
        <time>2023-11-22T15:41:11Z</time>
      </trkpt>
      <trkpt lat="49.23974" lon="-0.08911">
        <ele>7.3</ele>
        <time>2023-11-22T15:41:12Z</time>
      </trkpt>
      <trkpt lat="49.23976" lon="-0.08922">
        <ele>7.2</ele>
        <time>2023-11-22T15:41:13Z</time>
      </trkpt>
      <trkpt lat="49.2398" lon="-0.08934">
        <ele>7.2</ele>
        <time>2023-11-22T15:41:14Z</time>
      </trkpt>
      <trkpt lat="49.23984" lon="-0.08945">
        <ele>7.2</ele>
        <time>2023-11-22T15:41:15Z</time>
      </trkpt>
      <trkpt lat="49.23988" lon="-0.08955">
        <ele>7.2</ele>
        <time>2023-11-22T15:41:16Z</time>
      </trkpt>
      <trkpt lat="49.23993" lon="-0.08964">
        <ele>7.1</ele>
        <time>2023-11-22T15:41:17Z</time>
      </trkpt>
      <trkpt lat="49.23999" lon="-0.08972">
        <ele>7.1</ele>
        <time>2023-11-22T15:41:18Z</time>
      </trkpt>
      <trkpt lat="49.24004" lon="-0.08981">
        <ele>7.1</ele>
        <time>2023-11-22T15:41:19Z</time>
      </trkpt>
      <trkpt lat="49.2401" lon="-0.08989">
        <ele>7.1</ele>
        <time>2023-11-22T15:41:20Z</time>
      </trkpt>
      <trkpt lat="49.24016" lon="-0.08998">
        <ele>7.1</ele>
        <time>2023-11-22T15:41:21Z</time>
      </trkpt>
      <trkpt lat="49.24022" lon="-0.09006">
        <ele>7.1</ele>
        <time>2023-11-22T15:41:22Z</time>
      </trkpt>
      <trkpt lat="49.24028" lon="-0.09012">
        <ele>7.1</ele>
        <time>2023-11-22T15:41:23Z</time>
      </trkpt>
      <trkpt lat="49.24034" lon="-0.09018">
        <ele>7.1</ele>
        <time>2023-11-22T15:41:24Z</time>
      </trkpt>
      <trkpt lat="49.24041" lon="-0.09024">
        <ele>7.1</ele>
        <time>2023-11-22T15:41:25Z</time>
      </trkpt>
      <trkpt lat="49.24049" lon="-0.09029">
        <ele>7.1</ele>
        <time>2023-11-22T15:41:26Z</time>
      </trkpt>
      <trkpt lat="49.24057" lon="-0.09033">
        <ele>7.1</ele>
        <time>2023-11-22T15:41:27Z</time>
      </trkpt>
      <trkpt lat="49.24064" lon="-0.09036">
        <ele>7.1</ele>
        <time>2023-11-22T15:41:28Z</time>
      </trkpt>
      <trkpt lat="49.24072" lon="-0.09041">
        <ele>7.1</ele>
        <time>2023-11-22T15:41:29Z</time>
      </trkpt>
      <trkpt lat="49.24079" lon="-0.09046">
        <ele>7.1</ele>
        <time>2023-11-22T15:41:30Z</time>
      </trkpt>
      <trkpt lat="49.24085" lon="-0.09053">
        <ele>7.1</ele>
        <time>2023-11-22T15:41:31Z</time>
      </trkpt>
      <trkpt lat="49.2409" lon="-0.09061">
        <ele>7.1</ele>
        <time>2023-11-22T15:41:32Z</time>
      </trkpt>
      <trkpt lat="49.24095" lon="-0.0907">
        <ele>7.1</ele>
        <time>2023-11-22T15:41:33Z</time>
      </trkpt>
      <trkpt lat="49.241" lon="-0.09081">
        <ele>7.1</ele>
        <time>2023-11-22T15:41:34Z</time>
      </trkpt>
      <trkpt lat="49.24103" lon="-0.09092">
        <ele>7.1</ele>
        <time>2023-11-22T15:41:35Z</time>
      </trkpt>
      <trkpt lat="49.24106" lon="-0.09103">
        <ele>7.1</ele>
        <time>2023-11-22T15:41:36Z</time>
      </trkpt>
      <trkpt lat="49.2411" lon="-0.09114">
        <ele>7.1</ele>
        <time>2023-11-22T15:41:37Z</time>
      </trkpt>
      <trkpt lat="49.24113" lon="-0.09125">
        <ele>7.1</ele>
        <time>2023-11-22T15:41:38Z</time>
      </trkpt>
      <trkpt lat="49.24116" lon="-0.09137">
        <ele>7.1</ele>
        <time>2023-11-22T15:41:39Z</time>
      </trkpt>
      <trkpt lat="49.24119" lon="-0.09149">
        <ele>7.1</ele>
        <time>2023-11-22T15:41:40Z</time>
      </trkpt>
      <trkpt lat="49.24122" lon="-0.09161">
        <ele>7.1</ele>
        <time>2023-11-22T15:41:41Z</time>
      </trkpt>
      <trkpt lat="49.24126" lon="-0.09173">
        <ele>7.2</ele>
        <time>2023-11-22T15:41:42Z</time>
      </trkpt>
      <trkpt lat="49.24129" lon="-0.09186">
        <ele>7.2</ele>
        <time>2023-11-22T15:41:43Z</time>
      </trkpt>
      <trkpt lat="49.24131" lon="-0.09199">
        <ele>7.2</ele>
        <time>2023-11-22T15:41:44Z</time>
      </trkpt>
      <trkpt lat="49.24133" lon="-0.09212">
        <ele>7.2</ele>
        <time>2023-11-22T15:41:45Z</time>
      </trkpt>
      <trkpt lat="49.24136" lon="-0.09225">
        <ele>7.3</ele>
        <time>2023-11-22T15:41:46Z</time>
      </trkpt>
      <trkpt lat="49.24138" lon="-0.09238">
        <ele>7.3</ele>
        <time>2023-11-22T15:41:47Z</time>
      </trkpt>
      <trkpt lat="49.2414" lon="-0.09251">
        <ele>7.3</ele>
        <time>2023-11-22T15:41:48Z</time>
      </trkpt>
      <trkpt lat="49.24142" lon="-0.09265">
        <ele>7.3</ele>
        <time>2023-11-22T15:41:49Z</time>
      </trkpt>
      <trkpt lat="49.24143" lon="-0.09278">
        <ele>7.3</ele>
        <time>2023-11-22T15:41:50Z</time>
      </trkpt>
      <trkpt lat="49.24145" lon="-0.0929">
        <ele>7.4</ele>
        <time>2023-11-22T15:41:51Z</time>
      </trkpt>
      <trkpt lat="49.24147" lon="-0.09303">
        <ele>7.4</ele>
        <time>2023-11-22T15:41:52Z</time>
      </trkpt>
      <trkpt lat="49.24148" lon="-0.09315">
        <ele>7.5</ele>
        <time>2023-11-22T15:41:53Z</time>
      </trkpt>
      <trkpt lat="49.2415" lon="-0.09328">
        <ele>7.5</ele>
        <time>2023-11-22T15:41:54Z</time>
      </trkpt>
      <trkpt lat="49.24152" lon="-0.0934">
        <ele>7.6</ele>
        <time>2023-11-22T15:41:55Z</time>
      </trkpt>
      <trkpt lat="49.24153" lon="-0.09352">
        <ele>7.6</ele>
        <time>2023-11-22T15:41:56Z</time>
      </trkpt>
      <trkpt lat="49.24155" lon="-0.09365">
        <ele>7.7</ele>
        <time>2023-11-22T15:41:57Z</time>
      </trkpt>
      <trkpt lat="49.24156" lon="-0.09377">
        <ele>7.7</ele>
        <time>2023-11-22T15:41:58Z</time>
      </trkpt>
      <trkpt lat="49.24158" lon="-0.09389">
        <ele>7.8</ele>
        <time>2023-11-22T15:41:59Z</time>
      </trkpt>
      <trkpt lat="49.24159" lon="-0.09402">
        <ele>7.8</ele>
        <time>2023-11-22T15:42:00Z</time>
      </trkpt>
      <trkpt lat="49.24161" lon="-0.09414">
        <ele>7.8</ele>
        <time>2023-11-22T15:42:01Z</time>
      </trkpt>
      <trkpt lat="49.24162" lon="-0.09426">
        <ele>7.9</ele>
        <time>2023-11-22T15:42:02Z</time>
      </trkpt>
      <trkpt lat="49.24164" lon="-0.09438">
        <ele>8</ele>
        <time>2023-11-22T15:42:03Z</time>
      </trkpt>
      <trkpt lat="49.24166" lon="-0.0945">
        <ele>8</ele>
        <time>2023-11-22T15:42:04Z</time>
      </trkpt>
      <trkpt lat="49.24168" lon="-0.09462">
        <ele>8.1</ele>
        <time>2023-11-22T15:42:05Z</time>
      </trkpt>
      <trkpt lat="49.2417" lon="-0.09473">
        <ele>8.2</ele>
        <time>2023-11-22T15:42:06Z</time>
      </trkpt>
      <trkpt lat="49.24173" lon="-0.09485">
        <ele>8.3</ele>
        <time>2023-11-22T15:42:07Z</time>
      </trkpt>
      <trkpt lat="49.24176" lon="-0.09496">
        <ele>8.4</ele>
        <time>2023-11-22T15:42:08Z</time>
      </trkpt>
      <trkpt lat="49.24179" lon="-0.09507">
        <ele>8.4</ele>
        <time>2023-11-22T15:42:09Z</time>
      </trkpt>
      <trkpt lat="49.24182" lon="-0.09517">
        <ele>8.5</ele>
        <time>2023-11-22T15:42:10Z</time>
      </trkpt>
      <trkpt lat="49.24186" lon="-0.09528">
        <ele>8.5</ele>
        <time>2023-11-22T15:42:11Z</time>
      </trkpt>
      <trkpt lat="49.24191" lon="-0.09537">
        <ele>8.6</ele>
        <time>2023-11-22T15:42:12Z</time>
      </trkpt>
      <trkpt lat="49.24196" lon="-0.09547">
        <ele>8.6</ele>
        <time>2023-11-22T15:42:13Z</time>
      </trkpt>
      <trkpt lat="49.24201" lon="-0.09557">
        <ele>8.5</ele>
        <time>2023-11-22T15:42:14Z</time>
      </trkpt>
      <trkpt lat="49.24207" lon="-0.09566">
        <ele>8.5</ele>
        <time>2023-11-22T15:42:15Z</time>
      </trkpt>
      <trkpt lat="49.24213" lon="-0.09575">
        <ele>8.5</ele>
        <time>2023-11-22T15:42:16Z</time>
      </trkpt>
      <trkpt lat="49.24219" lon="-0.09583">
        <ele>8.4</ele>
        <time>2023-11-22T15:42:17Z</time>
      </trkpt>
      <trkpt lat="49.24226" lon="-0.09591">
        <ele>8.4</ele>
        <time>2023-11-22T15:42:18Z</time>
      </trkpt>
      <trkpt lat="49.24233" lon="-0.09598">
        <ele>8.4</ele>
        <time>2023-11-22T15:42:19Z</time>
      </trkpt>
      <trkpt lat="49.2424" lon="-0.09605">
        <ele>8.4</ele>
        <time>2023-11-22T15:42:20Z</time>
      </trkpt>
      <trkpt lat="49.24247" lon="-0.09612">
        <ele>8.3</ele>
        <time>2023-11-22T15:42:21Z</time>
      </trkpt>
      <trkpt lat="49.24254" lon="-0.0962">
        <ele>8.3</ele>
        <time>2023-11-22T15:42:22Z</time>
      </trkpt>
      <trkpt lat="49.24261" lon="-0.09627">
        <ele>8.2</ele>
        <time>2023-11-22T15:42:23Z</time>
      </trkpt>
      <trkpt lat="49.24268" lon="-0.09634">
        <ele>8.1</ele>
        <time>2023-11-22T15:42:24Z</time>
      </trkpt>
      <trkpt lat="49.24275" lon="-0.09642">
        <ele>8.1</ele>
        <time>2023-11-22T15:42:25Z</time>
      </trkpt>
      <trkpt lat="49.24281" lon="-0.09649">
        <ele>8</ele>
        <time>2023-11-22T15:42:26Z</time>
      </trkpt>
      <trkpt lat="49.24288" lon="-0.09657">
        <ele>8</ele>
        <time>2023-11-22T15:42:27Z</time>
      </trkpt>
      <trkpt lat="49.24295" lon="-0.09664">
        <ele>8</ele>
        <time>2023-11-22T15:42:28Z</time>
      </trkpt>
      <trkpt lat="49.24301" lon="-0.09671">
        <ele>8</ele>
        <time>2023-11-22T15:42:29Z</time>
      </trkpt>
      <trkpt lat="49.24308" lon="-0.09679">
        <ele>8</ele>
        <time>2023-11-22T15:42:30Z</time>
      </trkpt>
      <trkpt lat="49.24316" lon="-0.09686">
        <ele>8.1</ele>
        <time>2023-11-22T15:42:31Z</time>
      </trkpt>
      <trkpt lat="49.24322" lon="-0.09693">
        <ele>8.2</ele>
        <time>2023-11-22T15:42:32Z</time>
      </trkpt>
      <trkpt lat="49.24329" lon="-0.097">
        <ele>8.3</ele>
        <time>2023-11-22T15:42:33Z</time>
      </trkpt>
      <trkpt lat="49.24336" lon="-0.09707">
        <ele>8.5</ele>
        <time>2023-11-22T15:42:34Z</time>
      </trkpt>
      <trkpt lat="49.24343" lon="-0.09714">
        <ele>8.7</ele>
        <time>2023-11-22T15:42:35Z</time>
      </trkpt>
      <trkpt lat="49.24349" lon="-0.09721">
        <ele>8.9</ele>
        <time>2023-11-22T15:42:36Z</time>
      </trkpt>
      <trkpt lat="49.24355" lon="-0.09728">
        <ele>9.1</ele>
        <time>2023-11-22T15:42:37Z</time>
      </trkpt>
      <trkpt lat="49.24361" lon="-0.09735">
        <ele>9.3</ele>
        <time>2023-11-22T15:42:38Z</time>
      </trkpt>
      <trkpt lat="49.24367" lon="-0.09742">
        <ele>9.6</ele>
        <time>2023-11-22T15:42:39Z</time>
      </trkpt>
      <trkpt lat="49.24372" lon="-0.09748">
        <ele>9.8</ele>
        <time>2023-11-22T15:42:40Z</time>
      </trkpt>
      <trkpt lat="49.24377" lon="-0.09755">
        <ele>10</ele>
        <time>2023-11-22T15:42:41Z</time>
      </trkpt>
      <trkpt lat="49.24383" lon="-0.09763">
        <ele>10.2</ele>
        <time>2023-11-22T15:42:42Z</time>
      </trkpt>
      <trkpt lat="49.24388" lon="-0.0977">
        <ele>10.5</ele>
        <time>2023-11-22T15:42:43Z</time>
      </trkpt>
      <trkpt lat="49.24392" lon="-0.09778">
        <ele>10.7</ele>
        <time>2023-11-22T15:42:44Z</time>
      </trkpt>
      <trkpt lat="49.24396" lon="-0.09787">
        <ele>10.9</ele>
        <time>2023-11-22T15:42:45Z</time>
      </trkpt>
      <trkpt lat="49.24399" lon="-0.09796">
        <ele>11.1</ele>
        <time>2023-11-22T15:42:46Z</time>
      </trkpt>
      <trkpt lat="49.24403" lon="-0.09806">
        <ele>11.3</ele>
        <time>2023-11-22T15:42:47Z</time>
      </trkpt>
      <trkpt lat="49.24406" lon="-0.09816">
        <ele>11.4</ele>
        <time>2023-11-22T15:42:48Z</time>
      </trkpt>
      <trkpt lat="49.24409" lon="-0.09827">
        <ele>11.6</ele>
        <time>2023-11-22T15:42:49Z</time>
      </trkpt>
      <trkpt lat="49.24411" lon="-0.09837">
        <ele>11.8</ele>
        <time>2023-11-22T15:42:50Z</time>
      </trkpt>
      <trkpt lat="49.24413" lon="-0.09848">
        <ele>11.9</ele>
        <time>2023-11-22T15:42:51Z</time>
      </trkpt>
      <trkpt lat="49.24416" lon="-0.09859">
        <ele>12.1</ele>
        <time>2023-11-22T15:42:52Z</time>
      </trkpt>
      <trkpt lat="49.24419" lon="-0.09869">
        <ele>12.2</ele>
        <time>2023-11-22T15:42:53Z</time>
      </trkpt>
      <trkpt lat="49.24421" lon="-0.0988">
        <ele>12.4</ele>
        <time>2023-11-22T15:42:54Z</time>
      </trkpt>
      <trkpt lat="49.24424" lon="-0.09891">
        <ele>12.5</ele>
        <time>2023-11-22T15:42:55Z</time>
      </trkpt>
      <trkpt lat="49.24426" lon="-0.09902">
        <ele>12.5</ele>
        <time>2023-11-22T15:42:56Z</time>
      </trkpt>
      <trkpt lat="49.24429" lon="-0.09913">
        <ele>12.5</ele>
        <time>2023-11-22T15:42:57Z</time>
      </trkpt>
      <trkpt lat="49.24432" lon="-0.09924">
        <ele>12.5</ele>
        <time>2023-11-22T15:42:58Z</time>
      </trkpt>
      <trkpt lat="49.24435" lon="-0.09936">
        <ele>12.4</ele>
        <time>2023-11-22T15:42:59Z</time>
      </trkpt>
      <trkpt lat="49.24439" lon="-0.09947">
        <ele>12.3</ele>
        <time>2023-11-22T15:43:00Z</time>
      </trkpt>
      <trkpt lat="49.24442" lon="-0.09959">
        <ele>12</ele>
        <time>2023-11-22T15:43:01Z</time>
      </trkpt>
      <trkpt lat="49.24447" lon="-0.0997">
        <ele>11.8</ele>
        <time>2023-11-22T15:43:02Z</time>
      </trkpt>
      <trkpt lat="49.24452" lon="-0.09981">
        <ele>11.5</ele>
        <time>2023-11-22T15:43:03Z</time>
      </trkpt>
      <trkpt lat="49.24459" lon="-0.09992">
        <ele>11.1</ele>
        <time>2023-11-22T15:43:04Z</time>
      </trkpt>
      <trkpt lat="49.24466" lon="-0.1">
        <ele>10.7</ele>
        <time>2023-11-22T15:43:05Z</time>
      </trkpt>
      <trkpt lat="49.24475" lon="-0.10008">
        <ele>10.4</ele>
        <time>2023-11-22T15:43:06Z</time>
      </trkpt>
      <trkpt lat="49.24484" lon="-0.10016">
        <ele>10.1</ele>
        <time>2023-11-22T15:43:07Z</time>
      </trkpt>
      <trkpt lat="49.24493" lon="-0.10024">
        <ele>9.7</ele>
        <time>2023-11-22T15:43:08Z</time>
      </trkpt>
      <trkpt lat="49.24502" lon="-0.10031">
        <ele>9.2</ele>
        <time>2023-11-22T15:43:09Z</time>
      </trkpt>
      <trkpt lat="49.24511" lon="-0.10039">
        <ele>8.8</ele>
        <time>2023-11-22T15:43:10Z</time>
      </trkpt>
      <trkpt lat="49.2452" lon="-0.10046">
        <ele>8.3</ele>
        <time>2023-11-22T15:43:11Z</time>
      </trkpt>
      <trkpt lat="49.24529" lon="-0.10053">
        <ele>7.9</ele>
        <time>2023-11-22T15:43:12Z</time>
      </trkpt>
      <trkpt lat="49.24538" lon="-0.10059">
        <ele>7.4</ele>
        <time>2023-11-22T15:43:13Z</time>
      </trkpt>
      <trkpt lat="49.24547" lon="-0.10066">
        <ele>7</ele>
        <time>2023-11-22T15:43:14Z</time>
      </trkpt>
      <trkpt lat="49.24557" lon="-0.10073">
        <ele>6.6</ele>
        <time>2023-11-22T15:43:15Z</time>
      </trkpt>
      <trkpt lat="49.24566" lon="-0.1008">
        <ele>6.3</ele>
        <time>2023-11-22T15:43:16Z</time>
      </trkpt>
      <trkpt lat="49.24576" lon="-0.10088">
        <ele>6.2</ele>
        <time>2023-11-22T15:43:17Z</time>
      </trkpt>
      <trkpt lat="49.24585" lon="-0.10095">
        <ele>5.8</ele>
        <time>2023-11-22T15:43:18Z</time>
      </trkpt>
      <trkpt lat="49.24594" lon="-0.10102">
        <ele>5.5</ele>
        <time>2023-11-22T15:43:19Z</time>
      </trkpt>
      <trkpt lat="49.24603" lon="-0.1011">
        <ele>5.3</ele>
        <time>2023-11-22T15:43:20Z</time>
      </trkpt>
      <trkpt lat="49.24613" lon="-0.10117">
        <ele>5.1</ele>
        <time>2023-11-22T15:43:21Z</time>
      </trkpt>
      <trkpt lat="49.24622" lon="-0.10124">
        <ele>4.9</ele>
        <time>2023-11-22T15:43:22Z</time>
      </trkpt>
      <trkpt lat="49.24631" lon="-0.10131">
        <ele>4.7</ele>
        <time>2023-11-22T15:43:23Z</time>
      </trkpt>
      <trkpt lat="49.2464" lon="-0.10137">
        <ele>4.6</ele>
        <time>2023-11-22T15:43:24Z</time>
      </trkpt>
      <trkpt lat="49.24649" lon="-0.10144">
        <ele>4.6</ele>
        <time>2023-11-22T15:43:25Z</time>
      </trkpt>
      <trkpt lat="49.24658" lon="-0.1015">
        <ele>4.5</ele>
        <time>2023-11-22T15:43:26Z</time>
      </trkpt>
      <trkpt lat="49.24667" lon="-0.10157">
        <ele>4.5</ele>
        <time>2023-11-22T15:43:27Z</time>
      </trkpt>
      <trkpt lat="49.24675" lon="-0.10163">
        <ele>4.6</ele>
        <time>2023-11-22T15:43:28Z</time>
      </trkpt>
      <trkpt lat="49.24684" lon="-0.1017">
        <ele>4.6</ele>
        <time>2023-11-22T15:43:29Z</time>
      </trkpt>
      <trkpt lat="49.24692" lon="-0.10176">
        <ele>4.7</ele>
        <time>2023-11-22T15:43:30Z</time>
      </trkpt>
      <trkpt lat="49.247" lon="-0.10183">
        <ele>4.7</ele>
        <time>2023-11-22T15:43:31Z</time>
      </trkpt>
      <trkpt lat="49.24708" lon="-0.1019">
        <ele>4.7</ele>
        <time>2023-11-22T15:43:32Z</time>
      </trkpt>
      <trkpt lat="49.24716" lon="-0.10197">
        <ele>4.8</ele>
        <time>2023-11-22T15:43:33Z</time>
      </trkpt>
      <trkpt lat="49.24724" lon="-0.10203">
        <ele>4.9</ele>
        <time>2023-11-22T15:43:34Z</time>
      </trkpt>
      <trkpt lat="49.24732" lon="-0.10209">
        <ele>4.9</ele>
        <time>2023-11-22T15:43:35Z</time>
      </trkpt>
      <trkpt lat="49.24739" lon="-0.10215">
        <ele>5</ele>
        <time>2023-11-22T15:43:36Z</time>
      </trkpt>
      <trkpt lat="49.24747" lon="-0.10221">
        <ele>5.1</ele>
        <time>2023-11-22T15:43:37Z</time>
      </trkpt>
      <trkpt lat="49.24754" lon="-0.10227">
        <ele>5.2</ele>
        <time>2023-11-22T15:43:38Z</time>
      </trkpt>
      <trkpt lat="49.24762" lon="-0.10233">
        <ele>5.3</ele>
        <time>2023-11-22T15:43:39Z</time>
      </trkpt>
      <trkpt lat="49.2477" lon="-0.10238">
        <ele>5.5</ele>
        <time>2023-11-22T15:43:40Z</time>
      </trkpt>
      <trkpt lat="49.24777" lon="-0.10244">
        <ele>5.6</ele>
        <time>2023-11-22T15:43:41Z</time>
      </trkpt>
      <trkpt lat="49.24785" lon="-0.1025">
        <ele>5.7</ele>
        <time>2023-11-22T15:43:42Z</time>
      </trkpt>
      <trkpt lat="49.24792" lon="-0.10255">
        <ele>5.8</ele>
        <time>2023-11-22T15:43:43Z</time>
      </trkpt>
      <trkpt lat="49.248" lon="-0.10261">
        <ele>5.9</ele>
        <time>2023-11-22T15:43:44Z</time>
      </trkpt>
      <trkpt lat="49.24807" lon="-0.10266">
        <ele>6</ele>
        <time>2023-11-22T15:43:45Z</time>
      </trkpt>
      <trkpt lat="49.24815" lon="-0.10271">
        <ele>6.1</ele>
        <time>2023-11-22T15:43:46Z</time>
      </trkpt>
      <trkpt lat="49.24822" lon="-0.10276">
        <ele>6.1</ele>
        <time>2023-11-22T15:43:47Z</time>
      </trkpt>
      <trkpt lat="49.2483" lon="-0.10281">
        <ele>6.2</ele>
        <time>2023-11-22T15:43:48Z</time>
      </trkpt>
      <trkpt lat="49.24837" lon="-0.10284">
        <ele>6.2</ele>
        <time>2023-11-22T15:43:49Z</time>
      </trkpt>
      <trkpt lat="49.24844" lon="-0.10288">
        <ele>6.2</ele>
        <time>2023-11-22T15:43:50Z</time>
      </trkpt>
      <trkpt lat="49.24852" lon="-0.1029">
        <ele>6.3</ele>
        <time>2023-11-22T15:43:51Z</time>
      </trkpt>
      <trkpt lat="49.24859" lon="-0.10292">
        <ele>6.3</ele>
        <time>2023-11-22T15:43:52Z</time>
      </trkpt>
      <trkpt lat="49.24867" lon="-0.10293">
        <ele>6.4</ele>
        <time>2023-11-22T15:43:53Z</time>
      </trkpt>
      <trkpt lat="49.24875" lon="-0.10293">
        <ele>6.4</ele>
        <time>2023-11-22T15:43:54Z</time>
      </trkpt>
      <trkpt lat="49.24884" lon="-0.10292">
        <ele>6.4</ele>
        <time>2023-11-22T15:43:55Z</time>
      </trkpt>
      <trkpt lat="49.24892" lon="-0.1029">
        <ele>6.4</ele>
        <time>2023-11-22T15:43:56Z</time>
      </trkpt>
      <trkpt lat="49.24899" lon="-0.10287">
        <ele>6.3</ele>
        <time>2023-11-22T15:43:57Z</time>
      </trkpt>
      <trkpt lat="49.24906" lon="-0.10282">
        <ele>6.3</ele>
        <time>2023-11-22T15:43:58Z</time>
      </trkpt>
      <trkpt lat="49.24914" lon="-0.10277">
        <ele>6.2</ele>
        <time>2023-11-22T15:43:59Z</time>
      </trkpt>
      <trkpt lat="49.24922" lon="-0.10271">
        <ele>6.1</ele>
        <time>2023-11-22T15:44:00Z</time>
      </trkpt>
      <trkpt lat="49.24929" lon="-0.10263">
        <ele>6</ele>
        <time>2023-11-22T15:44:01Z</time>
      </trkpt>
      <trkpt lat="49.24936" lon="-0.10254">
        <ele>5.9</ele>
        <time>2023-11-22T15:44:02Z</time>
      </trkpt>
      <trkpt lat="49.24942" lon="-0.10244">
        <ele>5.8</ele>
        <time>2023-11-22T15:44:03Z</time>
      </trkpt>
      <trkpt lat="49.24947" lon="-0.10233">
        <ele>5.7</ele>
        <time>2023-11-22T15:44:04Z</time>
      </trkpt>
      <trkpt lat="49.24952" lon="-0.10223">
        <ele>5.7</ele>
        <time>2023-11-22T15:44:05Z</time>
      </trkpt>
      <trkpt lat="49.24957" lon="-0.10212">
        <ele>5.6</ele>
        <time>2023-11-22T15:44:06Z</time>
      </trkpt>
      <trkpt lat="49.24961" lon="-0.10201">
        <ele>5.6</ele>
        <time>2023-11-22T15:44:07Z</time>
      </trkpt>
      <trkpt lat="49.24965" lon="-0.1019">
        <ele>5.6</ele>
        <time>2023-11-22T15:44:08Z</time>
      </trkpt>
      <trkpt lat="49.24969" lon="-0.10178">
        <ele>5.6</ele>
        <time>2023-11-22T15:44:09Z</time>
      </trkpt>
      <trkpt lat="49.24973" lon="-0.10167">
        <ele>5.6</ele>
        <time>2023-11-22T15:44:10Z</time>
      </trkpt>
      <trkpt lat="49.24978" lon="-0.10156">
        <ele>5.6</ele>
        <time>2023-11-22T15:44:11Z</time>
      </trkpt>
      <trkpt lat="49.24982" lon="-0.10145">
        <ele>5.5</ele>
        <time>2023-11-22T15:44:12Z</time>
      </trkpt>
      <trkpt lat="49.24986" lon="-0.10135">
        <ele>5.5</ele>
        <time>2023-11-22T15:44:13Z</time>
      </trkpt>
      <trkpt lat="49.2499" lon="-0.10124">
        <ele>5.4</ele>
        <time>2023-11-22T15:44:14Z</time>
      </trkpt>
      <trkpt lat="49.24994" lon="-0.10113">
        <ele>5.3</ele>
        <time>2023-11-22T15:44:15Z</time>
      </trkpt>
      <trkpt lat="49.24998" lon="-0.10101">
        <ele>5.2</ele>
        <time>2023-11-22T15:44:16Z</time>
      </trkpt>
      <trkpt lat="49.25002" lon="-0.10091">
        <ele>5.1</ele>
        <time>2023-11-22T15:44:17Z</time>
      </trkpt>
      <trkpt lat="49.25007" lon="-0.10079">
        <ele>5.1</ele>
        <time>2023-11-22T15:44:18Z</time>
      </trkpt>
      <trkpt lat="49.25011" lon="-0.10067">
        <ele>5</ele>
        <time>2023-11-22T15:44:19Z</time>
      </trkpt>
      <trkpt lat="49.25016" lon="-0.10055">
        <ele>4.9</ele>
        <time>2023-11-22T15:44:20Z</time>
      </trkpt>
      <trkpt lat="49.2502" lon="-0.10043">
        <ele>4.9</ele>
        <time>2023-11-22T15:44:21Z</time>
      </trkpt>
      <trkpt lat="49.25025" lon="-0.10031">
        <ele>4.8</ele>
        <time>2023-11-22T15:44:22Z</time>
      </trkpt>
      <trkpt lat="49.25029" lon="-0.10019">
        <ele>4.7</ele>
        <time>2023-11-22T15:44:23Z</time>
      </trkpt>
      <trkpt lat="49.25034" lon="-0.10007">
        <ele>4.7</ele>
        <time>2023-11-22T15:44:24Z</time>
      </trkpt>
      <trkpt lat="49.25038" lon="-0.09994">
        <ele>4.6</ele>
        <time>2023-11-22T15:44:25Z</time>
      </trkpt>
      <trkpt lat="49.25043" lon="-0.09981">
        <ele>4.5</ele>
        <time>2023-11-22T15:44:26Z</time>
      </trkpt>
      <trkpt lat="49.25047" lon="-0.09969">
        <ele>4.5</ele>
        <time>2023-11-22T15:44:27Z</time>
      </trkpt>
      <trkpt lat="49.25051" lon="-0.09956">
        <ele>4.5</ele>
        <time>2023-11-22T15:44:28Z</time>
      </trkpt>
      <trkpt lat="49.25055" lon="-0.09943">
        <ele>4.4</ele>
        <time>2023-11-22T15:44:29Z</time>
      </trkpt>
      <trkpt lat="49.2506" lon="-0.09931">
        <ele>4.4</ele>
        <time>2023-11-22T15:44:30Z</time>
      </trkpt>
      <trkpt lat="49.25064" lon="-0.09919">
        <ele>4.4</ele>
        <time>2023-11-22T15:44:31Z</time>
      </trkpt>
      <trkpt lat="49.25069" lon="-0.09907">
        <ele>4.3</ele>
        <time>2023-11-22T15:44:32Z</time>
      </trkpt>
      <trkpt lat="49.25073" lon="-0.09894">
        <ele>4.3</ele>
        <time>2023-11-22T15:44:33Z</time>
      </trkpt>
      <trkpt lat="49.25078" lon="-0.09881">
        <ele>4.3</ele>
        <time>2023-11-22T15:44:34Z</time>
      </trkpt>
      <trkpt lat="49.25083" lon="-0.09869">
        <ele>4.2</ele>
        <time>2023-11-22T15:44:35Z</time>
      </trkpt>
      <trkpt lat="49.25087" lon="-0.09857">
        <ele>4.2</ele>
        <time>2023-11-22T15:44:36Z</time>
      </trkpt>
      <trkpt lat="49.25092" lon="-0.09845">
        <ele>4.2</ele>
        <time>2023-11-22T15:44:37Z</time>
      </trkpt>
      <trkpt lat="49.25097" lon="-0.09833">
        <ele>4.3</ele>
        <time>2023-11-22T15:44:38Z</time>
      </trkpt>
      <trkpt lat="49.25101" lon="-0.0982">
        <ele>4.3</ele>
        <time>2023-11-22T15:44:39Z</time>
      </trkpt>
      <trkpt lat="49.25106" lon="-0.09808">
        <ele>4.3</ele>
        <time>2023-11-22T15:44:40Z</time>
      </trkpt>
      <trkpt lat="49.25111" lon="-0.09796">
        <ele>4.4</ele>
        <time>2023-11-22T15:44:41Z</time>
      </trkpt>
      <trkpt lat="49.25115" lon="-0.09785">
        <ele>4.4</ele>
        <time>2023-11-22T15:44:42Z</time>
      </trkpt>
      <trkpt lat="49.2512" lon="-0.09773">
        <ele>4.5</ele>
        <time>2023-11-22T15:44:43Z</time>
      </trkpt>
      <trkpt lat="49.25125" lon="-0.09762">
        <ele>4.5</ele>
        <time>2023-11-22T15:44:44Z</time>
      </trkpt>
      <trkpt lat="49.25131" lon="-0.09752">
        <ele>4.6</ele>
        <time>2023-11-22T15:44:45Z</time>
      </trkpt>
      <trkpt lat="49.25138" lon="-0.09742">
        <ele>4.7</ele>
        <time>2023-11-22T15:44:46Z</time>
      </trkpt>
      <trkpt lat="49.25145" lon="-0.09735">
        <ele>4.7</ele>
        <time>2023-11-22T15:44:47Z</time>
      </trkpt>
      <trkpt lat="49.25153" lon="-0.09729">
        <ele>4.8</ele>
        <time>2023-11-22T15:44:48Z</time>
      </trkpt>
      <trkpt lat="49.25162" lon="-0.09725">
        <ele>4.8</ele>
        <time>2023-11-22T15:44:49Z</time>
      </trkpt>
      <trkpt lat="49.2517" lon="-0.09722">
        <ele>4.9</ele>
        <time>2023-11-22T15:44:50Z</time>
      </trkpt>
      <trkpt lat="49.25179" lon="-0.09718">
        <ele>5</ele>
        <time>2023-11-22T15:44:51Z</time>
      </trkpt>
      <trkpt lat="49.25188" lon="-0.09715">
        <ele>5.1</ele>
        <time>2023-11-22T15:44:52Z</time>
      </trkpt>
      <trkpt lat="49.25197" lon="-0.09712">
        <ele>5.2</ele>
        <time>2023-11-22T15:44:53Z</time>
      </trkpt>
      <trkpt lat="49.25206" lon="-0.09709">
        <ele>5.2</ele>
        <time>2023-11-22T15:44:54Z</time>
      </trkpt>
      <trkpt lat="49.25214" lon="-0.09705">
        <ele>5.3</ele>
        <time>2023-11-22T15:44:55Z</time>
      </trkpt>
      <trkpt lat="49.25223" lon="-0.09702">
        <ele>5.4</ele>
        <time>2023-11-22T15:44:56Z</time>
      </trkpt>
      <trkpt lat="49.25232" lon="-0.09699">
        <ele>5.4</ele>
        <time>2023-11-22T15:44:57Z</time>
      </trkpt>
      <trkpt lat="49.2524" lon="-0.09695">
        <ele>5.4</ele>
        <time>2023-11-22T15:44:58Z</time>
      </trkpt>
      <trkpt lat="49.25249" lon="-0.09691">
        <ele>5.5</ele>
        <time>2023-11-22T15:44:59Z</time>
      </trkpt>
      <trkpt lat="49.25258" lon="-0.09686">
        <ele>5.5</ele>
        <time>2023-11-22T15:45:00Z</time>
      </trkpt>
      <trkpt lat="49.25266" lon="-0.09679">
        <ele>5.4</ele>
        <time>2023-11-22T15:45:01Z</time>
      </trkpt>
      <trkpt lat="49.25274" lon="-0.09671">
        <ele>5.4</ele>
        <time>2023-11-22T15:45:02Z</time>
      </trkpt>
      <trkpt lat="49.25282" lon="-0.09663">
        <ele>5.4</ele>
        <time>2023-11-22T15:45:03Z</time>
      </trkpt>
      <trkpt lat="49.2529" lon="-0.09655">
        <ele>5.4</ele>
        <time>2023-11-22T15:45:04Z</time>
      </trkpt>
      <trkpt lat="49.25297" lon="-0.09647">
        <ele>5.3</ele>
        <time>2023-11-22T15:45:05Z</time>
      </trkpt>
      <trkpt lat="49.25305" lon="-0.0964">
        <ele>5.3</ele>
        <time>2023-11-22T15:45:06Z</time>
      </trkpt>
      <trkpt lat="49.25314" lon="-0.09634">
        <ele>5.3</ele>
        <time>2023-11-22T15:45:07Z</time>
      </trkpt>
      <trkpt lat="49.25322" lon="-0.0963">
        <ele>5.2</ele>
        <time>2023-11-22T15:45:08Z</time>
      </trkpt>
      <trkpt lat="49.25331" lon="-0.09627">
        <ele>5.2</ele>
        <time>2023-11-22T15:45:09Z</time>
      </trkpt>
      <trkpt lat="49.2534" lon="-0.09624">
        <ele>5.1</ele>
        <time>2023-11-22T15:45:10Z</time>
      </trkpt>
      <trkpt lat="49.25349" lon="-0.09622">
        <ele>5.1</ele>
        <time>2023-11-22T15:45:11Z</time>
      </trkpt>
      <trkpt lat="49.25359" lon="-0.09621">
        <ele>5.1</ele>
        <time>2023-11-22T15:45:12Z</time>
      </trkpt>
      <trkpt lat="49.25368" lon="-0.0962">
        <ele>5.1</ele>
        <time>2023-11-22T15:45:13Z</time>
      </trkpt>
      <trkpt lat="49.25376" lon="-0.09618">
        <ele>5.1</ele>
        <time>2023-11-22T15:45:14Z</time>
      </trkpt>
      <trkpt lat="49.25385" lon="-0.09617">
        <ele>5.1</ele>
        <time>2023-11-22T15:45:15Z</time>
      </trkpt>
      <trkpt lat="49.25395" lon="-0.09615">
        <ele>5.1</ele>
        <time>2023-11-22T15:45:16Z</time>
      </trkpt>
      <trkpt lat="49.25404" lon="-0.09612">
        <ele>5.2</ele>
        <time>2023-11-22T15:45:17Z</time>
      </trkpt>
      <trkpt lat="49.25413" lon="-0.0961">
        <ele>5.2</ele>
        <time>2023-11-22T15:45:18Z</time>
      </trkpt>
      <trkpt lat="49.25422" lon="-0.09609">
        <ele>5.3</ele>
        <time>2023-11-22T15:45:19Z</time>
      </trkpt>
      <trkpt lat="49.25432" lon="-0.09607">
        <ele>5.3</ele>
        <time>2023-11-22T15:45:20Z</time>
      </trkpt>
      <trkpt lat="49.25441" lon="-0.09605">
        <ele>5.4</ele>
        <time>2023-11-22T15:45:21Z</time>
      </trkpt>
      <trkpt lat="49.2545" lon="-0.09603">
        <ele>5.5</ele>
        <time>2023-11-22T15:45:22Z</time>
      </trkpt>
      <trkpt lat="49.2546" lon="-0.09601">
        <ele>5.6</ele>
        <time>2023-11-22T15:45:23Z</time>
      </trkpt>
      <trkpt lat="49.25469" lon="-0.096">
        <ele>5.7</ele>
        <time>2023-11-22T15:45:24Z</time>
      </trkpt>
      <trkpt lat="49.25478" lon="-0.09598">
        <ele>5.8</ele>
        <time>2023-11-22T15:45:25Z</time>
      </trkpt>
      <trkpt lat="49.25488" lon="-0.09597">
        <ele>5.9</ele>
        <time>2023-11-22T15:45:26Z</time>
      </trkpt>
      <trkpt lat="49.25497" lon="-0.09595">
        <ele>5.9</ele>
        <time>2023-11-22T15:45:27Z</time>
      </trkpt>
      <trkpt lat="49.25506" lon="-0.09594">
        <ele>6</ele>
        <time>2023-11-22T15:45:28Z</time>
      </trkpt>
      <trkpt lat="49.25516" lon="-0.09593">
        <ele>6.2</ele>
        <time>2023-11-22T15:45:29Z</time>
      </trkpt>
      <trkpt lat="49.25525" lon="-0.09593">
        <ele>6.3</ele>
        <time>2023-11-22T15:45:30Z</time>
      </trkpt>
      <trkpt lat="49.25534" lon="-0.09593">
        <ele>6.4</ele>
        <time>2023-11-22T15:45:31Z</time>
      </trkpt>
      <trkpt lat="49.25543" lon="-0.09593">
        <ele>6.5</ele>
        <time>2023-11-22T15:45:32Z</time>
      </trkpt>
      <trkpt lat="49.25552" lon="-0.09593">
        <ele>6.6</ele>
        <time>2023-11-22T15:45:33Z</time>
      </trkpt>
      <trkpt lat="49.25561" lon="-0.09594">
        <ele>6.7</ele>
        <time>2023-11-22T15:45:34Z</time>
      </trkpt>
      <trkpt lat="49.25571" lon="-0.09594">
        <ele>6.8</ele>
        <time>2023-11-22T15:45:35Z</time>
      </trkpt>
      <trkpt lat="49.2558" lon="-0.09594">
        <ele>6.9</ele>
        <time>2023-11-22T15:45:36Z</time>
      </trkpt>
      <trkpt lat="49.25589" lon="-0.09594">
        <ele>7</ele>
        <time>2023-11-22T15:45:37Z</time>
      </trkpt>
      <trkpt lat="49.25599" lon="-0.09594">
        <ele>7.1</ele>
        <time>2023-11-22T15:45:38Z</time>
      </trkpt>
      <trkpt lat="49.25608" lon="-0.09594">
        <ele>7.1</ele>
        <time>2023-11-22T15:45:39Z</time>
      </trkpt>
      <trkpt lat="49.25617" lon="-0.09593">
        <ele>7.2</ele>
        <time>2023-11-22T15:45:40Z</time>
      </trkpt>
      <trkpt lat="49.25626" lon="-0.09592">
        <ele>7.2</ele>
        <time>2023-11-22T15:45:41Z</time>
      </trkpt>
      <trkpt lat="49.25636" lon="-0.09589">
        <ele>7.3</ele>
        <time>2023-11-22T15:45:42Z</time>
      </trkpt>
      <trkpt lat="49.25645" lon="-0.09585">
        <ele>7.3</ele>
        <time>2023-11-22T15:45:43Z</time>
      </trkpt>
      <trkpt lat="49.25654" lon="-0.0958">
        <ele>7.3</ele>
        <time>2023-11-22T15:45:44Z</time>
      </trkpt>
      <trkpt lat="49.25662" lon="-0.09575">
        <ele>7.3</ele>
        <time>2023-11-22T15:45:45Z</time>
      </trkpt>
      <trkpt lat="49.25671" lon="-0.09569">
        <ele>7.4</ele>
        <time>2023-11-22T15:45:46Z</time>
      </trkpt>
      <trkpt lat="49.2568" lon="-0.09563">
        <ele>7.4</ele>
        <time>2023-11-22T15:45:47Z</time>
      </trkpt>
      <trkpt lat="49.25688" lon="-0.09557">
        <ele>7.5</ele>
        <time>2023-11-22T15:45:48Z</time>
      </trkpt>
      <trkpt lat="49.25697" lon="-0.09551">
        <ele>7.5</ele>
        <time>2023-11-22T15:45:49Z</time>
      </trkpt>
      <trkpt lat="49.25705" lon="-0.09546">
        <ele>7.6</ele>
        <time>2023-11-22T15:45:50Z</time>
      </trkpt>
      <trkpt lat="49.25714" lon="-0.09539">
        <ele>7.6</ele>
        <time>2023-11-22T15:45:51Z</time>
      </trkpt>
      <trkpt lat="49.25722" lon="-0.09533">
        <ele>7.7</ele>
        <time>2023-11-22T15:45:52Z</time>
      </trkpt>
      <trkpt lat="49.25731" lon="-0.09527">
        <ele>7.7</ele>
        <time>2023-11-22T15:45:53Z</time>
      </trkpt>
      <trkpt lat="49.25739" lon="-0.0952">
        <ele>7.8</ele>
        <time>2023-11-22T15:45:54Z</time>
      </trkpt>
      <trkpt lat="49.25747" lon="-0.09514">
        <ele>7.9</ele>
        <time>2023-11-22T15:45:55Z</time>
      </trkpt>
      <trkpt lat="49.25756" lon="-0.09508">
        <ele>8.1</ele>
        <time>2023-11-22T15:45:56Z</time>
      </trkpt>
      <trkpt lat="49.25764" lon="-0.09502">
        <ele>8.2</ele>
        <time>2023-11-22T15:45:57Z</time>
      </trkpt>
      <trkpt lat="49.25772" lon="-0.09496">
        <ele>8.4</ele>
        <time>2023-11-22T15:45:58Z</time>
      </trkpt>
      <trkpt lat="49.2578" lon="-0.09491">
        <ele>8.5</ele>
        <time>2023-11-22T15:45:59Z</time>
      </trkpt>
      <trkpt lat="49.25787" lon="-0.09487">
        <ele>8.5</ele>
        <time>2023-11-22T15:46:00Z</time>
      </trkpt>
      <trkpt lat="49.25795" lon="-0.09483">
        <ele>8.5</ele>
        <time>2023-11-22T15:46:01Z</time>
      </trkpt>
      <trkpt lat="49.25803" lon="-0.09481">
        <ele>8.5</ele>
        <time>2023-11-22T15:46:02Z</time>
      </trkpt>
      <trkpt lat="49.2581" lon="-0.0948">
        <ele>8.5</ele>
        <time>2023-11-22T15:46:03Z</time>
      </trkpt>
      <trkpt lat="49.25817" lon="-0.09479">
        <ele>8.5</ele>
        <time>2023-11-22T15:46:04Z</time>
      </trkpt>
      <trkpt lat="49.25824" lon="-0.09478">
        <ele>8.5</ele>
        <time>2023-11-22T15:46:05Z</time>
      </trkpt>
      <trkpt lat="49.2583" lon="-0.09478">
        <ele>8.5</ele>
        <time>2023-11-22T15:46:06Z</time>
      </trkpt>
      <trkpt lat="49.25835" lon="-0.09478">
        <ele>8.5</ele>
        <time>2023-11-22T15:46:07Z</time>
      </trkpt>
      <trkpt lat="49.25838" lon="-0.09478">
        <ele>8.5</ele>
        <time>2023-11-22T15:46:08Z</time>
      </trkpt>
      <trkpt lat="49.2584" lon="-0.09478">
        <ele>8.5</ele>
        <time>2023-11-22T15:46:09Z</time>
      </trkpt>
      <trkpt lat="49.25841" lon="-0.09479">
        <ele>8.5</ele>
        <time>2023-11-22T15:46:10Z</time>
      </trkpt>
      <trkpt lat="49.25841" lon="-0.0948">
        <ele>8.5</ele>
        <time>2023-11-22T15:46:11Z</time>
      </trkpt>
      <trkpt lat="49.25842" lon="-0.0948">
        <ele>8.5</ele>
        <time>2023-11-22T15:46:12Z</time>
      </trkpt>
      <trkpt lat="49.25842" lon="-0.0948">
        <ele>8.5</ele>
        <time>2023-11-22T15:46:13Z</time>
      </trkpt>
      <trkpt lat="49.25843" lon="-0.0948">
        <ele>8.5</ele>
        <time>2023-11-22T15:46:14Z</time>
      </trkpt>
      <trkpt lat="49.25844" lon="-0.0948">
        <ele>8.5</ele>
        <time>2023-11-22T15:46:15Z</time>
      </trkpt>
      <trkpt lat="49.25844" lon="-0.0948">
        <ele>8.5</ele>
        <time>2023-11-22T15:46:16Z</time>
      </trkpt>
      <trkpt lat="49.25845" lon="-0.0948">
        <ele>8.5</ele>
        <time>2023-11-22T15:46:17Z</time>
      </trkpt>
      <trkpt lat="49.25845" lon="-0.0948">
        <ele>8.5</ele>
        <time>2023-11-22T15:46:18Z</time>
      </trkpt>
      <trkpt lat="49.25846" lon="-0.0948">
        <ele>8.5</ele>
        <time>2023-11-22T15:46:19Z</time>
      </trkpt>
      <trkpt lat="49.25847" lon="-0.0948">
        <ele>8.5</ele>
        <time>2023-11-22T15:46:20Z</time>
      </trkpt>
      <trkpt lat="49.25847" lon="-0.0948">
        <ele>8.5</ele>
        <time>2023-11-22T15:46:21Z</time>
      </trkpt>
      <trkpt lat="49.25848" lon="-0.0948">
        <ele>8.5</ele>
        <time>2023-11-22T15:46:25Z</time>
      </trkpt>
      <trkpt lat="49.25848" lon="-0.0948">
        <ele>8.5</ele>
        <time>2023-11-22T15:46:26Z</time>
      </trkpt>
      <trkpt lat="49.25849" lon="-0.0948">
        <ele>8.4</ele>
        <time>2023-11-22T15:46:27Z</time>
      </trkpt>
      <trkpt lat="49.25852" lon="-0.0948">
        <ele>8.4</ele>
        <time>2023-11-22T15:46:28Z</time>
      </trkpt>
      <trkpt lat="49.25855" lon="-0.09479">
        <ele>8.4</ele>
        <time>2023-11-22T15:46:29Z</time>
      </trkpt>
      <trkpt lat="49.25858" lon="-0.09479">
        <ele>8.3</ele>
        <time>2023-11-22T15:46:30Z</time>
      </trkpt>
      <trkpt lat="49.25862" lon="-0.09479">
        <ele>8.3</ele>
        <time>2023-11-22T15:46:31Z</time>
      </trkpt>
      <trkpt lat="49.25866" lon="-0.09479">
        <ele>8.3</ele>
        <time>2023-11-22T15:46:32Z</time>
      </trkpt>
      <trkpt lat="49.2587" lon="-0.0948">
        <ele>8.3</ele>
        <time>2023-11-22T15:46:33Z</time>
      </trkpt>
      <trkpt lat="49.25874" lon="-0.09482">
        <ele>8.3</ele>
        <time>2023-11-22T15:46:34Z</time>
      </trkpt>
      <trkpt lat="49.25879" lon="-0.09483">
        <ele>8.4</ele>
        <time>2023-11-22T15:46:35Z</time>
      </trkpt>
      <trkpt lat="49.25883" lon="-0.09483">
        <ele>8.5</ele>
        <time>2023-11-22T15:46:36Z</time>
      </trkpt>
      <trkpt lat="49.25887" lon="-0.09483">
        <ele>8.6</ele>
        <time>2023-11-22T15:46:37Z</time>
      </trkpt>
      <trkpt lat="49.25891" lon="-0.09483">
        <ele>8.7</ele>
        <time>2023-11-22T15:46:38Z</time>
      </trkpt>
      <trkpt lat="49.25895" lon="-0.09483">
        <ele>8.8</ele>
        <time>2023-11-22T15:46:39Z</time>
      </trkpt>
      <trkpt lat="49.25899" lon="-0.09484">
        <ele>8.9</ele>
        <time>2023-11-22T15:46:40Z</time>
      </trkpt>
      <trkpt lat="49.25904" lon="-0.09485">
        <ele>9</ele>
        <time>2023-11-22T15:46:41Z</time>
      </trkpt>
      <trkpt lat="49.25908" lon="-0.09486">
        <ele>9.1</ele>
        <time>2023-11-22T15:46:42Z</time>
      </trkpt>
      <trkpt lat="49.25913" lon="-0.09486">
        <ele>9.2</ele>
        <time>2023-11-22T15:46:43Z</time>
      </trkpt>
      <trkpt lat="49.25919" lon="-0.09486">
        <ele>9.4</ele>
        <time>2023-11-22T15:46:44Z</time>
      </trkpt>
      <trkpt lat="49.25924" lon="-0.09486">
        <ele>9.6</ele>
        <time>2023-11-22T15:46:45Z</time>
      </trkpt>
      <trkpt lat="49.2593" lon="-0.09486">
        <ele>9.8</ele>
        <time>2023-11-22T15:46:46Z</time>
      </trkpt>
      <trkpt lat="49.25937" lon="-0.09486">
        <ele>10</ele>
        <time>2023-11-22T15:46:47Z</time>
      </trkpt>
      <trkpt lat="49.25943" lon="-0.09486">
        <ele>10.2</ele>
        <time>2023-11-22T15:46:48Z</time>
      </trkpt>
      <trkpt lat="49.2595" lon="-0.09485">
        <ele>10.5</ele>
        <time>2023-11-22T15:46:49Z</time>
      </trkpt>
      <trkpt lat="49.25957" lon="-0.09485">
        <ele>10.8</ele>
        <time>2023-11-22T15:46:50Z</time>
      </trkpt>
      <trkpt lat="49.25963" lon="-0.09484">
        <ele>11</ele>
        <time>2023-11-22T15:46:51Z</time>
      </trkpt>
      <trkpt lat="49.2597" lon="-0.09482">
        <ele>11.3</ele>
        <time>2023-11-22T15:46:52Z</time>
      </trkpt>
      <trkpt lat="49.25977" lon="-0.09479">
        <ele>11.5</ele>
        <time>2023-11-22T15:46:53Z</time>
      </trkpt>
      <trkpt lat="49.25984" lon="-0.09477">
        <ele>11.7</ele>
        <time>2023-11-22T15:46:54Z</time>
      </trkpt>
      <trkpt lat="49.2599" lon="-0.09475">
        <ele>11.9</ele>
        <time>2023-11-22T15:46:55Z</time>
      </trkpt>
      <trkpt lat="49.25997" lon="-0.09473">
        <ele>12</ele>
        <time>2023-11-22T15:46:56Z</time>
      </trkpt>
      <trkpt lat="49.26003" lon="-0.09471">
        <ele>12.1</ele>
        <time>2023-11-22T15:46:57Z</time>
      </trkpt>
      <trkpt lat="49.26009" lon="-0.0947">
        <ele>12.2</ele>
        <time>2023-11-22T15:46:58Z</time>
      </trkpt>
      <trkpt lat="49.26016" lon="-0.09468">
        <ele>12.3</ele>
        <time>2023-11-22T15:46:59Z</time>
      </trkpt>
      <trkpt lat="49.26022" lon="-0.09467">
        <ele>12.4</ele>
        <time>2023-11-22T15:47:00Z</time>
      </trkpt>
      <trkpt lat="49.26028" lon="-0.09466">
        <ele>12.4</ele>
        <time>2023-11-22T15:47:01Z</time>
      </trkpt>
      <trkpt lat="49.26034" lon="-0.09464">
        <ele>12.5</ele>
        <time>2023-11-22T15:47:02Z</time>
      </trkpt>
      <trkpt lat="49.26039" lon="-0.09462">
        <ele>12.5</ele>
        <time>2023-11-22T15:47:03Z</time>
      </trkpt>
      <trkpt lat="49.26045" lon="-0.0946">
        <ele>12.5</ele>
        <time>2023-11-22T15:47:04Z</time>
      </trkpt>
      <trkpt lat="49.2605" lon="-0.09459">
        <ele>12.5</ele>
        <time>2023-11-22T15:47:05Z</time>
      </trkpt>
      <trkpt lat="49.26055" lon="-0.09458">
        <ele>12.5</ele>
        <time>2023-11-22T15:47:06Z</time>
      </trkpt>
      <trkpt lat="49.26061" lon="-0.09457">
        <ele>12.5</ele>
        <time>2023-11-22T15:47:07Z</time>
      </trkpt>
      <trkpt lat="49.26067" lon="-0.09456">
        <ele>12.4</ele>
        <time>2023-11-22T15:47:08Z</time>
      </trkpt>
      <trkpt lat="49.26073" lon="-0.09455">
        <ele>12.4</ele>
        <time>2023-11-22T15:47:09Z</time>
      </trkpt>
      <trkpt lat="49.2608" lon="-0.09454">
        <ele>12.4</ele>
        <time>2023-11-22T15:47:10Z</time>
      </trkpt>
      <trkpt lat="49.26087" lon="-0.09453">
        <ele>12.4</ele>
        <time>2023-11-22T15:47:11Z</time>
      </trkpt>
      <trkpt lat="49.26093" lon="-0.09452">
        <ele>12.4</ele>
        <time>2023-11-22T15:47:12Z</time>
      </trkpt>
      <trkpt lat="49.261" lon="-0.09451">
        <ele>12.4</ele>
        <time>2023-11-22T15:47:13Z</time>
      </trkpt>
      <trkpt lat="49.26107" lon="-0.09449">
        <ele>12.4</ele>
        <time>2023-11-22T15:47:14Z</time>
      </trkpt>
      <trkpt lat="49.26113" lon="-0.09447">
        <ele>12.3</ele>
        <time>2023-11-22T15:47:15Z</time>
      </trkpt>
      <trkpt lat="49.2612" lon="-0.09446">
        <ele>12.3</ele>
        <time>2023-11-22T15:47:16Z</time>
      </trkpt>
      <trkpt lat="49.26127" lon="-0.09445">
        <ele>12.2</ele>
        <time>2023-11-22T15:47:17Z</time>
      </trkpt>
      <trkpt lat="49.26134" lon="-0.09443">
        <ele>12.2</ele>
        <time>2023-11-22T15:47:18Z</time>
      </trkpt>
      <trkpt lat="49.2614" lon="-0.09443">
        <ele>12.1</ele>
        <time>2023-11-22T15:47:19Z</time>
      </trkpt>
      <trkpt lat="49.26147" lon="-0.09443">
        <ele>12.1</ele>
        <time>2023-11-22T15:47:20Z</time>
      </trkpt>
      <trkpt lat="49.26154" lon="-0.09443">
        <ele>12</ele>
        <time>2023-11-22T15:47:21Z</time>
      </trkpt>
      <trkpt lat="49.26161" lon="-0.09444">
        <ele>11.8</ele>
        <time>2023-11-22T15:47:22Z</time>
      </trkpt>
      <trkpt lat="49.26167" lon="-0.09446">
        <ele>11.7</ele>
        <time>2023-11-22T15:47:23Z</time>
      </trkpt>
      <trkpt lat="49.26173" lon="-0.09449">
        <ele>11.6</ele>
        <time>2023-11-22T15:47:24Z</time>
      </trkpt>
      <trkpt lat="49.2618" lon="-0.09453">
        <ele>11.5</ele>
        <time>2023-11-22T15:47:25Z</time>
      </trkpt>
      <trkpt lat="49.26187" lon="-0.09458">
        <ele>11.4</ele>
        <time>2023-11-22T15:47:26Z</time>
      </trkpt>
      <trkpt lat="49.26194" lon="-0.09462">
        <ele>11.2</ele>
        <time>2023-11-22T15:47:27Z</time>
      </trkpt>
      <trkpt lat="49.26201" lon="-0.09465">
        <ele>11.1</ele>
        <time>2023-11-22T15:47:28Z</time>
      </trkpt>
      <trkpt lat="49.26209" lon="-0.09468">
        <ele>11.1</ele>
        <time>2023-11-22T15:47:29Z</time>
      </trkpt>
      <trkpt lat="49.26216" lon="-0.09469">
        <ele>11</ele>
        <time>2023-11-22T15:47:30Z</time>
      </trkpt>
      <trkpt lat="49.26223" lon="-0.09468">
        <ele>11</ele>
        <time>2023-11-22T15:47:31Z</time>
      </trkpt>
      <trkpt lat="49.2623" lon="-0.09467">
        <ele>11.1</ele>
        <time>2023-11-22T15:47:32Z</time>
      </trkpt>
      <trkpt lat="49.26237" lon="-0.09464">
        <ele>11.1</ele>
        <time>2023-11-22T15:47:33Z</time>
      </trkpt>
      <trkpt lat="49.26243" lon="-0.0946">
        <ele>11.2</ele>
        <time>2023-11-22T15:47:34Z</time>
      </trkpt>
      <trkpt lat="49.26249" lon="-0.09456">
        <ele>11.3</ele>
        <time>2023-11-22T15:47:35Z</time>
      </trkpt>
      <trkpt lat="49.26255" lon="-0.09453">
        <ele>11.4</ele>
        <time>2023-11-22T15:47:36Z</time>
      </trkpt>
      <trkpt lat="49.26261" lon="-0.09449">
        <ele>11.5</ele>
        <time>2023-11-22T15:47:37Z</time>
      </trkpt>
      <trkpt lat="49.26266" lon="-0.09445">
        <ele>11.6</ele>
        <time>2023-11-22T15:47:38Z</time>
      </trkpt>
      <trkpt lat="49.26272" lon="-0.09441">
        <ele>11.7</ele>
        <time>2023-11-22T15:47:39Z</time>
      </trkpt>
      <trkpt lat="49.26277" lon="-0.09438">
        <ele>11.9</ele>
        <time>2023-11-22T15:47:40Z</time>
      </trkpt>
      <trkpt lat="49.26283" lon="-0.09435">
        <ele>12.1</ele>
        <time>2023-11-22T15:47:41Z</time>
      </trkpt>
      <trkpt lat="49.26288" lon="-0.09431">
        <ele>12.3</ele>
        <time>2023-11-22T15:47:42Z</time>
      </trkpt>
      <trkpt lat="49.26293" lon="-0.09428">
        <ele>12.5</ele>
        <time>2023-11-22T15:47:43Z</time>
      </trkpt>
      <trkpt lat="49.26299" lon="-0.09425">
        <ele>12.7</ele>
        <time>2023-11-22T15:47:44Z</time>
      </trkpt>
      <trkpt lat="49.26304" lon="-0.09423">
        <ele>13</ele>
        <time>2023-11-22T15:47:45Z</time>
      </trkpt>
      <trkpt lat="49.2631" lon="-0.09421">
        <ele>13.2</ele>
        <time>2023-11-22T15:47:46Z</time>
      </trkpt>
      <trkpt lat="49.26316" lon="-0.09419">
        <ele>13.4</ele>
        <time>2023-11-22T15:47:47Z</time>
      </trkpt>
      <trkpt lat="49.26322" lon="-0.09417">
        <ele>13.7</ele>
        <time>2023-11-22T15:47:48Z</time>
      </trkpt>
      <trkpt lat="49.26329" lon="-0.09415">
        <ele>13.9</ele>
        <time>2023-11-22T15:47:49Z</time>
      </trkpt>
      <trkpt lat="49.26335" lon="-0.09413">
        <ele>14.2</ele>
        <time>2023-11-22T15:47:50Z</time>
      </trkpt>
      <trkpt lat="49.26341" lon="-0.09412">
        <ele>14.4</ele>
        <time>2023-11-22T15:47:51Z</time>
      </trkpt>
      <trkpt lat="49.26348" lon="-0.09411">
        <ele>14.6</ele>
        <time>2023-11-22T15:47:52Z</time>
      </trkpt>
      <trkpt lat="49.26354" lon="-0.0941">
        <ele>14.8</ele>
        <time>2023-11-22T15:47:53Z</time>
      </trkpt>
      <trkpt lat="49.2636" lon="-0.0941">
        <ele>14.9</ele>
        <time>2023-11-22T15:47:54Z</time>
      </trkpt>
      <trkpt lat="49.26367" lon="-0.0941">
        <ele>15.1</ele>
        <time>2023-11-22T15:47:55Z</time>
      </trkpt>
      <trkpt lat="49.26373" lon="-0.0941">
        <ele>15.2</ele>
        <time>2023-11-22T15:47:56Z</time>
      </trkpt>
      <trkpt lat="49.2638" lon="-0.0941">
        <ele>15.3</ele>
        <time>2023-11-22T15:47:57Z</time>
      </trkpt>
      <trkpt lat="49.26387" lon="-0.0941">
        <ele>15.5</ele>
        <time>2023-11-22T15:47:58Z</time>
      </trkpt>
      <trkpt lat="49.26394" lon="-0.0941">
        <ele>15.6</ele>
        <time>2023-11-22T15:47:59Z</time>
      </trkpt>
      <trkpt lat="49.26401" lon="-0.09411">
        <ele>15.6</ele>
        <time>2023-11-22T15:48:00Z</time>
      </trkpt>
      <trkpt lat="49.26409" lon="-0.09411">
        <ele>15.7</ele>
        <time>2023-11-22T15:48:01Z</time>
      </trkpt>
      <trkpt lat="49.26416" lon="-0.09412">
        <ele>15.8</ele>
        <time>2023-11-22T15:48:02Z</time>
      </trkpt>
      <trkpt lat="49.26422" lon="-0.09412">
        <ele>15.9</ele>
        <time>2023-11-22T15:48:03Z</time>
      </trkpt>
      <trkpt lat="49.26429" lon="-0.09412">
        <ele>15.9</ele>
        <time>2023-11-22T15:48:04Z</time>
      </trkpt>
      <trkpt lat="49.26436" lon="-0.09413">
        <ele>15.9</ele>
        <time>2023-11-22T15:48:05Z</time>
      </trkpt>
      <trkpt lat="49.26443" lon="-0.09413">
        <ele>15.9</ele>
        <time>2023-11-22T15:48:06Z</time>
      </trkpt>
      <trkpt lat="49.2645" lon="-0.09414">
        <ele>15.9</ele>
        <time>2023-11-22T15:48:07Z</time>
      </trkpt>
      <trkpt lat="49.26457" lon="-0.09415">
        <ele>15.8</ele>
        <time>2023-11-22T15:48:08Z</time>
      </trkpt>
      <trkpt lat="49.26464" lon="-0.09415">
        <ele>15.8</ele>
        <time>2023-11-22T15:48:09Z</time>
      </trkpt>
      <trkpt lat="49.26471" lon="-0.09416">
        <ele>15.7</ele>
        <time>2023-11-22T15:48:10Z</time>
      </trkpt>
      <trkpt lat="49.26478" lon="-0.09417">
        <ele>15.7</ele>
        <time>2023-11-22T15:48:11Z</time>
      </trkpt>
      <trkpt lat="49.26485" lon="-0.09417">
        <ele>15.6</ele>
        <time>2023-11-22T15:48:12Z</time>
      </trkpt>
      <trkpt lat="49.26492" lon="-0.09417">
        <ele>15.5</ele>
        <time>2023-11-22T15:48:13Z</time>
      </trkpt>
      <trkpt lat="49.26499" lon="-0.09417">
        <ele>15.4</ele>
        <time>2023-11-22T15:48:14Z</time>
      </trkpt>
      <trkpt lat="49.26507" lon="-0.09417">
        <ele>15.3</ele>
        <time>2023-11-22T15:48:15Z</time>
      </trkpt>
      <trkpt lat="49.26514" lon="-0.09417">
        <ele>15.1</ele>
        <time>2023-11-22T15:48:16Z</time>
      </trkpt>
      <trkpt lat="49.26521" lon="-0.09417">
        <ele>15</ele>
        <time>2023-11-22T15:48:17Z</time>
      </trkpt>
      <trkpt lat="49.26528" lon="-0.09418">
        <ele>14.9</ele>
        <time>2023-11-22T15:48:18Z</time>
      </trkpt>
      <trkpt lat="49.26536" lon="-0.09418">
        <ele>14.7</ele>
        <time>2023-11-22T15:48:19Z</time>
      </trkpt>
      <trkpt lat="49.26544" lon="-0.09418">
        <ele>14.5</ele>
        <time>2023-11-22T15:48:20Z</time>
      </trkpt>
      <trkpt lat="49.26552" lon="-0.09418">
        <ele>14.3</ele>
        <time>2023-11-22T15:48:21Z</time>
      </trkpt>
      <trkpt lat="49.2656" lon="-0.09419">
        <ele>13.9</ele>
        <time>2023-11-22T15:48:22Z</time>
      </trkpt>
      <trkpt lat="49.26569" lon="-0.09419">
        <ele>13.4</ele>
        <time>2023-11-22T15:48:23Z</time>
      </trkpt>
      <trkpt lat="49.26577" lon="-0.09419">
        <ele>12.9</ele>
        <time>2023-11-22T15:48:24Z</time>
      </trkpt>
      <trkpt lat="49.26586" lon="-0.0942">
        <ele>12.4</ele>
        <time>2023-11-22T15:48:25Z</time>
      </trkpt>
      <trkpt lat="49.26595" lon="-0.0942">
        <ele>11.9</ele>
        <time>2023-11-22T15:48:26Z</time>
      </trkpt>
      <trkpt lat="49.26604" lon="-0.09421">
        <ele>11.3</ele>
        <time>2023-11-22T15:48:27Z</time>
      </trkpt>
      <trkpt lat="49.26613" lon="-0.09422">
        <ele>10.8</ele>
        <time>2023-11-22T15:48:28Z</time>
      </trkpt>
      <trkpt lat="49.26623" lon="-0.09422">
        <ele>10.3</ele>
        <time>2023-11-22T15:48:29Z</time>
      </trkpt>
      <trkpt lat="49.26633" lon="-0.09423">
        <ele>9.8</ele>
        <time>2023-11-22T15:48:30Z</time>
      </trkpt>
      <trkpt lat="49.26642" lon="-0.09423">
        <ele>9.3</ele>
        <time>2023-11-22T15:48:31Z</time>
      </trkpt>
      <trkpt lat="49.26651" lon="-0.09423">
        <ele>8.8</ele>
        <time>2023-11-22T15:48:32Z</time>
      </trkpt>
      <trkpt lat="49.26661" lon="-0.09423">
        <ele>8.5</ele>
        <time>2023-11-22T15:48:33Z</time>
      </trkpt>
      <trkpt lat="49.26671" lon="-0.09423">
        <ele>8.2</ele>
        <time>2023-11-22T15:48:34Z</time>
      </trkpt>
      <trkpt lat="49.2668" lon="-0.09424">
        <ele>8.1</ele>
        <time>2023-11-22T15:48:35Z</time>
      </trkpt>
      <trkpt lat="49.2669" lon="-0.09424">
        <ele>8</ele>
        <time>2023-11-22T15:48:36Z</time>
      </trkpt>
      <trkpt lat="49.26699" lon="-0.09424">
        <ele>8</ele>
        <time>2023-11-22T15:48:37Z</time>
      </trkpt>
      <trkpt lat="49.26709" lon="-0.09423">
        <ele>8</ele>
        <time>2023-11-22T15:48:38Z</time>
      </trkpt>
      <trkpt lat="49.26717" lon="-0.09423">
        <ele>8.1</ele>
        <time>2023-11-22T15:48:39Z</time>
      </trkpt>
      <trkpt lat="49.26727" lon="-0.09423">
        <ele>8.3</ele>
        <time>2023-11-22T15:48:40Z</time>
      </trkpt>
      <trkpt lat="49.26736" lon="-0.09423">
        <ele>8.5</ele>
        <time>2023-11-22T15:48:41Z</time>
      </trkpt>
      <trkpt lat="49.26744" lon="-0.09423">
        <ele>8.7</ele>
        <time>2023-11-22T15:48:42Z</time>
      </trkpt>
      <trkpt lat="49.26753" lon="-0.09423">
        <ele>9</ele>
        <time>2023-11-22T15:48:43Z</time>
      </trkpt>
      <trkpt lat="49.26761" lon="-0.09423">
        <ele>9.3</ele>
        <time>2023-11-22T15:48:44Z</time>
      </trkpt>
      <trkpt lat="49.26769" lon="-0.09422">
        <ele>9.6</ele>
        <time>2023-11-22T15:48:45Z</time>
      </trkpt>
      <trkpt lat="49.26777" lon="-0.09422">
        <ele>10</ele>
        <time>2023-11-22T15:48:46Z</time>
      </trkpt>
      <trkpt lat="49.26784" lon="-0.09422">
        <ele>10.3</ele>
        <time>2023-11-22T15:48:47Z</time>
      </trkpt>
      <trkpt lat="49.26791" lon="-0.09422">
        <ele>10.7</ele>
        <time>2023-11-22T15:48:48Z</time>
      </trkpt>
      <trkpt lat="49.26798" lon="-0.09422">
        <ele>11</ele>
        <time>2023-11-22T15:48:49Z</time>
      </trkpt>
      <trkpt lat="49.26805" lon="-0.09422">
        <ele>11.4</ele>
        <time>2023-11-22T15:48:50Z</time>
      </trkpt>
      <trkpt lat="49.26812" lon="-0.09421">
        <ele>11.8</ele>
        <time>2023-11-22T15:48:51Z</time>
      </trkpt>
      <trkpt lat="49.2682" lon="-0.09421">
        <ele>12.1</ele>
        <time>2023-11-22T15:48:52Z</time>
      </trkpt>
      <trkpt lat="49.26827" lon="-0.09421">
        <ele>12.6</ele>
        <time>2023-11-22T15:48:53Z</time>
      </trkpt>
      <trkpt lat="49.26834" lon="-0.09421">
        <ele>13</ele>
        <time>2023-11-22T15:48:54Z</time>
      </trkpt>
      <trkpt lat="49.26842" lon="-0.09421">
        <ele>13.4</ele>
        <time>2023-11-22T15:48:55Z</time>
      </trkpt>
      <trkpt lat="49.2685" lon="-0.09421">
        <ele>13.8</ele>
        <time>2023-11-22T15:48:56Z</time>
      </trkpt>
      <trkpt lat="49.26857" lon="-0.09421">
        <ele>14.2</ele>
        <time>2023-11-22T15:48:57Z</time>
      </trkpt>
      <trkpt lat="49.26865" lon="-0.0942">
        <ele>14.6</ele>
        <time>2023-11-22T15:48:58Z</time>
      </trkpt>
      <trkpt lat="49.26872" lon="-0.0942">
        <ele>15.1</ele>
        <time>2023-11-22T15:48:59Z</time>
      </trkpt>
      <trkpt lat="49.26879" lon="-0.0942">
        <ele>15.5</ele>
        <time>2023-11-22T15:49:00Z</time>
      </trkpt>
      <trkpt lat="49.26886" lon="-0.09419">
        <ele>16</ele>
        <time>2023-11-22T15:49:01Z</time>
      </trkpt>
      <trkpt lat="49.26893" lon="-0.09419">
        <ele>16.4</ele>
        <time>2023-11-22T15:49:02Z</time>
      </trkpt>
      <trkpt lat="49.269" lon="-0.09418">
        <ele>16.8</ele>
        <time>2023-11-22T15:49:03Z</time>
      </trkpt>
      <trkpt lat="49.26907" lon="-0.09418">
        <ele>17.3</ele>
        <time>2023-11-22T15:49:04Z</time>
      </trkpt>
      <trkpt lat="49.26913" lon="-0.09417">
        <ele>17.7</ele>
        <time>2023-11-22T15:49:05Z</time>
      </trkpt>
      <trkpt lat="49.2692" lon="-0.09417">
        <ele>18.2</ele>
        <time>2023-11-22T15:49:06Z</time>
      </trkpt>
      <trkpt lat="49.26927" lon="-0.09417">
        <ele>18.6</ele>
        <time>2023-11-22T15:49:07Z</time>
      </trkpt>
      <trkpt lat="49.26934" lon="-0.09417">
        <ele>19</ele>
        <time>2023-11-22T15:49:08Z</time>
      </trkpt>
      <trkpt lat="49.2694" lon="-0.09417">
        <ele>19.4</ele>
        <time>2023-11-22T15:49:09Z</time>
      </trkpt>
      <trkpt lat="49.26947" lon="-0.09416">
        <ele>19.9</ele>
        <time>2023-11-22T15:49:10Z</time>
      </trkpt>
      <trkpt lat="49.26953" lon="-0.09416">
        <ele>20.3</ele>
        <time>2023-11-22T15:49:11Z</time>
      </trkpt>
      <trkpt lat="49.26959" lon="-0.09415">
        <ele>20.7</ele>
        <time>2023-11-22T15:49:12Z</time>
      </trkpt>
      <trkpt lat="49.26966" lon="-0.09415">
        <ele>21.1</ele>
        <time>2023-11-22T15:49:13Z</time>
      </trkpt>
      <trkpt lat="49.26973" lon="-0.09415">
        <ele>21.5</ele>
        <time>2023-11-22T15:49:14Z</time>
      </trkpt>
      <trkpt lat="49.2698" lon="-0.09415">
        <ele>21.8</ele>
        <time>2023-11-22T15:49:15Z</time>
      </trkpt>
      <trkpt lat="49.26987" lon="-0.09416">
        <ele>22.1</ele>
        <time>2023-11-22T15:49:16Z</time>
      </trkpt>
      <trkpt lat="49.26994" lon="-0.09416">
        <ele>22.3</ele>
        <time>2023-11-22T15:49:17Z</time>
      </trkpt>
      <trkpt lat="49.27001" lon="-0.09417">
        <ele>22.5</ele>
        <time>2023-11-22T15:49:18Z</time>
      </trkpt>
      <trkpt lat="49.27007" lon="-0.09417">
        <ele>22.6</ele>
        <time>2023-11-22T15:49:19Z</time>
      </trkpt>
      <trkpt lat="49.27014" lon="-0.09417">
        <ele>22.7</ele>
        <time>2023-11-22T15:49:20Z</time>
      </trkpt>
      <trkpt lat="49.27021" lon="-0.09418">
        <ele>22.7</ele>
        <time>2023-11-22T15:49:21Z</time>
      </trkpt>
      <trkpt lat="49.27028" lon="-0.09419">
        <ele>22.7</ele>
        <time>2023-11-22T15:49:22Z</time>
      </trkpt>
      <trkpt lat="49.27036" lon="-0.09421">
        <ele>22.6</ele>
        <time>2023-11-22T15:49:23Z</time>
      </trkpt>
      <trkpt lat="49.27043" lon="-0.09424">
        <ele>22.5</ele>
        <time>2023-11-22T15:49:24Z</time>
      </trkpt>
      <trkpt lat="49.2705" lon="-0.09428">
        <ele>22.3</ele>
        <time>2023-11-22T15:49:25Z</time>
      </trkpt>
      <trkpt lat="49.27057" lon="-0.09434">
        <ele>22.1</ele>
        <time>2023-11-22T15:49:26Z</time>
      </trkpt>
      <trkpt lat="49.27063" lon="-0.09441">
        <ele>21.9</ele>
        <time>2023-11-22T15:49:27Z</time>
      </trkpt>
      <trkpt lat="49.2707" lon="-0.09448">
        <ele>21.7</ele>
        <time>2023-11-22T15:49:28Z</time>
      </trkpt>
      <trkpt lat="49.27077" lon="-0.09454">
        <ele>21.5</ele>
        <time>2023-11-22T15:49:29Z</time>
      </trkpt>
      <trkpt lat="49.27083" lon="-0.09461">
        <ele>21.2</ele>
        <time>2023-11-22T15:49:30Z</time>
      </trkpt>
      <trkpt lat="49.2709" lon="-0.09466">
        <ele>21</ele>
        <time>2023-11-22T15:49:31Z</time>
      </trkpt>
      <trkpt lat="49.27097" lon="-0.0947">
        <ele>20.7</ele>
        <time>2023-11-22T15:49:32Z</time>
      </trkpt>
      <trkpt lat="49.27105" lon="-0.09474">
        <ele>20.4</ele>
        <time>2023-11-22T15:49:33Z</time>
      </trkpt>
      <trkpt lat="49.27112" lon="-0.09477">
        <ele>20.1</ele>
        <time>2023-11-22T15:49:34Z</time>
      </trkpt>
      <trkpt lat="49.2712" lon="-0.09479">
        <ele>19.7</ele>
        <time>2023-11-22T15:49:35Z</time>
      </trkpt>
      <trkpt lat="49.27127" lon="-0.09483">
        <ele>19.3</ele>
        <time>2023-11-22T15:49:36Z</time>
      </trkpt>
      <trkpt lat="49.27135" lon="-0.09486">
        <ele>18.9</ele>
        <time>2023-11-22T15:49:37Z</time>
      </trkpt>
      <trkpt lat="49.27143" lon="-0.0949">
        <ele>18.5</ele>
        <time>2023-11-22T15:49:38Z</time>
      </trkpt>
      <trkpt lat="49.27151" lon="-0.09495">
        <ele>18.1</ele>
        <time>2023-11-22T15:49:39Z</time>
      </trkpt>
      <trkpt lat="49.27159" lon="-0.095">
        <ele>17.5</ele>
        <time>2023-11-22T15:49:40Z</time>
      </trkpt>
      <trkpt lat="49.27167" lon="-0.09506">
        <ele>16.9</ele>
        <time>2023-11-22T15:49:41Z</time>
      </trkpt>
      <trkpt lat="49.27176" lon="-0.09512">
        <ele>16.3</ele>
        <time>2023-11-22T15:49:42Z</time>
      </trkpt>
      <trkpt lat="49.27185" lon="-0.09518">
        <ele>15.7</ele>
        <time>2023-11-22T15:49:43Z</time>
      </trkpt>
      <trkpt lat="49.27194" lon="-0.09522">
        <ele>15.1</ele>
        <time>2023-11-22T15:49:44Z</time>
      </trkpt>
      <trkpt lat="49.27203" lon="-0.09526">
        <ele>14.5</ele>
        <time>2023-11-22T15:49:45Z</time>
      </trkpt>
      <trkpt lat="49.27213" lon="-0.09529">
        <ele>13.9</ele>
        <time>2023-11-22T15:49:46Z</time>
      </trkpt>
      <trkpt lat="49.27223" lon="-0.09532">
        <ele>13.4</ele>
        <time>2023-11-22T15:49:47Z</time>
      </trkpt>
      <trkpt lat="49.27232" lon="-0.09534">
        <ele>12.8</ele>
        <time>2023-11-22T15:49:48Z</time>
      </trkpt>
      <trkpt lat="49.27242" lon="-0.09536">
        <ele>12.3</ele>
        <time>2023-11-22T15:49:49Z</time>
      </trkpt>
      <trkpt lat="49.27252" lon="-0.09538">
        <ele>11.8</ele>
        <time>2023-11-22T15:49:50Z</time>
      </trkpt>
      <trkpt lat="49.27263" lon="-0.0954">
        <ele>11.3</ele>
        <time>2023-11-22T15:49:51Z</time>
      </trkpt>
      <trkpt lat="49.27273" lon="-0.09542">
        <ele>10.9</ele>
        <time>2023-11-22T15:49:52Z</time>
      </trkpt>
      <trkpt lat="49.27283" lon="-0.09544">
        <ele>10.5</ele>
        <time>2023-11-22T15:49:53Z</time>
      </trkpt>
      <trkpt lat="49.27293" lon="-0.09546">
        <ele>10.2</ele>
        <time>2023-11-22T15:49:54Z</time>
      </trkpt>
      <trkpt lat="49.27303" lon="-0.09549">
        <ele>9.9</ele>
        <time>2023-11-22T15:49:55Z</time>
      </trkpt>
      <trkpt lat="49.27313" lon="-0.09551">
        <ele>9.5</ele>
        <time>2023-11-22T15:49:56Z</time>
      </trkpt>
      <trkpt lat="49.27322" lon="-0.09553">
        <ele>9.2</ele>
        <time>2023-11-22T15:49:57Z</time>
      </trkpt>
      <trkpt lat="49.27332" lon="-0.09556">
        <ele>8.8</ele>
        <time>2023-11-22T15:49:58Z</time>
      </trkpt>
      <trkpt lat="49.27341" lon="-0.09558">
        <ele>8.5</ele>
        <time>2023-11-22T15:49:59Z</time>
      </trkpt>
      <trkpt lat="49.27351" lon="-0.09561">
        <ele>8.1</ele>
        <time>2023-11-22T15:50:00Z</time>
      </trkpt>
      <trkpt lat="49.2736" lon="-0.09563">
        <ele>7.8</ele>
        <time>2023-11-22T15:50:01Z</time>
      </trkpt>
      <trkpt lat="49.2737" lon="-0.09566">
        <ele>7.4</ele>
        <time>2023-11-22T15:50:02Z</time>
      </trkpt>
      <trkpt lat="49.2738" lon="-0.09569">
        <ele>7</ele>
        <time>2023-11-22T15:50:03Z</time>
      </trkpt>
      <trkpt lat="49.27389" lon="-0.09573">
        <ele>6.7</ele>
        <time>2023-11-22T15:50:04Z</time>
      </trkpt>
      <trkpt lat="49.27399" lon="-0.09576">
        <ele>6.4</ele>
        <time>2023-11-22T15:50:05Z</time>
      </trkpt>
      <trkpt lat="49.27408" lon="-0.09579">
        <ele>6.2</ele>
        <time>2023-11-22T15:50:06Z</time>
      </trkpt>
      <trkpt lat="49.27418" lon="-0.09581">
        <ele>6</ele>
        <time>2023-11-22T15:50:07Z</time>
      </trkpt>
      <trkpt lat="49.27428" lon="-0.09582">
        <ele>5.8</ele>
        <time>2023-11-22T15:50:08Z</time>
      </trkpt>
      <trkpt lat="49.27438" lon="-0.09581">
        <ele>5.7</ele>
        <time>2023-11-22T15:50:09Z</time>
      </trkpt>
      <trkpt lat="49.27447" lon="-0.0958">
        <ele>5.7</ele>
        <time>2023-11-22T15:50:10Z</time>
      </trkpt>
      <trkpt lat="49.27457" lon="-0.09579">
        <ele>5.6</ele>
        <time>2023-11-22T15:50:11Z</time>
      </trkpt>
      <trkpt lat="49.27466" lon="-0.09578">
        <ele>5.4</ele>
        <time>2023-11-22T15:50:12Z</time>
      </trkpt>
      <trkpt lat="49.27475" lon="-0.09576">
        <ele>5.3</ele>
        <time>2023-11-22T15:50:13Z</time>
      </trkpt>
      <trkpt lat="49.27484" lon="-0.09575">
        <ele>5.3</ele>
        <time>2023-11-22T15:50:14Z</time>
      </trkpt>
      <trkpt lat="49.27492" lon="-0.09574">
        <ele>5.2</ele>
        <time>2023-11-22T15:50:15Z</time>
      </trkpt>
      <trkpt lat="49.27501" lon="-0.09573">
        <ele>5.2</ele>
        <time>2023-11-22T15:50:16Z</time>
      </trkpt>
      <trkpt lat="49.27509" lon="-0.09571">
        <ele>5.1</ele>
        <time>2023-11-22T15:50:17Z</time>
      </trkpt>
      <trkpt lat="49.27517" lon="-0.0957">
        <ele>5</ele>
        <time>2023-11-22T15:50:18Z</time>
      </trkpt>
      <trkpt lat="49.27525" lon="-0.09568">
        <ele>5</ele>
        <time>2023-11-22T15:50:19Z</time>
      </trkpt>
      <trkpt lat="49.27533" lon="-0.09566">
        <ele>5</ele>
        <time>2023-11-22T15:50:20Z</time>
      </trkpt>
      <trkpt lat="49.27539" lon="-0.09563">
        <ele>5</ele>
        <time>2023-11-22T15:50:21Z</time>
      </trkpt>
      <trkpt lat="49.27545" lon="-0.09559">
        <ele>5.1</ele>
        <time>2023-11-22T15:50:22Z</time>
      </trkpt>
      <trkpt lat="49.27551" lon="-0.09557">
        <ele>5.1</ele>
        <time>2023-11-22T15:50:23Z</time>
      </trkpt>
      <trkpt lat="49.27555" lon="-0.09556">
        <ele>5.2</ele>
        <time>2023-11-22T15:50:24Z</time>
      </trkpt>
      <trkpt lat="49.27558" lon="-0.09554">
        <ele>5.2</ele>
        <time>2023-11-22T15:50:25Z</time>
      </trkpt>
      <trkpt lat="49.27562" lon="-0.09553">
        <ele>5.2</ele>
        <time>2023-11-22T15:50:26Z</time>
      </trkpt>
      <trkpt lat="49.27563" lon="-0.09553">
        <ele>5.2</ele>
        <time>2023-11-22T15:50:27Z</time>
      </trkpt>
      <trkpt lat="49.27567" lon="-0.09552">
        <ele>5.2</ele>
        <time>2023-11-22T15:50:28Z</time>
      </trkpt>
      <trkpt lat="49.27571" lon="-0.09551">
        <ele>5.2</ele>
        <time>2023-11-22T15:50:29Z</time>
      </trkpt>
      <trkpt lat="49.27575" lon="-0.0955">
        <ele>5.2</ele>
        <time>2023-11-22T15:50:30Z</time>
      </trkpt>
      <trkpt lat="49.2758" lon="-0.09549">
        <ele>5.2</ele>
        <time>2023-11-22T15:50:31Z</time>
      </trkpt>
      <trkpt lat="49.27584" lon="-0.09548">
        <ele>5.2</ele>
        <time>2023-11-22T15:50:32Z</time>
      </trkpt>
      <trkpt lat="49.27589" lon="-0.09547">
        <ele>5.2</ele>
        <time>2023-11-22T15:50:33Z</time>
      </trkpt>
      <trkpt lat="49.27594" lon="-0.09546">
        <ele>5.1</ele>
        <time>2023-11-22T15:50:34Z</time>
      </trkpt>
      <trkpt lat="49.27599" lon="-0.09545">
        <ele>5.1</ele>
        <time>2023-11-22T15:50:35Z</time>
      </trkpt>
      <trkpt lat="49.27604" lon="-0.09545">
        <ele>5.1</ele>
        <time>2023-11-22T15:50:36Z</time>
      </trkpt>
      <trkpt lat="49.27609" lon="-0.09545">
        <ele>5.1</ele>
        <time>2023-11-22T15:50:37Z</time>
      </trkpt>
      <trkpt lat="49.27614" lon="-0.09544">
        <ele>5.1</ele>
        <time>2023-11-22T15:50:38Z</time>
      </trkpt>
      <trkpt lat="49.2762" lon="-0.09543">
        <ele>5.1</ele>
        <time>2023-11-22T15:50:39Z</time>
      </trkpt>
      <trkpt lat="49.27625" lon="-0.09542">
        <ele>5.1</ele>
        <time>2023-11-22T15:50:40Z</time>
      </trkpt>
      <trkpt lat="49.2763" lon="-0.09541">
        <ele>5.1</ele>
        <time>2023-11-22T15:50:41Z</time>
      </trkpt>
      <trkpt lat="49.27636" lon="-0.0954">
        <ele>5.1</ele>
        <time>2023-11-22T15:50:42Z</time>
      </trkpt>
      <trkpt lat="49.27641" lon="-0.09539">
        <ele>5.1</ele>
        <time>2023-11-22T15:50:43Z</time>
      </trkpt>
      <trkpt lat="49.27646" lon="-0.09539">
        <ele>5.1</ele>
        <time>2023-11-22T15:50:44Z</time>
      </trkpt>
      <trkpt lat="49.27651" lon="-0.09538">
        <ele>5.1</ele>
        <time>2023-11-22T15:50:45Z</time>
      </trkpt>
      <trkpt lat="49.27657" lon="-0.09538">
        <ele>5.1</ele>
        <time>2023-11-22T15:50:46Z</time>
      </trkpt>
      <trkpt lat="49.27662" lon="-0.09538">
        <ele>5.1</ele>
        <time>2023-11-22T15:50:47Z</time>
      </trkpt>
      <trkpt lat="49.27667" lon="-0.09538">
        <ele>5.1</ele>
        <time>2023-11-22T15:50:48Z</time>
      </trkpt>
      <trkpt lat="49.27672" lon="-0.09539">
        <ele>5.1</ele>
        <time>2023-11-22T15:50:49Z</time>
      </trkpt>
      <trkpt lat="49.27677" lon="-0.0954">
        <ele>5.1</ele>
        <time>2023-11-22T15:50:50Z</time>
      </trkpt>
      <trkpt lat="49.27683" lon="-0.0954">
        <ele>5.1</ele>
        <time>2023-11-22T15:50:51Z</time>
      </trkpt>
      <trkpt lat="49.27688" lon="-0.0954">
        <ele>5.1</ele>
        <time>2023-11-22T15:50:52Z</time>
      </trkpt>
      <trkpt lat="49.27694" lon="-0.0954">
        <ele>5.1</ele>
        <time>2023-11-22T15:50:53Z</time>
      </trkpt>
      <trkpt lat="49.27699" lon="-0.09539">
        <ele>5.1</ele>
        <time>2023-11-22T15:50:54Z</time>
      </trkpt>
      <trkpt lat="49.27704" lon="-0.09539">
        <ele>5.1</ele>
        <time>2023-11-22T15:50:55Z</time>
      </trkpt>
      <trkpt lat="49.2771" lon="-0.09538">
        <ele>5.1</ele>
        <time>2023-11-22T15:50:56Z</time>
      </trkpt>
      <trkpt lat="49.27715" lon="-0.09538">
        <ele>5.2</ele>
        <time>2023-11-22T15:50:57Z</time>
      </trkpt>
      <trkpt lat="49.2772" lon="-0.09537">
        <ele>5.2</ele>
        <time>2023-11-22T15:50:58Z</time>
      </trkpt>
      <trkpt lat="49.27724" lon="-0.09536">
        <ele>5.2</ele>
        <time>2023-11-22T15:50:59Z</time>
      </trkpt>
      <trkpt lat="49.27729" lon="-0.09535">
        <ele>5.2</ele>
        <time>2023-11-22T15:51:00Z</time>
      </trkpt>
      <trkpt lat="49.27734" lon="-0.09535">
        <ele>5.2</ele>
        <time>2023-11-22T15:51:01Z</time>
      </trkpt>
      <trkpt lat="49.27739" lon="-0.09534">
        <ele>5.2</ele>
        <time>2023-11-22T15:51:02Z</time>
      </trkpt>
      <trkpt lat="49.27745" lon="-0.09533">
        <ele>5.2</ele>
        <time>2023-11-22T15:51:03Z</time>
      </trkpt>
      <trkpt lat="49.27751" lon="-0.09532">
        <ele>5.2</ele>
        <time>2023-11-22T15:51:04Z</time>
      </trkpt>
      <trkpt lat="49.27757" lon="-0.09531">
        <ele>5.2</ele>
        <time>2023-11-22T15:51:05Z</time>
      </trkpt>
      <trkpt lat="49.27762" lon="-0.0953">
        <ele>5.2</ele>
        <time>2023-11-22T15:51:06Z</time>
      </trkpt>
      <trkpt lat="49.27768" lon="-0.09529">
        <ele>5.2</ele>
        <time>2023-11-22T15:51:07Z</time>
      </trkpt>
      <trkpt lat="49.27773" lon="-0.09528">
        <ele>5.2</ele>
        <time>2023-11-22T15:51:08Z</time>
      </trkpt>
      <trkpt lat="49.27779" lon="-0.09526">
        <ele>5.2</ele>
        <time>2023-11-22T15:51:09Z</time>
      </trkpt>
      <trkpt lat="49.27785" lon="-0.09525">
        <ele>5.2</ele>
        <time>2023-11-22T15:51:10Z</time>
      </trkpt>
      <trkpt lat="49.2779" lon="-0.09525">
        <ele>5.2</ele>
        <time>2023-11-22T15:51:11Z</time>
      </trkpt>
      <trkpt lat="49.27796" lon="-0.09524">
        <ele>5.2</ele>
        <time>2023-11-22T15:51:12Z</time>
      </trkpt>
      <trkpt lat="49.27802" lon="-0.09524">
        <ele>5.2</ele>
        <time>2023-11-22T15:51:13Z</time>
      </trkpt>
      <trkpt lat="49.27808" lon="-0.09523">
        <ele>5.2</ele>
        <time>2023-11-22T15:51:14Z</time>
      </trkpt>
      <trkpt lat="49.27814" lon="-0.09522">
        <ele>5.2</ele>
        <time>2023-11-22T15:51:15Z</time>
      </trkpt>
      <trkpt lat="49.2782" lon="-0.09521">
        <ele>5.2</ele>
        <time>2023-11-22T15:51:16Z</time>
      </trkpt>
      <trkpt lat="49.27826" lon="-0.09521">
        <ele>5.2</ele>
        <time>2023-11-22T15:51:17Z</time>
      </trkpt>
      <trkpt lat="49.27832" lon="-0.0952">
        <ele>5.2</ele>
        <time>2023-11-22T15:51:18Z</time>
      </trkpt>
      <trkpt lat="49.27838" lon="-0.09519">
        <ele>5.2</ele>
        <time>2023-11-22T15:51:19Z</time>
      </trkpt>
      <trkpt lat="49.27845" lon="-0.09519">
        <ele>5.2</ele>
        <time>2023-11-22T15:51:20Z</time>
      </trkpt>
      <trkpt lat="49.27851" lon="-0.09518">
        <ele>5.2</ele>
        <time>2023-11-22T15:51:21Z</time>
      </trkpt>
      <trkpt lat="49.27857" lon="-0.09518">
        <ele>5.2</ele>
        <time>2023-11-22T15:51:22Z</time>
      </trkpt>
      <trkpt lat="49.27863" lon="-0.09517">
        <ele>5.2</ele>
        <time>2023-11-22T15:51:23Z</time>
      </trkpt>
      <trkpt lat="49.27869" lon="-0.09517">
        <ele>5.2</ele>
        <time>2023-11-22T15:51:24Z</time>
      </trkpt>
      <trkpt lat="49.27875" lon="-0.09516">
        <ele>5.2</ele>
        <time>2023-11-22T15:51:25Z</time>
      </trkpt>
      <trkpt lat="49.27881" lon="-0.09516">
        <ele>5.2</ele>
        <time>2023-11-22T15:51:26Z</time>
      </trkpt>
      <trkpt lat="49.27887" lon="-0.09516">
        <ele>5.2</ele>
        <time>2023-11-22T15:51:27Z</time>
      </trkpt>
      <trkpt lat="49.27893" lon="-0.09516">
        <ele>5.2</ele>
        <time>2023-11-22T15:51:28Z</time>
      </trkpt>
      <trkpt lat="49.27899" lon="-0.09516">
        <ele>5.2</ele>
        <time>2023-11-22T15:51:29Z</time>
      </trkpt>
      <trkpt lat="49.27905" lon="-0.09516">
        <ele>5.3</ele>
        <time>2023-11-22T15:51:30Z</time>
      </trkpt>
      <trkpt lat="49.27911" lon="-0.09516">
        <ele>5.3</ele>
        <time>2023-11-22T15:51:31Z</time>
      </trkpt>
      <trkpt lat="49.27917" lon="-0.09517">
        <ele>5.3</ele>
        <time>2023-11-22T15:51:32Z</time>
      </trkpt>
      <trkpt lat="49.27923" lon="-0.09517">
        <ele>5.2</ele>
        <time>2023-11-22T15:51:33Z</time>
      </trkpt>
      <trkpt lat="49.2793" lon="-0.09517">
        <ele>5.2</ele>
        <time>2023-11-22T15:51:34Z</time>
      </trkpt>
      <trkpt lat="49.27936" lon="-0.09518">
        <ele>5.2</ele>
        <time>2023-11-22T15:51:35Z</time>
      </trkpt>
      <trkpt lat="49.27943" lon="-0.09519">
        <ele>5.2</ele>
        <time>2023-11-22T15:51:36Z</time>
      </trkpt>
      <trkpt lat="49.27949" lon="-0.09519">
        <ele>5.2</ele>
        <time>2023-11-22T15:51:37Z</time>
      </trkpt>
      <trkpt lat="49.27956" lon="-0.0952">
        <ele>5.2</ele>
        <time>2023-11-22T15:51:38Z</time>
      </trkpt>
      <trkpt lat="49.27962" lon="-0.09522">
        <ele>5.2</ele>
        <time>2023-11-22T15:51:39Z</time>
      </trkpt>
      <trkpt lat="49.27969" lon="-0.09523">
        <ele>5.2</ele>
        <time>2023-11-22T15:51:40Z</time>
      </trkpt>
      <trkpt lat="49.27976" lon="-0.09525">
        <ele>5.1</ele>
        <time>2023-11-22T15:51:41Z</time>
      </trkpt>
      <trkpt lat="49.27982" lon="-0.09527">
        <ele>5.1</ele>
        <time>2023-11-22T15:51:42Z</time>
      </trkpt>
      <trkpt lat="49.27989" lon="-0.09529">
        <ele>5.1</ele>
        <time>2023-11-22T15:51:43Z</time>
      </trkpt>
      <trkpt lat="49.27996" lon="-0.09531">
        <ele>5.1</ele>
        <time>2023-11-22T15:51:44Z</time>
      </trkpt>
      <trkpt lat="49.28002" lon="-0.09533">
        <ele>5.1</ele>
        <time>2023-11-22T15:51:45Z</time>
      </trkpt>
      <trkpt lat="49.28009" lon="-0.09536">
        <ele>5.1</ele>
        <time>2023-11-22T15:51:46Z</time>
      </trkpt>
      <trkpt lat="49.28015" lon="-0.09538">
        <ele>5.1</ele>
        <time>2023-11-22T15:51:47Z</time>
      </trkpt>
      <trkpt lat="49.28021" lon="-0.0954">
        <ele>5.1</ele>
        <time>2023-11-22T15:51:48Z</time>
      </trkpt>
      <trkpt lat="49.28028" lon="-0.09543">
        <ele>5.1</ele>
        <time>2023-11-22T15:51:49Z</time>
      </trkpt>
      <trkpt lat="49.28034" lon="-0.09546">
        <ele>5.1</ele>
        <time>2023-11-22T15:51:50Z</time>
      </trkpt>
      <trkpt lat="49.28039" lon="-0.09549">
        <ele>5.1</ele>
        <time>2023-11-22T15:51:51Z</time>
      </trkpt>
      <trkpt lat="49.28045" lon="-0.09552">
        <ele>5.1</ele>
        <time>2023-11-22T15:51:52Z</time>
      </trkpt>
      <trkpt lat="49.28052" lon="-0.09554">
        <ele>5.1</ele>
        <time>2023-11-22T15:51:53Z</time>
      </trkpt>
      <trkpt lat="49.28058" lon="-0.09557">
        <ele>5.1</ele>
        <time>2023-11-22T15:51:54Z</time>
      </trkpt>
      <trkpt lat="49.28064" lon="-0.0956">
        <ele>5.1</ele>
        <time>2023-11-22T15:51:55Z</time>
      </trkpt>
      <trkpt lat="49.28069" lon="-0.09563">
        <ele>5.1</ele>
        <time>2023-11-22T15:51:56Z</time>
      </trkpt>
      <trkpt lat="49.28075" lon="-0.09565">
        <ele>5.1</ele>
        <time>2023-11-22T15:51:57Z</time>
      </trkpt>
      <trkpt lat="49.28081" lon="-0.09568">
        <ele>5.1</ele>
        <time>2023-11-22T15:51:58Z</time>
      </trkpt>
      <trkpt lat="49.28087" lon="-0.09571">
        <ele>5.1</ele>
        <time>2023-11-22T15:51:59Z</time>
      </trkpt>
      <trkpt lat="49.28093" lon="-0.09574">
        <ele>5.1</ele>
        <time>2023-11-22T15:52:00Z</time>
      </trkpt>
      <trkpt lat="49.281" lon="-0.09578">
        <ele>5.1</ele>
        <time>2023-11-22T15:52:01Z</time>
      </trkpt>
      <trkpt lat="49.28106" lon="-0.09582">
        <ele>5.1</ele>
        <time>2023-11-22T15:52:02Z</time>
      </trkpt>
      <trkpt lat="49.28112" lon="-0.09586">
        <ele>5</ele>
        <time>2023-11-22T15:52:03Z</time>
      </trkpt>
      <trkpt lat="49.28118" lon="-0.0959">
        <ele>5</ele>
        <time>2023-11-22T15:52:04Z</time>
      </trkpt>
      <trkpt lat="49.28125" lon="-0.09593">
        <ele>5</ele>
        <time>2023-11-22T15:52:05Z</time>
      </trkpt>
      <trkpt lat="49.28131" lon="-0.09597">
        <ele>5</ele>
        <time>2023-11-22T15:52:06Z</time>
      </trkpt>
      <trkpt lat="49.28138" lon="-0.09601">
        <ele>5</ele>
        <time>2023-11-22T15:52:07Z</time>
      </trkpt>
      <trkpt lat="49.28144" lon="-0.09604">
        <ele>4.9</ele>
        <time>2023-11-22T15:52:08Z</time>
      </trkpt>
      <trkpt lat="49.28151" lon="-0.09608">
        <ele>4.9</ele>
        <time>2023-11-22T15:52:09Z</time>
      </trkpt>
      <trkpt lat="49.28157" lon="-0.09612">
        <ele>4.9</ele>
        <time>2023-11-22T15:52:10Z</time>
      </trkpt>
      <trkpt lat="49.28163" lon="-0.09616">
        <ele>4.9</ele>
        <time>2023-11-22T15:52:11Z</time>
      </trkpt>
      <trkpt lat="49.28169" lon="-0.0962">
        <ele>4.9</ele>
        <time>2023-11-22T15:52:12Z</time>
      </trkpt>
      <trkpt lat="49.28175" lon="-0.09624">
        <ele>5</ele>
        <time>2023-11-22T15:52:13Z</time>
      </trkpt>
      <trkpt lat="49.28181" lon="-0.09628">
        <ele>5</ele>
        <time>2023-11-22T15:52:14Z</time>
      </trkpt>
      <trkpt lat="49.28187" lon="-0.09632">
        <ele>5</ele>
        <time>2023-11-22T15:52:15Z</time>
      </trkpt>
      <trkpt lat="49.28193" lon="-0.09636">
        <ele>5</ele>
        <time>2023-11-22T15:52:16Z</time>
      </trkpt>
      <trkpt lat="49.28199" lon="-0.0964">
        <ele>5</ele>
        <time>2023-11-22T15:52:17Z</time>
      </trkpt>
      <trkpt lat="49.28205" lon="-0.09644">
        <ele>5</ele>
        <time>2023-11-22T15:52:18Z</time>
      </trkpt>
      <trkpt lat="49.28211" lon="-0.09648">
        <ele>5</ele>
        <time>2023-11-22T15:52:19Z</time>
      </trkpt>
      <trkpt lat="49.28217" lon="-0.09652">
        <ele>5</ele>
        <time>2023-11-22T15:52:20Z</time>
      </trkpt>
      <trkpt lat="49.28223" lon="-0.09657">
        <ele>5</ele>
        <time>2023-11-22T15:52:21Z</time>
      </trkpt>
      <trkpt lat="49.28229" lon="-0.0966">
        <ele>5</ele>
        <time>2023-11-22T15:52:22Z</time>
      </trkpt>
      <trkpt lat="49.28235" lon="-0.09664">
        <ele>5.1</ele>
        <time>2023-11-22T15:52:23Z</time>
      </trkpt>
      <trkpt lat="49.28241" lon="-0.09668">
        <ele>5.1</ele>
        <time>2023-11-22T15:52:24Z</time>
      </trkpt>
      <trkpt lat="49.28247" lon="-0.09673">
        <ele>5.1</ele>
        <time>2023-11-22T15:52:25Z</time>
      </trkpt>
      <trkpt lat="49.28253" lon="-0.09677">
        <ele>5.1</ele>
        <time>2023-11-22T15:52:26Z</time>
      </trkpt>
      <trkpt lat="49.28259" lon="-0.09681">
        <ele>5.2</ele>
        <time>2023-11-22T15:52:27Z</time>
      </trkpt>
      <trkpt lat="49.28265" lon="-0.09684">
        <ele>5.2</ele>
        <time>2023-11-22T15:52:28Z</time>
      </trkpt>
      <trkpt lat="49.2827" lon="-0.09688">
        <ele>5.2</ele>
        <time>2023-11-22T15:52:29Z</time>
      </trkpt>
      <trkpt lat="49.28275" lon="-0.09692">
        <ele>5.3</ele>
        <time>2023-11-22T15:52:30Z</time>
      </trkpt>
      <trkpt lat="49.2828" lon="-0.09696">
        <ele>5.3</ele>
        <time>2023-11-22T15:52:31Z</time>
      </trkpt>
      <trkpt lat="49.28285" lon="-0.09699">
        <ele>5.4</ele>
        <time>2023-11-22T15:52:32Z</time>
      </trkpt>
      <trkpt lat="49.2829" lon="-0.09701">
        <ele>5.4</ele>
        <time>2023-11-22T15:52:33Z</time>
      </trkpt>
      <trkpt lat="49.28294" lon="-0.09703">
        <ele>5.4</ele>
        <time>2023-11-22T15:52:34Z</time>
      </trkpt>
      <trkpt lat="49.28297" lon="-0.09704">
        <ele>5.5</ele>
        <time>2023-11-22T15:52:35Z</time>
      </trkpt>
      <trkpt lat="49.28301" lon="-0.09705">
        <ele>5.5</ele>
        <time>2023-11-22T15:52:36Z</time>
      </trkpt>
      <trkpt lat="49.28301" lon="-0.09705">
        <ele>5.5</ele>
        <time>2023-11-22T15:52:37Z</time>
      </trkpt>
      <trkpt lat="49.28303" lon="-0.09705">
        <ele>5.5</ele>
        <time>2023-11-22T15:52:38Z</time>
      </trkpt>
      <trkpt lat="49.28303" lon="-0.09705">
        <ele>5.5</ele>
        <time>2023-11-22T15:52:39Z</time>
      </trkpt>
      <trkpt lat="49.28303" lon="-0.09705">
        <ele>5.5</ele>
        <time>2023-11-22T15:52:40Z</time>
      </trkpt>
      <trkpt lat="49.28303" lon="-0.09705">
        <ele>5.5</ele>
        <time>2023-11-22T15:52:41Z</time>
      </trkpt>
      <trkpt lat="49.28303" lon="-0.09705">
        <ele>5.5</ele>
        <time>2023-11-22T15:52:42Z</time>
      </trkpt>
      <trkpt lat="49.28303" lon="-0.09705">
        <ele>5.5</ele>
        <time>2023-11-22T15:52:43Z</time>
      </trkpt>
      <trkpt lat="49.28303" lon="-0.09705">
        <ele>5.5</ele>
        <time>2023-11-22T15:52:44Z</time>
      </trkpt>
      <trkpt lat="49.28303" lon="-0.09705">
        <ele>5.5</ele>
        <time>2023-11-22T15:52:45Z</time>
      </trkpt>
      <trkpt lat="49.28303" lon="-0.09705">
        <ele>5.5</ele>
        <time>2023-11-22T15:52:46Z</time>
      </trkpt>
      <trkpt lat="49.28303" lon="-0.09705">
        <ele>5.5</ele>
        <time>2023-11-22T15:52:47Z</time>
      </trkpt>
      <trkpt lat="49.28305" lon="-0.09705">
        <ele>5.5</ele>
        <time>2023-11-22T15:52:48Z</time>
      </trkpt>
      <trkpt lat="49.28308" lon="-0.09706">
        <ele>5.5</ele>
        <time>2023-11-22T15:52:49Z</time>
      </trkpt>
      <trkpt lat="49.2831" lon="-0.09706">
        <ele>5.5</ele>
        <time>2023-11-22T15:52:50Z</time>
      </trkpt>
      <trkpt lat="49.28314" lon="-0.09708">
        <ele>5.5</ele>
        <time>2023-11-22T15:52:51Z</time>
      </trkpt>
      <trkpt lat="49.28315" lon="-0.09709">
        <ele>5.5</ele>
        <time>2023-11-22T15:52:52Z</time>
      </trkpt>
      <trkpt lat="49.28318" lon="-0.0971">
        <ele>5.5</ele>
        <time>2023-11-22T15:52:53Z</time>
      </trkpt>
      <trkpt lat="49.28322" lon="-0.09711">
        <ele>5.5</ele>
        <time>2023-11-22T15:52:54Z</time>
      </trkpt>
      <trkpt lat="49.28325" lon="-0.09712">
        <ele>5.5</ele>
        <time>2023-11-22T15:52:55Z</time>
      </trkpt>
      <trkpt lat="49.28328" lon="-0.09715">
        <ele>5.5</ele>
        <time>2023-11-22T15:52:56Z</time>
      </trkpt>
      <trkpt lat="49.2833" lon="-0.0972">
        <ele>5.5</ele>
        <time>2023-11-22T15:52:57Z</time>
      </trkpt>
      <trkpt lat="49.28331" lon="-0.09727">
        <ele>5.5</ele>
        <time>2023-11-22T15:52:58Z</time>
      </trkpt>
      <trkpt lat="49.28331" lon="-0.09733">
        <ele>5.4</ele>
        <time>2023-11-22T15:52:59Z</time>
      </trkpt>
      <trkpt lat="49.2833" lon="-0.09738">
        <ele>5.4</ele>
        <time>2023-11-22T15:53:00Z</time>
      </trkpt>
      <trkpt lat="49.28331" lon="-0.09744">
        <ele>5.4</ele>
        <time>2023-11-22T15:53:01Z</time>
      </trkpt>
      <trkpt lat="49.28332" lon="-0.09749">
        <ele>5.3</ele>
        <time>2023-11-22T15:53:02Z</time>
      </trkpt>
      <trkpt lat="49.28332" lon="-0.09756">
        <ele>5.3</ele>
        <time>2023-11-22T15:53:03Z</time>
      </trkpt>
      <trkpt lat="49.28333" lon="-0.09762">
        <ele>5.2</ele>
        <time>2023-11-22T15:53:04Z</time>
      </trkpt>
      <trkpt lat="49.28333" lon="-0.09769">
        <ele>5.2</ele>
        <time>2023-11-22T15:53:05Z</time>
      </trkpt>
      <trkpt lat="49.28334" lon="-0.09777">
        <ele>5.1</ele>
        <time>2023-11-22T15:53:06Z</time>
      </trkpt>
      <trkpt lat="49.28334" lon="-0.09784">
        <ele>5.1</ele>
        <time>2023-11-22T15:53:07Z</time>
      </trkpt>
      <trkpt lat="49.28334" lon="-0.09792">
        <ele>5.1</ele>
        <time>2023-11-22T15:53:08Z</time>
      </trkpt>
      <trkpt lat="49.28335" lon="-0.09799">
        <ele>5.1</ele>
        <time>2023-11-22T15:53:09Z</time>
      </trkpt>
      <trkpt lat="49.28335" lon="-0.09807">
        <ele>5.1</ele>
        <time>2023-11-22T15:53:10Z</time>
      </trkpt>
      <trkpt lat="49.28335" lon="-0.09815">
        <ele>5.1</ele>
        <time>2023-11-22T15:53:11Z</time>
      </trkpt>
      <trkpt lat="49.28335" lon="-0.09823">
        <ele>5.1</ele>
        <time>2023-11-22T15:53:12Z</time>
      </trkpt>
      <trkpt lat="49.28336" lon="-0.09832">
        <ele>5.1</ele>
        <time>2023-11-22T15:53:13Z</time>
      </trkpt>
      <trkpt lat="49.28337" lon="-0.0984">
        <ele>5</ele>
        <time>2023-11-22T15:53:14Z</time>
      </trkpt>
      <trkpt lat="49.28337" lon="-0.09848">
        <ele>5</ele>
        <time>2023-11-22T15:53:15Z</time>
      </trkpt>
      <trkpt lat="49.28338" lon="-0.09856">
        <ele>5</ele>
        <time>2023-11-22T15:53:16Z</time>
      </trkpt>
      <trkpt lat="49.28338" lon="-0.09864">
        <ele>5</ele>
        <time>2023-11-22T15:53:17Z</time>
      </trkpt>
      <trkpt lat="49.28339" lon="-0.09872">
        <ele>5</ele>
        <time>2023-11-22T15:53:18Z</time>
      </trkpt>
      <trkpt lat="49.28339" lon="-0.09881">
        <ele>5</ele>
        <time>2023-11-22T15:53:19Z</time>
      </trkpt>
      <trkpt lat="49.28339" lon="-0.09889">
        <ele>5</ele>
        <time>2023-11-22T15:53:20Z</time>
      </trkpt>
      <trkpt lat="49.28339" lon="-0.09897">
        <ele>5</ele>
        <time>2023-11-22T15:53:21Z</time>
      </trkpt>
      <trkpt lat="49.2834" lon="-0.09906">
        <ele>5</ele>
        <time>2023-11-22T15:53:22Z</time>
      </trkpt>
      <trkpt lat="49.2834" lon="-0.09914">
        <ele>5</ele>
        <time>2023-11-22T15:53:23Z</time>
      </trkpt>
      <trkpt lat="49.2834" lon="-0.09924">
        <ele>5</ele>
        <time>2023-11-22T15:53:24Z</time>
      </trkpt>
      <trkpt lat="49.2834" lon="-0.09932">
        <ele>4.9</ele>
        <time>2023-11-22T15:53:25Z</time>
      </trkpt>
      <trkpt lat="49.28341" lon="-0.09941">
        <ele>4.8</ele>
        <time>2023-11-22T15:53:26Z</time>
      </trkpt>
      <trkpt lat="49.28342" lon="-0.0995">
        <ele>4.8</ele>
        <time>2023-11-22T15:53:27Z</time>
      </trkpt>
      <trkpt lat="49.28342" lon="-0.09959">
        <ele>4.8</ele>
        <time>2023-11-22T15:53:28Z</time>
      </trkpt>
      <trkpt lat="49.28342" lon="-0.09969">
        <ele>4.7</ele>
        <time>2023-11-22T15:53:29Z</time>
      </trkpt>
      <trkpt lat="49.28343" lon="-0.09978">
        <ele>4.7</ele>
        <time>2023-11-22T15:53:30Z</time>
      </trkpt>
      <trkpt lat="49.28343" lon="-0.09987">
        <ele>4.6</ele>
        <time>2023-11-22T15:53:31Z</time>
      </trkpt>
      <trkpt lat="49.28343" lon="-0.09996">
        <ele>4.6</ele>
        <time>2023-11-22T15:53:32Z</time>
      </trkpt>
      <trkpt lat="49.28343" lon="-0.10005">
        <ele>4.6</ele>
        <time>2023-11-22T15:53:33Z</time>
      </trkpt>
      <trkpt lat="49.28344" lon="-0.10015">
        <ele>4.5</ele>
        <time>2023-11-22T15:53:34Z</time>
      </trkpt>
      <trkpt lat="49.28345" lon="-0.10025">
        <ele>4.5</ele>
        <time>2023-11-22T15:53:35Z</time>
      </trkpt>
      <trkpt lat="49.28345" lon="-0.10034">
        <ele>4.4</ele>
        <time>2023-11-22T15:53:36Z</time>
      </trkpt>
      <trkpt lat="49.28346" lon="-0.10044">
        <ele>4.4</ele>
        <time>2023-11-22T15:53:37Z</time>
      </trkpt>
      <trkpt lat="49.28346" lon="-0.10054">
        <ele>4.3</ele>
        <time>2023-11-22T15:53:38Z</time>
      </trkpt>
      <trkpt lat="49.28347" lon="-0.10064">
        <ele>4.3</ele>
        <time>2023-11-22T15:53:39Z</time>
      </trkpt>
      <trkpt lat="49.28347" lon="-0.10074">
        <ele>4.2</ele>
        <time>2023-11-22T15:53:40Z</time>
      </trkpt>
      <trkpt lat="49.28348" lon="-0.10084">
        <ele>4.2</ele>
        <time>2023-11-22T15:53:41Z</time>
      </trkpt>
      <trkpt lat="49.28348" lon="-0.10094">
        <ele>4.2</ele>
        <time>2023-11-22T15:53:42Z</time>
      </trkpt>
      <trkpt lat="49.28349" lon="-0.10104">
        <ele>4.1</ele>
        <time>2023-11-22T15:53:43Z</time>
      </trkpt>
      <trkpt lat="49.28349" lon="-0.10114">
        <ele>4.1</ele>
        <time>2023-11-22T15:53:44Z</time>
      </trkpt>
      <trkpt lat="49.2835" lon="-0.10124">
        <ele>4.1</ele>
        <time>2023-11-22T15:53:45Z</time>
      </trkpt>
      <trkpt lat="49.2835" lon="-0.10134">
        <ele>4.1</ele>
        <time>2023-11-22T15:53:46Z</time>
      </trkpt>
      <trkpt lat="49.2835" lon="-0.10143">
        <ele>4</ele>
        <time>2023-11-22T15:53:47Z</time>
      </trkpt>
      <trkpt lat="49.28351" lon="-0.10153">
        <ele>4</ele>
        <time>2023-11-22T15:53:48Z</time>
      </trkpt>
      <trkpt lat="49.28351" lon="-0.10162">
        <ele>4</ele>
        <time>2023-11-22T15:53:49Z</time>
      </trkpt>
      <trkpt lat="49.28351" lon="-0.1017">
        <ele>4</ele>
        <time>2023-11-22T15:53:50Z</time>
      </trkpt>
      <trkpt lat="49.28352" lon="-0.10179">
        <ele>4</ele>
        <time>2023-11-22T15:53:51Z</time>
      </trkpt>
      <trkpt lat="49.28352" lon="-0.10188">
        <ele>4</ele>
        <time>2023-11-22T15:53:52Z</time>
      </trkpt>
      <trkpt lat="49.28352" lon="-0.10197">
        <ele>4</ele>
        <time>2023-11-22T15:53:53Z</time>
      </trkpt>
      <trkpt lat="49.28353" lon="-0.10206">
        <ele>4</ele>
        <time>2023-11-22T15:53:54Z</time>
      </trkpt>
      <trkpt lat="49.28353" lon="-0.10214">
        <ele>4.1</ele>
        <time>2023-11-22T15:53:55Z</time>
      </trkpt>
      <trkpt lat="49.28353" lon="-0.10222">
        <ele>4.1</ele>
        <time>2023-11-22T15:53:56Z</time>
      </trkpt>
      <trkpt lat="49.28353" lon="-0.1023">
        <ele>4.1</ele>
        <time>2023-11-22T15:53:57Z</time>
      </trkpt>
      <trkpt lat="49.28354" lon="-0.10237">
        <ele>4.1</ele>
        <time>2023-11-22T15:53:58Z</time>
      </trkpt>
      <trkpt lat="49.28354" lon="-0.10244">
        <ele>4.1</ele>
        <time>2023-11-22T15:53:59Z</time>
      </trkpt>
      <trkpt lat="49.28355" lon="-0.1025">
        <ele>4.1</ele>
        <time>2023-11-22T15:54:00Z</time>
      </trkpt>
      <trkpt lat="49.28355" lon="-0.10255">
        <ele>4.2</ele>
        <time>2023-11-22T15:54:01Z</time>
      </trkpt>
      <trkpt lat="49.28355" lon="-0.10259">
        <ele>4.2</ele>
        <time>2023-11-22T15:54:02Z</time>
      </trkpt>
      <trkpt lat="49.28356" lon="-0.10265">
        <ele>4.2</ele>
        <time>2023-11-22T15:54:03Z</time>
      </trkpt>
      <trkpt lat="49.28356" lon="-0.10266">
        <ele>4.2</ele>
        <time>2023-11-22T15:54:04Z</time>
      </trkpt>
      <trkpt lat="49.28356" lon="-0.10268">
        <ele>4.2</ele>
        <time>2023-11-22T15:54:05Z</time>
      </trkpt>
      <trkpt lat="49.28356" lon="-0.10268">
        <ele>4.2</ele>
        <time>2023-11-22T15:54:06Z</time>
      </trkpt>
      <trkpt lat="49.28356" lon="-0.10269">
        <ele>4.2</ele>
        <time>2023-11-22T15:54:07Z</time>
      </trkpt>
      <trkpt lat="49.28356" lon="-0.1027">
        <ele>4.2</ele>
        <time>2023-11-22T15:54:08Z</time>
      </trkpt>
      <trkpt lat="49.28356" lon="-0.10271">
        <ele>4.2</ele>
        <time>2023-11-22T15:54:09Z</time>
      </trkpt>
      <trkpt lat="49.28356" lon="-0.10271">
        <ele>4.2</ele>
        <time>2023-11-22T15:54:10Z</time>
      </trkpt>
      <trkpt lat="49.28357" lon="-0.10272">
        <ele>4.2</ele>
        <time>2023-11-22T15:54:11Z</time>
      </trkpt>
      <trkpt lat="49.28357" lon="-0.10273">
        <ele>4.2</ele>
        <time>2023-11-22T15:54:12Z</time>
      </trkpt>
      <trkpt lat="49.28357" lon="-0.10274">
        <ele>4.2</ele>
        <time>2023-11-22T15:54:13Z</time>
      </trkpt>
      <trkpt lat="49.28357" lon="-0.10274">
        <ele>4.2</ele>
        <time>2023-11-22T15:54:14Z</time>
      </trkpt>
      <trkpt lat="49.28357" lon="-0.10275">
        <ele>4.2</ele>
        <time>2023-11-22T15:54:15Z</time>
      </trkpt>
      <trkpt lat="49.28357" lon="-0.10276">
        <ele>4.2</ele>
        <time>2023-11-22T15:55:12Z</time>
      </trkpt>
      <trkpt lat="49.28357" lon="-0.10277">
        <ele>4.2</ele>
        <time>2023-11-22T15:55:13Z</time>
      </trkpt>
      <trkpt lat="49.28357" lon="-0.10278">
        <ele>4.2</ele>
        <time>2023-11-22T15:55:14Z</time>
      </trkpt>
      <trkpt lat="49.28358" lon="-0.10283">
        <ele>4.2</ele>
        <time>2023-11-22T15:55:15Z</time>
      </trkpt>
      <trkpt lat="49.28358" lon="-0.10285">
        <ele>4.2</ele>
        <time>2023-11-22T15:55:16Z</time>
      </trkpt>
      <trkpt lat="49.28357" lon="-0.1029">
        <ele>4.2</ele>
        <time>2023-11-22T15:55:17Z</time>
      </trkpt>
      <trkpt lat="49.28357" lon="-0.10295">
        <ele>4.2</ele>
        <time>2023-11-22T15:55:18Z</time>
      </trkpt>
      <trkpt lat="49.28356" lon="-0.103">
        <ele>4.2</ele>
        <time>2023-11-22T15:55:19Z</time>
      </trkpt>
      <trkpt lat="49.28353" lon="-0.10306">
        <ele>4.2</ele>
        <time>2023-11-22T15:55:20Z</time>
      </trkpt>
      <trkpt lat="49.28351" lon="-0.10312">
        <ele>4.2</ele>
        <time>2023-11-22T15:55:21Z</time>
      </trkpt>
      <trkpt lat="49.28349" lon="-0.10318">
        <ele>4.2</ele>
        <time>2023-11-22T15:55:22Z</time>
      </trkpt>
      <trkpt lat="49.28348" lon="-0.10324">
        <ele>4.2</ele>
        <time>2023-11-22T15:55:23Z</time>
      </trkpt>
      <trkpt lat="49.28346" lon="-0.10329">
        <ele>4.2</ele>
        <time>2023-11-22T15:55:24Z</time>
      </trkpt>
      <trkpt lat="49.28345" lon="-0.10335">
        <ele>4.2</ele>
        <time>2023-11-22T15:55:25Z</time>
      </trkpt>
      <trkpt lat="49.28344" lon="-0.10341">
        <ele>4.2</ele>
        <time>2023-11-22T15:55:26Z</time>
      </trkpt>
      <trkpt lat="49.28344" lon="-0.10348">
        <ele>4.2</ele>
        <time>2023-11-22T15:55:27Z</time>
      </trkpt>
      <trkpt lat="49.28344" lon="-0.10355">
        <ele>4.2</ele>
        <time>2023-11-22T15:55:28Z</time>
      </trkpt>
      <trkpt lat="49.28344" lon="-0.10361">
        <ele>4.1</ele>
        <time>2023-11-22T15:55:29Z</time>
      </trkpt>
      <trkpt lat="49.28345" lon="-0.10368">
        <ele>4.1</ele>
        <time>2023-11-22T15:55:30Z</time>
      </trkpt>
      <trkpt lat="49.28345" lon="-0.10375">
        <ele>4.1</ele>
        <time>2023-11-22T15:55:31Z</time>
      </trkpt>
      <trkpt lat="49.28345" lon="-0.10382">
        <ele>4.1</ele>
        <time>2023-11-22T15:55:32Z</time>
      </trkpt>
      <trkpt lat="49.28345" lon="-0.10389">
        <ele>4.1</ele>
        <time>2023-11-22T15:55:33Z</time>
      </trkpt>
      <trkpt lat="49.28346" lon="-0.10396">
        <ele>4.1</ele>
        <time>2023-11-22T15:55:34Z</time>
      </trkpt>
      <trkpt lat="49.28346" lon="-0.10403">
        <ele>4.1</ele>
        <time>2023-11-22T15:55:35Z</time>
      </trkpt>
      <trkpt lat="49.28346" lon="-0.10411">
        <ele>4.1</ele>
        <time>2023-11-22T15:55:36Z</time>
      </trkpt>
      <trkpt lat="49.28346" lon="-0.10418">
        <ele>4.1</ele>
        <time>2023-11-22T15:55:37Z</time>
      </trkpt>
      <trkpt lat="49.28346" lon="-0.10425">
        <ele>4.1</ele>
        <time>2023-11-22T15:55:38Z</time>
      </trkpt>
      <trkpt lat="49.28346" lon="-0.10433">
        <ele>4.1</ele>
        <time>2023-11-22T15:55:39Z</time>
      </trkpt>
      <trkpt lat="49.28347" lon="-0.10441">
        <ele>4.1</ele>
        <time>2023-11-22T15:55:40Z</time>
      </trkpt>
      <trkpt lat="49.28347" lon="-0.10448">
        <ele>4.1</ele>
        <time>2023-11-22T15:55:41Z</time>
      </trkpt>
      <trkpt lat="49.28347" lon="-0.10456">
        <ele>4.1</ele>
        <time>2023-11-22T15:55:42Z</time>
      </trkpt>
      <trkpt lat="49.28347" lon="-0.10463">
        <ele>4.1</ele>
        <time>2023-11-22T15:55:43Z</time>
      </trkpt>
      <trkpt lat="49.28347" lon="-0.10471">
        <ele>4.1</ele>
        <time>2023-11-22T15:55:44Z</time>
      </trkpt>
      <trkpt lat="49.28347" lon="-0.10478">
        <ele>4.1</ele>
        <time>2023-11-22T15:55:45Z</time>
      </trkpt>
      <trkpt lat="49.28348" lon="-0.10485">
        <ele>4.1</ele>
        <time>2023-11-22T15:55:46Z</time>
      </trkpt>
      <trkpt lat="49.28348" lon="-0.10492">
        <ele>4.1</ele>
        <time>2023-11-22T15:55:47Z</time>
      </trkpt>
      <trkpt lat="49.28349" lon="-0.105">
        <ele>4.1</ele>
        <time>2023-11-22T15:55:48Z</time>
      </trkpt>
      <trkpt lat="49.28349" lon="-0.10507">
        <ele>4.1</ele>
        <time>2023-11-22T15:55:49Z</time>
      </trkpt>
      <trkpt lat="49.2835" lon="-0.10514">
        <ele>4.1</ele>
        <time>2023-11-22T15:55:50Z</time>
      </trkpt>
      <trkpt lat="49.2835" lon="-0.10521">
        <ele>4.1</ele>
        <time>2023-11-22T15:55:51Z</time>
      </trkpt>
      <trkpt lat="49.2835" lon="-0.10526">
        <ele>4.1</ele>
        <time>2023-11-22T15:55:52Z</time>
      </trkpt>
      <trkpt lat="49.2835" lon="-0.10531">
        <ele>4.2</ele>
        <time>2023-11-22T15:55:53Z</time>
      </trkpt>
      <trkpt lat="49.2835" lon="-0.10535">
        <ele>4.2</ele>
        <time>2023-11-22T15:55:54Z</time>
      </trkpt>
      <trkpt lat="49.28351" lon="-0.10541">
        <ele>4.2</ele>
        <time>2023-11-22T15:55:55Z</time>
      </trkpt>
      <trkpt lat="49.28351" lon="-0.10546">
        <ele>4.2</ele>
        <time>2023-11-22T15:55:56Z</time>
      </trkpt>
      <trkpt lat="49.28352" lon="-0.10553">
        <ele>4.2</ele>
        <time>2023-11-22T15:55:57Z</time>
      </trkpt>
      <trkpt lat="49.28353" lon="-0.10561">
        <ele>4.2</ele>
        <time>2023-11-22T15:55:58Z</time>
      </trkpt>
      <trkpt lat="49.28353" lon="-0.10568">
        <ele>4.2</ele>
        <time>2023-11-22T15:55:59Z</time>
      </trkpt>
      <trkpt lat="49.28353" lon="-0.10574">
        <ele>4.2</ele>
        <time>2023-11-22T15:56:00Z</time>
      </trkpt>
      <trkpt lat="49.28354" lon="-0.10582">
        <ele>4.2</ele>
        <time>2023-11-22T15:56:01Z</time>
      </trkpt>
      <trkpt lat="49.28354" lon="-0.10589">
        <ele>4.2</ele>
        <time>2023-11-22T15:56:02Z</time>
      </trkpt>
      <trkpt lat="49.28354" lon="-0.10597">
        <ele>4.3</ele>
        <time>2023-11-22T15:56:03Z</time>
      </trkpt>
      <trkpt lat="49.28355" lon="-0.10605">
        <ele>4.3</ele>
        <time>2023-11-22T15:56:04Z</time>
      </trkpt>
      <trkpt lat="49.28355" lon="-0.10612">
        <ele>4.3</ele>
        <time>2023-11-22T15:56:05Z</time>
      </trkpt>
      <trkpt lat="49.28355" lon="-0.1062">
        <ele>4.3</ele>
        <time>2023-11-22T15:56:06Z</time>
      </trkpt>
      <trkpt lat="49.28355" lon="-0.10628">
        <ele>4.3</ele>
        <time>2023-11-22T15:56:07Z</time>
      </trkpt>
      <trkpt lat="49.28355" lon="-0.10636">
        <ele>4.3</ele>
        <time>2023-11-22T15:56:08Z</time>
      </trkpt>
      <trkpt lat="49.28355" lon="-0.10645">
        <ele>4.3</ele>
        <time>2023-11-22T15:56:09Z</time>
      </trkpt>
      <trkpt lat="49.28355" lon="-0.10653">
        <ele>4.3</ele>
        <time>2023-11-22T15:56:10Z</time>
      </trkpt>
      <trkpt lat="49.28356" lon="-0.10661">
        <ele>4.3</ele>
        <time>2023-11-22T15:56:11Z</time>
      </trkpt>
      <trkpt lat="49.28356" lon="-0.10669">
        <ele>4.3</ele>
        <time>2023-11-22T15:56:12Z</time>
      </trkpt>
      <trkpt lat="49.28357" lon="-0.10677">
        <ele>4.3</ele>
        <time>2023-11-22T15:56:13Z</time>
      </trkpt>
      <trkpt lat="49.28357" lon="-0.10686">
        <ele>4.4</ele>
        <time>2023-11-22T15:56:14Z</time>
      </trkpt>
      <trkpt lat="49.28358" lon="-0.10694">
        <ele>4.4</ele>
        <time>2023-11-22T15:56:15Z</time>
      </trkpt>
      <trkpt lat="49.28358" lon="-0.10703">
        <ele>4.4</ele>
        <time>2023-11-22T15:56:16Z</time>
      </trkpt>
      <trkpt lat="49.28358" lon="-0.10711">
        <ele>4.4</ele>
        <time>2023-11-22T15:56:17Z</time>
      </trkpt>
      <trkpt lat="49.28359" lon="-0.1072">
        <ele>4.3</ele>
        <time>2023-11-22T15:56:18Z</time>
      </trkpt>
      <trkpt lat="49.28359" lon="-0.10728">
        <ele>4.3</ele>
        <time>2023-11-22T15:56:19Z</time>
      </trkpt>
      <trkpt lat="49.28359" lon="-0.10736">
        <ele>4.3</ele>
        <time>2023-11-22T15:56:20Z</time>
      </trkpt>
      <trkpt lat="49.28359" lon="-0.10745">
        <ele>4.3</ele>
        <time>2023-11-22T15:56:21Z</time>
      </trkpt>
      <trkpt lat="49.28359" lon="-0.10753">
        <ele>4.3</ele>
        <time>2023-11-22T15:56:22Z</time>
      </trkpt>
      <trkpt lat="49.2836" lon="-0.1076">
        <ele>4.3</ele>
        <time>2023-11-22T15:56:23Z</time>
      </trkpt>
      <trkpt lat="49.28363" lon="-0.10765">
        <ele>4.3</ele>
        <time>2023-11-22T15:56:24Z</time>
      </trkpt>
      <trkpt lat="49.28367" lon="-0.10767">
        <ele>4.3</ele>
        <time>2023-11-22T15:56:25Z</time>
      </trkpt>
      <trkpt lat="49.28373" lon="-0.10766">
        <ele>4.2</ele>
        <time>2023-11-22T15:56:26Z</time>
      </trkpt>
      <trkpt lat="49.28378" lon="-0.10765">
        <ele>4.2</ele>
        <time>2023-11-22T15:56:27Z</time>
      </trkpt>
      <trkpt lat="49.28383" lon="-0.10765">
        <ele>4.2</ele>
        <time>2023-11-22T15:56:28Z</time>
      </trkpt>
      <trkpt lat="49.28388" lon="-0.10764">
        <ele>4.2</ele>
        <time>2023-11-22T15:56:29Z</time>
      </trkpt>
      <trkpt lat="49.28393" lon="-0.10764">
        <ele>4.2</ele>
        <time>2023-11-22T15:56:30Z</time>
      </trkpt>
      <trkpt lat="49.28398" lon="-0.10763">
        <ele>4.3</ele>
        <time>2023-11-22T15:56:31Z</time>
      </trkpt>
      <trkpt lat="49.28403" lon="-0.10762">
        <ele>4.3</ele>
        <time>2023-11-22T15:56:32Z</time>
      </trkpt>
      <trkpt lat="49.28408" lon="-0.10761">
        <ele>4.3</ele>
        <time>2023-11-22T15:56:33Z</time>
      </trkpt>
      <trkpt lat="49.28412" lon="-0.1076">
        <ele>4.2</ele>
        <time>2023-11-22T15:56:34Z</time>
      </trkpt>
      <trkpt lat="49.28417" lon="-0.10759">
        <ele>4.2</ele>
        <time>2023-11-22T15:56:35Z</time>
      </trkpt>
      <trkpt lat="49.28421" lon="-0.10757">
        <ele>4.2</ele>
        <time>2023-11-22T15:56:36Z</time>
      </trkpt>
      <trkpt lat="49.28426" lon="-0.10759">
        <ele>4.2</ele>
        <time>2023-11-22T15:56:37Z</time>
      </trkpt>
      <trkpt lat="49.28429" lon="-0.10765">
        <ele>4.1</ele>
        <time>2023-11-22T15:56:38Z</time>
      </trkpt>
      <trkpt lat="49.28431" lon="-0.10772">
        <ele>4</ele>
        <time>2023-11-22T15:56:39Z</time>
      </trkpt>
      <trkpt lat="49.28432" lon="-0.10779">
        <ele>3.9</ele>
        <time>2023-11-22T15:56:40Z</time>
      </trkpt>
      <trkpt lat="49.28433" lon="-0.10786">
        <ele>3.9</ele>
        <time>2023-11-22T15:56:41Z</time>
      </trkpt>
      <trkpt lat="49.28433" lon="-0.10793">
        <ele>3.8</ele>
        <time>2023-11-22T15:56:42Z</time>
      </trkpt>
      <trkpt lat="49.28434" lon="-0.108">
        <ele>3.8</ele>
        <time>2023-11-22T15:56:43Z</time>
      </trkpt>
      <trkpt lat="49.28434" lon="-0.10808">
        <ele>3.8</ele>
        <time>2023-11-22T15:56:44Z</time>
      </trkpt>
      <trkpt lat="49.28433" lon="-0.10816">
        <ele>3.8</ele>
        <time>2023-11-22T15:56:45Z</time>
      </trkpt>
      <trkpt lat="49.28434" lon="-0.10824">
        <ele>3.8</ele>
        <time>2023-11-22T15:56:46Z</time>
      </trkpt>
      <trkpt lat="49.28435" lon="-0.10832">
        <ele>3.9</ele>
        <time>2023-11-22T15:56:47Z</time>
      </trkpt>
      <trkpt lat="49.28437" lon="-0.10839">
        <ele>3.9</ele>
        <time>2023-11-22T15:56:48Z</time>
      </trkpt>
      <trkpt lat="49.28438" lon="-0.10847">
        <ele>4</ele>
        <time>2023-11-22T15:56:49Z</time>
      </trkpt>
      <trkpt lat="49.28439" lon="-0.10855">
        <ele>4.1</ele>
        <time>2023-11-22T15:56:50Z</time>
      </trkpt>
      <trkpt lat="49.28441" lon="-0.10863">
        <ele>4.2</ele>
        <time>2023-11-22T15:56:51Z</time>
      </trkpt>
      <trkpt lat="49.28442" lon="-0.10871">
        <ele>4.3</ele>
        <time>2023-11-22T15:56:52Z</time>
      </trkpt>
      <trkpt lat="49.28443" lon="-0.10878">
        <ele>4.4</ele>
        <time>2023-11-22T15:56:53Z</time>
      </trkpt>
      <trkpt lat="49.28446" lon="-0.10882">
        <ele>4.5</ele>
        <time>2023-11-22T15:56:54Z</time>
      </trkpt>
      <trkpt lat="49.2845" lon="-0.10882">
        <ele>4.4</ele>
        <time>2023-11-22T15:56:55Z</time>
      </trkpt>
      <trkpt lat="49.28455" lon="-0.1088">
        <ele>4.4</ele>
        <time>2023-11-22T15:56:56Z</time>
      </trkpt>
      <trkpt lat="49.28459" lon="-0.10877">
        <ele>4.3</ele>
        <time>2023-11-22T15:56:57Z</time>
      </trkpt>
      <trkpt lat="49.28463" lon="-0.10873">
        <ele>4.3</ele>
        <time>2023-11-22T15:56:58Z</time>
      </trkpt>
      <trkpt lat="49.28468" lon="-0.10871">
        <ele>4.2</ele>
        <time>2023-11-22T15:56:59Z</time>
      </trkpt>
      <trkpt lat="49.28473" lon="-0.10869">
        <ele>4.2</ele>
        <time>2023-11-22T15:57:00Z</time>
      </trkpt>
      <trkpt lat="49.28477" lon="-0.10867">
        <ele>4.2</ele>
        <time>2023-11-22T15:57:01Z</time>
      </trkpt>
      <trkpt lat="49.28482" lon="-0.10865">
        <ele>4.2</ele>
        <time>2023-11-22T15:57:02Z</time>
      </trkpt>
      <trkpt lat="49.28487" lon="-0.10862">
        <ele>4.3</ele>
        <time>2023-11-22T15:57:03Z</time>
      </trkpt>
      <trkpt lat="49.28491" lon="-0.1086">
        <ele>4.3</ele>
        <time>2023-11-22T15:57:04Z</time>
      </trkpt>
      <trkpt lat="49.28496" lon="-0.10858">
        <ele>4.4</ele>
        <time>2023-11-22T15:57:05Z</time>
      </trkpt>
      <trkpt lat="49.285" lon="-0.10855">
        <ele>4.5</ele>
        <time>2023-11-22T15:57:06Z</time>
      </trkpt>
      <trkpt lat="49.28505" lon="-0.10853">
        <ele>4.6</ele>
        <time>2023-11-22T15:57:07Z</time>
      </trkpt>
      <trkpt lat="49.2851" lon="-0.10851">
        <ele>4.7</ele>
        <time>2023-11-22T15:57:08Z</time>
      </trkpt>
      <trkpt lat="49.28514" lon="-0.10849">
        <ele>4.7</ele>
        <time>2023-11-22T15:57:09Z</time>
      </trkpt>
      <trkpt lat="49.28518" lon="-0.10847">
        <ele>4.8</ele>
        <time>2023-11-22T15:57:10Z</time>
      </trkpt>
      <trkpt lat="49.28522" lon="-0.10845">
        <ele>4.8</ele>
        <time>2023-11-22T15:57:11Z</time>
      </trkpt>
      <trkpt lat="49.28527" lon="-0.10842">
        <ele>4.8</ele>
        <time>2023-11-22T15:57:12Z</time>
      </trkpt>
      <trkpt lat="49.28532" lon="-0.10838">
        <ele>4.8</ele>
        <time>2023-11-22T15:57:13Z</time>
      </trkpt>
      <trkpt lat="49.28538" lon="-0.10836">
        <ele>4.8</ele>
        <time>2023-11-22T15:57:14Z</time>
      </trkpt>
      <trkpt lat="49.28544" lon="-0.10834">
        <ele>4.8</ele>
        <time>2023-11-22T15:57:15Z</time>
      </trkpt>
      <trkpt lat="49.2855" lon="-0.10831">
        <ele>4.8</ele>
        <time>2023-11-22T15:57:16Z</time>
      </trkpt>
      <trkpt lat="49.28556" lon="-0.10828">
        <ele>4.8</ele>
        <time>2023-11-22T15:57:17Z</time>
      </trkpt>
      <trkpt lat="49.28562" lon="-0.10825">
        <ele>4.8</ele>
        <time>2023-11-22T15:57:18Z</time>
      </trkpt>
      <trkpt lat="49.28568" lon="-0.10822">
        <ele>4.8</ele>
        <time>2023-11-22T15:57:19Z</time>
      </trkpt>
      <trkpt lat="49.28574" lon="-0.10819">
        <ele>4.8</ele>
        <time>2023-11-22T15:57:20Z</time>
      </trkpt>
      <trkpt lat="49.2858" lon="-0.10816">
        <ele>4.8</ele>
        <time>2023-11-22T15:57:21Z</time>
      </trkpt>
      <trkpt lat="49.28586" lon="-0.10813">
        <ele>4.8</ele>
        <time>2023-11-22T15:57:22Z</time>
      </trkpt>
      <trkpt lat="49.28591" lon="-0.1081">
        <ele>4.8</ele>
        <time>2023-11-22T15:57:23Z</time>
      </trkpt>
      <trkpt lat="49.28597" lon="-0.10806">
        <ele>4.9</ele>
        <time>2023-11-22T15:57:24Z</time>
      </trkpt>
      <trkpt lat="49.28603" lon="-0.10802">
        <ele>4.9</ele>
        <time>2023-11-22T15:57:25Z</time>
      </trkpt>
      <trkpt lat="49.28608" lon="-0.10798">
        <ele>4.9</ele>
        <time>2023-11-22T15:57:26Z</time>
      </trkpt>
      <trkpt lat="49.28612" lon="-0.10792">
        <ele>4.8</ele>
        <time>2023-11-22T15:57:27Z</time>
      </trkpt>
      <trkpt lat="49.28615" lon="-0.10783">
        <ele>4.8</ele>
        <time>2023-11-22T15:57:28Z</time>
      </trkpt>
      <trkpt lat="49.28617" lon="-0.10774">
        <ele>4.8</ele>
        <time>2023-11-22T15:57:29Z</time>
      </trkpt>
      <trkpt lat="49.2862" lon="-0.10765">
        <ele>4.8</ele>
        <time>2023-11-22T15:57:30Z</time>
      </trkpt>
      <trkpt lat="49.28624" lon="-0.10757">
        <ele>4.8</ele>
        <time>2023-11-22T15:57:31Z</time>
      </trkpt>
      <trkpt lat="49.28629" lon="-0.1075">
        <ele>4.8</ele>
        <time>2023-11-22T15:57:32Z</time>
      </trkpt>
      <trkpt lat="49.28634" lon="-0.10744">
        <ele>4.8</ele>
        <time>2023-11-22T15:57:33Z</time>
      </trkpt>
      <trkpt lat="49.28639" lon="-0.10739">
        <ele>4.8</ele>
        <time>2023-11-22T15:57:34Z</time>
      </trkpt>
      <trkpt lat="49.28644" lon="-0.10734">
        <ele>4.7</ele>
        <time>2023-11-22T15:57:35Z</time>
      </trkpt>
      <trkpt lat="49.28649" lon="-0.1073">
        <ele>4.7</ele>
        <time>2023-11-22T15:57:36Z</time>
      </trkpt>
      <trkpt lat="49.28655" lon="-0.10725">
        <ele>4.7</ele>
        <time>2023-11-22T15:57:37Z</time>
      </trkpt>
      <trkpt lat="49.2866" lon="-0.10721">
        <ele>4.7</ele>
        <time>2023-11-22T15:57:38Z</time>
      </trkpt>
      <trkpt lat="49.28666" lon="-0.10717">
        <ele>4.7</ele>
        <time>2023-11-22T15:57:39Z</time>
      </trkpt>
      <trkpt lat="49.28672" lon="-0.10715">
        <ele>4.7</ele>
        <time>2023-11-22T15:57:40Z</time>
      </trkpt>
      <trkpt lat="49.28678" lon="-0.10714">
        <ele>4.6</ele>
        <time>2023-11-22T15:57:41Z</time>
      </trkpt>
      <trkpt lat="49.28684" lon="-0.10711">
        <ele>4.6</ele>
        <time>2023-11-22T15:57:42Z</time>
      </trkpt>
      <trkpt lat="49.28689" lon="-0.10705">
        <ele>4.6</ele>
        <time>2023-11-22T15:57:43Z</time>
      </trkpt>
      <trkpt lat="49.28694" lon="-0.10699">
        <ele>4.5</ele>
        <time>2023-11-22T15:57:44Z</time>
      </trkpt>
      <trkpt lat="49.28699" lon="-0.10693">
        <ele>4.5</ele>
        <time>2023-11-22T15:57:45Z</time>
      </trkpt>
      <trkpt lat="49.28704" lon="-0.10686">
        <ele>4.5</ele>
        <time>2023-11-22T15:57:46Z</time>
      </trkpt>
      <trkpt lat="49.28709" lon="-0.1068">
        <ele>4.4</ele>
        <time>2023-11-22T15:57:47Z</time>
      </trkpt>
      <trkpt lat="49.28713" lon="-0.10673">
        <ele>4.4</ele>
        <time>2023-11-22T15:57:48Z</time>
      </trkpt>
      <trkpt lat="49.28718" lon="-0.10666">
        <ele>4.4</ele>
        <time>2023-11-22T15:57:49Z</time>
      </trkpt>
      <trkpt lat="49.28722" lon="-0.10659">
        <ele>4.4</ele>
        <time>2023-11-22T15:57:50Z</time>
      </trkpt>
      <trkpt lat="49.28727" lon="-0.10652">
        <ele>4.4</ele>
        <time>2023-11-22T15:57:51Z</time>
      </trkpt>
      <trkpt lat="49.28731" lon="-0.10644">
        <ele>4.4</ele>
        <time>2023-11-22T15:57:52Z</time>
      </trkpt>
      <trkpt lat="49.28735" lon="-0.10635">
        <ele>4.4</ele>
        <time>2023-11-22T15:57:53Z</time>
      </trkpt>
      <trkpt lat="49.28739" lon="-0.10627">
        <ele>4.4</ele>
        <time>2023-11-22T15:57:54Z</time>
      </trkpt>
      <trkpt lat="49.28743" lon="-0.10619">
        <ele>4.4</ele>
        <time>2023-11-22T15:57:55Z</time>
      </trkpt>
      <trkpt lat="49.28747" lon="-0.10611">
        <ele>4.4</ele>
        <time>2023-11-22T15:57:56Z</time>
      </trkpt>
      <trkpt lat="49.28751" lon="-0.10603">
        <ele>4.3</ele>
        <time>2023-11-22T15:57:57Z</time>
      </trkpt>
      <trkpt lat="49.28754" lon="-0.10594">
        <ele>4.3</ele>
        <time>2023-11-22T15:57:58Z</time>
      </trkpt>
      <trkpt lat="49.28758" lon="-0.10586">
        <ele>4.3</ele>
        <time>2023-11-22T15:57:59Z</time>
      </trkpt>
      <trkpt lat="49.28762" lon="-0.10578">
        <ele>4.3</ele>
        <time>2023-11-22T15:58:00Z</time>
      </trkpt>
      <trkpt lat="49.28764" lon="-0.10569">
        <ele>4.3</ele>
        <time>2023-11-22T15:58:01Z</time>
      </trkpt>
      <trkpt lat="49.28765" lon="-0.10559">
        <ele>4.3</ele>
        <time>2023-11-22T15:58:02Z</time>
      </trkpt>
      <trkpt lat="49.28767" lon="-0.1055">
        <ele>4.3</ele>
        <time>2023-11-22T15:58:03Z</time>
      </trkpt>
      <trkpt lat="49.28772" lon="-0.10542">
        <ele>4.3</ele>
        <time>2023-11-22T15:58:04Z</time>
      </trkpt>
      <trkpt lat="49.28776" lon="-0.10534">
        <ele>4.2</ele>
        <time>2023-11-22T15:58:05Z</time>
      </trkpt>
      <trkpt lat="49.28781" lon="-0.10525">
        <ele>4.2</ele>
        <time>2023-11-22T15:58:06Z</time>
      </trkpt>
      <trkpt lat="49.28784" lon="-0.10516">
        <ele>4.1</ele>
        <time>2023-11-22T15:58:07Z</time>
      </trkpt>
      <trkpt lat="49.28788" lon="-0.10508">
        <ele>4.1</ele>
        <time>2023-11-22T15:58:08Z</time>
      </trkpt>
      <trkpt lat="49.28792" lon="-0.105">
        <ele>4</ele>
        <time>2023-11-22T15:58:09Z</time>
      </trkpt>
      <trkpt lat="49.28797" lon="-0.10492">
        <ele>4</ele>
        <time>2023-11-22T15:58:10Z</time>
      </trkpt>
      <trkpt lat="49.28801" lon="-0.10485">
        <ele>4</ele>
        <time>2023-11-22T15:58:11Z</time>
      </trkpt>
      <trkpt lat="49.28805" lon="-0.10478">
        <ele>4</ele>
        <time>2023-11-22T15:58:12Z</time>
      </trkpt>
      <trkpt lat="49.2881" lon="-0.10471">
        <ele>4</ele>
        <time>2023-11-22T15:58:13Z</time>
      </trkpt>
      <trkpt lat="49.28814" lon="-0.10463">
        <ele>4</ele>
        <time>2023-11-22T15:58:14Z</time>
      </trkpt>
      <trkpt lat="49.28818" lon="-0.10455">
        <ele>4</ele>
        <time>2023-11-22T15:58:15Z</time>
      </trkpt>
      <trkpt lat="49.28822" lon="-0.10448">
        <ele>4</ele>
        <time>2023-11-22T15:58:16Z</time>
      </trkpt>
      <trkpt lat="49.28826" lon="-0.10441">
        <ele>4</ele>
        <time>2023-11-22T15:58:17Z</time>
      </trkpt>
      <trkpt lat="49.28831" lon="-0.10434">
        <ele>4</ele>
        <time>2023-11-22T15:58:18Z</time>
      </trkpt>
      <trkpt lat="49.28836" lon="-0.10426">
        <ele>4</ele>
        <time>2023-11-22T15:58:19Z</time>
      </trkpt>
      <trkpt lat="49.28841" lon="-0.10419">
        <ele>4</ele>
        <time>2023-11-22T15:58:20Z</time>
      </trkpt>
      <trkpt lat="49.28845" lon="-0.10411">
        <ele>4</ele>
        <time>2023-11-22T15:58:21Z</time>
      </trkpt>
      <trkpt lat="49.2885" lon="-0.10404">
        <ele>4.1</ele>
        <time>2023-11-22T15:58:22Z</time>
      </trkpt>
      <trkpt lat="49.28854" lon="-0.10397">
        <ele>4.1</ele>
        <time>2023-11-22T15:58:23Z</time>
      </trkpt>
      <trkpt lat="49.28859" lon="-0.1039">
        <ele>4.1</ele>
        <time>2023-11-22T15:58:24Z</time>
      </trkpt>
      <trkpt lat="49.28864" lon="-0.10384">
        <ele>4.1</ele>
        <time>2023-11-22T15:58:25Z</time>
      </trkpt>
      <trkpt lat="49.28869" lon="-0.10377">
        <ele>4.2</ele>
        <time>2023-11-22T15:58:26Z</time>
      </trkpt>
      <trkpt lat="49.28875" lon="-0.10372">
        <ele>4.2</ele>
        <time>2023-11-22T15:58:27Z</time>
      </trkpt>
      <trkpt lat="49.2888" lon="-0.10367">
        <ele>4.2</ele>
        <time>2023-11-22T15:58:28Z</time>
      </trkpt>
      <trkpt lat="49.28886" lon="-0.10362">
        <ele>4.2</ele>
        <time>2023-11-22T15:58:29Z</time>
      </trkpt>
      <trkpt lat="49.28892" lon="-0.10357">
        <ele>4.2</ele>
        <time>2023-11-22T15:58:30Z</time>
      </trkpt>
      <trkpt lat="49.28898" lon="-0.10351">
        <ele>4.2</ele>
        <time>2023-11-22T15:58:31Z</time>
      </trkpt>
      <trkpt lat="49.28904" lon="-0.10346">
        <ele>4.3</ele>
        <time>2023-11-22T15:58:32Z</time>
      </trkpt>
      <trkpt lat="49.28909" lon="-0.10341">
        <ele>4.3</ele>
        <time>2023-11-22T15:58:33Z</time>
      </trkpt>
      <trkpt lat="49.28915" lon="-0.10335">
        <ele>4.3</ele>
        <time>2023-11-22T15:58:34Z</time>
      </trkpt>
      <trkpt lat="49.2892" lon="-0.10329">
        <ele>4.3</ele>
        <time>2023-11-22T15:58:35Z</time>
      </trkpt>
      <trkpt lat="49.28926" lon="-0.10323">
        <ele>4.3</ele>
        <time>2023-11-22T15:58:36Z</time>
      </trkpt>
      <trkpt lat="49.28931" lon="-0.10317">
        <ele>4.3</ele>
        <time>2023-11-22T15:58:37Z</time>
      </trkpt>
      <trkpt lat="49.28935" lon="-0.10311">
        <ele>4.3</ele>
        <time>2023-11-22T15:58:38Z</time>
      </trkpt>
      <trkpt lat="49.28939" lon="-0.10304">
        <ele>4.3</ele>
        <time>2023-11-22T15:58:39Z</time>
      </trkpt>
      <trkpt lat="49.28944" lon="-0.10297">
        <ele>4.3</ele>
        <time>2023-11-22T15:58:40Z</time>
      </trkpt>
      <trkpt lat="49.28948" lon="-0.1029">
        <ele>4.3</ele>
        <time>2023-11-22T15:58:41Z</time>
      </trkpt>
      <trkpt lat="49.28952" lon="-0.10283">
        <ele>4.3</ele>
        <time>2023-11-22T15:58:42Z</time>
      </trkpt>
      <trkpt lat="49.28955" lon="-0.10276">
        <ele>4.3</ele>
        <time>2023-11-22T15:58:43Z</time>
      </trkpt>
      <trkpt lat="49.28958" lon="-0.10267">
        <ele>4.3</ele>
        <time>2023-11-22T15:58:44Z</time>
      </trkpt>
      <trkpt lat="49.28962" lon="-0.10259">
        <ele>4.3</ele>
        <time>2023-11-22T15:58:45Z</time>
      </trkpt>
      <trkpt lat="49.28965" lon="-0.1025">
        <ele>4.3</ele>
        <time>2023-11-22T15:58:46Z</time>
      </trkpt>
      <trkpt lat="49.28971" lon="-0.10243">
        <ele>4.3</ele>
        <time>2023-11-22T15:58:47Z</time>
      </trkpt>
      <trkpt lat="49.28976" lon="-0.10236">
        <ele>4.3</ele>
        <time>2023-11-22T15:58:48Z</time>
      </trkpt>
      <trkpt lat="49.28982" lon="-0.10229">
        <ele>4.2</ele>
        <time>2023-11-22T15:58:49Z</time>
      </trkpt>
      <trkpt lat="49.28987" lon="-0.10222">
        <ele>4.2</ele>
        <time>2023-11-22T15:58:50Z</time>
      </trkpt>
      <trkpt lat="49.28992" lon="-0.10214">
        <ele>4.2</ele>
        <time>2023-11-22T15:58:51Z</time>
      </trkpt>
      <trkpt lat="49.28997" lon="-0.10206">
        <ele>4.2</ele>
        <time>2023-11-22T15:58:52Z</time>
      </trkpt>
      <trkpt lat="49.29002" lon="-0.10198">
        <ele>4.2</ele>
        <time>2023-11-22T15:58:53Z</time>
      </trkpt>
      <trkpt lat="49.29008" lon="-0.10191">
        <ele>4.3</ele>
        <time>2023-11-22T15:58:54Z</time>
      </trkpt>
      <trkpt lat="49.29013" lon="-0.10183">
        <ele>4.3</ele>
        <time>2023-11-22T15:58:55Z</time>
      </trkpt>
      <trkpt lat="49.29018" lon="-0.10176">
        <ele>4.4</ele>
        <time>2023-11-22T15:58:56Z</time>
      </trkpt>
      <trkpt lat="49.29024" lon="-0.10169">
        <ele>4.4</ele>
        <time>2023-11-22T15:58:57Z</time>
      </trkpt>
      <trkpt lat="49.29029" lon="-0.10162">
        <ele>4.4</ele>
        <time>2023-11-22T15:58:58Z</time>
      </trkpt>
      <trkpt lat="49.29035" lon="-0.10156">
        <ele>4.5</ele>
        <time>2023-11-22T15:58:59Z</time>
      </trkpt>
      <trkpt lat="49.2904" lon="-0.1015">
        <ele>4.5</ele>
        <time>2023-11-22T15:59:00Z</time>
      </trkpt>
      <trkpt lat="49.29046" lon="-0.10145">
        <ele>4.5</ele>
        <time>2023-11-22T15:59:01Z</time>
      </trkpt>
      <trkpt lat="49.29051" lon="-0.10139">
        <ele>4.5</ele>
        <time>2023-11-22T15:59:02Z</time>
      </trkpt>
      <trkpt lat="49.29057" lon="-0.10134">
        <ele>4.6</ele>
        <time>2023-11-22T15:59:03Z</time>
      </trkpt>
      <trkpt lat="49.29062" lon="-0.10128">
        <ele>4.6</ele>
        <time>2023-11-22T15:59:04Z</time>
      </trkpt>
      <trkpt lat="49.29067" lon="-0.10122">
        <ele>4.6</ele>
        <time>2023-11-22T15:59:05Z</time>
      </trkpt>
      <trkpt lat="49.29072" lon="-0.10115">
        <ele>4.7</ele>
        <time>2023-11-22T15:59:06Z</time>
      </trkpt>
      <trkpt lat="49.29076" lon="-0.10109">
        <ele>4.7</ele>
        <time>2023-11-22T15:59:07Z</time>
      </trkpt>
      <trkpt lat="49.29081" lon="-0.10102">
        <ele>4.7</ele>
        <time>2023-11-22T15:59:08Z</time>
      </trkpt>
      <trkpt lat="49.29086" lon="-0.10096">
        <ele>4.7</ele>
        <time>2023-11-22T15:59:09Z</time>
      </trkpt>
      <trkpt lat="49.2909" lon="-0.10089">
        <ele>4.6</ele>
        <time>2023-11-22T15:59:10Z</time>
      </trkpt>
      <trkpt lat="49.29095" lon="-0.10082">
        <ele>4.6</ele>
        <time>2023-11-22T15:59:11Z</time>
      </trkpt>
      <trkpt lat="49.29099" lon="-0.10075">
        <ele>4.6</ele>
        <time>2023-11-22T15:59:12Z</time>
      </trkpt>
      <trkpt lat="49.29104" lon="-0.10068">
        <ele>4.6</ele>
        <time>2023-11-22T15:59:13Z</time>
      </trkpt>
      <trkpt lat="49.29108" lon="-0.10061">
        <ele>4.6</ele>
        <time>2023-11-22T15:59:14Z</time>
      </trkpt>
      <trkpt lat="49.29112" lon="-0.10055">
        <ele>4.5</ele>
        <time>2023-11-22T15:59:15Z</time>
      </trkpt>
      <trkpt lat="49.29117" lon="-0.10048">
        <ele>4.5</ele>
        <time>2023-11-22T15:59:16Z</time>
      </trkpt>
      <trkpt lat="49.29121" lon="-0.10041">
        <ele>4.5</ele>
        <time>2023-11-22T15:59:17Z</time>
      </trkpt>
      <trkpt lat="49.29125" lon="-0.10034">
        <ele>4.5</ele>
        <time>2023-11-22T15:59:18Z</time>
      </trkpt>
      <trkpt lat="49.29129" lon="-0.10027">
        <ele>4.5</ele>
        <time>2023-11-22T15:59:19Z</time>
      </trkpt>
      <trkpt lat="49.29133" lon="-0.10021">
        <ele>4.5</ele>
        <time>2023-11-22T15:59:20Z</time>
      </trkpt>
      <trkpt lat="49.29136" lon="-0.10014">
        <ele>4.5</ele>
        <time>2023-11-22T15:59:21Z</time>
      </trkpt>
      <trkpt lat="49.29139" lon="-0.10006">
        <ele>4.4</ele>
        <time>2023-11-22T15:59:22Z</time>
      </trkpt>
      <trkpt lat="49.2914" lon="-0.09999">
        <ele>4.4</ele>
        <time>2023-11-22T15:59:23Z</time>
      </trkpt>
      <trkpt lat="49.2914" lon="-0.09992">
        <ele>4.4</ele>
        <time>2023-11-22T15:59:24Z</time>
      </trkpt>
      <trkpt lat="49.29139" lon="-0.09987">
        <ele>4.4</ele>
        <time>2023-11-22T15:59:25Z</time>
      </trkpt>
      <trkpt lat="49.29139" lon="-0.09982">
        <ele>4.4</ele>
        <time>2023-11-22T15:59:26Z</time>
      </trkpt>
      <trkpt lat="49.29138" lon="-0.0998">
        <ele>4.4</ele>
        <time>2023-11-22T15:59:27Z</time>
      </trkpt>
      <trkpt lat="49.29139" lon="-0.09979">
        <ele>4.4</ele>
        <time>2023-11-22T15:59:28Z</time>
      </trkpt>
      <trkpt lat="49.29139" lon="-0.0998">
        <ele>4.4</ele>
        <time>2023-11-22T15:59:29Z</time>
      </trkpt>
      <trkpt lat="49.29139" lon="-0.09981">
        <ele>4.4</ele>
        <time>2023-11-22T15:59:30Z</time>
      </trkpt>
      <trkpt lat="49.29139" lon="-0.0998">
        <ele>4.4</ele>
        <time>2023-11-22T15:59:31Z</time>
      </trkpt>
      <trkpt lat="49.29139" lon="-0.09979">
        <ele>4.4</ele>
        <time>2023-11-22T15:59:32Z</time>
      </trkpt>
      <trkpt lat="49.29139" lon="-0.09979">
        <ele>4.4</ele>
        <time>2023-11-22T15:59:33Z</time>
      </trkpt>
      <trkpt lat="49.29138" lon="-0.09978">
        <ele>4.4</ele>
        <time>2023-11-22T15:59:34Z</time>
      </trkpt>
      <trkpt lat="49.29138" lon="-0.09978">
        <ele>4.4</ele>
        <time>2023-11-22T15:59:35Z</time>
      </trkpt>
      <trkpt lat="49.29138" lon="-0.09978">
        <ele>4.4</ele>
        <time>2023-11-22T15:59:36Z</time>
      </trkpt>
      <trkpt lat="49.29138" lon="-0.09978">
        <ele>4.4</ele>
        <time>2023-11-22T15:59:37Z</time>
      </trkpt>
      <trkpt lat="49.29138" lon="-0.09978">
        <ele>4.4</ele>
        <time>2023-11-22T15:59:38Z</time>
      </trkpt>
      <trkpt lat="49.29138" lon="-0.09978">
        <ele>4.4</ele>
        <time>2023-11-22T15:59:39Z</time>
      </trkpt>
      <trkpt lat="49.29138" lon="-0.09978">
        <ele>4.4</ele>
        <time>2023-11-22T15:59:40Z</time>
      </trkpt>
      <trkpt lat="49.29138" lon="-0.09978">
        <ele>4.4</ele>
        <time>2023-11-22T15:59:41Z</time>
      </trkpt>
      <trkpt lat="49.29138" lon="-0.09978">
        <ele>4.4</ele>
        <time>2023-11-22T15:59:42Z</time>
      </trkpt>
      <trkpt lat="49.29138" lon="-0.09978">
        <ele>4.4</ele>
        <time>2023-11-22T15:59:43Z</time>
      </trkpt>
      <trkpt lat="49.29138" lon="-0.09978">
        <ele>4.4</ele>
        <time>2023-11-22T15:59:44Z</time>
      </trkpt>
      <trkpt lat="49.29138" lon="-0.09978">
        <ele>4.4</ele>
        <time>2023-11-22T15:59:45Z</time>
      </trkpt>
      <trkpt lat="49.29141" lon="-0.09971">
        <ele>4.4</ele>
        <time>2023-11-22T16:00:50Z</time>
      </trkpt>
      <trkpt lat="49.29142" lon="-0.09971">
        <ele>4.4</ele>
        <time>2023-11-22T16:00:51Z</time>
      </trkpt>
      <trkpt lat="49.29142" lon="-0.09972">
        <ele>4.4</ele>
        <time>2023-11-22T16:00:52Z</time>
      </trkpt>
      <trkpt lat="49.29143" lon="-0.09972">
        <ele>4.4</ele>
        <time>2023-11-22T16:00:53Z</time>
      </trkpt>
      <trkpt lat="49.29143" lon="-0.09972">
        <ele>4.4</ele>
        <time>2023-11-22T16:00:54Z</time>
      </trkpt>
      <trkpt lat="49.29143" lon="-0.09973">
        <ele>4.4</ele>
        <time>2023-11-22T16:00:55Z</time>
      </trkpt>
      <trkpt lat="49.29143" lon="-0.09973">
        <ele>4.4</ele>
        <time>2023-11-22T16:00:56Z</time>
      </trkpt>
      <trkpt lat="49.29143" lon="-0.09973">
        <ele>4.4</ele>
        <time>2023-11-22T16:00:57Z</time>
      </trkpt>
      <trkpt lat="49.29143" lon="-0.09973">
        <ele>4.4</ele>
        <time>2023-11-22T16:00:58Z</time>
      </trkpt>
      <trkpt lat="49.29143" lon="-0.09972">
        <ele>4.4</ele>
        <time>2023-11-22T16:00:59Z</time>
      </trkpt>
      <trkpt lat="49.29143" lon="-0.09972">
        <ele>4.4</ele>
        <time>2023-11-22T16:01:00Z</time>
      </trkpt>
      <trkpt lat="49.29142" lon="-0.09972">
        <ele>4.4</ele>
        <time>2023-11-22T16:01:01Z</time>
      </trkpt>
      <trkpt lat="49.29142" lon="-0.09972">
        <ele>4.4</ele>
        <time>2023-11-22T16:01:02Z</time>
      </trkpt>
      <trkpt lat="49.29141" lon="-0.09971">
        <ele>4.4</ele>
        <time>2023-11-22T16:01:03Z</time>
      </trkpt>
      <trkpt lat="49.29141" lon="-0.0997">
        <ele>4.4</ele>
        <time>2023-11-22T16:01:04Z</time>
      </trkpt>
      <trkpt lat="49.29141" lon="-0.0997">
        <ele>4.4</ele>
        <time>2023-11-22T16:01:05Z</time>
      </trkpt>
      <trkpt lat="49.29141" lon="-0.0997">
        <ele>4.4</ele>
        <time>2023-11-22T16:01:06Z</time>
      </trkpt>
      <trkpt lat="49.29139" lon="-0.09968">
        <ele>4.4</ele>
        <time>2023-11-22T16:01:17Z</time>
      </trkpt>
      <trkpt lat="49.29138" lon="-0.09968">
        <ele>4.4</ele>
        <time>2023-11-22T16:01:18Z</time>
      </trkpt>
      <trkpt lat="49.29137" lon="-0.09969">
        <ele>4.4</ele>
        <time>2023-11-22T16:01:19Z</time>
      </trkpt>
      <trkpt lat="49.29136" lon="-0.0997">
        <ele>4.4</ele>
        <time>2023-11-22T16:01:20Z</time>
      </trkpt>
      <trkpt lat="49.29135" lon="-0.09971">
        <ele>4.4</ele>
        <time>2023-11-22T16:01:21Z</time>
      </trkpt>
      <trkpt lat="49.29135" lon="-0.09972">
        <ele>4.4</ele>
        <time>2023-11-22T16:01:22Z</time>
      </trkpt>
      <trkpt lat="49.29135" lon="-0.09972">
        <ele>4.4</ele>
        <time>2023-11-22T16:01:23Z</time>
      </trkpt>
      <trkpt lat="49.29135" lon="-0.09972">
        <ele>4.4</ele>
        <time>2023-11-22T16:01:24Z</time>
      </trkpt>
      <trkpt lat="49.29135" lon="-0.09972">
        <ele>4.4</ele>
        <time>2023-11-22T16:01:25Z</time>
      </trkpt>
      <trkpt lat="49.29135" lon="-0.09972">
        <ele>4.4</ele>
        <time>2023-11-22T16:01:26Z</time>
      </trkpt>
      <trkpt lat="49.29135" lon="-0.09972">
        <ele>4.4</ele>
        <time>2023-11-22T16:01:27Z</time>
      </trkpt>
      <trkpt lat="49.29135" lon="-0.09972">
        <ele>4.4</ele>
        <time>2023-11-22T16:01:28Z</time>
      </trkpt>
      <trkpt lat="49.29135" lon="-0.09972">
        <ele>4.4</ele>
        <time>2023-11-22T16:01:29Z</time>
      </trkpt>
      <trkpt lat="49.29135" lon="-0.09972">
        <ele>4.4</ele>
        <time>2023-11-22T16:01:30Z</time>
      </trkpt>
      <trkpt lat="49.29135" lon="-0.09972">
        <ele>4.4</ele>
        <time>2023-11-22T16:01:31Z</time>
      </trkpt>
      <trkpt lat="49.29135" lon="-0.09972">
        <ele>4.4</ele>
        <time>2023-11-22T16:01:32Z</time>
      </trkpt>
      <trkpt lat="49.29135" lon="-0.09971">
        <ele>4.4</ele>
        <time>2023-11-22T16:01:33Z</time>
      </trkpt>
      <trkpt lat="49.29135" lon="-0.09971">
        <ele>4.4</ele>
        <time>2023-11-22T16:01:34Z</time>
      </trkpt>
      <trkpt lat="49.29134" lon="-0.09969">
        <ele>4.4</ele>
        <time>2023-11-22T16:01:59Z</time>
      </trkpt>
      <trkpt lat="49.29135" lon="-0.09971">
        <ele>4.4</ele>
        <time>2023-11-22T16:02:00Z</time>
      </trkpt>
      <trkpt lat="49.29135" lon="-0.09972">
        <ele>4.4</ele>
        <time>2023-11-22T16:02:01Z</time>
      </trkpt>
      <trkpt lat="49.29135" lon="-0.09973">
        <ele>4.4</ele>
        <time>2023-11-22T16:02:02Z</time>
      </trkpt>
      <trkpt lat="49.29136" lon="-0.09973">
        <ele>4.4</ele>
        <time>2023-11-22T16:02:03Z</time>
      </trkpt>
      <trkpt lat="49.29135" lon="-0.09973">
        <ele>4.4</ele>
        <time>2023-11-22T16:02:04Z</time>
      </trkpt>
      <trkpt lat="49.29136" lon="-0.09973">
        <ele>4.4</ele>
        <time>2023-11-22T16:02:05Z</time>
      </trkpt>
      <trkpt lat="49.29136" lon="-0.09972">
        <ele>4.4</ele>
        <time>2023-11-22T16:02:06Z</time>
      </trkpt>
      <trkpt lat="49.29136" lon="-0.09972">
        <ele>4.4</ele>
        <time>2023-11-22T16:02:07Z</time>
      </trkpt>
      <trkpt lat="49.29135" lon="-0.09971">
        <ele>4.4</ele>
        <time>2023-11-22T16:02:08Z</time>
      </trkpt>
      <trkpt lat="49.29135" lon="-0.09969">
        <ele>4.4</ele>
        <time>2023-11-22T16:02:09Z</time>
      </trkpt>
      <trkpt lat="49.29135" lon="-0.09969">
        <ele>4.4</ele>
        <time>2023-11-22T16:02:10Z</time>
      </trkpt>
      <trkpt lat="49.29134" lon="-0.09968">
        <ele>4.4</ele>
        <time>2023-11-22T16:02:11Z</time>
      </trkpt>
      <trkpt lat="49.29134" lon="-0.09969">
        <ele>4.4</ele>
        <time>2023-11-22T16:02:12Z</time>
      </trkpt>
      <trkpt lat="49.29134" lon="-0.09969">
        <ele>4.4</ele>
        <time>2023-11-22T16:02:13Z</time>
      </trkpt>
      <trkpt lat="49.29132" lon="-0.0997">
        <ele>4.4</ele>
        <time>2023-11-22T16:02:14Z</time>
      </trkpt>
      <trkpt lat="49.29131" lon="-0.0997">
        <ele>4.4</ele>
        <time>2023-11-22T16:02:15Z</time>
      </trkpt>
      <trkpt lat="49.2913" lon="-0.0997">
        <ele>4.4</ele>
        <time>2023-11-22T16:02:16Z</time>
      </trkpt>
      <trkpt lat="49.2913" lon="-0.0997">
        <ele>4.4</ele>
        <time>2023-11-22T16:02:17Z</time>
      </trkpt>
      <trkpt lat="49.29129" lon="-0.0997">
        <ele>4.4</ele>
        <time>2023-11-22T16:02:18Z</time>
      </trkpt>
      <trkpt lat="49.29129" lon="-0.0997">
        <ele>4.4</ele>
        <time>2023-11-22T16:02:19Z</time>
      </trkpt>
      <trkpt lat="49.29129" lon="-0.0997">
        <ele>4.4</ele>
        <time>2023-11-22T16:02:20Z</time>
      </trkpt>
      <trkpt lat="49.29129" lon="-0.09969">
        <ele>4.4</ele>
        <time>2023-11-22T16:02:21Z</time>
      </trkpt>
      <trkpt lat="49.2913" lon="-0.09968">
        <ele>4.4</ele>
        <time>2023-11-22T16:02:22Z</time>
      </trkpt>
      <trkpt lat="49.29129" lon="-0.09968">
        <ele>4.4</ele>
        <time>2023-11-22T16:02:23Z</time>
      </trkpt>
      <trkpt lat="49.29129" lon="-0.09968">
        <ele>4.4</ele>
        <time>2023-11-22T16:02:24Z</time>
      </trkpt>
      <trkpt lat="49.29129" lon="-0.09967">
        <ele>4.4</ele>
        <time>2023-11-22T16:02:25Z</time>
      </trkpt>
      <trkpt lat="49.29129" lon="-0.09967">
        <ele>4.4</ele>
        <time>2023-11-22T16:02:26Z</time>
      </trkpt>
      <trkpt lat="49.29129" lon="-0.09967">
        <ele>4.4</ele>
        <time>2023-11-22T16:02:27Z</time>
      </trkpt>
      <trkpt lat="49.29129" lon="-0.09967">
        <ele>4.4</ele>
        <time>2023-11-22T16:02:28Z</time>
      </trkpt>
      <trkpt lat="49.29129" lon="-0.09967">
        <ele>4.4</ele>
        <time>2023-11-22T16:02:29Z</time>
      </trkpt>
      <trkpt lat="49.29129" lon="-0.09967">
        <ele>4.4</ele>
        <time>2023-11-22T16:02:30Z</time>
      </trkpt>
      <trkpt lat="49.29124" lon="-0.09953">
        <ele>4.4</ele>
        <time>2023-11-22T16:03:07Z</time>
      </trkpt>
      <trkpt lat="49.29123" lon="-0.0995">
        <ele>4.4</ele>
        <time>2023-11-22T16:03:08Z</time>
      </trkpt>
      <trkpt lat="49.29124" lon="-0.09948">
        <ele>4.4</ele>
        <time>2023-11-22T16:03:09Z</time>
      </trkpt>
      <trkpt lat="49.29124" lon="-0.09947">
        <ele>4.4</ele>
        <time>2023-11-22T16:03:10Z</time>
      </trkpt>
      <trkpt lat="49.29125" lon="-0.09948">
        <ele>4.4</ele>
        <time>2023-11-22T16:03:11Z</time>
      </trkpt>
      <trkpt lat="49.29125" lon="-0.09948">
        <ele>4.4</ele>
        <time>2023-11-22T16:03:12Z</time>
      </trkpt>
      <trkpt lat="49.29126" lon="-0.09949">
        <ele>4.4</ele>
        <time>2023-11-22T16:03:13Z</time>
      </trkpt>
      <trkpt lat="49.29127" lon="-0.09949">
        <ele>4.4</ele>
        <time>2023-11-22T16:03:14Z</time>
      </trkpt>
      <trkpt lat="49.29127" lon="-0.09949">
        <ele>4.4</ele>
        <time>2023-11-22T16:03:15Z</time>
      </trkpt>
      <trkpt lat="49.29127" lon="-0.09948">
        <ele>4.4</ele>
        <time>2023-11-22T16:03:16Z</time>
      </trkpt>
      <trkpt lat="49.29128" lon="-0.09948">
        <ele>4.4</ele>
        <time>2023-11-22T16:03:17Z</time>
      </trkpt>
      <trkpt lat="49.29128" lon="-0.09948">
        <ele>4.4</ele>
        <time>2023-11-22T16:03:18Z</time>
      </trkpt>
      <trkpt lat="49.29129" lon="-0.09948">
        <ele>4.4</ele>
        <time>2023-11-22T16:03:19Z</time>
      </trkpt>
      <trkpt lat="49.29129" lon="-0.09948">
        <ele>4.4</ele>
        <time>2023-11-22T16:03:20Z</time>
      </trkpt>
      <trkpt lat="49.29128" lon="-0.09949">
        <ele>4.4</ele>
        <time>2023-11-22T16:03:21Z</time>
      </trkpt>
    </trkseg>
  </trk>
</gpx>